<?xml version="1.0" encoding="UTF-8"?>
<gpx version="1.1" creator="https://www.youtrack.es" xsi:schemaLocation="http://www.topografix.com/GPX/1/1 http://www.topografix.com/GPX/1/1/gpx.xsd http://www.garmin.com/xmlschemas/GpxExtensions/v3 http://www.garmin.com/xmlschemas/GpxExtensionsv3.xsd http://www.garmin.com/xmlschemas/TrackPointExtension/v1 http://www.garmin.com/xmlschemas/TrackPointExtensionv1.xsd" xmlns:gpxtpx="http://www.garmin.com/xmlschemas/TrackPointExtension/v1" xmlns:gpxx="http://www.garmin.com/xmlschemas/GpxExtensions/v3" xmlns:xsi="http://www.w3.org/2001/XMLSchema-instance">
  <metadata>
    <link href="https://www.youtrack.es">
      <text>YouTrack.es</text>
    </link>
    <time>2026-05-11T01:10:31Z</time>
  </metadata>
  <trk>
    <src>https://www.youtrack.es</src>
    <link href="https://www.youtrack.es/ruta/26965-lasantvibike-budas">
      <text>YouTrack.es</text>
    </link>
    <trkseg>
      <trkpt lat="41.38848" lon="2.00799">
        <ele>23.4</ele>
        <time>1970-01-01T12:00:00.000Z</time>
      </trkpt>
      <trkpt lat="41.38848" lon="2.00799">
        <ele>24.0</ele>
        <time>1970-01-01T12:00:04.000Z</time>
      </trkpt>
      <trkpt lat="41.388483" lon="2.007866">
        <ele>23.6</ele>
        <time>1970-01-01T12:00:08.000Z</time>
      </trkpt>
      <trkpt lat="41.388416" lon="2.007753">
        <ele>23.4</ele>
        <time>1970-01-01T12:00:12.000Z</time>
      </trkpt>
      <trkpt lat="41.388323" lon="2.007708">
        <ele>23.6</ele>
        <time>1970-01-01T12:00:16.000Z</time>
      </trkpt>
      <trkpt lat="41.388225" lon="2.00765">
        <ele>24.4</ele>
        <time>1970-01-01T12:00:20.000Z</time>
      </trkpt>
      <trkpt lat="41.388125" lon="2.007581">
        <ele>25.2</ele>
        <time>1970-01-01T12:00:24.000Z</time>
      </trkpt>
      <trkpt lat="41.388025" lon="2.007516">
        <ele>25.6</ele>
        <time>1970-01-01T12:00:28.000Z</time>
      </trkpt>
      <trkpt lat="41.387935" lon="2.007445">
        <ele>26.0</ele>
        <time>1970-01-01T12:00:32.000Z</time>
      </trkpt>
      <trkpt lat="41.38783" lon="2.007361">
        <ele>25.6</ele>
        <time>1970-01-01T12:00:36.000Z</time>
      </trkpt>
      <trkpt lat="41.387708" lon="2.007248">
        <ele>25.6</ele>
        <time>1970-01-01T12:00:40.000Z</time>
      </trkpt>
      <trkpt lat="41.387568" lon="2.007126">
        <ele>25.2</ele>
        <time>1970-01-01T12:00:44.000Z</time>
      </trkpt>
      <trkpt lat="41.387406" lon="2.006976">
        <ele>24.2</ele>
        <time>1970-01-01T12:00:48.000Z</time>
      </trkpt>
      <trkpt lat="41.387225" lon="2.00681">
        <ele>23.4</ele>
        <time>1970-01-01T12:00:52.000Z</time>
      </trkpt>
      <trkpt lat="41.387026" lon="2.006631">
        <ele>23.6</ele>
        <time>1970-01-01T12:00:56.000Z</time>
      </trkpt>
      <trkpt lat="41.386825" lon="2.00643">
        <ele>22.2</ele>
        <time>1970-01-01T12:01:00.000Z</time>
      </trkpt>
      <trkpt lat="41.386611" lon="2.006228">
        <ele>21.2</ele>
        <time>1970-01-01T12:01:04.000Z</time>
      </trkpt>
      <trkpt lat="41.386388" lon="2.00602">
        <ele>20.4</ele>
        <time>1970-01-01T12:01:08.000Z</time>
      </trkpt>
      <trkpt lat="41.386176" lon="2.005815">
        <ele>20.4</ele>
        <time>1970-01-01T12:01:12.000Z</time>
      </trkpt>
      <trkpt lat="41.38598" lon="2.005618">
        <ele>20.0</ele>
        <time>1970-01-01T12:01:16.000Z</time>
      </trkpt>
      <trkpt lat="41.385816" lon="2.00545">
        <ele>19.8</ele>
        <time>1970-01-01T12:01:20.000Z</time>
      </trkpt>
      <trkpt lat="41.38567" lon="2.005275">
        <ele>19.6</ele>
        <time>1970-01-01T12:01:24.000Z</time>
      </trkpt>
      <trkpt lat="41.38553" lon="2.005106">
        <ele>19.8</ele>
        <time>1970-01-01T12:01:28.000Z</time>
      </trkpt>
      <trkpt lat="41.385405" lon="2.00491">
        <ele>20.8</ele>
        <time>1970-01-01T12:01:32.000Z</time>
      </trkpt>
      <trkpt lat="41.385313" lon="2.00471">
        <ele>20.4</ele>
        <time>1970-01-01T12:01:36.000Z</time>
      </trkpt>
      <trkpt lat="41.385225" lon="2.004496">
        <ele>20.8</ele>
        <time>1970-01-01T12:01:40.000Z</time>
      </trkpt>
      <trkpt lat="41.385146" lon="2.00424">
        <ele>20.0</ele>
        <time>1970-01-01T12:01:44.000Z</time>
      </trkpt>
      <trkpt lat="41.385056" lon="2.003948">
        <ele>19.2</ele>
        <time>1970-01-01T12:01:48.000Z</time>
      </trkpt>
      <trkpt lat="41.384958" lon="2.003628">
        <ele>18.0</ele>
        <time>1970-01-01T12:01:52.000Z</time>
      </trkpt>
      <trkpt lat="41.3849" lon="2.003366">
        <ele>17.4</ele>
        <time>1970-01-01T12:01:56.000Z</time>
      </trkpt>
      <trkpt lat="41.384806" lon="2.003163">
        <ele>17.4</ele>
        <time>1970-01-01T12:02:00.000Z</time>
      </trkpt>
      <trkpt lat="41.384715" lon="2.002976">
        <ele>18.0</ele>
        <time>1970-01-01T12:02:04.000Z</time>
      </trkpt>
      <trkpt lat="41.384641" lon="2.002801">
        <ele>18.6</ele>
        <time>1970-01-01T12:02:08.000Z</time>
      </trkpt>
      <trkpt lat="41.384573" lon="2.002651">
        <ele>20.0</ele>
        <time>1970-01-01T12:02:12.000Z</time>
      </trkpt>
      <trkpt lat="41.384513" lon="2.00252">
        <ele>21.4</ele>
        <time>1970-01-01T12:02:16.000Z</time>
      </trkpt>
      <trkpt lat="41.384456" lon="2.002385">
        <ele>22.6</ele>
        <time>1970-01-01T12:02:20.000Z</time>
      </trkpt>
      <trkpt lat="41.384408" lon="2.002273">
        <ele>24.6</ele>
        <time>1970-01-01T12:02:24.000Z</time>
      </trkpt>
      <trkpt lat="41.384361" lon="2.002166">
        <ele>25.2</ele>
        <time>1970-01-01T12:02:28.000Z</time>
      </trkpt>
      <trkpt lat="41.384325" lon="2.002055">
        <ele>26.6</ele>
        <time>1970-01-01T12:02:32.000Z</time>
      </trkpt>
      <trkpt lat="41.384361" lon="2.001955">
        <ele>27.4</ele>
        <time>1970-01-01T12:02:36.000Z</time>
      </trkpt>
      <trkpt lat="41.384443" lon="2.00188">
        <ele>28.6</ele>
        <time>1970-01-01T12:02:40.000Z</time>
      </trkpt>
      <trkpt lat="41.384518" lon="2.001821">
        <ele>29.0</ele>
        <time>1970-01-01T12:02:44.000Z</time>
      </trkpt>
      <trkpt lat="41.384593" lon="2.001751">
        <ele>29.6</ele>
        <time>1970-01-01T12:02:48.000Z</time>
      </trkpt>
      <trkpt lat="41.384665" lon="2.001681">
        <ele>30.4</ele>
        <time>1970-01-01T12:02:52.000Z</time>
      </trkpt>
      <trkpt lat="41.384698" lon="2.001546">
        <ele>31.0</ele>
        <time>1970-01-01T12:02:56.000Z</time>
      </trkpt>
      <trkpt lat="41.384658" lon="2.001418">
        <ele>32.2</ele>
        <time>1970-01-01T12:03:00.000Z</time>
      </trkpt>
      <trkpt lat="41.384601" lon="2.001291">
        <ele>32.8</ele>
        <time>1970-01-01T12:03:04.000Z</time>
      </trkpt>
      <trkpt lat="41.384515" lon="2.001163">
        <ele>33.4</ele>
        <time>1970-01-01T12:03:08.000Z</time>
      </trkpt>
      <trkpt lat="41.384458" lon="2.001015">
        <ele>34.8</ele>
        <time>1970-01-01T12:03:12.000Z</time>
      </trkpt>
      <trkpt lat="41.384406" lon="2.000861">
        <ele>36.8</ele>
        <time>1970-01-01T12:03:16.000Z</time>
      </trkpt>
      <trkpt lat="41.384345" lon="2.000715">
        <ele>38.4</ele>
        <time>1970-01-01T12:03:20.000Z</time>
      </trkpt>
      <trkpt lat="41.38429" lon="2.000568">
        <ele>39.6</ele>
        <time>1970-01-01T12:03:24.000Z</time>
      </trkpt>
      <trkpt lat="41.384235" lon="2.000436">
        <ele>41.4</ele>
        <time>1970-01-01T12:03:28.000Z</time>
      </trkpt>
      <trkpt lat="41.384201" lon="2.00031">
        <ele>42.6</ele>
        <time>1970-01-01T12:03:32.000Z</time>
      </trkpt>
      <trkpt lat="41.384185" lon="2.00019">
        <ele>43.2</ele>
        <time>1970-01-01T12:03:36.000Z</time>
      </trkpt>
      <trkpt lat="41.384183" lon="2.000073">
        <ele>44.6</ele>
        <time>1970-01-01T12:03:40.000Z</time>
      </trkpt>
      <trkpt lat="41.384185" lon="1.999963">
        <ele>45.4</ele>
        <time>1970-01-01T12:03:44.000Z</time>
      </trkpt>
      <trkpt lat="41.384195" lon="1.999861">
        <ele>46.0</ele>
        <time>1970-01-01T12:03:48.000Z</time>
      </trkpt>
      <trkpt lat="41.38419" lon="1.999741">
        <ele>47.0</ele>
        <time>1970-01-01T12:03:52.000Z</time>
      </trkpt>
      <trkpt lat="41.384203" lon="1.999631">
        <ele>47.8</ele>
        <time>1970-01-01T12:03:56.000Z</time>
      </trkpt>
      <trkpt lat="41.384216" lon="1.999513">
        <ele>48.4</ele>
        <time>1970-01-01T12:04:00.000Z</time>
      </trkpt>
      <trkpt lat="41.384231" lon="1.999403">
        <ele>49.2</ele>
        <time>1970-01-01T12:04:04.000Z</time>
      </trkpt>
      <trkpt lat="41.384243" lon="1.999291">
        <ele>50.0</ele>
        <time>1970-01-01T12:04:08.000Z</time>
      </trkpt>
      <trkpt lat="41.384255" lon="1.999195">
        <ele>51.0</ele>
        <time>1970-01-01T12:04:12.000Z</time>
      </trkpt>
      <trkpt lat="41.384265" lon="1.999096">
        <ele>51.6</ele>
        <time>1970-01-01T12:04:16.000Z</time>
      </trkpt>
      <trkpt lat="41.384273" lon="1.998996">
        <ele>52.2</ele>
        <time>1970-01-01T12:04:20.000Z</time>
      </trkpt>
      <trkpt lat="41.384283" lon="1.998893">
        <ele>52.6</ele>
        <time>1970-01-01T12:04:24.000Z</time>
      </trkpt>
      <trkpt lat="41.384293" lon="1.998788">
        <ele>53.4</ele>
        <time>1970-01-01T12:04:28.000Z</time>
      </trkpt>
      <trkpt lat="41.38431" lon="1.998688">
        <ele>54.2</ele>
        <time>1970-01-01T12:04:32.000Z</time>
      </trkpt>
      <trkpt lat="41.384333" lon="1.998581">
        <ele>54.8</ele>
        <time>1970-01-01T12:04:36.000Z</time>
      </trkpt>
      <trkpt lat="41.384371" lon="1.998471">
        <ele>54.6</ele>
        <time>1970-01-01T12:04:40.000Z</time>
      </trkpt>
      <trkpt lat="41.384411" lon="1.998355">
        <ele>55.6</ele>
        <time>1970-01-01T12:04:44.000Z</time>
      </trkpt>
      <trkpt lat="41.38446" lon="1.998221">
        <ele>55.4</ele>
        <time>1970-01-01T12:04:48.000Z</time>
      </trkpt>
      <trkpt lat="41.384503" lon="1.99807">
        <ele>55.2</ele>
        <time>1970-01-01T12:04:52.000Z</time>
      </trkpt>
      <trkpt lat="41.384526" lon="1.997903">
        <ele>55.2</ele>
        <time>1970-01-01T12:04:56.000Z</time>
      </trkpt>
      <trkpt lat="41.384536" lon="1.997735">
        <ele>55.4</ele>
        <time>1970-01-01T12:05:00.000Z</time>
      </trkpt>
      <trkpt lat="41.384525" lon="1.997551">
        <ele>55.2</ele>
        <time>1970-01-01T12:05:04.000Z</time>
      </trkpt>
      <trkpt lat="41.384505" lon="1.997338">
        <ele>55.0</ele>
        <time>1970-01-01T12:05:08.000Z</time>
      </trkpt>
      <trkpt lat="41.384488" lon="1.997113">
        <ele>55.2</ele>
        <time>1970-01-01T12:05:12.000Z</time>
      </trkpt>
      <trkpt lat="41.384458" lon="1.99689">
        <ele>55.2</ele>
        <time>1970-01-01T12:05:16.000Z</time>
      </trkpt>
      <trkpt lat="41.384401" lon="1.996655">
        <ele>55.6</ele>
        <time>1970-01-01T12:05:20.000Z</time>
      </trkpt>
      <trkpt lat="41.384315" lon="1.996445">
        <ele>55.4</ele>
        <time>1970-01-01T12:05:24.000Z</time>
      </trkpt>
      <trkpt lat="41.3842" lon="1.996296">
        <ele>56.2</ele>
        <time>1970-01-01T12:05:28.000Z</time>
      </trkpt>
      <trkpt lat="41.384095" lon="1.99615">
        <ele>57.2</ele>
        <time>1970-01-01T12:05:32.000Z</time>
      </trkpt>
      <trkpt lat="41.384016" lon="1.995961">
        <ele>57.6</ele>
        <time>1970-01-01T12:05:36.000Z</time>
      </trkpt>
      <trkpt lat="41.38397" lon="1.995745">
        <ele>58.2</ele>
        <time>1970-01-01T12:05:40.000Z</time>
      </trkpt>
      <trkpt lat="41.383958" lon="1.995516">
        <ele>58.0</ele>
        <time>1970-01-01T12:05:44.000Z</time>
      </trkpt>
      <trkpt lat="41.383981" lon="1.995291">
        <ele>58.6</ele>
        <time>1970-01-01T12:05:48.000Z</time>
      </trkpt>
      <trkpt lat="41.384026" lon="1.995126">
        <ele>59.2</ele>
        <time>1970-01-01T12:05:52.000Z</time>
      </trkpt>
      <trkpt lat="41.384076" lon="1.994981">
        <ele>60.0</ele>
        <time>1970-01-01T12:05:56.000Z</time>
      </trkpt>
      <trkpt lat="41.384116" lon="1.994811">
        <ele>60.4</ele>
        <time>1970-01-01T12:06:00.000Z</time>
      </trkpt>
      <trkpt lat="41.384148" lon="1.994636">
        <ele>61.2</ele>
        <time>1970-01-01T12:06:04.000Z</time>
      </trkpt>
      <trkpt lat="41.384181" lon="1.994473">
        <ele>61.8</ele>
        <time>1970-01-01T12:06:08.000Z</time>
      </trkpt>
      <trkpt lat="41.3842" lon="1.994306">
        <ele>62.4</ele>
        <time>1970-01-01T12:06:12.000Z</time>
      </trkpt>
      <trkpt lat="41.38421" lon="1.994136">
        <ele>63.0</ele>
        <time>1970-01-01T12:06:16.000Z</time>
      </trkpt>
      <trkpt lat="41.384203" lon="1.99397">
        <ele>63.2</ele>
        <time>1970-01-01T12:06:20.000Z</time>
      </trkpt>
      <trkpt lat="41.384181" lon="1.993803">
        <ele>63.8</ele>
        <time>1970-01-01T12:06:24.000Z</time>
      </trkpt>
      <trkpt lat="41.384135" lon="1.993651">
        <ele>64.4</ele>
        <time>1970-01-01T12:06:28.000Z</time>
      </trkpt>
      <trkpt lat="41.384076" lon="1.993518">
        <ele>64.8</ele>
        <time>1970-01-01T12:06:32.000Z</time>
      </trkpt>
      <trkpt lat="41.384015" lon="1.993426">
        <ele>65.6</ele>
        <time>1970-01-01T12:06:36.000Z</time>
      </trkpt>
      <trkpt lat="41.38395" lon="1.993313">
        <ele>66.2</ele>
        <time>1970-01-01T12:06:40.000Z</time>
      </trkpt>
      <trkpt lat="41.383903" lon="1.9932">
        <ele>67.4</ele>
        <time>1970-01-01T12:06:44.000Z</time>
      </trkpt>
      <trkpt lat="41.383871" lon="1.993093">
        <ele>68.2</ele>
        <time>1970-01-01T12:06:48.000Z</time>
      </trkpt>
      <trkpt lat="41.383886" lon="1.992986">
        <ele>69.0</ele>
        <time>1970-01-01T12:06:52.000Z</time>
      </trkpt>
      <trkpt lat="41.383873" lon="1.99288">
        <ele>69.4</ele>
        <time>1970-01-01T12:06:56.000Z</time>
      </trkpt>
      <trkpt lat="41.383835" lon="1.9928">
        <ele>70.4</ele>
        <time>1970-01-01T12:07:00.000Z</time>
      </trkpt>
      <trkpt lat="41.383798" lon="1.992713">
        <ele>71.4</ele>
        <time>1970-01-01T12:07:04.000Z</time>
      </trkpt>
      <trkpt lat="41.383763" lon="1.992618">
        <ele>72.0</ele>
        <time>1970-01-01T12:07:08.000Z</time>
      </trkpt>
      <trkpt lat="41.38377" lon="1.992506">
        <ele>73.6</ele>
        <time>1970-01-01T12:07:12.000Z</time>
      </trkpt>
      <trkpt lat="41.38383" lon="1.99243">
        <ele>73.6</ele>
        <time>1970-01-01T12:07:16.000Z</time>
      </trkpt>
      <trkpt lat="41.383888" lon="1.992326">
        <ele>74.0</ele>
        <time>1970-01-01T12:07:20.000Z</time>
      </trkpt>
      <trkpt lat="41.38394" lon="1.992251">
        <ele>74.0</ele>
        <time>1970-01-01T12:07:24.000Z</time>
      </trkpt>
      <trkpt lat="41.38399" lon="1.992196">
        <ele>74.4</ele>
        <time>1970-01-01T12:07:28.000Z</time>
      </trkpt>
      <trkpt lat="41.384023" lon="1.992141">
        <ele>74.0</ele>
        <time>1970-01-01T12:07:32.000Z</time>
      </trkpt>
      <trkpt lat="41.384053" lon="1.992093">
        <ele>74.0</ele>
        <time>1970-01-01T12:07:36.000Z</time>
      </trkpt>
      <trkpt lat="41.38408" lon="1.992055">
        <ele>74.6</ele>
        <time>1970-01-01T12:07:40.000Z</time>
      </trkpt>
      <trkpt lat="41.384098" lon="1.992031">
        <ele>74.0</ele>
        <time>1970-01-01T12:07:44.000Z</time>
      </trkpt>
      <trkpt lat="41.384376" lon="1.991515">
        <ele>74.2</ele>
        <time>1970-01-01T12:15:47.000Z</time>
      </trkpt>
      <trkpt lat="41.384421" lon="1.991416">
        <ele>74.4</ele>
        <time>1970-01-01T12:15:51.000Z</time>
      </trkpt>
      <trkpt lat="41.384448" lon="1.991325">
        <ele>75.0</ele>
        <time>1970-01-01T12:15:55.000Z</time>
      </trkpt>
      <trkpt lat="41.384448" lon="1.991231">
        <ele>76.0</ele>
        <time>1970-01-01T12:15:59.000Z</time>
      </trkpt>
      <trkpt lat="41.384436" lon="1.991155">
        <ele>77.4</ele>
        <time>1970-01-01T12:16:03.000Z</time>
      </trkpt>
      <trkpt lat="41.384416" lon="1.991073">
        <ele>79.0</ele>
        <time>1970-01-01T12:16:07.000Z</time>
      </trkpt>
      <trkpt lat="41.384418" lon="1.990981">
        <ele>80.0</ele>
        <time>1970-01-01T12:16:11.000Z</time>
      </trkpt>
      <trkpt lat="41.384401" lon="1.990906">
        <ele>80.6</ele>
        <time>1970-01-01T12:16:15.000Z</time>
      </trkpt>
      <trkpt lat="41.384385" lon="1.990816">
        <ele>82.4</ele>
        <time>1970-01-01T12:16:19.000Z</time>
      </trkpt>
      <trkpt lat="41.384381" lon="1.99075">
        <ele>83.2</ele>
        <time>1970-01-01T12:16:23.000Z</time>
      </trkpt>
      <trkpt lat="41.38437" lon="1.990658">
        <ele>84.2</ele>
        <time>1970-01-01T12:16:27.000Z</time>
      </trkpt>
      <trkpt lat="41.38436" lon="1.990575">
        <ele>85.8</ele>
        <time>1970-01-01T12:16:31.000Z</time>
      </trkpt>
      <trkpt lat="41.384356" lon="1.990513">
        <ele>87.0</ele>
        <time>1970-01-01T12:16:35.000Z</time>
      </trkpt>
      <trkpt lat="41.384348" lon="1.990438">
        <ele>88.2</ele>
        <time>1970-01-01T12:16:39.000Z</time>
      </trkpt>
      <trkpt lat="41.384345" lon="1.990358">
        <ele>89.8</ele>
        <time>1970-01-01T12:16:43.000Z</time>
      </trkpt>
      <trkpt lat="41.38434" lon="1.990268">
        <ele>90.6</ele>
        <time>1970-01-01T12:16:47.000Z</time>
      </trkpt>
      <trkpt lat="41.384326" lon="1.990211">
        <ele>90.8</ele>
        <time>1970-01-01T12:16:51.000Z</time>
      </trkpt>
      <trkpt lat="41.384353" lon="1.990138">
        <ele>89.8</ele>
        <time>1970-01-01T12:16:55.000Z</time>
      </trkpt>
      <trkpt lat="41.384361" lon="1.990051">
        <ele>89.8</ele>
        <time>1970-01-01T12:16:59.000Z</time>
      </trkpt>
      <trkpt lat="41.384365" lon="1.989951">
        <ele>90.0</ele>
        <time>1970-01-01T12:17:03.000Z</time>
      </trkpt>
      <trkpt lat="41.384363" lon="1.989871">
        <ele>91.0</ele>
        <time>1970-01-01T12:17:07.000Z</time>
      </trkpt>
      <trkpt lat="41.384346" lon="1.989795">
        <ele>91.8</ele>
        <time>1970-01-01T12:17:11.000Z</time>
      </trkpt>
      <trkpt lat="41.384316" lon="1.989711">
        <ele>93.8</ele>
        <time>1970-01-01T12:17:15.000Z</time>
      </trkpt>
      <trkpt lat="41.3843" lon="1.989661">
        <ele>94.6</ele>
        <time>1970-01-01T12:17:19.000Z</time>
      </trkpt>
      <trkpt lat="41.384285" lon="1.989581">
        <ele>94.4</ele>
        <time>1970-01-01T12:17:23.000Z</time>
      </trkpt>
      <trkpt lat="41.384263" lon="1.989511">
        <ele>94.6</ele>
        <time>1970-01-01T12:17:27.000Z</time>
      </trkpt>
      <trkpt lat="41.384241" lon="1.989436">
        <ele>94.6</ele>
        <time>1970-01-01T12:17:31.000Z</time>
      </trkpt>
      <trkpt lat="41.38421" lon="1.989368">
        <ele>94.6</ele>
        <time>1970-01-01T12:17:35.000Z</time>
      </trkpt>
      <trkpt lat="41.384196" lon="1.989283">
        <ele>95.0</ele>
        <time>1970-01-01T12:17:39.000Z</time>
      </trkpt>
      <trkpt lat="41.384183" lon="1.989175">
        <ele>94.6</ele>
        <time>1970-01-01T12:17:43.000Z</time>
      </trkpt>
      <trkpt lat="41.384173" lon="1.989065">
        <ele>95.6</ele>
        <time>1970-01-01T12:17:47.000Z</time>
      </trkpt>
      <trkpt lat="41.384163" lon="1.988908">
        <ele>95.4</ele>
        <time>1970-01-01T12:17:51.000Z</time>
      </trkpt>
      <trkpt lat="41.384146" lon="1.988761">
        <ele>95.6</ele>
        <time>1970-01-01T12:17:55.000Z</time>
      </trkpt>
      <trkpt lat="41.38414" lon="1.988585">
        <ele>95.6</ele>
        <time>1970-01-01T12:17:59.000Z</time>
      </trkpt>
      <trkpt lat="41.384158" lon="1.988443">
        <ele>96.6</ele>
        <time>1970-01-01T12:18:03.000Z</time>
      </trkpt>
      <trkpt lat="41.384165" lon="1.988271">
        <ele>97.4</ele>
        <time>1970-01-01T12:18:07.000Z</time>
      </trkpt>
      <trkpt lat="41.384171" lon="1.988123">
        <ele>97.4</ele>
        <time>1970-01-01T12:18:11.000Z</time>
      </trkpt>
      <trkpt lat="41.384161" lon="1.98795">
        <ele>97.2</ele>
        <time>1970-01-01T12:18:15.000Z</time>
      </trkpt>
      <trkpt lat="41.384135" lon="1.987786">
        <ele>98.0</ele>
        <time>1970-01-01T12:18:19.000Z</time>
      </trkpt>
      <trkpt lat="41.384086" lon="1.987656">
        <ele>98.4</ele>
        <time>1970-01-01T12:18:23.000Z</time>
      </trkpt>
      <trkpt lat="41.384023" lon="1.987585">
        <ele>98.4</ele>
        <time>1970-01-01T12:18:27.000Z</time>
      </trkpt>
      <trkpt lat="41.383955" lon="1.987515">
        <ele>99.0</ele>
        <time>1970-01-01T12:18:31.000Z</time>
      </trkpt>
      <trkpt lat="41.3839" lon="1.987455">
        <ele>99.8</ele>
        <time>1970-01-01T12:18:35.000Z</time>
      </trkpt>
      <trkpt lat="41.383825" lon="1.987386">
        <ele>99.8</ele>
        <time>1970-01-01T12:18:39.000Z</time>
      </trkpt>
      <trkpt lat="41.383746" lon="1.987346">
        <ele>100.2</ele>
        <time>1970-01-01T12:18:43.000Z</time>
      </trkpt>
      <trkpt lat="41.38367" lon="1.98728">
        <ele>100.6</ele>
        <time>1970-01-01T12:18:47.000Z</time>
      </trkpt>
      <trkpt lat="41.383593" lon="1.987178">
        <ele>100.8</ele>
        <time>1970-01-01T12:18:51.000Z</time>
      </trkpt>
      <trkpt lat="41.383505" lon="1.987018">
        <ele>100.8</ele>
        <time>1970-01-01T12:18:55.000Z</time>
      </trkpt>
      <trkpt lat="41.383476" lon="1.986861">
        <ele>101.2</ele>
        <time>1970-01-01T12:18:59.000Z</time>
      </trkpt>
      <trkpt lat="41.383461" lon="1.986711">
        <ele>101.2</ele>
        <time>1970-01-01T12:19:03.000Z</time>
      </trkpt>
      <trkpt lat="41.383456" lon="1.98655">
        <ele>101.2</ele>
        <time>1970-01-01T12:19:07.000Z</time>
      </trkpt>
      <trkpt lat="41.383453" lon="1.986368">
        <ele>99.6</ele>
        <time>1970-01-01T12:19:11.000Z</time>
      </trkpt>
      <trkpt lat="41.383425" lon="1.986121">
        <ele>99.8</ele>
        <time>1970-01-01T12:19:15.000Z</time>
      </trkpt>
      <trkpt lat="41.383496" lon="1.985973">
        <ele>100.0</ele>
        <time>1970-01-01T12:19:19.000Z</time>
      </trkpt>
      <trkpt lat="41.383615" lon="1.986038">
        <ele>99.6</ele>
        <time>1970-01-01T12:19:23.000Z</time>
      </trkpt>
      <trkpt lat="41.383711" lon="1.986171">
        <ele>99.8</ele>
        <time>1970-01-01T12:19:27.000Z</time>
      </trkpt>
      <trkpt lat="41.383805" lon="1.986318">
        <ele>100.0</ele>
        <time>1970-01-01T12:19:31.000Z</time>
      </trkpt>
      <trkpt lat="41.383888" lon="1.98637">
        <ele>101.0</ele>
        <time>1970-01-01T12:19:35.000Z</time>
      </trkpt>
      <trkpt lat="41.383968" lon="1.986426">
        <ele>101.0</ele>
        <time>1970-01-01T12:19:39.000Z</time>
      </trkpt>
      <trkpt lat="41.384111" lon="1.986555">
        <ele>97.0</ele>
        <time>1970-01-01T12:19:43.000Z</time>
      </trkpt>
      <trkpt lat="41.38432" lon="1.986738">
        <ele>93.0</ele>
        <time>1970-01-01T12:19:47.000Z</time>
      </trkpt>
      <trkpt lat="41.384505" lon="1.986915">
        <ele>91.6</ele>
        <time>1970-01-01T12:19:51.000Z</time>
      </trkpt>
      <trkpt lat="41.384691" lon="1.986956">
        <ele>88.2</ele>
        <time>1970-01-01T12:19:55.000Z</time>
      </trkpt>
      <trkpt lat="41.384795" lon="1.987155">
        <ele>89.0</ele>
        <time>1970-01-01T12:19:59.000Z</time>
      </trkpt>
      <trkpt lat="41.384845" lon="1.987293">
        <ele>90.0</ele>
        <time>1970-01-01T12:20:03.000Z</time>
      </trkpt>
      <trkpt lat="41.384836" lon="1.987406">
        <ele>88.8</ele>
        <time>1970-01-01T12:20:07.000Z</time>
      </trkpt>
      <trkpt lat="41.384898" lon="1.987523">
        <ele>88.8</ele>
        <time>1970-01-01T12:20:11.000Z</time>
      </trkpt>
      <trkpt lat="41.385028" lon="1.987596">
        <ele>90.0</ele>
        <time>1970-01-01T12:20:15.000Z</time>
      </trkpt>
      <trkpt lat="41.385156" lon="1.987701">
        <ele>89.6</ele>
        <time>1970-01-01T12:20:19.000Z</time>
      </trkpt>
      <trkpt lat="41.385291" lon="1.98782">
        <ele>89.4</ele>
        <time>1970-01-01T12:20:23.000Z</time>
      </trkpt>
      <trkpt lat="41.385423" lon="1.987938">
        <ele>89.4</ele>
        <time>1970-01-01T12:20:27.000Z</time>
      </trkpt>
      <trkpt lat="41.385555" lon="1.988056">
        <ele>88.6</ele>
        <time>1970-01-01T12:20:31.000Z</time>
      </trkpt>
      <trkpt lat="41.385685" lon="1.988201">
        <ele>89.4</ele>
        <time>1970-01-01T12:20:35.000Z</time>
      </trkpt>
      <trkpt lat="41.38576" lon="1.988278">
        <ele>89.4</ele>
        <time>1970-01-01T12:20:39.000Z</time>
      </trkpt>
      <trkpt lat="41.385918" lon="1.98835">
        <ele>89.2</ele>
        <time>1970-01-01T12:22:07.000Z</time>
      </trkpt>
      <trkpt lat="41.386001" lon="1.988296">
        <ele>89.2</ele>
        <time>1970-01-01T12:22:11.000Z</time>
      </trkpt>
      <trkpt lat="41.386078" lon="1.988266">
        <ele>90.4</ele>
        <time>1970-01-01T12:22:15.000Z</time>
      </trkpt>
      <trkpt lat="41.386093" lon="1.9882">
        <ele>90.6</ele>
        <time>1970-01-01T12:22:19.000Z</time>
      </trkpt>
      <trkpt lat="41.386151" lon="1.98816">
        <ele>91.6</ele>
        <time>1970-01-01T12:22:23.000Z</time>
      </trkpt>
      <trkpt lat="41.386498" lon="1.988433">
        <ele>97.6</ele>
        <time>1970-01-01T12:23:29.000Z</time>
      </trkpt>
      <trkpt lat="41.387321" lon="1.98852">
        <ele>115.8</ele>
        <time>1970-01-01T12:26:44.000Z</time>
      </trkpt>
      <trkpt lat="41.38739" lon="1.988573">
        <ele>115.6</ele>
        <time>1970-01-01T12:26:48.000Z</time>
      </trkpt>
      <trkpt lat="41.387463" lon="1.9886">
        <ele>115.8</ele>
        <time>1970-01-01T12:26:52.000Z</time>
      </trkpt>
      <trkpt lat="41.387496" lon="1.988555">
        <ele>116.8</ele>
        <time>1970-01-01T12:26:56.000Z</time>
      </trkpt>
      <trkpt lat="41.387475" lon="1.988521">
        <ele>117.8</ele>
        <time>1970-01-01T12:27:00.000Z</time>
      </trkpt>
      <trkpt lat="41.387455" lon="1.988476">
        <ele>119.2</ele>
        <time>1970-01-01T12:27:04.000Z</time>
      </trkpt>
      <trkpt lat="41.387441" lon="1.988433">
        <ele>119.8</ele>
        <time>1970-01-01T12:27:08.000Z</time>
      </trkpt>
      <trkpt lat="41.387353" lon="1.987206">
        <ele>130.6</ele>
        <time>1970-01-01T12:33:12.000Z</time>
      </trkpt>
      <trkpt lat="41.387385" lon="1.98724">
        <ele>131.6</ele>
        <time>1970-01-01T12:33:16.000Z</time>
      </trkpt>
      <trkpt lat="41.387411" lon="1.987333">
        <ele>131.2</ele>
        <time>1970-01-01T12:33:20.000Z</time>
      </trkpt>
      <trkpt lat="41.387455" lon="1.98739">
        <ele>131.4</ele>
        <time>1970-01-01T12:33:24.000Z</time>
      </trkpt>
      <trkpt lat="41.387461" lon="1.987498">
        <ele>131.2</ele>
        <time>1970-01-01T12:33:28.000Z</time>
      </trkpt>
      <trkpt lat="41.387515" lon="1.987635">
        <ele>131.6</ele>
        <time>1970-01-01T12:33:32.000Z</time>
      </trkpt>
      <trkpt lat="41.387551" lon="1.987698">
        <ele>132.4</ele>
        <time>1970-01-01T12:33:36.000Z</time>
      </trkpt>
      <trkpt lat="41.388061" lon="1.988071">
        <ele>131.8</ele>
        <time>1970-01-01T12:35:50.000Z</time>
      </trkpt>
      <trkpt lat="41.388105" lon="1.988105">
        <ele>130.8</ele>
        <time>1970-01-01T12:35:54.000Z</time>
      </trkpt>
      <trkpt lat="41.388188" lon="1.98811">
        <ele>130.4</ele>
        <time>1970-01-01T12:35:58.000Z</time>
      </trkpt>
      <trkpt lat="41.38825" lon="1.988105">
        <ele>129.8</ele>
        <time>1970-01-01T12:36:02.000Z</time>
      </trkpt>
      <trkpt lat="41.388303" lon="1.988076">
        <ele>130.0</ele>
        <time>1970-01-01T12:36:06.000Z</time>
      </trkpt>
      <trkpt lat="41.38837" lon="1.988103">
        <ele>130.2</ele>
        <time>1970-01-01T12:36:10.000Z</time>
      </trkpt>
      <trkpt lat="41.388405" lon="1.988145">
        <ele>130.0</ele>
        <time>1970-01-01T12:36:14.000Z</time>
      </trkpt>
      <trkpt lat="41.388435" lon="1.988203">
        <ele>130.4</ele>
        <time>1970-01-01T12:36:18.000Z</time>
      </trkpt>
      <trkpt lat="41.388455" lon="1.988246">
        <ele>130.4</ele>
        <time>1970-01-01T12:36:22.000Z</time>
      </trkpt>
      <trkpt lat="41.388495" lon="1.988288">
        <ele>130.4</ele>
        <time>1970-01-01T12:36:26.000Z</time>
      </trkpt>
      <trkpt lat="41.388801" lon="1.98823">
        <ele>136.0</ele>
        <time>1970-01-01T12:37:45.000Z</time>
      </trkpt>
      <trkpt lat="41.388751" lon="1.988128">
        <ele>136.8</ele>
        <time>1970-01-01T12:37:49.000Z</time>
      </trkpt>
      <trkpt lat="41.388733" lon="1.98797">
        <ele>138.2</ele>
        <time>1970-01-01T12:37:53.000Z</time>
      </trkpt>
      <trkpt lat="41.388731" lon="1.98783">
        <ele>140.0</ele>
        <time>1970-01-01T12:37:57.000Z</time>
      </trkpt>
      <trkpt lat="41.38873" lon="1.987701">
        <ele>141.4</ele>
        <time>1970-01-01T12:38:01.000Z</time>
      </trkpt>
      <trkpt lat="41.388671" lon="1.987598">
        <ele>143.0</ele>
        <time>1970-01-01T12:38:05.000Z</time>
      </trkpt>
      <trkpt lat="41.38856" lon="1.987608">
        <ele>144.6</ele>
        <time>1970-01-01T12:38:09.000Z</time>
      </trkpt>
      <trkpt lat="41.388465" lon="1.987595">
        <ele>145.4</ele>
        <time>1970-01-01T12:38:13.000Z</time>
      </trkpt>
      <trkpt lat="41.388351" lon="1.987578">
        <ele>146.8</ele>
        <time>1970-01-01T12:38:17.000Z</time>
      </trkpt>
      <trkpt lat="41.388245" lon="1.987518">
        <ele>146.6</ele>
        <time>1970-01-01T12:38:21.000Z</time>
      </trkpt>
      <trkpt lat="41.388173" lon="1.987451">
        <ele>147.8</ele>
        <time>1970-01-01T12:38:25.000Z</time>
      </trkpt>
      <trkpt lat="41.388111" lon="1.987386">
        <ele>147.6</ele>
        <time>1970-01-01T12:38:29.000Z</time>
      </trkpt>
      <trkpt lat="41.388073" lon="1.987321">
        <ele>147.6</ele>
        <time>1970-01-01T12:38:33.000Z</time>
      </trkpt>
      <trkpt lat="41.388033" lon="1.987233">
        <ele>148.8</ele>
        <time>1970-01-01T12:38:37.000Z</time>
      </trkpt>
      <trkpt lat="41.387991" lon="1.987135">
        <ele>149.0</ele>
        <time>1970-01-01T12:38:41.000Z</time>
      </trkpt>
      <trkpt lat="41.387993" lon="1.98704">
        <ele>149.6</ele>
        <time>1970-01-01T12:38:45.000Z</time>
      </trkpt>
      <trkpt lat="41.388033" lon="1.987005">
        <ele>150.8</ele>
        <time>1970-01-01T12:38:49.000Z</time>
      </trkpt>
      <trkpt lat="41.38806" lon="1.987056">
        <ele>151.6</ele>
        <time>1970-01-01T12:38:53.000Z</time>
      </trkpt>
      <trkpt lat="41.388095" lon="1.987116">
        <ele>152.4</ele>
        <time>1970-01-01T12:38:57.000Z</time>
      </trkpt>
      <trkpt lat="41.38813" lon="1.987155">
        <ele>153.4</ele>
        <time>1970-01-01T12:39:01.000Z</time>
      </trkpt>
      <trkpt lat="41.388176" lon="1.987176">
        <ele>154.6</ele>
        <time>1970-01-01T12:39:05.000Z</time>
      </trkpt>
      <trkpt lat="41.388221" lon="1.987178">
        <ele>156.2</ele>
        <time>1970-01-01T12:39:09.000Z</time>
      </trkpt>
      <trkpt lat="41.388253" lon="1.98718">
        <ele>157.0</ele>
        <time>1970-01-01T12:39:13.000Z</time>
      </trkpt>
      <trkpt lat="41.388295" lon="1.987176">
        <ele>157.6</ele>
        <time>1970-01-01T12:39:17.000Z</time>
      </trkpt>
      <trkpt lat="41.388335" lon="1.987173">
        <ele>158.0</ele>
        <time>1970-01-01T12:39:21.000Z</time>
      </trkpt>
      <trkpt lat="41.388378" lon="1.987166">
        <ele>158.4</ele>
        <time>1970-01-01T12:39:25.000Z</time>
      </trkpt>
      <trkpt lat="41.38843" lon="1.987145">
        <ele>159.2</ele>
        <time>1970-01-01T12:39:29.000Z</time>
      </trkpt>
      <trkpt lat="41.388486" lon="1.98713">
        <ele>160.4</ele>
        <time>1970-01-01T12:39:33.000Z</time>
      </trkpt>
      <trkpt lat="41.388535" lon="1.987108">
        <ele>160.6</ele>
        <time>1970-01-01T12:39:37.000Z</time>
      </trkpt>
      <trkpt lat="41.388573" lon="1.98708">
        <ele>161.8</ele>
        <time>1970-01-01T12:39:41.000Z</time>
      </trkpt>
      <trkpt lat="41.388621" lon="1.987055">
        <ele>163.0</ele>
        <time>1970-01-01T12:39:45.000Z</time>
      </trkpt>
      <trkpt lat="41.38866" lon="1.987046">
        <ele>164.0</ele>
        <time>1970-01-01T12:39:49.000Z</time>
      </trkpt>
      <trkpt lat="41.388701" lon="1.987048">
        <ele>165.4</ele>
        <time>1970-01-01T12:39:53.000Z</time>
      </trkpt>
      <trkpt lat="41.388758" lon="1.98706">
        <ele>165.8</ele>
        <time>1970-01-01T12:39:57.000Z</time>
      </trkpt>
      <trkpt lat="41.388806" lon="1.987081">
        <ele>166.2</ele>
        <time>1970-01-01T12:40:01.000Z</time>
      </trkpt>
      <trkpt lat="41.388858" lon="1.987075">
        <ele>166.6</ele>
        <time>1970-01-01T12:40:05.000Z</time>
      </trkpt>
      <trkpt lat="41.388856" lon="1.987016">
        <ele>167.0</ele>
        <time>1970-01-01T12:40:09.000Z</time>
      </trkpt>
      <trkpt lat="41.38883" lon="1.986986">
        <ele>167.4</ele>
        <time>1970-01-01T12:40:13.000Z</time>
      </trkpt>
      <trkpt lat="41.388796" lon="1.986956">
        <ele>168.4</ele>
        <time>1970-01-01T12:40:17.000Z</time>
      </trkpt>
      <trkpt lat="41.38876" lon="1.986923">
        <ele>169.8</ele>
        <time>1970-01-01T12:40:21.000Z</time>
      </trkpt>
      <trkpt lat="41.388735" lon="1.986876">
        <ele>170.8</ele>
        <time>1970-01-01T12:40:25.000Z</time>
      </trkpt>
      <trkpt lat="41.388703" lon="1.98683">
        <ele>172.2</ele>
        <time>1970-01-01T12:40:29.000Z</time>
      </trkpt>
      <trkpt lat="41.388676" lon="1.986788">
        <ele>172.6</ele>
        <time>1970-01-01T12:40:33.000Z</time>
      </trkpt>
      <trkpt lat="41.388645" lon="1.986743">
        <ele>173.6</ele>
        <time>1970-01-01T12:40:37.000Z</time>
      </trkpt>
      <trkpt lat="41.388613" lon="1.986703">
        <ele>174.2</ele>
        <time>1970-01-01T12:40:41.000Z</time>
      </trkpt>
      <trkpt lat="41.388583" lon="1.986625">
        <ele>175.0</ele>
        <time>1970-01-01T12:40:45.000Z</time>
      </trkpt>
      <trkpt lat="41.388581" lon="1.986498">
        <ele>174.8</ele>
        <time>1970-01-01T12:40:49.000Z</time>
      </trkpt>
      <trkpt lat="41.388595" lon="1.98638">
        <ele>176.4</ele>
        <time>1970-01-01T12:40:53.000Z</time>
      </trkpt>
      <trkpt lat="41.388583" lon="1.986221">
        <ele>176.8</ele>
        <time>1970-01-01T12:40:57.000Z</time>
      </trkpt>
      <trkpt lat="41.388546" lon="1.986075">
        <ele>178.6</ele>
        <time>1970-01-01T12:41:01.000Z</time>
      </trkpt>
      <trkpt lat="41.3885" lon="1.98596">
        <ele>178.6</ele>
        <time>1970-01-01T12:41:05.000Z</time>
      </trkpt>
      <trkpt lat="41.38843" lon="1.985803">
        <ele>178.2</ele>
        <time>1970-01-01T12:41:09.000Z</time>
      </trkpt>
      <trkpt lat="41.388316" lon="1.985588">
        <ele>178.0</ele>
        <time>1970-01-01T12:41:13.000Z</time>
      </trkpt>
      <trkpt lat="41.388155" lon="1.985378">
        <ele>177.8</ele>
        <time>1970-01-01T12:41:17.000Z</time>
      </trkpt>
      <trkpt lat="41.388011" lon="1.985198">
        <ele>177.4</ele>
        <time>1970-01-01T12:41:21.000Z</time>
      </trkpt>
      <trkpt lat="41.387881" lon="1.984963">
        <ele>177.2</ele>
        <time>1970-01-01T12:41:25.000Z</time>
      </trkpt>
      <trkpt lat="41.387733" lon="1.984768">
        <ele>176.4</ele>
        <time>1970-01-01T12:41:29.000Z</time>
      </trkpt>
      <trkpt lat="41.387611" lon="1.984606">
        <ele>178.2</ele>
        <time>1970-01-01T12:41:33.000Z</time>
      </trkpt>
      <trkpt lat="41.387531" lon="1.984476">
        <ele>180.8</ele>
        <time>1970-01-01T12:41:37.000Z</time>
      </trkpt>
      <trkpt lat="41.387476" lon="1.984343">
        <ele>183.0</ele>
        <time>1970-01-01T12:41:41.000Z</time>
      </trkpt>
      <trkpt lat="41.387426" lon="1.984193">
        <ele>183.8</ele>
        <time>1970-01-01T12:41:45.000Z</time>
      </trkpt>
      <trkpt lat="41.3874" lon="1.984053">
        <ele>185.2</ele>
        <time>1970-01-01T12:41:49.000Z</time>
      </trkpt>
      <trkpt lat="41.387375" lon="1.983928">
        <ele>187.4</ele>
        <time>1970-01-01T12:41:53.000Z</time>
      </trkpt>
      <trkpt lat="41.387335" lon="1.983818">
        <ele>188.6</ele>
        <time>1970-01-01T12:41:57.000Z</time>
      </trkpt>
      <trkpt lat="41.387296" lon="1.983733">
        <ele>191.0</ele>
        <time>1970-01-01T12:42:01.000Z</time>
      </trkpt>
      <trkpt lat="41.387238" lon="1.983668">
        <ele>192.8</ele>
        <time>1970-01-01T12:42:05.000Z</time>
      </trkpt>
      <trkpt lat="41.387148" lon="1.983561">
        <ele>192.6</ele>
        <time>1970-01-01T12:42:09.000Z</time>
      </trkpt>
      <trkpt lat="41.386935" lon="1.983293">
        <ele>188.8</ele>
        <time>1970-01-01T12:42:13.000Z</time>
      </trkpt>
      <trkpt lat="41.38669" lon="1.98306">
        <ele>185.6</ele>
        <time>1970-01-01T12:42:17.000Z</time>
      </trkpt>
      <trkpt lat="41.386435" lon="1.982971">
        <ele>179.4</ele>
        <time>1970-01-01T12:42:21.000Z</time>
      </trkpt>
      <trkpt lat="41.386248" lon="1.982853">
        <ele>175.0</ele>
        <time>1970-01-01T12:42:25.000Z</time>
      </trkpt>
      <trkpt lat="41.386051" lon="1.982803">
        <ele>169.6</ele>
        <time>1970-01-01T12:42:29.000Z</time>
      </trkpt>
      <trkpt lat="41.385913" lon="1.982731">
        <ele>165.8</ele>
        <time>1970-01-01T12:42:33.000Z</time>
      </trkpt>
      <trkpt lat="41.38564" lon="1.982483">
        <ele>161.2</ele>
        <time>1970-01-01T12:42:37.000Z</time>
      </trkpt>
      <trkpt lat="41.385428" lon="1.982328">
        <ele>158.2</ele>
        <time>1970-01-01T12:42:41.000Z</time>
      </trkpt>
      <trkpt lat="41.385306" lon="1.982208">
        <ele>159.2</ele>
        <time>1970-01-01T12:42:45.000Z</time>
      </trkpt>
      <trkpt lat="41.38523" lon="1.982033">
        <ele>159.6</ele>
        <time>1970-01-01T12:42:49.000Z</time>
      </trkpt>
      <trkpt lat="41.38517" lon="1.981785">
        <ele>159.6</ele>
        <time>1970-01-01T12:42:53.000Z</time>
      </trkpt>
      <trkpt lat="41.385083" lon="1.981545">
        <ele>159.0</ele>
        <time>1970-01-01T12:42:57.000Z</time>
      </trkpt>
      <trkpt lat="41.384966" lon="1.981293">
        <ele>158.2</ele>
        <time>1970-01-01T12:43:01.000Z</time>
      </trkpt>
      <trkpt lat="41.38486" lon="1.981035">
        <ele>158.8</ele>
        <time>1970-01-01T12:43:05.000Z</time>
      </trkpt>
      <trkpt lat="41.38489" lon="1.980758">
        <ele>158.4</ele>
        <time>1970-01-01T12:43:09.000Z</time>
      </trkpt>
      <trkpt lat="41.385033" lon="1.980548">
        <ele>158.4</ele>
        <time>1970-01-01T12:43:13.000Z</time>
      </trkpt>
      <trkpt lat="41.385141" lon="1.980455">
        <ele>160.0</ele>
        <time>1970-01-01T12:43:17.000Z</time>
      </trkpt>
      <trkpt lat="41.385205" lon="1.980365">
        <ele>160.6</ele>
        <time>1970-01-01T12:43:21.000Z</time>
      </trkpt>
      <trkpt lat="41.385295" lon="1.98022">
        <ele>162.2</ele>
        <time>1970-01-01T12:43:25.000Z</time>
      </trkpt>
      <trkpt lat="41.385408" lon="1.980073">
        <ele>163.2</ele>
        <time>1970-01-01T12:43:29.000Z</time>
      </trkpt>
      <trkpt lat="41.3854" lon="1.979916">
        <ele>165.2</ele>
        <time>1970-01-01T12:43:33.000Z</time>
      </trkpt>
      <trkpt lat="41.385316" lon="1.97985">
        <ele>166.6</ele>
        <time>1970-01-01T12:43:37.000Z</time>
      </trkpt>
      <trkpt lat="41.385231" lon="1.979818">
        <ele>168.6</ele>
        <time>1970-01-01T12:43:41.000Z</time>
      </trkpt>
      <trkpt lat="41.385138" lon="1.979821">
        <ele>170.2</ele>
        <time>1970-01-01T12:43:45.000Z</time>
      </trkpt>
      <trkpt lat="41.385058" lon="1.979868">
        <ele>171.2</ele>
        <time>1970-01-01T12:43:49.000Z</time>
      </trkpt>
      <trkpt lat="41.384975" lon="1.979903">
        <ele>172.4</ele>
        <time>1970-01-01T12:43:53.000Z</time>
      </trkpt>
      <trkpt lat="41.3849" lon="1.97994">
        <ele>173.0</ele>
        <time>1970-01-01T12:43:57.000Z</time>
      </trkpt>
      <trkpt lat="41.384825" lon="1.979993">
        <ele>174.8</ele>
        <time>1970-01-01T12:44:01.000Z</time>
      </trkpt>
      <trkpt lat="41.384751" lon="1.98005">
        <ele>174.8</ele>
        <time>1970-01-01T12:44:05.000Z</time>
      </trkpt>
      <trkpt lat="41.384681" lon="1.980101">
        <ele>177.0</ele>
        <time>1970-01-01T12:44:09.000Z</time>
      </trkpt>
      <trkpt lat="41.384621" lon="1.980168">
        <ele>177.8</ele>
        <time>1970-01-01T12:44:13.000Z</time>
      </trkpt>
      <trkpt lat="41.384565" lon="1.98022">
        <ele>178.6</ele>
        <time>1970-01-01T12:44:17.000Z</time>
      </trkpt>
      <trkpt lat="41.384515" lon="1.980278">
        <ele>179.4</ele>
        <time>1970-01-01T12:44:21.000Z</time>
      </trkpt>
      <trkpt lat="41.384475" lon="1.980338">
        <ele>180.0</ele>
        <time>1970-01-01T12:44:25.000Z</time>
      </trkpt>
      <trkpt lat="41.384428" lon="1.980391">
        <ele>181.4</ele>
        <time>1970-01-01T12:44:29.000Z</time>
      </trkpt>
      <trkpt lat="41.384386" lon="1.980448">
        <ele>181.8</ele>
        <time>1970-01-01T12:44:33.000Z</time>
      </trkpt>
      <trkpt lat="41.384351" lon="1.980498">
        <ele>183.0</ele>
        <time>1970-01-01T12:44:37.000Z</time>
      </trkpt>
      <trkpt lat="41.384325" lon="1.980555">
        <ele>184.2</ele>
        <time>1970-01-01T12:44:41.000Z</time>
      </trkpt>
      <trkpt lat="41.384286" lon="1.980598">
        <ele>184.6</ele>
        <time>1970-01-01T12:44:45.000Z</time>
      </trkpt>
      <trkpt lat="41.384245" lon="1.98064">
        <ele>186.6</ele>
        <time>1970-01-01T12:44:49.000Z</time>
      </trkpt>
      <trkpt lat="41.384201" lon="1.980691">
        <ele>187.6</ele>
        <time>1970-01-01T12:44:53.000Z</time>
      </trkpt>
      <trkpt lat="41.384146" lon="1.980736">
        <ele>188.4</ele>
        <time>1970-01-01T12:44:57.000Z</time>
      </trkpt>
      <trkpt lat="41.384068" lon="1.980788">
        <ele>189.0</ele>
        <time>1970-01-01T12:45:01.000Z</time>
      </trkpt>
      <trkpt lat="41.38401" lon="1.98079">
        <ele>190.2</ele>
        <time>1970-01-01T12:45:05.000Z</time>
      </trkpt>
      <trkpt lat="41.383963" lon="1.980743">
        <ele>191.0</ele>
        <time>1970-01-01T12:45:09.000Z</time>
      </trkpt>
      <trkpt lat="41.383946" lon="1.98068">
        <ele>192.0</ele>
        <time>1970-01-01T12:45:13.000Z</time>
      </trkpt>
      <trkpt lat="41.383953" lon="1.98062">
        <ele>192.8</ele>
        <time>1970-01-01T12:45:17.000Z</time>
      </trkpt>
      <trkpt lat="41.383966" lon="1.980571">
        <ele>193.4</ele>
        <time>1970-01-01T12:45:21.000Z</time>
      </trkpt>
      <trkpt lat="41.383973" lon="1.980498">
        <ele>195.4</ele>
        <time>1970-01-01T12:45:25.000Z</time>
      </trkpt>
      <trkpt lat="41.383995" lon="1.980436">
        <ele>195.8</ele>
        <time>1970-01-01T12:45:29.000Z</time>
      </trkpt>
      <trkpt lat="41.384005" lon="1.980386">
        <ele>196.2</ele>
        <time>1970-01-01T12:45:33.000Z</time>
      </trkpt>
      <trkpt lat="41.384008" lon="1.98031">
        <ele>196.8</ele>
        <time>1970-01-01T12:45:37.000Z</time>
      </trkpt>
      <trkpt lat="41.384016" lon="1.980231">
        <ele>198.0</ele>
        <time>1970-01-01T12:45:41.000Z</time>
      </trkpt>
      <trkpt lat="41.384031" lon="1.980146">
        <ele>198.6</ele>
        <time>1970-01-01T12:45:45.000Z</time>
      </trkpt>
      <trkpt lat="41.384048" lon="1.980078">
        <ele>199.8</ele>
        <time>1970-01-01T12:45:49.000Z</time>
      </trkpt>
      <trkpt lat="41.384071" lon="1.98">
        <ele>199.6</ele>
        <time>1970-01-01T12:45:53.000Z</time>
      </trkpt>
      <trkpt lat="41.384101" lon="1.979928">
        <ele>200.8</ele>
        <time>1970-01-01T12:45:57.000Z</time>
      </trkpt>
      <trkpt lat="41.38413" lon="1.979843">
        <ele>202.0</ele>
        <time>1970-01-01T12:46:01.000Z</time>
      </trkpt>
      <trkpt lat="41.384166" lon="1.979758">
        <ele>202.2</ele>
        <time>1970-01-01T12:46:05.000Z</time>
      </trkpt>
      <trkpt lat="41.384203" lon="1.97968">
        <ele>202.6</ele>
        <time>1970-01-01T12:46:09.000Z</time>
      </trkpt>
      <trkpt lat="41.384245" lon="1.979613">
        <ele>203.8</ele>
        <time>1970-01-01T12:46:13.000Z</time>
      </trkpt>
      <trkpt lat="41.384283" lon="1.979553">
        <ele>204.8</ele>
        <time>1970-01-01T12:46:17.000Z</time>
      </trkpt>
      <trkpt lat="41.384335" lon="1.97947">
        <ele>205.2</ele>
        <time>1970-01-01T12:46:21.000Z</time>
      </trkpt>
      <trkpt lat="41.384395" lon="1.979393">
        <ele>206.0</ele>
        <time>1970-01-01T12:46:25.000Z</time>
      </trkpt>
      <trkpt lat="41.384448" lon="1.979318">
        <ele>206.6</ele>
        <time>1970-01-01T12:46:29.000Z</time>
      </trkpt>
      <trkpt lat="41.38451" lon="1.979231">
        <ele>207.6</ele>
        <time>1970-01-01T12:46:33.000Z</time>
      </trkpt>
      <trkpt lat="41.384571" lon="1.979158">
        <ele>207.6</ele>
        <time>1970-01-01T12:46:37.000Z</time>
      </trkpt>
      <trkpt lat="41.384648" lon="1.97911">
        <ele>208.0</ele>
        <time>1970-01-01T12:46:41.000Z</time>
      </trkpt>
      <trkpt lat="41.38473" lon="1.979061">
        <ele>209.2</ele>
        <time>1970-01-01T12:46:45.000Z</time>
      </trkpt>
      <trkpt lat="41.384803" lon="1.979006">
        <ele>209.2</ele>
        <time>1970-01-01T12:46:49.000Z</time>
      </trkpt>
      <trkpt lat="41.384876" lon="1.978946">
        <ele>209.8</ele>
        <time>1970-01-01T12:46:53.000Z</time>
      </trkpt>
      <trkpt lat="41.384943" lon="1.978886">
        <ele>210.4</ele>
        <time>1970-01-01T12:46:57.000Z</time>
      </trkpt>
      <trkpt lat="41.385025" lon="1.978835">
        <ele>210.2</ele>
        <time>1970-01-01T12:47:01.000Z</time>
      </trkpt>
      <trkpt lat="41.385101" lon="1.978775">
        <ele>211.4</ele>
        <time>1970-01-01T12:47:05.000Z</time>
      </trkpt>
      <trkpt lat="41.385176" lon="1.978711">
        <ele>212.0</ele>
        <time>1970-01-01T12:47:09.000Z</time>
      </trkpt>
      <trkpt lat="41.385245" lon="1.978646">
        <ele>213.4</ele>
        <time>1970-01-01T12:47:13.000Z</time>
      </trkpt>
      <trkpt lat="41.385308" lon="1.978563">
        <ele>213.2</ele>
        <time>1970-01-01T12:47:17.000Z</time>
      </trkpt>
      <trkpt lat="41.38536" lon="1.97847">
        <ele>213.6</ele>
        <time>1970-01-01T12:47:21.000Z</time>
      </trkpt>
      <trkpt lat="41.3854" lon="1.978376">
        <ele>214.8</ele>
        <time>1970-01-01T12:47:25.000Z</time>
      </trkpt>
      <trkpt lat="41.385421" lon="1.978275">
        <ele>215.6</ele>
        <time>1970-01-01T12:47:29.000Z</time>
      </trkpt>
      <trkpt lat="41.385423" lon="1.978161">
        <ele>216.0</ele>
        <time>1970-01-01T12:47:33.000Z</time>
      </trkpt>
      <trkpt lat="41.385391" lon="1.978058">
        <ele>216.8</ele>
        <time>1970-01-01T12:47:37.000Z</time>
      </trkpt>
      <trkpt lat="41.385321" lon="1.977973">
        <ele>217.8</ele>
        <time>1970-01-01T12:47:41.000Z</time>
      </trkpt>
      <trkpt lat="41.385233" lon="1.977891">
        <ele>218.4</ele>
        <time>1970-01-01T12:47:45.000Z</time>
      </trkpt>
      <trkpt lat="41.385146" lon="1.977848">
        <ele>218.4</ele>
        <time>1970-01-01T12:47:49.000Z</time>
      </trkpt>
      <trkpt lat="41.385058" lon="1.977801">
        <ele>219.2</ele>
        <time>1970-01-01T12:47:53.000Z</time>
      </trkpt>
      <trkpt lat="41.384973" lon="1.977765">
        <ele>220.2</ele>
        <time>1970-01-01T12:47:57.000Z</time>
      </trkpt>
      <trkpt lat="41.384893" lon="1.977726">
        <ele>220.4</ele>
        <time>1970-01-01T12:48:01.000Z</time>
      </trkpt>
      <trkpt lat="41.384816" lon="1.97768">
        <ele>221.2</ele>
        <time>1970-01-01T12:48:05.000Z</time>
      </trkpt>
      <trkpt lat="41.384741" lon="1.977611">
        <ele>221.6</ele>
        <time>1970-01-01T12:48:09.000Z</time>
      </trkpt>
      <trkpt lat="41.384676" lon="1.977535">
        <ele>222.0</ele>
        <time>1970-01-01T12:48:13.000Z</time>
      </trkpt>
      <trkpt lat="41.38463" lon="1.977455">
        <ele>221.8</ele>
        <time>1970-01-01T12:48:17.000Z</time>
      </trkpt>
      <trkpt lat="41.38459" lon="1.97737">
        <ele>222.4</ele>
        <time>1970-01-01T12:48:21.000Z</time>
      </trkpt>
      <trkpt lat="41.384555" lon="1.977283">
        <ele>223.2</ele>
        <time>1970-01-01T12:48:25.000Z</time>
      </trkpt>
      <trkpt lat="41.384515" lon="1.977181">
        <ele>224.0</ele>
        <time>1970-01-01T12:48:29.000Z</time>
      </trkpt>
      <trkpt lat="41.384471" lon="1.977076">
        <ele>225.0</ele>
        <time>1970-01-01T12:48:33.000Z</time>
      </trkpt>
      <trkpt lat="41.384408" lon="1.97698">
        <ele>225.4</ele>
        <time>1970-01-01T12:48:37.000Z</time>
      </trkpt>
      <trkpt lat="41.384325" lon="1.97691">
        <ele>225.8</ele>
        <time>1970-01-01T12:48:41.000Z</time>
      </trkpt>
      <trkpt lat="41.38423" lon="1.976905">
        <ele>226.6</ele>
        <time>1970-01-01T12:48:45.000Z</time>
      </trkpt>
      <trkpt lat="41.384141" lon="1.976958">
        <ele>226.6</ele>
        <time>1970-01-01T12:48:49.000Z</time>
      </trkpt>
      <trkpt lat="41.384056" lon="1.97702">
        <ele>227.8</ele>
        <time>1970-01-01T12:48:53.000Z</time>
      </trkpt>
      <trkpt lat="41.383991" lon="1.977105">
        <ele>228.4</ele>
        <time>1970-01-01T12:48:57.000Z</time>
      </trkpt>
      <trkpt lat="41.383943" lon="1.977195">
        <ele>229.6</ele>
        <time>1970-01-01T12:49:01.000Z</time>
      </trkpt>
      <trkpt lat="41.383906" lon="1.977296">
        <ele>230.0</ele>
        <time>1970-01-01T12:49:05.000Z</time>
      </trkpt>
      <trkpt lat="41.383895" lon="1.977423">
        <ele>230.4</ele>
        <time>1970-01-01T12:49:09.000Z</time>
      </trkpt>
      <trkpt lat="41.383861" lon="1.97755">
        <ele>232.2</ele>
        <time>1970-01-01T12:49:13.000Z</time>
      </trkpt>
      <trkpt lat="41.383821" lon="1.977671">
        <ele>232.8</ele>
        <time>1970-01-01T12:49:17.000Z</time>
      </trkpt>
      <trkpt lat="41.38379" lon="1.9778">
        <ele>234.4</ele>
        <time>1970-01-01T12:49:21.000Z</time>
      </trkpt>
      <trkpt lat="41.383776" lon="1.97792">
        <ele>235.0</ele>
        <time>1970-01-01T12:49:25.000Z</time>
      </trkpt>
      <trkpt lat="41.383745" lon="1.978035">
        <ele>235.6</ele>
        <time>1970-01-01T12:49:29.000Z</time>
      </trkpt>
      <trkpt lat="41.383686" lon="1.978146">
        <ele>236.2</ele>
        <time>1970-01-01T12:49:33.000Z</time>
      </trkpt>
      <trkpt lat="41.383556" lon="1.978215">
        <ele>236.0</ele>
        <time>1970-01-01T12:49:37.000Z</time>
      </trkpt>
      <trkpt lat="41.383395" lon="1.97818">
        <ele>234.2</ele>
        <time>1970-01-01T12:49:41.000Z</time>
      </trkpt>
      <trkpt lat="41.383231" lon="1.978055">
        <ele>235.2</ele>
        <time>1970-01-01T12:49:45.000Z</time>
      </trkpt>
      <trkpt lat="41.383086" lon="1.977866">
        <ele>232.8</ele>
        <time>1970-01-01T12:49:49.000Z</time>
      </trkpt>
      <trkpt lat="41.382906" lon="1.977721">
        <ele>233.0</ele>
        <time>1970-01-01T12:49:53.000Z</time>
      </trkpt>
      <trkpt lat="41.382743" lon="1.97761">
        <ele>232.2</ele>
        <time>1970-01-01T12:49:57.000Z</time>
      </trkpt>
      <trkpt lat="41.382575" lon="1.977541">
        <ele>232.0</ele>
        <time>1970-01-01T12:50:01.000Z</time>
      </trkpt>
      <trkpt lat="41.382451" lon="1.977545">
        <ele>232.4</ele>
        <time>1970-01-01T12:50:05.000Z</time>
      </trkpt>
      <trkpt lat="41.3824" lon="1.977485">
        <ele>232.8</ele>
        <time>1970-01-01T12:50:09.000Z</time>
      </trkpt>
      <trkpt lat="41.382338" lon="1.977465">
        <ele>234.2</ele>
        <time>1970-01-01T12:50:13.000Z</time>
      </trkpt>
      <trkpt lat="41.382295" lon="1.977443">
        <ele>235.2</ele>
        <time>1970-01-01T12:50:17.000Z</time>
      </trkpt>
      <trkpt lat="41.382255" lon="1.977441">
        <ele>236.2</ele>
        <time>1970-01-01T12:50:21.000Z</time>
      </trkpt>
      <trkpt lat="41.382196" lon="1.977445">
        <ele>236.6</ele>
        <time>1970-01-01T12:50:25.000Z</time>
      </trkpt>
      <trkpt lat="41.382145" lon="1.977438">
        <ele>237.4</ele>
        <time>1970-01-01T12:50:29.000Z</time>
      </trkpt>
      <trkpt lat="41.3821" lon="1.977416">
        <ele>238.0</ele>
        <time>1970-01-01T12:50:33.000Z</time>
      </trkpt>
      <trkpt lat="41.382058" lon="1.977395">
        <ele>239.2</ele>
        <time>1970-01-01T12:50:37.000Z</time>
      </trkpt>
      <trkpt lat="41.382016" lon="1.977373">
        <ele>240.0</ele>
        <time>1970-01-01T12:50:41.000Z</time>
      </trkpt>
      <trkpt lat="41.38196" lon="1.977361">
        <ele>241.6</ele>
        <time>1970-01-01T12:50:45.000Z</time>
      </trkpt>
      <trkpt lat="41.381915" lon="1.977355">
        <ele>242.6</ele>
        <time>1970-01-01T12:50:49.000Z</time>
      </trkpt>
      <trkpt lat="41.381875" lon="1.977381">
        <ele>243.6</ele>
        <time>1970-01-01T12:50:53.000Z</time>
      </trkpt>
      <trkpt lat="41.381836" lon="1.977421">
        <ele>243.8</ele>
        <time>1970-01-01T12:50:57.000Z</time>
      </trkpt>
      <trkpt lat="41.38179" lon="1.97744">
        <ele>244.8</ele>
        <time>1970-01-01T12:51:01.000Z</time>
      </trkpt>
      <trkpt lat="41.381731" lon="1.977443">
        <ele>245.2</ele>
        <time>1970-01-01T12:51:05.000Z</time>
      </trkpt>
      <trkpt lat="41.381678" lon="1.977455">
        <ele>246.0</ele>
        <time>1970-01-01T12:51:09.000Z</time>
      </trkpt>
      <trkpt lat="41.381625" lon="1.977448">
        <ele>246.8</ele>
        <time>1970-01-01T12:51:13.000Z</time>
      </trkpt>
      <trkpt lat="41.381576" lon="1.977453">
        <ele>247.6</ele>
        <time>1970-01-01T12:51:17.000Z</time>
      </trkpt>
      <trkpt lat="41.38153" lon="1.977451">
        <ele>248.0</ele>
        <time>1970-01-01T12:51:21.000Z</time>
      </trkpt>
      <trkpt lat="41.38148" lon="1.977451">
        <ele>249.0</ele>
        <time>1970-01-01T12:51:25.000Z</time>
      </trkpt>
      <trkpt lat="41.381435" lon="1.977463">
        <ele>250.0</ele>
        <time>1970-01-01T12:51:29.000Z</time>
      </trkpt>
      <trkpt lat="41.38138" lon="1.977468">
        <ele>250.2</ele>
        <time>1970-01-01T12:51:33.000Z</time>
      </trkpt>
      <trkpt lat="41.381326" lon="1.97748">
        <ele>251.0</ele>
        <time>1970-01-01T12:51:37.000Z</time>
      </trkpt>
      <trkpt lat="41.381273" lon="1.977491">
        <ele>251.0</ele>
        <time>1970-01-01T12:51:41.000Z</time>
      </trkpt>
      <trkpt lat="41.381206" lon="1.977496">
        <ele>251.6</ele>
        <time>1970-01-01T12:51:45.000Z</time>
      </trkpt>
      <trkpt lat="41.381151" lon="1.977486">
        <ele>252.0</ele>
        <time>1970-01-01T12:51:49.000Z</time>
      </trkpt>
      <trkpt lat="41.381088" lon="1.977488">
        <ele>252.8</ele>
        <time>1970-01-01T12:51:53.000Z</time>
      </trkpt>
      <trkpt lat="41.381033" lon="1.977483">
        <ele>253.4</ele>
        <time>1970-01-01T12:51:57.000Z</time>
      </trkpt>
      <trkpt lat="41.380975" lon="1.977476">
        <ele>253.8</ele>
        <time>1970-01-01T12:52:01.000Z</time>
      </trkpt>
      <trkpt lat="41.380918" lon="1.977461">
        <ele>254.2</ele>
        <time>1970-01-01T12:52:05.000Z</time>
      </trkpt>
      <trkpt lat="41.380868" lon="1.977451">
        <ele>255.4</ele>
        <time>1970-01-01T12:52:09.000Z</time>
      </trkpt>
      <trkpt lat="41.380811" lon="1.977453">
        <ele>255.8</ele>
        <time>1970-01-01T12:52:13.000Z</time>
      </trkpt>
      <trkpt lat="41.380745" lon="1.97745">
        <ele>256.0</ele>
        <time>1970-01-01T12:52:17.000Z</time>
      </trkpt>
      <trkpt lat="41.380688" lon="1.977456">
        <ele>256.6</ele>
        <time>1970-01-01T12:52:21.000Z</time>
      </trkpt>
      <trkpt lat="41.380633" lon="1.977456">
        <ele>258.0</ele>
        <time>1970-01-01T12:52:25.000Z</time>
      </trkpt>
      <trkpt lat="41.380578" lon="1.977431">
        <ele>258.6</ele>
        <time>1970-01-01T12:52:29.000Z</time>
      </trkpt>
      <trkpt lat="41.380518" lon="1.97741">
        <ele>259.4</ele>
        <time>1970-01-01T12:52:33.000Z</time>
      </trkpt>
      <trkpt lat="41.38047" lon="1.977358">
        <ele>260.0</ele>
        <time>1970-01-01T12:52:37.000Z</time>
      </trkpt>
      <trkpt lat="41.3804" lon="1.977296">
        <ele>260.4</ele>
        <time>1970-01-01T12:52:41.000Z</time>
      </trkpt>
      <trkpt lat="41.380286" lon="1.977226">
        <ele>260.0</ele>
        <time>1970-01-01T12:52:45.000Z</time>
      </trkpt>
      <trkpt lat="41.380136" lon="1.9773">
        <ele>258.8</ele>
        <time>1970-01-01T12:52:49.000Z</time>
      </trkpt>
      <trkpt lat="41.380015" lon="1.977511">
        <ele>258.0</ele>
        <time>1970-01-01T12:52:53.000Z</time>
      </trkpt>
      <trkpt lat="41.379928" lon="1.977746">
        <ele>257.4</ele>
        <time>1970-01-01T12:52:57.000Z</time>
      </trkpt>
      <trkpt lat="41.379803" lon="1.977986">
        <ele>257.0</ele>
        <time>1970-01-01T12:53:01.000Z</time>
      </trkpt>
      <trkpt lat="41.379675" lon="1.97819">
        <ele>256.0</ele>
        <time>1970-01-01T12:53:05.000Z</time>
      </trkpt>
      <trkpt lat="41.379486" lon="1.978315">
        <ele>256.0</ele>
        <time>1970-01-01T12:53:09.000Z</time>
      </trkpt>
      <trkpt lat="41.37924" lon="1.97829">
        <ele>254.4</ele>
        <time>1970-01-01T12:53:13.000Z</time>
      </trkpt>
      <trkpt lat="41.378935" lon="1.978293">
        <ele>251.6</ele>
        <time>1970-01-01T12:53:17.000Z</time>
      </trkpt>
      <trkpt lat="41.378606" lon="1.978336">
        <ele>249.0</ele>
        <time>1970-01-01T12:53:21.000Z</time>
      </trkpt>
      <trkpt lat="41.378358" lon="1.978171">
        <ele>245.2</ele>
        <time>1970-01-01T12:53:25.000Z</time>
      </trkpt>
      <trkpt lat="41.378183" lon="1.977911">
        <ele>244.4</ele>
        <time>1970-01-01T12:53:29.000Z</time>
      </trkpt>
      <trkpt lat="41.378038" lon="1.977691">
        <ele>244.6</ele>
        <time>1970-01-01T12:53:33.000Z</time>
      </trkpt>
      <trkpt lat="41.377951" lon="1.977485">
        <ele>246.0</ele>
        <time>1970-01-01T12:53:37.000Z</time>
      </trkpt>
      <trkpt lat="41.377878" lon="1.977173">
        <ele>243.4</ele>
        <time>1970-01-01T12:53:41.000Z</time>
      </trkpt>
      <trkpt lat="41.377771" lon="1.976865">
        <ele>244.0</ele>
        <time>1970-01-01T12:53:45.000Z</time>
      </trkpt>
      <trkpt lat="41.377626" lon="1.97666">
        <ele>244.4</ele>
        <time>1970-01-01T12:53:49.000Z</time>
      </trkpt>
      <trkpt lat="41.377483" lon="1.976523">
        <ele>245.0</ele>
        <time>1970-01-01T12:53:53.000Z</time>
      </trkpt>
      <trkpt lat="41.377308" lon="1.976331">
        <ele>242.8</ele>
        <time>1970-01-01T12:53:57.000Z</time>
      </trkpt>
      <trkpt lat="41.377116" lon="1.976008">
        <ele>239.2</ele>
        <time>1970-01-01T12:54:01.000Z</time>
      </trkpt>
      <trkpt lat="41.376866" lon="1.975751">
        <ele>233.4</ele>
        <time>1970-01-01T12:54:05.000Z</time>
      </trkpt>
      <trkpt lat="41.376711" lon="1.975541">
        <ele>230.6</ele>
        <time>1970-01-01T12:54:09.000Z</time>
      </trkpt>
      <trkpt lat="41.376666" lon="1.97527">
        <ele>229.6</ele>
        <time>1970-01-01T12:54:13.000Z</time>
      </trkpt>
      <trkpt lat="41.37662" lon="1.974985">
        <ele>228.6</ele>
        <time>1970-01-01T12:54:17.000Z</time>
      </trkpt>
      <trkpt lat="41.376443" lon="1.974848">
        <ele>227.8</ele>
        <time>1970-01-01T12:54:21.000Z</time>
      </trkpt>
      <trkpt lat="41.37625" lon="1.97486">
        <ele>229.0</ele>
        <time>1970-01-01T12:54:25.000Z</time>
      </trkpt>
      <trkpt lat="41.376113" lon="1.974831">
        <ele>230.6</ele>
        <time>1970-01-01T12:54:29.000Z</time>
      </trkpt>
      <trkpt lat="41.375963" lon="1.974806">
        <ele>232.4</ele>
        <time>1970-01-01T12:54:33.000Z</time>
      </trkpt>
      <trkpt lat="41.375876" lon="1.974751">
        <ele>235.2</ele>
        <time>1970-01-01T12:54:37.000Z</time>
      </trkpt>
      <trkpt lat="41.37585" lon="1.974586">
        <ele>237.2</ele>
        <time>1970-01-01T12:54:41.000Z</time>
      </trkpt>
      <trkpt lat="41.375851" lon="1.97435">
        <ele>237.0</ele>
        <time>1970-01-01T12:54:45.000Z</time>
      </trkpt>
      <trkpt lat="41.375871" lon="1.97408">
        <ele>237.0</ele>
        <time>1970-01-01T12:54:49.000Z</time>
      </trkpt>
      <trkpt lat="41.375883" lon="1.973778">
        <ele>236.8</ele>
        <time>1970-01-01T12:54:53.000Z</time>
      </trkpt>
      <trkpt lat="41.375796" lon="1.973535">
        <ele>237.0</ele>
        <time>1970-01-01T12:54:57.000Z</time>
      </trkpt>
      <trkpt lat="41.375671" lon="1.973291">
        <ele>236.4</ele>
        <time>1970-01-01T12:55:01.000Z</time>
      </trkpt>
      <trkpt lat="41.375515" lon="1.973001">
        <ele>234.8</ele>
        <time>1970-01-01T12:55:05.000Z</time>
      </trkpt>
      <trkpt lat="41.375271" lon="1.973071">
        <ele>233.4</ele>
        <time>1970-01-01T12:55:09.000Z</time>
      </trkpt>
      <trkpt lat="41.375111" lon="1.97321">
        <ele>234.6</ele>
        <time>1970-01-01T12:55:13.000Z</time>
      </trkpt>
      <trkpt lat="41.374936" lon="1.973261">
        <ele>234.6</ele>
        <time>1970-01-01T12:55:17.000Z</time>
      </trkpt>
      <trkpt lat="41.37486" lon="1.973076">
        <ele>234.2</ele>
        <time>1970-01-01T12:55:21.000Z</time>
      </trkpt>
      <trkpt lat="41.374888" lon="1.97277">
        <ele>233.8</ele>
        <time>1970-01-01T12:55:25.000Z</time>
      </trkpt>
      <trkpt lat="41.374916" lon="1.972426">
        <ele>232.2</ele>
        <time>1970-01-01T12:55:29.000Z</time>
      </trkpt>
      <trkpt lat="41.374931" lon="1.972141">
        <ele>232.4</ele>
        <time>1970-01-01T12:55:33.000Z</time>
      </trkpt>
      <trkpt lat="41.374908" lon="1.971946">
        <ele>233.0</ele>
        <time>1970-01-01T12:55:37.000Z</time>
      </trkpt>
      <trkpt lat="41.374855" lon="1.971813">
        <ele>234.4</ele>
        <time>1970-01-01T12:55:41.000Z</time>
      </trkpt>
      <trkpt lat="41.374816" lon="1.971728">
        <ele>235.6</ele>
        <time>1970-01-01T12:55:45.000Z</time>
      </trkpt>
      <trkpt lat="41.374773" lon="1.971616">
        <ele>236.2</ele>
        <time>1970-01-01T12:55:49.000Z</time>
      </trkpt>
      <trkpt lat="41.374781" lon="1.971468">
        <ele>236.8</ele>
        <time>1970-01-01T12:55:53.000Z</time>
      </trkpt>
      <trkpt lat="41.374845" lon="1.971325">
        <ele>237.6</ele>
        <time>1970-01-01T12:55:57.000Z</time>
      </trkpt>
      <trkpt lat="41.374876" lon="1.971155">
        <ele>238.8</ele>
        <time>1970-01-01T12:56:01.000Z</time>
      </trkpt>
      <trkpt lat="41.374863" lon="1.97092">
        <ele>238.6</ele>
        <time>1970-01-01T12:56:05.000Z</time>
      </trkpt>
      <trkpt lat="41.37488" lon="1.97068">
        <ele>238.6</ele>
        <time>1970-01-01T12:56:09.000Z</time>
      </trkpt>
      <trkpt lat="41.374873" lon="1.970455">
        <ele>240.6</ele>
        <time>1970-01-01T12:56:13.000Z</time>
      </trkpt>
      <trkpt lat="41.374868" lon="1.970273">
        <ele>242.2</ele>
        <time>1970-01-01T12:56:17.000Z</time>
      </trkpt>
      <trkpt lat="41.374831" lon="1.970068">
        <ele>243.0</ele>
        <time>1970-01-01T12:56:21.000Z</time>
      </trkpt>
      <trkpt lat="41.374823" lon="1.969866">
        <ele>242.8</ele>
        <time>1970-01-01T12:56:25.000Z</time>
      </trkpt>
      <trkpt lat="41.374845" lon="1.969663">
        <ele>243.4</ele>
        <time>1970-01-01T12:56:29.000Z</time>
      </trkpt>
      <trkpt lat="41.374885" lon="1.969518">
        <ele>246.0</ele>
        <time>1970-01-01T12:56:33.000Z</time>
      </trkpt>
      <trkpt lat="41.374906" lon="1.969428">
        <ele>248.6</ele>
        <time>1970-01-01T12:56:37.000Z</time>
      </trkpt>
      <trkpt lat="41.374921" lon="1.969331">
        <ele>250.4</ele>
        <time>1970-01-01T12:56:41.000Z</time>
      </trkpt>
      <trkpt lat="41.374961" lon="1.969226">
        <ele>251.8</ele>
        <time>1970-01-01T12:56:45.000Z</time>
      </trkpt>
      <trkpt lat="41.37499" lon="1.96915">
        <ele>253.4</ele>
        <time>1970-01-01T12:56:49.000Z</time>
      </trkpt>
      <trkpt lat="41.375033" lon="1.969075">
        <ele>253.6</ele>
        <time>1970-01-01T12:56:53.000Z</time>
      </trkpt>
      <trkpt lat="41.375095" lon="1.968988">
        <ele>253.6</ele>
        <time>1970-01-01T12:56:57.000Z</time>
      </trkpt>
      <trkpt lat="41.37516" lon="1.968905">
        <ele>253.6</ele>
        <time>1970-01-01T12:57:01.000Z</time>
      </trkpt>
      <trkpt lat="41.375241" lon="1.968896">
        <ele>254.6</ele>
        <time>1970-01-01T12:57:05.000Z</time>
      </trkpt>
      <trkpt lat="41.375321" lon="1.968948">
        <ele>253.6</ele>
        <time>1970-01-01T12:57:09.000Z</time>
      </trkpt>
      <trkpt lat="41.375401" lon="1.968973">
        <ele>253.4</ele>
        <time>1970-01-01T12:57:13.000Z</time>
      </trkpt>
      <trkpt lat="41.375483" lon="1.969043">
        <ele>253.4</ele>
        <time>1970-01-01T12:57:17.000Z</time>
      </trkpt>
      <trkpt lat="41.37559" lon="1.969131">
        <ele>254.4</ele>
        <time>1970-01-01T12:57:21.000Z</time>
      </trkpt>
      <trkpt lat="41.375676" lon="1.969213">
        <ele>256.6</ele>
        <time>1970-01-01T12:57:25.000Z</time>
      </trkpt>
      <trkpt lat="41.375758" lon="1.969316">
        <ele>256.2</ele>
        <time>1970-01-01T12:57:29.000Z</time>
      </trkpt>
      <trkpt lat="41.375863" lon="1.969388">
        <ele>256.8</ele>
        <time>1970-01-01T12:57:33.000Z</time>
      </trkpt>
      <trkpt lat="41.375941" lon="1.969346">
        <ele>257.2</ele>
        <time>1970-01-01T12:57:37.000Z</time>
      </trkpt>
      <trkpt lat="41.37602" lon="1.969233">
        <ele>258.0</ele>
        <time>1970-01-01T12:57:41.000Z</time>
      </trkpt>
      <trkpt lat="41.376083" lon="1.969101">
        <ele>257.2</ele>
        <time>1970-01-01T12:57:45.000Z</time>
      </trkpt>
      <trkpt lat="41.376158" lon="1.968973">
        <ele>257.0</ele>
        <time>1970-01-01T12:57:49.000Z</time>
      </trkpt>
      <trkpt lat="41.376261" lon="1.968796">
        <ele>256.0</ele>
        <time>1970-01-01T12:57:53.000Z</time>
      </trkpt>
      <trkpt lat="41.376351" lon="1.968676">
        <ele>255.0</ele>
        <time>1970-01-01T12:57:57.000Z</time>
      </trkpt>
      <trkpt lat="41.376378" lon="1.968576">
        <ele>257.8</ele>
        <time>1970-01-01T12:58:01.000Z</time>
      </trkpt>
      <trkpt lat="41.376431" lon="1.968481">
        <ele>259.4</ele>
        <time>1970-01-01T12:58:05.000Z</time>
      </trkpt>
      <trkpt lat="41.376698" lon="1.967986">
        <ele>264.4</ele>
        <time>1970-01-01T12:58:47.000Z</time>
      </trkpt>
      <trkpt lat="41.37682" lon="1.967971">
        <ele>262.4</ele>
        <time>1970-01-01T12:58:51.000Z</time>
      </trkpt>
      <trkpt lat="41.376915" lon="1.967976">
        <ele>262.0</ele>
        <time>1970-01-01T12:58:55.000Z</time>
      </trkpt>
      <trkpt lat="41.376988" lon="1.968106">
        <ele>261.0</ele>
        <time>1970-01-01T12:58:59.000Z</time>
      </trkpt>
      <trkpt lat="41.37704" lon="1.968226">
        <ele>260.6</ele>
        <time>1970-01-01T12:59:03.000Z</time>
      </trkpt>
      <trkpt lat="41.377108" lon="1.968305">
        <ele>258.4</ele>
        <time>1970-01-01T12:59:07.000Z</time>
      </trkpt>
      <trkpt lat="41.3772" lon="1.96837">
        <ele>257.6</ele>
        <time>1970-01-01T12:59:11.000Z</time>
      </trkpt>
      <trkpt lat="41.377283" lon="1.968565">
        <ele>255.4</ele>
        <time>1970-01-01T12:59:15.000Z</time>
      </trkpt>
      <trkpt lat="41.377355" lon="1.968668">
        <ele>254.4</ele>
        <time>1970-01-01T12:59:19.000Z</time>
      </trkpt>
      <trkpt lat="41.377428" lon="1.96881">
        <ele>253.0</ele>
        <time>1970-01-01T12:59:23.000Z</time>
      </trkpt>
      <trkpt lat="41.377528" lon="1.968915">
        <ele>250.4</ele>
        <time>1970-01-01T12:59:27.000Z</time>
      </trkpt>
      <trkpt lat="41.377643" lon="1.968986">
        <ele>249.6</ele>
        <time>1970-01-01T12:59:31.000Z</time>
      </trkpt>
      <trkpt lat="41.377698" lon="1.96907">
        <ele>250.0</ele>
        <time>1970-01-01T12:59:35.000Z</time>
      </trkpt>
      <trkpt lat="41.377773" lon="1.969161">
        <ele>250.0</ele>
        <time>1970-01-01T12:59:39.000Z</time>
      </trkpt>
      <trkpt lat="41.377883" lon="1.969273">
        <ele>249.0</ele>
        <time>1970-01-01T12:59:43.000Z</time>
      </trkpt>
      <trkpt lat="41.378021" lon="1.969423">
        <ele>246.6</ele>
        <time>1970-01-01T12:59:47.000Z</time>
      </trkpt>
      <trkpt lat="41.378131" lon="1.969395">
        <ele>244.8</ele>
        <time>1970-01-01T12:59:51.000Z</time>
      </trkpt>
      <trkpt lat="41.378135" lon="1.969253">
        <ele>241.8</ele>
        <time>1970-01-01T12:59:55.000Z</time>
      </trkpt>
      <trkpt lat="41.37813" lon="1.969126">
        <ele>238.4</ele>
        <time>1970-01-01T12:59:59.000Z</time>
      </trkpt>
      <trkpt lat="41.378118" lon="1.969016">
        <ele>235.2</ele>
        <time>1970-01-01T01:00:03.000Z</time>
      </trkpt>
      <trkpt lat="41.3781" lon="1.968885">
        <ele>232.2</ele>
        <time>1970-01-01T01:00:07.000Z</time>
      </trkpt>
      <trkpt lat="41.378111" lon="1.968778">
        <ele>228.8</ele>
        <time>1970-01-01T01:00:11.000Z</time>
      </trkpt>
      <trkpt lat="41.378056" lon="1.96857">
        <ele>227.0</ele>
        <time>1970-01-01T01:00:15.000Z</time>
      </trkpt>
      <trkpt lat="41.377985" lon="1.9684">
        <ele>228.2</ele>
        <time>1970-01-01T01:00:19.000Z</time>
      </trkpt>
      <trkpt lat="41.378008" lon="1.968275">
        <ele>228.0</ele>
        <time>1970-01-01T01:00:23.000Z</time>
      </trkpt>
      <trkpt lat="41.378068" lon="1.968185">
        <ele>228.4</ele>
        <time>1970-01-01T01:00:27.000Z</time>
      </trkpt>
      <trkpt lat="41.378146" lon="1.968066">
        <ele>228.4</ele>
        <time>1970-01-01T01:00:31.000Z</time>
      </trkpt>
      <trkpt lat="41.378158" lon="1.967906">
        <ele>229.0</ele>
        <time>1970-01-01T01:00:35.000Z</time>
      </trkpt>
      <trkpt lat="41.378123" lon="1.967725">
        <ele>227.4</ele>
        <time>1970-01-01T01:00:39.000Z</time>
      </trkpt>
      <trkpt lat="41.378015" lon="1.967513">
        <ele>227.0</ele>
        <time>1970-01-01T01:00:43.000Z</time>
      </trkpt>
      <trkpt lat="41.377923" lon="1.967271">
        <ele>225.8</ele>
        <time>1970-01-01T01:00:47.000Z</time>
      </trkpt>
      <trkpt lat="41.37784" lon="1.967028">
        <ele>223.4</ele>
        <time>1970-01-01T01:00:51.000Z</time>
      </trkpt>
      <trkpt lat="41.377753" lon="1.966875">
        <ele>219.0</ele>
        <time>1970-01-01T01:00:55.000Z</time>
      </trkpt>
      <trkpt lat="41.377668" lon="1.96676">
        <ele>216.6</ele>
        <time>1970-01-01T01:00:59.000Z</time>
      </trkpt>
      <trkpt lat="41.377676" lon="1.966495">
        <ele>212.2</ele>
        <time>1970-01-01T01:01:32.000Z</time>
      </trkpt>
      <trkpt lat="41.377835" lon="1.966543">
        <ele>210.4</ele>
        <time>1970-01-01T01:01:36.000Z</time>
      </trkpt>
      <trkpt lat="41.378006" lon="1.966698">
        <ele>208.0</ele>
        <time>1970-01-01T01:01:40.000Z</time>
      </trkpt>
      <trkpt lat="41.378195" lon="1.966915">
        <ele>201.6</ele>
        <time>1970-01-01T01:01:44.000Z</time>
      </trkpt>
      <trkpt lat="41.378468" lon="1.96703">
        <ele>197.4</ele>
        <time>1970-01-01T01:01:48.000Z</time>
      </trkpt>
      <trkpt lat="41.378721" lon="1.9672">
        <ele>193.2</ele>
        <time>1970-01-01T01:01:52.000Z</time>
      </trkpt>
      <trkpt lat="41.378958" lon="1.967386">
        <ele>191.2</ele>
        <time>1970-01-01T01:01:56.000Z</time>
      </trkpt>
      <trkpt lat="41.3791" lon="1.967661">
        <ele>188.8</ele>
        <time>1970-01-01T01:02:00.000Z</time>
      </trkpt>
      <trkpt lat="41.37907" lon="1.967926">
        <ele>183.8</ele>
        <time>1970-01-01T01:02:04.000Z</time>
      </trkpt>
      <trkpt lat="41.378973" lon="1.968213">
        <ele>180.8</ele>
        <time>1970-01-01T01:02:08.000Z</time>
      </trkpt>
      <trkpt lat="41.378988" lon="1.96844">
        <ele>176.6</ele>
        <time>1970-01-01T01:02:12.000Z</time>
      </trkpt>
      <trkpt lat="41.379166" lon="1.968626">
        <ele>174.2</ele>
        <time>1970-01-01T01:02:16.000Z</time>
      </trkpt>
      <trkpt lat="41.379455" lon="1.96883">
        <ele>168.8</ele>
        <time>1970-01-01T01:02:20.000Z</time>
      </trkpt>
      <trkpt lat="41.379685" lon="1.969015">
        <ele>164.4</ele>
        <time>1970-01-01T01:02:24.000Z</time>
      </trkpt>
      <trkpt lat="41.379895" lon="1.969181">
        <ele>159.0</ele>
        <time>1970-01-01T01:02:28.000Z</time>
      </trkpt>
      <trkpt lat="41.380178" lon="1.96946">
        <ele>157.4</ele>
        <time>1970-01-01T01:02:32.000Z</time>
      </trkpt>
      <trkpt lat="41.38044" lon="1.96963">
        <ele>155.4</ele>
        <time>1970-01-01T01:02:36.000Z</time>
      </trkpt>
      <trkpt lat="41.380526" lon="1.969663">
        <ele>152.8</ele>
        <time>1970-01-01T01:02:40.000Z</time>
      </trkpt>
      <trkpt lat="41.38058" lon="1.9696">
        <ele>151.4</ele>
        <time>1970-01-01T01:02:44.000Z</time>
      </trkpt>
      <trkpt lat="41.380535" lon="1.969531">
        <ele>149.4</ele>
        <time>1970-01-01T01:02:48.000Z</time>
      </trkpt>
      <trkpt lat="41.380486" lon="1.969476">
        <ele>147.6</ele>
        <time>1970-01-01T01:02:52.000Z</time>
      </trkpt>
      <trkpt lat="41.380353" lon="1.96916">
        <ele>140.2</ele>
        <time>1970-01-01T01:03:27.000Z</time>
      </trkpt>
      <trkpt lat="41.380323" lon="1.96898">
        <ele>137.2</ele>
        <time>1970-01-01T01:03:31.000Z</time>
      </trkpt>
      <trkpt lat="41.380231" lon="1.968788">
        <ele>136.2</ele>
        <time>1970-01-01T01:03:35.000Z</time>
      </trkpt>
      <trkpt lat="41.380165" lon="1.968585">
        <ele>136.0</ele>
        <time>1970-01-01T01:03:39.000Z</time>
      </trkpt>
      <trkpt lat="41.380258" lon="1.96847">
        <ele>132.8</ele>
        <time>1970-01-01T01:03:43.000Z</time>
      </trkpt>
      <trkpt lat="41.380326" lon="1.968316">
        <ele>131.0</ele>
        <time>1970-01-01T01:03:47.000Z</time>
      </trkpt>
      <trkpt lat="41.380393" lon="1.968301">
        <ele>130.6</ele>
        <time>1970-01-01T01:03:51.000Z</time>
      </trkpt>
      <trkpt lat="41.380475" lon="1.968301">
        <ele>129.4</ele>
        <time>1970-01-01T01:03:55.000Z</time>
      </trkpt>
      <trkpt lat="41.380631" lon="1.968288">
        <ele>127.2</ele>
        <time>1970-01-01T01:03:59.000Z</time>
      </trkpt>
      <trkpt lat="41.380786" lon="1.968276">
        <ele>125.0</ele>
        <time>1970-01-01T01:04:03.000Z</time>
      </trkpt>
      <trkpt lat="41.380938" lon="1.968263">
        <ele>124.0</ele>
        <time>1970-01-01T01:04:07.000Z</time>
      </trkpt>
      <trkpt lat="41.381046" lon="1.968201">
        <ele>121.6</ele>
        <time>1970-01-01T01:04:11.000Z</time>
      </trkpt>
      <trkpt lat="41.381178" lon="1.968146">
        <ele>120.4</ele>
        <time>1970-01-01T01:04:15.000Z</time>
      </trkpt>
      <trkpt lat="41.381246" lon="1.96801">
        <ele>121.2</ele>
        <time>1970-01-01T01:04:19.000Z</time>
      </trkpt>
      <trkpt lat="41.38129" lon="1.967895">
        <ele>124.0</ele>
        <time>1970-01-01T01:04:23.000Z</time>
      </trkpt>
      <trkpt lat="41.381341" lon="1.967773">
        <ele>125.0</ele>
        <time>1970-01-01T01:04:27.000Z</time>
      </trkpt>
      <trkpt lat="41.381356" lon="1.967675">
        <ele>125.4</ele>
        <time>1970-01-01T01:04:31.000Z</time>
      </trkpt>
      <trkpt lat="41.381395" lon="1.967561">
        <ele>127.4</ele>
        <time>1970-01-01T01:04:35.000Z</time>
      </trkpt>
      <trkpt lat="41.381416" lon="1.967476">
        <ele>128.8</ele>
        <time>1970-01-01T01:04:39.000Z</time>
      </trkpt>
      <trkpt lat="41.38146" lon="1.967383">
        <ele>130.0</ele>
        <time>1970-01-01T01:04:43.000Z</time>
      </trkpt>
      <trkpt lat="41.381488" lon="1.967288">
        <ele>131.4</ele>
        <time>1970-01-01T01:04:47.000Z</time>
      </trkpt>
      <trkpt lat="41.381443" lon="1.967226">
        <ele>131.8</ele>
        <time>1970-01-01T01:04:51.000Z</time>
      </trkpt>
      <trkpt lat="41.381383" lon="1.967245">
        <ele>132.4</ele>
        <time>1970-01-01T01:04:55.000Z</time>
      </trkpt>
      <trkpt lat="41.381323" lon="1.967255">
        <ele>132.8</ele>
        <time>1970-01-01T01:04:59.000Z</time>
      </trkpt>
      <trkpt lat="41.381263" lon="1.96725">
        <ele>133.8</ele>
        <time>1970-01-01T01:05:03.000Z</time>
      </trkpt>
      <trkpt lat="41.381203" lon="1.967235">
        <ele>134.2</ele>
        <time>1970-01-01T01:05:07.000Z</time>
      </trkpt>
      <trkpt lat="41.381138" lon="1.96721">
        <ele>134.2</ele>
        <time>1970-01-01T01:05:11.000Z</time>
      </trkpt>
      <trkpt lat="41.381071" lon="1.967191">
        <ele>134.2</ele>
        <time>1970-01-01T01:05:15.000Z</time>
      </trkpt>
      <trkpt lat="41.38098" lon="1.967158">
        <ele>134.8</ele>
        <time>1970-01-01T01:05:19.000Z</time>
      </trkpt>
      <trkpt lat="41.380906" lon="1.967095">
        <ele>135.0</ele>
        <time>1970-01-01T01:05:23.000Z</time>
      </trkpt>
      <trkpt lat="41.380835" lon="1.967035">
        <ele>135.4</ele>
        <time>1970-01-01T01:05:27.000Z</time>
      </trkpt>
      <trkpt lat="41.38077" lon="1.966955">
        <ele>136.4</ele>
        <time>1970-01-01T01:05:31.000Z</time>
      </trkpt>
      <trkpt lat="41.3807" lon="1.966865">
        <ele>136.2</ele>
        <time>1970-01-01T01:05:35.000Z</time>
      </trkpt>
      <trkpt lat="41.380636" lon="1.96678">
        <ele>137.8</ele>
        <time>1970-01-01T01:05:39.000Z</time>
      </trkpt>
      <trkpt lat="41.38059" lon="1.966713">
        <ele>138.0</ele>
        <time>1970-01-01T01:05:43.000Z</time>
      </trkpt>
      <trkpt lat="41.380541" lon="1.966625">
        <ele>139.0</ele>
        <time>1970-01-01T01:05:47.000Z</time>
      </trkpt>
      <trkpt lat="41.38049" lon="1.966536">
        <ele>140.0</ele>
        <time>1970-01-01T01:05:51.000Z</time>
      </trkpt>
      <trkpt lat="41.380428" lon="1.96643">
        <ele>140.4</ele>
        <time>1970-01-01T01:05:55.000Z</time>
      </trkpt>
      <trkpt lat="41.380373" lon="1.966338">
        <ele>140.6</ele>
        <time>1970-01-01T01:05:59.000Z</time>
      </trkpt>
      <trkpt lat="41.380318" lon="1.966231">
        <ele>140.4</ele>
        <time>1970-01-01T01:06:03.000Z</time>
      </trkpt>
      <trkpt lat="41.380235" lon="1.966148">
        <ele>139.8</ele>
        <time>1970-01-01T01:06:07.000Z</time>
      </trkpt>
      <trkpt lat="41.38007" lon="1.966131">
        <ele>137.0</ele>
        <time>1970-01-01T01:06:11.000Z</time>
      </trkpt>
      <trkpt lat="41.379946" lon="1.966178">
        <ele>136.8</ele>
        <time>1970-01-01T01:06:15.000Z</time>
      </trkpt>
      <trkpt lat="41.379838" lon="1.966208">
        <ele>136.4</ele>
        <time>1970-01-01T01:06:19.000Z</time>
      </trkpt>
      <trkpt lat="41.379725" lon="1.966161">
        <ele>138.4</ele>
        <time>1970-01-01T01:06:23.000Z</time>
      </trkpt>
      <trkpt lat="41.379633" lon="1.966091">
        <ele>138.8</ele>
        <time>1970-01-01T01:06:27.000Z</time>
      </trkpt>
      <trkpt lat="41.379563" lon="1.966038">
        <ele>138.6</ele>
        <time>1970-01-01T01:06:31.000Z</time>
      </trkpt>
      <trkpt lat="41.3795" lon="1.965986">
        <ele>138.8</ele>
        <time>1970-01-01T01:06:35.000Z</time>
      </trkpt>
      <trkpt lat="41.379445" lon="1.965905">
        <ele>140.8</ele>
        <time>1970-01-01T01:06:39.000Z</time>
      </trkpt>
      <trkpt lat="41.379395" lon="1.965821">
        <ele>142.2</ele>
        <time>1970-01-01T01:06:43.000Z</time>
      </trkpt>
      <trkpt lat="41.379338" lon="1.965708">
        <ele>143.6</ele>
        <time>1970-01-01T01:06:47.000Z</time>
      </trkpt>
      <trkpt lat="41.379273" lon="1.965605">
        <ele>143.8</ele>
        <time>1970-01-01T01:06:51.000Z</time>
      </trkpt>
      <trkpt lat="41.379188" lon="1.965498">
        <ele>140.2</ele>
        <time>1970-01-01T01:06:55.000Z</time>
      </trkpt>
      <trkpt lat="41.379065" lon="1.965386">
        <ele>140.4</ele>
        <time>1970-01-01T01:06:59.000Z</time>
      </trkpt>
      <trkpt lat="41.378988" lon="1.965271">
        <ele>142.0</ele>
        <time>1970-01-01T01:07:03.000Z</time>
      </trkpt>
      <trkpt lat="41.378965" lon="1.965151">
        <ele>141.8</ele>
        <time>1970-01-01T01:07:07.000Z</time>
      </trkpt>
      <trkpt lat="41.378941" lon="1.965041">
        <ele>142.6</ele>
        <time>1970-01-01T01:07:11.000Z</time>
      </trkpt>
      <trkpt lat="41.378886" lon="1.964931">
        <ele>142.6</ele>
        <time>1970-01-01T01:07:15.000Z</time>
      </trkpt>
      <trkpt lat="41.378891" lon="1.96481">
        <ele>143.4</ele>
        <time>1970-01-01T01:07:19.000Z</time>
      </trkpt>
      <trkpt lat="41.37888" lon="1.96466">
        <ele>143.6</ele>
        <time>1970-01-01T01:07:23.000Z</time>
      </trkpt>
      <trkpt lat="41.37888" lon="1.964491">
        <ele>144.6</ele>
        <time>1970-01-01T01:07:27.000Z</time>
      </trkpt>
      <trkpt lat="41.378888" lon="1.964333">
        <ele>144.6</ele>
        <time>1970-01-01T01:07:31.000Z</time>
      </trkpt>
      <trkpt lat="41.378921" lon="1.964208">
        <ele>145.6</ele>
        <time>1970-01-01T01:07:35.000Z</time>
      </trkpt>
      <trkpt lat="41.378975" lon="1.96409">
        <ele>145.8</ele>
        <time>1970-01-01T01:07:39.000Z</time>
      </trkpt>
      <trkpt lat="41.379076" lon="1.963958">
        <ele>144.0</ele>
        <time>1970-01-01T01:07:43.000Z</time>
      </trkpt>
      <trkpt lat="41.3792" lon="1.96388">
        <ele>141.8</ele>
        <time>1970-01-01T01:07:47.000Z</time>
      </trkpt>
      <trkpt lat="41.379373" lon="1.963815">
        <ele>140.6</ele>
        <time>1970-01-01T01:07:51.000Z</time>
      </trkpt>
      <trkpt lat="41.379576" lon="1.96367">
        <ele>138.8</ele>
        <time>1970-01-01T01:07:55.000Z</time>
      </trkpt>
      <trkpt lat="41.379753" lon="1.963596">
        <ele>137.8</ele>
        <time>1970-01-01T01:07:59.000Z</time>
      </trkpt>
      <trkpt lat="41.379925" lon="1.963615">
        <ele>136.2</ele>
        <time>1970-01-01T01:08:03.000Z</time>
      </trkpt>
      <trkpt lat="41.380075" lon="1.963666">
        <ele>135.4</ele>
        <time>1970-01-01T01:08:07.000Z</time>
      </trkpt>
      <trkpt lat="41.380216" lon="1.963705">
        <ele>133.4</ele>
        <time>1970-01-01T01:08:11.000Z</time>
      </trkpt>
      <trkpt lat="41.380393" lon="1.963775">
        <ele>131.0</ele>
        <time>1970-01-01T01:08:15.000Z</time>
      </trkpt>
      <trkpt lat="41.380568" lon="1.963808">
        <ele>129.0</ele>
        <time>1970-01-01T01:08:19.000Z</time>
      </trkpt>
      <trkpt lat="41.38069" lon="1.963873">
        <ele>126.0</ele>
        <time>1970-01-01T01:08:23.000Z</time>
      </trkpt>
      <trkpt lat="41.380815" lon="1.963886">
        <ele>123.8</ele>
        <time>1970-01-01T01:08:27.000Z</time>
      </trkpt>
      <trkpt lat="41.380895" lon="1.963728">
        <ele>121.2</ele>
        <time>1970-01-01T01:08:31.000Z</time>
      </trkpt>
      <trkpt lat="41.380946" lon="1.9636">
        <ele>119.8</ele>
        <time>1970-01-01T01:08:35.000Z</time>
      </trkpt>
      <trkpt lat="41.380975" lon="1.963471">
        <ele>117.0</ele>
        <time>1970-01-01T01:08:39.000Z</time>
      </trkpt>
      <trkpt lat="41.381011" lon="1.963318">
        <ele>115.6</ele>
        <time>1970-01-01T01:08:43.000Z</time>
      </trkpt>
      <trkpt lat="41.381033" lon="1.963178">
        <ele>113.6</ele>
        <time>1970-01-01T01:08:47.000Z</time>
      </trkpt>
      <trkpt lat="41.381103" lon="1.963093">
        <ele>111.0</ele>
        <time>1970-01-01T01:08:51.000Z</time>
      </trkpt>
      <trkpt lat="41.381406" lon="1.963426">
        <ele>101.8</ele>
        <time>1970-01-01T01:09:47.000Z</time>
      </trkpt>
      <trkpt lat="41.381473" lon="1.963501">
        <ele>99.2</ele>
        <time>1970-01-01T01:09:51.000Z</time>
      </trkpt>
      <trkpt lat="41.381528" lon="1.963581">
        <ele>95.8</ele>
        <time>1970-01-01T01:10:06.000Z</time>
      </trkpt>
      <trkpt lat="41.381756" lon="1.963886">
        <ele>90.8</ele>
        <time>1970-01-01T01:10:52.000Z</time>
      </trkpt>
      <trkpt lat="41.381768" lon="1.964">
        <ele>89.8</ele>
        <time>1970-01-01T01:10:56.000Z</time>
      </trkpt>
      <trkpt lat="41.38178" lon="1.964128">
        <ele>89.0</ele>
        <time>1970-01-01T01:11:00.000Z</time>
      </trkpt>
      <trkpt lat="41.381806" lon="1.96427">
        <ele>88.6</ele>
        <time>1970-01-01T01:11:04.000Z</time>
      </trkpt>
      <trkpt lat="41.381836" lon="1.964411">
        <ele>89.0</ele>
        <time>1970-01-01T01:11:08.000Z</time>
      </trkpt>
      <trkpt lat="41.38185" lon="1.964501">
        <ele>89.2</ele>
        <time>1970-01-01T01:11:12.000Z</time>
      </trkpt>
      <trkpt lat="41.381861" lon="1.964651">
        <ele>89.2</ele>
        <time>1970-01-01T01:11:16.000Z</time>
      </trkpt>
      <trkpt lat="41.381895" lon="1.964848">
        <ele>89.0</ele>
        <time>1970-01-01T01:11:20.000Z</time>
      </trkpt>
      <trkpt lat="41.381886" lon="1.965035">
        <ele>88.6</ele>
        <time>1970-01-01T01:11:24.000Z</time>
      </trkpt>
      <trkpt lat="41.381901" lon="1.965231">
        <ele>87.0</ele>
        <time>1970-01-01T01:11:28.000Z</time>
      </trkpt>
      <trkpt lat="41.38198" lon="1.965416">
        <ele>87.8</ele>
        <time>1970-01-01T01:11:32.000Z</time>
      </trkpt>
      <trkpt lat="41.382075" lon="1.965496">
        <ele>88.6</ele>
        <time>1970-01-01T01:11:36.000Z</time>
      </trkpt>
      <trkpt lat="41.382191" lon="1.965528">
        <ele>88.2</ele>
        <time>1970-01-01T01:11:40.000Z</time>
      </trkpt>
      <trkpt lat="41.382286" lon="1.96555">
        <ele>90.0</ele>
        <time>1970-01-01T01:11:44.000Z</time>
      </trkpt>
      <trkpt lat="41.382365" lon="1.965606">
        <ele>91.6</ele>
        <time>1970-01-01T01:11:48.000Z</time>
      </trkpt>
      <trkpt lat="41.38245" lon="1.96563">
        <ele>92.6</ele>
        <time>1970-01-01T01:11:52.000Z</time>
      </trkpt>
      <trkpt lat="41.382561" lon="1.965626">
        <ele>93.2</ele>
        <time>1970-01-01T01:11:56.000Z</time>
      </trkpt>
      <trkpt lat="41.382676" lon="1.965616">
        <ele>94.0</ele>
        <time>1970-01-01T01:12:00.000Z</time>
      </trkpt>
      <trkpt lat="41.382758" lon="1.965603">
        <ele>94.4</ele>
        <time>1970-01-01T01:12:04.000Z</time>
      </trkpt>
      <trkpt lat="41.382848" lon="1.965586">
        <ele>94.8</ele>
        <time>1970-01-01T01:12:08.000Z</time>
      </trkpt>
      <trkpt lat="41.382905" lon="1.965585">
        <ele>95.4</ele>
        <time>1970-01-01T01:12:12.000Z</time>
      </trkpt>
      <trkpt lat="41.382966" lon="1.965603">
        <ele>95.2</ele>
        <time>1970-01-01T01:12:16.000Z</time>
      </trkpt>
      <trkpt lat="41.383035" lon="1.965655">
        <ele>96.4</ele>
        <time>1970-01-01T01:12:20.000Z</time>
      </trkpt>
      <trkpt lat="41.383071" lon="1.965745">
        <ele>97.4</ele>
        <time>1970-01-01T01:12:24.000Z</time>
      </trkpt>
      <trkpt lat="41.383093" lon="1.965838">
        <ele>98.8</ele>
        <time>1970-01-01T01:12:28.000Z</time>
      </trkpt>
      <trkpt lat="41.383151" lon="1.96592">
        <ele>100.2</ele>
        <time>1970-01-01T01:12:32.000Z</time>
      </trkpt>
      <trkpt lat="41.383226" lon="1.96601">
        <ele>99.8</ele>
        <time>1970-01-01T01:12:36.000Z</time>
      </trkpt>
      <trkpt lat="41.383298" lon="1.966068">
        <ele>100.8</ele>
        <time>1970-01-01T01:12:40.000Z</time>
      </trkpt>
      <trkpt lat="41.38339" lon="1.966055">
        <ele>102.2</ele>
        <time>1970-01-01T01:12:44.000Z</time>
      </trkpt>
      <trkpt lat="41.383413" lon="1.965978">
        <ele>103.6</ele>
        <time>1970-01-01T01:12:48.000Z</time>
      </trkpt>
      <trkpt lat="41.383433" lon="1.965908">
        <ele>104.4</ele>
        <time>1970-01-01T01:12:52.000Z</time>
      </trkpt>
      <trkpt lat="41.383443" lon="1.965823">
        <ele>105.2</ele>
        <time>1970-01-01T01:12:56.000Z</time>
      </trkpt>
      <trkpt lat="41.383456" lon="1.965756">
        <ele>106.4</ele>
        <time>1970-01-01T01:13:00.000Z</time>
      </trkpt>
      <trkpt lat="41.38347" lon="1.965666">
        <ele>107.0</ele>
        <time>1970-01-01T01:13:04.000Z</time>
      </trkpt>
      <trkpt lat="41.383483" lon="1.965596">
        <ele>108.0</ele>
        <time>1970-01-01T01:13:08.000Z</time>
      </trkpt>
      <trkpt lat="41.383495" lon="1.9655">
        <ele>108.8</ele>
        <time>1970-01-01T01:13:12.000Z</time>
      </trkpt>
      <trkpt lat="41.3835" lon="1.965421">
        <ele>110.0</ele>
        <time>1970-01-01T01:13:16.000Z</time>
      </trkpt>
      <trkpt lat="41.383535" lon="1.965353">
        <ele>110.2</ele>
        <time>1970-01-01T01:13:20.000Z</time>
      </trkpt>
      <trkpt lat="41.383566" lon="1.965308">
        <ele>110.6</ele>
        <time>1970-01-01T01:13:24.000Z</time>
      </trkpt>
      <trkpt lat="41.383598" lon="1.965246">
        <ele>111.0</ele>
        <time>1970-01-01T01:13:28.000Z</time>
      </trkpt>
      <trkpt lat="41.383636" lon="1.965175">
        <ele>111.4</ele>
        <time>1970-01-01T01:13:32.000Z</time>
      </trkpt>
      <trkpt lat="41.383665" lon="1.965095">
        <ele>112.0</ele>
        <time>1970-01-01T01:13:36.000Z</time>
      </trkpt>
      <trkpt lat="41.383698" lon="1.965035">
        <ele>112.4</ele>
        <time>1970-01-01T01:13:40.000Z</time>
      </trkpt>
      <trkpt lat="41.383728" lon="1.96497">
        <ele>113.0</ele>
        <time>1970-01-01T01:13:44.000Z</time>
      </trkpt>
      <trkpt lat="41.383761" lon="1.964908">
        <ele>113.4</ele>
        <time>1970-01-01T01:13:48.000Z</time>
      </trkpt>
      <trkpt lat="41.383803" lon="1.964833">
        <ele>113.8</ele>
        <time>1970-01-01T01:13:52.000Z</time>
      </trkpt>
      <trkpt lat="41.383833" lon="1.964741">
        <ele>114.2</ele>
        <time>1970-01-01T01:13:56.000Z</time>
      </trkpt>
      <trkpt lat="41.383865" lon="1.964668">
        <ele>114.6</ele>
        <time>1970-01-01T01:14:00.000Z</time>
      </trkpt>
      <trkpt lat="41.3839" lon="1.964603">
        <ele>115.0</ele>
        <time>1970-01-01T01:14:04.000Z</time>
      </trkpt>
      <trkpt lat="41.38393" lon="1.964526">
        <ele>115.4</ele>
        <time>1970-01-01T01:14:08.000Z</time>
      </trkpt>
      <trkpt lat="41.383976" lon="1.964455">
        <ele>116.2</ele>
        <time>1970-01-01T01:14:12.000Z</time>
      </trkpt>
      <trkpt lat="41.38402" lon="1.964383">
        <ele>116.4</ele>
        <time>1970-01-01T01:14:16.000Z</time>
      </trkpt>
      <trkpt lat="41.384063" lon="1.964311">
        <ele>117.2</ele>
        <time>1970-01-01T01:14:20.000Z</time>
      </trkpt>
      <trkpt lat="41.38411" lon="1.96422">
        <ele>117.8</ele>
        <time>1970-01-01T01:14:24.000Z</time>
      </trkpt>
      <trkpt lat="41.384146" lon="1.964131">
        <ele>118.6</ele>
        <time>1970-01-01T01:14:28.000Z</time>
      </trkpt>
      <trkpt lat="41.384185" lon="1.96403">
        <ele>119.2</ele>
        <time>1970-01-01T01:14:32.000Z</time>
      </trkpt>
      <trkpt lat="41.384228" lon="1.963938">
        <ele>119.8</ele>
        <time>1970-01-01T01:14:36.000Z</time>
      </trkpt>
      <trkpt lat="41.384275" lon="1.963813">
        <ele>120.6</ele>
        <time>1970-01-01T01:14:40.000Z</time>
      </trkpt>
      <trkpt lat="41.384315" lon="1.963696">
        <ele>121.0</ele>
        <time>1970-01-01T01:14:44.000Z</time>
      </trkpt>
      <trkpt lat="41.384338" lon="1.963616">
        <ele>122.2</ele>
        <time>1970-01-01T01:14:48.000Z</time>
      </trkpt>
      <trkpt lat="41.384348" lon="1.963515">
        <ele>122.4</ele>
        <time>1970-01-01T01:14:52.000Z</time>
      </trkpt>
      <trkpt lat="41.384375" lon="1.96343">
        <ele>122.8</ele>
        <time>1970-01-01T01:14:56.000Z</time>
      </trkpt>
      <trkpt lat="41.384378" lon="1.963331">
        <ele>124.2</ele>
        <time>1970-01-01T01:15:00.000Z</time>
      </trkpt>
      <trkpt lat="41.384398" lon="1.96322">
        <ele>123.4</ele>
        <time>1970-01-01T01:15:04.000Z</time>
      </trkpt>
      <trkpt lat="41.38445" lon="1.963136">
        <ele>124.4</ele>
        <time>1970-01-01T01:15:08.000Z</time>
      </trkpt>
      <trkpt lat="41.38448" lon="1.963041">
        <ele>125.2</ele>
        <time>1970-01-01T01:15:12.000Z</time>
      </trkpt>
      <trkpt lat="41.384515" lon="1.962971">
        <ele>126.4</ele>
        <time>1970-01-01T01:15:16.000Z</time>
      </trkpt>
      <trkpt lat="41.384548" lon="1.962861">
        <ele>127.2</ele>
        <time>1970-01-01T01:15:20.000Z</time>
      </trkpt>
      <trkpt lat="41.384561" lon="1.962753">
        <ele>127.4</ele>
        <time>1970-01-01T01:15:24.000Z</time>
      </trkpt>
      <trkpt lat="41.384576" lon="1.962633">
        <ele>128.6</ele>
        <time>1970-01-01T01:15:28.000Z</time>
      </trkpt>
      <trkpt lat="41.384615" lon="1.962533">
        <ele>128.8</ele>
        <time>1970-01-01T01:15:32.000Z</time>
      </trkpt>
      <trkpt lat="41.384641" lon="1.962455">
        <ele>130.2</ele>
        <time>1970-01-01T01:15:36.000Z</time>
      </trkpt>
      <trkpt lat="41.384665" lon="1.962373">
        <ele>131.0</ele>
        <time>1970-01-01T01:15:40.000Z</time>
      </trkpt>
      <trkpt lat="41.384695" lon="1.96228">
        <ele>130.4</ele>
        <time>1970-01-01T01:15:44.000Z</time>
      </trkpt>
      <trkpt lat="41.38472" lon="1.962193">
        <ele>131.8</ele>
        <time>1970-01-01T01:15:48.000Z</time>
      </trkpt>
      <trkpt lat="41.384738" lon="1.962108">
        <ele>133.0</ele>
        <time>1970-01-01T01:15:52.000Z</time>
      </trkpt>
      <trkpt lat="41.384765" lon="1.962036">
        <ele>133.0</ele>
        <time>1970-01-01T01:15:56.000Z</time>
      </trkpt>
      <trkpt lat="41.38478" lon="1.96196">
        <ele>134.0</ele>
        <time>1970-01-01T01:16:00.000Z</time>
      </trkpt>
      <trkpt lat="41.384791" lon="1.961886">
        <ele>134.6</ele>
        <time>1970-01-01T01:16:04.000Z</time>
      </trkpt>
      <trkpt lat="41.38481" lon="1.961818">
        <ele>135.4</ele>
        <time>1970-01-01T01:16:08.000Z</time>
      </trkpt>
      <trkpt lat="41.384838" lon="1.961758">
        <ele>135.4</ele>
        <time>1970-01-01T01:16:12.000Z</time>
      </trkpt>
      <trkpt lat="41.384863" lon="1.961691">
        <ele>135.8</ele>
        <time>1970-01-01T01:16:16.000Z</time>
      </trkpt>
      <trkpt lat="41.3849" lon="1.961606">
        <ele>136.6</ele>
        <time>1970-01-01T01:16:20.000Z</time>
      </trkpt>
      <trkpt lat="41.384931" lon="1.961548">
        <ele>136.8</ele>
        <time>1970-01-01T01:16:24.000Z</time>
      </trkpt>
      <trkpt lat="41.384955" lon="1.961471">
        <ele>137.6</ele>
        <time>1970-01-01T01:16:28.000Z</time>
      </trkpt>
      <trkpt lat="41.384988" lon="1.961415">
        <ele>138.0</ele>
        <time>1970-01-01T01:16:32.000Z</time>
      </trkpt>
      <trkpt lat="41.385023" lon="1.96134">
        <ele>138.2</ele>
        <time>1970-01-01T01:16:36.000Z</time>
      </trkpt>
      <trkpt lat="41.385048" lon="1.96127">
        <ele>138.8</ele>
        <time>1970-01-01T01:16:40.000Z</time>
      </trkpt>
      <trkpt lat="41.38507" lon="1.961191">
        <ele>139.8</ele>
        <time>1970-01-01T01:16:44.000Z</time>
      </trkpt>
      <trkpt lat="41.385091" lon="1.96111">
        <ele>140.6</ele>
        <time>1970-01-01T01:16:48.000Z</time>
      </trkpt>
      <trkpt lat="41.385111" lon="1.961026">
        <ele>140.6</ele>
        <time>1970-01-01T01:16:52.000Z</time>
      </trkpt>
      <trkpt lat="41.38513" lon="1.960941">
        <ele>141.4</ele>
        <time>1970-01-01T01:16:56.000Z</time>
      </trkpt>
      <trkpt lat="41.385146" lon="1.960856">
        <ele>141.4</ele>
        <time>1970-01-01T01:17:00.000Z</time>
      </trkpt>
      <trkpt lat="41.38517" lon="1.96078">
        <ele>143.4</ele>
        <time>1970-01-01T01:17:04.000Z</time>
      </trkpt>
      <trkpt lat="41.385203" lon="1.960705">
        <ele>144.6</ele>
        <time>1970-01-01T01:17:08.000Z</time>
      </trkpt>
      <trkpt lat="41.38523" lon="1.96062">
        <ele>145.2</ele>
        <time>1970-01-01T01:17:12.000Z</time>
      </trkpt>
      <trkpt lat="41.385273" lon="1.96055">
        <ele>146.0</ele>
        <time>1970-01-01T01:17:16.000Z</time>
      </trkpt>
      <trkpt lat="41.38531" lon="1.960463">
        <ele>146.4</ele>
        <time>1970-01-01T01:17:20.000Z</time>
      </trkpt>
      <trkpt lat="41.385353" lon="1.960418">
        <ele>146.6</ele>
        <time>1970-01-01T01:17:24.000Z</time>
      </trkpt>
      <trkpt lat="41.385391" lon="1.960366">
        <ele>147.6</ele>
        <time>1970-01-01T01:17:28.000Z</time>
      </trkpt>
      <trkpt lat="41.385435" lon="1.96032">
        <ele>147.8</ele>
        <time>1970-01-01T01:17:32.000Z</time>
      </trkpt>
      <trkpt lat="41.385476" lon="1.96026">
        <ele>148.0</ele>
        <time>1970-01-01T01:17:36.000Z</time>
      </trkpt>
      <trkpt lat="41.385523" lon="1.960206">
        <ele>149.0</ele>
        <time>1970-01-01T01:17:40.000Z</time>
      </trkpt>
      <trkpt lat="41.385581" lon="1.960155">
        <ele>149.4</ele>
        <time>1970-01-01T01:17:44.000Z</time>
      </trkpt>
      <trkpt lat="41.385625" lon="1.960091">
        <ele>150.2</ele>
        <time>1970-01-01T01:17:48.000Z</time>
      </trkpt>
      <trkpt lat="41.385678" lon="1.960021">
        <ele>150.4</ele>
        <time>1970-01-01T01:17:52.000Z</time>
      </trkpt>
      <trkpt lat="41.385716" lon="1.959975">
        <ele>151.2</ele>
        <time>1970-01-01T01:17:56.000Z</time>
      </trkpt>
      <trkpt lat="41.385751" lon="1.959918">
        <ele>152.0</ele>
        <time>1970-01-01T01:18:00.000Z</time>
      </trkpt>
      <trkpt lat="41.385783" lon="1.959843">
        <ele>151.8</ele>
        <time>1970-01-01T01:18:04.000Z</time>
      </trkpt>
      <trkpt lat="41.385803" lon="1.959748">
        <ele>152.2</ele>
        <time>1970-01-01T01:18:08.000Z</time>
      </trkpt>
      <trkpt lat="41.385901" lon="1.959431">
        <ele>156.6</ele>
        <time>1970-01-01T01:20:43.000Z</time>
      </trkpt>
      <trkpt lat="41.385846" lon="1.959483">
        <ele>157.6</ele>
        <time>1970-01-01T01:20:47.000Z</time>
      </trkpt>
      <trkpt lat="41.385783" lon="1.959511">
        <ele>158.2</ele>
        <time>1970-01-01T01:20:51.000Z</time>
      </trkpt>
      <trkpt lat="41.385725" lon="1.95954">
        <ele>158.6</ele>
        <time>1970-01-01T01:20:55.000Z</time>
      </trkpt>
      <trkpt lat="41.385666" lon="1.959545">
        <ele>158.8</ele>
        <time>1970-01-01T01:20:59.000Z</time>
      </trkpt>
      <trkpt lat="41.385596" lon="1.959543">
        <ele>159.0</ele>
        <time>1970-01-01T01:21:03.000Z</time>
      </trkpt>
      <trkpt lat="41.385528" lon="1.959483">
        <ele>159.4</ele>
        <time>1970-01-01T01:21:07.000Z</time>
      </trkpt>
      <trkpt lat="41.38548" lon="1.959383">
        <ele>159.0</ele>
        <time>1970-01-01T01:21:11.000Z</time>
      </trkpt>
      <trkpt lat="41.385375" lon="1.959195">
        <ele>157.2</ele>
        <time>1970-01-01T01:21:15.000Z</time>
      </trkpt>
      <trkpt lat="41.385288" lon="1.958861">
        <ele>154.4</ele>
        <time>1970-01-01T01:21:19.000Z</time>
      </trkpt>
      <trkpt lat="41.385085" lon="1.95861">
        <ele>152.2</ele>
        <time>1970-01-01T01:21:23.000Z</time>
      </trkpt>
      <trkpt lat="41.384835" lon="1.958378">
        <ele>152.2</ele>
        <time>1970-01-01T01:21:27.000Z</time>
      </trkpt>
      <trkpt lat="41.384601" lon="1.958181">
        <ele>151.0</ele>
        <time>1970-01-01T01:21:31.000Z</time>
      </trkpt>
      <trkpt lat="41.384445" lon="1.958283">
        <ele>152.2</ele>
        <time>1970-01-01T01:21:35.000Z</time>
      </trkpt>
      <trkpt lat="41.384393" lon="1.958498">
        <ele>151.4</ele>
        <time>1970-01-01T01:21:39.000Z</time>
      </trkpt>
      <trkpt lat="41.384308" lon="1.958686">
        <ele>153.8</ele>
        <time>1970-01-01T01:21:43.000Z</time>
      </trkpt>
      <trkpt lat="41.384155" lon="1.958713">
        <ele>152.8</ele>
        <time>1970-01-01T01:21:47.000Z</time>
      </trkpt>
      <trkpt lat="41.38396" lon="1.95865">
        <ele>152.4</ele>
        <time>1970-01-01T01:21:51.000Z</time>
      </trkpt>
      <trkpt lat="41.383843" lon="1.958818">
        <ele>152.4</ele>
        <time>1970-01-01T01:21:55.000Z</time>
      </trkpt>
      <trkpt lat="41.383818" lon="1.959081">
        <ele>152.6</ele>
        <time>1970-01-01T01:21:59.000Z</time>
      </trkpt>
      <trkpt lat="41.38369" lon="1.959306">
        <ele>151.0</ele>
        <time>1970-01-01T01:22:03.000Z</time>
      </trkpt>
      <trkpt lat="41.383438" lon="1.959301">
        <ele>149.4</ele>
        <time>1970-01-01T01:22:07.000Z</time>
      </trkpt>
      <trkpt lat="41.383165" lon="1.959331">
        <ele>149.2</ele>
        <time>1970-01-01T01:22:11.000Z</time>
      </trkpt>
      <trkpt lat="41.382925" lon="1.959355">
        <ele>149.4</ele>
        <time>1970-01-01T01:22:15.000Z</time>
      </trkpt>
      <trkpt lat="41.382678" lon="1.959318">
        <ele>147.0</ele>
        <time>1970-01-01T01:22:19.000Z</time>
      </trkpt>
      <trkpt lat="41.382601" lon="1.959193">
        <ele>145.8</ele>
        <time>1970-01-01T01:22:23.000Z</time>
      </trkpt>
      <trkpt lat="41.382583" lon="1.958986">
        <ele>144.6</ele>
        <time>1970-01-01T01:22:27.000Z</time>
      </trkpt>
      <trkpt lat="41.382618" lon="1.958711">
        <ele>144.0</ele>
        <time>1970-01-01T01:22:31.000Z</time>
      </trkpt>
      <trkpt lat="41.382503" lon="1.958486">
        <ele>143.6</ele>
        <time>1970-01-01T01:22:35.000Z</time>
      </trkpt>
      <trkpt lat="41.38228" lon="1.958373">
        <ele>143.2</ele>
        <time>1970-01-01T01:22:39.000Z</time>
      </trkpt>
      <trkpt lat="41.38204" lon="1.958278">
        <ele>143.0</ele>
        <time>1970-01-01T01:22:43.000Z</time>
      </trkpt>
      <trkpt lat="41.38181" lon="1.958201">
        <ele>142.8</ele>
        <time>1970-01-01T01:22:47.000Z</time>
      </trkpt>
      <trkpt lat="41.381608" lon="1.95807">
        <ele>143.4</ele>
        <time>1970-01-01T01:22:51.000Z</time>
      </trkpt>
      <trkpt lat="41.381371" lon="1.95797">
        <ele>142.4</ele>
        <time>1970-01-01T01:22:55.000Z</time>
      </trkpt>
      <trkpt lat="41.381105" lon="1.957825">
        <ele>140.2</ele>
        <time>1970-01-01T01:22:59.000Z</time>
      </trkpt>
      <trkpt lat="41.38084" lon="1.957743">
        <ele>140.0</ele>
        <time>1970-01-01T01:23:03.000Z</time>
      </trkpt>
      <trkpt lat="41.380655" lon="1.957933">
        <ele>141.0</ele>
        <time>1970-01-01T01:23:07.000Z</time>
      </trkpt>
      <trkpt lat="41.380406" lon="1.958043">
        <ele>141.8</ele>
        <time>1970-01-01T01:23:11.000Z</time>
      </trkpt>
      <trkpt lat="41.380196" lon="1.958116">
        <ele>143.0</ele>
        <time>1970-01-01T01:23:15.000Z</time>
      </trkpt>
      <trkpt lat="41.380006" lon="1.958173">
        <ele>143.0</ele>
        <time>1970-01-01T01:23:19.000Z</time>
      </trkpt>
      <trkpt lat="41.379798" lon="1.958248">
        <ele>144.2</ele>
        <time>1970-01-01T01:23:23.000Z</time>
      </trkpt>
      <trkpt lat="41.379656" lon="1.958145">
        <ele>144.8</ele>
        <time>1970-01-01T01:23:27.000Z</time>
      </trkpt>
      <trkpt lat="41.379531" lon="1.9579">
        <ele>143.8</ele>
        <time>1970-01-01T01:23:31.000Z</time>
      </trkpt>
      <trkpt lat="41.379376" lon="1.95762">
        <ele>142.6</ele>
        <time>1970-01-01T01:23:35.000Z</time>
      </trkpt>
      <trkpt lat="41.37917" lon="1.957376">
        <ele>143.0</ele>
        <time>1970-01-01T01:23:39.000Z</time>
      </trkpt>
      <trkpt lat="41.378908" lon="1.957341">
        <ele>143.0</ele>
        <time>1970-01-01T01:23:43.000Z</time>
      </trkpt>
      <trkpt lat="41.378673" lon="1.957275">
        <ele>143.8</ele>
        <time>1970-01-01T01:23:47.000Z</time>
      </trkpt>
      <trkpt lat="41.37843" lon="1.95717">
        <ele>141.4</ele>
        <time>1970-01-01T01:23:51.000Z</time>
      </trkpt>
      <trkpt lat="41.378165" lon="1.956938">
        <ele>139.6</ele>
        <time>1970-01-01T01:23:55.000Z</time>
      </trkpt>
      <trkpt lat="41.377955" lon="1.956816">
        <ele>139.8</ele>
        <time>1970-01-01T01:23:59.000Z</time>
      </trkpt>
      <trkpt lat="41.377913" lon="1.956885">
        <ele>140.8</ele>
        <time>1970-01-01T01:24:03.000Z</time>
      </trkpt>
      <trkpt lat="41.377911" lon="1.956956">
        <ele>141.8</ele>
        <time>1970-01-01T01:24:07.000Z</time>
      </trkpt>
      <trkpt lat="41.377911" lon="1.957075">
        <ele>143.4</ele>
        <time>1970-01-01T01:24:11.000Z</time>
      </trkpt>
      <trkpt lat="41.377868" lon="1.957173">
        <ele>145.6</ele>
        <time>1970-01-01T01:24:15.000Z</time>
      </trkpt>
      <trkpt lat="41.37777" lon="1.957256">
        <ele>146.0</ele>
        <time>1970-01-01T01:24:19.000Z</time>
      </trkpt>
      <trkpt lat="41.377655" lon="1.957238">
        <ele>148.2</ele>
        <time>1970-01-01T01:24:23.000Z</time>
      </trkpt>
      <trkpt lat="41.37757" lon="1.957145">
        <ele>148.6</ele>
        <time>1970-01-01T01:24:27.000Z</time>
      </trkpt>
      <trkpt lat="41.377491" lon="1.957056">
        <ele>150.0</ele>
        <time>1970-01-01T01:24:31.000Z</time>
      </trkpt>
      <trkpt lat="41.377393" lon="1.957005">
        <ele>150.8</ele>
        <time>1970-01-01T01:24:35.000Z</time>
      </trkpt>
      <trkpt lat="41.377293" lon="1.95693">
        <ele>151.4</ele>
        <time>1970-01-01T01:24:39.000Z</time>
      </trkpt>
      <trkpt lat="41.377205" lon="1.956828">
        <ele>152.4</ele>
        <time>1970-01-01T01:24:43.000Z</time>
      </trkpt>
      <trkpt lat="41.37716" lon="1.95671">
        <ele>152.4</ele>
        <time>1970-01-01T01:24:47.000Z</time>
      </trkpt>
      <trkpt lat="41.377096" lon="1.95658">
        <ele>154.0</ele>
        <time>1970-01-01T01:24:51.000Z</time>
      </trkpt>
      <trkpt lat="41.377016" lon="1.956463">
        <ele>154.6</ele>
        <time>1970-01-01T01:24:55.000Z</time>
      </trkpt>
      <trkpt lat="41.376933" lon="1.956368">
        <ele>156.2</ele>
        <time>1970-01-01T01:24:59.000Z</time>
      </trkpt>
      <trkpt lat="41.376853" lon="1.956286">
        <ele>156.8</ele>
        <time>1970-01-01T01:25:03.000Z</time>
      </trkpt>
      <trkpt lat="41.37677" lon="1.956196">
        <ele>157.0</ele>
        <time>1970-01-01T01:25:07.000Z</time>
      </trkpt>
      <trkpt lat="41.37669" lon="1.956103">
        <ele>158.2</ele>
        <time>1970-01-01T01:25:11.000Z</time>
      </trkpt>
      <trkpt lat="41.376613" lon="1.956003">
        <ele>159.0</ele>
        <time>1970-01-01T01:25:15.000Z</time>
      </trkpt>
      <trkpt lat="41.376531" lon="1.955891">
        <ele>159.6</ele>
        <time>1970-01-01T01:25:19.000Z</time>
      </trkpt>
      <trkpt lat="41.376466" lon="1.955773">
        <ele>160.2</ele>
        <time>1970-01-01T01:25:23.000Z</time>
      </trkpt>
      <trkpt lat="41.37641" lon="1.955678">
        <ele>161.2</ele>
        <time>1970-01-01T01:25:27.000Z</time>
      </trkpt>
      <trkpt lat="41.376346" lon="1.955573">
        <ele>160.8</ele>
        <time>1970-01-01T01:25:31.000Z</time>
      </trkpt>
      <trkpt lat="41.376266" lon="1.955486">
        <ele>161.0</ele>
        <time>1970-01-01T01:25:35.000Z</time>
      </trkpt>
      <trkpt lat="41.376196" lon="1.955403">
        <ele>162.0</ele>
        <time>1970-01-01T01:25:39.000Z</time>
      </trkpt>
      <trkpt lat="41.376113" lon="1.955331">
        <ele>162.4</ele>
        <time>1970-01-01T01:25:43.000Z</time>
      </trkpt>
      <trkpt lat="41.376026" lon="1.95526">
        <ele>163.0</ele>
        <time>1970-01-01T01:25:47.000Z</time>
      </trkpt>
      <trkpt lat="41.375936" lon="1.955188">
        <ele>164.2</ele>
        <time>1970-01-01T01:25:51.000Z</time>
      </trkpt>
      <trkpt lat="41.375853" lon="1.955123">
        <ele>164.8</ele>
        <time>1970-01-01T01:25:55.000Z</time>
      </trkpt>
      <trkpt lat="41.375758" lon="1.955066">
        <ele>165.0</ele>
        <time>1970-01-01T01:25:59.000Z</time>
      </trkpt>
      <trkpt lat="41.375661" lon="1.955015">
        <ele>165.6</ele>
        <time>1970-01-01T01:26:03.000Z</time>
      </trkpt>
      <trkpt lat="41.375551" lon="1.954986">
        <ele>166.0</ele>
        <time>1970-01-01T01:26:07.000Z</time>
      </trkpt>
      <trkpt lat="41.375435" lon="1.954963">
        <ele>166.4</ele>
        <time>1970-01-01T01:26:11.000Z</time>
      </trkpt>
      <trkpt lat="41.375315" lon="1.954926">
        <ele>167.0</ele>
        <time>1970-01-01T01:26:15.000Z</time>
      </trkpt>
      <trkpt lat="41.375215" lon="1.954886">
        <ele>167.8</ele>
        <time>1970-01-01T01:26:19.000Z</time>
      </trkpt>
      <trkpt lat="41.375105" lon="1.954823">
        <ele>168.8</ele>
        <time>1970-01-01T01:26:23.000Z</time>
      </trkpt>
      <trkpt lat="41.375033" lon="1.95475">
        <ele>169.2</ele>
        <time>1970-01-01T01:26:27.000Z</time>
      </trkpt>
      <trkpt lat="41.374961" lon="1.954686">
        <ele>169.8</ele>
        <time>1970-01-01T01:26:31.000Z</time>
      </trkpt>
      <trkpt lat="41.374898" lon="1.95463">
        <ele>171.6</ele>
        <time>1970-01-01T01:26:35.000Z</time>
      </trkpt>
      <trkpt lat="41.374836" lon="1.954568">
        <ele>171.6</ele>
        <time>1970-01-01T01:26:39.000Z</time>
      </trkpt>
      <trkpt lat="41.374768" lon="1.954528">
        <ele>172.4</ele>
        <time>1970-01-01T01:26:43.000Z</time>
      </trkpt>
      <trkpt lat="41.37471" lon="1.954463">
        <ele>173.6</ele>
        <time>1970-01-01T01:26:47.000Z</time>
      </trkpt>
      <trkpt lat="41.37466" lon="1.9544">
        <ele>175.0</ele>
        <time>1970-01-01T01:26:51.000Z</time>
      </trkpt>
      <trkpt lat="41.374613" lon="1.954358">
        <ele>175.8</ele>
        <time>1970-01-01T01:26:55.000Z</time>
      </trkpt>
      <trkpt lat="41.37458" lon="1.954315">
        <ele>176.6</ele>
        <time>1970-01-01T01:26:59.000Z</time>
      </trkpt>
      <trkpt lat="41.374535" lon="1.954281">
        <ele>177.6</ele>
        <time>1970-01-01T01:27:03.000Z</time>
      </trkpt>
      <trkpt lat="41.374491" lon="1.954241">
        <ele>178.6</ele>
        <time>1970-01-01T01:27:07.000Z</time>
      </trkpt>
      <trkpt lat="41.374446" lon="1.954193">
        <ele>179.4</ele>
        <time>1970-01-01T01:27:11.000Z</time>
      </trkpt>
      <trkpt lat="41.374401" lon="1.954145">
        <ele>180.4</ele>
        <time>1970-01-01T01:27:15.000Z</time>
      </trkpt>
      <trkpt lat="41.374358" lon="1.954095">
        <ele>181.6</ele>
        <time>1970-01-01T01:27:19.000Z</time>
      </trkpt>
      <trkpt lat="41.374333" lon="1.954025">
        <ele>182.2</ele>
        <time>1970-01-01T01:27:23.000Z</time>
      </trkpt>
      <trkpt lat="41.3743" lon="1.95396">
        <ele>183.6</ele>
        <time>1970-01-01T01:27:27.000Z</time>
      </trkpt>
      <trkpt lat="41.374256" lon="1.953901">
        <ele>184.4</ele>
        <time>1970-01-01T01:27:31.000Z</time>
      </trkpt>
      <trkpt lat="41.374221" lon="1.95384">
        <ele>184.6</ele>
        <time>1970-01-01T01:27:35.000Z</time>
      </trkpt>
      <trkpt lat="41.374183" lon="1.953775">
        <ele>185.6</ele>
        <time>1970-01-01T01:27:39.000Z</time>
      </trkpt>
      <trkpt lat="41.374145" lon="1.953728">
        <ele>186.4</ele>
        <time>1970-01-01T01:27:43.000Z</time>
      </trkpt>
      <trkpt lat="41.3741" lon="1.953693">
        <ele>187.2</ele>
        <time>1970-01-01T01:27:47.000Z</time>
      </trkpt>
      <trkpt lat="41.374071" lon="1.95365">
        <ele>188.4</ele>
        <time>1970-01-01T01:27:51.000Z</time>
      </trkpt>
      <trkpt lat="41.374113" lon="1.953616">
        <ele>188.8</ele>
        <time>1970-01-01T01:27:55.000Z</time>
      </trkpt>
      <trkpt lat="41.374155" lon="1.95362">
        <ele>188.8</ele>
        <time>1970-01-01T01:27:59.000Z</time>
      </trkpt>
      <trkpt lat="41.374211" lon="1.953628">
        <ele>189.4</ele>
        <time>1970-01-01T01:28:03.000Z</time>
      </trkpt>
      <trkpt lat="41.374275" lon="1.953625">
        <ele>189.8</ele>
        <time>1970-01-01T01:28:07.000Z</time>
      </trkpt>
      <trkpt lat="41.374325" lon="1.953593">
        <ele>190.6</ele>
        <time>1970-01-01T01:28:11.000Z</time>
      </trkpt>
      <trkpt lat="41.374381" lon="1.953563">
        <ele>190.8</ele>
        <time>1970-01-01T01:28:15.000Z</time>
      </trkpt>
      <trkpt lat="41.374415" lon="1.953531">
        <ele>192.0</ele>
        <time>1970-01-01T01:28:19.000Z</time>
      </trkpt>
      <trkpt lat="41.374461" lon="1.953486">
        <ele>192.8</ele>
        <time>1970-01-01T01:28:23.000Z</time>
      </trkpt>
      <trkpt lat="41.374523" lon="1.953451">
        <ele>193.0</ele>
        <time>1970-01-01T01:28:27.000Z</time>
      </trkpt>
      <trkpt lat="41.374568" lon="1.953423">
        <ele>193.2</ele>
        <time>1970-01-01T01:28:31.000Z</time>
      </trkpt>
      <trkpt lat="41.374598" lon="1.953415">
        <ele>194.0</ele>
        <time>1970-01-01T01:28:35.000Z</time>
      </trkpt>
      <trkpt lat="41.374663" lon="1.95341">
        <ele>194.4</ele>
        <time>1970-01-01T01:28:39.000Z</time>
      </trkpt>
      <trkpt lat="41.374708" lon="1.953406">
        <ele>195.0</ele>
        <time>1970-01-01T01:28:43.000Z</time>
      </trkpt>
      <trkpt lat="41.37476" lon="1.953411">
        <ele>195.2</ele>
        <time>1970-01-01T01:28:47.000Z</time>
      </trkpt>
      <trkpt lat="41.374815" lon="1.953411">
        <ele>195.2</ele>
        <time>1970-01-01T01:28:51.000Z</time>
      </trkpt>
      <trkpt lat="41.37487" lon="1.95341">
        <ele>196.4</ele>
        <time>1970-01-01T01:28:55.000Z</time>
      </trkpt>
      <trkpt lat="41.37493" lon="1.953395">
        <ele>196.6</ele>
        <time>1970-01-01T01:28:59.000Z</time>
      </trkpt>
      <trkpt lat="41.374995" lon="1.953385">
        <ele>197.4</ele>
        <time>1970-01-01T01:29:03.000Z</time>
      </trkpt>
      <trkpt lat="41.375041" lon="1.953366">
        <ele>197.2</ele>
        <time>1970-01-01T01:29:07.000Z</time>
      </trkpt>
      <trkpt lat="41.375098" lon="1.953323">
        <ele>198.0</ele>
        <time>1970-01-01T01:29:11.000Z</time>
      </trkpt>
      <trkpt lat="41.375155" lon="1.953305">
        <ele>198.4</ele>
        <time>1970-01-01T01:29:15.000Z</time>
      </trkpt>
      <trkpt lat="41.375208" lon="1.953295">
        <ele>198.6</ele>
        <time>1970-01-01T01:29:19.000Z</time>
      </trkpt>
      <trkpt lat="41.375251" lon="1.95324">
        <ele>198.8</ele>
        <time>1970-01-01T01:29:23.000Z</time>
      </trkpt>
      <trkpt lat="41.37532" lon="1.953183">
        <ele>197.6</ele>
        <time>1970-01-01T01:29:27.000Z</time>
      </trkpt>
      <trkpt lat="41.37542" lon="1.953116">
        <ele>196.4</ele>
        <time>1970-01-01T01:29:31.000Z</time>
      </trkpt>
      <trkpt lat="41.375515" lon="1.953036">
        <ele>197.4</ele>
        <time>1970-01-01T01:29:35.000Z</time>
      </trkpt>
      <trkpt lat="41.37557" lon="1.952953">
        <ele>198.0</ele>
        <time>1970-01-01T01:29:39.000Z</time>
      </trkpt>
      <trkpt lat="41.375631" lon="1.952871">
        <ele>198.6</ele>
        <time>1970-01-01T01:29:43.000Z</time>
      </trkpt>
      <trkpt lat="41.375673" lon="1.952791">
        <ele>199.2</ele>
        <time>1970-01-01T01:29:47.000Z</time>
      </trkpt>
      <trkpt lat="41.37572" lon="1.952736">
        <ele>200.6</ele>
        <time>1970-01-01T01:29:51.000Z</time>
      </trkpt>
      <trkpt lat="41.375771" lon="1.952711">
        <ele>200.6</ele>
        <time>1970-01-01T01:29:55.000Z</time>
      </trkpt>
      <trkpt lat="41.375851" lon="1.952693">
        <ele>200.4</ele>
        <time>1970-01-01T01:29:59.000Z</time>
      </trkpt>
      <trkpt lat="41.375931" lon="1.952696">
        <ele>200.6</ele>
        <time>1970-01-01T01:30:03.000Z</time>
      </trkpt>
      <trkpt lat="41.376016" lon="1.952706">
        <ele>201.8</ele>
        <time>1970-01-01T01:30:07.000Z</time>
      </trkpt>
      <trkpt lat="41.376093" lon="1.952705">
        <ele>203.8</ele>
        <time>1970-01-01T01:30:11.000Z</time>
      </trkpt>
      <trkpt lat="41.376183" lon="1.952715">
        <ele>204.8</ele>
        <time>1970-01-01T01:30:15.000Z</time>
      </trkpt>
      <trkpt lat="41.376258" lon="1.952681">
        <ele>204.4</ele>
        <time>1970-01-01T01:30:19.000Z</time>
      </trkpt>
      <trkpt lat="41.376335" lon="1.952681">
        <ele>204.4</ele>
        <time>1970-01-01T01:30:23.000Z</time>
      </trkpt>
      <trkpt lat="41.376415" lon="1.952693">
        <ele>205.6</ele>
        <time>1970-01-01T01:30:27.000Z</time>
      </trkpt>
      <trkpt lat="41.376488" lon="1.952651">
        <ele>206.0</ele>
        <time>1970-01-01T01:30:31.000Z</time>
      </trkpt>
      <trkpt lat="41.376555" lon="1.952618">
        <ele>207.2</ele>
        <time>1970-01-01T01:30:35.000Z</time>
      </trkpt>
      <trkpt lat="41.376616" lon="1.952568">
        <ele>207.6</ele>
        <time>1970-01-01T01:30:39.000Z</time>
      </trkpt>
      <trkpt lat="41.376686" lon="1.952545">
        <ele>207.2</ele>
        <time>1970-01-01T01:30:43.000Z</time>
      </trkpt>
      <trkpt lat="41.376778" lon="1.952531">
        <ele>207.2</ele>
        <time>1970-01-01T01:30:47.000Z</time>
      </trkpt>
      <trkpt lat="41.376866" lon="1.952515">
        <ele>207.6</ele>
        <time>1970-01-01T01:30:51.000Z</time>
      </trkpt>
      <trkpt lat="41.376956" lon="1.952491">
        <ele>207.6</ele>
        <time>1970-01-01T01:30:55.000Z</time>
      </trkpt>
      <trkpt lat="41.377035" lon="1.952501">
        <ele>208.2</ele>
        <time>1970-01-01T01:30:59.000Z</time>
      </trkpt>
      <trkpt lat="41.377108" lon="1.952525">
        <ele>208.2</ele>
        <time>1970-01-01T01:31:03.000Z</time>
      </trkpt>
      <trkpt lat="41.377213" lon="1.952525">
        <ele>208.6</ele>
        <time>1970-01-01T01:31:07.000Z</time>
      </trkpt>
      <trkpt lat="41.3773" lon="1.95249">
        <ele>209.8</ele>
        <time>1970-01-01T01:31:11.000Z</time>
      </trkpt>
      <trkpt lat="41.37736" lon="1.952431">
        <ele>211.2</ele>
        <time>1970-01-01T01:31:15.000Z</time>
      </trkpt>
      <trkpt lat="41.377436" lon="1.952398">
        <ele>211.2</ele>
        <time>1970-01-01T01:31:19.000Z</time>
      </trkpt>
      <trkpt lat="41.377511" lon="1.952393">
        <ele>212.6</ele>
        <time>1970-01-01T01:31:23.000Z</time>
      </trkpt>
      <trkpt lat="41.377581" lon="1.95242">
        <ele>212.6</ele>
        <time>1970-01-01T01:31:27.000Z</time>
      </trkpt>
      <trkpt lat="41.377646" lon="1.952443">
        <ele>213.0</ele>
        <time>1970-01-01T01:31:31.000Z</time>
      </trkpt>
      <trkpt lat="41.377723" lon="1.952461">
        <ele>213.2</ele>
        <time>1970-01-01T01:31:35.000Z</time>
      </trkpt>
      <trkpt lat="41.377723" lon="1.952461">
        <ele>214.2</ele>
        <time>1970-01-01T01:31:39.000Z</time>
      </trkpt>
      <trkpt lat="41.3778" lon="1.952476">
        <ele>215.6</ele>
        <time>1970-01-01T01:31:43.000Z</time>
      </trkpt>
      <trkpt lat="41.37787" lon="1.9525">
        <ele>216.0</ele>
        <time>1970-01-01T01:31:47.000Z</time>
      </trkpt>
      <trkpt lat="41.377943" lon="1.952508">
        <ele>216.6</ele>
        <time>1970-01-01T01:31:51.000Z</time>
      </trkpt>
      <trkpt lat="41.378008" lon="1.952485">
        <ele>217.6</ele>
        <time>1970-01-01T01:31:55.000Z</time>
      </trkpt>
      <trkpt lat="41.378083" lon="1.952445">
        <ele>218.2</ele>
        <time>1970-01-01T01:31:59.000Z</time>
      </trkpt>
      <trkpt lat="41.378146" lon="1.952395">
        <ele>219.4</ele>
        <time>1970-01-01T01:32:03.000Z</time>
      </trkpt>
      <trkpt lat="41.378206" lon="1.952376">
        <ele>220.2</ele>
        <time>1970-01-01T01:32:07.000Z</time>
      </trkpt>
      <trkpt lat="41.378271" lon="1.952376">
        <ele>220.0</ele>
        <time>1970-01-01T01:32:11.000Z</time>
      </trkpt>
      <trkpt lat="41.378343" lon="1.952366">
        <ele>220.6</ele>
        <time>1970-01-01T01:32:15.000Z</time>
      </trkpt>
      <trkpt lat="41.378411" lon="1.952356">
        <ele>221.4</ele>
        <time>1970-01-01T01:32:19.000Z</time>
      </trkpt>
      <trkpt lat="41.378481" lon="1.952353">
        <ele>222.2</ele>
        <time>1970-01-01T01:32:23.000Z</time>
      </trkpt>
      <trkpt lat="41.378538" lon="1.952328">
        <ele>222.8</ele>
        <time>1970-01-01T01:32:27.000Z</time>
      </trkpt>
      <trkpt lat="41.378603" lon="1.9523">
        <ele>223.8</ele>
        <time>1970-01-01T01:32:31.000Z</time>
      </trkpt>
      <trkpt lat="41.378665" lon="1.95228">
        <ele>224.0</ele>
        <time>1970-01-01T01:32:35.000Z</time>
      </trkpt>
      <trkpt lat="41.37872" lon="1.95225">
        <ele>224.4</ele>
        <time>1970-01-01T01:32:39.000Z</time>
      </trkpt>
      <trkpt lat="41.378811" lon="1.952206">
        <ele>223.4</ele>
        <time>1970-01-01T01:32:43.000Z</time>
      </trkpt>
      <trkpt lat="41.378958" lon="1.952181">
        <ele>223.0</ele>
        <time>1970-01-01T01:32:47.000Z</time>
      </trkpt>
      <trkpt lat="41.379123" lon="1.952181">
        <ele>222.2</ele>
        <time>1970-01-01T01:32:51.000Z</time>
      </trkpt>
      <trkpt lat="41.3793" lon="1.952128">
        <ele>223.2</ele>
        <time>1970-01-01T01:32:55.000Z</time>
      </trkpt>
      <trkpt lat="41.379343" lon="1.952071">
        <ele>223.4</ele>
        <time>1970-01-01T01:32:59.000Z</time>
      </trkpt>
      <trkpt lat="41.3794" lon="1.95199">
        <ele>224.8</ele>
        <time>1970-01-01T01:33:03.000Z</time>
      </trkpt>
      <trkpt lat="41.379453" lon="1.951941">
        <ele>225.6</ele>
        <time>1970-01-01T01:33:07.000Z</time>
      </trkpt>
      <trkpt lat="41.379521" lon="1.951896">
        <ele>226.2</ele>
        <time>1970-01-01T01:33:11.000Z</time>
      </trkpt>
      <trkpt lat="41.379581" lon="1.951838">
        <ele>226.8</ele>
        <time>1970-01-01T01:33:15.000Z</time>
      </trkpt>
      <trkpt lat="41.379635" lon="1.951796">
        <ele>227.2</ele>
        <time>1970-01-01T01:33:19.000Z</time>
      </trkpt>
      <trkpt lat="41.379676" lon="1.951768">
        <ele>227.8</ele>
        <time>1970-01-01T01:33:23.000Z</time>
      </trkpt>
      <trkpt lat="41.379741" lon="1.951728">
        <ele>228.6</ele>
        <time>1970-01-01T01:33:27.000Z</time>
      </trkpt>
      <trkpt lat="41.379806" lon="1.951666">
        <ele>229.4</ele>
        <time>1970-01-01T01:33:31.000Z</time>
      </trkpt>
      <trkpt lat="41.37987" lon="1.951596">
        <ele>229.8</ele>
        <time>1970-01-01T01:33:35.000Z</time>
      </trkpt>
      <trkpt lat="41.379943" lon="1.951553">
        <ele>230.4</ele>
        <time>1970-01-01T01:33:39.000Z</time>
      </trkpt>
      <trkpt lat="41.380006" lon="1.951466">
        <ele>231.0</ele>
        <time>1970-01-01T01:33:43.000Z</time>
      </trkpt>
      <trkpt lat="41.380325" lon="1.95121">
        <ele>234.0</ele>
        <time>1970-01-01T01:34:23.000Z</time>
      </trkpt>
      <trkpt lat="41.38043" lon="1.951255">
        <ele>232.6</ele>
        <time>1970-01-01T01:34:27.000Z</time>
      </trkpt>
      <trkpt lat="41.380588" lon="1.951338">
        <ele>232.8</ele>
        <time>1970-01-01T01:34:31.000Z</time>
      </trkpt>
      <trkpt lat="41.380701" lon="1.951425">
        <ele>233.2</ele>
        <time>1970-01-01T01:34:35.000Z</time>
      </trkpt>
      <trkpt lat="41.380808" lon="1.951535">
        <ele>233.4</ele>
        <time>1970-01-01T01:34:39.000Z</time>
      </trkpt>
      <trkpt lat="41.380901" lon="1.951638">
        <ele>233.8</ele>
        <time>1970-01-01T01:34:43.000Z</time>
      </trkpt>
      <trkpt lat="41.381011" lon="1.951718">
        <ele>235.0</ele>
        <time>1970-01-01T01:34:47.000Z</time>
      </trkpt>
      <trkpt lat="41.381081" lon="1.951786">
        <ele>235.2</ele>
        <time>1970-01-01T01:34:51.000Z</time>
      </trkpt>
      <trkpt lat="41.381141" lon="1.951833">
        <ele>236.6</ele>
        <time>1970-01-01T01:34:55.000Z</time>
      </trkpt>
      <trkpt lat="41.381228" lon="1.95185">
        <ele>237.2</ele>
        <time>1970-01-01T01:34:59.000Z</time>
      </trkpt>
      <trkpt lat="41.381336" lon="1.95185">
        <ele>237.6</ele>
        <time>1970-01-01T01:35:03.000Z</time>
      </trkpt>
      <trkpt lat="41.38142" lon="1.951851">
        <ele>238.6</ele>
        <time>1970-01-01T01:35:07.000Z</time>
      </trkpt>
      <trkpt lat="41.381506" lon="1.951856">
        <ele>239.4</ele>
        <time>1970-01-01T01:35:11.000Z</time>
      </trkpt>
      <trkpt lat="41.381581" lon="1.951851">
        <ele>241.0</ele>
        <time>1970-01-01T01:35:15.000Z</time>
      </trkpt>
      <trkpt lat="41.381661" lon="1.95183">
        <ele>241.6</ele>
        <time>1970-01-01T01:35:19.000Z</time>
      </trkpt>
      <trkpt lat="41.381725" lon="1.951776">
        <ele>243.0</ele>
        <time>1970-01-01T01:35:23.000Z</time>
      </trkpt>
      <trkpt lat="41.381753" lon="1.951688">
        <ele>243.8</ele>
        <time>1970-01-01T01:35:27.000Z</time>
      </trkpt>
      <trkpt lat="41.38173" lon="1.951583">
        <ele>244.8</ele>
        <time>1970-01-01T01:35:31.000Z</time>
      </trkpt>
      <trkpt lat="41.381691" lon="1.951483">
        <ele>245.0</ele>
        <time>1970-01-01T01:35:35.000Z</time>
      </trkpt>
      <trkpt lat="41.381655" lon="1.951378">
        <ele>245.4</ele>
        <time>1970-01-01T01:35:39.000Z</time>
      </trkpt>
      <trkpt lat="41.381613" lon="1.951303">
        <ele>246.0</ele>
        <time>1970-01-01T01:35:43.000Z</time>
      </trkpt>
      <trkpt lat="41.381568" lon="1.951238">
        <ele>245.8</ele>
        <time>1970-01-01T01:35:47.000Z</time>
      </trkpt>
      <trkpt lat="41.38149" lon="1.951168">
        <ele>244.6</ele>
        <time>1970-01-01T01:35:51.000Z</time>
      </trkpt>
      <trkpt lat="41.381385" lon="1.951096">
        <ele>244.8</ele>
        <time>1970-01-01T01:35:55.000Z</time>
      </trkpt>
      <trkpt lat="41.381323" lon="1.950995">
        <ele>244.6</ele>
        <time>1970-01-01T01:35:59.000Z</time>
      </trkpt>
      <trkpt lat="41.381276" lon="1.950896">
        <ele>244.4</ele>
        <time>1970-01-01T01:36:03.000Z</time>
      </trkpt>
      <trkpt lat="41.381221" lon="1.950801">
        <ele>245.6</ele>
        <time>1970-01-01T01:36:07.000Z</time>
      </trkpt>
      <trkpt lat="41.38117" lon="1.950726">
        <ele>246.0</ele>
        <time>1970-01-01T01:36:11.000Z</time>
      </trkpt>
      <trkpt lat="41.38113" lon="1.95067">
        <ele>246.6</ele>
        <time>1970-01-01T01:36:15.000Z</time>
      </trkpt>
      <trkpt lat="41.381073" lon="1.950638">
        <ele>247.2</ele>
        <time>1970-01-01T01:36:19.000Z</time>
      </trkpt>
      <trkpt lat="41.381006" lon="1.950633">
        <ele>247.8</ele>
        <time>1970-01-01T01:36:23.000Z</time>
      </trkpt>
      <trkpt lat="41.380948" lon="1.950673">
        <ele>248.8</ele>
        <time>1970-01-01T01:36:27.000Z</time>
      </trkpt>
      <trkpt lat="41.380881" lon="1.950716">
        <ele>250.0</ele>
        <time>1970-01-01T01:36:31.000Z</time>
      </trkpt>
      <trkpt lat="41.38081" lon="1.9507">
        <ele>250.4</ele>
        <time>1970-01-01T01:36:35.000Z</time>
      </trkpt>
      <trkpt lat="41.380763" lon="1.95065">
        <ele>251.4</ele>
        <time>1970-01-01T01:36:39.000Z</time>
      </trkpt>
      <trkpt lat="41.380715" lon="1.950616">
        <ele>251.4</ele>
        <time>1970-01-01T01:36:43.000Z</time>
      </trkpt>
      <trkpt lat="41.38067" lon="1.950576">
        <ele>251.4</ele>
        <time>1970-01-01T01:36:47.000Z</time>
      </trkpt>
      <trkpt lat="41.380625" lon="1.950555">
        <ele>252.6</ele>
        <time>1970-01-01T01:36:51.000Z</time>
      </trkpt>
      <trkpt lat="41.380576" lon="1.950521">
        <ele>252.8</ele>
        <time>1970-01-01T01:36:55.000Z</time>
      </trkpt>
      <trkpt lat="41.380528" lon="1.950466">
        <ele>254.6</ele>
        <time>1970-01-01T01:36:59.000Z</time>
      </trkpt>
      <trkpt lat="41.380488" lon="1.950418">
        <ele>255.0</ele>
        <time>1970-01-01T01:37:03.000Z</time>
      </trkpt>
      <trkpt lat="41.380438" lon="1.950366">
        <ele>257.4</ele>
        <time>1970-01-01T01:37:07.000Z</time>
      </trkpt>
      <trkpt lat="41.380378" lon="1.950326">
        <ele>257.6</ele>
        <time>1970-01-01T01:37:11.000Z</time>
      </trkpt>
      <trkpt lat="41.380308" lon="1.950303">
        <ele>258.2</ele>
        <time>1970-01-01T01:37:15.000Z</time>
      </trkpt>
      <trkpt lat="41.380245" lon="1.950315">
        <ele>258.8</ele>
        <time>1970-01-01T01:37:19.000Z</time>
      </trkpt>
      <trkpt lat="41.380195" lon="1.950346">
        <ele>259.4</ele>
        <time>1970-01-01T01:37:23.000Z</time>
      </trkpt>
      <trkpt lat="41.380146" lon="1.950378">
        <ele>260.0</ele>
        <time>1970-01-01T01:37:27.000Z</time>
      </trkpt>
      <trkpt lat="41.380085" lon="1.950413">
        <ele>261.0</ele>
        <time>1970-01-01T01:37:31.000Z</time>
      </trkpt>
      <trkpt lat="41.380033" lon="1.950455">
        <ele>261.4</ele>
        <time>1970-01-01T01:37:35.000Z</time>
      </trkpt>
      <trkpt lat="41.37997" lon="1.950491">
        <ele>261.8</ele>
        <time>1970-01-01T01:37:39.000Z</time>
      </trkpt>
      <trkpt lat="41.37992" lon="1.950546">
        <ele>262.2</ele>
        <time>1970-01-01T01:37:43.000Z</time>
      </trkpt>
      <trkpt lat="41.379858" lon="1.950568">
        <ele>263.6</ele>
        <time>1970-01-01T01:37:47.000Z</time>
      </trkpt>
      <trkpt lat="41.379828" lon="1.950511">
        <ele>264.4</ele>
        <time>1970-01-01T01:37:51.000Z</time>
      </trkpt>
      <trkpt lat="41.37985" lon="1.95046">
        <ele>265.2</ele>
        <time>1970-01-01T01:37:55.000Z</time>
      </trkpt>
      <trkpt lat="41.379878" lon="1.950395">
        <ele>265.6</ele>
        <time>1970-01-01T01:37:59.000Z</time>
      </trkpt>
      <trkpt lat="41.379913" lon="1.950338">
        <ele>266.4</ele>
        <time>1970-01-01T01:38:03.000Z</time>
      </trkpt>
      <trkpt lat="41.37995" lon="1.950286">
        <ele>266.8</ele>
        <time>1970-01-01T01:38:07.000Z</time>
      </trkpt>
      <trkpt lat="41.379988" lon="1.950236">
        <ele>267.4</ele>
        <time>1970-01-01T01:38:11.000Z</time>
      </trkpt>
      <trkpt lat="41.38002" lon="1.950163">
        <ele>268.8</ele>
        <time>1970-01-01T01:38:15.000Z</time>
      </trkpt>
      <trkpt lat="41.380058" lon="1.950098">
        <ele>269.0</ele>
        <time>1970-01-01T01:38:19.000Z</time>
      </trkpt>
      <trkpt lat="41.38007" lon="1.950028">
        <ele>270.6</ele>
        <time>1970-01-01T01:38:23.000Z</time>
      </trkpt>
      <trkpt lat="41.380066" lon="1.94996">
        <ele>271.2</ele>
        <time>1970-01-01T01:38:27.000Z</time>
      </trkpt>
      <trkpt lat="41.380068" lon="1.949893">
        <ele>272.0</ele>
        <time>1970-01-01T01:38:31.000Z</time>
      </trkpt>
      <trkpt lat="41.380055" lon="1.949813">
        <ele>273.0</ele>
        <time>1970-01-01T01:38:35.000Z</time>
      </trkpt>
      <trkpt lat="41.380045" lon="1.949733">
        <ele>274.0</ele>
        <time>1970-01-01T01:38:39.000Z</time>
      </trkpt>
      <trkpt lat="41.380048" lon="1.94966">
        <ele>274.8</ele>
        <time>1970-01-01T01:38:43.000Z</time>
      </trkpt>
      <trkpt lat="41.380038" lon="1.949583">
        <ele>275.2</ele>
        <time>1970-01-01T01:38:47.000Z</time>
      </trkpt>
      <trkpt lat="41.380031" lon="1.949503">
        <ele>276.6</ele>
        <time>1970-01-01T01:38:51.000Z</time>
      </trkpt>
      <trkpt lat="41.380035" lon="1.949426">
        <ele>277.2</ele>
        <time>1970-01-01T01:38:55.000Z</time>
      </trkpt>
      <trkpt lat="41.380041" lon="1.949351">
        <ele>278.0</ele>
        <time>1970-01-01T01:38:59.000Z</time>
      </trkpt>
      <trkpt lat="41.380053" lon="1.949278">
        <ele>279.6</ele>
        <time>1970-01-01T01:39:03.000Z</time>
      </trkpt>
      <trkpt lat="41.380048" lon="1.949211">
        <ele>280.0</ele>
        <time>1970-01-01T01:39:07.000Z</time>
      </trkpt>
      <trkpt lat="41.38004" lon="1.949136">
        <ele>281.2</ele>
        <time>1970-01-01T01:39:11.000Z</time>
      </trkpt>
      <trkpt lat="41.380041" lon="1.949066">
        <ele>281.8</ele>
        <time>1970-01-01T01:39:15.000Z</time>
      </trkpt>
      <trkpt lat="41.380018" lon="1.948993">
        <ele>282.6</ele>
        <time>1970-01-01T01:39:19.000Z</time>
      </trkpt>
      <trkpt lat="41.379998" lon="1.94892">
        <ele>282.6</ele>
        <time>1970-01-01T01:39:23.000Z</time>
      </trkpt>
      <trkpt lat="41.379975" lon="1.948843">
        <ele>283.8</ele>
        <time>1970-01-01T01:39:27.000Z</time>
      </trkpt>
      <trkpt lat="41.379943" lon="1.948791">
        <ele>284.6</ele>
        <time>1970-01-01T01:39:31.000Z</time>
      </trkpt>
      <trkpt lat="41.379925" lon="1.948723">
        <ele>285.0</ele>
        <time>1970-01-01T01:39:35.000Z</time>
      </trkpt>
      <trkpt lat="41.379903" lon="1.948646">
        <ele>285.2</ele>
        <time>1970-01-01T01:39:39.000Z</time>
      </trkpt>
      <trkpt lat="41.37988" lon="1.948563">
        <ele>284.8</ele>
        <time>1970-01-01T01:39:43.000Z</time>
      </trkpt>
      <trkpt lat="41.379855" lon="1.948458">
        <ele>284.8</ele>
        <time>1970-01-01T01:39:47.000Z</time>
      </trkpt>
      <trkpt lat="41.379845" lon="1.948341">
        <ele>285.4</ele>
        <time>1970-01-01T01:39:51.000Z</time>
      </trkpt>
      <trkpt lat="41.37983" lon="1.948223">
        <ele>286.4</ele>
        <time>1970-01-01T01:39:55.000Z</time>
      </trkpt>
      <trkpt lat="41.379846" lon="1.948103">
        <ele>286.6</ele>
        <time>1970-01-01T01:39:59.000Z</time>
      </trkpt>
      <trkpt lat="41.379875" lon="1.947953">
        <ele>286.6</ele>
        <time>1970-01-01T01:40:03.000Z</time>
      </trkpt>
      <trkpt lat="41.379888" lon="1.947821">
        <ele>286.4</ele>
        <time>1970-01-01T01:40:07.000Z</time>
      </trkpt>
      <trkpt lat="41.379905" lon="1.947653">
        <ele>285.2</ele>
        <time>1970-01-01T01:40:11.000Z</time>
      </trkpt>
      <trkpt lat="41.379888" lon="1.947445">
        <ele>285.6</ele>
        <time>1970-01-01T01:40:15.000Z</time>
      </trkpt>
      <trkpt lat="41.379856" lon="1.947223">
        <ele>285.6</ele>
        <time>1970-01-01T01:40:19.000Z</time>
      </trkpt>
      <trkpt lat="41.379793" lon="1.947026">
        <ele>285.0</ele>
        <time>1970-01-01T01:40:23.000Z</time>
      </trkpt>
      <trkpt lat="41.37969" lon="1.946876">
        <ele>286.2</ele>
        <time>1970-01-01T01:40:27.000Z</time>
      </trkpt>
      <trkpt lat="41.379603" lon="1.946771">
        <ele>286.4</ele>
        <time>1970-01-01T01:40:31.000Z</time>
      </trkpt>
      <trkpt lat="41.379503" lon="1.946695">
        <ele>286.4</ele>
        <time>1970-01-01T01:40:35.000Z</time>
      </trkpt>
      <trkpt lat="41.379403" lon="1.94661">
        <ele>288.4</ele>
        <time>1970-01-01T01:40:39.000Z</time>
      </trkpt>
      <trkpt lat="41.37931" lon="1.946606">
        <ele>289.0</ele>
        <time>1970-01-01T01:40:43.000Z</time>
      </trkpt>
      <trkpt lat="41.379266" lon="1.946668">
        <ele>290.4</ele>
        <time>1970-01-01T01:40:47.000Z</time>
      </trkpt>
      <trkpt lat="41.379231" lon="1.94674">
        <ele>291.6</ele>
        <time>1970-01-01T01:40:51.000Z</time>
      </trkpt>
      <trkpt lat="41.37919" lon="1.9468">
        <ele>292.4</ele>
        <time>1970-01-01T01:40:55.000Z</time>
      </trkpt>
      <trkpt lat="41.379135" lon="1.946843">
        <ele>292.8</ele>
        <time>1970-01-01T01:40:59.000Z</time>
      </trkpt>
      <trkpt lat="41.379061" lon="1.946861">
        <ele>293.8</ele>
        <time>1970-01-01T01:41:03.000Z</time>
      </trkpt>
      <trkpt lat="41.378975" lon="1.946841">
        <ele>294.6</ele>
        <time>1970-01-01T01:41:07.000Z</time>
      </trkpt>
      <trkpt lat="41.378898" lon="1.946801">
        <ele>295.0</ele>
        <time>1970-01-01T01:41:11.000Z</time>
      </trkpt>
      <trkpt lat="41.378831" lon="1.946738">
        <ele>295.0</ele>
        <time>1970-01-01T01:41:15.000Z</time>
      </trkpt>
      <trkpt lat="41.378758" lon="1.946665">
        <ele>295.6</ele>
        <time>1970-01-01T01:41:19.000Z</time>
      </trkpt>
      <trkpt lat="41.378695" lon="1.94659">
        <ele>297.0</ele>
        <time>1970-01-01T01:41:23.000Z</time>
      </trkpt>
      <trkpt lat="41.378653" lon="1.946528">
        <ele>298.2</ele>
        <time>1970-01-01T01:41:27.000Z</time>
      </trkpt>
      <trkpt lat="41.378598" lon="1.946486">
        <ele>298.0</ele>
        <time>1970-01-01T01:41:31.000Z</time>
      </trkpt>
      <trkpt lat="41.378531" lon="1.946453">
        <ele>298.0</ele>
        <time>1970-01-01T01:41:35.000Z</time>
      </trkpt>
      <trkpt lat="41.37848" lon="1.946428">
        <ele>298.6</ele>
        <time>1970-01-01T01:41:39.000Z</time>
      </trkpt>
      <trkpt lat="41.378425" lon="1.946405">
        <ele>300.4</ele>
        <time>1970-01-01T01:41:43.000Z</time>
      </trkpt>
      <trkpt lat="41.378366" lon="1.946375">
        <ele>301.4</ele>
        <time>1970-01-01T01:41:47.000Z</time>
      </trkpt>
      <trkpt lat="41.378306" lon="1.946341">
        <ele>303.6</ele>
        <time>1970-01-01T01:41:51.000Z</time>
      </trkpt>
      <trkpt lat="41.37826" lon="1.94631">
        <ele>304.4</ele>
        <time>1970-01-01T01:41:55.000Z</time>
      </trkpt>
      <trkpt lat="41.378201" lon="1.946265">
        <ele>304.8</ele>
        <time>1970-01-01T01:41:59.000Z</time>
      </trkpt>
      <trkpt lat="41.378148" lon="1.946223">
        <ele>306.2</ele>
        <time>1970-01-01T01:42:03.000Z</time>
      </trkpt>
      <trkpt lat="41.378103" lon="1.946183">
        <ele>307.4</ele>
        <time>1970-01-01T01:42:07.000Z</time>
      </trkpt>
      <trkpt lat="41.378063" lon="1.946131">
        <ele>307.4</ele>
        <time>1970-01-01T01:42:11.000Z</time>
      </trkpt>
      <trkpt lat="41.378036" lon="1.946071">
        <ele>307.8</ele>
        <time>1970-01-01T01:42:15.000Z</time>
      </trkpt>
      <trkpt lat="41.378018" lon="1.945998">
        <ele>308.4</ele>
        <time>1970-01-01T01:42:19.000Z</time>
      </trkpt>
      <trkpt lat="41.377986" lon="1.945931">
        <ele>308.6</ele>
        <time>1970-01-01T01:42:23.000Z</time>
      </trkpt>
      <trkpt lat="41.37796" lon="1.945848">
        <ele>310.0</ele>
        <time>1970-01-01T01:42:27.000Z</time>
      </trkpt>
      <trkpt lat="41.377938" lon="1.945773">
        <ele>310.2</ele>
        <time>1970-01-01T01:42:31.000Z</time>
      </trkpt>
      <trkpt lat="41.37791" lon="1.945696">
        <ele>310.2</ele>
        <time>1970-01-01T01:42:35.000Z</time>
      </trkpt>
      <trkpt lat="41.377861" lon="1.94564">
        <ele>311.4</ele>
        <time>1970-01-01T01:42:39.000Z</time>
      </trkpt>
      <trkpt lat="41.37781" lon="1.94559">
        <ele>312.0</ele>
        <time>1970-01-01T01:42:43.000Z</time>
      </trkpt>
      <trkpt lat="41.377753" lon="1.945558">
        <ele>311.8</ele>
        <time>1970-01-01T01:42:47.000Z</time>
      </trkpt>
      <trkpt lat="41.377693" lon="1.945491">
        <ele>311.2</ele>
        <time>1970-01-01T01:42:51.000Z</time>
      </trkpt>
      <trkpt lat="41.377523" lon="1.94544">
        <ele>310.0</ele>
        <time>1970-01-01T01:42:55.000Z</time>
      </trkpt>
      <trkpt lat="41.377288" lon="1.945475">
        <ele>308.4</ele>
        <time>1970-01-01T01:42:59.000Z</time>
      </trkpt>
      <trkpt lat="41.37705" lon="1.945571">
        <ele>306.8</ele>
        <time>1970-01-01T01:43:03.000Z</time>
      </trkpt>
      <trkpt lat="41.37688" lon="1.94579">
        <ele>305.2</ele>
        <time>1970-01-01T01:43:07.000Z</time>
      </trkpt>
      <trkpt lat="41.376861" lon="1.946161">
        <ele>302.8</ele>
        <time>1970-01-01T01:43:11.000Z</time>
      </trkpt>
      <trkpt lat="41.376883" lon="1.9466">
        <ele>301.2</ele>
        <time>1970-01-01T01:43:15.000Z</time>
      </trkpt>
      <trkpt lat="41.376865" lon="1.947036">
        <ele>300.6</ele>
        <time>1970-01-01T01:43:19.000Z</time>
      </trkpt>
      <trkpt lat="41.376726" lon="1.94739">
        <ele>301.2</ele>
        <time>1970-01-01T01:43:23.000Z</time>
      </trkpt>
      <trkpt lat="41.376655" lon="1.947725">
        <ele>301.6</ele>
        <time>1970-01-01T01:43:27.000Z</time>
      </trkpt>
      <trkpt lat="41.376545" lon="1.947993">
        <ele>302.4</ele>
        <time>1970-01-01T01:43:31.000Z</time>
      </trkpt>
      <trkpt lat="41.376413" lon="1.948201">
        <ele>303.8</ele>
        <time>1970-01-01T01:43:35.000Z</time>
      </trkpt>
      <trkpt lat="41.376271" lon="1.948336">
        <ele>305.6</ele>
        <time>1970-01-01T01:43:39.000Z</time>
      </trkpt>
      <trkpt lat="41.37611" lon="1.948378">
        <ele>306.0</ele>
        <time>1970-01-01T01:43:43.000Z</time>
      </trkpt>
      <trkpt lat="41.375943" lon="1.948315">
        <ele>305.4</ele>
        <time>1970-01-01T01:43:47.000Z</time>
      </trkpt>
      <trkpt lat="41.375753" lon="1.948185">
        <ele>304.2</ele>
        <time>1970-01-01T01:43:51.000Z</time>
      </trkpt>
      <trkpt lat="41.375548" lon="1.948055">
        <ele>303.6</ele>
        <time>1970-01-01T01:43:55.000Z</time>
      </trkpt>
      <trkpt lat="41.375345" lon="1.948161">
        <ele>301.8</ele>
        <time>1970-01-01T01:43:59.000Z</time>
      </trkpt>
      <trkpt lat="41.375255" lon="1.948531">
        <ele>298.0</ele>
        <time>1970-01-01T01:44:03.000Z</time>
      </trkpt>
      <trkpt lat="41.375155" lon="1.949006">
        <ele>295.4</ele>
        <time>1970-01-01T01:44:07.000Z</time>
      </trkpt>
      <trkpt lat="41.374948" lon="1.949473">
        <ele>292.6</ele>
        <time>1970-01-01T01:44:11.000Z</time>
      </trkpt>
      <trkpt lat="41.374598" lon="1.949778">
        <ele>292.0</ele>
        <time>1970-01-01T01:44:15.000Z</time>
      </trkpt>
      <trkpt lat="41.37428" lon="1.949958">
        <ele>294.8</ele>
        <time>1970-01-01T01:44:19.000Z</time>
      </trkpt>
      <trkpt lat="41.374073" lon="1.950001">
        <ele>296.2</ele>
        <time>1970-01-01T01:44:23.000Z</time>
      </trkpt>
      <trkpt lat="41.3739" lon="1.950018">
        <ele>296.8</ele>
        <time>1970-01-01T01:44:27.000Z</time>
      </trkpt>
      <trkpt lat="41.373746" lon="1.950063">
        <ele>297.4</ele>
        <time>1970-01-01T01:44:31.000Z</time>
      </trkpt>
      <trkpt lat="41.373635" lon="1.950065">
        <ele>298.6</ele>
        <time>1970-01-01T01:44:35.000Z</time>
      </trkpt>
      <trkpt lat="41.373568" lon="1.950053">
        <ele>299.8</ele>
        <time>1970-01-01T01:44:39.000Z</time>
      </trkpt>
      <trkpt lat="41.37351" lon="1.95004">
        <ele>301.0</ele>
        <time>1970-01-01T01:44:43.000Z</time>
      </trkpt>
      <trkpt lat="41.373445" lon="1.950006">
        <ele>302.4</ele>
        <time>1970-01-01T01:44:47.000Z</time>
      </trkpt>
      <trkpt lat="41.373381" lon="1.949978">
        <ele>303.4</ele>
        <time>1970-01-01T01:44:51.000Z</time>
      </trkpt>
      <trkpt lat="41.373318" lon="1.949948">
        <ele>304.8</ele>
        <time>1970-01-01T01:44:55.000Z</time>
      </trkpt>
      <trkpt lat="41.373255" lon="1.949928">
        <ele>305.8</ele>
        <time>1970-01-01T01:44:59.000Z</time>
      </trkpt>
      <trkpt lat="41.373193" lon="1.949883">
        <ele>306.6</ele>
        <time>1970-01-01T01:45:03.000Z</time>
      </trkpt>
      <trkpt lat="41.37313" lon="1.949863">
        <ele>308.2</ele>
        <time>1970-01-01T01:45:07.000Z</time>
      </trkpt>
      <trkpt lat="41.373068" lon="1.94984">
        <ele>309.0</ele>
        <time>1970-01-01T01:45:11.000Z</time>
      </trkpt>
      <trkpt lat="41.373006" lon="1.949816">
        <ele>309.6</ele>
        <time>1970-01-01T01:45:15.000Z</time>
      </trkpt>
      <trkpt lat="41.372953" lon="1.949781">
        <ele>311.2</ele>
        <time>1970-01-01T01:45:19.000Z</time>
      </trkpt>
      <trkpt lat="41.372898" lon="1.94975">
        <ele>311.8</ele>
        <time>1970-01-01T01:45:23.000Z</time>
      </trkpt>
      <trkpt lat="41.372843" lon="1.949715">
        <ele>312.8</ele>
        <time>1970-01-01T01:45:27.000Z</time>
      </trkpt>
      <trkpt lat="41.372788" lon="1.949681">
        <ele>313.6</ele>
        <time>1970-01-01T01:45:31.000Z</time>
      </trkpt>
      <trkpt lat="41.372731" lon="1.949665">
        <ele>314.2</ele>
        <time>1970-01-01T01:45:35.000Z</time>
      </trkpt>
      <trkpt lat="41.372683" lon="1.94963">
        <ele>315.2</ele>
        <time>1970-01-01T01:45:39.000Z</time>
      </trkpt>
      <trkpt lat="41.372628" lon="1.949608">
        <ele>316.0</ele>
        <time>1970-01-01T01:45:43.000Z</time>
      </trkpt>
      <trkpt lat="41.372565" lon="1.949595">
        <ele>317.0</ele>
        <time>1970-01-01T01:45:47.000Z</time>
      </trkpt>
      <trkpt lat="41.372508" lon="1.949565">
        <ele>317.2</ele>
        <time>1970-01-01T01:45:51.000Z</time>
      </trkpt>
      <trkpt lat="41.372451" lon="1.949545">
        <ele>318.0</ele>
        <time>1970-01-01T01:45:55.000Z</time>
      </trkpt>
      <trkpt lat="41.372406" lon="1.94953">
        <ele>318.4</ele>
        <time>1970-01-01T01:45:59.000Z</time>
      </trkpt>
      <trkpt lat="41.372361" lon="1.94952">
        <ele>319.2</ele>
        <time>1970-01-01T01:46:03.000Z</time>
      </trkpt>
      <trkpt lat="41.372318" lon="1.949495">
        <ele>319.6</ele>
        <time>1970-01-01T01:46:07.000Z</time>
      </trkpt>
      <trkpt lat="41.37227" lon="1.949463">
        <ele>320.6</ele>
        <time>1970-01-01T01:46:11.000Z</time>
      </trkpt>
      <trkpt lat="41.372218" lon="1.949445">
        <ele>321.2</ele>
        <time>1970-01-01T01:46:15.000Z</time>
      </trkpt>
      <trkpt lat="41.372168" lon="1.94944">
        <ele>322.0</ele>
        <time>1970-01-01T01:46:19.000Z</time>
      </trkpt>
      <trkpt lat="41.37213" lon="1.949398">
        <ele>322.4</ele>
        <time>1970-01-01T01:46:23.000Z</time>
      </trkpt>
      <trkpt lat="41.372085" lon="1.949378">
        <ele>323.4</ele>
        <time>1970-01-01T01:46:27.000Z</time>
      </trkpt>
      <trkpt lat="41.372035" lon="1.94936">
        <ele>324.0</ele>
        <time>1970-01-01T01:46:31.000Z</time>
      </trkpt>
      <trkpt lat="41.371985" lon="1.94933">
        <ele>324.6</ele>
        <time>1970-01-01T01:46:35.000Z</time>
      </trkpt>
      <trkpt lat="41.371936" lon="1.949313">
        <ele>325.6</ele>
        <time>1970-01-01T01:46:39.000Z</time>
      </trkpt>
      <trkpt lat="41.371886" lon="1.949316">
        <ele>326.2</ele>
        <time>1970-01-01T01:46:43.000Z</time>
      </trkpt>
      <trkpt lat="41.37183" lon="1.949293">
        <ele>326.6</ele>
        <time>1970-01-01T01:46:47.000Z</time>
      </trkpt>
      <trkpt lat="41.371775" lon="1.949265">
        <ele>327.2</ele>
        <time>1970-01-01T01:46:51.000Z</time>
      </trkpt>
      <trkpt lat="41.371715" lon="1.949228">
        <ele>327.8</ele>
        <time>1970-01-01T01:46:55.000Z</time>
      </trkpt>
      <trkpt lat="41.371656" lon="1.949181">
        <ele>328.2</ele>
        <time>1970-01-01T01:46:59.000Z</time>
      </trkpt>
      <trkpt lat="41.371595" lon="1.949108">
        <ele>328.0</ele>
        <time>1970-01-01T01:47:03.000Z</time>
      </trkpt>
      <trkpt lat="41.37154" lon="1.949001">
        <ele>327.8</ele>
        <time>1970-01-01T01:47:07.000Z</time>
      </trkpt>
      <trkpt lat="41.371495" lon="1.948855">
        <ele>327.4</ele>
        <time>1970-01-01T01:47:11.000Z</time>
      </trkpt>
      <trkpt lat="41.371458" lon="1.948658">
        <ele>326.8</ele>
        <time>1970-01-01T01:47:15.000Z</time>
      </trkpt>
      <trkpt lat="41.371438" lon="1.94839">
        <ele>325.8</ele>
        <time>1970-01-01T01:47:19.000Z</time>
      </trkpt>
      <trkpt lat="41.371426" lon="1.948076">
        <ele>324.8</ele>
        <time>1970-01-01T01:47:23.000Z</time>
      </trkpt>
      <trkpt lat="41.371355" lon="1.947806">
        <ele>326.2</ele>
        <time>1970-01-01T01:47:27.000Z</time>
      </trkpt>
      <trkpt lat="41.371191" lon="1.947738">
        <ele>328.4</ele>
        <time>1970-01-01T01:47:31.000Z</time>
      </trkpt>
      <trkpt lat="41.371063" lon="1.947675">
        <ele>328.8</ele>
        <time>1970-01-01T01:47:35.000Z</time>
      </trkpt>
      <trkpt lat="41.370936" lon="1.947616">
        <ele>330.8</ele>
        <time>1970-01-01T01:47:39.000Z</time>
      </trkpt>
      <trkpt lat="41.370835" lon="1.947521">
        <ele>332.0</ele>
        <time>1970-01-01T01:47:43.000Z</time>
      </trkpt>
      <trkpt lat="41.370721" lon="1.947411">
        <ele>332.6</ele>
        <time>1970-01-01T01:47:47.000Z</time>
      </trkpt>
      <trkpt lat="41.370595" lon="1.947366">
        <ele>332.6</ele>
        <time>1970-01-01T01:47:51.000Z</time>
      </trkpt>
      <trkpt lat="41.370458" lon="1.9473">
        <ele>331.8</ele>
        <time>1970-01-01T01:47:55.000Z</time>
      </trkpt>
      <trkpt lat="41.370296" lon="1.947156">
        <ele>331.8</ele>
        <time>1970-01-01T01:47:59.000Z</time>
      </trkpt>
      <trkpt lat="41.37013" lon="1.946985">
        <ele>331.0</ele>
        <time>1970-01-01T01:48:03.000Z</time>
      </trkpt>
      <trkpt lat="41.369963" lon="1.946781">
        <ele>331.4</ele>
        <time>1970-01-01T01:48:07.000Z</time>
      </trkpt>
      <trkpt lat="41.369818" lon="1.946566">
        <ele>331.6</ele>
        <time>1970-01-01T01:48:11.000Z</time>
      </trkpt>
      <trkpt lat="41.369685" lon="1.946363">
        <ele>331.4</ele>
        <time>1970-01-01T01:48:15.000Z</time>
      </trkpt>
      <trkpt lat="41.369575" lon="1.946191">
        <ele>331.8</ele>
        <time>1970-01-01T01:48:19.000Z</time>
      </trkpt>
      <trkpt lat="41.369468" lon="1.946043">
        <ele>330.4</ele>
        <time>1970-01-01T01:48:23.000Z</time>
      </trkpt>
      <trkpt lat="41.36938" lon="1.94591">
        <ele>329.4</ele>
        <time>1970-01-01T01:48:27.000Z</time>
      </trkpt>
      <trkpt lat="41.369278" lon="1.94589">
        <ele>330.6</ele>
        <time>1970-01-01T01:48:31.000Z</time>
      </trkpt>
      <trkpt lat="41.369191" lon="1.945921">
        <ele>332.4</ele>
        <time>1970-01-01T01:48:35.000Z</time>
      </trkpt>
      <trkpt lat="41.369108" lon="1.94597">
        <ele>334.2</ele>
        <time>1970-01-01T01:48:39.000Z</time>
      </trkpt>
      <trkpt lat="41.369035" lon="1.946013">
        <ele>335.0</ele>
        <time>1970-01-01T01:48:43.000Z</time>
      </trkpt>
      <trkpt lat="41.36896" lon="1.946066">
        <ele>335.8</ele>
        <time>1970-01-01T01:48:47.000Z</time>
      </trkpt>
      <trkpt lat="41.368896" lon="1.946148">
        <ele>336.4</ele>
        <time>1970-01-01T01:48:51.000Z</time>
      </trkpt>
      <trkpt lat="41.36887" lon="1.946256">
        <ele>337.6</ele>
        <time>1970-01-01T01:48:55.000Z</time>
      </trkpt>
      <trkpt lat="41.368856" lon="1.946366">
        <ele>337.6</ele>
        <time>1970-01-01T01:48:59.000Z</time>
      </trkpt>
      <trkpt lat="41.368866" lon="1.946478">
        <ele>338.2</ele>
        <time>1970-01-01T01:49:03.000Z</time>
      </trkpt>
      <trkpt lat="41.368881" lon="1.946595">
        <ele>338.4</ele>
        <time>1970-01-01T01:49:07.000Z</time>
      </trkpt>
      <trkpt lat="41.368865" lon="1.946708">
        <ele>339.2</ele>
        <time>1970-01-01T01:49:11.000Z</time>
      </trkpt>
      <trkpt lat="41.368826" lon="1.946791">
        <ele>340.8</ele>
        <time>1970-01-01T01:49:15.000Z</time>
      </trkpt>
      <trkpt lat="41.368788" lon="1.946878">
        <ele>341.2</ele>
        <time>1970-01-01T01:49:19.000Z</time>
      </trkpt>
      <trkpt lat="41.368766" lon="1.946963">
        <ele>342.8</ele>
        <time>1970-01-01T01:49:23.000Z</time>
      </trkpt>
      <trkpt lat="41.368751" lon="1.947051">
        <ele>344.4</ele>
        <time>1970-01-01T01:49:27.000Z</time>
      </trkpt>
      <trkpt lat="41.368751" lon="1.947136">
        <ele>345.0</ele>
        <time>1970-01-01T01:49:31.000Z</time>
      </trkpt>
      <trkpt lat="41.36874" lon="1.947218">
        <ele>346.6</ele>
        <time>1970-01-01T01:49:35.000Z</time>
      </trkpt>
      <trkpt lat="41.368725" lon="1.947295">
        <ele>348.2</ele>
        <time>1970-01-01T01:49:39.000Z</time>
      </trkpt>
      <trkpt lat="41.368716" lon="1.947373">
        <ele>349.6</ele>
        <time>1970-01-01T01:49:43.000Z</time>
      </trkpt>
      <trkpt lat="41.36871" lon="1.947455">
        <ele>350.6</ele>
        <time>1970-01-01T01:49:47.000Z</time>
      </trkpt>
      <trkpt lat="41.3687" lon="1.94753">
        <ele>351.4</ele>
        <time>1970-01-01T01:49:51.000Z</time>
      </trkpt>
      <trkpt lat="41.368698" lon="1.947611">
        <ele>352.2</ele>
        <time>1970-01-01T01:49:55.000Z</time>
      </trkpt>
      <trkpt lat="41.3687" lon="1.947691">
        <ele>353.2</ele>
        <time>1970-01-01T01:49:59.000Z</time>
      </trkpt>
      <trkpt lat="41.368708" lon="1.947768">
        <ele>353.8</ele>
        <time>1970-01-01T01:50:03.000Z</time>
      </trkpt>
      <trkpt lat="41.368726" lon="1.947841">
        <ele>355.2</ele>
        <time>1970-01-01T01:50:07.000Z</time>
      </trkpt>
      <trkpt lat="41.368745" lon="1.947916">
        <ele>354.4</ele>
        <time>1970-01-01T01:50:11.000Z</time>
      </trkpt>
      <trkpt lat="41.368738" lon="1.947998">
        <ele>355.6</ele>
        <time>1970-01-01T01:50:15.000Z</time>
      </trkpt>
      <trkpt lat="41.368731" lon="1.948078">
        <ele>355.6</ele>
        <time>1970-01-01T01:50:19.000Z</time>
      </trkpt>
      <trkpt lat="41.368743" lon="1.948176">
        <ele>356.2</ele>
        <time>1970-01-01T01:50:23.000Z</time>
      </trkpt>
      <trkpt lat="41.368753" lon="1.94829">
        <ele>356.2</ele>
        <time>1970-01-01T01:50:27.000Z</time>
      </trkpt>
      <trkpt lat="41.368761" lon="1.948401">
        <ele>356.2</ele>
        <time>1970-01-01T01:50:31.000Z</time>
      </trkpt>
      <trkpt lat="41.368775" lon="1.94852">
        <ele>356.4</ele>
        <time>1970-01-01T01:50:35.000Z</time>
      </trkpt>
      <trkpt lat="41.368776" lon="1.948636">
        <ele>355.8</ele>
        <time>1970-01-01T01:50:39.000Z</time>
      </trkpt>
      <trkpt lat="41.368775" lon="1.948763">
        <ele>355.6</ele>
        <time>1970-01-01T01:50:43.000Z</time>
      </trkpt>
      <trkpt lat="41.368746" lon="1.94892">
        <ele>355.8</ele>
        <time>1970-01-01T01:50:47.000Z</time>
      </trkpt>
      <trkpt lat="41.368651" lon="1.948978">
        <ele>355.2</ele>
        <time>1970-01-01T01:50:51.000Z</time>
      </trkpt>
      <trkpt lat="41.368513" lon="1.948938">
        <ele>353.8</ele>
        <time>1970-01-01T01:50:55.000Z</time>
      </trkpt>
      <trkpt lat="41.368336" lon="1.948866">
        <ele>353.0</ele>
        <time>1970-01-01T01:50:59.000Z</time>
      </trkpt>
      <trkpt lat="41.368158" lon="1.948856">
        <ele>353.8</ele>
        <time>1970-01-01T01:51:03.000Z</time>
      </trkpt>
      <trkpt lat="41.368038" lon="1.948893">
        <ele>354.8</ele>
        <time>1970-01-01T01:51:07.000Z</time>
      </trkpt>
      <trkpt lat="41.367928" lon="1.948938">
        <ele>356.0</ele>
        <time>1970-01-01T01:51:11.000Z</time>
      </trkpt>
      <trkpt lat="41.367838" lon="1.949021">
        <ele>355.2</ele>
        <time>1970-01-01T01:51:15.000Z</time>
      </trkpt>
      <trkpt lat="41.367786" lon="1.949198">
        <ele>353.8</ele>
        <time>1970-01-01T01:51:19.000Z</time>
      </trkpt>
      <trkpt lat="41.367781" lon="1.949371">
        <ele>352.8</ele>
        <time>1970-01-01T01:51:23.000Z</time>
      </trkpt>
      <trkpt lat="41.367773" lon="1.949516">
        <ele>351.2</ele>
        <time>1970-01-01T01:51:27.000Z</time>
      </trkpt>
      <trkpt lat="41.367765" lon="1.94965">
        <ele>350.0</ele>
        <time>1970-01-01T01:51:31.000Z</time>
      </trkpt>
      <trkpt lat="41.36776" lon="1.949795">
        <ele>349.4</ele>
        <time>1970-01-01T01:51:35.000Z</time>
      </trkpt>
      <trkpt lat="41.367748" lon="1.949876">
        <ele>347.8</ele>
        <time>1970-01-01T01:51:39.000Z</time>
      </trkpt>
      <trkpt lat="41.367713" lon="1.949948">
        <ele>347.8</ele>
        <time>1970-01-01T01:51:43.000Z</time>
      </trkpt>
      <trkpt lat="41.367658" lon="1.95002">
        <ele>346.6</ele>
        <time>1970-01-01T01:51:47.000Z</time>
      </trkpt>
      <trkpt lat="41.367615" lon="1.95009">
        <ele>346.2</ele>
        <time>1970-01-01T01:51:51.000Z</time>
      </trkpt>
      <trkpt lat="41.367565" lon="1.950151">
        <ele>346.4</ele>
        <time>1970-01-01T01:51:55.000Z</time>
      </trkpt>
      <trkpt lat="41.367511" lon="1.950196">
        <ele>346.8</ele>
        <time>1970-01-01T01:51:59.000Z</time>
      </trkpt>
      <trkpt lat="41.367478" lon="1.950156">
        <ele>348.0</ele>
        <time>1970-01-01T01:52:03.000Z</time>
      </trkpt>
      <trkpt lat="41.367465" lon="1.950061">
        <ele>349.6</ele>
        <time>1970-01-01T01:52:07.000Z</time>
      </trkpt>
      <trkpt lat="41.367436" lon="1.949963">
        <ele>350.8</ele>
        <time>1970-01-01T01:52:11.000Z</time>
      </trkpt>
      <trkpt lat="41.367401" lon="1.949875">
        <ele>351.0</ele>
        <time>1970-01-01T01:52:15.000Z</time>
      </trkpt>
      <trkpt lat="41.367356" lon="1.949785">
        <ele>351.6</ele>
        <time>1970-01-01T01:52:19.000Z</time>
      </trkpt>
      <trkpt lat="41.367311" lon="1.949701">
        <ele>352.0</ele>
        <time>1970-01-01T01:52:23.000Z</time>
      </trkpt>
      <trkpt lat="41.367268" lon="1.949645">
        <ele>352.6</ele>
        <time>1970-01-01T01:52:27.000Z</time>
      </trkpt>
      <trkpt lat="41.367221" lon="1.949605">
        <ele>353.4</ele>
        <time>1970-01-01T01:52:31.000Z</time>
      </trkpt>
      <trkpt lat="41.367171" lon="1.949576">
        <ele>354.6</ele>
        <time>1970-01-01T01:52:35.000Z</time>
      </trkpt>
      <trkpt lat="41.36713" lon="1.949566">
        <ele>355.4</ele>
        <time>1970-01-01T01:52:39.000Z</time>
      </trkpt>
      <trkpt lat="41.367078" lon="1.949556">
        <ele>355.8</ele>
        <time>1970-01-01T01:52:43.000Z</time>
      </trkpt>
      <trkpt lat="41.36703" lon="1.949535">
        <ele>356.0</ele>
        <time>1970-01-01T01:52:47.000Z</time>
      </trkpt>
      <trkpt lat="41.366978" lon="1.949521">
        <ele>356.2</ele>
        <time>1970-01-01T01:52:51.000Z</time>
      </trkpt>
      <trkpt lat="41.366916" lon="1.949513">
        <ele>356.8</ele>
        <time>1970-01-01T01:52:55.000Z</time>
      </trkpt>
      <trkpt lat="41.366853" lon="1.949525">
        <ele>357.0</ele>
        <time>1970-01-01T01:52:59.000Z</time>
      </trkpt>
      <trkpt lat="41.366785" lon="1.949543">
        <ele>357.0</ele>
        <time>1970-01-01T01:53:03.000Z</time>
      </trkpt>
      <trkpt lat="41.366691" lon="1.949555">
        <ele>356.8</ele>
        <time>1970-01-01T01:53:07.000Z</time>
      </trkpt>
      <trkpt lat="41.366586" lon="1.949556">
        <ele>356.8</ele>
        <time>1970-01-01T01:53:11.000Z</time>
      </trkpt>
      <trkpt lat="41.366485" lon="1.94953">
        <ele>357.0</ele>
        <time>1970-01-01T01:53:15.000Z</time>
      </trkpt>
      <trkpt lat="41.36646" lon="1.949405">
        <ele>357.8</ele>
        <time>1970-01-01T01:53:19.000Z</time>
      </trkpt>
      <trkpt lat="41.366446" lon="1.949273">
        <ele>358.2</ele>
        <time>1970-01-01T01:53:23.000Z</time>
      </trkpt>
      <trkpt lat="41.366426" lon="1.949156">
        <ele>359.2</ele>
        <time>1970-01-01T01:53:27.000Z</time>
      </trkpt>
      <trkpt lat="41.36641" lon="1.949041">
        <ele>359.0</ele>
        <time>1970-01-01T01:53:31.000Z</time>
      </trkpt>
      <trkpt lat="41.36637" lon="1.94893">
        <ele>360.0</ele>
        <time>1970-01-01T01:53:35.000Z</time>
      </trkpt>
      <trkpt lat="41.366308" lon="1.94884">
        <ele>360.8</ele>
        <time>1970-01-01T01:53:39.000Z</time>
      </trkpt>
      <trkpt lat="41.366238" lon="1.94877">
        <ele>361.8</ele>
        <time>1970-01-01T01:53:43.000Z</time>
      </trkpt>
      <trkpt lat="41.366165" lon="1.948706">
        <ele>361.6</ele>
        <time>1970-01-01T01:53:47.000Z</time>
      </trkpt>
      <trkpt lat="41.366088" lon="1.948665">
        <ele>362.0</ele>
        <time>1970-01-01T01:53:51.000Z</time>
      </trkpt>
      <trkpt lat="41.366005" lon="1.94866">
        <ele>362.6</ele>
        <time>1970-01-01T01:53:55.000Z</time>
      </trkpt>
      <trkpt lat="41.365935" lon="1.948723">
        <ele>363.2</ele>
        <time>1970-01-01T01:53:59.000Z</time>
      </trkpt>
      <trkpt lat="41.36588" lon="1.948811">
        <ele>363.8</ele>
        <time>1970-01-01T01:54:03.000Z</time>
      </trkpt>
      <trkpt lat="41.365823" lon="1.948893">
        <ele>364.2</ele>
        <time>1970-01-01T01:54:07.000Z</time>
      </trkpt>
      <trkpt lat="41.365748" lon="1.948983">
        <ele>363.6</ele>
        <time>1970-01-01T01:54:11.000Z</time>
      </trkpt>
      <trkpt lat="41.365673" lon="1.949075">
        <ele>364.0</ele>
        <time>1970-01-01T01:54:15.000Z</time>
      </trkpt>
      <trkpt lat="41.365595" lon="1.949158">
        <ele>363.8</ele>
        <time>1970-01-01T01:54:19.000Z</time>
      </trkpt>
      <trkpt lat="41.365498" lon="1.949225">
        <ele>364.4</ele>
        <time>1970-01-01T01:54:23.000Z</time>
      </trkpt>
      <trkpt lat="41.365396" lon="1.949268">
        <ele>364.8</ele>
        <time>1970-01-01T01:54:27.000Z</time>
      </trkpt>
      <trkpt lat="41.365283" lon="1.949263">
        <ele>364.8</ele>
        <time>1970-01-01T01:54:31.000Z</time>
      </trkpt>
      <trkpt lat="41.365196" lon="1.949181">
        <ele>367.0</ele>
        <time>1970-01-01T01:54:35.000Z</time>
      </trkpt>
      <trkpt lat="41.365131" lon="1.9491">
        <ele>367.0</ele>
        <time>1970-01-01T01:54:39.000Z</time>
      </trkpt>
      <trkpt lat="41.365073" lon="1.949056">
        <ele>368.2</ele>
        <time>1970-01-01T01:54:43.000Z</time>
      </trkpt>
      <trkpt lat="41.365005" lon="1.949028">
        <ele>367.8</ele>
        <time>1970-01-01T01:54:47.000Z</time>
      </trkpt>
      <trkpt lat="41.364921" lon="1.949021">
        <ele>368.0</ele>
        <time>1970-01-01T01:54:51.000Z</time>
      </trkpt>
      <trkpt lat="41.364833" lon="1.94906">
        <ele>368.2</ele>
        <time>1970-01-01T01:54:55.000Z</time>
      </trkpt>
      <trkpt lat="41.364743" lon="1.949143">
        <ele>367.0</ele>
        <time>1970-01-01T01:54:59.000Z</time>
      </trkpt>
      <trkpt lat="41.364635" lon="1.949263">
        <ele>366.0</ele>
        <time>1970-01-01T01:55:03.000Z</time>
      </trkpt>
      <trkpt lat="41.364488" lon="1.949426">
        <ele>364.6</ele>
        <time>1970-01-01T01:55:07.000Z</time>
      </trkpt>
      <trkpt lat="41.364325" lon="1.949466">
        <ele>364.2</ele>
        <time>1970-01-01T01:55:11.000Z</time>
      </trkpt>
      <trkpt lat="41.364291" lon="1.94935">
        <ele>364.6</ele>
        <time>1970-01-01T01:55:15.000Z</time>
      </trkpt>
      <trkpt lat="41.36424" lon="1.949213">
        <ele>364.2</ele>
        <time>1970-01-01T01:55:19.000Z</time>
      </trkpt>
      <trkpt lat="41.36413" lon="1.949098">
        <ele>363.6</ele>
        <time>1970-01-01T01:55:23.000Z</time>
      </trkpt>
      <trkpt lat="41.363998" lon="1.948961">
        <ele>362.2</ele>
        <time>1970-01-01T01:55:27.000Z</time>
      </trkpt>
      <trkpt lat="41.36396" lon="1.94872">
        <ele>363.0</ele>
        <time>1970-01-01T01:55:31.000Z</time>
      </trkpt>
      <trkpt lat="41.363946" lon="1.948526">
        <ele>362.8</ele>
        <time>1970-01-01T01:55:35.000Z</time>
      </trkpt>
      <trkpt lat="41.363903" lon="1.948333">
        <ele>361.8</ele>
        <time>1970-01-01T01:55:39.000Z</time>
      </trkpt>
      <trkpt lat="41.363861" lon="1.948048">
        <ele>360.0</ele>
        <time>1970-01-01T01:55:43.000Z</time>
      </trkpt>
      <trkpt lat="41.363845" lon="1.947776">
        <ele>358.2</ele>
        <time>1970-01-01T01:55:47.000Z</time>
      </trkpt>
      <trkpt lat="41.363836" lon="1.947596">
        <ele>358.8</ele>
        <time>1970-01-01T01:55:51.000Z</time>
      </trkpt>
      <trkpt lat="41.363816" lon="1.947486">
        <ele>359.2</ele>
        <time>1970-01-01T01:55:55.000Z</time>
      </trkpt>
      <trkpt lat="41.363773" lon="1.947521">
        <ele>359.4</ele>
        <time>1970-01-01T01:55:59.000Z</time>
      </trkpt>
      <trkpt lat="41.363743" lon="1.947608">
        <ele>361.0</ele>
        <time>1970-01-01T01:56:03.000Z</time>
      </trkpt>
      <trkpt lat="41.36372" lon="1.947706">
        <ele>361.8</ele>
        <time>1970-01-01T01:56:07.000Z</time>
      </trkpt>
      <trkpt lat="41.363698" lon="1.947791">
        <ele>363.6</ele>
        <time>1970-01-01T01:56:11.000Z</time>
      </trkpt>
      <trkpt lat="41.363656" lon="1.947863">
        <ele>364.2</ele>
        <time>1970-01-01T01:56:15.000Z</time>
      </trkpt>
      <trkpt lat="41.363608" lon="1.947925">
        <ele>366.0</ele>
        <time>1970-01-01T01:56:19.000Z</time>
      </trkpt>
      <trkpt lat="41.363573" lon="1.947978">
        <ele>366.4</ele>
        <time>1970-01-01T01:56:23.000Z</time>
      </trkpt>
      <trkpt lat="41.36355" lon="1.948026">
        <ele>367.4</ele>
        <time>1970-01-01T01:56:27.000Z</time>
      </trkpt>
      <trkpt lat="41.363525" lon="1.948095">
        <ele>368.6</ele>
        <time>1970-01-01T01:56:31.000Z</time>
      </trkpt>
      <trkpt lat="41.363486" lon="1.948153">
        <ele>369.4</ele>
        <time>1970-01-01T01:56:35.000Z</time>
      </trkpt>
      <trkpt lat="41.363443" lon="1.94822">
        <ele>370.6</ele>
        <time>1970-01-01T01:56:39.000Z</time>
      </trkpt>
      <trkpt lat="41.36339" lon="1.94827">
        <ele>372.0</ele>
        <time>1970-01-01T01:56:43.000Z</time>
      </trkpt>
      <trkpt lat="41.363321" lon="1.948281">
        <ele>373.2</ele>
        <time>1970-01-01T01:56:47.000Z</time>
      </trkpt>
      <trkpt lat="41.363263" lon="1.948283">
        <ele>374.4</ele>
        <time>1970-01-01T01:56:51.000Z</time>
      </trkpt>
      <trkpt lat="41.363203" lon="1.948293">
        <ele>374.4</ele>
        <time>1970-01-01T01:56:55.000Z</time>
      </trkpt>
      <trkpt lat="41.363136" lon="1.948286">
        <ele>375.0</ele>
        <time>1970-01-01T01:56:59.000Z</time>
      </trkpt>
      <trkpt lat="41.363066" lon="1.948283">
        <ele>374.8</ele>
        <time>1970-01-01T01:57:03.000Z</time>
      </trkpt>
      <trkpt lat="41.362973" lon="1.948275">
        <ele>373.8</ele>
        <time>1970-01-01T01:57:07.000Z</time>
      </trkpt>
      <trkpt lat="41.362836" lon="1.948278">
        <ele>373.2</ele>
        <time>1970-01-01T01:57:11.000Z</time>
      </trkpt>
      <trkpt lat="41.362653" lon="1.9483">
        <ele>372.6</ele>
        <time>1970-01-01T01:57:15.000Z</time>
      </trkpt>
      <trkpt lat="41.36245" lon="1.948321">
        <ele>372.0</ele>
        <time>1970-01-01T01:57:19.000Z</time>
      </trkpt>
      <trkpt lat="41.362246" lon="1.948333">
        <ele>371.2</ele>
        <time>1970-01-01T01:57:23.000Z</time>
      </trkpt>
      <trkpt lat="41.362016" lon="1.948373">
        <ele>369.0</ele>
        <time>1970-01-01T01:57:27.000Z</time>
      </trkpt>
      <trkpt lat="41.36174" lon="1.948393">
        <ele>367.8</ele>
        <time>1970-01-01T01:57:31.000Z</time>
      </trkpt>
      <trkpt lat="41.36147" lon="1.948218">
        <ele>365.8</ele>
        <time>1970-01-01T01:57:35.000Z</time>
      </trkpt>
      <trkpt lat="41.361185" lon="1.94804">
        <ele>362.6</ele>
        <time>1970-01-01T01:57:39.000Z</time>
      </trkpt>
      <trkpt lat="41.360935" lon="1.947963">
        <ele>359.4</ele>
        <time>1970-01-01T01:57:43.000Z</time>
      </trkpt>
      <trkpt lat="41.360688" lon="1.947978">
        <ele>356.0</ele>
        <time>1970-01-01T01:57:47.000Z</time>
      </trkpt>
      <trkpt lat="41.360385" lon="1.948003">
        <ele>351.6</ele>
        <time>1970-01-01T01:57:51.000Z</time>
      </trkpt>
      <trkpt lat="41.360021" lon="1.947896">
        <ele>349.4</ele>
        <time>1970-01-01T01:57:55.000Z</time>
      </trkpt>
      <trkpt lat="41.35971" lon="1.94771">
        <ele>348.2</ele>
        <time>1970-01-01T01:57:59.000Z</time>
      </trkpt>
      <trkpt lat="41.359536" lon="1.94754">
        <ele>349.4</ele>
        <time>1970-01-01T01:58:03.000Z</time>
      </trkpt>
      <trkpt lat="41.359346" lon="1.94738">
        <ele>346.4</ele>
        <time>1970-01-01T01:58:07.000Z</time>
      </trkpt>
      <trkpt lat="41.359145" lon="1.947116">
        <ele>345.2</ele>
        <time>1970-01-01T01:58:11.000Z</time>
      </trkpt>
      <trkpt lat="41.358931" lon="1.946943">
        <ele>345.0</ele>
        <time>1970-01-01T01:58:15.000Z</time>
      </trkpt>
      <trkpt lat="41.3587" lon="1.946905">
        <ele>345.2</ele>
        <time>1970-01-01T01:58:19.000Z</time>
      </trkpt>
      <trkpt lat="41.358495" lon="1.946856">
        <ele>348.2</ele>
        <time>1970-01-01T01:58:23.000Z</time>
      </trkpt>
      <trkpt lat="41.35831" lon="1.946805">
        <ele>349.0</ele>
        <time>1970-01-01T01:58:27.000Z</time>
      </trkpt>
      <trkpt lat="41.358141" lon="1.94674">
        <ele>351.2</ele>
        <time>1970-01-01T01:58:31.000Z</time>
      </trkpt>
      <trkpt lat="41.358003" lon="1.946706">
        <ele>353.4</ele>
        <time>1970-01-01T01:58:35.000Z</time>
      </trkpt>
      <trkpt lat="41.357881" lon="1.946663">
        <ele>354.8</ele>
        <time>1970-01-01T01:58:39.000Z</time>
      </trkpt>
      <trkpt lat="41.357768" lon="1.946586">
        <ele>355.6</ele>
        <time>1970-01-01T01:58:43.000Z</time>
      </trkpt>
      <trkpt lat="41.357631" lon="1.946548">
        <ele>354.0</ele>
        <time>1970-01-01T01:58:47.000Z</time>
      </trkpt>
      <trkpt lat="41.35748" lon="1.946488">
        <ele>354.6</ele>
        <time>1970-01-01T01:58:51.000Z</time>
      </trkpt>
      <trkpt lat="41.357336" lon="1.946323">
        <ele>354.8</ele>
        <time>1970-01-01T01:58:55.000Z</time>
      </trkpt>
      <trkpt lat="41.357158" lon="1.9462">
        <ele>354.0</ele>
        <time>1970-01-01T01:58:59.000Z</time>
      </trkpt>
      <trkpt lat="41.356996" lon="1.946165">
        <ele>356.4</ele>
        <time>1970-01-01T01:59:03.000Z</time>
      </trkpt>
      <trkpt lat="41.356845" lon="1.94614">
        <ele>357.4</ele>
        <time>1970-01-01T01:59:07.000Z</time>
      </trkpt>
      <trkpt lat="41.356706" lon="1.946128">
        <ele>358.8</ele>
        <time>1970-01-01T01:59:11.000Z</time>
      </trkpt>
      <trkpt lat="41.356595" lon="1.946153">
        <ele>360.4</ele>
        <time>1970-01-01T01:59:15.000Z</time>
      </trkpt>
      <trkpt lat="41.356496" lon="1.946125">
        <ele>361.2</ele>
        <time>1970-01-01T01:59:19.000Z</time>
      </trkpt>
      <trkpt lat="41.356416" lon="1.94605">
        <ele>361.4</ele>
        <time>1970-01-01T01:59:23.000Z</time>
      </trkpt>
      <trkpt lat="41.356308" lon="1.945988">
        <ele>361.2</ele>
        <time>1970-01-01T01:59:27.000Z</time>
      </trkpt>
      <trkpt lat="41.35618" lon="1.94594">
        <ele>361.6</ele>
        <time>1970-01-01T01:59:31.000Z</time>
      </trkpt>
      <trkpt lat="41.35605" lon="1.945893">
        <ele>361.4</ele>
        <time>1970-01-01T01:59:35.000Z</time>
      </trkpt>
      <trkpt lat="41.355921" lon="1.945846">
        <ele>361.2</ele>
        <time>1970-01-01T01:59:39.000Z</time>
      </trkpt>
      <trkpt lat="41.355776" lon="1.945775">
        <ele>360.2</ele>
        <time>1970-01-01T01:59:43.000Z</time>
      </trkpt>
      <trkpt lat="41.355605" lon="1.945676">
        <ele>359.2</ele>
        <time>1970-01-01T01:59:47.000Z</time>
      </trkpt>
      <trkpt lat="41.355416" lon="1.94561">
        <ele>359.8</ele>
        <time>1970-01-01T01:59:51.000Z</time>
      </trkpt>
      <trkpt lat="41.35527" lon="1.945566">
        <ele>360.6</ele>
        <time>1970-01-01T01:59:55.000Z</time>
      </trkpt>
      <trkpt lat="41.35517" lon="1.945533">
        <ele>360.6</ele>
        <time>1970-01-01T01:59:59.000Z</time>
      </trkpt>
      <trkpt lat="41.355083" lon="1.945511">
        <ele>362.4</ele>
        <time>1970-01-01T02:00:03.000Z</time>
      </trkpt>
      <trkpt lat="41.355003" lon="1.945473">
        <ele>363.0</ele>
        <time>1970-01-01T02:00:07.000Z</time>
      </trkpt>
      <trkpt lat="41.354883" lon="1.945436">
        <ele>360.4</ele>
        <time>1970-01-01T02:00:11.000Z</time>
      </trkpt>
      <trkpt lat="41.354711" lon="1.945318">
        <ele>359.0</ele>
        <time>1970-01-01T02:00:15.000Z</time>
      </trkpt>
      <trkpt lat="41.35448" lon="1.945431">
        <ele>357.2</ele>
        <time>1970-01-01T02:00:19.000Z</time>
      </trkpt>
      <trkpt lat="41.354238" lon="1.945586">
        <ele>358.2</ele>
        <time>1970-01-01T02:00:23.000Z</time>
      </trkpt>
      <trkpt lat="41.35411" lon="1.945671">
        <ele>360.2</ele>
        <time>1970-01-01T02:00:27.000Z</time>
      </trkpt>
      <trkpt lat="41.354048" lon="1.945751">
        <ele>361.8</ele>
        <time>1970-01-01T02:00:31.000Z</time>
      </trkpt>
      <trkpt lat="41.354015" lon="1.945846">
        <ele>362.4</ele>
        <time>1970-01-01T02:00:35.000Z</time>
      </trkpt>
      <trkpt lat="41.353995" lon="1.945968">
        <ele>363.6</ele>
        <time>1970-01-01T02:00:39.000Z</time>
      </trkpt>
      <trkpt lat="41.353953" lon="1.946055">
        <ele>365.4</ele>
        <time>1970-01-01T02:00:43.000Z</time>
      </trkpt>
      <trkpt lat="41.35393" lon="1.946146">
        <ele>366.4</ele>
        <time>1970-01-01T02:00:47.000Z</time>
      </trkpt>
      <trkpt lat="41.353903" lon="1.94621">
        <ele>366.6</ele>
        <time>1970-01-01T02:00:51.000Z</time>
      </trkpt>
      <trkpt lat="41.35389" lon="1.946288">
        <ele>368.0</ele>
        <time>1970-01-01T02:00:55.000Z</time>
      </trkpt>
      <trkpt lat="41.353873" lon="1.94637">
        <ele>368.6</ele>
        <time>1970-01-01T02:00:59.000Z</time>
      </trkpt>
      <trkpt lat="41.353845" lon="1.946466">
        <ele>370.0</ele>
        <time>1970-01-01T02:01:03.000Z</time>
      </trkpt>
      <trkpt lat="41.353798" lon="1.946543">
        <ele>371.0</ele>
        <time>1970-01-01T02:01:07.000Z</time>
      </trkpt>
      <trkpt lat="41.353763" lon="1.946628">
        <ele>371.2</ele>
        <time>1970-01-01T02:01:11.000Z</time>
      </trkpt>
      <trkpt lat="41.353736" lon="1.946711">
        <ele>372.0</ele>
        <time>1970-01-01T02:01:15.000Z</time>
      </trkpt>
      <trkpt lat="41.353696" lon="1.946803">
        <ele>372.4</ele>
        <time>1970-01-01T02:01:19.000Z</time>
      </trkpt>
      <trkpt lat="41.353668" lon="1.946908">
        <ele>371.6</ele>
        <time>1970-01-01T02:01:23.000Z</time>
      </trkpt>
      <trkpt lat="41.353563" lon="1.947033">
        <ele>371.8</ele>
        <time>1970-01-01T02:01:27.000Z</time>
      </trkpt>
      <trkpt lat="41.353443" lon="1.947133">
        <ele>372.0</ele>
        <time>1970-01-01T02:01:31.000Z</time>
      </trkpt>
      <trkpt lat="41.35335" lon="1.947281">
        <ele>372.2</ele>
        <time>1970-01-01T02:01:35.000Z</time>
      </trkpt>
      <trkpt lat="41.353245" lon="1.9474">
        <ele>372.8</ele>
        <time>1970-01-01T02:01:39.000Z</time>
      </trkpt>
      <trkpt lat="41.353121" lon="1.947441">
        <ele>373.2</ele>
        <time>1970-01-01T02:01:43.000Z</time>
      </trkpt>
      <trkpt lat="41.353001" lon="1.947516">
        <ele>374.0</ele>
        <time>1970-01-01T02:01:47.000Z</time>
      </trkpt>
      <trkpt lat="41.352905" lon="1.947595">
        <ele>374.6</ele>
        <time>1970-01-01T02:01:51.000Z</time>
      </trkpt>
      <trkpt lat="41.352821" lon="1.94765">
        <ele>375.8</ele>
        <time>1970-01-01T02:01:55.000Z</time>
      </trkpt>
      <trkpt lat="41.352745" lon="1.947706">
        <ele>375.6</ele>
        <time>1970-01-01T02:01:59.000Z</time>
      </trkpt>
      <trkpt lat="41.352663" lon="1.947776">
        <ele>376.6</ele>
        <time>1970-01-01T02:02:03.000Z</time>
      </trkpt>
      <trkpt lat="41.352601" lon="1.947848">
        <ele>376.6</ele>
        <time>1970-01-01T02:02:07.000Z</time>
      </trkpt>
      <trkpt lat="41.352533" lon="1.947926">
        <ele>378.4</ele>
        <time>1970-01-01T02:02:11.000Z</time>
      </trkpt>
      <trkpt lat="41.35248" lon="1.947985">
        <ele>379.2</ele>
        <time>1970-01-01T02:02:15.000Z</time>
      </trkpt>
      <trkpt lat="41.352435" lon="1.948031">
        <ele>380.6</ele>
        <time>1970-01-01T02:02:19.000Z</time>
      </trkpt>
      <trkpt lat="41.3524" lon="1.94809">
        <ele>381.8</ele>
        <time>1970-01-01T02:02:23.000Z</time>
      </trkpt>
      <trkpt lat="41.352348" lon="1.948125">
        <ele>382.6</ele>
        <time>1970-01-01T02:02:27.000Z</time>
      </trkpt>
      <trkpt lat="41.352301" lon="1.948131">
        <ele>383.8</ele>
        <time>1970-01-01T02:02:31.000Z</time>
      </trkpt>
      <trkpt lat="41.352248" lon="1.948126">
        <ele>385.0</ele>
        <time>1970-01-01T02:02:35.000Z</time>
      </trkpt>
      <trkpt lat="41.352198" lon="1.94812">
        <ele>386.2</ele>
        <time>1970-01-01T02:02:39.000Z</time>
      </trkpt>
      <trkpt lat="41.352148" lon="1.948103">
        <ele>387.2</ele>
        <time>1970-01-01T02:02:43.000Z</time>
      </trkpt>
      <trkpt lat="41.3521" lon="1.948111">
        <ele>387.6</ele>
        <time>1970-01-01T02:02:47.000Z</time>
      </trkpt>
      <trkpt lat="41.35205" lon="1.948116">
        <ele>388.2</ele>
        <time>1970-01-01T02:02:51.000Z</time>
      </trkpt>
      <trkpt lat="41.352" lon="1.948138">
        <ele>389.0</ele>
        <time>1970-01-01T02:02:55.000Z</time>
      </trkpt>
      <trkpt lat="41.35196" lon="1.948163">
        <ele>389.6</ele>
        <time>1970-01-01T02:02:59.000Z</time>
      </trkpt>
      <trkpt lat="41.351943" lon="1.948113">
        <ele>390.0</ele>
        <time>1970-01-01T02:03:03.000Z</time>
      </trkpt>
      <trkpt lat="41.351978" lon="1.948073">
        <ele>390.6</ele>
        <time>1970-01-01T02:03:07.000Z</time>
      </trkpt>
      <trkpt lat="41.352005" lon="1.948036">
        <ele>390.8</ele>
        <time>1970-01-01T02:03:11.000Z</time>
      </trkpt>
      <trkpt lat="41.352041" lon="1.947995">
        <ele>391.2</ele>
        <time>1970-01-01T02:03:15.000Z</time>
      </trkpt>
      <trkpt lat="41.352103" lon="1.947953">
        <ele>391.2</ele>
        <time>1970-01-01T02:03:19.000Z</time>
      </trkpt>
      <trkpt lat="41.352155" lon="1.947886">
        <ele>391.6</ele>
        <time>1970-01-01T02:03:23.000Z</time>
      </trkpt>
      <trkpt lat="41.352213" lon="1.947833">
        <ele>391.4</ele>
        <time>1970-01-01T02:03:27.000Z</time>
      </trkpt>
      <trkpt lat="41.35227" lon="1.947768">
        <ele>392.4</ele>
        <time>1970-01-01T02:03:31.000Z</time>
      </trkpt>
      <trkpt lat="41.352313" lon="1.947696">
        <ele>392.2</ele>
        <time>1970-01-01T02:03:35.000Z</time>
      </trkpt>
      <trkpt lat="41.352371" lon="1.947633">
        <ele>393.0</ele>
        <time>1970-01-01T02:03:39.000Z</time>
      </trkpt>
      <trkpt lat="41.352425" lon="1.947571">
        <ele>393.4</ele>
        <time>1970-01-01T02:03:43.000Z</time>
      </trkpt>
      <trkpt lat="41.352478" lon="1.947501">
        <ele>394.2</ele>
        <time>1970-01-01T02:03:47.000Z</time>
      </trkpt>
      <trkpt lat="41.352518" lon="1.947415">
        <ele>394.8</ele>
        <time>1970-01-01T02:03:51.000Z</time>
      </trkpt>
      <trkpt lat="41.352568" lon="1.94733">
        <ele>395.2</ele>
        <time>1970-01-01T02:03:55.000Z</time>
      </trkpt>
      <trkpt lat="41.352613" lon="1.947238">
        <ele>395.6</ele>
        <time>1970-01-01T02:03:59.000Z</time>
      </trkpt>
      <trkpt lat="41.35265" lon="1.94716">
        <ele>395.6</ele>
        <time>1970-01-01T02:04:03.000Z</time>
      </trkpt>
      <trkpt lat="41.352695" lon="1.947063">
        <ele>394.0</ele>
        <time>1970-01-01T02:04:07.000Z</time>
      </trkpt>
      <trkpt lat="41.352671" lon="1.94678">
        <ele>392.4</ele>
        <time>1970-01-01T02:04:11.000Z</time>
      </trkpt>
      <trkpt lat="41.352516" lon="1.946568">
        <ele>394.0</ele>
        <time>1970-01-01T02:04:15.000Z</time>
      </trkpt>
      <trkpt lat="41.352381" lon="1.946475">
        <ele>395.8</ele>
        <time>1970-01-01T02:04:19.000Z</time>
      </trkpt>
      <trkpt lat="41.352288" lon="1.946383">
        <ele>395.6</ele>
        <time>1970-01-01T02:04:23.000Z</time>
      </trkpt>
      <trkpt lat="41.35218" lon="1.946291">
        <ele>397.2</ele>
        <time>1970-01-01T02:04:27.000Z</time>
      </trkpt>
      <trkpt lat="41.352106" lon="1.946211">
        <ele>397.4</ele>
        <time>1970-01-01T02:04:31.000Z</time>
      </trkpt>
      <trkpt lat="41.352033" lon="1.946156">
        <ele>397.6</ele>
        <time>1970-01-01T02:04:35.000Z</time>
      </trkpt>
      <trkpt lat="41.351916" lon="1.946111">
        <ele>398.2</ele>
        <time>1970-01-01T02:04:39.000Z</time>
      </trkpt>
      <trkpt lat="41.351825" lon="1.946048">
        <ele>398.8</ele>
        <time>1970-01-01T02:04:43.000Z</time>
      </trkpt>
      <trkpt lat="41.351756" lon="1.945998">
        <ele>400.0</ele>
        <time>1970-01-01T02:04:47.000Z</time>
      </trkpt>
      <trkpt lat="41.35168" lon="1.945956">
        <ele>400.2</ele>
        <time>1970-01-01T02:04:51.000Z</time>
      </trkpt>
      <trkpt lat="41.351611" lon="1.94593">
        <ele>401.0</ele>
        <time>1970-01-01T02:04:55.000Z</time>
      </trkpt>
      <trkpt lat="41.351538" lon="1.945923">
        <ele>402.0</ele>
        <time>1970-01-01T02:04:59.000Z</time>
      </trkpt>
      <trkpt lat="41.351466" lon="1.945938">
        <ele>403.2</ele>
        <time>1970-01-01T02:05:03.000Z</time>
      </trkpt>
      <trkpt lat="41.351401" lon="1.945938">
        <ele>403.4</ele>
        <time>1970-01-01T02:05:07.000Z</time>
      </trkpt>
      <trkpt lat="41.351338" lon="1.945936">
        <ele>404.2</ele>
        <time>1970-01-01T02:05:11.000Z</time>
      </trkpt>
      <trkpt lat="41.351286" lon="1.945928">
        <ele>405.0</ele>
        <time>1970-01-01T02:05:15.000Z</time>
      </trkpt>
      <trkpt lat="41.351221" lon="1.94592">
        <ele>406.0</ele>
        <time>1970-01-01T02:05:19.000Z</time>
      </trkpt>
      <trkpt lat="41.351151" lon="1.945896">
        <ele>406.0</ele>
        <time>1970-01-01T02:05:23.000Z</time>
      </trkpt>
      <trkpt lat="41.351088" lon="1.945888">
        <ele>406.6</ele>
        <time>1970-01-01T02:05:27.000Z</time>
      </trkpt>
      <trkpt lat="41.351006" lon="1.945866">
        <ele>407.0</ele>
        <time>1970-01-01T02:05:31.000Z</time>
      </trkpt>
      <trkpt lat="41.350946" lon="1.945843">
        <ele>407.6</ele>
        <time>1970-01-01T02:05:35.000Z</time>
      </trkpt>
      <trkpt lat="41.350891" lon="1.945825">
        <ele>409.8</ele>
        <time>1970-01-01T02:05:39.000Z</time>
      </trkpt>
      <trkpt lat="41.350838" lon="1.94579">
        <ele>410.6</ele>
        <time>1970-01-01T02:05:43.000Z</time>
      </trkpt>
      <trkpt lat="41.350805" lon="1.945728">
        <ele>410.6</ele>
        <time>1970-01-01T02:05:47.000Z</time>
      </trkpt>
      <trkpt lat="41.350768" lon="1.945651">
        <ele>410.8</ele>
        <time>1970-01-01T02:05:51.000Z</time>
      </trkpt>
      <trkpt lat="41.350768" lon="1.945561">
        <ele>410.6</ele>
        <time>1970-01-01T02:05:55.000Z</time>
      </trkpt>
      <trkpt lat="41.350778" lon="1.94547">
        <ele>410.6</ele>
        <time>1970-01-01T02:05:59.000Z</time>
      </trkpt>
      <trkpt lat="41.350778" lon="1.945361">
        <ele>411.4</ele>
        <time>1970-01-01T02:06:03.000Z</time>
      </trkpt>
      <trkpt lat="41.350773" lon="1.945251">
        <ele>411.4</ele>
        <time>1970-01-01T02:06:07.000Z</time>
      </trkpt>
      <trkpt lat="41.350773" lon="1.94515">
        <ele>412.4</ele>
        <time>1970-01-01T02:06:11.000Z</time>
      </trkpt>
      <trkpt lat="41.35076" lon="1.945056">
        <ele>413.0</ele>
        <time>1970-01-01T02:06:15.000Z</time>
      </trkpt>
      <trkpt lat="41.350733" lon="1.944953">
        <ele>413.6</ele>
        <time>1970-01-01T02:06:19.000Z</time>
      </trkpt>
      <trkpt lat="41.350701" lon="1.944861">
        <ele>415.0</ele>
        <time>1970-01-01T02:06:23.000Z</time>
      </trkpt>
      <trkpt lat="41.350656" lon="1.944781">
        <ele>415.0</ele>
        <time>1970-01-01T02:06:27.000Z</time>
      </trkpt>
      <trkpt lat="41.350618" lon="1.94471">
        <ele>416.2</ele>
        <time>1970-01-01T02:06:31.000Z</time>
      </trkpt>
      <trkpt lat="41.350568" lon="1.944651">
        <ele>416.6</ele>
        <time>1970-01-01T02:06:35.000Z</time>
      </trkpt>
      <trkpt lat="41.350521" lon="1.944605">
        <ele>417.4</ele>
        <time>1970-01-01T02:06:39.000Z</time>
      </trkpt>
      <trkpt lat="41.35047" lon="1.944555">
        <ele>418.0</ele>
        <time>1970-01-01T02:06:43.000Z</time>
      </trkpt>
      <trkpt lat="41.350411" lon="1.944506">
        <ele>418.6</ele>
        <time>1970-01-01T02:06:47.000Z</time>
      </trkpt>
      <trkpt lat="41.350363" lon="1.944446">
        <ele>419.8</ele>
        <time>1970-01-01T02:06:51.000Z</time>
      </trkpt>
      <trkpt lat="41.350331" lon="1.944395">
        <ele>419.8</ele>
        <time>1970-01-01T02:06:55.000Z</time>
      </trkpt>
      <trkpt lat="41.350313" lon="1.944321">
        <ele>419.4</ele>
        <time>1970-01-01T02:06:59.000Z</time>
      </trkpt>
      <trkpt lat="41.350311" lon="1.944195">
        <ele>418.0</ele>
        <time>1970-01-01T02:07:03.000Z</time>
      </trkpt>
      <trkpt lat="41.350345" lon="1.943988">
        <ele>418.6</ele>
        <time>1970-01-01T02:07:07.000Z</time>
      </trkpt>
      <trkpt lat="41.35036" lon="1.943768">
        <ele>419.0</ele>
        <time>1970-01-01T02:07:11.000Z</time>
      </trkpt>
      <trkpt lat="41.350398" lon="1.943585">
        <ele>419.8</ele>
        <time>1970-01-01T02:07:15.000Z</time>
      </trkpt>
      <trkpt lat="41.350438" lon="1.943478">
        <ele>421.2</ele>
        <time>1970-01-01T02:07:19.000Z</time>
      </trkpt>
      <trkpt lat="41.350445" lon="1.943371">
        <ele>421.4</ele>
        <time>1970-01-01T02:07:23.000Z</time>
      </trkpt>
      <trkpt lat="41.350438" lon="1.943275">
        <ele>421.8</ele>
        <time>1970-01-01T02:07:27.000Z</time>
      </trkpt>
      <trkpt lat="41.350415" lon="1.94319">
        <ele>422.4</ele>
        <time>1970-01-01T02:07:31.000Z</time>
      </trkpt>
      <trkpt lat="41.350395" lon="1.943096">
        <ele>423.2</ele>
        <time>1970-01-01T02:07:35.000Z</time>
      </trkpt>
      <trkpt lat="41.350381" lon="1.943">
        <ele>423.8</ele>
        <time>1970-01-01T02:07:39.000Z</time>
      </trkpt>
      <trkpt lat="41.350361" lon="1.942903">
        <ele>424.4</ele>
        <time>1970-01-01T02:07:43.000Z</time>
      </trkpt>
      <trkpt lat="41.350345" lon="1.942816">
        <ele>425.4</ele>
        <time>1970-01-01T02:07:47.000Z</time>
      </trkpt>
      <trkpt lat="41.35034" lon="1.942725">
        <ele>425.6</ele>
        <time>1970-01-01T02:07:51.000Z</time>
      </trkpt>
      <trkpt lat="41.350345" lon="1.942631">
        <ele>426.0</ele>
        <time>1970-01-01T02:07:55.000Z</time>
      </trkpt>
      <trkpt lat="41.35035" lon="1.942533">
        <ele>426.6</ele>
        <time>1970-01-01T02:07:59.000Z</time>
      </trkpt>
      <trkpt lat="41.350376" lon="1.94243">
        <ele>426.4</ele>
        <time>1970-01-01T02:08:03.000Z</time>
      </trkpt>
      <trkpt lat="41.35042" lon="1.942348">
        <ele>427.0</ele>
        <time>1970-01-01T02:08:07.000Z</time>
      </trkpt>
      <trkpt lat="41.350493" lon="1.942311">
        <ele>427.2</ele>
        <time>1970-01-01T02:08:11.000Z</time>
      </trkpt>
      <trkpt lat="41.350561" lon="1.94229">
        <ele>428.6</ele>
        <time>1970-01-01T02:08:15.000Z</time>
      </trkpt>
      <trkpt lat="41.350631" lon="1.942263">
        <ele>429.6</ele>
        <time>1970-01-01T02:08:19.000Z</time>
      </trkpt>
      <trkpt lat="41.350698" lon="1.942226">
        <ele>429.8</ele>
        <time>1970-01-01T02:08:23.000Z</time>
      </trkpt>
      <trkpt lat="41.350755" lon="1.942195">
        <ele>430.8</ele>
        <time>1970-01-01T02:08:27.000Z</time>
      </trkpt>
      <trkpt lat="41.350816" lon="1.942173">
        <ele>431.6</ele>
        <time>1970-01-01T02:08:31.000Z</time>
      </trkpt>
      <trkpt lat="41.350866" lon="1.942123">
        <ele>431.8</ele>
        <time>1970-01-01T02:08:35.000Z</time>
      </trkpt>
      <trkpt lat="41.350876" lon="1.942043">
        <ele>432.0</ele>
        <time>1970-01-01T02:08:39.000Z</time>
      </trkpt>
      <trkpt lat="41.350841" lon="1.94199">
        <ele>432.4</ele>
        <time>1970-01-01T02:08:43.000Z</time>
      </trkpt>
      <trkpt lat="41.350783" lon="1.941998">
        <ele>433.0</ele>
        <time>1970-01-01T02:08:47.000Z</time>
      </trkpt>
      <trkpt lat="41.35072" lon="1.942023">
        <ele>432.2</ele>
        <time>1970-01-01T02:08:51.000Z</time>
      </trkpt>
      <trkpt lat="41.350621" lon="1.942046">
        <ele>431.4</ele>
        <time>1970-01-01T02:08:55.000Z</time>
      </trkpt>
      <trkpt lat="41.350465" lon="1.942083">
        <ele>430.8</ele>
        <time>1970-01-01T02:08:59.000Z</time>
      </trkpt>
      <trkpt lat="41.350295" lon="1.942176">
        <ele>431.2</ele>
        <time>1970-01-01T02:09:03.000Z</time>
      </trkpt>
      <trkpt lat="41.350211" lon="1.942283">
        <ele>431.4</ele>
        <time>1970-01-01T02:09:07.000Z</time>
      </trkpt>
      <trkpt lat="41.350131" lon="1.942381">
        <ele>430.2</ele>
        <time>1970-01-01T02:09:11.000Z</time>
      </trkpt>
      <trkpt lat="41.350013" lon="1.942296">
        <ele>428.0</ele>
        <time>1970-01-01T02:09:15.000Z</time>
      </trkpt>
      <trkpt lat="41.349883" lon="1.941995">
        <ele>425.4</ele>
        <time>1970-01-01T02:09:19.000Z</time>
      </trkpt>
      <trkpt lat="41.349653" lon="1.94178">
        <ele>422.2</ele>
        <time>1970-01-01T02:09:23.000Z</time>
      </trkpt>
      <trkpt lat="41.349455" lon="1.941801">
        <ele>418.4</ele>
        <time>1970-01-01T02:09:27.000Z</time>
      </trkpt>
      <trkpt lat="41.3493" lon="1.941825">
        <ele>417.2</ele>
        <time>1970-01-01T02:09:31.000Z</time>
      </trkpt>
      <trkpt lat="41.349191" lon="1.941636">
        <ele>414.8</ele>
        <time>1970-01-01T02:09:35.000Z</time>
      </trkpt>
      <trkpt lat="41.349193" lon="1.941361">
        <ele>412.8</ele>
        <time>1970-01-01T02:09:39.000Z</time>
      </trkpt>
      <trkpt lat="41.349155" lon="1.941055">
        <ele>410.0</ele>
        <time>1970-01-01T02:09:43.000Z</time>
      </trkpt>
      <trkpt lat="41.348958" lon="1.940756">
        <ele>408.8</ele>
        <time>1970-01-01T02:09:47.000Z</time>
      </trkpt>
      <trkpt lat="41.348768" lon="1.940551">
        <ele>406.8</ele>
        <time>1970-01-01T02:09:51.000Z</time>
      </trkpt>
      <trkpt lat="41.348585" lon="1.940225">
        <ele>404.2</ele>
        <time>1970-01-01T02:09:55.000Z</time>
      </trkpt>
      <trkpt lat="41.348318" lon="1.940015">
        <ele>402.0</ele>
        <time>1970-01-01T02:09:59.000Z</time>
      </trkpt>
      <trkpt lat="41.348185" lon="1.939846">
        <ele>399.8</ele>
        <time>1970-01-01T02:10:03.000Z</time>
      </trkpt>
      <trkpt lat="41.34835" lon="1.939705">
        <ele>398.2</ele>
        <time>1970-01-01T02:10:07.000Z</time>
      </trkpt>
      <trkpt lat="41.348416" lon="1.939521">
        <ele>396.6</ele>
        <time>1970-01-01T02:10:11.000Z</time>
      </trkpt>
      <trkpt lat="41.348215" lon="1.939416">
        <ele>395.4</ele>
        <time>1970-01-01T02:10:15.000Z</time>
      </trkpt>
      <trkpt lat="41.34803" lon="1.939166">
        <ele>393.0</ele>
        <time>1970-01-01T02:10:19.000Z</time>
      </trkpt>
      <trkpt lat="41.34797" lon="1.938935">
        <ele>390.6</ele>
        <time>1970-01-01T02:10:23.000Z</time>
      </trkpt>
      <trkpt lat="41.348106" lon="1.938683">
        <ele>389.4</ele>
        <time>1970-01-01T02:10:27.000Z</time>
      </trkpt>
      <trkpt lat="41.348225" lon="1.93835">
        <ele>386.4</ele>
        <time>1970-01-01T02:10:31.000Z</time>
      </trkpt>
      <trkpt lat="41.348196" lon="1.938">
        <ele>382.8</ele>
        <time>1970-01-01T02:10:35.000Z</time>
      </trkpt>
      <trkpt lat="41.348056" lon="1.937718">
        <ele>377.6</ele>
        <time>1970-01-01T02:10:39.000Z</time>
      </trkpt>
      <trkpt lat="41.348055" lon="1.937343">
        <ele>374.0</ele>
        <time>1970-01-01T02:10:43.000Z</time>
      </trkpt>
      <trkpt lat="41.347963" lon="1.93703">
        <ele>372.6</ele>
        <time>1970-01-01T02:10:47.000Z</time>
      </trkpt>
      <trkpt lat="41.347846" lon="1.936808">
        <ele>372.0</ele>
        <time>1970-01-01T02:10:51.000Z</time>
      </trkpt>
      <trkpt lat="41.347846" lon="1.936493">
        <ele>369.0</ele>
        <time>1970-01-01T02:10:55.000Z</time>
      </trkpt>
      <trkpt lat="41.347818" lon="1.936085">
        <ele>367.2</ele>
        <time>1970-01-01T02:10:59.000Z</time>
      </trkpt>
      <trkpt lat="41.347895" lon="1.935725">
        <ele>369.0</ele>
        <time>1970-01-01T02:11:03.000Z</time>
      </trkpt>
      <trkpt lat="41.347996" lon="1.935521">
        <ele>370.2</ele>
        <time>1970-01-01T02:11:07.000Z</time>
      </trkpt>
      <trkpt lat="41.348028" lon="1.935386">
        <ele>371.4</ele>
        <time>1970-01-01T02:11:11.000Z</time>
      </trkpt>
      <trkpt lat="41.348058" lon="1.935246">
        <ele>372.0</ele>
        <time>1970-01-01T02:11:15.000Z</time>
      </trkpt>
      <trkpt lat="41.3481" lon="1.935108">
        <ele>372.6</ele>
        <time>1970-01-01T02:11:19.000Z</time>
      </trkpt>
      <trkpt lat="41.348145" lon="1.935006">
        <ele>374.2</ele>
        <time>1970-01-01T02:11:23.000Z</time>
      </trkpt>
      <trkpt lat="41.348138" lon="1.934876">
        <ele>375.0</ele>
        <time>1970-01-01T02:11:27.000Z</time>
      </trkpt>
      <trkpt lat="41.348088" lon="1.934783">
        <ele>374.8</ele>
        <time>1970-01-01T02:11:31.000Z</time>
      </trkpt>
      <trkpt lat="41.348011" lon="1.934686">
        <ele>374.8</ele>
        <time>1970-01-01T02:11:35.000Z</time>
      </trkpt>
      <trkpt lat="41.347935" lon="1.934578">
        <ele>375.4</ele>
        <time>1970-01-01T02:11:39.000Z</time>
      </trkpt>
      <trkpt lat="41.34787" lon="1.934436">
        <ele>376.2</ele>
        <time>1970-01-01T02:11:43.000Z</time>
      </trkpt>
      <trkpt lat="41.347856" lon="1.934291">
        <ele>376.8</ele>
        <time>1970-01-01T02:11:47.000Z</time>
      </trkpt>
      <trkpt lat="41.34786" lon="1.93413">
        <ele>376.2</ele>
        <time>1970-01-01T02:11:51.000Z</time>
      </trkpt>
      <trkpt lat="41.347845" lon="1.933968">
        <ele>378.0</ele>
        <time>1970-01-01T02:11:55.000Z</time>
      </trkpt>
      <trkpt lat="41.34781" lon="1.933833">
        <ele>378.8</ele>
        <time>1970-01-01T02:11:59.000Z</time>
      </trkpt>
      <trkpt lat="41.347738" lon="1.93374">
        <ele>380.0</ele>
        <time>1970-01-01T02:12:03.000Z</time>
      </trkpt>
      <trkpt lat="41.347646" lon="1.933753">
        <ele>380.0</ele>
        <time>1970-01-01T02:12:07.000Z</time>
      </trkpt>
      <trkpt lat="41.347558" lon="1.933813">
        <ele>380.4</ele>
        <time>1970-01-01T02:12:11.000Z</time>
      </trkpt>
      <trkpt lat="41.34746" lon="1.93386">
        <ele>380.6</ele>
        <time>1970-01-01T02:12:15.000Z</time>
      </trkpt>
      <trkpt lat="41.347358" lon="1.933913">
        <ele>381.8</ele>
        <time>1970-01-01T02:12:19.000Z</time>
      </trkpt>
      <trkpt lat="41.347256" lon="1.933968">
        <ele>382.0</ele>
        <time>1970-01-01T02:12:23.000Z</time>
      </trkpt>
      <trkpt lat="41.34716" lon="1.934023">
        <ele>383.0</ele>
        <time>1970-01-01T02:12:27.000Z</time>
      </trkpt>
      <trkpt lat="41.347055" lon="1.934066">
        <ele>383.0</ele>
        <time>1970-01-01T02:12:31.000Z</time>
      </trkpt>
      <trkpt lat="41.346953" lon="1.934088">
        <ele>384.0</ele>
        <time>1970-01-01T02:12:35.000Z</time>
      </trkpt>
      <trkpt lat="41.346861" lon="1.934101">
        <ele>385.6</ele>
        <time>1970-01-01T02:12:39.000Z</time>
      </trkpt>
      <trkpt lat="41.346771" lon="1.93412">
        <ele>386.0</ele>
        <time>1970-01-01T02:12:43.000Z</time>
      </trkpt>
      <trkpt lat="41.346678" lon="1.934156">
        <ele>386.4</ele>
        <time>1970-01-01T02:12:47.000Z</time>
      </trkpt>
      <trkpt lat="41.346583" lon="1.934213">
        <ele>386.8</ele>
        <time>1970-01-01T02:12:51.000Z</time>
      </trkpt>
      <trkpt lat="41.346495" lon="1.93428">
        <ele>387.2</ele>
        <time>1970-01-01T02:12:55.000Z</time>
      </trkpt>
      <trkpt lat="41.346411" lon="1.934381">
        <ele>387.6</ele>
        <time>1970-01-01T02:12:59.000Z</time>
      </trkpt>
      <trkpt lat="41.346335" lon="1.934526">
        <ele>387.8</ele>
        <time>1970-01-01T02:13:03.000Z</time>
      </trkpt>
      <trkpt lat="41.346268" lon="1.934685">
        <ele>388.4</ele>
        <time>1970-01-01T02:13:07.000Z</time>
      </trkpt>
      <trkpt lat="41.346236" lon="1.934818">
        <ele>388.8</ele>
        <time>1970-01-01T02:13:11.000Z</time>
      </trkpt>
      <trkpt lat="41.346198" lon="1.934928">
        <ele>389.0</ele>
        <time>1970-01-01T02:13:15.000Z</time>
      </trkpt>
      <trkpt lat="41.346135" lon="1.93504">
        <ele>389.8</ele>
        <time>1970-01-01T02:13:19.000Z</time>
      </trkpt>
      <trkpt lat="41.346066" lon="1.935145">
        <ele>391.2</ele>
        <time>1970-01-01T02:13:23.000Z</time>
      </trkpt>
      <trkpt lat="41.346006" lon="1.935246">
        <ele>391.6</ele>
        <time>1970-01-01T02:13:27.000Z</time>
      </trkpt>
      <trkpt lat="41.345955" lon="1.93535">
        <ele>392.4</ele>
        <time>1970-01-01T02:13:31.000Z</time>
      </trkpt>
      <trkpt lat="41.345893" lon="1.935471">
        <ele>392.6</ele>
        <time>1970-01-01T02:13:35.000Z</time>
      </trkpt>
      <trkpt lat="41.345831" lon="1.935581">
        <ele>393.6</ele>
        <time>1970-01-01T02:13:39.000Z</time>
      </trkpt>
      <trkpt lat="41.345758" lon="1.935686">
        <ele>393.4</ele>
        <time>1970-01-01T02:13:43.000Z</time>
      </trkpt>
      <trkpt lat="41.345656" lon="1.935756">
        <ele>393.4</ele>
        <time>1970-01-01T02:13:47.000Z</time>
      </trkpt>
      <trkpt lat="41.34551" lon="1.935721">
        <ele>392.8</ele>
        <time>1970-01-01T02:13:51.000Z</time>
      </trkpt>
      <trkpt lat="41.345391" lon="1.935595">
        <ele>392.6</ele>
        <time>1970-01-01T02:13:55.000Z</time>
      </trkpt>
      <trkpt lat="41.345298" lon="1.935441">
        <ele>393.4</ele>
        <time>1970-01-01T02:13:59.000Z</time>
      </trkpt>
      <trkpt lat="41.345225" lon="1.935278">
        <ele>394.4</ele>
        <time>1970-01-01T02:14:03.000Z</time>
      </trkpt>
      <trkpt lat="41.345175" lon="1.935105">
        <ele>394.2</ele>
        <time>1970-01-01T02:14:07.000Z</time>
      </trkpt>
      <trkpt lat="41.345133" lon="1.93495">
        <ele>396.6</ele>
        <time>1970-01-01T02:14:11.000Z</time>
      </trkpt>
      <trkpt lat="41.345101" lon="1.934811">
        <ele>397.2</ele>
        <time>1970-01-01T02:14:15.000Z</time>
      </trkpt>
      <trkpt lat="41.345053" lon="1.934686">
        <ele>398.0</ele>
        <time>1970-01-01T02:14:19.000Z</time>
      </trkpt>
      <trkpt lat="41.34501" lon="1.934566">
        <ele>399.4</ele>
        <time>1970-01-01T02:14:23.000Z</time>
      </trkpt>
      <trkpt lat="41.34494" lon="1.934463">
        <ele>398.8</ele>
        <time>1970-01-01T02:14:27.000Z</time>
      </trkpt>
      <trkpt lat="41.34484" lon="1.934338">
        <ele>398.0</ele>
        <time>1970-01-01T02:14:31.000Z</time>
      </trkpt>
      <trkpt lat="41.344646" lon="1.934265">
        <ele>396.8</ele>
        <time>1970-01-01T02:14:35.000Z</time>
      </trkpt>
      <trkpt lat="41.344395" lon="1.934273">
        <ele>395.6</ele>
        <time>1970-01-01T02:14:39.000Z</time>
      </trkpt>
      <trkpt lat="41.344173" lon="1.934263">
        <ele>396.4</ele>
        <time>1970-01-01T02:14:43.000Z</time>
      </trkpt>
      <trkpt lat="41.344003" lon="1.934191">
        <ele>397.0</ele>
        <time>1970-01-01T02:14:47.000Z</time>
      </trkpt>
      <trkpt lat="41.343871" lon="1.934076">
        <ele>397.8</ele>
        <time>1970-01-01T02:14:51.000Z</time>
      </trkpt>
      <trkpt lat="41.34376" lon="1.93398">
        <ele>398.0</ele>
        <time>1970-01-01T02:14:55.000Z</time>
      </trkpt>
      <trkpt lat="41.343646" lon="1.933876">
        <ele>397.0</ele>
        <time>1970-01-01T02:14:59.000Z</time>
      </trkpt>
      <trkpt lat="41.343568" lon="1.933661">
        <ele>397.8</ele>
        <time>1970-01-01T02:15:03.000Z</time>
      </trkpt>
      <trkpt lat="41.343488" lon="1.933463">
        <ele>398.0</ele>
        <time>1970-01-01T02:15:07.000Z</time>
      </trkpt>
      <trkpt lat="41.343376" lon="1.933305">
        <ele>399.6</ele>
        <time>1970-01-01T02:15:11.000Z</time>
      </trkpt>
      <trkpt lat="41.343268" lon="1.933196">
        <ele>398.6</ele>
        <time>1970-01-01T02:15:15.000Z</time>
      </trkpt>
      <trkpt lat="41.343168" lon="1.933068">
        <ele>398.2</ele>
        <time>1970-01-01T02:15:19.000Z</time>
      </trkpt>
      <trkpt lat="41.34312" lon="1.932881">
        <ele>400.4</ele>
        <time>1970-01-01T02:15:23.000Z</time>
      </trkpt>
      <trkpt lat="41.343085" lon="1.93272">
        <ele>400.6</ele>
        <time>1970-01-01T02:15:27.000Z</time>
      </trkpt>
      <trkpt lat="41.343058" lon="1.93258">
        <ele>402.0</ele>
        <time>1970-01-01T02:15:31.000Z</time>
      </trkpt>
      <trkpt lat="41.343028" lon="1.932426">
        <ele>401.0</ele>
        <time>1970-01-01T02:15:35.000Z</time>
      </trkpt>
      <trkpt lat="41.34308" lon="1.932248">
        <ele>399.4</ele>
        <time>1970-01-01T02:15:39.000Z</time>
      </trkpt>
      <trkpt lat="41.343196" lon="1.932025">
        <ele>399.2</ele>
        <time>1970-01-01T02:15:43.000Z</time>
      </trkpt>
      <trkpt lat="41.343268" lon="1.93182">
        <ele>399.8</ele>
        <time>1970-01-01T02:15:47.000Z</time>
      </trkpt>
      <trkpt lat="41.343245" lon="1.931595">
        <ele>400.0</ele>
        <time>1970-01-01T02:15:51.000Z</time>
      </trkpt>
      <trkpt lat="41.343085" lon="1.931526">
        <ele>399.4</ele>
        <time>1970-01-01T02:15:55.000Z</time>
      </trkpt>
      <trkpt lat="41.342881" lon="1.931528">
        <ele>398.2</ele>
        <time>1970-01-01T02:15:59.000Z</time>
      </trkpt>
      <trkpt lat="41.342636" lon="1.931503">
        <ele>398.0</ele>
        <time>1970-01-01T02:16:03.000Z</time>
      </trkpt>
      <trkpt lat="41.342396" lon="1.93151">
        <ele>398.0</ele>
        <time>1970-01-01T02:16:07.000Z</time>
      </trkpt>
      <trkpt lat="41.342156" lon="1.931583">
        <ele>396.0</ele>
        <time>1970-01-01T02:16:11.000Z</time>
      </trkpt>
      <trkpt lat="41.342051" lon="1.931856">
        <ele>395.2</ele>
        <time>1970-01-01T02:16:15.000Z</time>
      </trkpt>
      <trkpt lat="41.342016" lon="1.932213">
        <ele>393.6</ele>
        <time>1970-01-01T02:16:19.000Z</time>
      </trkpt>
      <trkpt lat="41.34189" lon="1.932451">
        <ele>393.0</ele>
        <time>1970-01-01T02:16:23.000Z</time>
      </trkpt>
      <trkpt lat="41.341678" lon="1.932546">
        <ele>390.8</ele>
        <time>1970-01-01T02:16:27.000Z</time>
      </trkpt>
      <trkpt lat="41.34137" lon="1.932716">
        <ele>389.0</ele>
        <time>1970-01-01T02:16:31.000Z</time>
      </trkpt>
      <trkpt lat="41.341036" lon="1.932895">
        <ele>387.4</ele>
        <time>1970-01-01T02:16:35.000Z</time>
      </trkpt>
      <trkpt lat="41.340693" lon="1.933091">
        <ele>386.6</ele>
        <time>1970-01-01T02:16:39.000Z</time>
      </trkpt>
      <trkpt lat="41.340353" lon="1.933251">
        <ele>385.2</ele>
        <time>1970-01-01T02:16:43.000Z</time>
      </trkpt>
      <trkpt lat="41.340015" lon="1.93339">
        <ele>383.4</ele>
        <time>1970-01-01T02:16:47.000Z</time>
      </trkpt>
      <trkpt lat="41.339681" lon="1.933631">
        <ele>381.4</ele>
        <time>1970-01-01T02:16:51.000Z</time>
      </trkpt>
      <trkpt lat="41.339375" lon="1.933848">
        <ele>380.2</ele>
        <time>1970-01-01T02:16:55.000Z</time>
      </trkpt>
      <trkpt lat="41.33905" lon="1.934036">
        <ele>378.4</ele>
        <time>1970-01-01T02:16:59.000Z</time>
      </trkpt>
      <trkpt lat="41.338715" lon="1.934251">
        <ele>375.0</ele>
        <time>1970-01-01T02:17:03.000Z</time>
      </trkpt>
      <trkpt lat="41.338396" lon="1.934451">
        <ele>373.8</ele>
        <time>1970-01-01T02:17:07.000Z</time>
      </trkpt>
      <trkpt lat="41.338213" lon="1.934365">
        <ele>372.6</ele>
        <time>1970-01-01T02:17:11.000Z</time>
      </trkpt>
      <trkpt lat="41.33804" lon="1.934116">
        <ele>370.8</ele>
        <time>1970-01-01T02:17:15.000Z</time>
      </trkpt>
      <trkpt lat="41.33777" lon="1.933893">
        <ele>368.4</ele>
        <time>1970-01-01T02:17:19.000Z</time>
      </trkpt>
      <trkpt lat="41.337415" lon="1.933875">
        <ele>368.4</ele>
        <time>1970-01-01T02:17:23.000Z</time>
      </trkpt>
      <trkpt lat="41.33709" lon="1.933888">
        <ele>369.8</ele>
        <time>1970-01-01T02:17:27.000Z</time>
      </trkpt>
      <trkpt lat="41.336865" lon="1.933805">
        <ele>370.2</ele>
        <time>1970-01-01T02:17:31.000Z</time>
      </trkpt>
      <trkpt lat="41.336828" lon="1.93356">
        <ele>370.0</ele>
        <time>1970-01-01T02:17:35.000Z</time>
      </trkpt>
      <trkpt lat="41.336751" lon="1.933321">
        <ele>369.8</ele>
        <time>1970-01-01T02:17:39.000Z</time>
      </trkpt>
      <trkpt lat="41.336686" lon="1.933348">
        <ele>370.6</ele>
        <time>1970-01-01T02:17:43.000Z</time>
      </trkpt>
      <trkpt lat="41.336611" lon="1.933388">
        <ele>371.6</ele>
        <time>1970-01-01T02:17:47.000Z</time>
      </trkpt>
      <trkpt lat="41.336541" lon="1.933443">
        <ele>371.6</ele>
        <time>1970-01-01T02:17:51.000Z</time>
      </trkpt>
      <trkpt lat="41.336488" lon="1.933525">
        <ele>371.8</ele>
        <time>1970-01-01T02:17:55.000Z</time>
      </trkpt>
      <trkpt lat="41.336428" lon="1.933603">
        <ele>372.8</ele>
        <time>1970-01-01T02:17:59.000Z</time>
      </trkpt>
      <trkpt lat="41.336348" lon="1.933696">
        <ele>372.4</ele>
        <time>1970-01-01T02:18:03.000Z</time>
      </trkpt>
      <trkpt lat="41.336256" lon="1.933815">
        <ele>372.8</ele>
        <time>1970-01-01T02:18:07.000Z</time>
      </trkpt>
      <trkpt lat="41.336201" lon="1.933945">
        <ele>373.0</ele>
        <time>1970-01-01T02:18:11.000Z</time>
      </trkpt>
      <trkpt lat="41.336118" lon="1.934068">
        <ele>373.8</ele>
        <time>1970-01-01T02:18:15.000Z</time>
      </trkpt>
      <trkpt lat="41.336008" lon="1.934133">
        <ele>374.4</ele>
        <time>1970-01-01T02:18:19.000Z</time>
      </trkpt>
      <trkpt lat="41.335915" lon="1.934221">
        <ele>374.2</ele>
        <time>1970-01-01T02:18:23.000Z</time>
      </trkpt>
      <trkpt lat="41.335836" lon="1.934336">
        <ele>375.6</ele>
        <time>1970-01-01T02:18:27.000Z</time>
      </trkpt>
      <trkpt lat="41.335793" lon="1.934423">
        <ele>376.2</ele>
        <time>1970-01-01T02:18:31.000Z</time>
      </trkpt>
      <trkpt lat="41.335748" lon="1.934625">
        <ele>377.6</ele>
        <time>1970-01-01T02:18:58.000Z</time>
      </trkpt>
      <trkpt lat="41.335768" lon="1.934758">
        <ele>378.0</ele>
        <time>1970-01-01T02:19:02.000Z</time>
      </trkpt>
      <trkpt lat="41.335736" lon="1.934895">
        <ele>378.2</ele>
        <time>1970-01-01T02:19:06.000Z</time>
      </trkpt>
      <trkpt lat="41.335663" lon="1.935023">
        <ele>378.0</ele>
        <time>1970-01-01T02:19:10.000Z</time>
      </trkpt>
      <trkpt lat="41.335586" lon="1.935096">
        <ele>379.4</ele>
        <time>1970-01-01T02:19:14.000Z</time>
      </trkpt>
      <trkpt lat="41.335505" lon="1.935168">
        <ele>379.6</ele>
        <time>1970-01-01T02:19:18.000Z</time>
      </trkpt>
      <trkpt lat="41.335423" lon="1.935245">
        <ele>380.4</ele>
        <time>1970-01-01T02:19:22.000Z</time>
      </trkpt>
      <trkpt lat="41.335386" lon="1.93534">
        <ele>382.0</ele>
        <time>1970-01-01T02:19:26.000Z</time>
      </trkpt>
      <trkpt lat="41.335418" lon="1.935473">
        <ele>382.4</ele>
        <time>1970-01-01T02:19:30.000Z</time>
      </trkpt>
      <trkpt lat="41.335433" lon="1.93562">
        <ele>382.6</ele>
        <time>1970-01-01T02:19:34.000Z</time>
      </trkpt>
      <trkpt lat="41.335468" lon="1.935753">
        <ele>381.8</ele>
        <time>1970-01-01T02:19:38.000Z</time>
      </trkpt>
      <trkpt lat="41.335498" lon="1.935941">
        <ele>382.6</ele>
        <time>1970-01-01T02:19:42.000Z</time>
      </trkpt>
      <trkpt lat="41.335515" lon="1.93604">
        <ele>382.8</ele>
        <time>1970-01-01T02:19:46.000Z</time>
      </trkpt>
      <trkpt lat="41.335545" lon="1.936175">
        <ele>383.4</ele>
        <time>1970-01-01T02:19:50.000Z</time>
      </trkpt>
      <trkpt lat="41.335556" lon="1.93628">
        <ele>383.4</ele>
        <time>1970-01-01T02:19:54.000Z</time>
      </trkpt>
      <trkpt lat="41.335565" lon="1.936376">
        <ele>384.6</ele>
        <time>1970-01-01T02:19:58.000Z</time>
      </trkpt>
      <trkpt lat="41.335571" lon="1.936468">
        <ele>385.8</ele>
        <time>1970-01-01T02:20:02.000Z</time>
      </trkpt>
      <trkpt lat="41.335566" lon="1.936536">
        <ele>385.8</ele>
        <time>1970-01-01T02:20:06.000Z</time>
      </trkpt>
      <trkpt lat="41.335556" lon="1.936611">
        <ele>386.4</ele>
        <time>1970-01-01T02:20:10.000Z</time>
      </trkpt>
      <trkpt lat="41.335545" lon="1.9367">
        <ele>386.8</ele>
        <time>1970-01-01T02:20:14.000Z</time>
      </trkpt>
      <trkpt lat="41.335536" lon="1.936803">
        <ele>387.8</ele>
        <time>1970-01-01T02:20:18.000Z</time>
      </trkpt>
      <trkpt lat="41.33551" lon="1.93687">
        <ele>388.0</ele>
        <time>1970-01-01T02:20:22.000Z</time>
      </trkpt>
      <trkpt lat="41.335478" lon="1.936951">
        <ele>388.4</ele>
        <time>1970-01-01T02:20:26.000Z</time>
      </trkpt>
      <trkpt lat="41.335455" lon="1.937013">
        <ele>390.2</ele>
        <time>1970-01-01T02:20:30.000Z</time>
      </trkpt>
      <trkpt lat="41.335481" lon="1.937125">
        <ele>391.0</ele>
        <time>1970-01-01T02:20:34.000Z</time>
      </trkpt>
      <trkpt lat="41.335508" lon="1.93721">
        <ele>392.6</ele>
        <time>1970-01-01T02:20:38.000Z</time>
      </trkpt>
      <trkpt lat="41.33552" lon="1.937291">
        <ele>392.8</ele>
        <time>1970-01-01T02:20:42.000Z</time>
      </trkpt>
      <trkpt lat="41.335518" lon="1.937355">
        <ele>393.8</ele>
        <time>1970-01-01T02:20:46.000Z</time>
      </trkpt>
      <trkpt lat="41.335503" lon="1.93741">
        <ele>393.8</ele>
        <time>1970-01-01T02:20:50.000Z</time>
      </trkpt>
      <trkpt lat="41.335475" lon="1.937456">
        <ele>394.4</ele>
        <time>1970-01-01T02:20:54.000Z</time>
      </trkpt>
      <trkpt lat="41.33542" lon="1.937468">
        <ele>395.2</ele>
        <time>1970-01-01T02:20:58.000Z</time>
      </trkpt>
      <trkpt lat="41.335368" lon="1.937465">
        <ele>395.4</ele>
        <time>1970-01-01T02:21:02.000Z</time>
      </trkpt>
      <trkpt lat="41.335303" lon="1.937443">
        <ele>396.0</ele>
        <time>1970-01-01T02:21:06.000Z</time>
      </trkpt>
      <trkpt lat="41.335251" lon="1.937426">
        <ele>397.6</ele>
        <time>1970-01-01T02:21:10.000Z</time>
      </trkpt>
      <trkpt lat="41.335193" lon="1.937401">
        <ele>397.8</ele>
        <time>1970-01-01T02:21:14.000Z</time>
      </trkpt>
      <trkpt lat="41.335151" lon="1.937355">
        <ele>398.4</ele>
        <time>1970-01-01T02:21:18.000Z</time>
      </trkpt>
      <trkpt lat="41.335123" lon="1.937306">
        <ele>400.0</ele>
        <time>1970-01-01T02:21:22.000Z</time>
      </trkpt>
      <trkpt lat="41.335086" lon="1.93725">
        <ele>399.8</ele>
        <time>1970-01-01T02:21:26.000Z</time>
      </trkpt>
      <trkpt lat="41.335053" lon="1.937206">
        <ele>400.4</ele>
        <time>1970-01-01T02:21:30.000Z</time>
      </trkpt>
      <trkpt lat="41.335033" lon="1.937145">
        <ele>400.6</ele>
        <time>1970-01-01T02:21:34.000Z</time>
      </trkpt>
      <trkpt lat="41.335005" lon="1.937073">
        <ele>401.0</ele>
        <time>1970-01-01T02:21:38.000Z</time>
      </trkpt>
      <trkpt lat="41.33497" lon="1.936978">
        <ele>400.6</ele>
        <time>1970-01-01T02:21:42.000Z</time>
      </trkpt>
      <trkpt lat="41.334945" lon="1.936883">
        <ele>401.2</ele>
        <time>1970-01-01T02:21:46.000Z</time>
      </trkpt>
      <trkpt lat="41.33492" lon="1.936798">
        <ele>402.0</ele>
        <time>1970-01-01T02:21:50.000Z</time>
      </trkpt>
      <trkpt lat="41.334896" lon="1.936715">
        <ele>402.4</ele>
        <time>1970-01-01T02:21:54.000Z</time>
      </trkpt>
      <trkpt lat="41.334873" lon="1.936635">
        <ele>403.2</ele>
        <time>1970-01-01T02:21:58.000Z</time>
      </trkpt>
      <trkpt lat="41.334841" lon="1.936633">
        <ele>403.8</ele>
        <time>1970-01-01T02:22:02.000Z</time>
      </trkpt>
      <trkpt lat="41.334816" lon="1.936703">
        <ele>405.0</ele>
        <time>1970-01-01T02:22:06.000Z</time>
      </trkpt>
      <trkpt lat="41.334793" lon="1.936783">
        <ele>405.6</ele>
        <time>1970-01-01T02:22:10.000Z</time>
      </trkpt>
      <trkpt lat="41.334795" lon="1.93687">
        <ele>405.6</ele>
        <time>1970-01-01T02:22:14.000Z</time>
      </trkpt>
      <trkpt lat="41.334811" lon="1.93699">
        <ele>405.0</ele>
        <time>1970-01-01T02:22:18.000Z</time>
      </trkpt>
      <trkpt lat="41.334841" lon="1.937173">
        <ele>404.0</ele>
        <time>1970-01-01T02:22:22.000Z</time>
      </trkpt>
      <trkpt lat="41.334863" lon="1.937383">
        <ele>403.4</ele>
        <time>1970-01-01T02:22:26.000Z</time>
      </trkpt>
      <trkpt lat="41.334893" lon="1.937578">
        <ele>405.8</ele>
        <time>1970-01-01T02:22:30.000Z</time>
      </trkpt>
      <trkpt lat="41.334878" lon="1.937686">
        <ele>406.6</ele>
        <time>1970-01-01T02:22:34.000Z</time>
      </trkpt>
      <trkpt lat="41.334835" lon="1.937751">
        <ele>408.0</ele>
        <time>1970-01-01T02:22:38.000Z</time>
      </trkpt>
      <trkpt lat="41.334801" lon="1.937798">
        <ele>408.4</ele>
        <time>1970-01-01T02:22:42.000Z</time>
      </trkpt>
      <trkpt lat="41.334741" lon="1.937845">
        <ele>408.8</ele>
        <time>1970-01-01T02:22:46.000Z</time>
      </trkpt>
      <trkpt lat="41.334701" lon="1.937911">
        <ele>408.8</ele>
        <time>1970-01-01T02:22:50.000Z</time>
      </trkpt>
      <trkpt lat="41.334658" lon="1.93802">
        <ele>407.8</ele>
        <time>1970-01-01T02:22:54.000Z</time>
      </trkpt>
      <trkpt lat="41.334621" lon="1.938145">
        <ele>407.0</ele>
        <time>1970-01-01T02:22:58.000Z</time>
      </trkpt>
      <trkpt lat="41.334573" lon="1.93828">
        <ele>406.8</ele>
        <time>1970-01-01T02:23:02.000Z</time>
      </trkpt>
      <trkpt lat="41.334488" lon="1.938453">
        <ele>407.6</ele>
        <time>1970-01-01T02:23:06.000Z</time>
      </trkpt>
      <trkpt lat="41.334395" lon="1.93859">
        <ele>408.2</ele>
        <time>1970-01-01T02:23:10.000Z</time>
      </trkpt>
      <trkpt lat="41.334298" lon="1.93869">
        <ele>409.4</ele>
        <time>1970-01-01T02:23:14.000Z</time>
      </trkpt>
      <trkpt lat="41.334253" lon="1.938823">
        <ele>410.2</ele>
        <time>1970-01-01T02:23:18.000Z</time>
      </trkpt>
      <trkpt lat="41.334196" lon="1.938966">
        <ele>411.0</ele>
        <time>1970-01-01T02:23:22.000Z</time>
      </trkpt>
      <trkpt lat="41.334151" lon="1.939101">
        <ele>410.6</ele>
        <time>1970-01-01T02:23:26.000Z</time>
      </trkpt>
      <trkpt lat="41.33413" lon="1.939231">
        <ele>411.4</ele>
        <time>1970-01-01T02:23:30.000Z</time>
      </trkpt>
      <trkpt lat="41.334083" lon="1.939323">
        <ele>411.4</ele>
        <time>1970-01-01T02:23:34.000Z</time>
      </trkpt>
      <trkpt lat="41.334038" lon="1.939433">
        <ele>412.2</ele>
        <time>1970-01-01T02:23:38.000Z</time>
      </trkpt>
      <trkpt lat="41.333966" lon="1.939508">
        <ele>412.4</ele>
        <time>1970-01-01T02:23:42.000Z</time>
      </trkpt>
      <trkpt lat="41.333903" lon="1.939496">
        <ele>412.4</ele>
        <time>1970-01-01T02:23:46.000Z</time>
      </trkpt>
      <trkpt lat="41.333856" lon="1.939378">
        <ele>413.2</ele>
        <time>1970-01-01T02:23:50.000Z</time>
      </trkpt>
      <trkpt lat="41.333796" lon="1.939243">
        <ele>411.4</ele>
        <time>1970-01-01T02:23:54.000Z</time>
      </trkpt>
      <trkpt lat="41.33376" lon="1.939041">
        <ele>412.4</ele>
        <time>1970-01-01T02:23:58.000Z</time>
      </trkpt>
      <trkpt lat="41.333715" lon="1.938815">
        <ele>412.6</ele>
        <time>1970-01-01T02:24:02.000Z</time>
      </trkpt>
      <trkpt lat="41.333691" lon="1.938591">
        <ele>412.6</ele>
        <time>1970-01-01T02:24:06.000Z</time>
      </trkpt>
      <trkpt lat="41.333665" lon="1.938365">
        <ele>412.2</ele>
        <time>1970-01-01T02:24:10.000Z</time>
      </trkpt>
      <trkpt lat="41.333618" lon="1.938245">
        <ele>411.8</ele>
        <time>1970-01-01T02:24:14.000Z</time>
      </trkpt>
      <trkpt lat="41.333563" lon="1.938326">
        <ele>410.6</ele>
        <time>1970-01-01T02:24:18.000Z</time>
      </trkpt>
      <trkpt lat="41.333461" lon="1.938465">
        <ele>409.0</ele>
        <time>1970-01-01T02:24:22.000Z</time>
      </trkpt>
      <trkpt lat="41.333328" lon="1.938638">
        <ele>406.8</ele>
        <time>1970-01-01T02:24:26.000Z</time>
      </trkpt>
      <trkpt lat="41.333216" lon="1.938805">
        <ele>405.0</ele>
        <time>1970-01-01T02:24:30.000Z</time>
      </trkpt>
      <trkpt lat="41.333051" lon="1.939005">
        <ele>403.8</ele>
        <time>1970-01-01T02:24:34.000Z</time>
      </trkpt>
      <trkpt lat="41.332865" lon="1.939183">
        <ele>405.2</ele>
        <time>1970-01-01T02:24:38.000Z</time>
      </trkpt>
      <trkpt lat="41.332733" lon="1.93936">
        <ele>404.4</ele>
        <time>1970-01-01T02:24:42.000Z</time>
      </trkpt>
      <trkpt lat="41.332601" lon="1.939531">
        <ele>404.0</ele>
        <time>1970-01-01T02:24:46.000Z</time>
      </trkpt>
      <trkpt lat="41.332483" lon="1.93971">
        <ele>402.4</ele>
        <time>1970-01-01T02:24:50.000Z</time>
      </trkpt>
      <trkpt lat="41.332345" lon="1.939753">
        <ele>400.0</ele>
        <time>1970-01-01T02:24:54.000Z</time>
      </trkpt>
      <trkpt lat="41.332253" lon="1.939828">
        <ele>398.8</ele>
        <time>1970-01-01T02:24:58.000Z</time>
      </trkpt>
      <trkpt lat="41.332256" lon="1.93998">
        <ele>397.6</ele>
        <time>1970-01-01T02:25:02.000Z</time>
      </trkpt>
      <trkpt lat="41.332163" lon="1.940098">
        <ele>395.2</ele>
        <time>1970-01-01T02:25:06.000Z</time>
      </trkpt>
      <trkpt lat="41.332035" lon="1.94003">
        <ele>392.8</ele>
        <time>1970-01-01T02:25:10.000Z</time>
      </trkpt>
      <trkpt lat="41.331903" lon="1.939835">
        <ele>391.0</ele>
        <time>1970-01-01T02:25:14.000Z</time>
      </trkpt>
      <trkpt lat="41.331768" lon="1.939555">
        <ele>389.0</ele>
        <time>1970-01-01T02:25:18.000Z</time>
      </trkpt>
      <trkpt lat="41.331705" lon="1.939186">
        <ele>387.2</ele>
        <time>1970-01-01T02:25:22.000Z</time>
      </trkpt>
      <trkpt lat="41.331688" lon="1.938853">
        <ele>386.2</ele>
        <time>1970-01-01T02:25:26.000Z</time>
      </trkpt>
      <trkpt lat="41.331535" lon="1.938675">
        <ele>381.8</ele>
        <time>1970-01-01T02:25:30.000Z</time>
      </trkpt>
      <trkpt lat="41.33125" lon="1.938445">
        <ele>376.2</ele>
        <time>1970-01-01T02:25:34.000Z</time>
      </trkpt>
      <trkpt lat="41.330915" lon="1.938148">
        <ele>373.4</ele>
        <time>1970-01-01T02:25:38.000Z</time>
      </trkpt>
      <trkpt lat="41.330633" lon="1.93789">
        <ele>372.4</ele>
        <time>1970-01-01T02:25:42.000Z</time>
      </trkpt>
      <trkpt lat="41.330443" lon="1.93776">
        <ele>371.8</ele>
        <time>1970-01-01T02:25:46.000Z</time>
      </trkpt>
      <trkpt lat="41.330361" lon="1.937896">
        <ele>371.4</ele>
        <time>1970-01-01T02:25:50.000Z</time>
      </trkpt>
      <trkpt lat="41.330321" lon="1.938145">
        <ele>370.8</ele>
        <time>1970-01-01T02:25:54.000Z</time>
      </trkpt>
      <trkpt lat="41.330213" lon="1.93838">
        <ele>370.2</ele>
        <time>1970-01-01T02:25:58.000Z</time>
      </trkpt>
      <trkpt lat="41.33007" lon="1.938591">
        <ele>370.0</ele>
        <time>1970-01-01T02:26:02.000Z</time>
      </trkpt>
      <trkpt lat="41.329913" lon="1.938826">
        <ele>369.6</ele>
        <time>1970-01-01T02:26:06.000Z</time>
      </trkpt>
      <trkpt lat="41.329771" lon="1.939073">
        <ele>369.6</ele>
        <time>1970-01-01T02:26:10.000Z</time>
      </trkpt>
      <trkpt lat="41.329746" lon="1.939395">
        <ele>369.2</ele>
        <time>1970-01-01T02:26:14.000Z</time>
      </trkpt>
      <trkpt lat="41.329843" lon="1.939731">
        <ele>369.4</ele>
        <time>1970-01-01T02:26:18.000Z</time>
      </trkpt>
      <trkpt lat="41.329951" lon="1.940071">
        <ele>369.6</ele>
        <time>1970-01-01T02:26:22.000Z</time>
      </trkpt>
      <trkpt lat="41.330041" lon="1.940401">
        <ele>370.2</ele>
        <time>1970-01-01T02:26:26.000Z</time>
      </trkpt>
      <trkpt lat="41.330098" lon="1.94072">
        <ele>371.6</ele>
        <time>1970-01-01T02:26:30.000Z</time>
      </trkpt>
      <trkpt lat="41.330191" lon="1.940945">
        <ele>371.8</ele>
        <time>1970-01-01T02:26:34.000Z</time>
      </trkpt>
      <trkpt lat="41.330308" lon="1.941143">
        <ele>371.8</ele>
        <time>1970-01-01T02:26:38.000Z</time>
      </trkpt>
      <trkpt lat="41.330403" lon="1.94132">
        <ele>372.0</ele>
        <time>1970-01-01T02:26:42.000Z</time>
      </trkpt>
      <trkpt lat="41.330503" lon="1.941486">
        <ele>372.6</ele>
        <time>1970-01-01T02:26:46.000Z</time>
      </trkpt>
      <trkpt lat="41.330603" lon="1.941646">
        <ele>372.6</ele>
        <time>1970-01-01T02:26:50.000Z</time>
      </trkpt>
      <trkpt lat="41.330703" lon="1.941791">
        <ele>372.8</ele>
        <time>1970-01-01T02:26:54.000Z</time>
      </trkpt>
      <trkpt lat="41.330806" lon="1.94194">
        <ele>372.6</ele>
        <time>1970-01-01T02:26:58.000Z</time>
      </trkpt>
      <trkpt lat="41.330913" lon="1.942098">
        <ele>373.8</ele>
        <time>1970-01-01T02:27:02.000Z</time>
      </trkpt>
      <trkpt lat="41.331018" lon="1.942258">
        <ele>374.0</ele>
        <time>1970-01-01T02:27:06.000Z</time>
      </trkpt>
      <trkpt lat="41.331138" lon="1.942445">
        <ele>374.8</ele>
        <time>1970-01-01T02:27:10.000Z</time>
      </trkpt>
      <trkpt lat="41.331243" lon="1.942623">
        <ele>376.2</ele>
        <time>1970-01-01T02:27:14.000Z</time>
      </trkpt>
      <trkpt lat="41.331351" lon="1.942771">
        <ele>376.6</ele>
        <time>1970-01-01T02:27:18.000Z</time>
      </trkpt>
      <trkpt lat="41.331478" lon="1.942908">
        <ele>377.4</ele>
        <time>1970-01-01T02:27:22.000Z</time>
      </trkpt>
      <trkpt lat="41.331593" lon="1.94306">
        <ele>376.8</ele>
        <time>1970-01-01T02:27:26.000Z</time>
      </trkpt>
      <trkpt lat="41.331698" lon="1.943206">
        <ele>377.6</ele>
        <time>1970-01-01T02:27:30.000Z</time>
      </trkpt>
      <trkpt lat="41.3318" lon="1.943345">
        <ele>378.0</ele>
        <time>1970-01-01T02:27:34.000Z</time>
      </trkpt>
      <trkpt lat="41.331946" lon="1.943478">
        <ele>378.0</ele>
        <time>1970-01-01T02:27:38.000Z</time>
      </trkpt>
      <trkpt lat="41.332136" lon="1.943503">
        <ele>378.6</ele>
        <time>1970-01-01T02:27:42.000Z</time>
      </trkpt>
      <trkpt lat="41.332308" lon="1.943568">
        <ele>377.8</ele>
        <time>1970-01-01T02:27:46.000Z</time>
      </trkpt>
      <trkpt lat="41.332483" lon="1.943716">
        <ele>375.2</ele>
        <time>1970-01-01T02:27:50.000Z</time>
      </trkpt>
      <trkpt lat="41.332628" lon="1.944038">
        <ele>370.4</ele>
        <time>1970-01-01T02:27:54.000Z</time>
      </trkpt>
      <trkpt lat="41.332908" lon="1.944358">
        <ele>365.4</ele>
        <time>1970-01-01T02:27:58.000Z</time>
      </trkpt>
      <trkpt lat="41.333215" lon="1.944795">
        <ele>359.6</ele>
        <time>1970-01-01T02:28:02.000Z</time>
      </trkpt>
      <trkpt lat="41.333531" lon="1.9452">
        <ele>352.0</ele>
        <time>1970-01-01T02:28:06.000Z</time>
      </trkpt>
      <trkpt lat="41.333966" lon="1.945501">
        <ele>345.2</ele>
        <time>1970-01-01T02:28:10.000Z</time>
      </trkpt>
      <trkpt lat="41.334475" lon="1.945586">
        <ele>338.0</ele>
        <time>1970-01-01T02:28:14.000Z</time>
      </trkpt>
      <trkpt lat="41.334998" lon="1.945583">
        <ele>331.0</ele>
        <time>1970-01-01T02:28:18.000Z</time>
      </trkpt>
      <trkpt lat="41.335528" lon="1.94562">
        <ele>326.4</ele>
        <time>1970-01-01T02:28:22.000Z</time>
      </trkpt>
      <trkpt lat="41.336056" lon="1.945673">
        <ele>322.6</ele>
        <time>1970-01-01T02:28:26.000Z</time>
      </trkpt>
      <trkpt lat="41.336395" lon="1.9457">
        <ele>322.2</ele>
        <time>1970-01-01T02:28:30.000Z</time>
      </trkpt>
      <trkpt lat="41.336495" lon="1.94577">
        <ele>320.4</ele>
        <time>1970-01-01T02:28:34.000Z</time>
      </trkpt>
      <trkpt lat="41.336406" lon="1.945795">
        <ele>316.4</ele>
        <time>1970-01-01T02:28:38.000Z</time>
      </trkpt>
      <trkpt lat="41.336188" lon="1.945883">
        <ele>313.6</ele>
        <time>1970-01-01T02:28:42.000Z</time>
      </trkpt>
      <trkpt lat="41.33596" lon="1.945931">
        <ele>310.0</ele>
        <time>1970-01-01T02:28:46.000Z</time>
      </trkpt>
      <trkpt lat="41.3357" lon="1.946061">
        <ele>307.8</ele>
        <time>1970-01-01T02:28:50.000Z</time>
      </trkpt>
      <trkpt lat="41.335396" lon="1.946178">
        <ele>304.4</ele>
        <time>1970-01-01T02:28:54.000Z</time>
      </trkpt>
      <trkpt lat="41.335178" lon="1.946351">
        <ele>300.8</ele>
        <time>1970-01-01T02:28:58.000Z</time>
      </trkpt>
      <trkpt lat="41.33521" lon="1.946678">
        <ele>295.0</ele>
        <time>1970-01-01T02:29:02.000Z</time>
      </trkpt>
      <trkpt lat="41.3353" lon="1.946986">
        <ele>289.0</ele>
        <time>1970-01-01T02:29:06.000Z</time>
      </trkpt>
      <trkpt lat="41.33533" lon="1.947373">
        <ele>283.4</ele>
        <time>1970-01-01T02:29:10.000Z</time>
      </trkpt>
      <trkpt lat="41.335335" lon="1.947758">
        <ele>279.0</ele>
        <time>1970-01-01T02:29:14.000Z</time>
      </trkpt>
      <trkpt lat="41.33528" lon="1.94808">
        <ele>274.8</ele>
        <time>1970-01-01T02:29:18.000Z</time>
      </trkpt>
      <trkpt lat="41.335276" lon="1.948391">
        <ele>272.4</ele>
        <time>1970-01-01T02:29:22.000Z</time>
      </trkpt>
      <trkpt lat="41.335211" lon="1.94865">
        <ele>267.2</ele>
        <time>1970-01-01T02:29:26.000Z</time>
      </trkpt>
      <trkpt lat="41.33506" lon="1.948913">
        <ele>263.2</ele>
        <time>1970-01-01T02:29:30.000Z</time>
      </trkpt>
      <trkpt lat="41.334891" lon="1.949165">
        <ele>257.8</ele>
        <time>1970-01-01T02:29:34.000Z</time>
      </trkpt>
      <trkpt lat="41.334735" lon="1.949365">
        <ele>252.6</ele>
        <time>1970-01-01T02:29:38.000Z</time>
      </trkpt>
      <trkpt lat="41.334651" lon="1.949666">
        <ele>250.2</ele>
        <time>1970-01-01T02:29:42.000Z</time>
      </trkpt>
      <trkpt lat="41.334545" lon="1.949866">
        <ele>246.4</ele>
        <time>1970-01-01T02:29:46.000Z</time>
      </trkpt>
      <trkpt lat="41.33451" lon="1.950138">
        <ele>245.2</ele>
        <time>1970-01-01T02:29:50.000Z</time>
      </trkpt>
      <trkpt lat="41.334666" lon="1.950341">
        <ele>245.0</ele>
        <time>1970-01-01T02:29:54.000Z</time>
      </trkpt>
      <trkpt lat="41.334828" lon="1.950376">
        <ele>244.6</ele>
        <time>1970-01-01T02:29:58.000Z</time>
      </trkpt>
      <trkpt lat="41.334968" lon="1.95059">
        <ele>244.4</ele>
        <time>1970-01-01T02:30:02.000Z</time>
      </trkpt>
      <trkpt lat="41.335061" lon="1.950768">
        <ele>246.0</ele>
        <time>1970-01-01T02:30:06.000Z</time>
      </trkpt>
      <trkpt lat="41.335128" lon="1.950883">
        <ele>247.2</ele>
        <time>1970-01-01T02:30:10.000Z</time>
      </trkpt>
      <trkpt lat="41.335206" lon="1.95096">
        <ele>250.0</ele>
        <time>1970-01-01T02:30:14.000Z</time>
      </trkpt>
      <trkpt lat="41.335266" lon="1.951046">
        <ele>250.6</ele>
        <time>1970-01-01T02:30:18.000Z</time>
      </trkpt>
      <trkpt lat="41.335305" lon="1.951151">
        <ele>252.8</ele>
        <time>1970-01-01T02:30:22.000Z</time>
      </trkpt>
      <trkpt lat="41.335341" lon="1.951256">
        <ele>253.0</ele>
        <time>1970-01-01T02:30:26.000Z</time>
      </trkpt>
      <trkpt lat="41.335381" lon="1.95137">
        <ele>254.4</ele>
        <time>1970-01-01T02:30:30.000Z</time>
      </trkpt>
      <trkpt lat="41.335425" lon="1.951501">
        <ele>256.0</ele>
        <time>1970-01-01T02:30:34.000Z</time>
      </trkpt>
      <trkpt lat="41.335458" lon="1.951648">
        <ele>255.4</ele>
        <time>1970-01-01T02:30:38.000Z</time>
      </trkpt>
      <trkpt lat="41.335475" lon="1.951793">
        <ele>256.0</ele>
        <time>1970-01-01T02:30:42.000Z</time>
      </trkpt>
      <trkpt lat="41.33547" lon="1.951898">
        <ele>257.2</ele>
        <time>1970-01-01T02:30:46.000Z</time>
      </trkpt>
      <trkpt lat="41.33545" lon="1.951978">
        <ele>258.4</ele>
        <time>1970-01-01T02:30:50.000Z</time>
      </trkpt>
      <trkpt lat="41.335438" lon="1.952086">
        <ele>258.8</ele>
        <time>1970-01-01T02:30:54.000Z</time>
      </trkpt>
      <trkpt lat="41.335448" lon="1.95217">
        <ele>260.6</ele>
        <time>1970-01-01T02:30:58.000Z</time>
      </trkpt>
      <trkpt lat="41.335478" lon="1.952241">
        <ele>261.4</ele>
        <time>1970-01-01T02:31:02.000Z</time>
      </trkpt>
      <trkpt lat="41.335515" lon="1.952288">
        <ele>261.8</ele>
        <time>1970-01-01T02:31:06.000Z</time>
      </trkpt>
      <trkpt lat="41.33556" lon="1.95236">
        <ele>263.2</ele>
        <time>1970-01-01T02:31:10.000Z</time>
      </trkpt>
      <trkpt lat="41.335588" lon="1.952453">
        <ele>263.2</ele>
        <time>1970-01-01T02:31:14.000Z</time>
      </trkpt>
      <trkpt lat="41.335636" lon="1.952556">
        <ele>263.4</ele>
        <time>1970-01-01T02:31:18.000Z</time>
      </trkpt>
      <trkpt lat="41.335713" lon="1.952638">
        <ele>263.8</ele>
        <time>1970-01-01T02:31:22.000Z</time>
      </trkpt>
      <trkpt lat="41.335773" lon="1.9527">
        <ele>262.8</ele>
        <time>1970-01-01T02:31:26.000Z</time>
      </trkpt>
      <trkpt lat="41.335823" lon="1.952785">
        <ele>262.6</ele>
        <time>1970-01-01T02:31:30.000Z</time>
      </trkpt>
      <trkpt lat="41.335916" lon="1.952906">
        <ele>261.6</ele>
        <time>1970-01-01T02:31:34.000Z</time>
      </trkpt>
      <trkpt lat="41.33603" lon="1.953075">
        <ele>263.2</ele>
        <time>1970-01-01T02:31:38.000Z</time>
      </trkpt>
      <trkpt lat="41.336095" lon="1.953231">
        <ele>264.0</ele>
        <time>1970-01-01T02:31:42.000Z</time>
      </trkpt>
      <trkpt lat="41.336165" lon="1.953343">
        <ele>264.4</ele>
        <time>1970-01-01T02:31:46.000Z</time>
      </trkpt>
      <trkpt lat="41.336243" lon="1.953445">
        <ele>264.4</ele>
        <time>1970-01-01T02:31:50.000Z</time>
      </trkpt>
      <trkpt lat="41.336301" lon="1.953598">
        <ele>261.8</ele>
        <time>1970-01-01T02:31:54.000Z</time>
      </trkpt>
      <trkpt lat="41.336386" lon="1.953825">
        <ele>260.6</ele>
        <time>1970-01-01T02:31:58.000Z</time>
      </trkpt>
      <trkpt lat="41.336445" lon="1.95401">
        <ele>259.2</ele>
        <time>1970-01-01T02:32:02.000Z</time>
      </trkpt>
      <trkpt lat="41.336583" lon="1.954113">
        <ele>253.2</ele>
        <time>1970-01-01T02:32:06.000Z</time>
      </trkpt>
      <trkpt lat="41.33669" lon="1.95427">
        <ele>250.6</ele>
        <time>1970-01-01T02:32:10.000Z</time>
      </trkpt>
      <trkpt lat="41.336818" lon="1.954478">
        <ele>247.8</ele>
        <time>1970-01-01T02:32:14.000Z</time>
      </trkpt>
      <trkpt lat="41.336975" lon="1.95469">
        <ele>246.2</ele>
        <time>1970-01-01T02:32:18.000Z</time>
      </trkpt>
      <trkpt lat="41.337133" lon="1.954885">
        <ele>243.2</ele>
        <time>1970-01-01T02:32:22.000Z</time>
      </trkpt>
      <trkpt lat="41.337265" lon="1.955028">
        <ele>238.4</ele>
        <time>1970-01-01T02:32:26.000Z</time>
      </trkpt>
      <trkpt lat="41.337435" lon="1.955233">
        <ele>237.8</ele>
        <time>1970-01-01T02:32:30.000Z</time>
      </trkpt>
      <trkpt lat="41.337566" lon="1.955431">
        <ele>233.8</ele>
        <time>1970-01-01T02:32:34.000Z</time>
      </trkpt>
      <trkpt lat="41.337713" lon="1.955643">
        <ele>230.0</ele>
        <time>1970-01-01T02:32:38.000Z</time>
      </trkpt>
      <trkpt lat="41.337851" lon="1.955823">
        <ele>226.4</ele>
        <time>1970-01-01T02:32:42.000Z</time>
      </trkpt>
      <trkpt lat="41.337968" lon="1.95602">
        <ele>223.2</ele>
        <time>1970-01-01T02:32:46.000Z</time>
      </trkpt>
      <trkpt lat="41.338015" lon="1.95627">
        <ele>219.6</ele>
        <time>1970-01-01T02:32:50.000Z</time>
      </trkpt>
      <trkpt lat="41.338066" lon="1.956623">
        <ele>218.0</ele>
        <time>1970-01-01T02:32:54.000Z</time>
      </trkpt>
      <trkpt lat="41.338048" lon="1.956886">
        <ele>214.8</ele>
        <time>1970-01-01T02:32:58.000Z</time>
      </trkpt>
      <trkpt lat="41.338071" lon="1.957051">
        <ele>210.4</ele>
        <time>1970-01-01T02:33:02.000Z</time>
      </trkpt>
      <trkpt lat="41.338218" lon="1.957201">
        <ele>207.0</ele>
        <time>1970-01-01T02:33:06.000Z</time>
      </trkpt>
      <trkpt lat="41.338323" lon="1.957346">
        <ele>205.0</ele>
        <time>1970-01-01T02:33:10.000Z</time>
      </trkpt>
      <trkpt lat="41.338371" lon="1.957566">
        <ele>204.4</ele>
        <time>1970-01-01T02:33:14.000Z</time>
      </trkpt>
      <trkpt lat="41.33832" lon="1.957791">
        <ele>204.8</ele>
        <time>1970-01-01T02:33:18.000Z</time>
      </trkpt>
      <trkpt lat="41.338235" lon="1.957821">
        <ele>206.0</ele>
        <time>1970-01-01T02:33:22.000Z</time>
      </trkpt>
      <trkpt lat="41.338151" lon="1.957793">
        <ele>208.0</ele>
        <time>1970-01-01T02:33:26.000Z</time>
      </trkpt>
      <trkpt lat="41.33803" lon="1.957771">
        <ele>209.2</ele>
        <time>1970-01-01T02:33:30.000Z</time>
      </trkpt>
      <trkpt lat="41.337911" lon="1.957731">
        <ele>210.8</ele>
        <time>1970-01-01T02:33:34.000Z</time>
      </trkpt>
      <trkpt lat="41.337785" lon="1.957683">
        <ele>211.4</ele>
        <time>1970-01-01T02:33:38.000Z</time>
      </trkpt>
      <trkpt lat="41.337658" lon="1.957618">
        <ele>211.2</ele>
        <time>1970-01-01T02:33:42.000Z</time>
      </trkpt>
      <trkpt lat="41.33753" lon="1.95756">
        <ele>212.8</ele>
        <time>1970-01-01T02:33:46.000Z</time>
      </trkpt>
      <trkpt lat="41.337396" lon="1.957506">
        <ele>213.4</ele>
        <time>1970-01-01T02:33:50.000Z</time>
      </trkpt>
      <trkpt lat="41.337278" lon="1.957413">
        <ele>212.4</ele>
        <time>1970-01-01T02:33:54.000Z</time>
      </trkpt>
      <trkpt lat="41.337131" lon="1.957266">
        <ele>213.2</ele>
        <time>1970-01-01T02:33:58.000Z</time>
      </trkpt>
      <trkpt lat="41.336961" lon="1.957116">
        <ele>213.4</ele>
        <time>1970-01-01T02:34:02.000Z</time>
      </trkpt>
      <trkpt lat="41.336835" lon="1.956998">
        <ele>215.0</ele>
        <time>1970-01-01T02:34:06.000Z</time>
      </trkpt>
      <trkpt lat="41.336743" lon="1.956891">
        <ele>216.8</ele>
        <time>1970-01-01T02:34:10.000Z</time>
      </trkpt>
      <trkpt lat="41.336665" lon="1.956763">
        <ele>218.0</ele>
        <time>1970-01-01T02:34:14.000Z</time>
      </trkpt>
      <trkpt lat="41.3366" lon="1.956658">
        <ele>218.4</ele>
        <time>1970-01-01T02:34:18.000Z</time>
      </trkpt>
      <trkpt lat="41.336518" lon="1.956556">
        <ele>218.6</ele>
        <time>1970-01-01T02:34:22.000Z</time>
      </trkpt>
      <trkpt lat="41.336418" lon="1.956453">
        <ele>218.8</ele>
        <time>1970-01-01T02:34:26.000Z</time>
      </trkpt>
      <trkpt lat="41.33632" lon="1.956328">
        <ele>219.6</ele>
        <time>1970-01-01T02:34:30.000Z</time>
      </trkpt>
      <trkpt lat="41.336233" lon="1.956198">
        <ele>220.0</ele>
        <time>1970-01-01T02:34:34.000Z</time>
      </trkpt>
      <trkpt lat="41.33616" lon="1.956073">
        <ele>221.6</ele>
        <time>1970-01-01T02:34:38.000Z</time>
      </trkpt>
      <trkpt lat="41.336103" lon="1.955978">
        <ele>222.6</ele>
        <time>1970-01-01T02:34:42.000Z</time>
      </trkpt>
      <trkpt lat="41.336056" lon="1.95589">
        <ele>223.0</ele>
        <time>1970-01-01T02:34:46.000Z</time>
      </trkpt>
      <trkpt lat="41.336021" lon="1.955773">
        <ele>223.8</ele>
        <time>1970-01-01T02:34:50.000Z</time>
      </trkpt>
      <trkpt lat="41.335991" lon="1.955646">
        <ele>224.0</ele>
        <time>1970-01-01T02:34:54.000Z</time>
      </trkpt>
      <trkpt lat="41.335953" lon="1.955536">
        <ele>224.6</ele>
        <time>1970-01-01T02:34:58.000Z</time>
      </trkpt>
      <trkpt lat="41.33588" lon="1.955476">
        <ele>225.0</ele>
        <time>1970-01-01T02:35:02.000Z</time>
      </trkpt>
      <trkpt lat="41.335798" lon="1.955458">
        <ele>225.4</ele>
        <time>1970-01-01T02:35:06.000Z</time>
      </trkpt>
      <trkpt lat="41.335721" lon="1.955451">
        <ele>227.6</ele>
        <time>1970-01-01T02:35:10.000Z</time>
      </trkpt>
      <trkpt lat="41.33565" lon="1.955435">
        <ele>228.0</ele>
        <time>1970-01-01T02:35:14.000Z</time>
      </trkpt>
      <trkpt lat="41.335568" lon="1.955423">
        <ele>228.0</ele>
        <time>1970-01-01T02:35:18.000Z</time>
      </trkpt>
      <trkpt lat="41.335491" lon="1.955403">
        <ele>228.6</ele>
        <time>1970-01-01T02:35:22.000Z</time>
      </trkpt>
      <trkpt lat="41.335405" lon="1.955416">
        <ele>229.6</ele>
        <time>1970-01-01T02:35:26.000Z</time>
      </trkpt>
      <trkpt lat="41.335338" lon="1.95548">
        <ele>230.6</ele>
        <time>1970-01-01T02:35:30.000Z</time>
      </trkpt>
      <trkpt lat="41.335351" lon="1.955583">
        <ele>231.2</ele>
        <time>1970-01-01T02:35:34.000Z</time>
      </trkpt>
      <trkpt lat="41.335371" lon="1.955695">
        <ele>232.2</ele>
        <time>1970-01-01T02:35:38.000Z</time>
      </trkpt>
      <trkpt lat="41.33539" lon="1.955808">
        <ele>233.4</ele>
        <time>1970-01-01T02:35:42.000Z</time>
      </trkpt>
      <trkpt lat="41.335385" lon="1.955915">
        <ele>232.8</ele>
        <time>1970-01-01T02:35:46.000Z</time>
      </trkpt>
      <trkpt lat="41.335388" lon="1.956023">
        <ele>233.2</ele>
        <time>1970-01-01T02:35:50.000Z</time>
      </trkpt>
      <trkpt lat="41.335415" lon="1.956155">
        <ele>233.6</ele>
        <time>1970-01-01T02:35:54.000Z</time>
      </trkpt>
      <trkpt lat="41.335458" lon="1.956251">
        <ele>234.0</ele>
        <time>1970-01-01T02:35:58.000Z</time>
      </trkpt>
      <trkpt lat="41.335501" lon="1.95638">
        <ele>234.4</ele>
        <time>1970-01-01T02:36:02.000Z</time>
      </trkpt>
      <trkpt lat="41.335508" lon="1.956521">
        <ele>235.6</ele>
        <time>1970-01-01T02:36:06.000Z</time>
      </trkpt>
      <trkpt lat="41.335465" lon="1.956598">
        <ele>236.8</ele>
        <time>1970-01-01T02:36:10.000Z</time>
      </trkpt>
      <trkpt lat="41.3354" lon="1.956601">
        <ele>237.6</ele>
        <time>1970-01-01T02:36:14.000Z</time>
      </trkpt>
      <trkpt lat="41.335346" lon="1.956558">
        <ele>238.2</ele>
        <time>1970-01-01T02:36:18.000Z</time>
      </trkpt>
      <trkpt lat="41.335311" lon="1.956493">
        <ele>238.4</ele>
        <time>1970-01-01T02:36:22.000Z</time>
      </trkpt>
      <trkpt lat="41.335291" lon="1.95641">
        <ele>238.4</ele>
        <time>1970-01-01T02:36:26.000Z</time>
      </trkpt>
      <trkpt lat="41.335275" lon="1.956303">
        <ele>238.6</ele>
        <time>1970-01-01T02:36:30.000Z</time>
      </trkpt>
      <trkpt lat="41.33525" lon="1.956193">
        <ele>238.8</ele>
        <time>1970-01-01T02:36:34.000Z</time>
      </trkpt>
      <trkpt lat="41.335201" lon="1.956095">
        <ele>240.0</ele>
        <time>1970-01-01T02:36:38.000Z</time>
      </trkpt>
      <trkpt lat="41.335163" lon="1.956011">
        <ele>241.6</ele>
        <time>1970-01-01T02:36:42.000Z</time>
      </trkpt>
      <trkpt lat="41.335113" lon="1.95592">
        <ele>242.6</ele>
        <time>1970-01-01T02:36:46.000Z</time>
      </trkpt>
      <trkpt lat="41.335056" lon="1.955861">
        <ele>243.4</ele>
        <time>1970-01-01T02:36:50.000Z</time>
      </trkpt>
      <trkpt lat="41.335" lon="1.955806">
        <ele>244.0</ele>
        <time>1970-01-01T02:36:54.000Z</time>
      </trkpt>
      <trkpt lat="41.334955" lon="1.955736">
        <ele>245.4</ele>
        <time>1970-01-01T02:36:58.000Z</time>
      </trkpt>
      <trkpt lat="41.334911" lon="1.95566">
        <ele>245.6</ele>
        <time>1970-01-01T02:37:02.000Z</time>
      </trkpt>
      <trkpt lat="41.334881" lon="1.955573">
        <ele>246.0</ele>
        <time>1970-01-01T02:37:06.000Z</time>
      </trkpt>
      <trkpt lat="41.334858" lon="1.95547">
        <ele>247.0</ele>
        <time>1970-01-01T02:37:10.000Z</time>
      </trkpt>
      <trkpt lat="41.334843" lon="1.955363">
        <ele>247.8</ele>
        <time>1970-01-01T02:37:14.000Z</time>
      </trkpt>
      <trkpt lat="41.334826" lon="1.955266">
        <ele>249.2</ele>
        <time>1970-01-01T02:37:18.000Z</time>
      </trkpt>
      <trkpt lat="41.334806" lon="1.95517">
        <ele>249.2</ele>
        <time>1970-01-01T02:37:22.000Z</time>
      </trkpt>
      <trkpt lat="41.334786" lon="1.955063">
        <ele>250.0</ele>
        <time>1970-01-01T02:37:26.000Z</time>
      </trkpt>
      <trkpt lat="41.334761" lon="1.954975">
        <ele>250.4</ele>
        <time>1970-01-01T02:37:30.000Z</time>
      </trkpt>
      <trkpt lat="41.334743" lon="1.954895">
        <ele>250.8</ele>
        <time>1970-01-01T02:37:34.000Z</time>
      </trkpt>
      <trkpt lat="41.334731" lon="1.95482">
        <ele>251.2</ele>
        <time>1970-01-01T02:37:38.000Z</time>
      </trkpt>
      <trkpt lat="41.334715" lon="1.954736">
        <ele>251.6</ele>
        <time>1970-01-01T02:37:42.000Z</time>
      </trkpt>
      <trkpt lat="41.334696" lon="1.954651">
        <ele>252.2</ele>
        <time>1970-01-01T02:37:46.000Z</time>
      </trkpt>
      <trkpt lat="41.334673" lon="1.954561">
        <ele>253.0</ele>
        <time>1970-01-01T02:37:50.000Z</time>
      </trkpt>
      <trkpt lat="41.334668" lon="1.954485">
        <ele>253.4</ele>
        <time>1970-01-01T02:37:54.000Z</time>
      </trkpt>
      <trkpt lat="41.334658" lon="1.954398">
        <ele>253.8</ele>
        <time>1970-01-01T02:37:58.000Z</time>
      </trkpt>
      <trkpt lat="41.334656" lon="1.954311">
        <ele>254.8</ele>
        <time>1970-01-01T02:38:02.000Z</time>
      </trkpt>
      <trkpt lat="41.33466" lon="1.95422">
        <ele>255.4</ele>
        <time>1970-01-01T02:38:06.000Z</time>
      </trkpt>
      <trkpt lat="41.33462" lon="1.954156">
        <ele>256.2</ele>
        <time>1970-01-01T02:38:10.000Z</time>
      </trkpt>
      <trkpt lat="41.334591" lon="1.954215">
        <ele>256.0</ele>
        <time>1970-01-01T02:38:14.000Z</time>
      </trkpt>
      <trkpt lat="41.334593" lon="1.954308">
        <ele>256.6</ele>
        <time>1970-01-01T02:38:18.000Z</time>
      </trkpt>
      <trkpt lat="41.33459" lon="1.9544">
        <ele>256.6</ele>
        <time>1970-01-01T02:38:22.000Z</time>
      </trkpt>
      <trkpt lat="41.33458" lon="1.954483">
        <ele>256.8</ele>
        <time>1970-01-01T02:38:26.000Z</time>
      </trkpt>
      <trkpt lat="41.334558" lon="1.954561">
        <ele>257.0</ele>
        <time>1970-01-01T02:38:30.000Z</time>
      </trkpt>
      <trkpt lat="41.334548" lon="1.954653">
        <ele>257.8</ele>
        <time>1970-01-01T02:38:34.000Z</time>
      </trkpt>
      <trkpt lat="41.33453" lon="1.954746">
        <ele>259.0</ele>
        <time>1970-01-01T02:38:38.000Z</time>
      </trkpt>
      <trkpt lat="41.334506" lon="1.954831">
        <ele>259.4</ele>
        <time>1970-01-01T02:38:42.000Z</time>
      </trkpt>
      <trkpt lat="41.334473" lon="1.954911">
        <ele>260.4</ele>
        <time>1970-01-01T02:38:46.000Z</time>
      </trkpt>
      <trkpt lat="41.334436" lon="1.954993">
        <ele>261.0</ele>
        <time>1970-01-01T02:38:50.000Z</time>
      </trkpt>
      <trkpt lat="41.33441" lon="1.955086">
        <ele>261.6</ele>
        <time>1970-01-01T02:38:54.000Z</time>
      </trkpt>
      <trkpt lat="41.334393" lon="1.955173">
        <ele>261.8</ele>
        <time>1970-01-01T02:38:58.000Z</time>
      </trkpt>
      <trkpt lat="41.334398" lon="1.955263">
        <ele>262.2</ele>
        <time>1970-01-01T02:39:02.000Z</time>
      </trkpt>
      <trkpt lat="41.334401" lon="1.95535">
        <ele>262.4</ele>
        <time>1970-01-01T02:39:06.000Z</time>
      </trkpt>
      <trkpt lat="41.334408" lon="1.955445">
        <ele>263.2</ele>
        <time>1970-01-01T02:39:10.000Z</time>
      </trkpt>
      <trkpt lat="41.334418" lon="1.955545">
        <ele>264.0</ele>
        <time>1970-01-01T02:39:14.000Z</time>
      </trkpt>
      <trkpt lat="41.334421" lon="1.955646">
        <ele>264.6</ele>
        <time>1970-01-01T02:39:18.000Z</time>
      </trkpt>
      <trkpt lat="41.334423" lon="1.955763">
        <ele>265.2</ele>
        <time>1970-01-01T02:39:22.000Z</time>
      </trkpt>
      <trkpt lat="41.334418" lon="1.955863">
        <ele>265.6</ele>
        <time>1970-01-01T02:39:26.000Z</time>
      </trkpt>
      <trkpt lat="41.334406" lon="1.95595">
        <ele>266.4</ele>
        <time>1970-01-01T02:39:30.000Z</time>
      </trkpt>
      <trkpt lat="41.334386" lon="1.956051">
        <ele>266.8</ele>
        <time>1970-01-01T02:39:34.000Z</time>
      </trkpt>
      <trkpt lat="41.33437" lon="1.956165">
        <ele>267.6</ele>
        <time>1970-01-01T02:39:38.000Z</time>
      </trkpt>
      <trkpt lat="41.334346" lon="1.956293">
        <ele>268.2</ele>
        <time>1970-01-01T02:39:42.000Z</time>
      </trkpt>
      <trkpt lat="41.334313" lon="1.956398">
        <ele>269.0</ele>
        <time>1970-01-01T02:39:46.000Z</time>
      </trkpt>
      <trkpt lat="41.334281" lon="1.956538">
        <ele>268.6</ele>
        <time>1970-01-01T02:39:50.000Z</time>
      </trkpt>
      <trkpt lat="41.334243" lon="1.956673">
        <ele>269.6</ele>
        <time>1970-01-01T02:39:54.000Z</time>
      </trkpt>
      <trkpt lat="41.334213" lon="1.956828">
        <ele>269.2</ele>
        <time>1970-01-01T02:39:58.000Z</time>
      </trkpt>
      <trkpt lat="41.334235" lon="1.957013">
        <ele>268.8</ele>
        <time>1970-01-01T02:40:02.000Z</time>
      </trkpt>
      <trkpt lat="41.334296" lon="1.957165">
        <ele>267.8</ele>
        <time>1970-01-01T02:40:06.000Z</time>
      </trkpt>
      <trkpt lat="41.33439" lon="1.957403">
        <ele>267.2</ele>
        <time>1970-01-01T02:40:10.000Z</time>
      </trkpt>
      <trkpt lat="41.334471" lon="1.957668">
        <ele>267.2</ele>
        <time>1970-01-01T02:40:14.000Z</time>
      </trkpt>
      <trkpt lat="41.33456" lon="1.957906">
        <ele>268.0</ele>
        <time>1970-01-01T02:40:18.000Z</time>
      </trkpt>
      <trkpt lat="41.334633" lon="1.958125">
        <ele>268.4</ele>
        <time>1970-01-01T02:40:22.000Z</time>
      </trkpt>
      <trkpt lat="41.334656" lon="1.958306">
        <ele>267.6</ele>
        <time>1970-01-01T02:40:26.000Z</time>
      </trkpt>
      <trkpt lat="41.334693" lon="1.958493">
        <ele>266.8</ele>
        <time>1970-01-01T02:40:30.000Z</time>
      </trkpt>
      <trkpt lat="41.334726" lon="1.958686">
        <ele>267.8</ele>
        <time>1970-01-01T02:40:34.000Z</time>
      </trkpt>
      <trkpt lat="41.334765" lon="1.95886">
        <ele>268.6</ele>
        <time>1970-01-01T02:40:38.000Z</time>
      </trkpt>
      <trkpt lat="41.334766" lon="1.958995">
        <ele>267.8</ele>
        <time>1970-01-01T02:40:42.000Z</time>
      </trkpt>
      <trkpt lat="41.334773" lon="1.959123">
        <ele>267.0</ele>
        <time>1970-01-01T02:40:46.000Z</time>
      </trkpt>
      <trkpt lat="41.334746" lon="1.959328">
        <ele>265.2</ele>
        <time>1970-01-01T02:40:50.000Z</time>
      </trkpt>
      <trkpt lat="41.334911" lon="1.959545">
        <ele>266.2</ele>
        <time>1970-01-01T02:40:54.000Z</time>
      </trkpt>
      <trkpt lat="41.335091" lon="1.9597">
        <ele>263.2</ele>
        <time>1970-01-01T02:40:58.000Z</time>
      </trkpt>
      <trkpt lat="41.335328" lon="1.959743">
        <ele>264.4</ele>
        <time>1970-01-01T02:41:02.000Z</time>
      </trkpt>
      <trkpt lat="41.335443" lon="1.95978">
        <ele>264.0</ele>
        <time>1970-01-01T02:41:06.000Z</time>
      </trkpt>
      <trkpt lat="41.335545" lon="1.959868">
        <ele>265.2</ele>
        <time>1970-01-01T02:41:10.000Z</time>
      </trkpt>
      <trkpt lat="41.335606" lon="1.959985">
        <ele>265.0</ele>
        <time>1970-01-01T02:41:14.000Z</time>
      </trkpt>
      <trkpt lat="41.335638" lon="1.960061">
        <ele>264.8</ele>
        <time>1970-01-01T02:41:18.000Z</time>
      </trkpt>
      <trkpt lat="41.33565" lon="1.96025">
        <ele>261.0</ele>
        <time>1970-01-01T02:41:22.000Z</time>
      </trkpt>
      <trkpt lat="41.335641" lon="1.960538">
        <ele>260.0</ele>
        <time>1970-01-01T02:41:26.000Z</time>
      </trkpt>
      <trkpt lat="41.335798" lon="1.960715">
        <ele>257.8</ele>
        <time>1970-01-01T02:41:30.000Z</time>
      </trkpt>
      <trkpt lat="41.335978" lon="1.960923">
        <ele>259.2</ele>
        <time>1970-01-01T02:41:34.000Z</time>
      </trkpt>
      <trkpt lat="41.336056" lon="1.96108">
        <ele>260.6</ele>
        <time>1970-01-01T02:41:38.000Z</time>
      </trkpt>
      <trkpt lat="41.336091" lon="1.961208">
        <ele>262.0</ele>
        <time>1970-01-01T02:41:42.000Z</time>
      </trkpt>
      <trkpt lat="41.33608" lon="1.961311">
        <ele>263.8</ele>
        <time>1970-01-01T02:41:46.000Z</time>
      </trkpt>
      <trkpt lat="41.336053" lon="1.961401">
        <ele>264.4</ele>
        <time>1970-01-01T02:41:50.000Z</time>
      </trkpt>
      <trkpt lat="41.336033" lon="1.961486">
        <ele>266.2</ele>
        <time>1970-01-01T02:41:54.000Z</time>
      </trkpt>
      <trkpt lat="41.33603" lon="1.961598">
        <ele>266.6</ele>
        <time>1970-01-01T02:41:58.000Z</time>
      </trkpt>
      <trkpt lat="41.336018" lon="1.961685">
        <ele>267.8</ele>
        <time>1970-01-01T02:42:02.000Z</time>
      </trkpt>
      <trkpt lat="41.336005" lon="1.961768">
        <ele>268.6</ele>
        <time>1970-01-01T02:42:06.000Z</time>
      </trkpt>
      <trkpt lat="41.336001" lon="1.961876">
        <ele>267.2</ele>
        <time>1970-01-01T02:42:10.000Z</time>
      </trkpt>
      <trkpt lat="41.336068" lon="1.96203">
        <ele>267.0</ele>
        <time>1970-01-01T02:42:14.000Z</time>
      </trkpt>
      <trkpt lat="41.336193" lon="1.96206">
        <ele>265.8</ele>
        <time>1970-01-01T02:42:18.000Z</time>
      </trkpt>
      <trkpt lat="41.33633" lon="1.962036">
        <ele>266.6</ele>
        <time>1970-01-01T02:42:22.000Z</time>
      </trkpt>
      <trkpt lat="41.33646" lon="1.961976">
        <ele>264.2</ele>
        <time>1970-01-01T02:42:26.000Z</time>
      </trkpt>
      <trkpt lat="41.336611" lon="1.961876">
        <ele>261.0</ele>
        <time>1970-01-01T02:42:30.000Z</time>
      </trkpt>
      <trkpt lat="41.336828" lon="1.961775">
        <ele>258.8</ele>
        <time>1970-01-01T02:42:34.000Z</time>
      </trkpt>
      <trkpt lat="41.33699" lon="1.96169">
        <ele>257.0</ele>
        <time>1970-01-01T02:42:38.000Z</time>
      </trkpt>
      <trkpt lat="41.33713" lon="1.961753">
        <ele>255.4</ele>
        <time>1970-01-01T02:42:42.000Z</time>
      </trkpt>
      <trkpt lat="41.33722" lon="1.96187">
        <ele>252.4</ele>
        <time>1970-01-01T02:42:46.000Z</time>
      </trkpt>
      <trkpt lat="41.337293" lon="1.96201">
        <ele>251.0</ele>
        <time>1970-01-01T02:42:50.000Z</time>
      </trkpt>
      <trkpt lat="41.33729" lon="1.962181">
        <ele>249.8</ele>
        <time>1970-01-01T02:42:54.000Z</time>
      </trkpt>
      <trkpt lat="41.337333" lon="1.962275">
        <ele>247.4</ele>
        <time>1970-01-01T02:42:58.000Z</time>
      </trkpt>
      <trkpt lat="41.33746" lon="1.962341">
        <ele>246.8</ele>
        <time>1970-01-01T02:43:02.000Z</time>
      </trkpt>
      <trkpt lat="41.337601" lon="1.962505">
        <ele>245.0</ele>
        <time>1970-01-01T02:43:06.000Z</time>
      </trkpt>
      <trkpt lat="41.337756" lon="1.962635">
        <ele>243.2</ele>
        <time>1970-01-01T02:43:10.000Z</time>
      </trkpt>
      <trkpt lat="41.337826" lon="1.962751">
        <ele>242.6</ele>
        <time>1970-01-01T02:43:14.000Z</time>
      </trkpt>
      <trkpt lat="41.337905" lon="1.962716">
        <ele>241.0</ele>
        <time>1970-01-01T02:43:18.000Z</time>
      </trkpt>
      <trkpt lat="41.337885" lon="1.962556">
        <ele>238.4</ele>
        <time>1970-01-01T02:43:22.000Z</time>
      </trkpt>
      <trkpt lat="41.337841" lon="1.962405">
        <ele>237.6</ele>
        <time>1970-01-01T02:43:26.000Z</time>
      </trkpt>
      <trkpt lat="41.337913" lon="1.962415">
        <ele>234.4</ele>
        <time>1970-01-01T02:43:30.000Z</time>
      </trkpt>
      <trkpt lat="41.33803" lon="1.962543">
        <ele>232.2</ele>
        <time>1970-01-01T02:43:34.000Z</time>
      </trkpt>
      <trkpt lat="41.338113" lon="1.962688">
        <ele>231.2</ele>
        <time>1970-01-01T02:43:38.000Z</time>
      </trkpt>
      <trkpt lat="41.338115" lon="1.962936">
        <ele>230.2</ele>
        <time>1970-01-01T02:43:42.000Z</time>
      </trkpt>
      <trkpt lat="41.338111" lon="1.963115">
        <ele>228.6</ele>
        <time>1970-01-01T02:43:46.000Z</time>
      </trkpt>
      <trkpt lat="41.33822" lon="1.963198">
        <ele>227.6</ele>
        <time>1970-01-01T02:43:50.000Z</time>
      </trkpt>
      <trkpt lat="41.33841" lon="1.963211">
        <ele>227.6</ele>
        <time>1970-01-01T02:43:54.000Z</time>
      </trkpt>
      <trkpt lat="41.338631" lon="1.963265">
        <ele>226.8</ele>
        <time>1970-01-01T02:43:58.000Z</time>
      </trkpt>
      <trkpt lat="41.338801" lon="1.96333">
        <ele>224.0</ele>
        <time>1970-01-01T02:44:02.000Z</time>
      </trkpt>
      <trkpt lat="41.338896" lon="1.963415">
        <ele>223.4</ele>
        <time>1970-01-01T02:44:06.000Z</time>
      </trkpt>
      <trkpt lat="41.338968" lon="1.963468">
        <ele>221.4</ele>
        <time>1970-01-01T02:44:10.000Z</time>
      </trkpt>
      <trkpt lat="41.339048" lon="1.963505">
        <ele>220.4</ele>
        <time>1970-01-01T02:44:14.000Z</time>
      </trkpt>
      <trkpt lat="41.339073" lon="1.963443">
        <ele>218.6</ele>
        <time>1970-01-01T02:44:18.000Z</time>
      </trkpt>
      <trkpt lat="41.339013" lon="1.963353">
        <ele>217.4</ele>
        <time>1970-01-01T02:44:22.000Z</time>
      </trkpt>
      <trkpt lat="41.338955" lon="1.9632">
        <ele>217.0</ele>
        <time>1970-01-01T02:44:26.000Z</time>
      </trkpt>
      <trkpt lat="41.338871" lon="1.9631">
        <ele>215.8</ele>
        <time>1970-01-01T02:44:30.000Z</time>
      </trkpt>
      <trkpt lat="41.338826" lon="1.96305">
        <ele>214.2</ele>
        <time>1970-01-01T02:44:34.000Z</time>
      </trkpt>
      <trkpt lat="41.33878" lon="1.963015">
        <ele>213.2</ele>
        <time>1970-01-01T02:44:38.000Z</time>
      </trkpt>
      <trkpt lat="41.338731" lon="1.962973">
        <ele>212.4</ele>
        <time>1970-01-01T02:44:42.000Z</time>
      </trkpt>
      <trkpt lat="41.338691" lon="1.962923">
        <ele>211.0</ele>
        <time>1970-01-01T02:44:46.000Z</time>
      </trkpt>
      <trkpt lat="41.338665" lon="1.962856">
        <ele>210.4</ele>
        <time>1970-01-01T02:44:50.000Z</time>
      </trkpt>
      <trkpt lat="41.338645" lon="1.962793">
        <ele>209.4</ele>
        <time>1970-01-01T02:44:54.000Z</time>
      </trkpt>
      <trkpt lat="41.338705" lon="1.962416">
        <ele>204.4</ele>
        <time>1970-01-01T02:45:43.000Z</time>
      </trkpt>
      <trkpt lat="41.338741" lon="1.9623">
        <ele>204.4</ele>
        <time>1970-01-01T02:45:47.000Z</time>
      </trkpt>
      <trkpt lat="41.338786" lon="1.962195">
        <ele>201.4</ele>
        <time>1970-01-01T02:45:51.000Z</time>
      </trkpt>
      <trkpt lat="41.338868" lon="1.962081">
        <ele>199.2</ele>
        <time>1970-01-01T02:45:55.000Z</time>
      </trkpt>
      <trkpt lat="41.338931" lon="1.961958">
        <ele>196.6</ele>
        <time>1970-01-01T02:45:59.000Z</time>
      </trkpt>
      <trkpt lat="41.338908" lon="1.961808">
        <ele>195.4</ele>
        <time>1970-01-01T02:46:03.000Z</time>
      </trkpt>
      <trkpt lat="41.33886" lon="1.961663">
        <ele>191.8</ele>
        <time>1970-01-01T02:46:07.000Z</time>
      </trkpt>
      <trkpt lat="41.338906" lon="1.961538">
        <ele>191.2</ele>
        <time>1970-01-01T02:46:11.000Z</time>
      </trkpt>
      <trkpt lat="41.339035" lon="1.961431">
        <ele>185.2</ele>
        <time>1970-01-01T02:46:15.000Z</time>
      </trkpt>
      <trkpt lat="41.339178" lon="1.961291">
        <ele>180.6</ele>
        <time>1970-01-01T02:46:19.000Z</time>
      </trkpt>
      <trkpt lat="41.339288" lon="1.961301">
        <ele>177.2</ele>
        <time>1970-01-01T02:46:23.000Z</time>
      </trkpt>
      <trkpt lat="41.339436" lon="1.96124">
        <ele>175.8</ele>
        <time>1970-01-01T02:46:27.000Z</time>
      </trkpt>
      <trkpt lat="41.339581" lon="1.961091">
        <ele>175.0</ele>
        <time>1970-01-01T02:46:31.000Z</time>
      </trkpt>
      <trkpt lat="41.339696" lon="1.960985">
        <ele>172.4</ele>
        <time>1970-01-01T02:46:35.000Z</time>
      </trkpt>
      <trkpt lat="41.33982" lon="1.96092">
        <ele>169.6</ele>
        <time>1970-01-01T02:46:39.000Z</time>
      </trkpt>
      <trkpt lat="41.339976" lon="1.960845">
        <ele>165.8</ele>
        <time>1970-01-01T02:46:43.000Z</time>
      </trkpt>
      <trkpt lat="41.340093" lon="1.960786">
        <ele>163.0</ele>
        <time>1970-01-01T02:46:47.000Z</time>
      </trkpt>
      <trkpt lat="41.340178" lon="1.960753">
        <ele>160.6</ele>
        <time>1970-01-01T02:46:51.000Z</time>
      </trkpt>
      <trkpt lat="41.340268" lon="1.960705">
        <ele>158.0</ele>
        <time>1970-01-01T02:46:55.000Z</time>
      </trkpt>
      <trkpt lat="41.340371" lon="1.960701">
        <ele>155.8</ele>
        <time>1970-01-01T02:46:59.000Z</time>
      </trkpt>
      <trkpt lat="41.340466" lon="1.960693">
        <ele>155.4</ele>
        <time>1970-01-01T02:47:03.000Z</time>
      </trkpt>
      <trkpt lat="41.34056" lon="1.960733">
        <ele>151.8</ele>
        <time>1970-01-01T02:47:07.000Z</time>
      </trkpt>
      <trkpt lat="41.340721" lon="1.960835">
        <ele>151.4</ele>
        <time>1970-01-01T02:47:11.000Z</time>
      </trkpt>
      <trkpt lat="41.340796" lon="1.960953">
        <ele>150.6</ele>
        <time>1970-01-01T02:47:15.000Z</time>
      </trkpt>
      <trkpt lat="41.340805" lon="1.960973">
        <ele>150.4</ele>
        <time>1970-01-01T02:47:19.000Z</time>
      </trkpt>
      <trkpt lat="41.340775" lon="1.960971">
        <ele>151.8</ele>
        <time>1970-01-01T02:47:23.000Z</time>
      </trkpt>
      <trkpt lat="41.340746" lon="1.96098">
        <ele>153.2</ele>
        <time>1970-01-01T02:47:27.000Z</time>
      </trkpt>
      <trkpt lat="41.34071" lon="1.961008">
        <ele>154.6</ele>
        <time>1970-01-01T02:47:31.000Z</time>
      </trkpt>
      <trkpt lat="41.340681" lon="1.96107">
        <ele>155.4</ele>
        <time>1970-01-01T02:47:35.000Z</time>
      </trkpt>
      <trkpt lat="41.34069" lon="1.961155">
        <ele>156.0</ele>
        <time>1970-01-01T02:47:39.000Z</time>
      </trkpt>
      <trkpt lat="41.340721" lon="1.961246">
        <ele>157.0</ele>
        <time>1970-01-01T02:47:43.000Z</time>
      </trkpt>
      <trkpt lat="41.340746" lon="1.961316">
        <ele>158.4</ele>
        <time>1970-01-01T02:47:47.000Z</time>
      </trkpt>
      <trkpt lat="41.340775" lon="1.961388">
        <ele>159.6</ele>
        <time>1970-01-01T02:47:51.000Z</time>
      </trkpt>
      <trkpt lat="41.3408" lon="1.961458">
        <ele>159.6</ele>
        <time>1970-01-01T02:47:55.000Z</time>
      </trkpt>
      <trkpt lat="41.340826" lon="1.961531">
        <ele>160.6</ele>
        <time>1970-01-01T02:47:59.000Z</time>
      </trkpt>
      <trkpt lat="41.340876" lon="1.961593">
        <ele>161.0</ele>
        <time>1970-01-01T02:48:03.000Z</time>
      </trkpt>
      <trkpt lat="41.340915" lon="1.961665">
        <ele>162.2</ele>
        <time>1970-01-01T02:48:07.000Z</time>
      </trkpt>
      <trkpt lat="41.340935" lon="1.961751">
        <ele>163.0</ele>
        <time>1970-01-01T02:48:11.000Z</time>
      </trkpt>
      <trkpt lat="41.340956" lon="1.961858">
        <ele>163.2</ele>
        <time>1970-01-01T02:48:15.000Z</time>
      </trkpt>
      <trkpt lat="41.34099" lon="1.961971">
        <ele>163.4</ele>
        <time>1970-01-01T02:48:19.000Z</time>
      </trkpt>
      <trkpt lat="41.341028" lon="1.96209">
        <ele>163.4</ele>
        <time>1970-01-01T02:48:23.000Z</time>
      </trkpt>
      <trkpt lat="41.341075" lon="1.96217">
        <ele>164.0</ele>
        <time>1970-01-01T02:48:27.000Z</time>
      </trkpt>
      <trkpt lat="41.341135" lon="1.962235">
        <ele>165.0</ele>
        <time>1970-01-01T02:48:31.000Z</time>
      </trkpt>
      <trkpt lat="41.341198" lon="1.96227">
        <ele>165.8</ele>
        <time>1970-01-01T02:48:35.000Z</time>
      </trkpt>
      <trkpt lat="41.341288" lon="1.962321">
        <ele>166.8</ele>
        <time>1970-01-01T02:48:39.000Z</time>
      </trkpt>
      <trkpt lat="41.341368" lon="1.962388">
        <ele>167.6</ele>
        <time>1970-01-01T02:48:43.000Z</time>
      </trkpt>
      <trkpt lat="41.341473" lon="1.962475">
        <ele>168.4</ele>
        <time>1970-01-01T02:48:47.000Z</time>
      </trkpt>
      <trkpt lat="41.341566" lon="1.962536">
        <ele>169.2</ele>
        <time>1970-01-01T02:48:51.000Z</time>
      </trkpt>
      <trkpt lat="41.341661" lon="1.96263">
        <ele>169.8</ele>
        <time>1970-01-01T02:48:55.000Z</time>
      </trkpt>
      <trkpt lat="41.341775" lon="1.96274">
        <ele>169.8</ele>
        <time>1970-01-01T02:48:59.000Z</time>
      </trkpt>
      <trkpt lat="41.341915" lon="1.962873">
        <ele>170.2</ele>
        <time>1970-01-01T02:49:03.000Z</time>
      </trkpt>
      <trkpt lat="41.342015" lon="1.963056">
        <ele>170.6</ele>
        <time>1970-01-01T02:49:07.000Z</time>
      </trkpt>
      <trkpt lat="41.342076" lon="1.963286">
        <ele>171.8</ele>
        <time>1970-01-01T02:49:11.000Z</time>
      </trkpt>
      <trkpt lat="41.342141" lon="1.963498">
        <ele>171.6</ele>
        <time>1970-01-01T02:49:15.000Z</time>
      </trkpt>
      <trkpt lat="41.342213" lon="1.963718">
        <ele>171.6</ele>
        <time>1970-01-01T02:49:19.000Z</time>
      </trkpt>
      <trkpt lat="41.342323" lon="1.964013">
        <ele>165.6</ele>
        <time>1970-01-01T02:49:23.000Z</time>
      </trkpt>
      <trkpt lat="41.342428" lon="1.964311">
        <ele>162.2</ele>
        <time>1970-01-01T02:49:27.000Z</time>
      </trkpt>
      <trkpt lat="41.342576" lon="1.964498">
        <ele>161.2</ele>
        <time>1970-01-01T02:49:31.000Z</time>
      </trkpt>
      <trkpt lat="41.342666" lon="1.964586">
        <ele>163.8</ele>
        <time>1970-01-01T02:49:35.000Z</time>
      </trkpt>
      <trkpt lat="41.342713" lon="1.964703">
        <ele>165.4</ele>
        <time>1970-01-01T02:49:39.000Z</time>
      </trkpt>
      <trkpt lat="41.342735" lon="1.964796">
        <ele>166.6</ele>
        <time>1970-01-01T02:49:43.000Z</time>
      </trkpt>
      <trkpt lat="41.342763" lon="1.964943">
        <ele>166.6</ele>
        <time>1970-01-01T02:49:47.000Z</time>
      </trkpt>
      <trkpt lat="41.342795" lon="1.965103">
        <ele>167.0</ele>
        <time>1970-01-01T02:49:51.000Z</time>
      </trkpt>
      <trkpt lat="41.342896" lon="1.965243">
        <ele>167.6</ele>
        <time>1970-01-01T02:49:55.000Z</time>
      </trkpt>
      <trkpt lat="41.343035" lon="1.965243">
        <ele>168.0</ele>
        <time>1970-01-01T02:49:59.000Z</time>
      </trkpt>
      <trkpt lat="41.343155" lon="1.96534">
        <ele>168.4</ele>
        <time>1970-01-01T02:50:03.000Z</time>
      </trkpt>
      <trkpt lat="41.343161" lon="1.96546">
        <ele>169.8</ele>
        <time>1970-01-01T02:50:07.000Z</time>
      </trkpt>
      <trkpt lat="41.343106" lon="1.965526">
        <ele>170.8</ele>
        <time>1970-01-01T02:50:11.000Z</time>
      </trkpt>
      <trkpt lat="41.343073" lon="1.965588">
        <ele>172.2</ele>
        <time>1970-01-01T02:50:15.000Z</time>
      </trkpt>
      <trkpt lat="41.343046" lon="1.965643">
        <ele>174.8</ele>
        <time>1970-01-01T02:50:19.000Z</time>
      </trkpt>
      <trkpt lat="41.343006" lon="1.965705">
        <ele>174.4</ele>
        <time>1970-01-01T02:50:23.000Z</time>
      </trkpt>
      <trkpt lat="41.342948" lon="1.965748">
        <ele>176.0</ele>
        <time>1970-01-01T02:50:27.000Z</time>
      </trkpt>
      <trkpt lat="41.342891" lon="1.965745">
        <ele>177.2</ele>
        <time>1970-01-01T02:50:31.000Z</time>
      </trkpt>
      <trkpt lat="41.34283" lon="1.965725">
        <ele>176.4</ele>
        <time>1970-01-01T02:50:35.000Z</time>
      </trkpt>
      <trkpt lat="41.34275" lon="1.965715">
        <ele>176.6</ele>
        <time>1970-01-01T02:50:39.000Z</time>
      </trkpt>
      <trkpt lat="41.342666" lon="1.96567">
        <ele>177.0</ele>
        <time>1970-01-01T02:50:43.000Z</time>
      </trkpt>
      <trkpt lat="41.342616" lon="1.96561">
        <ele>178.6</ele>
        <time>1970-01-01T02:50:47.000Z</time>
      </trkpt>
      <trkpt lat="41.342571" lon="1.965548">
        <ele>178.6</ele>
        <time>1970-01-01T02:50:51.000Z</time>
      </trkpt>
      <trkpt lat="41.34255" lon="1.965486">
        <ele>179.2</ele>
        <time>1970-01-01T02:50:55.000Z</time>
      </trkpt>
      <trkpt lat="41.34255" lon="1.965486">
        <ele>181.8</ele>
        <time>1970-01-01T02:50:59.000Z</time>
      </trkpt>
      <trkpt lat="41.342508" lon="1.965433">
        <ele>181.6</ele>
        <time>1970-01-01T02:51:03.000Z</time>
      </trkpt>
      <trkpt lat="41.342445" lon="1.965388">
        <ele>182.6</ele>
        <time>1970-01-01T02:51:07.000Z</time>
      </trkpt>
      <trkpt lat="41.342386" lon="1.965353">
        <ele>183.8</ele>
        <time>1970-01-01T02:51:11.000Z</time>
      </trkpt>
      <trkpt lat="41.34234" lon="1.965338">
        <ele>184.6</ele>
        <time>1970-01-01T02:51:15.000Z</time>
      </trkpt>
      <trkpt lat="41.342288" lon="1.965326">
        <ele>184.8</ele>
        <time>1970-01-01T02:51:19.000Z</time>
      </trkpt>
      <trkpt lat="41.342246" lon="1.965311">
        <ele>186.4</ele>
        <time>1970-01-01T02:51:23.000Z</time>
      </trkpt>
      <trkpt lat="41.3422" lon="1.965298">
        <ele>187.2</ele>
        <time>1970-01-01T02:51:27.000Z</time>
      </trkpt>
      <trkpt lat="41.342148" lon="1.965276">
        <ele>188.8</ele>
        <time>1970-01-01T02:51:31.000Z</time>
      </trkpt>
      <trkpt lat="41.342095" lon="1.965265">
        <ele>189.2</ele>
        <time>1970-01-01T02:51:35.000Z</time>
      </trkpt>
      <trkpt lat="41.342045" lon="1.965263">
        <ele>188.8</ele>
        <time>1970-01-01T02:51:39.000Z</time>
      </trkpt>
      <trkpt lat="41.341983" lon="1.96527">
        <ele>190.2</ele>
        <time>1970-01-01T02:51:43.000Z</time>
      </trkpt>
      <trkpt lat="41.341953" lon="1.96531">
        <ele>191.0</ele>
        <time>1970-01-01T02:51:47.000Z</time>
      </trkpt>
      <trkpt lat="41.341955" lon="1.965371">
        <ele>191.6</ele>
        <time>1970-01-01T02:51:51.000Z</time>
      </trkpt>
      <trkpt lat="41.34198" lon="1.965425">
        <ele>192.4</ele>
        <time>1970-01-01T02:51:55.000Z</time>
      </trkpt>
      <trkpt lat="41.342005" lon="1.96546">
        <ele>193.2</ele>
        <time>1970-01-01T02:51:59.000Z</time>
      </trkpt>
      <trkpt lat="41.342023" lon="1.965511">
        <ele>193.4</ele>
        <time>1970-01-01T02:52:03.000Z</time>
      </trkpt>
      <trkpt lat="41.342038" lon="1.965561">
        <ele>194.0</ele>
        <time>1970-01-01T02:52:07.000Z</time>
      </trkpt>
      <trkpt lat="41.342048" lon="1.96562">
        <ele>195.2</ele>
        <time>1970-01-01T02:52:11.000Z</time>
      </trkpt>
      <trkpt lat="41.34206" lon="1.965675">
        <ele>195.8</ele>
        <time>1970-01-01T02:52:15.000Z</time>
      </trkpt>
      <trkpt lat="41.34206" lon="1.965728">
        <ele>196.6</ele>
        <time>1970-01-01T02:52:19.000Z</time>
      </trkpt>
      <trkpt lat="41.34206" lon="1.965783">
        <ele>197.2</ele>
        <time>1970-01-01T02:52:23.000Z</time>
      </trkpt>
      <trkpt lat="41.342048" lon="1.965846">
        <ele>197.8</ele>
        <time>1970-01-01T02:52:27.000Z</time>
      </trkpt>
      <trkpt lat="41.341973" lon="1.966338">
        <ele>202.4</ele>
        <time>1970-01-01T02:52:56.000Z</time>
      </trkpt>
      <trkpt lat="41.342" lon="1.966413">
        <ele>203.4</ele>
        <time>1970-01-01T02:53:00.000Z</time>
      </trkpt>
      <trkpt lat="41.342033" lon="1.966466">
        <ele>203.4</ele>
        <time>1970-01-01T02:53:04.000Z</time>
      </trkpt>
      <trkpt lat="41.342078" lon="1.966506">
        <ele>204.4</ele>
        <time>1970-01-01T02:53:08.000Z</time>
      </trkpt>
      <trkpt lat="41.342126" lon="1.96654">
        <ele>205.6</ele>
        <time>1970-01-01T02:53:12.000Z</time>
      </trkpt>
      <trkpt lat="41.342173" lon="1.966573">
        <ele>206.8</ele>
        <time>1970-01-01T02:53:16.000Z</time>
      </trkpt>
      <trkpt lat="41.342211" lon="1.966608">
        <ele>207.2</ele>
        <time>1970-01-01T02:53:20.000Z</time>
      </trkpt>
      <trkpt lat="41.342251" lon="1.966686">
        <ele>206.8</ele>
        <time>1970-01-01T02:53:24.000Z</time>
      </trkpt>
      <trkpt lat="41.342283" lon="1.966801">
        <ele>207.6</ele>
        <time>1970-01-01T02:53:28.000Z</time>
      </trkpt>
      <trkpt lat="41.342263" lon="1.966853">
        <ele>208.8</ele>
        <time>1970-01-01T02:53:32.000Z</time>
      </trkpt>
      <trkpt lat="41.342238" lon="1.966896">
        <ele>210.4</ele>
        <time>1970-01-01T02:53:36.000Z</time>
      </trkpt>
      <trkpt lat="41.34218" lon="1.966896">
        <ele>211.2</ele>
        <time>1970-01-01T02:53:40.000Z</time>
      </trkpt>
      <trkpt lat="41.342138" lon="1.966875">
        <ele>212.0</ele>
        <time>1970-01-01T02:53:44.000Z</time>
      </trkpt>
      <trkpt lat="41.342078" lon="1.966858">
        <ele>212.0</ele>
        <time>1970-01-01T02:53:48.000Z</time>
      </trkpt>
      <trkpt lat="41.342005" lon="1.966861">
        <ele>211.6</ele>
        <time>1970-01-01T02:53:52.000Z</time>
      </trkpt>
      <trkpt lat="41.341951" lon="1.96686">
        <ele>212.2</ele>
        <time>1970-01-01T02:53:56.000Z</time>
      </trkpt>
      <trkpt lat="41.341888" lon="1.966858">
        <ele>214.2</ele>
        <time>1970-01-01T02:54:00.000Z</time>
      </trkpt>
      <trkpt lat="41.341836" lon="1.966856">
        <ele>214.8</ele>
        <time>1970-01-01T02:54:04.000Z</time>
      </trkpt>
      <trkpt lat="41.341778" lon="1.966833">
        <ele>216.4</ele>
        <time>1970-01-01T02:54:08.000Z</time>
      </trkpt>
      <trkpt lat="41.341736" lon="1.966805">
        <ele>216.6</ele>
        <time>1970-01-01T02:54:12.000Z</time>
      </trkpt>
      <trkpt lat="41.341698" lon="1.96676">
        <ele>216.8</ele>
        <time>1970-01-01T02:54:16.000Z</time>
      </trkpt>
      <trkpt lat="41.341638" lon="1.966696">
        <ele>217.0</ele>
        <time>1970-01-01T02:54:20.000Z</time>
      </trkpt>
      <trkpt lat="41.341565" lon="1.96664">
        <ele>217.2</ele>
        <time>1970-01-01T02:54:24.000Z</time>
      </trkpt>
      <trkpt lat="41.3415" lon="1.966618">
        <ele>218.2</ele>
        <time>1970-01-01T02:54:28.000Z</time>
      </trkpt>
      <trkpt lat="41.34146" lon="1.966661">
        <ele>218.6</ele>
        <time>1970-01-01T02:54:32.000Z</time>
      </trkpt>
      <trkpt lat="41.341461" lon="1.966721">
        <ele>220.4</ele>
        <time>1970-01-01T02:54:36.000Z</time>
      </trkpt>
      <trkpt lat="41.34148" lon="1.966771">
        <ele>221.2</ele>
        <time>1970-01-01T02:54:40.000Z</time>
      </trkpt>
      <trkpt lat="41.341496" lon="1.966833">
        <ele>221.2</ele>
        <time>1970-01-01T02:54:44.000Z</time>
      </trkpt>
      <trkpt lat="41.341535" lon="1.966901">
        <ele>222.4</ele>
        <time>1970-01-01T02:54:48.000Z</time>
      </trkpt>
      <trkpt lat="41.341563" lon="1.966971">
        <ele>222.8</ele>
        <time>1970-01-01T02:54:52.000Z</time>
      </trkpt>
      <trkpt lat="41.341595" lon="1.967035">
        <ele>223.0</ele>
        <time>1970-01-01T02:54:56.000Z</time>
      </trkpt>
      <trkpt lat="41.341645" lon="1.967096">
        <ele>223.8</ele>
        <time>1970-01-01T02:55:00.000Z</time>
      </trkpt>
      <trkpt lat="41.341696" lon="1.967155">
        <ele>223.8</ele>
        <time>1970-01-01T02:55:04.000Z</time>
      </trkpt>
      <trkpt lat="41.341745" lon="1.967226">
        <ele>224.4</ele>
        <time>1970-01-01T02:55:08.000Z</time>
      </trkpt>
      <trkpt lat="41.341791" lon="1.967308">
        <ele>224.6</ele>
        <time>1970-01-01T02:55:12.000Z</time>
      </trkpt>
      <trkpt lat="41.34183" lon="1.96739">
        <ele>225.6</ele>
        <time>1970-01-01T02:55:16.000Z</time>
      </trkpt>
      <trkpt lat="41.34188" lon="1.967468">
        <ele>226.2</ele>
        <time>1970-01-01T02:55:20.000Z</time>
      </trkpt>
      <trkpt lat="41.341886" lon="1.967551">
        <ele>227.4</ele>
        <time>1970-01-01T02:55:24.000Z</time>
      </trkpt>
      <trkpt lat="41.341895" lon="1.96764">
        <ele>228.4</ele>
        <time>1970-01-01T02:55:28.000Z</time>
      </trkpt>
      <trkpt lat="41.341901" lon="1.967718">
        <ele>229.0</ele>
        <time>1970-01-01T02:55:32.000Z</time>
      </trkpt>
      <trkpt lat="41.341898" lon="1.967811">
        <ele>229.6</ele>
        <time>1970-01-01T02:55:36.000Z</time>
      </trkpt>
      <trkpt lat="41.34189" lon="1.967885">
        <ele>230.2</ele>
        <time>1970-01-01T02:55:40.000Z</time>
      </trkpt>
      <trkpt lat="41.341863" lon="1.96795">
        <ele>230.6</ele>
        <time>1970-01-01T02:55:44.000Z</time>
      </trkpt>
      <trkpt lat="41.341835" lon="1.967996">
        <ele>232.0</ele>
        <time>1970-01-01T02:55:48.000Z</time>
      </trkpt>
      <trkpt lat="41.34181" lon="1.968071">
        <ele>233.8</ele>
        <time>1970-01-01T02:55:52.000Z</time>
      </trkpt>
      <trkpt lat="41.341786" lon="1.96813">
        <ele>234.8</ele>
        <time>1970-01-01T02:55:56.000Z</time>
      </trkpt>
      <trkpt lat="41.341758" lon="1.968193">
        <ele>234.6</ele>
        <time>1970-01-01T02:56:00.000Z</time>
      </trkpt>
      <trkpt lat="41.34173" lon="1.968265">
        <ele>235.6</ele>
        <time>1970-01-01T02:56:04.000Z</time>
      </trkpt>
      <trkpt lat="41.341711" lon="1.968343">
        <ele>236.0</ele>
        <time>1970-01-01T02:56:08.000Z</time>
      </trkpt>
      <trkpt lat="41.341701" lon="1.968415">
        <ele>236.0</ele>
        <time>1970-01-01T02:56:12.000Z</time>
      </trkpt>
      <trkpt lat="41.34169" lon="1.968501">
        <ele>237.2</ele>
        <time>1970-01-01T02:56:16.000Z</time>
      </trkpt>
      <trkpt lat="41.341676" lon="1.968615">
        <ele>237.8</ele>
        <time>1970-01-01T02:56:20.000Z</time>
      </trkpt>
      <trkpt lat="41.341666" lon="1.968696">
        <ele>238.0</ele>
        <time>1970-01-01T02:56:24.000Z</time>
      </trkpt>
      <trkpt lat="41.341656" lon="1.96882">
        <ele>237.8</ele>
        <time>1970-01-01T02:56:28.000Z</time>
      </trkpt>
      <trkpt lat="41.34166" lon="1.968945">
        <ele>237.8</ele>
        <time>1970-01-01T02:56:32.000Z</time>
      </trkpt>
      <trkpt lat="41.341713" lon="1.969001">
        <ele>238.6</ele>
        <time>1970-01-01T02:56:36.000Z</time>
      </trkpt>
      <trkpt lat="41.341783" lon="1.96903">
        <ele>238.8</ele>
        <time>1970-01-01T02:56:40.000Z</time>
      </trkpt>
      <trkpt lat="41.341853" lon="1.969123">
        <ele>238.6</ele>
        <time>1970-01-01T02:56:44.000Z</time>
      </trkpt>
      <trkpt lat="41.341883" lon="1.969295">
        <ele>237.2</ele>
        <time>1970-01-01T02:56:48.000Z</time>
      </trkpt>
      <trkpt lat="41.341956" lon="1.969405">
        <ele>238.0</ele>
        <time>1970-01-01T02:56:52.000Z</time>
      </trkpt>
      <trkpt lat="41.342063" lon="1.969461">
        <ele>239.4</ele>
        <time>1970-01-01T02:56:56.000Z</time>
      </trkpt>
      <trkpt lat="41.342131" lon="1.969555">
        <ele>239.8</ele>
        <time>1970-01-01T02:57:00.000Z</time>
      </trkpt>
      <trkpt lat="41.342181" lon="1.96967">
        <ele>240.4</ele>
        <time>1970-01-01T02:57:04.000Z</time>
      </trkpt>
      <trkpt lat="41.342213" lon="1.969791">
        <ele>241.0</ele>
        <time>1970-01-01T02:57:08.000Z</time>
      </trkpt>
      <trkpt lat="41.342215" lon="1.969921">
        <ele>241.6</ele>
        <time>1970-01-01T02:57:12.000Z</time>
      </trkpt>
      <trkpt lat="41.342205" lon="1.970043">
        <ele>241.0</ele>
        <time>1970-01-01T02:57:16.000Z</time>
      </trkpt>
      <trkpt lat="41.342195" lon="1.970161">
        <ele>240.8</ele>
        <time>1970-01-01T02:57:20.000Z</time>
      </trkpt>
      <trkpt lat="41.342081" lon="1.970321">
        <ele>240.4</ele>
        <time>1970-01-01T02:57:24.000Z</time>
      </trkpt>
      <trkpt lat="41.342041" lon="1.970453">
        <ele>241.6</ele>
        <time>1970-01-01T02:57:28.000Z</time>
      </trkpt>
      <trkpt lat="41.342006" lon="1.970586">
        <ele>242.2</ele>
        <time>1970-01-01T02:57:32.000Z</time>
      </trkpt>
      <trkpt lat="41.341965" lon="1.970726">
        <ele>244.4</ele>
        <time>1970-01-01T02:57:36.000Z</time>
      </trkpt>
      <trkpt lat="41.341913" lon="1.970856">
        <ele>244.6</ele>
        <time>1970-01-01T02:57:40.000Z</time>
      </trkpt>
      <trkpt lat="41.341851" lon="1.971015">
        <ele>246.0</ele>
        <time>1970-01-01T02:57:44.000Z</time>
      </trkpt>
      <trkpt lat="41.341775" lon="1.97113">
        <ele>246.8</ele>
        <time>1970-01-01T02:57:48.000Z</time>
      </trkpt>
      <trkpt lat="41.341731" lon="1.971233">
        <ele>247.6</ele>
        <time>1970-01-01T02:57:52.000Z</time>
      </trkpt>
      <trkpt lat="41.341683" lon="1.971315">
        <ele>248.8</ele>
        <time>1970-01-01T02:57:56.000Z</time>
      </trkpt>
      <trkpt lat="41.341636" lon="1.9714">
        <ele>249.4</ele>
        <time>1970-01-01T02:58:00.000Z</time>
      </trkpt>
      <trkpt lat="41.341568" lon="1.971475">
        <ele>250.8</ele>
        <time>1970-01-01T02:58:04.000Z</time>
      </trkpt>
      <trkpt lat="41.34153" lon="1.971543">
        <ele>251.2</ele>
        <time>1970-01-01T02:58:08.000Z</time>
      </trkpt>
      <trkpt lat="41.341513" lon="1.971711">
        <ele>249.4</ele>
        <time>1970-01-01T02:58:12.000Z</time>
      </trkpt>
      <trkpt lat="41.341483" lon="1.971915">
        <ele>246.6</ele>
        <time>1970-01-01T02:58:16.000Z</time>
      </trkpt>
      <trkpt lat="41.34146" lon="1.972131">
        <ele>244.0</ele>
        <time>1970-01-01T02:58:20.000Z</time>
      </trkpt>
      <trkpt lat="41.341393" lon="1.972336">
        <ele>241.4</ele>
        <time>1970-01-01T02:58:24.000Z</time>
      </trkpt>
      <trkpt lat="41.341345" lon="1.972478">
        <ele>239.2</ele>
        <time>1970-01-01T02:58:28.000Z</time>
      </trkpt>
      <trkpt lat="41.341328" lon="1.972611">
        <ele>237.8</ele>
        <time>1970-01-01T02:58:32.000Z</time>
      </trkpt>
      <trkpt lat="41.341435" lon="1.97271">
        <ele>237.4</ele>
        <time>1970-01-01T03:00:47.000Z</time>
      </trkpt>
      <trkpt lat="41.34151" lon="1.972718">
        <ele>238.6</ele>
        <time>1970-01-01T03:00:51.000Z</time>
      </trkpt>
      <trkpt lat="41.34159" lon="1.972731">
        <ele>238.6</ele>
        <time>1970-01-01T03:00:55.000Z</time>
      </trkpt>
      <trkpt lat="41.341691" lon="1.972771">
        <ele>238.6</ele>
        <time>1970-01-01T03:00:59.000Z</time>
      </trkpt>
      <trkpt lat="41.341805" lon="1.972818">
        <ele>238.0</ele>
        <time>1970-01-01T03:01:03.000Z</time>
      </trkpt>
      <trkpt lat="41.341926" lon="1.972853">
        <ele>237.8</ele>
        <time>1970-01-01T03:01:07.000Z</time>
      </trkpt>
      <trkpt lat="41.342068" lon="1.972923">
        <ele>237.8</ele>
        <time>1970-01-01T03:01:11.000Z</time>
      </trkpt>
      <trkpt lat="41.342205" lon="1.973086">
        <ele>236.6</ele>
        <time>1970-01-01T03:01:15.000Z</time>
      </trkpt>
      <trkpt lat="41.342226" lon="1.973353">
        <ele>235.4</ele>
        <time>1970-01-01T03:01:19.000Z</time>
      </trkpt>
      <trkpt lat="41.342215" lon="1.973488">
        <ele>237.6</ele>
        <time>1970-01-01T03:01:23.000Z</time>
      </trkpt>
      <trkpt lat="41.342186" lon="1.973586">
        <ele>238.4</ele>
        <time>1970-01-01T03:01:27.000Z</time>
      </trkpt>
      <trkpt lat="41.342165" lon="1.9737">
        <ele>241.0</ele>
        <time>1970-01-01T03:01:31.000Z</time>
      </trkpt>
      <trkpt lat="41.34215" lon="1.973808">
        <ele>241.4</ele>
        <time>1970-01-01T03:01:35.000Z</time>
      </trkpt>
      <trkpt lat="41.34224" lon="1.974023">
        <ele>238.6</ele>
        <time>1970-01-01T03:01:39.000Z</time>
      </trkpt>
      <trkpt lat="41.342461" lon="1.974265">
        <ele>237.0</ele>
        <time>1970-01-01T03:01:43.000Z</time>
      </trkpt>
      <trkpt lat="41.342555" lon="1.974413">
        <ele>238.4</ele>
        <time>1970-01-01T03:01:47.000Z</time>
      </trkpt>
      <trkpt lat="41.342545" lon="1.97446">
        <ele>239.2</ele>
        <time>1970-01-01T03:01:51.000Z</time>
      </trkpt>
      <trkpt lat="41.342498" lon="1.974415">
        <ele>239.6</ele>
        <time>1970-01-01T03:01:55.000Z</time>
      </trkpt>
      <trkpt lat="41.34245" lon="1.974385">
        <ele>241.0</ele>
        <time>1970-01-01T03:01:59.000Z</time>
      </trkpt>
      <trkpt lat="41.34239" lon="1.974383">
        <ele>242.0</ele>
        <time>1970-01-01T03:02:03.000Z</time>
      </trkpt>
      <trkpt lat="41.342326" lon="1.974418">
        <ele>243.8</ele>
        <time>1970-01-01T03:02:07.000Z</time>
      </trkpt>
      <trkpt lat="41.342263" lon="1.974455">
        <ele>245.2</ele>
        <time>1970-01-01T03:02:11.000Z</time>
      </trkpt>
      <trkpt lat="41.342221" lon="1.974533">
        <ele>246.6</ele>
        <time>1970-01-01T03:02:15.000Z</time>
      </trkpt>
      <trkpt lat="41.342205" lon="1.974615">
        <ele>247.6</ele>
        <time>1970-01-01T03:02:19.000Z</time>
      </trkpt>
      <trkpt lat="41.342186" lon="1.974695">
        <ele>247.8</ele>
        <time>1970-01-01T03:02:23.000Z</time>
      </trkpt>
      <trkpt lat="41.342166" lon="1.974775">
        <ele>248.2</ele>
        <time>1970-01-01T03:02:27.000Z</time>
      </trkpt>
      <trkpt lat="41.34214" lon="1.97485">
        <ele>248.6</ele>
        <time>1970-01-01T03:02:31.000Z</time>
      </trkpt>
      <trkpt lat="41.342111" lon="1.974913">
        <ele>249.0</ele>
        <time>1970-01-01T03:02:35.000Z</time>
      </trkpt>
      <trkpt lat="41.342091" lon="1.974991">
        <ele>249.4</ele>
        <time>1970-01-01T03:02:39.000Z</time>
      </trkpt>
      <trkpt lat="41.342066" lon="1.97507">
        <ele>251.0</ele>
        <time>1970-01-01T03:02:43.000Z</time>
      </trkpt>
      <trkpt lat="41.34205" lon="1.975143">
        <ele>251.6</ele>
        <time>1970-01-01T03:02:47.000Z</time>
      </trkpt>
      <trkpt lat="41.342043" lon="1.975223">
        <ele>252.4</ele>
        <time>1970-01-01T03:02:51.000Z</time>
      </trkpt>
      <trkpt lat="41.342063" lon="1.9753">
        <ele>253.4</ele>
        <time>1970-01-01T03:02:55.000Z</time>
      </trkpt>
      <trkpt lat="41.342065" lon="1.975371">
        <ele>254.6</ele>
        <time>1970-01-01T03:02:59.000Z</time>
      </trkpt>
      <trkpt lat="41.342071" lon="1.975456">
        <ele>255.4</ele>
        <time>1970-01-01T03:03:03.000Z</time>
      </trkpt>
      <trkpt lat="41.342081" lon="1.975535">
        <ele>256.0</ele>
        <time>1970-01-01T03:03:07.000Z</time>
      </trkpt>
      <trkpt lat="41.342095" lon="1.975608">
        <ele>256.8</ele>
        <time>1970-01-01T03:03:11.000Z</time>
      </trkpt>
      <trkpt lat="41.342108" lon="1.97568">
        <ele>258.0</ele>
        <time>1970-01-01T03:03:15.000Z</time>
      </trkpt>
      <trkpt lat="41.342131" lon="1.975753">
        <ele>258.8</ele>
        <time>1970-01-01T03:03:19.000Z</time>
      </trkpt>
      <trkpt lat="41.34215" lon="1.975825">
        <ele>259.8</ele>
        <time>1970-01-01T03:03:23.000Z</time>
      </trkpt>
      <trkpt lat="41.342168" lon="1.975896">
        <ele>260.6</ele>
        <time>1970-01-01T03:03:27.000Z</time>
      </trkpt>
      <trkpt lat="41.342205" lon="1.975966">
        <ele>260.8</ele>
        <time>1970-01-01T03:03:31.000Z</time>
      </trkpt>
      <trkpt lat="41.342231" lon="1.976045">
        <ele>261.4</ele>
        <time>1970-01-01T03:03:35.000Z</time>
      </trkpt>
      <trkpt lat="41.342261" lon="1.976138">
        <ele>261.6</ele>
        <time>1970-01-01T03:03:39.000Z</time>
      </trkpt>
      <trkpt lat="41.3423" lon="1.976225">
        <ele>262.2</ele>
        <time>1970-01-01T03:03:43.000Z</time>
      </trkpt>
      <trkpt lat="41.342321" lon="1.976326">
        <ele>262.4</ele>
        <time>1970-01-01T03:03:47.000Z</time>
      </trkpt>
      <trkpt lat="41.342325" lon="1.976455">
        <ele>262.0</ele>
        <time>1970-01-01T03:03:51.000Z</time>
      </trkpt>
      <trkpt lat="41.34226" lon="1.976561">
        <ele>262.2</ele>
        <time>1970-01-01T03:03:55.000Z</time>
      </trkpt>
      <trkpt lat="41.342218" lon="1.976625">
        <ele>263.2</ele>
        <time>1970-01-01T03:03:59.000Z</time>
      </trkpt>
      <trkpt lat="41.3422" lon="1.976703">
        <ele>264.0</ele>
        <time>1970-01-01T03:04:03.000Z</time>
      </trkpt>
      <trkpt lat="41.342196" lon="1.976783">
        <ele>264.8</ele>
        <time>1970-01-01T03:04:07.000Z</time>
      </trkpt>
      <trkpt lat="41.342226" lon="1.976855">
        <ele>265.8</ele>
        <time>1970-01-01T03:04:11.000Z</time>
      </trkpt>
      <trkpt lat="41.342263" lon="1.976915">
        <ele>267.0</ele>
        <time>1970-01-01T03:04:15.000Z</time>
      </trkpt>
      <trkpt lat="41.342291" lon="1.976971">
        <ele>268.6</ele>
        <time>1970-01-01T03:04:19.000Z</time>
      </trkpt>
      <trkpt lat="41.342328" lon="1.977011">
        <ele>269.6</ele>
        <time>1970-01-01T03:04:23.000Z</time>
      </trkpt>
      <trkpt lat="41.342338" lon="1.977071">
        <ele>270.4</ele>
        <time>1970-01-01T03:04:27.000Z</time>
      </trkpt>
      <trkpt lat="41.34238" lon="1.977116">
        <ele>271.6</ele>
        <time>1970-01-01T03:04:31.000Z</time>
      </trkpt>
      <trkpt lat="41.342425" lon="1.97714">
        <ele>272.4</ele>
        <time>1970-01-01T03:04:35.000Z</time>
      </trkpt>
      <trkpt lat="41.342438" lon="1.97719">
        <ele>273.4</ele>
        <time>1970-01-01T03:04:39.000Z</time>
      </trkpt>
      <trkpt lat="41.342473" lon="1.977235">
        <ele>274.0</ele>
        <time>1970-01-01T03:04:43.000Z</time>
      </trkpt>
      <trkpt lat="41.342516" lon="1.977258">
        <ele>275.2</ele>
        <time>1970-01-01T03:04:47.000Z</time>
      </trkpt>
      <trkpt lat="41.342546" lon="1.9773">
        <ele>275.8</ele>
        <time>1970-01-01T03:04:51.000Z</time>
      </trkpt>
      <trkpt lat="41.342566" lon="1.977353">
        <ele>276.6</ele>
        <time>1970-01-01T03:04:55.000Z</time>
      </trkpt>
      <trkpt lat="41.342606" lon="1.977376">
        <ele>277.4</ele>
        <time>1970-01-01T03:04:59.000Z</time>
      </trkpt>
      <trkpt lat="41.342651" lon="1.977393">
        <ele>278.6</ele>
        <time>1970-01-01T03:05:03.000Z</time>
      </trkpt>
      <trkpt lat="41.342665" lon="1.977446">
        <ele>279.6</ele>
        <time>1970-01-01T03:05:07.000Z</time>
      </trkpt>
      <trkpt lat="41.342706" lon="1.977455">
        <ele>280.6</ele>
        <time>1970-01-01T03:05:11.000Z</time>
      </trkpt>
      <trkpt lat="41.342745" lon="1.977483">
        <ele>281.4</ele>
        <time>1970-01-01T03:05:15.000Z</time>
      </trkpt>
      <trkpt lat="41.342778" lon="1.977516">
        <ele>282.4</ele>
        <time>1970-01-01T03:05:19.000Z</time>
      </trkpt>
      <trkpt lat="41.342818" lon="1.977556">
        <ele>283.2</ele>
        <time>1970-01-01T03:05:23.000Z</time>
      </trkpt>
      <trkpt lat="41.34285" lon="1.97761">
        <ele>284.0</ele>
        <time>1970-01-01T03:05:27.000Z</time>
      </trkpt>
      <trkpt lat="41.342881" lon="1.977665">
        <ele>284.8</ele>
        <time>1970-01-01T03:05:31.000Z</time>
      </trkpt>
      <trkpt lat="41.342906" lon="1.977725">
        <ele>285.0</ele>
        <time>1970-01-01T03:05:35.000Z</time>
      </trkpt>
      <trkpt lat="41.342938" lon="1.97783">
        <ele>284.8</ele>
        <time>1970-01-01T03:05:39.000Z</time>
      </trkpt>
      <trkpt lat="41.342965" lon="1.977958">
        <ele>284.6</ele>
        <time>1970-01-01T03:05:43.000Z</time>
      </trkpt>
      <trkpt lat="41.343011" lon="1.978125">
        <ele>284.2</ele>
        <time>1970-01-01T03:05:47.000Z</time>
      </trkpt>
      <trkpt lat="41.34306" lon="1.978348">
        <ele>283.8</ele>
        <time>1970-01-01T03:05:51.000Z</time>
      </trkpt>
      <trkpt lat="41.343135" lon="1.978651">
        <ele>281.6</ele>
        <time>1970-01-01T03:05:55.000Z</time>
      </trkpt>
      <trkpt lat="41.343243" lon="1.978993">
        <ele>280.8</ele>
        <time>1970-01-01T03:05:59.000Z</time>
      </trkpt>
      <trkpt lat="41.343516" lon="1.97914">
        <ele>278.8</ele>
        <time>1970-01-01T03:06:03.000Z</time>
      </trkpt>
      <trkpt lat="41.34385" lon="1.97924">
        <ele>275.4</ele>
        <time>1970-01-01T03:06:07.000Z</time>
      </trkpt>
      <trkpt lat="41.34414" lon="1.979551">
        <ele>272.6</ele>
        <time>1970-01-01T03:06:11.000Z</time>
      </trkpt>
      <trkpt lat="41.344376" lon="1.979921">
        <ele>271.6</ele>
        <time>1970-01-01T03:06:15.000Z</time>
      </trkpt>
      <trkpt lat="41.344476" lon="1.980283">
        <ele>272.2</ele>
        <time>1970-01-01T03:06:19.000Z</time>
      </trkpt>
      <trkpt lat="41.344498" lon="1.9805">
        <ele>273.8</ele>
        <time>1970-01-01T03:06:23.000Z</time>
      </trkpt>
      <trkpt lat="41.344536" lon="1.980663">
        <ele>274.8</ele>
        <time>1970-01-01T03:06:27.000Z</time>
      </trkpt>
      <trkpt lat="41.34456" lon="1.980801">
        <ele>275.6</ele>
        <time>1970-01-01T03:06:31.000Z</time>
      </trkpt>
      <trkpt lat="41.34457" lon="1.980928">
        <ele>276.6</ele>
        <time>1970-01-01T03:06:35.000Z</time>
      </trkpt>
      <trkpt lat="41.344608" lon="1.981048">
        <ele>277.0</ele>
        <time>1970-01-01T03:06:39.000Z</time>
      </trkpt>
      <trkpt lat="41.344628" lon="1.981176">
        <ele>277.4</ele>
        <time>1970-01-01T03:06:43.000Z</time>
      </trkpt>
      <trkpt lat="41.344643" lon="1.9813">
        <ele>279.0</ele>
        <time>1970-01-01T03:06:47.000Z</time>
      </trkpt>
      <trkpt lat="41.344668" lon="1.98138">
        <ele>279.6</ele>
        <time>1970-01-01T03:06:51.000Z</time>
      </trkpt>
      <trkpt lat="41.344691" lon="1.981463">
        <ele>280.6</ele>
        <time>1970-01-01T03:06:55.000Z</time>
      </trkpt>
      <trkpt lat="41.344711" lon="1.98154">
        <ele>281.8</ele>
        <time>1970-01-01T03:06:59.000Z</time>
      </trkpt>
      <trkpt lat="41.344735" lon="1.981611">
        <ele>282.6</ele>
        <time>1970-01-01T03:07:03.000Z</time>
      </trkpt>
      <trkpt lat="41.344758" lon="1.981686">
        <ele>283.6</ele>
        <time>1970-01-01T03:07:07.000Z</time>
      </trkpt>
      <trkpt lat="41.344778" lon="1.981756">
        <ele>284.8</ele>
        <time>1970-01-01T03:07:11.000Z</time>
      </trkpt>
      <trkpt lat="41.344801" lon="1.981826">
        <ele>285.6</ele>
        <time>1970-01-01T03:07:15.000Z</time>
      </trkpt>
      <trkpt lat="41.344821" lon="1.981896">
        <ele>286.6</ele>
        <time>1970-01-01T03:07:19.000Z</time>
      </trkpt>
      <trkpt lat="41.344841" lon="1.981973">
        <ele>287.4</ele>
        <time>1970-01-01T03:07:23.000Z</time>
      </trkpt>
      <trkpt lat="41.344871" lon="1.982033">
        <ele>288.4</ele>
        <time>1970-01-01T03:07:27.000Z</time>
      </trkpt>
      <trkpt lat="41.344901" lon="1.982098">
        <ele>289.6</ele>
        <time>1970-01-01T03:07:31.000Z</time>
      </trkpt>
      <trkpt lat="41.344936" lon="1.982163">
        <ele>290.0</ele>
        <time>1970-01-01T03:07:35.000Z</time>
      </trkpt>
      <trkpt lat="41.34499" lon="1.982211">
        <ele>291.0</ele>
        <time>1970-01-01T03:07:39.000Z</time>
      </trkpt>
      <trkpt lat="41.345043" lon="1.982241">
        <ele>291.8</ele>
        <time>1970-01-01T03:07:43.000Z</time>
      </trkpt>
      <trkpt lat="41.345095" lon="1.982278">
        <ele>292.2</ele>
        <time>1970-01-01T03:07:47.000Z</time>
      </trkpt>
      <trkpt lat="41.345148" lon="1.9823">
        <ele>293.2</ele>
        <time>1970-01-01T03:07:51.000Z</time>
      </trkpt>
      <trkpt lat="41.345201" lon="1.982315">
        <ele>293.4</ele>
        <time>1970-01-01T03:07:55.000Z</time>
      </trkpt>
      <trkpt lat="41.345255" lon="1.982336">
        <ele>294.4</ele>
        <time>1970-01-01T03:07:59.000Z</time>
      </trkpt>
      <trkpt lat="41.345303" lon="1.982355">
        <ele>295.2</ele>
        <time>1970-01-01T03:08:03.000Z</time>
      </trkpt>
      <trkpt lat="41.345358" lon="1.98238">
        <ele>296.2</ele>
        <time>1970-01-01T03:08:07.000Z</time>
      </trkpt>
      <trkpt lat="41.345408" lon="1.982408">
        <ele>296.8</ele>
        <time>1970-01-01T03:08:11.000Z</time>
      </trkpt>
      <trkpt lat="41.345453" lon="1.982448">
        <ele>297.0</ele>
        <time>1970-01-01T03:08:15.000Z</time>
      </trkpt>
      <trkpt lat="41.345498" lon="1.982503">
        <ele>298.2</ele>
        <time>1970-01-01T03:08:19.000Z</time>
      </trkpt>
      <trkpt lat="41.345531" lon="1.982561">
        <ele>298.6</ele>
        <time>1970-01-01T03:08:23.000Z</time>
      </trkpt>
      <trkpt lat="41.34557" lon="1.982625">
        <ele>299.2</ele>
        <time>1970-01-01T03:08:27.000Z</time>
      </trkpt>
      <trkpt lat="41.345595" lon="1.982695">
        <ele>300.2</ele>
        <time>1970-01-01T03:08:31.000Z</time>
      </trkpt>
      <trkpt lat="41.34563" lon="1.982758">
        <ele>300.8</ele>
        <time>1970-01-01T03:08:35.000Z</time>
      </trkpt>
      <trkpt lat="41.345653" lon="1.982831">
        <ele>301.2</ele>
        <time>1970-01-01T03:08:39.000Z</time>
      </trkpt>
      <trkpt lat="41.345675" lon="1.982896">
        <ele>302.0</ele>
        <time>1970-01-01T03:08:43.000Z</time>
      </trkpt>
      <trkpt lat="41.345698" lon="1.982963">
        <ele>302.4</ele>
        <time>1970-01-01T03:08:47.000Z</time>
      </trkpt>
      <trkpt lat="41.345723" lon="1.983031">
        <ele>302.6</ele>
        <time>1970-01-01T03:08:51.000Z</time>
      </trkpt>
      <trkpt lat="41.345756" lon="1.9831">
        <ele>303.6</ele>
        <time>1970-01-01T03:08:55.000Z</time>
      </trkpt>
      <trkpt lat="41.345783" lon="1.983176">
        <ele>304.4</ele>
        <time>1970-01-01T03:08:59.000Z</time>
      </trkpt>
      <trkpt lat="41.345816" lon="1.983253">
        <ele>304.8</ele>
        <time>1970-01-01T03:09:03.000Z</time>
      </trkpt>
      <trkpt lat="41.345836" lon="1.983368">
        <ele>305.0</ele>
        <time>1970-01-01T03:09:07.000Z</time>
      </trkpt>
      <trkpt lat="41.345836" lon="1.98348">
        <ele>305.4</ele>
        <time>1970-01-01T03:09:11.000Z</time>
      </trkpt>
      <trkpt lat="41.345805" lon="1.983586">
        <ele>305.4</ele>
        <time>1970-01-01T03:09:15.000Z</time>
      </trkpt>
      <trkpt lat="41.345758" lon="1.983678">
        <ele>305.8</ele>
        <time>1970-01-01T03:09:19.000Z</time>
      </trkpt>
      <trkpt lat="41.345698" lon="1.98375">
        <ele>306.4</ele>
        <time>1970-01-01T03:09:23.000Z</time>
      </trkpt>
      <trkpt lat="41.345668" lon="1.983838">
        <ele>307.2</ele>
        <time>1970-01-01T03:09:27.000Z</time>
      </trkpt>
      <trkpt lat="41.345603" lon="1.983928">
        <ele>306.0</ele>
        <time>1970-01-01T03:09:31.000Z</time>
      </trkpt>
      <trkpt lat="41.345551" lon="1.983985">
        <ele>307.2</ele>
        <time>1970-01-01T03:09:35.000Z</time>
      </trkpt>
      <trkpt lat="41.345501" lon="1.98404">
        <ele>308.8</ele>
        <time>1970-01-01T03:09:39.000Z</time>
      </trkpt>
      <trkpt lat="41.345448" lon="1.9841">
        <ele>310.8</ele>
        <time>1970-01-01T03:09:43.000Z</time>
      </trkpt>
      <trkpt lat="41.345423" lon="1.984155">
        <ele>312.4</ele>
        <time>1970-01-01T03:09:47.000Z</time>
      </trkpt>
      <trkpt lat="41.345393" lon="1.984206">
        <ele>313.0</ele>
        <time>1970-01-01T03:09:51.000Z</time>
      </trkpt>
      <trkpt lat="41.345368" lon="1.984265">
        <ele>313.6</ele>
        <time>1970-01-01T03:09:55.000Z</time>
      </trkpt>
      <trkpt lat="41.345341" lon="1.98432">
        <ele>314.2</ele>
        <time>1970-01-01T03:09:59.000Z</time>
      </trkpt>
      <trkpt lat="41.345306" lon="1.984391">
        <ele>314.8</ele>
        <time>1970-01-01T03:10:03.000Z</time>
      </trkpt>
      <trkpt lat="41.345278" lon="1.984463">
        <ele>314.8</ele>
        <time>1970-01-01T03:10:07.000Z</time>
      </trkpt>
      <trkpt lat="41.345238" lon="1.984535">
        <ele>314.8</ele>
        <time>1970-01-01T03:10:11.000Z</time>
      </trkpt>
      <trkpt lat="41.345193" lon="1.984611">
        <ele>315.8</ele>
        <time>1970-01-01T03:10:15.000Z</time>
      </trkpt>
      <trkpt lat="41.34515" lon="1.984685">
        <ele>316.2</ele>
        <time>1970-01-01T03:10:19.000Z</time>
      </trkpt>
      <trkpt lat="41.3451" lon="1.984795">
        <ele>316.2</ele>
        <time>1970-01-01T03:10:23.000Z</time>
      </trkpt>
      <trkpt lat="41.345041" lon="1.984905">
        <ele>316.0</ele>
        <time>1970-01-01T03:10:27.000Z</time>
      </trkpt>
      <trkpt lat="41.34498" lon="1.984995">
        <ele>316.8</ele>
        <time>1970-01-01T03:10:31.000Z</time>
      </trkpt>
      <trkpt lat="41.34499" lon="1.985158">
        <ele>316.4</ele>
        <time>1970-01-01T03:10:35.000Z</time>
      </trkpt>
      <trkpt lat="41.345018" lon="1.985346">
        <ele>316.6</ele>
        <time>1970-01-01T03:10:39.000Z</time>
      </trkpt>
      <trkpt lat="41.345078" lon="1.985548">
        <ele>316.0</ele>
        <time>1970-01-01T03:10:43.000Z</time>
      </trkpt>
      <trkpt lat="41.345168" lon="1.985855">
        <ele>314.2</ele>
        <time>1970-01-01T03:10:47.000Z</time>
      </trkpt>
      <trkpt lat="41.345298" lon="1.986275">
        <ele>310.0</ele>
        <time>1970-01-01T03:10:51.000Z</time>
      </trkpt>
      <trkpt lat="41.34542" lon="1.98675">
        <ele>306.0</ele>
        <time>1970-01-01T03:10:55.000Z</time>
      </trkpt>
      <trkpt lat="41.345436" lon="1.987133">
        <ele>302.6</ele>
        <time>1970-01-01T03:10:59.000Z</time>
      </trkpt>
      <trkpt lat="41.34535" lon="1.987378">
        <ele>304.4</ele>
        <time>1970-01-01T03:11:03.000Z</time>
      </trkpt>
      <trkpt lat="41.345308" lon="1.987555">
        <ele>306.6</ele>
        <time>1970-01-01T03:11:07.000Z</time>
      </trkpt>
      <trkpt lat="41.345275" lon="1.987725">
        <ele>308.0</ele>
        <time>1970-01-01T03:11:11.000Z</time>
      </trkpt>
      <trkpt lat="41.34525" lon="1.987898">
        <ele>308.8</ele>
        <time>1970-01-01T03:11:15.000Z</time>
      </trkpt>
      <trkpt lat="41.345416" lon="1.98812">
        <ele>306.0</ele>
        <time>1970-01-01T03:11:19.000Z</time>
      </trkpt>
      <trkpt lat="41.345623" lon="1.988355">
        <ele>303.0</ele>
        <time>1970-01-01T03:11:23.000Z</time>
      </trkpt>
      <trkpt lat="41.345791" lon="1.988558">
        <ele>295.8</ele>
        <time>1970-01-01T03:11:27.000Z</time>
      </trkpt>
      <trkpt lat="41.345961" lon="1.988751">
        <ele>290.4</ele>
        <time>1970-01-01T03:11:31.000Z</time>
      </trkpt>
      <trkpt lat="41.346115" lon="1.988945">
        <ele>290.2</ele>
        <time>1970-01-01T03:11:35.000Z</time>
      </trkpt>
      <trkpt lat="41.346256" lon="1.989166">
        <ele>286.6</ele>
        <time>1970-01-01T03:11:39.000Z</time>
      </trkpt>
      <trkpt lat="41.346385" lon="1.989358">
        <ele>282.4</ele>
        <time>1970-01-01T03:11:43.000Z</time>
      </trkpt>
      <trkpt lat="41.346555" lon="1.989565">
        <ele>277.8</ele>
        <time>1970-01-01T03:11:47.000Z</time>
      </trkpt>
      <trkpt lat="41.346905" lon="1.989791">
        <ele>271.0</ele>
        <time>1970-01-01T03:11:51.000Z</time>
      </trkpt>
      <trkpt lat="41.34723" lon="1.990001">
        <ele>272.4</ele>
        <time>1970-01-01T03:11:55.000Z</time>
      </trkpt>
      <trkpt lat="41.347381" lon="1.990115">
        <ele>272.4</ele>
        <time>1970-01-01T03:11:59.000Z</time>
      </trkpt>
      <trkpt lat="41.347671" lon="1.99037">
        <ele>263.2</ele>
        <time>1970-01-01T03:12:03.000Z</time>
      </trkpt>
      <trkpt lat="41.34803" lon="1.990651">
        <ele>261.6</ele>
        <time>1970-01-01T03:12:07.000Z</time>
      </trkpt>
      <trkpt lat="41.348188" lon="1.990935">
        <ele>263.6</ele>
        <time>1970-01-01T03:12:11.000Z</time>
      </trkpt>
      <trkpt lat="41.348296" lon="1.991008">
        <ele>266.2</ele>
        <time>1970-01-01T03:12:15.000Z</time>
      </trkpt>
      <trkpt lat="41.348393" lon="1.991056">
        <ele>268.2</ele>
        <time>1970-01-01T03:12:19.000Z</time>
      </trkpt>
      <trkpt lat="41.348506" lon="1.991063">
        <ele>268.4</ele>
        <time>1970-01-01T03:12:23.000Z</time>
      </trkpt>
      <trkpt lat="41.348668" lon="1.991046">
        <ele>268.4</ele>
        <time>1970-01-01T03:12:27.000Z</time>
      </trkpt>
      <trkpt lat="41.34889" lon="1.991001">
        <ele>266.6</ele>
        <time>1970-01-01T03:12:31.000Z</time>
      </trkpt>
      <trkpt lat="41.349098" lon="1.990906">
        <ele>266.8</ele>
        <time>1970-01-01T03:12:35.000Z</time>
      </trkpt>
      <trkpt lat="41.349271" lon="1.990941">
        <ele>268.4</ele>
        <time>1970-01-01T03:12:39.000Z</time>
      </trkpt>
      <trkpt lat="41.34944" lon="1.991013">
        <ele>270.2</ele>
        <time>1970-01-01T03:12:43.000Z</time>
      </trkpt>
      <trkpt lat="41.349618" lon="1.991063">
        <ele>270.8</ele>
        <time>1970-01-01T03:12:47.000Z</time>
      </trkpt>
      <trkpt lat="41.349761" lon="1.991136">
        <ele>271.4</ele>
        <time>1970-01-01T03:12:51.000Z</time>
      </trkpt>
      <trkpt lat="41.3499" lon="1.99124">
        <ele>271.0</ele>
        <time>1970-01-01T03:12:55.000Z</time>
      </trkpt>
      <trkpt lat="41.350055" lon="1.991375">
        <ele>269.8</ele>
        <time>1970-01-01T03:12:59.000Z</time>
      </trkpt>
      <trkpt lat="41.350225" lon="1.991483">
        <ele>266.8</ele>
        <time>1970-01-01T03:13:03.000Z</time>
      </trkpt>
      <trkpt lat="41.350426" lon="1.991703">
        <ele>261.6</ele>
        <time>1970-01-01T03:13:07.000Z</time>
      </trkpt>
      <trkpt lat="41.350588" lon="1.991815">
        <ele>257.4</ele>
        <time>1970-01-01T03:13:11.000Z</time>
      </trkpt>
      <trkpt lat="41.350715" lon="1.991836">
        <ele>254.4</ele>
        <time>1970-01-01T03:13:15.000Z</time>
      </trkpt>
      <trkpt lat="41.350845" lon="1.991793">
        <ele>249.4</ele>
        <time>1970-01-01T03:13:19.000Z</time>
      </trkpt>
      <trkpt lat="41.351008" lon="1.991926">
        <ele>245.2</ele>
        <time>1970-01-01T03:13:23.000Z</time>
      </trkpt>
      <trkpt lat="41.351193" lon="1.992143">
        <ele>237.4</ele>
        <time>1970-01-01T03:13:27.000Z</time>
      </trkpt>
      <trkpt lat="41.351473" lon="1.992451">
        <ele>235.0</ele>
        <time>1970-01-01T03:13:31.000Z</time>
      </trkpt>
      <trkpt lat="41.351798" lon="1.992698">
        <ele>230.2</ele>
        <time>1970-01-01T03:13:35.000Z</time>
      </trkpt>
      <trkpt lat="41.352121" lon="1.992833">
        <ele>229.4</ele>
        <time>1970-01-01T03:13:39.000Z</time>
      </trkpt>
      <trkpt lat="41.352311" lon="1.993">
        <ele>228.4</ele>
        <time>1970-01-01T03:13:43.000Z</time>
      </trkpt>
      <trkpt lat="41.352438" lon="1.993138">
        <ele>231.2</ele>
        <time>1970-01-01T03:13:47.000Z</time>
      </trkpt>
      <trkpt lat="41.352535" lon="1.993218">
        <ele>232.4</ele>
        <time>1970-01-01T03:13:51.000Z</time>
      </trkpt>
      <trkpt lat="41.352658" lon="1.993215">
        <ele>233.0</ele>
        <time>1970-01-01T03:13:55.000Z</time>
      </trkpt>
      <trkpt lat="41.352818" lon="1.993153">
        <ele>231.4</ele>
        <time>1970-01-01T03:13:59.000Z</time>
      </trkpt>
      <trkpt lat="41.352921" lon="1.993095">
        <ele>235.0</ele>
        <time>1970-01-01T03:14:03.000Z</time>
      </trkpt>
      <trkpt lat="41.352986" lon="1.99307">
        <ele>237.2</ele>
        <time>1970-01-01T03:14:07.000Z</time>
      </trkpt>
      <trkpt lat="41.353043" lon="1.993045">
        <ele>238.6</ele>
        <time>1970-01-01T03:14:11.000Z</time>
      </trkpt>
      <trkpt lat="41.35312" lon="1.993055">
        <ele>238.8</ele>
        <time>1970-01-01T03:14:15.000Z</time>
      </trkpt>
      <trkpt lat="41.353316" lon="1.99313">
        <ele>235.2</ele>
        <time>1970-01-01T03:14:19.000Z</time>
      </trkpt>
      <trkpt lat="41.353508" lon="1.993346">
        <ele>232.4</ele>
        <time>1970-01-01T03:14:23.000Z</time>
      </trkpt>
      <trkpt lat="41.353715" lon="1.993633">
        <ele>228.2</ele>
        <time>1970-01-01T03:14:27.000Z</time>
      </trkpt>
      <trkpt lat="41.353968" lon="1.993821">
        <ele>227.0</ele>
        <time>1970-01-01T03:14:31.000Z</time>
      </trkpt>
      <trkpt lat="41.354116" lon="1.994065">
        <ele>220.6</ele>
        <time>1970-01-01T03:14:35.000Z</time>
      </trkpt>
      <trkpt lat="41.354203" lon="1.994391">
        <ele>218.6</ele>
        <time>1970-01-01T03:14:39.000Z</time>
      </trkpt>
      <trkpt lat="41.354276" lon="1.994643">
        <ele>219.4</ele>
        <time>1970-01-01T03:14:43.000Z</time>
      </trkpt>
      <trkpt lat="41.35431" lon="1.994786">
        <ele>220.4</ele>
        <time>1970-01-01T03:14:47.000Z</time>
      </trkpt>
      <trkpt lat="41.354361" lon="1.994923">
        <ele>221.0</ele>
        <time>1970-01-01T03:14:51.000Z</time>
      </trkpt>
      <trkpt lat="41.354396" lon="1.995053">
        <ele>221.8</ele>
        <time>1970-01-01T03:14:55.000Z</time>
      </trkpt>
      <trkpt lat="41.354445" lon="1.995173">
        <ele>221.4</ele>
        <time>1970-01-01T03:14:59.000Z</time>
      </trkpt>
      <trkpt lat="41.354493" lon="1.995285">
        <ele>221.6</ele>
        <time>1970-01-01T03:15:03.000Z</time>
      </trkpt>
      <trkpt lat="41.354561" lon="1.995408">
        <ele>221.6</ele>
        <time>1970-01-01T03:15:07.000Z</time>
      </trkpt>
      <trkpt lat="41.35463" lon="1.995538">
        <ele>221.8</ele>
        <time>1970-01-01T03:15:11.000Z</time>
      </trkpt>
      <trkpt lat="41.354698" lon="1.995673">
        <ele>223.0</ele>
        <time>1970-01-01T03:15:15.000Z</time>
      </trkpt>
      <trkpt lat="41.35475" lon="1.995801">
        <ele>223.0</ele>
        <time>1970-01-01T03:15:19.000Z</time>
      </trkpt>
      <trkpt lat="41.354786" lon="1.995936">
        <ele>223.0</ele>
        <time>1970-01-01T03:15:23.000Z</time>
      </trkpt>
      <trkpt lat="41.35482" lon="1.996085">
        <ele>224.4</ele>
        <time>1970-01-01T03:15:27.000Z</time>
      </trkpt>
      <trkpt lat="41.354836" lon="1.996228">
        <ele>223.6</ele>
        <time>1970-01-01T03:15:31.000Z</time>
      </trkpt>
      <trkpt lat="41.35485" lon="1.996363">
        <ele>224.4</ele>
        <time>1970-01-01T03:15:35.000Z</time>
      </trkpt>
      <trkpt lat="41.354856" lon="1.996503">
        <ele>224.2</ele>
        <time>1970-01-01T03:15:39.000Z</time>
      </trkpt>
      <trkpt lat="41.35486" lon="1.996651">
        <ele>224.0</ele>
        <time>1970-01-01T03:15:43.000Z</time>
      </trkpt>
      <trkpt lat="41.354901" lon="1.996801">
        <ele>224.0</ele>
        <time>1970-01-01T03:15:47.000Z</time>
      </trkpt>
      <trkpt lat="41.354886" lon="1.996985">
        <ele>224.0</ele>
        <time>1970-01-01T03:15:51.000Z</time>
      </trkpt>
      <trkpt lat="41.35482" lon="1.997185">
        <ele>223.4</ele>
        <time>1970-01-01T03:15:55.000Z</time>
      </trkpt>
      <trkpt lat="41.354785" lon="1.997405">
        <ele>223.8</ele>
        <time>1970-01-01T03:15:59.000Z</time>
      </trkpt>
      <trkpt lat="41.354816" lon="1.997608">
        <ele>224.0</ele>
        <time>1970-01-01T03:16:03.000Z</time>
      </trkpt>
      <trkpt lat="41.354866" lon="1.997795">
        <ele>224.4</ele>
        <time>1970-01-01T03:16:07.000Z</time>
      </trkpt>
      <trkpt lat="41.354811" lon="1.998028">
        <ele>223.4</ele>
        <time>1970-01-01T03:16:11.000Z</time>
      </trkpt>
      <trkpt lat="41.354646" lon="1.998263">
        <ele>223.0</ele>
        <time>1970-01-01T03:16:15.000Z</time>
      </trkpt>
      <trkpt lat="41.354496" lon="1.998386">
        <ele>223.4</ele>
        <time>1970-01-01T03:16:19.000Z</time>
      </trkpt>
      <trkpt lat="41.354403" lon="1.998525">
        <ele>223.4</ele>
        <time>1970-01-01T03:16:23.000Z</time>
      </trkpt>
      <trkpt lat="41.3544" lon="1.998685">
        <ele>224.6</ele>
        <time>1970-01-01T03:16:27.000Z</time>
      </trkpt>
      <trkpt lat="41.354435" lon="1.998838">
        <ele>224.6</ele>
        <time>1970-01-01T03:16:31.000Z</time>
      </trkpt>
      <trkpt lat="41.354501" lon="1.998968">
        <ele>225.0</ele>
        <time>1970-01-01T03:16:35.000Z</time>
      </trkpt>
      <trkpt lat="41.354575" lon="1.999083">
        <ele>224.6</ele>
        <time>1970-01-01T03:16:39.000Z</time>
      </trkpt>
      <trkpt lat="41.35466" lon="1.999176">
        <ele>225.8</ele>
        <time>1970-01-01T03:16:43.000Z</time>
      </trkpt>
      <trkpt lat="41.354735" lon="1.999281">
        <ele>227.2</ele>
        <time>1970-01-01T03:16:47.000Z</time>
      </trkpt>
      <trkpt lat="41.354808" lon="1.999385">
        <ele>228.4</ele>
        <time>1970-01-01T03:16:51.000Z</time>
      </trkpt>
      <trkpt lat="41.354865" lon="1.999468">
        <ele>229.0</ele>
        <time>1970-01-01T03:16:55.000Z</time>
      </trkpt>
      <trkpt lat="41.354906" lon="1.999533">
        <ele>230.2</ele>
        <time>1970-01-01T03:16:59.000Z</time>
      </trkpt>
      <trkpt lat="41.354958" lon="1.999601">
        <ele>231.4</ele>
        <time>1970-01-01T03:17:03.000Z</time>
      </trkpt>
      <trkpt lat="41.355006" lon="1.999648">
        <ele>232.6</ele>
        <time>1970-01-01T03:17:07.000Z</time>
      </trkpt>
      <trkpt lat="41.355043" lon="1.999681">
        <ele>233.4</ele>
        <time>1970-01-01T03:17:11.000Z</time>
      </trkpt>
      <trkpt lat="41.355081" lon="1.999715">
        <ele>234.4</ele>
        <time>1970-01-01T03:17:15.000Z</time>
      </trkpt>
      <trkpt lat="41.355121" lon="1.999746">
        <ele>234.8</ele>
        <time>1970-01-01T03:17:19.000Z</time>
      </trkpt>
      <trkpt lat="41.355165" lon="1.999773">
        <ele>235.0</ele>
        <time>1970-01-01T03:17:23.000Z</time>
      </trkpt>
      <trkpt lat="41.355306" lon="1.999905">
        <ele>237.0</ele>
        <time>1970-01-01T03:18:38.000Z</time>
      </trkpt>
      <trkpt lat="41.355345" lon="1.999966">
        <ele>237.2</ele>
        <time>1970-01-01T03:18:42.000Z</time>
      </trkpt>
      <trkpt lat="41.355401" lon="2.000016">
        <ele>237.2</ele>
        <time>1970-01-01T03:18:46.000Z</time>
      </trkpt>
      <trkpt lat="41.355453" lon="2.000075">
        <ele>237.8</ele>
        <time>1970-01-01T03:18:50.000Z</time>
      </trkpt>
      <trkpt lat="41.3555" lon="2.000128">
        <ele>238.8</ele>
        <time>1970-01-01T03:18:54.000Z</time>
      </trkpt>
      <trkpt lat="41.355556" lon="2.000175">
        <ele>238.8</ele>
        <time>1970-01-01T03:18:58.000Z</time>
      </trkpt>
      <trkpt lat="41.355613" lon="2.000231">
        <ele>239.2</ele>
        <time>1970-01-01T03:19:02.000Z</time>
      </trkpt>
      <trkpt lat="41.355658" lon="2.0003">
        <ele>240.2</ele>
        <time>1970-01-01T03:19:06.000Z</time>
      </trkpt>
      <trkpt lat="41.355693" lon="2.00037">
        <ele>242.0</ele>
        <time>1970-01-01T03:19:10.000Z</time>
      </trkpt>
      <trkpt lat="41.355716" lon="2.00045">
        <ele>242.6</ele>
        <time>1970-01-01T03:19:14.000Z</time>
      </trkpt>
      <trkpt lat="41.355745" lon="2.000535">
        <ele>243.4</ele>
        <time>1970-01-01T03:19:18.000Z</time>
      </trkpt>
      <trkpt lat="41.355761" lon="2.000618">
        <ele>244.0</ele>
        <time>1970-01-01T03:19:22.000Z</time>
      </trkpt>
      <trkpt lat="41.355783" lon="2.000703">
        <ele>244.0</ele>
        <time>1970-01-01T03:19:26.000Z</time>
      </trkpt>
      <trkpt lat="41.355815" lon="2.000783">
        <ele>243.6</ele>
        <time>1970-01-01T03:19:30.000Z</time>
      </trkpt>
      <trkpt lat="41.355856" lon="2.00092">
        <ele>240.4</ele>
        <time>1970-01-01T03:19:34.000Z</time>
      </trkpt>
      <trkpt lat="41.356006" lon="2.001155">
        <ele>236.2</ele>
        <time>1970-01-01T03:19:38.000Z</time>
      </trkpt>
      <trkpt lat="41.35621" lon="2.001548">
        <ele>231.6</ele>
        <time>1970-01-01T03:19:42.000Z</time>
      </trkpt>
      <trkpt lat="41.356441" lon="2.002041">
        <ele>226.0</ele>
        <time>1970-01-01T03:19:46.000Z</time>
      </trkpt>
      <trkpt lat="41.356553" lon="2.00255">
        <ele>223.2</ele>
        <time>1970-01-01T03:19:50.000Z</time>
      </trkpt>
      <trkpt lat="41.356636" lon="2.002801">
        <ele>223.2</ele>
        <time>1970-01-01T03:19:54.000Z</time>
      </trkpt>
      <trkpt lat="41.356785" lon="2.002751">
        <ele>223.6</ele>
        <time>1970-01-01T03:19:58.000Z</time>
      </trkpt>
      <trkpt lat="41.3569" lon="2.002603">
        <ele>224.4</ele>
        <time>1970-01-01T03:20:02.000Z</time>
      </trkpt>
      <trkpt lat="41.357021" lon="2.002463">
        <ele>225.6</ele>
        <time>1970-01-01T03:20:06.000Z</time>
      </trkpt>
      <trkpt lat="41.357128" lon="2.002328">
        <ele>226.4</ele>
        <time>1970-01-01T03:20:10.000Z</time>
      </trkpt>
      <trkpt lat="41.35725" lon="2.002223">
        <ele>225.6</ele>
        <time>1970-01-01T03:20:14.000Z</time>
      </trkpt>
      <trkpt lat="41.35736" lon="2.00209">
        <ele>226.6</ele>
        <time>1970-01-01T03:20:18.000Z</time>
      </trkpt>
      <trkpt lat="41.357443" lon="2.001913">
        <ele>226.2</ele>
        <time>1970-01-01T03:20:22.000Z</time>
      </trkpt>
      <trkpt lat="41.357488" lon="2.001703">
        <ele>225.2</ele>
        <time>1970-01-01T03:20:26.000Z</time>
      </trkpt>
      <trkpt lat="41.357551" lon="2.001438">
        <ele>223.0</ele>
        <time>1970-01-01T03:20:30.000Z</time>
      </trkpt>
      <trkpt lat="41.357645" lon="2.001068">
        <ele>223.0</ele>
        <time>1970-01-01T03:20:34.000Z</time>
      </trkpt>
      <trkpt lat="41.357728" lon="2.000706">
        <ele>222.6</ele>
        <time>1970-01-01T03:20:38.000Z</time>
      </trkpt>
      <trkpt lat="41.357798" lon="2.000408">
        <ele>221.2</ele>
        <time>1970-01-01T03:20:42.000Z</time>
      </trkpt>
      <trkpt lat="41.357888" lon="2.000051">
        <ele>222.8</ele>
        <time>1970-01-01T03:20:46.000Z</time>
      </trkpt>
      <trkpt lat="41.35803" lon="1.999835">
        <ele>223.4</ele>
        <time>1970-01-01T03:20:50.000Z</time>
      </trkpt>
      <trkpt lat="41.358153" lon="1.999721">
        <ele>224.6</ele>
        <time>1970-01-01T03:20:54.000Z</time>
      </trkpt>
      <trkpt lat="41.358251" lon="1.999673">
        <ele>226.2</ele>
        <time>1970-01-01T03:20:58.000Z</time>
      </trkpt>
      <trkpt lat="41.358355" lon="1.999643">
        <ele>227.4</ele>
        <time>1970-01-01T03:21:02.000Z</time>
      </trkpt>
      <trkpt lat="41.358453" lon="1.999646">
        <ele>228.4</ele>
        <time>1970-01-01T03:21:06.000Z</time>
      </trkpt>
      <trkpt lat="41.358555" lon="1.999628">
        <ele>227.8</ele>
        <time>1970-01-01T03:21:10.000Z</time>
      </trkpt>
      <trkpt lat="41.358671" lon="1.999573">
        <ele>228.0</ele>
        <time>1970-01-01T03:21:14.000Z</time>
      </trkpt>
      <trkpt lat="41.358796" lon="1.9995">
        <ele>228.4</ele>
        <time>1970-01-01T03:21:18.000Z</time>
      </trkpt>
      <trkpt lat="41.358933" lon="1.999431">
        <ele>228.8</ele>
        <time>1970-01-01T03:21:22.000Z</time>
      </trkpt>
      <trkpt lat="41.359073" lon="1.999386">
        <ele>230.0</ele>
        <time>1970-01-01T03:21:26.000Z</time>
      </trkpt>
      <trkpt lat="41.359193" lon="1.99934">
        <ele>230.8</ele>
        <time>1970-01-01T03:21:30.000Z</time>
      </trkpt>
      <trkpt lat="41.359298" lon="1.999275">
        <ele>231.4</ele>
        <time>1970-01-01T03:21:34.000Z</time>
      </trkpt>
      <trkpt lat="41.359416" lon="1.999213">
        <ele>231.8</ele>
        <time>1970-01-01T03:21:38.000Z</time>
      </trkpt>
      <trkpt lat="41.35951" lon="1.999118">
        <ele>232.2</ele>
        <time>1970-01-01T03:21:42.000Z</time>
      </trkpt>
      <trkpt lat="41.359595" lon="1.999026">
        <ele>231.6</ele>
        <time>1970-01-01T03:21:46.000Z</time>
      </trkpt>
      <trkpt lat="41.359715" lon="1.998956">
        <ele>231.8</ele>
        <time>1970-01-01T03:21:50.000Z</time>
      </trkpt>
      <trkpt lat="41.3598" lon="1.998816">
        <ele>231.2</ele>
        <time>1970-01-01T03:21:54.000Z</time>
      </trkpt>
      <trkpt lat="41.359938" lon="1.998661">
        <ele>230.6</ele>
        <time>1970-01-01T03:21:58.000Z</time>
      </trkpt>
      <trkpt lat="41.360108" lon="1.998525">
        <ele>230.0</ele>
        <time>1970-01-01T03:22:02.000Z</time>
      </trkpt>
      <trkpt lat="41.36029" lon="1.998433">
        <ele>229.6</ele>
        <time>1970-01-01T03:22:06.000Z</time>
      </trkpt>
      <trkpt lat="41.3605" lon="1.998386">
        <ele>227.6</ele>
        <time>1970-01-01T03:22:10.000Z</time>
      </trkpt>
      <trkpt lat="41.360773" lon="1.998398">
        <ele>224.4</ele>
        <time>1970-01-01T03:22:14.000Z</time>
      </trkpt>
      <trkpt lat="41.361093" lon="1.998485">
        <ele>220.8</ele>
        <time>1970-01-01T03:22:18.000Z</time>
      </trkpt>
      <trkpt lat="41.361448" lon="1.998338">
        <ele>219.6</ele>
        <time>1970-01-01T03:22:22.000Z</time>
      </trkpt>
      <trkpt lat="41.361768" lon="1.998185">
        <ele>218.6</ele>
        <time>1970-01-01T03:22:26.000Z</time>
      </trkpt>
      <trkpt lat="41.361923" lon="1.998263">
        <ele>218.0</ele>
        <time>1970-01-01T03:22:30.000Z</time>
      </trkpt>
      <trkpt lat="41.362066" lon="1.998445">
        <ele>219.4</ele>
        <time>1970-01-01T03:22:34.000Z</time>
      </trkpt>
      <trkpt lat="41.362186" lon="1.998591">
        <ele>221.2</ele>
        <time>1970-01-01T03:22:38.000Z</time>
      </trkpt>
      <trkpt lat="41.362348" lon="1.998655">
        <ele>221.6</ele>
        <time>1970-01-01T03:22:42.000Z</time>
      </trkpt>
      <trkpt lat="41.362495" lon="1.9987">
        <ele>222.2</ele>
        <time>1970-01-01T03:22:46.000Z</time>
      </trkpt>
      <trkpt lat="41.362636" lon="1.998763">
        <ele>223.0</ele>
        <time>1970-01-01T03:22:50.000Z</time>
      </trkpt>
      <trkpt lat="41.36278" lon="1.998865">
        <ele>221.2</ele>
        <time>1970-01-01T03:22:54.000Z</time>
      </trkpt>
      <trkpt lat="41.362986" lon="1.998965">
        <ele>219.8</ele>
        <time>1970-01-01T03:22:58.000Z</time>
      </trkpt>
      <trkpt lat="41.363236" lon="1.999015">
        <ele>219.8</ele>
        <time>1970-01-01T03:23:02.000Z</time>
      </trkpt>
      <trkpt lat="41.363476" lon="1.999091">
        <ele>218.8</ele>
        <time>1970-01-01T03:23:06.000Z</time>
      </trkpt>
      <trkpt lat="41.36356" lon="1.999363">
        <ele>217.8</ele>
        <time>1970-01-01T03:23:10.000Z</time>
      </trkpt>
      <trkpt lat="41.363583" lon="1.999725">
        <ele>217.2</ele>
        <time>1970-01-01T03:23:14.000Z</time>
      </trkpt>
      <trkpt lat="41.363715" lon="2.000008">
        <ele>218.2</ele>
        <time>1970-01-01T03:23:18.000Z</time>
      </trkpt>
      <trkpt lat="41.363971" lon="2.000148">
        <ele>218.4</ele>
        <time>1970-01-01T03:23:22.000Z</time>
      </trkpt>
      <trkpt lat="41.364203" lon="2.000308">
        <ele>219.2</ele>
        <time>1970-01-01T03:23:26.000Z</time>
      </trkpt>
      <trkpt lat="41.364403" lon="2.000466">
        <ele>219.6</ele>
        <time>1970-01-01T03:23:30.000Z</time>
      </trkpt>
      <trkpt lat="41.364586" lon="2.000546">
        <ele>219.6</ele>
        <time>1970-01-01T03:23:34.000Z</time>
      </trkpt>
      <trkpt lat="41.364775" lon="2.00064">
        <ele>218.0</ele>
        <time>1970-01-01T03:23:38.000Z</time>
      </trkpt>
      <trkpt lat="41.365006" lon="2.00077">
        <ele>218.6</ele>
        <time>1970-01-01T03:23:42.000Z</time>
      </trkpt>
      <trkpt lat="41.36523" lon="2.000746">
        <ele>219.6</ele>
        <time>1970-01-01T03:23:46.000Z</time>
      </trkpt>
      <trkpt lat="41.365406" lon="2.00064">
        <ele>220.8</ele>
        <time>1970-01-01T03:23:50.000Z</time>
      </trkpt>
      <trkpt lat="41.365553" lon="2.000581">
        <ele>222.4</ele>
        <time>1970-01-01T03:23:54.000Z</time>
      </trkpt>
      <trkpt lat="41.365676" lon="2.000551">
        <ele>223.4</ele>
        <time>1970-01-01T03:23:58.000Z</time>
      </trkpt>
      <trkpt lat="41.365798" lon="2.00051">
        <ele>224.0</ele>
        <time>1970-01-01T03:24:02.000Z</time>
      </trkpt>
      <trkpt lat="41.36592" lon="2.000431">
        <ele>226.8</ele>
        <time>1970-01-01T03:24:06.000Z</time>
      </trkpt>
      <trkpt lat="41.366048" lon="2.000418">
        <ele>225.6</ele>
        <time>1970-01-01T03:24:10.000Z</time>
      </trkpt>
      <trkpt lat="41.366153" lon="2.000503">
        <ele>225.4</ele>
        <time>1970-01-01T03:24:14.000Z</time>
      </trkpt>
      <trkpt lat="41.366231" lon="2.000661">
        <ele>225.0</ele>
        <time>1970-01-01T03:24:18.000Z</time>
      </trkpt>
      <trkpt lat="41.3663" lon="2.000855">
        <ele>224.8</ele>
        <time>1970-01-01T03:24:22.000Z</time>
      </trkpt>
      <trkpt lat="41.366373" lon="2.001071">
        <ele>226.0</ele>
        <time>1970-01-01T03:24:26.000Z</time>
      </trkpt>
      <trkpt lat="41.366448" lon="2.001265">
        <ele>226.2</ele>
        <time>1970-01-01T03:24:30.000Z</time>
      </trkpt>
      <trkpt lat="41.366538" lon="2.00145">
        <ele>226.4</ele>
        <time>1970-01-01T03:24:34.000Z</time>
      </trkpt>
      <trkpt lat="41.366645" lon="2.001616">
        <ele>226.6</ele>
        <time>1970-01-01T03:24:38.000Z</time>
      </trkpt>
      <trkpt lat="41.366806" lon="2.001713">
        <ele>227.4</ele>
        <time>1970-01-01T03:24:42.000Z</time>
      </trkpt>
      <trkpt lat="41.366975" lon="2.001731">
        <ele>228.0</ele>
        <time>1970-01-01T03:24:46.000Z</time>
      </trkpt>
      <trkpt lat="41.367115" lon="2.001723">
        <ele>228.2</ele>
        <time>1970-01-01T03:24:50.000Z</time>
      </trkpt>
      <trkpt lat="41.367225" lon="2.001783">
        <ele>227.8</ele>
        <time>1970-01-01T03:24:54.000Z</time>
      </trkpt>
      <trkpt lat="41.367311" lon="2.001925">
        <ele>225.8</ele>
        <time>1970-01-01T03:24:58.000Z</time>
      </trkpt>
      <trkpt lat="41.367423" lon="2.002138">
        <ele>223.0</ele>
        <time>1970-01-01T03:25:02.000Z</time>
      </trkpt>
      <trkpt lat="41.367383" lon="2.002331">
        <ele>219.4</ele>
        <time>1970-01-01T03:25:06.000Z</time>
      </trkpt>
      <trkpt lat="41.367158" lon="2.002363">
        <ele>214.6</ele>
        <time>1970-01-01T03:25:10.000Z</time>
      </trkpt>
      <trkpt lat="41.367046" lon="2.002475">
        <ele>214.4</ele>
        <time>1970-01-01T03:25:14.000Z</time>
      </trkpt>
      <trkpt lat="41.367176" lon="2.002536">
        <ele>213.2</ele>
        <time>1970-01-01T03:25:18.000Z</time>
      </trkpt>
      <trkpt lat="41.367331" lon="2.002655">
        <ele>214.6</ele>
        <time>1970-01-01T03:25:22.000Z</time>
      </trkpt>
      <trkpt lat="41.367418" lon="2.002796">
        <ele>215.4</ele>
        <time>1970-01-01T03:25:26.000Z</time>
      </trkpt>
      <trkpt lat="41.367485" lon="2.002931">
        <ele>215.6</ele>
        <time>1970-01-01T03:25:30.000Z</time>
      </trkpt>
      <trkpt lat="41.367551" lon="2.003075">
        <ele>215.8</ele>
        <time>1970-01-01T03:25:34.000Z</time>
      </trkpt>
      <trkpt lat="41.367628" lon="2.003225">
        <ele>213.2</ele>
        <time>1970-01-01T03:25:38.000Z</time>
      </trkpt>
      <trkpt lat="41.367725" lon="2.003405">
        <ele>211.2</ele>
        <time>1970-01-01T03:25:42.000Z</time>
      </trkpt>
      <trkpt lat="41.367848" lon="2.003768">
        <ele>208.0</ele>
        <time>1970-01-01T03:25:46.000Z</time>
      </trkpt>
      <trkpt lat="41.367821" lon="2.00423">
        <ele>205.6</ele>
        <time>1970-01-01T03:25:50.000Z</time>
      </trkpt>
      <trkpt lat="41.367766" lon="2.004661">
        <ele>203.6</ele>
        <time>1970-01-01T03:25:54.000Z</time>
      </trkpt>
      <trkpt lat="41.367843" lon="2.005038">
        <ele>198.4</ele>
        <time>1970-01-01T03:25:58.000Z</time>
      </trkpt>
      <trkpt lat="41.367871" lon="2.005541">
        <ele>198.6</ele>
        <time>1970-01-01T03:26:02.000Z</time>
      </trkpt>
      <trkpt lat="41.367848" lon="2.006006">
        <ele>201.6</ele>
        <time>1970-01-01T03:26:06.000Z</time>
      </trkpt>
      <trkpt lat="41.367846" lon="2.006251">
        <ele>202.8</ele>
        <time>1970-01-01T03:26:10.000Z</time>
      </trkpt>
      <trkpt lat="41.367835" lon="2.006435">
        <ele>201.6</ele>
        <time>1970-01-01T03:26:14.000Z</time>
      </trkpt>
      <trkpt lat="41.367773" lon="2.00669">
        <ele>198.2</ele>
        <time>1970-01-01T03:26:18.000Z</time>
      </trkpt>
      <trkpt lat="41.367673" lon="2.007078">
        <ele>192.2</ele>
        <time>1970-01-01T03:26:22.000Z</time>
      </trkpt>
      <trkpt lat="41.367643" lon="2.007595">
        <ele>187.6</ele>
        <time>1970-01-01T03:26:26.000Z</time>
      </trkpt>
      <trkpt lat="41.367611" lon="2.008126">
        <ele>183.4</ele>
        <time>1970-01-01T03:26:30.000Z</time>
      </trkpt>
      <trkpt lat="41.36768" lon="2.008535">
        <ele>182.4</ele>
        <time>1970-01-01T03:26:34.000Z</time>
      </trkpt>
      <trkpt lat="41.367893" lon="2.008595">
        <ele>183.6</ele>
        <time>1970-01-01T03:26:38.000Z</time>
      </trkpt>
      <trkpt lat="41.368105" lon="2.00846">
        <ele>183.2</ele>
        <time>1970-01-01T03:26:42.000Z</time>
      </trkpt>
      <trkpt lat="41.368298" lon="2.008265">
        <ele>181.6</ele>
        <time>1970-01-01T03:26:46.000Z</time>
      </trkpt>
      <trkpt lat="41.368508" lon="2.008083">
        <ele>183.4</ele>
        <time>1970-01-01T03:26:50.000Z</time>
      </trkpt>
      <trkpt lat="41.368686" lon="2.007916">
        <ele>183.2</ele>
        <time>1970-01-01T03:26:54.000Z</time>
      </trkpt>
      <trkpt lat="41.368825" lon="2.007751">
        <ele>182.8</ele>
        <time>1970-01-01T03:26:58.000Z</time>
      </trkpt>
      <trkpt lat="41.368918" lon="2.00757">
        <ele>183.2</ele>
        <time>1970-01-01T03:27:02.000Z</time>
      </trkpt>
      <trkpt lat="41.368975" lon="2.007425">
        <ele>185.0</ele>
        <time>1970-01-01T03:27:06.000Z</time>
      </trkpt>
      <trkpt lat="41.36906" lon="2.007296">
        <ele>185.2</ele>
        <time>1970-01-01T03:27:10.000Z</time>
      </trkpt>
      <trkpt lat="41.369146" lon="2.007188">
        <ele>187.2</ele>
        <time>1970-01-01T03:27:14.000Z</time>
      </trkpt>
      <trkpt lat="41.36922" lon="2.007095">
        <ele>187.8</ele>
        <time>1970-01-01T03:27:18.000Z</time>
      </trkpt>
      <trkpt lat="41.369286" lon="2.007005">
        <ele>188.2</ele>
        <time>1970-01-01T03:27:22.000Z</time>
      </trkpt>
      <trkpt lat="41.369346" lon="2.006905">
        <ele>188.6</ele>
        <time>1970-01-01T03:27:26.000Z</time>
      </trkpt>
      <trkpt lat="41.369386" lon="2.006793">
        <ele>189.6</ele>
        <time>1970-01-01T03:27:30.000Z</time>
      </trkpt>
      <trkpt lat="41.369416" lon="2.006673">
        <ele>190.8</ele>
        <time>1970-01-01T03:27:34.000Z</time>
      </trkpt>
      <trkpt lat="41.369441" lon="2.006558">
        <ele>191.0</ele>
        <time>1970-01-01T03:27:38.000Z</time>
      </trkpt>
      <trkpt lat="41.36948" lon="2.006446">
        <ele>191.8</ele>
        <time>1970-01-01T03:27:42.000Z</time>
      </trkpt>
      <trkpt lat="41.36952" lon="2.006336">
        <ele>191.8</ele>
        <time>1970-01-01T03:27:46.000Z</time>
      </trkpt>
      <trkpt lat="41.369558" lon="2.006206">
        <ele>192.8</ele>
        <time>1970-01-01T03:27:50.000Z</time>
      </trkpt>
      <trkpt lat="41.369605" lon="2.00609">
        <ele>192.8</ele>
        <time>1970-01-01T03:27:54.000Z</time>
      </trkpt>
      <trkpt lat="41.369655" lon="2.006025">
        <ele>193.8</ele>
        <time>1970-01-01T03:27:58.000Z</time>
      </trkpt>
      <trkpt lat="41.369706" lon="2.005976">
        <ele>194.4</ele>
        <time>1970-01-01T03:28:02.000Z</time>
      </trkpt>
      <trkpt lat="41.369745" lon="2.005913">
        <ele>195.4</ele>
        <time>1970-01-01T03:28:06.000Z</time>
      </trkpt>
      <trkpt lat="41.369785" lon="2.005865">
        <ele>196.0</ele>
        <time>1970-01-01T03:28:10.000Z</time>
      </trkpt>
      <trkpt lat="41.36982" lon="2.005813">
        <ele>196.4</ele>
        <time>1970-01-01T03:28:14.000Z</time>
      </trkpt>
      <trkpt lat="41.369868" lon="2.00576">
        <ele>197.4</ele>
        <time>1970-01-01T03:28:18.000Z</time>
      </trkpt>
      <trkpt lat="41.369911" lon="2.005705">
        <ele>198.0</ele>
        <time>1970-01-01T03:28:22.000Z</time>
      </trkpt>
      <trkpt lat="41.369958" lon="2.005666">
        <ele>197.6</ele>
        <time>1970-01-01T03:28:26.000Z</time>
      </trkpt>
      <trkpt lat="41.370011" lon="2.005628">
        <ele>198.6</ele>
        <time>1970-01-01T03:28:30.000Z</time>
      </trkpt>
      <trkpt lat="41.370071" lon="2.005616">
        <ele>198.4</ele>
        <time>1970-01-01T03:28:34.000Z</time>
      </trkpt>
      <trkpt lat="41.370138" lon="2.005646">
        <ele>198.8</ele>
        <time>1970-01-01T03:28:38.000Z</time>
      </trkpt>
      <trkpt lat="41.37021" lon="2.005711">
        <ele>199.0</ele>
        <time>1970-01-01T03:28:42.000Z</time>
      </trkpt>
      <trkpt lat="41.370286" lon="2.005805">
        <ele>198.6</ele>
        <time>1970-01-01T03:28:46.000Z</time>
      </trkpt>
      <trkpt lat="41.370378" lon="2.005906">
        <ele>198.2</ele>
        <time>1970-01-01T03:28:50.000Z</time>
      </trkpt>
      <trkpt lat="41.370521" lon="2.00598">
        <ele>198.6</ele>
        <time>1970-01-01T03:28:54.000Z</time>
      </trkpt>
      <trkpt lat="41.370671" lon="2.006025">
        <ele>199.2</ele>
        <time>1970-01-01T03:28:58.000Z</time>
      </trkpt>
      <trkpt lat="41.3708" lon="2.006065">
        <ele>200.2</ele>
        <time>1970-01-01T03:29:02.000Z</time>
      </trkpt>
      <trkpt lat="41.370931" lon="2.006113">
        <ele>201.4</ele>
        <time>1970-01-01T03:29:06.000Z</time>
      </trkpt>
      <trkpt lat="41.371065" lon="2.006118">
        <ele>201.8</ele>
        <time>1970-01-01T03:29:10.000Z</time>
      </trkpt>
      <trkpt lat="41.371175" lon="2.00606">
        <ele>201.8</ele>
        <time>1970-01-01T03:29:14.000Z</time>
      </trkpt>
      <trkpt lat="41.371258" lon="2.00594">
        <ele>201.4</ele>
        <time>1970-01-01T03:29:18.000Z</time>
      </trkpt>
      <trkpt lat="41.371318" lon="2.005755">
        <ele>202.2</ele>
        <time>1970-01-01T03:29:22.000Z</time>
      </trkpt>
      <trkpt lat="41.371358" lon="2.00555">
        <ele>201.8</ele>
        <time>1970-01-01T03:29:26.000Z</time>
      </trkpt>
      <trkpt lat="41.371363" lon="2.00536">
        <ele>201.6</ele>
        <time>1970-01-01T03:29:30.000Z</time>
      </trkpt>
      <trkpt lat="41.371336" lon="2.005168">
        <ele>199.4</ele>
        <time>1970-01-01T03:29:34.000Z</time>
      </trkpt>
      <trkpt lat="41.37129" lon="2.004913">
        <ele>200.4</ele>
        <time>1970-01-01T03:29:38.000Z</time>
      </trkpt>
      <trkpt lat="41.371256" lon="2.004638">
        <ele>200.2</ele>
        <time>1970-01-01T03:29:42.000Z</time>
      </trkpt>
      <trkpt lat="41.37134" lon="2.004385">
        <ele>200.6</ele>
        <time>1970-01-01T03:29:46.000Z</time>
      </trkpt>
      <trkpt lat="41.371493" lon="2.004218">
        <ele>201.8</ele>
        <time>1970-01-01T03:29:50.000Z</time>
      </trkpt>
      <trkpt lat="41.371625" lon="2.004058">
        <ele>202.2</ele>
        <time>1970-01-01T03:29:54.000Z</time>
      </trkpt>
      <trkpt lat="41.37169" lon="2.003856">
        <ele>201.2</ele>
        <time>1970-01-01T03:29:58.000Z</time>
      </trkpt>
      <trkpt lat="41.3717" lon="2.003611">
        <ele>201.2</ele>
        <time>1970-01-01T03:30:02.000Z</time>
      </trkpt>
      <trkpt lat="41.371748" lon="2.00337">
        <ele>200.0</ele>
        <time>1970-01-01T03:30:06.000Z</time>
      </trkpt>
      <trkpt lat="41.37189" lon="2.00318">
        <ele>199.0</ele>
        <time>1970-01-01T03:30:10.000Z</time>
      </trkpt>
      <trkpt lat="41.372086" lon="2.00311">
        <ele>197.8</ele>
        <time>1970-01-01T03:30:14.000Z</time>
      </trkpt>
      <trkpt lat="41.372336" lon="2.0031">
        <ele>195.4</ele>
        <time>1970-01-01T03:30:18.000Z</time>
      </trkpt>
      <trkpt lat="41.372606" lon="2.003241">
        <ele>193.4</ele>
        <time>1970-01-01T03:30:22.000Z</time>
      </trkpt>
      <trkpt lat="41.372908" lon="2.00325">
        <ele>192.6</ele>
        <time>1970-01-01T03:30:26.000Z</time>
      </trkpt>
      <trkpt lat="41.37295" lon="2.00292">
        <ele>190.6</ele>
        <time>1970-01-01T03:30:30.000Z</time>
      </trkpt>
      <trkpt lat="41.37293" lon="2.002501">
        <ele>190.2</ele>
        <time>1970-01-01T03:30:34.000Z</time>
      </trkpt>
      <trkpt lat="41.372878" lon="2.002048">
        <ele>185.8</ele>
        <time>1970-01-01T03:30:38.000Z</time>
      </trkpt>
      <trkpt lat="41.372935" lon="2.001645">
        <ele>184.6</ele>
        <time>1970-01-01T03:30:42.000Z</time>
      </trkpt>
      <trkpt lat="41.373211" lon="2.001468">
        <ele>180.6</ele>
        <time>1970-01-01T03:30:46.000Z</time>
      </trkpt>
      <trkpt lat="41.373516" lon="2.00122">
        <ele>179.4</ele>
        <time>1970-01-01T03:30:50.000Z</time>
      </trkpt>
      <trkpt lat="41.373856" lon="2.000975">
        <ele>175.0</ele>
        <time>1970-01-01T03:30:54.000Z</time>
      </trkpt>
      <trkpt lat="41.374266" lon="2.000853">
        <ele>168.8</ele>
        <time>1970-01-01T03:30:58.000Z</time>
      </trkpt>
      <trkpt lat="41.374575" lon="2.000776">
        <ele>166.4</ele>
        <time>1970-01-01T03:31:02.000Z</time>
      </trkpt>
      <trkpt lat="41.374623" lon="2.000488">
        <ele>161.2</ele>
        <time>1970-01-01T03:31:06.000Z</time>
      </trkpt>
      <trkpt lat="41.37438" lon="2.000235">
        <ele>158.4</ele>
        <time>1970-01-01T03:31:10.000Z</time>
      </trkpt>
      <trkpt lat="41.37428" lon="2.000065">
        <ele>155.6</ele>
        <time>1970-01-01T03:31:14.000Z</time>
      </trkpt>
      <trkpt lat="41.374446" lon="2.000078">
        <ele>152.8</ele>
        <time>1970-01-01T03:31:18.000Z</time>
      </trkpt>
      <trkpt lat="41.374711" lon="2.000135">
        <ele>150.2</ele>
        <time>1970-01-01T03:31:22.000Z</time>
      </trkpt>
      <trkpt lat="41.374888" lon="2.000396">
        <ele>146.6</ele>
        <time>1970-01-01T03:31:26.000Z</time>
      </trkpt>
      <trkpt lat="41.375046" lon="2.000795">
        <ele>141.2</ele>
        <time>1970-01-01T03:31:30.000Z</time>
      </trkpt>
      <trkpt lat="41.375198" lon="2.001173">
        <ele>134.4</ele>
        <time>1970-01-01T03:31:34.000Z</time>
      </trkpt>
      <trkpt lat="41.375278" lon="2.001548">
        <ele>129.8</ele>
        <time>1970-01-01T03:31:38.000Z</time>
      </trkpt>
      <trkpt lat="41.375481" lon="2.001765">
        <ele>124.8</ele>
        <time>1970-01-01T03:31:42.000Z</time>
      </trkpt>
      <trkpt lat="41.375786" lon="2.001886">
        <ele>122.6</ele>
        <time>1970-01-01T03:31:46.000Z</time>
      </trkpt>
      <trkpt lat="41.3761" lon="2.001978">
        <ele>121.6</ele>
        <time>1970-01-01T03:31:50.000Z</time>
      </trkpt>
      <trkpt lat="41.376421" lon="2.001998">
        <ele>123.2</ele>
        <time>1970-01-01T03:31:54.000Z</time>
      </trkpt>
      <trkpt lat="41.376626" lon="2.001978">
        <ele>126.2</ele>
        <time>1970-01-01T03:31:58.000Z</time>
      </trkpt>
      <trkpt lat="41.376693" lon="2.001895">
        <ele>126.8</ele>
        <time>1970-01-01T03:32:02.000Z</time>
      </trkpt>
      <trkpt lat="41.376743" lon="2.001833">
        <ele>127.2</ele>
        <time>1970-01-01T03:32:06.000Z</time>
      </trkpt>
      <trkpt lat="41.376856" lon="2.001766">
        <ele>127.0</ele>
        <time>1970-01-01T03:32:10.000Z</time>
      </trkpt>
      <trkpt lat="41.377016" lon="2.001853">
        <ele>127.8</ele>
        <time>1970-01-01T03:32:14.000Z</time>
      </trkpt>
      <trkpt lat="41.377111" lon="2.002015">
        <ele>128.2</ele>
        <time>1970-01-01T03:32:18.000Z</time>
      </trkpt>
      <trkpt lat="41.377223" lon="2.002161">
        <ele>127.4</ele>
        <time>1970-01-01T03:32:22.000Z</time>
      </trkpt>
      <trkpt lat="41.37741" lon="2.002133">
        <ele>127.4</ele>
        <time>1970-01-01T03:32:26.000Z</time>
      </trkpt>
      <trkpt lat="41.377591" lon="2.001995">
        <ele>128.6</ele>
        <time>1970-01-01T03:32:30.000Z</time>
      </trkpt>
      <trkpt lat="41.377735" lon="2.001876">
        <ele>128.4</ele>
        <time>1970-01-01T03:32:34.000Z</time>
      </trkpt>
      <trkpt lat="41.37785" lon="2.001763">
        <ele>128.6</ele>
        <time>1970-01-01T03:32:38.000Z</time>
      </trkpt>
      <trkpt lat="41.377981" lon="2.001678">
        <ele>127.4</ele>
        <time>1970-01-01T03:32:42.000Z</time>
      </trkpt>
      <trkpt lat="41.378165" lon="2.001831">
        <ele>124.2</ele>
        <time>1970-01-01T03:32:46.000Z</time>
      </trkpt>
      <trkpt lat="41.378251" lon="2.002188">
        <ele>122.4</ele>
        <time>1970-01-01T03:32:50.000Z</time>
      </trkpt>
      <trkpt lat="41.37838" lon="2.002546">
        <ele>120.2</ele>
        <time>1970-01-01T03:32:54.000Z</time>
      </trkpt>
      <trkpt lat="41.378646" lon="2.002755">
        <ele>117.8</ele>
        <time>1970-01-01T03:32:58.000Z</time>
      </trkpt>
      <trkpt lat="41.378825" lon="2.002991">
        <ele>116.0</ele>
        <time>1970-01-01T03:33:02.000Z</time>
      </trkpt>
      <trkpt lat="41.37888" lon="2.00323">
        <ele>116.0</ele>
        <time>1970-01-01T03:33:06.000Z</time>
      </trkpt>
      <trkpt lat="41.378945" lon="2.003446">
        <ele>115.2</ele>
        <time>1970-01-01T03:33:10.000Z</time>
      </trkpt>
      <trkpt lat="41.378991" lon="2.003703">
        <ele>113.0</ele>
        <time>1970-01-01T03:33:14.000Z</time>
      </trkpt>
      <trkpt lat="41.379021" lon="2.004071">
        <ele>114.4</ele>
        <time>1970-01-01T03:33:18.000Z</time>
      </trkpt>
      <trkpt lat="41.379046" lon="2.00438">
        <ele>115.6</ele>
        <time>1970-01-01T03:33:22.000Z</time>
      </trkpt>
      <trkpt lat="41.379021" lon="2.004566">
        <ele>116.0</ele>
        <time>1970-01-01T03:33:26.000Z</time>
      </trkpt>
      <trkpt lat="41.379011" lon="2.004755">
        <ele>117.2</ele>
        <time>1970-01-01T03:33:30.000Z</time>
      </trkpt>
      <trkpt lat="41.379" lon="2.00492">
        <ele>116.6</ele>
        <time>1970-01-01T03:33:34.000Z</time>
      </trkpt>
      <trkpt lat="41.379066" lon="2.005055">
        <ele>115.6</ele>
        <time>1970-01-01T03:33:38.000Z</time>
      </trkpt>
      <trkpt lat="41.379188" lon="2.00523">
        <ele>114.4</ele>
        <time>1970-01-01T03:33:42.000Z</time>
      </trkpt>
      <trkpt lat="41.37936" lon="2.005478">
        <ele>108.4</ele>
        <time>1970-01-01T03:33:46.000Z</time>
      </trkpt>
      <trkpt lat="41.379551" lon="2.005941">
        <ele>101.8</ele>
        <time>1970-01-01T03:33:50.000Z</time>
      </trkpt>
      <trkpt lat="41.379843" lon="2.006453">
        <ele>98.8</ele>
        <time>1970-01-01T03:33:54.000Z</time>
      </trkpt>
      <trkpt lat="41.380095" lon="2.00683">
        <ele>93.4</ele>
        <time>1970-01-01T03:33:58.000Z</time>
      </trkpt>
      <trkpt lat="41.380305" lon="2.007146">
        <ele>91.6</ele>
        <time>1970-01-01T03:34:02.000Z</time>
      </trkpt>
      <trkpt lat="41.38046" lon="2.007333">
        <ele>90.6</ele>
        <time>1970-01-01T03:34:06.000Z</time>
      </trkpt>
      <trkpt lat="41.380545" lon="2.007481">
        <ele>90.6</ele>
        <time>1970-01-01T03:34:10.000Z</time>
      </trkpt>
      <trkpt lat="41.380581" lon="2.007591">
        <ele>89.8</ele>
        <time>1970-01-01T03:34:14.000Z</time>
      </trkpt>
      <trkpt lat="41.380621" lon="2.007733">
        <ele>89.4</ele>
        <time>1970-01-01T03:34:18.000Z</time>
      </trkpt>
      <trkpt lat="41.380688" lon="2.007888">
        <ele>91.6</ele>
        <time>1970-01-01T03:34:22.000Z</time>
      </trkpt>
      <trkpt lat="41.380725" lon="2.008036">
        <ele>93.2</ele>
        <time>1970-01-01T03:34:26.000Z</time>
      </trkpt>
      <trkpt lat="41.380741" lon="2.008131">
        <ele>96.0</ele>
        <time>1970-01-01T03:34:30.000Z</time>
      </trkpt>
      <trkpt lat="41.380766" lon="2.00822">
        <ele>97.4</ele>
        <time>1970-01-01T03:34:34.000Z</time>
      </trkpt>
      <trkpt lat="41.38082" lon="2.00826">
        <ele>98.0</ele>
        <time>1970-01-01T03:34:38.000Z</time>
      </trkpt>
      <trkpt lat="41.380858" lon="2.008323">
        <ele>99.8</ele>
        <time>1970-01-01T03:34:42.000Z</time>
      </trkpt>
      <trkpt lat="41.380911" lon="2.008368">
        <ele>99.6</ele>
        <time>1970-01-01T03:34:46.000Z</time>
      </trkpt>
      <trkpt lat="41.380956" lon="2.008451">
        <ele>98.4</ele>
        <time>1970-01-01T03:34:50.000Z</time>
      </trkpt>
      <trkpt lat="41.381035" lon="2.0086">
        <ele>96.8</ele>
        <time>1970-01-01T03:34:54.000Z</time>
      </trkpt>
      <trkpt lat="41.381166" lon="2.008803">
        <ele>95.8</ele>
        <time>1970-01-01T03:34:58.000Z</time>
      </trkpt>
      <trkpt lat="41.381258" lon="2.00908">
        <ele>95.4</ele>
        <time>1970-01-01T03:35:02.000Z</time>
      </trkpt>
      <trkpt lat="41.381343" lon="2.009348">
        <ele>93.8</ele>
        <time>1970-01-01T03:35:06.000Z</time>
      </trkpt>
      <trkpt lat="41.381495" lon="2.009451">
        <ele>91.6</ele>
        <time>1970-01-01T03:35:10.000Z</time>
      </trkpt>
      <trkpt lat="41.381606" lon="2.009643">
        <ele>90.0</ele>
        <time>1970-01-01T03:35:14.000Z</time>
      </trkpt>
      <trkpt lat="41.381745" lon="2.009815">
        <ele>85.6</ele>
        <time>1970-01-01T03:35:18.000Z</time>
      </trkpt>
      <trkpt lat="41.381861" lon="2.009995">
        <ele>83.8</ele>
        <time>1970-01-01T03:35:22.000Z</time>
      </trkpt>
      <trkpt lat="41.38199" lon="2.010225">
        <ele>80.6</ele>
        <time>1970-01-01T03:35:26.000Z</time>
      </trkpt>
      <trkpt lat="41.38213" lon="2.010496">
        <ele>80.4</ele>
        <time>1970-01-01T03:35:30.000Z</time>
      </trkpt>
      <trkpt lat="41.382188" lon="2.010603">
        <ele>79.4</ele>
        <time>1970-01-01T03:35:34.000Z</time>
      </trkpt>
      <trkpt lat="41.382213" lon="2.010511">
        <ele>82.0</ele>
        <time>1970-01-01T03:36:12.000Z</time>
      </trkpt>
      <trkpt lat="41.382335" lon="2.01052">
        <ele>83.0</ele>
        <time>1970-01-01T03:36:16.000Z</time>
      </trkpt>
      <trkpt lat="41.382448" lon="2.010578">
        <ele>83.6</ele>
        <time>1970-01-01T03:36:20.000Z</time>
      </trkpt>
      <trkpt lat="41.382526" lon="2.010728">
        <ele>81.8</ele>
        <time>1970-01-01T03:36:24.000Z</time>
      </trkpt>
      <trkpt lat="41.382588" lon="2.010913">
        <ele>79.8</ele>
        <time>1970-01-01T03:36:28.000Z</time>
      </trkpt>
      <trkpt lat="41.382655" lon="2.011056">
        <ele>76.0</ele>
        <time>1970-01-01T03:36:32.000Z</time>
      </trkpt>
      <trkpt lat="41.382766" lon="2.0112">
        <ele>72.2</ele>
        <time>1970-01-01T03:36:36.000Z</time>
      </trkpt>
      <trkpt lat="41.382863" lon="2.011328">
        <ele>71.0</ele>
        <time>1970-01-01T03:36:40.000Z</time>
      </trkpt>
      <trkpt lat="41.38294" lon="2.011441">
        <ele>66.8</ele>
        <time>1970-01-01T03:36:44.000Z</time>
      </trkpt>
      <trkpt lat="41.383051" lon="2.011525">
        <ele>64.6</ele>
        <time>1970-01-01T03:36:48.000Z</time>
      </trkpt>
      <trkpt lat="41.383111" lon="2.01175">
        <ele>62.0</ele>
        <time>1970-01-01T03:36:52.000Z</time>
      </trkpt>
      <trkpt lat="41.383151" lon="2.011995">
        <ele>61.0</ele>
        <time>1970-01-01T03:36:56.000Z</time>
      </trkpt>
      <trkpt lat="41.383236" lon="2.012213">
        <ele>58.8</ele>
        <time>1970-01-01T03:37:00.000Z</time>
      </trkpt>
      <trkpt lat="41.383286" lon="2.01249">
        <ele>54.8</ele>
        <time>1970-01-01T03:37:04.000Z</time>
      </trkpt>
      <trkpt lat="41.383331" lon="2.012711">
        <ele>52.0</ele>
        <time>1970-01-01T03:37:08.000Z</time>
      </trkpt>
      <trkpt lat="41.383363" lon="2.012871">
        <ele>49.4</ele>
        <time>1970-01-01T03:37:12.000Z</time>
      </trkpt>
      <trkpt lat="41.383366" lon="2.013026">
        <ele>48.6</ele>
        <time>1970-01-01T03:37:16.000Z</time>
      </trkpt>
      <trkpt lat="41.383441" lon="2.013156">
        <ele>47.8</ele>
        <time>1970-01-01T03:37:20.000Z</time>
      </trkpt>
      <trkpt lat="41.38344" lon="2.013323">
        <ele>47.0</ele>
        <time>1970-01-01T03:37:24.000Z</time>
      </trkpt>
      <trkpt lat="41.383411" lon="2.013435">
        <ele>44.0</ele>
        <time>1970-01-01T03:37:28.000Z</time>
      </trkpt>
      <trkpt lat="41.38343" lon="2.013576">
        <ele>42.2</ele>
        <time>1970-01-01T03:37:32.000Z</time>
      </trkpt>
      <trkpt lat="41.383416" lon="2.01371">
        <ele>41.0</ele>
        <time>1970-01-01T03:37:36.000Z</time>
      </trkpt>
      <trkpt lat="41.383403" lon="2.013816">
        <ele>38.8</ele>
        <time>1970-01-01T03:37:40.000Z</time>
      </trkpt>
      <trkpt lat="41.383425" lon="2.013935">
        <ele>37.8</ele>
        <time>1970-01-01T03:37:44.000Z</time>
      </trkpt>
      <trkpt lat="41.383401" lon="2.014061">
        <ele>36.2</ele>
        <time>1970-01-01T03:37:48.000Z</time>
      </trkpt>
      <trkpt lat="41.383425" lon="2.014196">
        <ele>34.0</ele>
        <time>1970-01-01T03:37:52.000Z</time>
      </trkpt>
      <trkpt lat="41.38339" lon="2.014348">
        <ele>31.0</ele>
        <time>1970-01-01T03:37:56.000Z</time>
      </trkpt>
      <trkpt lat="41.383236" lon="2.014441">
        <ele>28.8</ele>
        <time>1970-01-01T03:38:00.000Z</time>
      </trkpt>
      <trkpt lat="41.383071" lon="2.014386">
        <ele>27.8</ele>
        <time>1970-01-01T03:38:04.000Z</time>
      </trkpt>
      <trkpt lat="41.382973" lon="2.014543">
        <ele>25.0</ele>
        <time>1970-01-01T03:38:08.000Z</time>
      </trkpt>
      <trkpt lat="41.382975" lon="2.014858">
        <ele>21.4</ele>
        <time>1970-01-01T03:38:12.000Z</time>
      </trkpt>
      <trkpt lat="41.38307" lon="2.015138">
        <ele>19.0</ele>
        <time>1970-01-01T03:38:16.000Z</time>
      </trkpt>
      <trkpt lat="41.383188" lon="2.015276">
        <ele>17.6</ele>
        <time>1970-01-01T03:38:20.000Z</time>
      </trkpt>
      <trkpt lat="41.383376" lon="2.015265">
        <ele>17.4</ele>
        <time>1970-01-01T03:38:24.000Z</time>
      </trkpt>
      <trkpt lat="41.383628" lon="2.015156">
        <ele>14.4</ele>
        <time>1970-01-01T03:38:28.000Z</time>
      </trkpt>
      <trkpt lat="41.383903" lon="2.014993">
        <ele>12.8</ele>
        <time>1970-01-01T03:38:32.000Z</time>
      </trkpt>
      <trkpt lat="41.384166" lon="2.014836">
        <ele>12.6</ele>
        <time>1970-01-01T03:38:36.000Z</time>
      </trkpt>
      <trkpt lat="41.384355" lon="2.014728">
        <ele>12.2</ele>
        <time>1970-01-01T03:38:40.000Z</time>
      </trkpt>
      <trkpt lat="41.384513" lon="2.014675">
        <ele>11.6</ele>
        <time>1970-01-01T03:38:44.000Z</time>
      </trkpt>
      <trkpt lat="41.38464" lon="2.01466">
        <ele>11.6</ele>
        <time>1970-01-01T03:38:48.000Z</time>
      </trkpt>
      <trkpt lat="41.384745" lon="2.014598">
        <ele>11.4</ele>
        <time>1970-01-01T03:38:52.000Z</time>
      </trkpt>
      <trkpt lat="41.384843" lon="2.014536">
        <ele>11.2</ele>
        <time>1970-01-01T03:38:56.000Z</time>
      </trkpt>
      <trkpt lat="41.384943" lon="2.014481">
        <ele>11.2</ele>
        <time>1970-01-01T03:39:00.000Z</time>
      </trkpt>
      <trkpt lat="41.385043" lon="2.014421">
        <ele>11.8</ele>
        <time>1970-01-01T03:39:04.000Z</time>
      </trkpt>
      <trkpt lat="41.385151" lon="2.01436">
        <ele>12.0</ele>
        <time>1970-01-01T03:39:08.000Z</time>
      </trkpt>
      <trkpt lat="41.38523" lon="2.014311">
        <ele>12.2</ele>
        <time>1970-01-01T03:39:12.000Z</time>
      </trkpt>
      <trkpt lat="41.385338" lon="2.01425">
        <ele>12.0</ele>
        <time>1970-01-01T03:39:16.000Z</time>
      </trkpt>
      <trkpt lat="41.385473" lon="2.014153">
        <ele>11.8</ele>
        <time>1970-01-01T03:39:20.000Z</time>
      </trkpt>
      <trkpt lat="41.38561" lon="2.014068">
        <ele>12.0</ele>
        <time>1970-01-01T03:39:24.000Z</time>
      </trkpt>
      <trkpt lat="41.385756" lon="2.013978">
        <ele>11.4</ele>
        <time>1970-01-01T03:39:28.000Z</time>
      </trkpt>
      <trkpt lat="41.385895" lon="2.013901">
        <ele>11.2</ele>
        <time>1970-01-01T03:39:32.000Z</time>
      </trkpt>
      <trkpt lat="41.386028" lon="2.013823">
        <ele>11.0</ele>
        <time>1970-01-01T03:39:36.000Z</time>
      </trkpt>
      <trkpt lat="41.386151" lon="2.013758">
        <ele>11.6</ele>
        <time>1970-01-01T03:39:40.000Z</time>
      </trkpt>
      <trkpt lat="41.386268" lon="2.013681">
        <ele>11.6</ele>
        <time>1970-01-01T03:39:44.000Z</time>
      </trkpt>
      <trkpt lat="41.386391" lon="2.013603">
        <ele>11.6</ele>
        <time>1970-01-01T03:39:48.000Z</time>
      </trkpt>
      <trkpt lat="41.386535" lon="2.013508">
        <ele>11.8</ele>
        <time>1970-01-01T03:39:52.000Z</time>
      </trkpt>
      <trkpt lat="41.386685" lon="2.013418">
        <ele>11.8</ele>
        <time>1970-01-01T03:39:56.000Z</time>
      </trkpt>
      <trkpt lat="41.386821" lon="2.013331">
        <ele>12.0</ele>
        <time>1970-01-01T03:40:00.000Z</time>
      </trkpt>
      <trkpt lat="41.386918" lon="2.01319">
        <ele>12.2</ele>
        <time>1970-01-01T03:40:04.000Z</time>
      </trkpt>
      <trkpt lat="41.386991" lon="2.013055">
        <ele>12.4</ele>
        <time>1970-01-01T03:40:08.000Z</time>
      </trkpt>
      <trkpt lat="41.387113" lon="2.012961">
        <ele>12.8</ele>
        <time>1970-01-01T03:40:12.000Z</time>
      </trkpt>
      <trkpt lat="41.38725" lon="2.012855">
        <ele>13.0</ele>
        <time>1970-01-01T03:40:16.000Z</time>
      </trkpt>
      <trkpt lat="41.387393" lon="2.01274">
        <ele>13.2</ele>
        <time>1970-01-01T03:40:20.000Z</time>
      </trkpt>
      <trkpt lat="41.387545" lon="2.012638">
        <ele>13.4</ele>
        <time>1970-01-01T03:40:24.000Z</time>
      </trkpt>
      <trkpt lat="41.387688" lon="2.012498">
        <ele>13.6</ele>
        <time>1970-01-01T03:40:28.000Z</time>
      </trkpt>
      <trkpt lat="41.387836" lon="2.012355">
        <ele>13.8</ele>
        <time>1970-01-01T03:40:32.000Z</time>
      </trkpt>
      <trkpt lat="41.387986" lon="2.012226">
        <ele>14.6</ele>
        <time>1970-01-01T03:40:36.000Z</time>
      </trkpt>
      <trkpt lat="41.388118" lon="2.012088">
        <ele>14.6</ele>
        <time>1970-01-01T03:40:40.000Z</time>
      </trkpt>
      <trkpt lat="41.388135" lon="2.01189">
        <ele>14.2</ele>
        <time>1970-01-01T03:40:44.000Z</time>
      </trkpt>
      <trkpt lat="41.388058" lon="2.011703">
        <ele>15.2</ele>
        <time>1970-01-01T03:40:48.000Z</time>
      </trkpt>
      <trkpt lat="41.388058" lon="2.011493">
        <ele>15.4</ele>
        <time>1970-01-01T03:40:52.000Z</time>
      </trkpt>
      <trkpt lat="41.388041" lon="2.011286">
        <ele>16.4</ele>
        <time>1970-01-01T03:40:56.000Z</time>
      </trkpt>
      <trkpt lat="41.387911" lon="2.011168">
        <ele>16.6</ele>
        <time>1970-01-01T03:41:00.000Z</time>
      </trkpt>
      <trkpt lat="41.387756" lon="2.01108">
        <ele>16.6</ele>
        <time>1970-01-01T03:41:04.000Z</time>
      </trkpt>
      <trkpt lat="41.38764" lon="2.010903">
        <ele>16.8</ele>
        <time>1970-01-01T03:41:08.000Z</time>
      </trkpt>
      <trkpt lat="41.387541" lon="2.01071">
        <ele>17.0</ele>
        <time>1970-01-01T03:41:12.000Z</time>
      </trkpt>
      <trkpt lat="41.387446" lon="2.010505">
        <ele>17.0</ele>
        <time>1970-01-01T03:41:16.000Z</time>
      </trkpt>
      <trkpt lat="41.387331" lon="2.010286">
        <ele>16.8</ele>
        <time>1970-01-01T03:41:20.000Z</time>
      </trkpt>
      <trkpt lat="41.38725" lon="2.010023">
        <ele>17.0</ele>
        <time>1970-01-01T03:41:24.000Z</time>
      </trkpt>
      <trkpt lat="41.387333" lon="2.009761">
        <ele>16.6</ele>
        <time>1970-01-01T03:41:28.000Z</time>
      </trkpt>
      <trkpt lat="41.387461" lon="2.009588">
        <ele>18.0</ele>
        <time>1970-01-01T03:41:32.000Z</time>
      </trkpt>
      <trkpt lat="41.387551" lon="2.00944">
        <ele>18.8</ele>
        <time>1970-01-01T03:41:36.000Z</time>
      </trkpt>
      <trkpt lat="41.385737" lon="2.011003">
        <ele>-52.618</ele>
        <time>2013-10-27T06:36:33Z</time>
      </trkpt>
      <trkpt lat="41.385712" lon="2.010960">
        <ele>-52.098</ele>
        <time>2013-10-27T06:36:34Z</time>
      </trkpt>
      <trkpt lat="41.385675" lon="2.010927">
        <ele>-51.617</ele>
        <time>2013-10-27T06:36:35Z</time>
      </trkpt>
      <trkpt lat="41.385632" lon="2.010898">
        <ele>-52.008</ele>
        <time>2013-10-27T06:36:36Z</time>
      </trkpt>
      <trkpt lat="41.385598" lon="2.010858">
        <ele>-52.662</ele>
        <time>2013-10-27T06:36:37Z</time>
      </trkpt>
      <trkpt lat="41.385568" lon="2.010810">
        <ele>-53.265</ele>
        <time>2013-10-27T06:36:38Z</time>
      </trkpt>
      <trkpt lat="41.385545" lon="2.010757">
        <ele>-53.697</ele>
        <time>2013-10-27T06:36:39Z</time>
      </trkpt>
      <trkpt lat="41.385528" lon="2.010698">
        <ele>-54.213</ele>
        <time>2013-10-27T06:36:40Z</time>
      </trkpt>
      <trkpt lat="41.385507" lon="2.010507">
        <ele>-54.215</ele>
        <time>2013-10-27T06:36:43Z</time>
      </trkpt>
      <trkpt lat="41.385462" lon="2.010187">
        <ele>-54.216</ele>
        <time>2013-10-27T06:36:48Z</time>
      </trkpt>
      <trkpt lat="41.385437" lon="2.010058">
        <ele>-54.292</ele>
        <time>2013-10-27T06:36:50Z</time>
      </trkpt>
      <trkpt lat="41.385367" lon="2.009803">
        <ele>-53.666</ele>
        <time>2013-10-27T06:36:54Z</time>
      </trkpt>
      <trkpt lat="41.385345" lon="2.009740">
        <ele>-53.242</ele>
        <time>2013-10-27T06:36:55Z</time>
      </trkpt>
      <trkpt lat="41.385323" lon="2.009677">
        <ele>-52.622</ele>
        <time>2013-10-27T06:36:56Z</time>
      </trkpt>
      <trkpt lat="41.385298" lon="2.009615">
        <ele>-52.214</ele>
        <time>2013-10-27T06:36:57Z</time>
      </trkpt>
      <trkpt lat="41.385275" lon="2.009553">
        <ele>-51.608</ele>
        <time>2013-10-27T06:36:58Z</time>
      </trkpt>
      <trkpt lat="41.385052" lon="2.009062">
        <ele>-51.685</ele>
        <time>2013-10-27T06:37:06Z</time>
      </trkpt>
      <trkpt lat="41.384938" lon="2.008827">
        <ele>-51.658</ele>
        <time>2013-10-27T06:37:10Z</time>
      </trkpt>
      <trkpt lat="41.384857" lon="2.008647">
        <ele>-51.650</ele>
        <time>2013-10-27T06:37:13Z</time>
      </trkpt>
      <trkpt lat="41.384735" lon="2.008340">
        <ele>-51.696</ele>
        <time>2013-10-27T06:37:18Z</time>
      </trkpt>
      <trkpt lat="41.384695" lon="2.008213">
        <ele>-51.688</ele>
        <time>2013-10-27T06:37:20Z</time>
      </trkpt>
      <trkpt lat="41.384597" lon="2.007775">
        <ele>-51.699</ele>
        <time>2013-10-27T06:37:27Z</time>
      </trkpt>
      <trkpt lat="41.384545" lon="2.007467">
        <ele>-51.615</ele>
        <time>2013-10-27T06:37:32Z</time>
      </trkpt>
      <trkpt lat="41.384515" lon="2.007275">
        <ele>-51.659</ele>
        <time>2013-10-27T06:37:35Z</time>
      </trkpt>
      <trkpt lat="41.384440" lon="2.006670">
        <ele>-51.686</ele>
        <time>2013-10-27T06:37:45Z</time>
      </trkpt>
      <trkpt lat="41.384390" lon="2.006128">
        <ele>-51.660</ele>
        <time>2013-10-27T06:37:54Z</time>
      </trkpt>
      <trkpt lat="41.384393" lon="2.005953">
        <ele>-51.626</ele>
        <time>2013-10-27T06:37:57Z</time>
      </trkpt>
      <trkpt lat="41.384408" lon="2.005720">
        <ele>-51.608</ele>
        <time>2013-10-27T06:38:01Z</time>
      </trkpt>
      <trkpt lat="41.384432" lon="2.005437">
        <ele>-51.659</ele>
        <time>2013-10-27T06:38:06Z</time>
      </trkpt>
      <trkpt lat="41.384438" lon="2.005208">
        <ele>-51.292</ele>
        <time>2013-10-27T06:38:10Z</time>
      </trkpt>
      <trkpt lat="41.384440" lon="2.005150">
        <ele>-50.684</ele>
        <time>2013-10-27T06:38:11Z</time>
      </trkpt>
      <trkpt lat="41.384442" lon="2.005090">
        <ele>-50.230</ele>
        <time>2013-10-27T06:38:12Z</time>
      </trkpt>
      <trkpt lat="41.384442" lon="2.005032">
        <ele>-49.812</ele>
        <time>2013-10-27T06:38:13Z</time>
      </trkpt>
      <trkpt lat="41.384442" lon="2.004972">
        <ele>-49.263</ele>
        <time>2013-10-27T06:38:14Z</time>
      </trkpt>
      <trkpt lat="41.384430" lon="2.004633">
        <ele>-49.279</ele>
        <time>2013-10-27T06:38:20Z</time>
      </trkpt>
      <trkpt lat="41.384422" lon="2.004578">
        <ele>-49.223</ele>
        <time>2013-10-27T06:38:21Z</time>
      </trkpt>
      <trkpt lat="41.384398" lon="2.004357">
        <ele>-49.231</ele>
        <time>2013-10-27T06:38:25Z</time>
      </trkpt>
      <trkpt lat="41.384380" lon="2.004212">
        <ele>-49.261</ele>
        <time>2013-10-27T06:38:28Z</time>
      </trkpt>
      <trkpt lat="41.384368" lon="2.003960">
        <ele>-48.807</ele>
        <time>2013-10-27T06:38:34Z</time>
      </trkpt>
      <trkpt lat="41.384375" lon="2.003918">
        <ele>-48.408</ele>
        <time>2013-10-27T06:38:35Z</time>
      </trkpt>
      <trkpt lat="41.384383" lon="2.003875">
        <ele>-48.034</ele>
        <time>2013-10-27T06:38:36Z</time>
      </trkpt>
      <trkpt lat="41.384393" lon="2.003828">
        <ele>-47.617</ele>
        <time>2013-10-27T06:38:37Z</time>
      </trkpt>
      <trkpt lat="41.384397" lon="2.003778">
        <ele>-47.229</ele>
        <time>2013-10-27T06:38:38Z</time>
      </trkpt>
      <trkpt lat="41.384378" lon="2.003632">
        <ele>-47.285</ele>
        <time>2013-10-27T06:38:41Z</time>
      </trkpt>
      <trkpt lat="41.384262" lon="2.003467">
        <ele>-46.887</ele>
        <time>2013-10-27T06:38:46Z</time>
      </trkpt>
      <trkpt lat="41.384245" lon="2.003430">
        <ele>-46.058</ele>
        <time>2013-10-27T06:38:47Z</time>
      </trkpt>
      <trkpt lat="41.384232" lon="2.003390">
        <ele>-45.624</ele>
        <time>2013-10-27T06:38:48Z</time>
      </trkpt>
      <trkpt lat="41.384222" lon="2.003347">
        <ele>-45.058</ele>
        <time>2013-10-27T06:38:49Z</time>
      </trkpt>
      <trkpt lat="41.384195" lon="2.003268">
        <ele>-45.033</ele>
        <time>2013-10-27T06:38:51Z</time>
      </trkpt>
      <trkpt lat="41.384152" lon="2.003163">
        <ele>-45.023</ele>
        <time>2013-10-27T06:38:54Z</time>
      </trkpt>
      <trkpt lat="41.384123" lon="2.003108">
        <ele>-44.615</ele>
        <time>2013-10-27T06:38:56Z</time>
      </trkpt>
      <trkpt lat="41.384110" lon="2.003090">
        <ele>-44.208</ele>
        <time>2013-10-27T06:38:57Z</time>
      </trkpt>
      <trkpt lat="41.384100" lon="2.003075">
        <ele>-43.824</ele>
        <time>2013-10-27T06:38:58Z</time>
      </trkpt>
      <trkpt lat="41.384093" lon="2.003060">
        <ele>-43.467</ele>
        <time>2013-10-27T06:38:59Z</time>
      </trkpt>
      <trkpt lat="41.384088" lon="2.003043">
        <ele>-43.069</ele>
        <time>2013-10-27T06:39:00Z</time>
      </trkpt>
      <trkpt lat="41.384068" lon="2.002998">
        <ele>-43.045</ele>
        <time>2013-10-27T06:39:03Z</time>
      </trkpt>
      <trkpt lat="41.384060" lon="2.002972">
        <ele>-43.077</ele>
        <time>2013-10-27T06:39:05Z</time>
      </trkpt>
      <trkpt lat="41.384062" lon="2.002957">
        <ele>-43.098</ele>
        <time>2013-10-27T06:39:06Z</time>
      </trkpt>
      <trkpt lat="41.384055" lon="2.002928">
        <ele>-43.094</ele>
        <time>2013-10-27T06:39:08Z</time>
      </trkpt>
      <trkpt lat="41.384043" lon="2.002907">
        <ele>-43.068</ele>
        <time>2013-10-27T06:39:10Z</time>
      </trkpt>
      <trkpt lat="41.384040" lon="2.002902">
        <ele>-43.015</ele>
        <time>2013-10-27T06:39:11Z</time>
      </trkpt>
      <trkpt lat="41.384040" lon="2.002900">
        <ele>-43.065</ele>
        <time>2013-10-27T06:39:12Z</time>
      </trkpt>
      <trkpt lat="41.383985" lon="2.002928">
        <ele>-43.011</ele>
        <time>2013-10-27T06:39:23Z</time>
      </trkpt>
      <trkpt lat="41.383983" lon="2.002948">
        <ele>-43.008</ele>
        <time>2013-10-27T06:39:24Z</time>
      </trkpt>
      <trkpt lat="41.383985" lon="2.002972">
        <ele>-43.012</ele>
        <time>2013-10-27T06:39:25Z</time>
      </trkpt>
      <trkpt lat="41.383987" lon="2.003002">
        <ele>-43.065</ele>
        <time>2013-10-27T06:39:27Z</time>
      </trkpt>
      <trkpt lat="41.383987" lon="2.003003">
        <ele>-43.067</ele>
        <time>2013-10-27T06:39:28Z</time>
      </trkpt>
      <trkpt lat="41.384000" lon="2.003017">
        <ele>-43.023</ele>
        <time>2013-10-27T06:39:37Z</time>
      </trkpt>
      <trkpt lat="41.384023" lon="2.003023">
        <ele>-43.025</ele>
        <time>2013-10-27T06:39:38Z</time>
      </trkpt>
      <trkpt lat="41.384102" lon="2.003035">
        <ele>-43.076</ele>
        <time>2013-10-27T06:39:41Z</time>
      </trkpt>
      <trkpt lat="41.384140" lon="2.003123">
        <ele>-43.092</ele>
        <time>2013-10-27T06:39:43Z</time>
      </trkpt>
      <trkpt lat="41.384160" lon="2.003177">
        <ele>-43.026</ele>
        <time>2013-10-27T06:39:44Z</time>
      </trkpt>
      <trkpt lat="41.384182" lon="2.003232">
        <ele>-43.033</ele>
        <time>2013-10-27T06:39:45Z</time>
      </trkpt>
      <trkpt lat="41.384253" lon="2.003387">
        <ele>-43.023</ele>
        <time>2013-10-27T06:39:48Z</time>
      </trkpt>
      <trkpt lat="41.384328" lon="2.003457">
        <ele>-43.015</ele>
        <time>2013-10-27T06:39:50Z</time>
      </trkpt>
      <trkpt lat="41.384495" lon="2.003425">
        <ele>-43.008</ele>
        <time>2013-10-27T06:39:53Z</time>
      </trkpt>
      <trkpt lat="41.384670" lon="2.003310">
        <ele>-43.464</ele>
        <time>2013-10-27T06:39:56Z</time>
      </trkpt>
      <trkpt lat="41.384707" lon="2.003247">
        <ele>-43.847</ele>
        <time>2013-10-27T06:39:57Z</time>
      </trkpt>
      <trkpt lat="41.384728" lon="2.003172">
        <ele>-44.259</ele>
        <time>2013-10-27T06:39:58Z</time>
      </trkpt>
      <trkpt lat="41.384748" lon="2.003100">
        <ele>-44.675</ele>
        <time>2013-10-27T06:39:59Z</time>
      </trkpt>
      <trkpt lat="41.384747" lon="2.003027">
        <ele>-45.017</ele>
        <time>2013-10-27T06:40:00Z</time>
      </trkpt>
      <trkpt lat="41.384692" lon="2.002865">
        <ele>-45.088</ele>
        <time>2013-10-27T06:40:03Z</time>
      </trkpt>
      <trkpt lat="41.384673" lon="2.002820">
        <ele>-45.024</ele>
        <time>2013-10-27T06:40:04Z</time>
      </trkpt>
      <trkpt lat="41.384655" lon="2.002777">
        <ele>-45.058</ele>
        <time>2013-10-27T06:40:05Z</time>
      </trkpt>
      <trkpt lat="41.384638" lon="2.002737">
        <ele>-45.079</ele>
        <time>2013-10-27T06:40:06Z</time>
      </trkpt>
      <trkpt lat="41.384622" lon="2.002695">
        <ele>-45.005</ele>
        <time>2013-10-27T06:40:07Z</time>
      </trkpt>
      <trkpt lat="41.384590" lon="2.002632">
        <ele>-45.025</ele>
        <time>2013-10-27T06:40:09Z</time>
      </trkpt>
      <trkpt lat="41.384563" lon="2.002577">
        <ele>-45.008</ele>
        <time>2013-10-27T06:40:11Z</time>
      </trkpt>
      <trkpt lat="41.384545" lon="2.002537">
        <ele>-45.068</ele>
        <time>2013-10-27T06:40:13Z</time>
      </trkpt>
      <trkpt lat="41.384538" lon="2.002520">
        <ele>-44.611</ele>
        <time>2013-10-27T06:40:14Z</time>
      </trkpt>
      <trkpt lat="41.384533" lon="2.002502">
        <ele>-44.263</ele>
        <time>2013-10-27T06:40:15Z</time>
      </trkpt>
      <trkpt lat="41.384520" lon="2.002483">
        <ele>-43.859</ele>
        <time>2013-10-27T06:40:16Z</time>
      </trkpt>
      <trkpt lat="41.384508" lon="2.002460">
        <ele>-43.441</ele>
        <time>2013-10-27T06:40:17Z</time>
      </trkpt>
      <trkpt lat="41.384500" lon="2.002437">
        <ele>-43.012</ele>
        <time>2013-10-27T06:40:18Z</time>
      </trkpt>
      <trkpt lat="41.384490" lon="2.002408">
        <ele>-43.068</ele>
        <time>2013-10-27T06:40:19Z</time>
      </trkpt>
      <trkpt lat="41.384468" lon="2.002365">
        <ele>-43.042</ele>
        <time>2013-10-27T06:40:21Z</time>
      </trkpt>
      <trkpt lat="41.384453" lon="2.002323">
        <ele>-43.093</ele>
        <time>2013-10-27T06:40:23Z</time>
      </trkpt>
      <trkpt lat="41.384443" lon="2.002307">
        <ele>-42.465</ele>
        <time>2013-10-27T06:40:24Z</time>
      </trkpt>
      <trkpt lat="41.384432" lon="2.002288">
        <ele>-42.021</ele>
        <time>2013-10-27T06:40:25Z</time>
      </trkpt>
      <trkpt lat="41.384425" lon="2.002267">
        <ele>-41.208</ele>
        <time>2013-10-27T06:40:26Z</time>
      </trkpt>
      <trkpt lat="41.384420" lon="2.002247">
        <ele>-40.810</ele>
        <time>2013-10-27T06:40:27Z</time>
      </trkpt>
      <trkpt lat="41.384403" lon="2.002213">
        <ele>-40.823</ele>
        <time>2013-10-27T06:40:29Z</time>
      </trkpt>
      <trkpt lat="41.384383" lon="2.002157">
        <ele>-40.465</ele>
        <time>2013-10-27T06:40:32Z</time>
      </trkpt>
      <trkpt lat="41.384377" lon="2.002140">
        <ele>-40.061</ele>
        <time>2013-10-27T06:40:33Z</time>
      </trkpt>
      <trkpt lat="41.384372" lon="2.002122">
        <ele>-39.613</ele>
        <time>2013-10-27T06:40:34Z</time>
      </trkpt>
      <trkpt lat="41.384362" lon="2.002107">
        <ele>-39.284</ele>
        <time>2013-10-27T06:40:35Z</time>
      </trkpt>
      <trkpt lat="41.384352" lon="2.002092">
        <ele>-38.850</ele>
        <time>2013-10-27T06:40:36Z</time>
      </trkpt>
      <trkpt lat="41.384342" lon="2.002057">
        <ele>-38.294</ele>
        <time>2013-10-27T06:40:38Z</time>
      </trkpt>
      <trkpt lat="41.384335" lon="2.002033">
        <ele>-37.868</ele>
        <time>2013-10-27T06:40:39Z</time>
      </trkpt>
      <trkpt lat="41.384328" lon="2.002008">
        <ele>-37.442</ele>
        <time>2013-10-27T06:40:40Z</time>
      </trkpt>
      <trkpt lat="41.384320" lon="2.001980">
        <ele>-37.026</ele>
        <time>2013-10-27T06:40:42Z</time>
      </trkpt>
      <trkpt lat="41.384307" lon="2.001955">
        <ele>-36.608</ele>
        <time>2013-10-27T06:40:43Z</time>
      </trkpt>
      <trkpt lat="41.384265" lon="2.001883">
        <ele>-36.617</ele>
        <time>2013-10-27T06:40:46Z</time>
      </trkpt>
      <trkpt lat="41.384252" lon="2.001862">
        <ele>-36.690</ele>
        <time>2013-10-27T06:40:47Z</time>
      </trkpt>
      <trkpt lat="41.384220" lon="2.001780">
        <ele>-36.632</ele>
        <time>2013-10-27T06:40:50Z</time>
      </trkpt>
      <trkpt lat="41.384197" lon="2.001730">
        <ele>-36.678</ele>
        <time>2013-10-27T06:40:52Z</time>
      </trkpt>
      <trkpt lat="41.384123" lon="2.001607">
        <ele>-36.010</ele>
        <time>2013-10-27T06:40:57Z</time>
      </trkpt>
      <trkpt lat="41.384113" lon="2.001578">
        <ele>-35.461</ele>
        <time>2013-10-27T06:40:58Z</time>
      </trkpt>
      <trkpt lat="41.384107" lon="2.001548">
        <ele>-34.637</ele>
        <time>2013-10-27T06:40:59Z</time>
      </trkpt>
      <trkpt lat="41.384102" lon="2.001518">
        <ele>-34.441</ele>
        <time>2013-10-27T06:41:00Z</time>
      </trkpt>
      <trkpt lat="41.384092" lon="2.001488">
        <ele>-34.457</ele>
        <time>2013-10-27T06:41:01Z</time>
      </trkpt>
      <trkpt lat="41.384085" lon="2.001458">
        <ele>-34.200</ele>
        <time>2013-10-27T06:41:02Z</time>
      </trkpt>
      <trkpt lat="41.384075" lon="2.001432">
        <ele>-34.020</ele>
        <time>2013-10-27T06:41:03Z</time>
      </trkpt>
      <trkpt lat="41.384060" lon="2.001407">
        <ele>-33.808</ele>
        <time>2013-10-27T06:41:04Z</time>
      </trkpt>
      <trkpt lat="41.384038" lon="2.001350">
        <ele>-33.876</ele>
        <time>2013-10-27T06:41:06Z</time>
      </trkpt>
      <trkpt lat="41.383987" lon="2.001202">
        <ele>-33.839</ele>
        <time>2013-10-27T06:41:12Z</time>
      </trkpt>
      <trkpt lat="41.383985" lon="2.001182">
        <ele>-33.411</ele>
        <time>2013-10-27T06:41:13Z</time>
      </trkpt>
      <trkpt lat="41.383998" lon="2.001172">
        <ele>-32.687</ele>
        <time>2013-10-27T06:41:15Z</time>
      </trkpt>
      <trkpt lat="41.384010" lon="2.001158">
        <ele>-32.079</ele>
        <time>2013-10-27T06:41:16Z</time>
      </trkpt>
      <trkpt lat="41.384027" lon="2.001150">
        <ele>-31.680</ele>
        <time>2013-10-27T06:41:17Z</time>
      </trkpt>
      <trkpt lat="41.384058" lon="2.001128">
        <ele>-31.636</ele>
        <time>2013-10-27T06:41:19Z</time>
      </trkpt>
      <trkpt lat="41.384115" lon="2.001083">
        <ele>-31.270</ele>
        <time>2013-10-27T06:41:22Z</time>
      </trkpt>
      <trkpt lat="41.384135" lon="2.001065">
        <ele>-30.847</ele>
        <time>2013-10-27T06:41:23Z</time>
      </trkpt>
      <trkpt lat="41.384155" lon="2.001047">
        <ele>-30.229</ele>
        <time>2013-10-27T06:41:24Z</time>
      </trkpt>
      <trkpt lat="41.384177" lon="2.001037">
        <ele>-29.821</ele>
        <time>2013-10-27T06:41:25Z</time>
      </trkpt>
      <trkpt lat="41.384197" lon="2.001025">
        <ele>-29.408</ele>
        <time>2013-10-27T06:41:26Z</time>
      </trkpt>
      <trkpt lat="41.384320" lon="2.000923">
        <ele>-29.475</ele>
        <time>2013-10-27T06:41:32Z</time>
      </trkpt>
      <trkpt lat="41.384363" lon="2.000805">
        <ele>-29.488</ele>
        <time>2013-10-27T06:41:36Z</time>
      </trkpt>
      <trkpt lat="41.384358" lon="2.000785">
        <ele>-29.420</ele>
        <time>2013-10-27T06:41:37Z</time>
      </trkpt>
      <trkpt lat="41.384350" lon="2.000763">
        <ele>-28.656</ele>
        <time>2013-10-27T06:41:38Z</time>
      </trkpt>
      <trkpt lat="41.384338" lon="2.000747">
        <ele>-28.218</ele>
        <time>2013-10-27T06:41:39Z</time>
      </trkpt>
      <trkpt lat="41.384330" lon="2.000725">
        <ele>-27.669</ele>
        <time>2013-10-27T06:41:40Z</time>
      </trkpt>
      <trkpt lat="41.384328" lon="2.000702">
        <ele>-27.285</ele>
        <time>2013-10-27T06:41:41Z</time>
      </trkpt>
      <trkpt lat="41.384323" lon="2.000652">
        <ele>-27.299</ele>
        <time>2013-10-27T06:41:43Z</time>
      </trkpt>
      <trkpt lat="41.384310" lon="2.000602">
        <ele>-26.814</ele>
        <time>2013-10-27T06:41:45Z</time>
      </trkpt>
      <trkpt lat="41.384308" lon="2.000572">
        <ele>-26.454</ele>
        <time>2013-10-27T06:41:46Z</time>
      </trkpt>
      <trkpt lat="41.384305" lon="2.000542">
        <ele>-26.009</ele>
        <time>2013-10-27T06:41:47Z</time>
      </trkpt>
      <trkpt lat="41.384295" lon="2.000517">
        <ele>-25.608</ele>
        <time>2013-10-27T06:41:48Z</time>
      </trkpt>
      <trkpt lat="41.384283" lon="2.000493">
        <ele>-25.032</ele>
        <time>2013-10-27T06:41:49Z</time>
      </trkpt>
      <trkpt lat="41.384273" lon="2.000435">
        <ele>-25.045</ele>
        <time>2013-10-27T06:41:51Z</time>
      </trkpt>
      <trkpt lat="41.384253" lon="2.000383">
        <ele>-24.637</ele>
        <time>2013-10-27T06:41:53Z</time>
      </trkpt>
      <trkpt lat="41.384245" lon="2.000355">
        <ele>-24.293</ele>
        <time>2013-10-27T06:41:54Z</time>
      </trkpt>
      <trkpt lat="41.384242" lon="2.000332">
        <ele>-23.845</ele>
        <time>2013-10-27T06:41:55Z</time>
      </trkpt>
      <trkpt lat="41.384235" lon="2.000307">
        <ele>-23.456</ele>
        <time>2013-10-27T06:41:56Z</time>
      </trkpt>
      <trkpt lat="41.384233" lon="2.000282">
        <ele>-23.072</ele>
        <time>2013-10-27T06:41:57Z</time>
      </trkpt>
      <trkpt lat="41.384208" lon="2.000155">
        <ele>-22.266</ele>
        <time>2013-10-27T06:42:02Z</time>
      </trkpt>
      <trkpt lat="41.384203" lon="2.000132">
        <ele>-21.844</ele>
        <time>2013-10-27T06:42:03Z</time>
      </trkpt>
      <trkpt lat="41.384202" lon="2.000107">
        <ele>-21.405</ele>
        <time>2013-10-27T06:42:04Z</time>
      </trkpt>
      <trkpt lat="41.384198" lon="2.000083">
        <ele>-21.015</ele>
        <time>2013-10-27T06:42:05Z</time>
      </trkpt>
      <trkpt lat="41.384203" lon="1.999957">
        <ele>-21.008</ele>
        <time>2013-10-27T06:42:10Z</time>
      </trkpt>
      <trkpt lat="41.384217" lon="1.999878">
        <ele>-20.655</ele>
        <time>2013-10-27T06:42:13Z</time>
      </trkpt>
      <trkpt lat="41.384215" lon="1.999852">
        <ele>-20.228</ele>
        <time>2013-10-27T06:42:14Z</time>
      </trkpt>
      <trkpt lat="41.384213" lon="1.999823">
        <ele>-19.860</ele>
        <time>2013-10-27T06:42:15Z</time>
      </trkpt>
      <trkpt lat="41.384215" lon="1.999793">
        <ele>-19.486</ele>
        <time>2013-10-27T06:42:16Z</time>
      </trkpt>
      <trkpt lat="41.384217" lon="1.999765">
        <ele>-19.028</ele>
        <time>2013-10-27T06:42:17Z</time>
      </trkpt>
      <trkpt lat="41.384238" lon="1.999545">
        <ele>-18.449</ele>
        <time>2013-10-27T06:42:25Z</time>
      </trkpt>
      <trkpt lat="41.384243" lon="1.999518">
        <ele>-18.055</ele>
        <time>2013-10-27T06:42:26Z</time>
      </trkpt>
      <trkpt lat="41.384250" lon="1.999490">
        <ele>-17.269</ele>
        <time>2013-10-27T06:42:27Z</time>
      </trkpt>
      <trkpt lat="41.384253" lon="1.999462">
        <ele>-16.833</ele>
        <time>2013-10-27T06:42:28Z</time>
      </trkpt>
      <trkpt lat="41.384272" lon="1.999318">
        <ele>-16.823</ele>
        <time>2013-10-27T06:42:33Z</time>
      </trkpt>
      <trkpt lat="41.384278" lon="1.999293">
        <ele>-16.415</ele>
        <time>2013-10-27T06:42:34Z</time>
      </trkpt>
      <trkpt lat="41.384285" lon="1.999268">
        <ele>-16.008</ele>
        <time>2013-10-27T06:42:35Z</time>
      </trkpt>
      <trkpt lat="41.384287" lon="1.999238">
        <ele>-15.614</ele>
        <time>2013-10-27T06:42:36Z</time>
      </trkpt>
      <trkpt lat="41.384292" lon="1.999208">
        <ele>-15.277</ele>
        <time>2013-10-27T06:42:37Z</time>
      </trkpt>
      <trkpt lat="41.384295" lon="1.999177">
        <ele>-14.839</ele>
        <time>2013-10-27T06:42:38Z</time>
      </trkpt>
      <trkpt lat="41.384295" lon="1.999115">
        <ele>-14.815</ele>
        <time>2013-10-27T06:42:40Z</time>
      </trkpt>
      <trkpt lat="41.384315" lon="1.998960">
        <ele>-14.447</ele>
        <time>2013-10-27T06:42:45Z</time>
      </trkpt>
      <trkpt lat="41.384320" lon="1.998930">
        <ele>-14.078</ele>
        <time>2013-10-27T06:42:46Z</time>
      </trkpt>
      <trkpt lat="41.384320" lon="1.998900">
        <ele>-13.484</ele>
        <time>2013-10-27T06:42:47Z</time>
      </trkpt>
      <trkpt lat="41.384322" lon="1.998868">
        <ele>-13.028</ele>
        <time>2013-10-27T06:42:48Z</time>
      </trkpt>
      <trkpt lat="41.384315" lon="1.998837">
        <ele>-12.681</ele>
        <time>2013-10-27T06:42:49Z</time>
      </trkpt>
      <trkpt lat="41.384293" lon="1.998810">
        <ele>-12.661</ele>
        <time>2013-10-27T06:42:50Z</time>
      </trkpt>
      <trkpt lat="41.384287" lon="1.998747">
        <ele>-12.617</ele>
        <time>2013-10-27T06:42:52Z</time>
      </trkpt>
      <trkpt lat="41.384313" lon="1.998682">
        <ele>-12.608</ele>
        <time>2013-10-27T06:42:54Z</time>
      </trkpt>
      <trkpt lat="41.384343" lon="1.998622">
        <ele>-12.249</ele>
        <time>2013-10-27T06:42:56Z</time>
      </trkpt>
      <trkpt lat="41.384355" lon="1.998590">
        <ele>-11.882</ele>
        <time>2013-10-27T06:42:57Z</time>
      </trkpt>
      <trkpt lat="41.384370" lon="1.998560">
        <ele>-11.414</ele>
        <time>2013-10-27T06:42:58Z</time>
      </trkpt>
      <trkpt lat="41.384380" lon="1.998533">
        <ele>-11.040</ele>
        <time>2013-10-27T06:42:59Z</time>
      </trkpt>
      <trkpt lat="41.384392" lon="1.998507">
        <ele>-10.632</ele>
        <time>2013-10-27T06:43:00Z</time>
      </trkpt>
      <trkpt lat="41.384448" lon="1.998337">
        <ele>-10.633</ele>
        <time>2013-10-27T06:43:05Z</time>
      </trkpt>
      <trkpt lat="41.384503" lon="1.998195">
        <ele>-10.619</ele>
        <time>2013-10-27T06:43:09Z</time>
      </trkpt>
      <trkpt lat="41.384540" lon="1.998022">
        <ele>-10.683</ele>
        <time>2013-10-27T06:43:13Z</time>
      </trkpt>
      <trkpt lat="41.384568" lon="1.997792">
        <ele>-10.638</ele>
        <time>2013-10-27T06:43:18Z</time>
      </trkpt>
      <trkpt lat="41.384562" lon="1.997653">
        <ele>-10.670</ele>
        <time>2013-10-27T06:43:21Z</time>
      </trkpt>
      <trkpt lat="41.384553" lon="1.997600">
        <ele>-10.617</ele>
        <time>2013-10-27T06:43:22Z</time>
      </trkpt>
      <trkpt lat="41.384540" lon="1.997485">
        <ele>-10.608</ele>
        <time>2013-10-27T06:43:24Z</time>
      </trkpt>
      <trkpt lat="41.384532" lon="1.997337">
        <ele>-10.644</ele>
        <time>2013-10-27T06:43:27Z</time>
      </trkpt>
      <trkpt lat="41.384528" lon="1.997237">
        <ele>-10.667</ele>
        <time>2013-10-27T06:43:29Z</time>
      </trkpt>
      <trkpt lat="41.384525" lon="1.997140">
        <ele>-10.659</ele>
        <time>2013-10-27T06:43:31Z</time>
      </trkpt>
      <trkpt lat="41.384525" lon="1.996953">
        <ele>-10.645</ele>
        <time>2013-10-27T06:43:35Z</time>
      </trkpt>
      <trkpt lat="41.384585" lon="1.996788">
        <ele>-10.257</ele>
        <time>2013-10-27T06:43:39Z</time>
      </trkpt>
      <trkpt lat="41.384598" lon="1.996740">
        <ele>-9.628</ele>
        <time>2013-10-27T06:43:40Z</time>
      </trkpt>
      <trkpt lat="41.384605" lon="1.996705">
        <ele>-9.284</ele>
        <time>2013-10-27T06:43:41Z</time>
      </trkpt>
      <trkpt lat="41.384613" lon="1.996665">
        <ele>-8.828</ele>
        <time>2013-10-27T06:43:42Z</time>
      </trkpt>
      <trkpt lat="41.384620" lon="1.996627">
        <ele>-8.485</ele>
        <time>2013-10-27T06:43:43Z</time>
      </trkpt>
      <trkpt lat="41.384633" lon="1.996520">
        <ele>-8.489</ele>
        <time>2013-10-27T06:43:46Z</time>
      </trkpt>
      <trkpt lat="41.384668" lon="1.996468">
        <ele>-8.417</ele>
        <time>2013-10-27T06:43:49Z</time>
      </trkpt>
      <trkpt lat="41.384677" lon="1.996465">
        <ele>-8.408</ele>
        <time>2013-10-27T06:43:50Z</time>
      </trkpt>
      <trkpt lat="41.384692" lon="1.996465">
        <ele>-8.419</ele>
        <time>2013-10-27T06:43:52Z</time>
      </trkpt>
      <trkpt lat="41.384703" lon="1.996455">
        <ele>-8.452</ele>
        <time>2013-10-27T06:43:54Z</time>
      </trkpt>
      <trkpt lat="41.384727" lon="1.996437">
        <ele>-8.464</ele>
        <time>2013-10-27T06:44:13Z</time>
      </trkpt>
      <trkpt lat="41.384742" lon="1.996430">
        <ele>-8.470</ele>
        <time>2013-10-27T06:44:14Z</time>
      </trkpt>
      <trkpt lat="41.384820" lon="1.996450">
        <ele>-8.432</ele>
        <time>2013-10-27T06:44:18Z</time>
      </trkpt>
      <trkpt lat="41.384850" lon="1.996455">
        <ele>-8.433</ele>
        <time>2013-10-27T06:44:19Z</time>
      </trkpt>
      <trkpt lat="41.384938" lon="1.996455">
        <ele>-8.489</ele>
        <time>2013-10-27T06:44:22Z</time>
      </trkpt>
      <trkpt lat="41.384972" lon="1.996460">
        <ele>-8.423</ele>
        <time>2013-10-27T06:44:23Z</time>
      </trkpt>
      <trkpt lat="41.385050" lon="1.996482">
        <ele>-8.472</ele>
        <time>2013-10-27T06:44:25Z</time>
      </trkpt>
      <trkpt lat="41.385133" lon="1.996518">
        <ele>-8.413</ele>
        <time>2013-10-27T06:44:27Z</time>
      </trkpt>
      <trkpt lat="41.385180" lon="1.996540">
        <ele>-8.414</ele>
        <time>2013-10-27T06:44:28Z</time>
      </trkpt>
      <trkpt lat="41.385230" lon="1.996560">
        <ele>-8.408</ele>
        <time>2013-10-27T06:44:29Z</time>
      </trkpt>
      <trkpt lat="41.385282" lon="1.996575">
        <ele>-8.448</ele>
        <time>2013-10-27T06:44:30Z</time>
      </trkpt>
      <trkpt lat="41.385387" lon="1.996605">
        <ele>-8.421</ele>
        <time>2013-10-27T06:44:32Z</time>
      </trkpt>
      <trkpt lat="41.385440" lon="1.996610">
        <ele>-9.063</ele>
        <time>2013-10-27T06:44:33Z</time>
      </trkpt>
      <trkpt lat="41.385493" lon="1.996590">
        <ele>-9.489</ele>
        <time>2013-10-27T06:44:34Z</time>
      </trkpt>
      <trkpt lat="41.385542" lon="1.996542">
        <ele>-10.041</ele>
        <time>2013-10-27T06:44:35Z</time>
      </trkpt>
      <trkpt lat="41.385582" lon="1.996468">
        <ele>-10.452</ele>
        <time>2013-10-27T06:44:36Z</time>
      </trkpt>
      <trkpt lat="41.385605" lon="1.996383">
        <ele>-11.058</ele>
        <time>2013-10-27T06:44:37Z</time>
      </trkpt>
      <trkpt lat="41.385622" lon="1.996315">
        <ele>-11.492</ele>
        <time>2013-10-27T06:44:38Z</time>
      </trkpt>
      <trkpt lat="41.385635" lon="1.996235">
        <ele>-12.013</ele>
        <time>2013-10-27T06:44:39Z</time>
      </trkpt>
      <trkpt lat="41.385643" lon="1.996155">
        <ele>-12.443</ele>
        <time>2013-10-27T06:44:40Z</time>
      </trkpt>
      <trkpt lat="41.385652" lon="1.996073">
        <ele>-13.007</ele>
        <time>2013-10-27T06:44:41Z</time>
      </trkpt>
      <trkpt lat="41.385660" lon="1.995912">
        <ele>-13.408</ele>
        <time>2013-10-27T06:44:43Z</time>
      </trkpt>
      <trkpt lat="41.385665" lon="1.995833">
        <ele>-13.862</ele>
        <time>2013-10-27T06:44:44Z</time>
      </trkpt>
      <trkpt lat="41.385672" lon="1.995755">
        <ele>-14.265</ele>
        <time>2013-10-27T06:44:45Z</time>
      </trkpt>
      <trkpt lat="41.385685" lon="1.995683">
        <ele>-14.867</ele>
        <time>2013-10-27T06:44:46Z</time>
      </trkpt>
      <trkpt lat="41.385713" lon="1.995617">
        <ele>-15.613</ele>
        <time>2013-10-27T06:44:47Z</time>
      </trkpt>
      <trkpt lat="41.385767" lon="1.995545">
        <ele>-16.285</ele>
        <time>2013-10-27T06:44:48Z</time>
      </trkpt>
      <trkpt lat="41.385845" lon="1.995458">
        <ele>-16.886</ele>
        <time>2013-10-27T06:44:49Z</time>
      </trkpt>
      <trkpt lat="41.385917" lon="1.995360">
        <ele>-17.482</ele>
        <time>2013-10-27T06:44:50Z</time>
      </trkpt>
      <trkpt lat="41.385983" lon="1.995265">
        <ele>-18.046</ele>
        <time>2013-10-27T06:44:51Z</time>
      </trkpt>
      <trkpt lat="41.386047" lon="1.995183">
        <ele>-18.847</ele>
        <time>2013-10-27T06:44:52Z</time>
      </trkpt>
      <trkpt lat="41.386098" lon="1.995115">
        <ele>-19.429</ele>
        <time>2013-10-27T06:44:53Z</time>
      </trkpt>
      <trkpt lat="41.386137" lon="1.995068">
        <ele>-20.221</ele>
        <time>2013-10-27T06:44:54Z</time>
      </trkpt>
      <trkpt lat="41.386180" lon="1.995008">
        <ele>-20.208</ele>
        <time>2013-10-27T06:44:57Z</time>
      </trkpt>
      <trkpt lat="41.386197" lon="1.994993">
        <ele>-19.615</ele>
        <time>2013-10-27T06:44:58Z</time>
      </trkpt>
      <trkpt lat="41.386208" lon="1.994978">
        <ele>-19.278</ele>
        <time>2013-10-27T06:44:59Z</time>
      </trkpt>
      <trkpt lat="41.386217" lon="1.994962">
        <ele>-18.810</ele>
        <time>2013-10-27T06:45:00Z</time>
      </trkpt>
      <trkpt lat="41.386225" lon="1.994943">
        <ele>-18.276</ele>
        <time>2013-10-27T06:45:01Z</time>
      </trkpt>
      <trkpt lat="41.386230" lon="1.994920">
        <ele>-17.848</ele>
        <time>2013-10-27T06:45:02Z</time>
      </trkpt>
      <trkpt lat="41.386235" lon="1.994898">
        <ele>-17.829</ele>
        <time>2013-10-27T06:45:03Z</time>
      </trkpt>
      <trkpt lat="41.386243" lon="1.994880">
        <ele>-17.485</ele>
        <time>2013-10-27T06:45:04Z</time>
      </trkpt>
      <trkpt lat="41.386250" lon="1.994860">
        <ele>-17.099</ele>
        <time>2013-10-27T06:45:05Z</time>
      </trkpt>
      <trkpt lat="41.386257" lon="1.994842">
        <ele>-16.628</ele>
        <time>2013-10-27T06:45:06Z</time>
      </trkpt>
      <trkpt lat="41.386263" lon="1.994827">
        <ele>-16.289</ele>
        <time>2013-10-27T06:45:07Z</time>
      </trkpt>
      <trkpt lat="41.386268" lon="1.994807">
        <ele>-15.817</ele>
        <time>2013-10-27T06:45:08Z</time>
      </trkpt>
      <trkpt lat="41.386273" lon="1.994788">
        <ele>-15.808</ele>
        <time>2013-10-27T06:45:09Z</time>
      </trkpt>
      <trkpt lat="41.386282" lon="1.994770">
        <ele>-15.283</ele>
        <time>2013-10-27T06:45:10Z</time>
      </trkpt>
      <trkpt lat="41.386290" lon="1.994747">
        <ele>-14.886</ele>
        <time>2013-10-27T06:45:11Z</time>
      </trkpt>
      <trkpt lat="41.386298" lon="1.994727">
        <ele>-14.048</ele>
        <time>2013-10-27T06:45:12Z</time>
      </trkpt>
      <trkpt lat="41.386308" lon="1.994707">
        <ele>-13.634</ele>
        <time>2013-10-27T06:45:13Z</time>
      </trkpt>
      <trkpt lat="41.386320" lon="1.994688">
        <ele>-13.686</ele>
        <time>2013-10-27T06:45:14Z</time>
      </trkpt>
      <trkpt lat="41.386328" lon="1.994667">
        <ele>-13.287</ele>
        <time>2013-10-27T06:45:15Z</time>
      </trkpt>
      <trkpt lat="41.386338" lon="1.994645">
        <ele>-12.893</ele>
        <time>2013-10-27T06:45:16Z</time>
      </trkpt>
      <trkpt lat="41.386350" lon="1.994627">
        <ele>-12.427</ele>
        <time>2013-10-27T06:45:17Z</time>
      </trkpt>
      <trkpt lat="41.386360" lon="1.994607">
        <ele>-12.038</ele>
        <time>2013-10-27T06:45:18Z</time>
      </trkpt>
      <trkpt lat="41.386367" lon="1.994590">
        <ele>-11.670</ele>
        <time>2013-10-27T06:45:19Z</time>
      </trkpt>
      <trkpt lat="41.386383" lon="1.994550">
        <ele>-11.617</ele>
        <time>2013-10-27T06:45:21Z</time>
      </trkpt>
      <trkpt lat="41.386390" lon="1.994527">
        <ele>-11.208</ele>
        <time>2013-10-27T06:45:22Z</time>
      </trkpt>
      <trkpt lat="41.386397" lon="1.994507">
        <ele>-10.874</ele>
        <time>2013-10-27T06:45:23Z</time>
      </trkpt>
      <trkpt lat="41.386403" lon="1.994483">
        <ele>-10.477</ele>
        <time>2013-10-27T06:45:24Z</time>
      </trkpt>
      <trkpt lat="41.386410" lon="1.994465">
        <ele>-10.049</ele>
        <time>2013-10-27T06:45:25Z</time>
      </trkpt>
      <trkpt lat="41.386418" lon="1.994445">
        <ele>-9.665</ele>
        <time>2013-10-27T06:45:26Z</time>
      </trkpt>
      <trkpt lat="41.386430" lon="1.994402">
        <ele>-9.657</ele>
        <time>2013-10-27T06:45:28Z</time>
      </trkpt>
      <trkpt lat="41.386435" lon="1.994375">
        <ele>-9.028</ele>
        <time>2013-10-27T06:45:29Z</time>
      </trkpt>
      <trkpt lat="41.386437" lon="1.994348">
        <ele>-8.654</ele>
        <time>2013-10-27T06:45:30Z</time>
      </trkpt>
      <trkpt lat="41.386440" lon="1.994328">
        <ele>-8.228</ele>
        <time>2013-10-27T06:45:31Z</time>
      </trkpt>
      <trkpt lat="41.386450" lon="1.994308">
        <ele>-7.862</ele>
        <time>2013-10-27T06:45:32Z</time>
      </trkpt>
      <trkpt lat="41.386455" lon="1.994292">
        <ele>-7.283</ele>
        <time>2013-10-27T06:45:33Z</time>
      </trkpt>
      <trkpt lat="41.386463" lon="1.994255">
        <ele>-6.811</ele>
        <time>2013-10-27T06:45:35Z</time>
      </trkpt>
      <trkpt lat="41.386468" lon="1.994233">
        <ele>-6.408</ele>
        <time>2013-10-27T06:45:36Z</time>
      </trkpt>
      <trkpt lat="41.386482" lon="1.994200">
        <ele>-5.257</ele>
        <time>2013-10-27T06:45:37Z</time>
      </trkpt>
      <trkpt lat="41.386490" lon="1.994178">
        <ele>-5.210</ele>
        <time>2013-10-27T06:45:39Z</time>
      </trkpt>
      <trkpt lat="41.386497" lon="1.994160">
        <ele>-4.842</ele>
        <time>2013-10-27T06:45:40Z</time>
      </trkpt>
      <trkpt lat="41.386502" lon="1.994143">
        <ele>-4.458</ele>
        <time>2013-10-27T06:45:41Z</time>
      </trkpt>
      <trkpt lat="41.386507" lon="1.994122">
        <ele>-4.010</ele>
        <time>2013-10-27T06:45:42Z</time>
      </trkpt>
      <trkpt lat="41.386512" lon="1.994105">
        <ele>-3.481</ele>
        <time>2013-10-27T06:45:43Z</time>
      </trkpt>
      <trkpt lat="41.386515" lon="1.994087">
        <ele>-3.057</ele>
        <time>2013-10-27T06:45:44Z</time>
      </trkpt>
      <trkpt lat="41.386522" lon="1.994050">
        <ele>-2.621</ele>
        <time>2013-10-27T06:45:46Z</time>
      </trkpt>
      <trkpt lat="41.386527" lon="1.994035">
        <ele>-2.265</ele>
        <time>2013-10-27T06:45:47Z</time>
      </trkpt>
      <trkpt lat="41.386532" lon="1.994018">
        <ele>-1.868</ele>
        <time>2013-10-27T06:45:48Z</time>
      </trkpt>
      <trkpt lat="41.386538" lon="1.994000">
        <ele>-1.214</ele>
        <time>2013-10-27T06:45:49Z</time>
      </trkpt>
      <trkpt lat="41.386543" lon="1.993985">
        <ele>-0.808</ele>
        <time>2013-10-27T06:45:50Z</time>
      </trkpt>
      <trkpt lat="41.386570" lon="1.993952">
        <ele>-0.897</ele>
        <time>2013-10-27T06:45:52Z</time>
      </trkpt>
      <trkpt lat="41.386587" lon="1.993940">
        <ele>-0.440</ele>
        <time>2013-10-27T06:45:53Z</time>
      </trkpt>
      <trkpt lat="41.386603" lon="1.993933">
        <ele>0.042</ele>
        <time>2013-10-27T06:45:54Z</time>
      </trkpt>
      <trkpt lat="41.386622" lon="1.993932">
        <ele>0.448</ele>
        <time>2013-10-27T06:45:55Z</time>
      </trkpt>
      <trkpt lat="41.386638" lon="1.993930">
        <ele>0.810</ele>
        <time>2013-10-27T06:45:56Z</time>
      </trkpt>
      <trkpt lat="41.386658" lon="1.993933">
        <ele>1.481</ele>
        <time>2013-10-27T06:45:57Z</time>
      </trkpt>
      <trkpt lat="41.386720" lon="1.993990">
        <ele>1.417</ele>
        <time>2013-10-27T06:46:02Z</time>
      </trkpt>
      <trkpt lat="41.386745" lon="1.994012">
        <ele>1.811</ele>
        <time>2013-10-27T06:46:04Z</time>
      </trkpt>
      <trkpt lat="41.386758" lon="1.994022">
        <ele>2.224</ele>
        <time>2013-10-27T06:46:05Z</time>
      </trkpt>
      <trkpt lat="41.386772" lon="1.994033">
        <ele>2.604</ele>
        <time>2013-10-27T06:46:06Z</time>
      </trkpt>
      <trkpt lat="41.386783" lon="1.994048">
        <ele>3.014</ele>
        <time>2013-10-27T06:46:07Z</time>
      </trkpt>
      <trkpt lat="41.386797" lon="1.994060">
        <ele>3.408</ele>
        <time>2013-10-27T06:46:08Z</time>
      </trkpt>
      <trkpt lat="41.386888" lon="1.994130">
        <ele>3.493</ele>
        <time>2013-10-27T06:46:14Z</time>
      </trkpt>
      <trkpt lat="41.386987" lon="1.994167">
        <ele>3.856</ele>
        <time>2013-10-27T06:46:19Z</time>
      </trkpt>
      <trkpt lat="41.387005" lon="1.994165">
        <ele>4.228</ele>
        <time>2013-10-27T06:46:20Z</time>
      </trkpt>
      <trkpt lat="41.387023" lon="1.994158">
        <ele>4.694</ele>
        <time>2013-10-27T06:46:21Z</time>
      </trkpt>
      <trkpt lat="41.387038" lon="1.994152">
        <ele>5.076</ele>
        <time>2013-10-27T06:46:22Z</time>
      </trkpt>
      <trkpt lat="41.387047" lon="1.994137">
        <ele>5.417</ele>
        <time>2013-10-27T06:46:23Z</time>
      </trkpt>
      <trkpt lat="41.387047" lon="1.994117">
        <ele>5.453</ele>
        <time>2013-10-27T06:46:24Z</time>
      </trkpt>
      <trkpt lat="41.387020" lon="1.994010">
        <ele>5.457</ele>
        <time>2013-10-27T06:46:29Z</time>
      </trkpt>
      <trkpt lat="41.387000" lon="1.993913">
        <ele>5.827</ele>
        <time>2013-10-27T06:46:33Z</time>
      </trkpt>
      <trkpt lat="41.387000" lon="1.993892">
        <ele>6.268</ele>
        <time>2013-10-27T06:46:34Z</time>
      </trkpt>
      <trkpt lat="41.387000" lon="1.993870">
        <ele>6.614</ele>
        <time>2013-10-27T06:46:35Z</time>
      </trkpt>
      <trkpt lat="41.387003" lon="1.993847">
        <ele>7.008</ele>
        <time>2013-10-27T06:46:36Z</time>
      </trkpt>
      <trkpt lat="41.387008" lon="1.993825">
        <ele>7.413</ele>
        <time>2013-10-27T06:46:37Z</time>
      </trkpt>
      <trkpt lat="41.387037" lon="1.993740">
        <ele>7.466</ele>
        <time>2013-10-27T06:46:41Z</time>
      </trkpt>
      <trkpt lat="41.387092" lon="1.993587">
        <ele>7.828</ele>
        <time>2013-10-27T06:46:48Z</time>
      </trkpt>
      <trkpt lat="41.387100" lon="1.993562">
        <ele>8.274</ele>
        <time>2013-10-27T06:46:49Z</time>
      </trkpt>
      <trkpt lat="41.387108" lon="1.993538">
        <ele>8.626</ele>
        <time>2013-10-27T06:46:50Z</time>
      </trkpt>
      <trkpt lat="41.387115" lon="1.993517">
        <ele>9.027</ele>
        <time>2013-10-27T06:46:51Z</time>
      </trkpt>
      <trkpt lat="41.387120" lon="1.993492">
        <ele>9.413</ele>
        <time>2013-10-27T06:46:52Z</time>
      </trkpt>
      <trkpt lat="41.387132" lon="1.993385">
        <ele>9.487</ele>
        <time>2013-10-27T06:46:56Z</time>
      </trkpt>
      <trkpt lat="41.387123" lon="1.993267">
        <ele>9.465</ele>
        <time>2013-10-27T06:47:01Z</time>
      </trkpt>
      <trkpt lat="41.387117" lon="1.993205">
        <ele>9.868</ele>
        <time>2013-10-27T06:47:04Z</time>
      </trkpt>
      <trkpt lat="41.387115" lon="1.993185">
        <ele>10.214</ele>
        <time>2013-10-27T06:47:05Z</time>
      </trkpt>
      <trkpt lat="41.387112" lon="1.993162">
        <ele>10.608</ele>
        <time>2013-10-27T06:47:06Z</time>
      </trkpt>
      <trkpt lat="41.387107" lon="1.993145">
        <ele>11.277</ele>
        <time>2013-10-27T06:47:07Z</time>
      </trkpt>
      <trkpt lat="41.387097" lon="1.993127">
        <ele>11.630</ele>
        <time>2013-10-27T06:47:08Z</time>
      </trkpt>
      <trkpt lat="41.387083" lon="1.993053">
        <ele>11.632</ele>
        <time>2013-10-27T06:47:11Z</time>
      </trkpt>
      <trkpt lat="41.387113" lon="1.992945">
        <ele>12.018</ele>
        <time>2013-10-27T06:47:15Z</time>
      </trkpt>
      <trkpt lat="41.387123" lon="1.992922">
        <ele>12.410</ele>
        <time>2013-10-27T06:47:16Z</time>
      </trkpt>
      <trkpt lat="41.387135" lon="1.992895">
        <ele>12.881</ele>
        <time>2013-10-27T06:47:17Z</time>
      </trkpt>
      <trkpt lat="41.387152" lon="1.992868">
        <ele>13.647</ele>
        <time>2013-10-27T06:47:18Z</time>
      </trkpt>
      <trkpt lat="41.387255" lon="1.992688">
        <ele>13.641</ele>
        <time>2013-10-27T06:47:25Z</time>
      </trkpt>
      <trkpt lat="41.387322" lon="1.992525">
        <ele>14.046</ele>
        <time>2013-10-27T06:47:31Z</time>
      </trkpt>
      <trkpt lat="41.387323" lon="1.992497">
        <ele>14.488</ele>
        <time>2013-10-27T06:47:32Z</time>
      </trkpt>
      <trkpt lat="41.387325" lon="1.992468">
        <ele>15.016</ele>
        <time>2013-10-27T06:47:33Z</time>
      </trkpt>
      <trkpt lat="41.387328" lon="1.992440">
        <ele>15.408</ele>
        <time>2013-10-27T06:47:34Z</time>
      </trkpt>
      <trkpt lat="41.387330" lon="1.992410">
        <ele>15.835</ele>
        <time>2013-10-27T06:47:35Z</time>
      </trkpt>
      <trkpt lat="41.387315" lon="1.992283">
        <ele>15.848</ele>
        <time>2013-10-27T06:47:39Z</time>
      </trkpt>
      <trkpt lat="41.387303" lon="1.992228">
        <ele>15.840</ele>
        <time>2013-10-27T06:47:41Z</time>
      </trkpt>
      <trkpt lat="41.387283" lon="1.992153">
        <ele>15.866</ele>
        <time>2013-10-27T06:47:44Z</time>
      </trkpt>
      <trkpt lat="41.387263" lon="1.992067">
        <ele>15.858</ele>
        <time>2013-10-27T06:47:47Z</time>
      </trkpt>
      <trkpt lat="41.387243" lon="1.991898">
        <ele>15.899</ele>
        <time>2013-10-27T06:47:52Z</time>
      </trkpt>
      <trkpt lat="41.387240" lon="1.991865">
        <ele>15.825</ele>
        <time>2013-10-27T06:47:53Z</time>
      </trkpt>
      <trkpt lat="41.387200" lon="1.991715">
        <ele>15.839</ele>
        <time>2013-10-27T06:47:58Z</time>
      </trkpt>
      <trkpt lat="41.387185" lon="1.991687">
        <ele>15.858</ele>
        <time>2013-10-27T06:47:59Z</time>
      </trkpt>
      <trkpt lat="41.387135" lon="1.991608">
        <ele>15.852</ele>
        <time>2013-10-27T06:48:02Z</time>
      </trkpt>
      <trkpt lat="41.387048" lon="1.991488">
        <ele>16.817</ele>
        <time>2013-10-27T06:48:07Z</time>
      </trkpt>
      <trkpt lat="41.387030" lon="1.991468">
        <ele>17.208</ele>
        <time>2013-10-27T06:48:08Z</time>
      </trkpt>
      <trkpt lat="41.387012" lon="1.991447">
        <ele>17.846</ele>
        <time>2013-10-27T06:48:09Z</time>
      </trkpt>
      <trkpt lat="41.386990" lon="1.991425">
        <ele>18.229</ele>
        <time>2013-10-27T06:48:10Z</time>
      </trkpt>
      <trkpt lat="41.386928" lon="1.991363">
        <ele>18.211</ele>
        <time>2013-10-27T06:48:13Z</time>
      </trkpt>
      <trkpt lat="41.386862" lon="1.991327">
        <ele>18.267</ele>
        <time>2013-10-27T06:48:16Z</time>
      </trkpt>
      <trkpt lat="41.386818" lon="1.991307">
        <ele>18.299</ele>
        <time>2013-10-27T06:48:18Z</time>
      </trkpt>
      <trkpt lat="41.386658" lon="1.991302">
        <ele>18.260</ele>
        <time>2013-10-27T06:48:23Z</time>
      </trkpt>
      <trkpt lat="41.386490" lon="1.991313">
        <ele>18.216</ele>
        <time>2013-10-27T06:48:27Z</time>
      </trkpt>
      <trkpt lat="41.386408" lon="1.991293">
        <ele>18.230</ele>
        <time>2013-10-27T06:48:29Z</time>
      </trkpt>
      <trkpt lat="41.386377" lon="1.991258">
        <ele>18.217</ele>
        <time>2013-10-27T06:48:30Z</time>
      </trkpt>
      <trkpt lat="41.386335" lon="1.991155">
        <ele>18.287</ele>
        <time>2013-10-27T06:48:32Z</time>
      </trkpt>
      <trkpt lat="41.386363" lon="1.990925">
        <ele>18.215</ele>
        <time>2013-10-27T06:48:36Z</time>
      </trkpt>
      <trkpt lat="41.386390" lon="1.990875">
        <ele>18.208</ele>
        <time>2013-10-27T06:48:37Z</time>
      </trkpt>
      <trkpt lat="41.386447" lon="1.990675">
        <ele>18.242</ele>
        <time>2013-10-27T06:48:41Z</time>
      </trkpt>
      <trkpt lat="41.386472" lon="1.990423">
        <ele>17.825</ele>
        <time>2013-10-27T06:48:45Z</time>
      </trkpt>
      <trkpt lat="41.386480" lon="1.990357">
        <ele>17.417</ele>
        <time>2013-10-27T06:48:46Z</time>
      </trkpt>
      <trkpt lat="41.386488" lon="1.990290">
        <ele>17.033</ele>
        <time>2013-10-27T06:48:47Z</time>
      </trkpt>
      <trkpt lat="41.386500" lon="1.990225">
        <ele>16.655</ele>
        <time>2013-10-27T06:48:48Z</time>
      </trkpt>
      <trkpt lat="41.386512" lon="1.990158">
        <ele>16.296</ele>
        <time>2013-10-27T06:48:49Z</time>
      </trkpt>
      <trkpt lat="41.386530" lon="1.990037">
        <ele>16.282</ele>
        <time>2013-10-27T06:48:51Z</time>
      </trkpt>
      <trkpt lat="41.386537" lon="1.989937">
        <ele>16.296</ele>
        <time>2013-10-27T06:48:53Z</time>
      </trkpt>
      <trkpt lat="41.386535" lon="1.989895">
        <ele>16.255</ele>
        <time>2013-10-27T06:48:54Z</time>
      </trkpt>
      <trkpt lat="41.386492" lon="1.989662">
        <ele>16.207</ele>
        <time>2013-10-27T06:49:00Z</time>
      </trkpt>
      <trkpt lat="41.386483" lon="1.989582">
        <ele>16.617</ele>
        <time>2013-10-27T06:49:02Z</time>
      </trkpt>
      <trkpt lat="41.386480" lon="1.989542">
        <ele>17.008</ele>
        <time>2013-10-27T06:49:03Z</time>
      </trkpt>
      <trkpt lat="41.386478" lon="1.989498">
        <ele>17.426</ele>
        <time>2013-10-27T06:49:04Z</time>
      </trkpt>
      <trkpt lat="41.386480" lon="1.989457">
        <ele>17.859</ele>
        <time>2013-10-27T06:49:05Z</time>
      </trkpt>
      <trkpt lat="41.386482" lon="1.989417">
        <ele>18.221</ele>
        <time>2013-10-27T06:49:06Z</time>
      </trkpt>
      <trkpt lat="41.386477" lon="1.989340">
        <ele>18.627</ele>
        <time>2013-10-27T06:49:08Z</time>
      </trkpt>
      <trkpt lat="41.386473" lon="1.989305">
        <ele>19.299</ele>
        <time>2013-10-27T06:49:09Z</time>
      </trkpt>
      <trkpt lat="41.386472" lon="1.989268">
        <ele>19.630</ele>
        <time>2013-10-27T06:49:10Z</time>
      </trkpt>
      <trkpt lat="41.386468" lon="1.989232">
        <ele>20.076</ele>
        <time>2013-10-27T06:49:11Z</time>
      </trkpt>
      <trkpt lat="41.386467" lon="1.989192">
        <ele>20.490</ele>
        <time>2013-10-27T06:49:12Z</time>
      </trkpt>
      <trkpt lat="41.386463" lon="1.989120">
        <ele>20.476</ele>
        <time>2013-10-27T06:49:14Z</time>
      </trkpt>
      <trkpt lat="41.386445" lon="1.989052">
        <ele>20.490</ele>
        <time>2013-10-27T06:49:16Z</time>
      </trkpt>
      <trkpt lat="41.386392" lon="1.988965">
        <ele>20.819</ele>
        <time>2013-10-27T06:49:19Z</time>
      </trkpt>
      <trkpt lat="41.386372" lon="1.988937">
        <ele>21.208</ele>
        <time>2013-10-27T06:49:20Z</time>
      </trkpt>
      <trkpt lat="41.386355" lon="1.988900">
        <ele>22.058</ele>
        <time>2013-10-27T06:49:21Z</time>
      </trkpt>
      <trkpt lat="41.386337" lon="1.988865">
        <ele>22.461</ele>
        <time>2013-10-27T06:49:22Z</time>
      </trkpt>
      <trkpt lat="41.386320" lon="1.988830">
        <ele>22.453</ele>
        <time>2013-10-27T06:49:23Z</time>
      </trkpt>
      <trkpt lat="41.386200" lon="1.988547">
        <ele>22.429</ele>
        <time>2013-10-27T06:49:31Z</time>
      </trkpt>
      <trkpt lat="41.386165" lon="1.988313">
        <ele>22.831</ele>
        <time>2013-10-27T06:49:37Z</time>
      </trkpt>
      <trkpt lat="41.386165" lon="1.988277">
        <ele>23.232</ele>
        <time>2013-10-27T06:49:38Z</time>
      </trkpt>
      <trkpt lat="41.386167" lon="1.988238">
        <ele>23.678</ele>
        <time>2013-10-27T06:49:39Z</time>
      </trkpt>
      <trkpt lat="41.386167" lon="1.988202">
        <ele>24.032</ele>
        <time>2013-10-27T06:49:40Z</time>
      </trkpt>
      <trkpt lat="41.386167" lon="1.988165">
        <ele>24.653</ele>
        <time>2013-10-27T06:49:41Z</time>
      </trkpt>
      <trkpt lat="41.386150" lon="1.988023">
        <ele>24.604</ele>
        <time>2013-10-27T06:49:45Z</time>
      </trkpt>
      <trkpt lat="41.386118" lon="1.987902">
        <ele>25.014</ele>
        <time>2013-10-27T06:49:49Z</time>
      </trkpt>
      <trkpt lat="41.386110" lon="1.987877">
        <ele>25.408</ele>
        <time>2013-10-27T06:49:50Z</time>
      </trkpt>
      <trkpt lat="41.386098" lon="1.987847">
        <ele>25.896</ele>
        <time>2013-10-27T06:49:51Z</time>
      </trkpt>
      <trkpt lat="41.386083" lon="1.987815">
        <ele>26.239</ele>
        <time>2013-10-27T06:49:52Z</time>
      </trkpt>
      <trkpt lat="41.386068" lon="1.987788">
        <ele>26.621</ele>
        <time>2013-10-27T06:49:53Z</time>
      </trkpt>
      <trkpt lat="41.385975" lon="1.987688">
        <ele>27.017</ele>
        <time>2013-10-27T06:49:58Z</time>
      </trkpt>
      <trkpt lat="41.385952" lon="1.987677">
        <ele>27.479</ele>
        <time>2013-10-27T06:49:59Z</time>
      </trkpt>
      <trkpt lat="41.385930" lon="1.987662">
        <ele>28.030</ele>
        <time>2013-10-27T06:50:00Z</time>
      </trkpt>
      <trkpt lat="41.385913" lon="1.987650">
        <ele>28.416</ele>
        <time>2013-10-27T06:50:01Z</time>
      </trkpt>
      <trkpt lat="41.385898" lon="1.987637">
        <ele>28.830</ele>
        <time>2013-10-27T06:50:02Z</time>
      </trkpt>
      <trkpt lat="41.385848" lon="1.987577">
        <ele>28.815</ele>
        <time>2013-10-27T06:50:05Z</time>
      </trkpt>
      <trkpt lat="41.385812" lon="1.987548">
        <ele>29.265</ele>
        <time>2013-10-27T06:50:07Z</time>
      </trkpt>
      <trkpt lat="41.385795" lon="1.987532">
        <ele>29.611</ele>
        <time>2013-10-27T06:50:08Z</time>
      </trkpt>
      <trkpt lat="41.385783" lon="1.987513">
        <ele>30.208</ele>
        <time>2013-10-27T06:50:09Z</time>
      </trkpt>
      <trkpt lat="41.385770" lon="1.987497">
        <ele>30.612</ele>
        <time>2013-10-27T06:50:10Z</time>
      </trkpt>
      <trkpt lat="41.385758" lon="1.987478">
        <ele>31.085</ele>
        <time>2013-10-27T06:50:11Z</time>
      </trkpt>
      <trkpt lat="41.385727" lon="1.987417">
        <ele>31.427</ele>
        <time>2013-10-27T06:50:14Z</time>
      </trkpt>
      <trkpt lat="41.385720" lon="1.987395">
        <ele>31.813</ele>
        <time>2013-10-27T06:50:15Z</time>
      </trkpt>
      <trkpt lat="41.385715" lon="1.987372">
        <ele>32.235</ele>
        <time>2013-10-27T06:50:16Z</time>
      </trkpt>
      <trkpt lat="41.385707" lon="1.987350">
        <ele>32.656</ele>
        <time>2013-10-27T06:50:17Z</time>
      </trkpt>
      <trkpt lat="41.385697" lon="1.987330">
        <ele>33.012</ele>
        <time>2013-10-27T06:50:18Z</time>
      </trkpt>
      <trkpt lat="41.385692" lon="1.987312">
        <ele>33.046</ele>
        <time>2013-10-27T06:50:19Z</time>
      </trkpt>
      <trkpt lat="41.385680" lon="1.987252">
        <ele>33.457</ele>
        <time>2013-10-27T06:50:22Z</time>
      </trkpt>
      <trkpt lat="41.385675" lon="1.987237">
        <ele>34.000</ele>
        <time>2013-10-27T06:50:23Z</time>
      </trkpt>
      <trkpt lat="41.385673" lon="1.987223">
        <ele>34.420</ele>
        <time>2013-10-27T06:50:24Z</time>
      </trkpt>
      <trkpt lat="41.385670" lon="1.987202">
        <ele>34.808</ele>
        <time>2013-10-27T06:50:25Z</time>
      </trkpt>
      <trkpt lat="41.385665" lon="1.987178">
        <ele>35.276</ele>
        <time>2013-10-27T06:50:26Z</time>
      </trkpt>
      <trkpt lat="41.385658" lon="1.987158">
        <ele>35.219</ele>
        <time>2013-10-27T06:50:27Z</time>
      </trkpt>
      <trkpt lat="41.385652" lon="1.987120">
        <ele>35.651</ele>
        <time>2013-10-27T06:50:29Z</time>
      </trkpt>
      <trkpt lat="41.385650" lon="1.987097">
        <ele>36.097</ele>
        <time>2013-10-27T06:50:30Z</time>
      </trkpt>
      <trkpt lat="41.385648" lon="1.987080">
        <ele>36.489</ele>
        <time>2013-10-27T06:50:31Z</time>
      </trkpt>
      <trkpt lat="41.385645" lon="1.987063">
        <ele>36.860</ele>
        <time>2013-10-27T06:50:32Z</time>
      </trkpt>
      <trkpt lat="41.385642" lon="1.987043">
        <ele>37.246</ele>
        <time>2013-10-27T06:50:33Z</time>
      </trkpt>
      <trkpt lat="41.385640" lon="1.987022">
        <ele>37.250</ele>
        <time>2013-10-27T06:50:34Z</time>
      </trkpt>
      <trkpt lat="41.385640" lon="1.986982">
        <ele>37.677</ele>
        <time>2013-10-27T06:50:36Z</time>
      </trkpt>
      <trkpt lat="41.385637" lon="1.986960">
        <ele>38.061</ele>
        <time>2013-10-27T06:50:37Z</time>
      </trkpt>
      <trkpt lat="41.385638" lon="1.986938">
        <ele>38.427</ele>
        <time>2013-10-27T06:50:38Z</time>
      </trkpt>
      <trkpt lat="41.385640" lon="1.986918">
        <ele>38.808</ele>
        <time>2013-10-27T06:50:39Z</time>
      </trkpt>
      <trkpt lat="41.385642" lon="1.986902">
        <ele>39.438</ele>
        <time>2013-10-27T06:50:40Z</time>
      </trkpt>
      <trkpt lat="41.385643" lon="1.986882">
        <ele>39.491</ele>
        <time>2013-10-27T06:50:41Z</time>
      </trkpt>
      <trkpt lat="41.385657" lon="1.986838">
        <ele>39.873</ele>
        <time>2013-10-27T06:50:44Z</time>
      </trkpt>
      <trkpt lat="41.385660" lon="1.986822">
        <ele>40.229</ele>
        <time>2013-10-27T06:50:45Z</time>
      </trkpt>
      <trkpt lat="41.385665" lon="1.986800">
        <ele>40.691</ele>
        <time>2013-10-27T06:50:46Z</time>
      </trkpt>
      <trkpt lat="41.385670" lon="1.986778">
        <ele>41.052</ele>
        <time>2013-10-27T06:50:47Z</time>
      </trkpt>
      <trkpt lat="41.385677" lon="1.986757">
        <ele>41.428</ele>
        <time>2013-10-27T06:50:48Z</time>
      </trkpt>
      <trkpt lat="41.385698" lon="1.986667">
        <ele>41.452</ele>
        <time>2013-10-27T06:50:52Z</time>
      </trkpt>
      <trkpt lat="41.385705" lon="1.986643">
        <ele>41.822</ele>
        <time>2013-10-27T06:50:53Z</time>
      </trkpt>
      <trkpt lat="41.385710" lon="1.986623">
        <ele>42.262</ele>
        <time>2013-10-27T06:50:54Z</time>
      </trkpt>
      <trkpt lat="41.385717" lon="1.986605">
        <ele>42.608</ele>
        <time>2013-10-27T06:50:55Z</time>
      </trkpt>
      <trkpt lat="41.385723" lon="1.986588">
        <ele>43.008</ele>
        <time>2013-10-27T06:50:56Z</time>
      </trkpt>
      <trkpt lat="41.385732" lon="1.986570">
        <ele>43.623</ele>
        <time>2013-10-27T06:50:57Z</time>
      </trkpt>
      <trkpt lat="41.385740" lon="1.986552">
        <ele>43.656</ele>
        <time>2013-10-27T06:50:58Z</time>
      </trkpt>
      <trkpt lat="41.385763" lon="1.986482">
        <ele>44.058</ele>
        <time>2013-10-27T06:51:01Z</time>
      </trkpt>
      <trkpt lat="41.385770" lon="1.986457">
        <ele>44.464</ele>
        <time>2013-10-27T06:51:02Z</time>
      </trkpt>
      <trkpt lat="41.385777" lon="1.986430">
        <ele>44.856</ele>
        <time>2013-10-27T06:51:03Z</time>
      </trkpt>
      <trkpt lat="41.385782" lon="1.986402">
        <ele>45.467</ele>
        <time>2013-10-27T06:51:04Z</time>
      </trkpt>
      <trkpt lat="41.385787" lon="1.986375">
        <ele>45.823</ele>
        <time>2013-10-27T06:51:05Z</time>
      </trkpt>
      <trkpt lat="41.385822" lon="1.986265">
        <ele>46.227</ele>
        <time>2013-10-27T06:51:09Z</time>
      </trkpt>
      <trkpt lat="41.385825" lon="1.986237">
        <ele>46.647</ele>
        <time>2013-10-27T06:51:10Z</time>
      </trkpt>
      <trkpt lat="41.385833" lon="1.986210">
        <ele>47.229</ele>
        <time>2013-10-27T06:51:11Z</time>
      </trkpt>
      <trkpt lat="41.385838" lon="1.986183">
        <ele>47.621</ele>
        <time>2013-10-27T06:51:12Z</time>
      </trkpt>
      <trkpt lat="41.385843" lon="1.986157">
        <ele>48.008</ele>
        <time>2013-10-27T06:51:13Z</time>
      </trkpt>
      <trkpt lat="41.385875" lon="1.986050">
        <ele>48.495</ele>
        <time>2013-10-27T06:51:17Z</time>
      </trkpt>
      <trkpt lat="41.385885" lon="1.986025">
        <ele>48.818</ele>
        <time>2013-10-27T06:51:18Z</time>
      </trkpt>
      <trkpt lat="41.385890" lon="1.986000">
        <ele>49.420</ele>
        <time>2013-10-27T06:51:19Z</time>
      </trkpt>
      <trkpt lat="41.385892" lon="1.985973">
        <ele>49.856</ele>
        <time>2013-10-27T06:51:20Z</time>
      </trkpt>
      <trkpt lat="41.385895" lon="1.985950">
        <ele>50.218</ele>
        <time>2013-10-27T06:51:21Z</time>
      </trkpt>
      <trkpt lat="41.385920" lon="1.985862">
        <ele>50.669</ele>
        <time>2013-10-27T06:51:25Z</time>
      </trkpt>
      <trkpt lat="41.385925" lon="1.985840">
        <ele>51.065</ele>
        <time>2013-10-27T06:51:26Z</time>
      </trkpt>
      <trkpt lat="41.385930" lon="1.985817">
        <ele>51.459</ele>
        <time>2013-10-27T06:51:27Z</time>
      </trkpt>
      <trkpt lat="41.385935" lon="1.985793">
        <ele>51.813</ele>
        <time>2013-10-27T06:51:28Z</time>
      </trkpt>
      <trkpt lat="41.385940" lon="1.985772">
        <ele>52.243</ele>
        <time>2013-10-27T06:51:29Z</time>
      </trkpt>
      <trkpt lat="41.385963" lon="1.985652">
        <ele>52.207</ele>
        <time>2013-10-27T06:51:33Z</time>
      </trkpt>
      <trkpt lat="41.385972" lon="1.985620">
        <ele>52.608</ele>
        <time>2013-10-27T06:51:34Z</time>
      </trkpt>
      <trkpt lat="41.385980" lon="1.985585">
        <ele>53.042</ele>
        <time>2013-10-27T06:51:35Z</time>
      </trkpt>
      <trkpt lat="41.385988" lon="1.985550">
        <ele>53.445</ele>
        <time>2013-10-27T06:51:36Z</time>
      </trkpt>
      <trkpt lat="41.385992" lon="1.985518">
        <ele>53.887</ele>
        <time>2013-10-27T06:51:37Z</time>
      </trkpt>
      <trkpt lat="41.385998" lon="1.985488">
        <ele>54.473</ele>
        <time>2013-10-27T06:51:38Z</time>
      </trkpt>
      <trkpt lat="41.386010" lon="1.985425">
        <ele>54.415</ele>
        <time>2013-10-27T06:51:40Z</time>
      </trkpt>
      <trkpt lat="41.386092" lon="1.985157">
        <ele>54.446</ele>
        <time>2013-10-27T06:51:49Z</time>
      </trkpt>
      <trkpt lat="41.386100" lon="1.985095">
        <ele>54.852</ele>
        <time>2013-10-27T06:51:51Z</time>
      </trkpt>
      <trkpt lat="41.386102" lon="1.985065">
        <ele>55.246</ele>
        <time>2013-10-27T06:51:52Z</time>
      </trkpt>
      <trkpt lat="41.386100" lon="1.985037">
        <ele>55.689</ele>
        <time>2013-10-27T06:51:53Z</time>
      </trkpt>
      <trkpt lat="41.386098" lon="1.985008">
        <ele>56.006</ele>
        <time>2013-10-27T06:51:54Z</time>
      </trkpt>
      <trkpt lat="41.386098" lon="1.984977">
        <ele>56.426</ele>
        <time>2013-10-27T06:51:55Z</time>
      </trkpt>
      <trkpt lat="41.386098" lon="1.984947">
        <ele>56.408</ele>
        <time>2013-10-27T06:51:56Z</time>
      </trkpt>
      <trkpt lat="41.386077" lon="1.984777">
        <ele>56.869</ele>
        <time>2013-10-27T06:52:02Z</time>
      </trkpt>
      <trkpt lat="41.386073" lon="1.984748">
        <ele>57.272</ele>
        <time>2013-10-27T06:52:03Z</time>
      </trkpt>
      <trkpt lat="41.386070" lon="1.984727">
        <ele>57.664</ele>
        <time>2013-10-27T06:52:04Z</time>
      </trkpt>
      <trkpt lat="41.386068" lon="1.984700">
        <ele>58.280</ele>
        <time>2013-10-27T06:52:05Z</time>
      </trkpt>
      <trkpt lat="41.386067" lon="1.984672">
        <ele>58.632</ele>
        <time>2013-10-27T06:52:06Z</time>
      </trkpt>
      <trkpt lat="41.386062" lon="1.984562">
        <ele>58.693</ele>
        <time>2013-10-27T06:52:10Z</time>
      </trkpt>
      <trkpt lat="41.386070" lon="1.984512">
        <ele>59.059</ele>
        <time>2013-10-27T06:52:12Z</time>
      </trkpt>
      <trkpt lat="41.386072" lon="1.984490">
        <ele>59.413</ele>
        <time>2013-10-27T06:52:13Z</time>
      </trkpt>
      <trkpt lat="41.386073" lon="1.984465">
        <ele>60.498</ele>
        <time>2013-10-27T06:52:14Z</time>
      </trkpt>
      <trkpt lat="41.386075" lon="1.984440">
        <ele>60.815</ele>
        <time>2013-10-27T06:52:15Z</time>
      </trkpt>
      <trkpt lat="41.386077" lon="1.984415">
        <ele>60.826</ele>
        <time>2013-10-27T06:52:16Z</time>
      </trkpt>
      <trkpt lat="41.386092" lon="1.984313">
        <ele>61.208</ele>
        <time>2013-10-27T06:52:20Z</time>
      </trkpt>
      <trkpt lat="41.386092" lon="1.984287">
        <ele>61.610</ele>
        <time>2013-10-27T06:52:21Z</time>
      </trkpt>
      <trkpt lat="41.386093" lon="1.984258">
        <ele>62.093</ele>
        <time>2013-10-27T06:52:22Z</time>
      </trkpt>
      <trkpt lat="41.386093" lon="1.984232">
        <ele>62.665</ele>
        <time>2013-10-27T06:52:23Z</time>
      </trkpt>
      <trkpt lat="41.386097" lon="1.984205">
        <ele>63.031</ele>
        <time>2013-10-27T06:52:24Z</time>
      </trkpt>
      <trkpt lat="41.386092" lon="1.984070">
        <ele>63.413</ele>
        <time>2013-10-27T06:52:29Z</time>
      </trkpt>
      <trkpt lat="41.386085" lon="1.984043">
        <ele>63.854</ele>
        <time>2013-10-27T06:52:30Z</time>
      </trkpt>
      <trkpt lat="41.386083" lon="1.984020">
        <ele>64.240</ele>
        <time>2013-10-27T06:52:31Z</time>
      </trkpt>
      <trkpt lat="41.386077" lon="1.983998">
        <ele>64.624</ele>
        <time>2013-10-27T06:52:32Z</time>
      </trkpt>
      <trkpt lat="41.386072" lon="1.983982">
        <ele>65.089</ele>
        <time>2013-10-27T06:52:33Z</time>
      </trkpt>
      <trkpt lat="41.386057" lon="1.983948">
        <ele>65.006</ele>
        <time>2013-10-27T06:52:35Z</time>
      </trkpt>
      <trkpt lat="41.386038" lon="1.983917">
        <ele>65.426</ele>
        <time>2013-10-27T06:52:37Z</time>
      </trkpt>
      <trkpt lat="41.386028" lon="1.983902">
        <ele>66.008</ele>
        <time>2013-10-27T06:52:38Z</time>
      </trkpt>
      <trkpt lat="41.386017" lon="1.983885">
        <ele>66.849</ele>
        <time>2013-10-27T06:52:39Z</time>
      </trkpt>
      <trkpt lat="41.386005" lon="1.983868">
        <ele>67.412</ele>
        <time>2013-10-27T06:52:40Z</time>
      </trkpt>
      <trkpt lat="41.385970" lon="1.983828">
        <ele>67.414</ele>
        <time>2013-10-27T06:52:43Z</time>
      </trkpt>
      <trkpt lat="41.385958" lon="1.983818">
        <ele>67.810</ele>
        <time>2013-10-27T06:52:44Z</time>
      </trkpt>
      <trkpt lat="41.385948" lon="1.983810">
        <ele>68.292</ele>
        <time>2013-10-27T06:52:45Z</time>
      </trkpt>
      <trkpt lat="41.385932" lon="1.983797">
        <ele>68.643</ele>
        <time>2013-10-27T06:52:46Z</time>
      </trkpt>
      <trkpt lat="41.385917" lon="1.983778">
        <ele>69.029</ele>
        <time>2013-10-27T06:52:47Z</time>
      </trkpt>
      <trkpt lat="41.385905" lon="1.983762">
        <ele>69.453</ele>
        <time>2013-10-27T06:52:48Z</time>
      </trkpt>
      <trkpt lat="41.385833" lon="1.983695">
        <ele>69.879</ele>
        <time>2013-10-27T06:52:54Z</time>
      </trkpt>
      <trkpt lat="41.385820" lon="1.983678">
        <ele>70.405</ele>
        <time>2013-10-27T06:52:55Z</time>
      </trkpt>
      <trkpt lat="41.385805" lon="1.983660">
        <ele>70.825</ele>
        <time>2013-10-27T06:52:56Z</time>
      </trkpt>
      <trkpt lat="41.385790" lon="1.983643">
        <ele>71.208</ele>
        <time>2013-10-27T06:52:57Z</time>
      </trkpt>
      <trkpt lat="41.385778" lon="1.983623">
        <ele>71.678</ele>
        <time>2013-10-27T06:52:58Z</time>
      </trkpt>
      <trkpt lat="41.385768" lon="1.983602">
        <ele>71.631</ele>
        <time>2013-10-27T06:52:59Z</time>
      </trkpt>
      <trkpt lat="41.385718" lon="1.983523">
        <ele>72.413</ele>
        <time>2013-10-27T06:53:04Z</time>
      </trkpt>
      <trkpt lat="41.385708" lon="1.983507">
        <ele>72.889</ele>
        <time>2013-10-27T06:53:05Z</time>
      </trkpt>
      <trkpt lat="41.385698" lon="1.983488">
        <ele>73.421</ele>
        <time>2013-10-27T06:53:06Z</time>
      </trkpt>
      <trkpt lat="41.385690" lon="1.983470">
        <ele>73.892</ele>
        <time>2013-10-27T06:53:07Z</time>
      </trkpt>
      <trkpt lat="41.385667" lon="1.983415">
        <ele>73.898</ele>
        <time>2013-10-27T06:53:10Z</time>
      </trkpt>
      <trkpt lat="41.385660" lon="1.983395">
        <ele>74.212</ele>
        <time>2013-10-27T06:53:11Z</time>
      </trkpt>
      <trkpt lat="41.385650" lon="1.983373">
        <ele>74.693</ele>
        <time>2013-10-27T06:53:12Z</time>
      </trkpt>
      <trkpt lat="41.385640" lon="1.983355">
        <ele>75.065</ele>
        <time>2013-10-27T06:53:13Z</time>
      </trkpt>
      <trkpt lat="41.385630" lon="1.983337">
        <ele>75.421</ele>
        <time>2013-10-27T06:53:14Z</time>
      </trkpt>
      <trkpt lat="41.385620" lon="1.983320">
        <ele>75.808</ele>
        <time>2013-10-27T06:53:15Z</time>
      </trkpt>
      <trkpt lat="41.385608" lon="1.983302">
        <ele>75.890</ele>
        <time>2013-10-27T06:53:16Z</time>
      </trkpt>
      <trkpt lat="41.385588" lon="1.983260">
        <ele>76.243</ele>
        <time>2013-10-27T06:53:19Z</time>
      </trkpt>
      <trkpt lat="41.385585" lon="1.983242">
        <ele>76.835</ele>
        <time>2013-10-27T06:53:20Z</time>
      </trkpt>
      <trkpt lat="41.385585" lon="1.983220">
        <ele>77.231</ele>
        <time>2013-10-27T06:53:21Z</time>
      </trkpt>
      <trkpt lat="41.385582" lon="1.983202">
        <ele>77.683</ele>
        <time>2013-10-27T06:53:22Z</time>
      </trkpt>
      <trkpt lat="41.385580" lon="1.983185">
        <ele>78.064</ele>
        <time>2013-10-27T06:53:23Z</time>
      </trkpt>
      <trkpt lat="41.385562" lon="1.983128">
        <ele>78.490</ele>
        <time>2013-10-27T06:53:26Z</time>
      </trkpt>
      <trkpt lat="41.385560" lon="1.983110">
        <ele>78.874</ele>
        <time>2013-10-27T06:53:27Z</time>
      </trkpt>
      <trkpt lat="41.385555" lon="1.983087">
        <ele>79.622</ele>
        <time>2013-10-27T06:53:28Z</time>
      </trkpt>
      <trkpt lat="41.385555" lon="1.983063">
        <ele>80.262</ele>
        <time>2013-10-27T06:53:29Z</time>
      </trkpt>
      <trkpt lat="41.385547" lon="1.983023">
        <ele>80.608</ele>
        <time>2013-10-27T06:53:31Z</time>
      </trkpt>
      <trkpt lat="41.385542" lon="1.983003">
        <ele>81.008</ele>
        <time>2013-10-27T06:53:32Z</time>
      </trkpt>
      <trkpt lat="41.385537" lon="1.982985">
        <ele>81.453</ele>
        <time>2013-10-27T06:53:33Z</time>
      </trkpt>
      <trkpt lat="41.385530" lon="1.982972">
        <ele>81.856</ele>
        <time>2013-10-27T06:53:34Z</time>
      </trkpt>
      <trkpt lat="41.385527" lon="1.982958">
        <ele>82.258</ele>
        <time>2013-10-27T06:53:35Z</time>
      </trkpt>
      <trkpt lat="41.385510" lon="1.982900">
        <ele>82.674</ele>
        <time>2013-10-27T06:53:38Z</time>
      </trkpt>
      <trkpt lat="41.385505" lon="1.982882">
        <ele>83.226</ele>
        <time>2013-10-27T06:53:39Z</time>
      </trkpt>
      <trkpt lat="41.385498" lon="1.982857">
        <ele>83.637</ele>
        <time>2013-10-27T06:53:40Z</time>
      </trkpt>
      <trkpt lat="41.385490" lon="1.982837">
        <ele>84.233</ele>
        <time>2013-10-27T06:53:41Z</time>
      </trkpt>
      <trkpt lat="41.385485" lon="1.982817">
        <ele>84.657</ele>
        <time>2013-10-27T06:53:42Z</time>
      </trkpt>
      <trkpt lat="41.385480" lon="1.982738">
        <ele>85.093</ele>
        <time>2013-10-27T06:53:45Z</time>
      </trkpt>
      <trkpt lat="41.385475" lon="1.982722">
        <ele>85.465</ele>
        <time>2013-10-27T06:53:46Z</time>
      </trkpt>
      <trkpt lat="41.385473" lon="1.982702">
        <ele>85.821</ele>
        <time>2013-10-27T06:53:47Z</time>
      </trkpt>
      <trkpt lat="41.385475" lon="1.982678">
        <ele>86.208</ele>
        <time>2013-10-27T06:53:48Z</time>
      </trkpt>
      <trkpt lat="41.385475" lon="1.982658">
        <ele>86.840</ele>
        <time>2013-10-27T06:53:49Z</time>
      </trkpt>
      <trkpt lat="41.385475" lon="1.982635">
        <ele>86.823</ele>
        <time>2013-10-27T06:53:50Z</time>
      </trkpt>
      <trkpt lat="41.385472" lon="1.982597">
        <ele>87.295</ele>
        <time>2013-10-27T06:53:52Z</time>
      </trkpt>
      <trkpt lat="41.385467" lon="1.982580">
        <ele>88.021</ele>
        <time>2013-10-27T06:53:53Z</time>
      </trkpt>
      <trkpt lat="41.385462" lon="1.982563">
        <ele>88.453</ele>
        <time>2013-10-27T06:53:54Z</time>
      </trkpt>
      <trkpt lat="41.385458" lon="1.982542">
        <ele>89.024</ele>
        <time>2013-10-27T06:53:55Z</time>
      </trkpt>
      <trkpt lat="41.385455" lon="1.982522">
        <ele>89.080</ele>
        <time>2013-10-27T06:53:56Z</time>
      </trkpt>
      <trkpt lat="41.385435" lon="1.982487">
        <ele>89.454</ele>
        <time>2013-10-27T06:53:59Z</time>
      </trkpt>
      <trkpt lat="41.385428" lon="1.982465">
        <ele>89.884</ele>
        <time>2013-10-27T06:54:00Z</time>
      </trkpt>
      <trkpt lat="41.385422" lon="1.982445">
        <ele>90.207</ele>
        <time>2013-10-27T06:54:01Z</time>
      </trkpt>
      <trkpt lat="41.385418" lon="1.982428">
        <ele>90.617</ele>
        <time>2013-10-27T06:54:02Z</time>
      </trkpt>
      <trkpt lat="41.385418" lon="1.982410">
        <ele>91.008</ele>
        <time>2013-10-27T06:54:03Z</time>
      </trkpt>
      <trkpt lat="41.385398" lon="1.982365">
        <ele>91.029</ele>
        <time>2013-10-27T06:54:06Z</time>
      </trkpt>
      <trkpt lat="41.385388" lon="1.982333">
        <ele>91.072</ele>
        <time>2013-10-27T06:54:08Z</time>
      </trkpt>
      <trkpt lat="41.385365" lon="1.982283">
        <ele>91.444</ele>
        <time>2013-10-27T06:54:11Z</time>
      </trkpt>
      <trkpt lat="41.385355" lon="1.982268">
        <ele>91.860</ele>
        <time>2013-10-27T06:54:12Z</time>
      </trkpt>
      <trkpt lat="41.385342" lon="1.982253">
        <ele>92.232</ele>
        <time>2013-10-27T06:54:13Z</time>
      </trkpt>
      <trkpt lat="41.385332" lon="1.982235">
        <ele>92.693</ele>
        <time>2013-10-27T06:54:14Z</time>
      </trkpt>
      <trkpt lat="41.385325" lon="1.982217">
        <ele>93.049</ele>
        <time>2013-10-27T06:54:15Z</time>
      </trkpt>
      <trkpt lat="41.385278" lon="1.982138">
        <ele>93.023</ele>
        <time>2013-10-27T06:54:20Z</time>
      </trkpt>
      <trkpt lat="41.385235" lon="1.982013">
        <ele>93.053</ele>
        <time>2013-10-27T06:54:26Z</time>
      </trkpt>
      <trkpt lat="41.385185" lon="1.981882">
        <ele>93.004</ele>
        <time>2013-10-27T06:54:32Z</time>
      </trkpt>
      <trkpt lat="41.385163" lon="1.981818">
        <ele>93.014</ele>
        <time>2013-10-27T06:54:35Z</time>
      </trkpt>
      <trkpt lat="41.385158" lon="1.981740">
        <ele>93.008</ele>
        <time>2013-10-27T06:54:38Z</time>
      </trkpt>
      <trkpt lat="41.385105" lon="1.981553">
        <ele>93.036</ele>
        <time>2013-10-27T06:54:44Z</time>
      </trkpt>
      <trkpt lat="41.385075" lon="1.981430">
        <ele>93.079</ele>
        <time>2013-10-27T06:54:48Z</time>
      </trkpt>
      <trkpt lat="41.385010" lon="1.981295">
        <ele>93.011</ele>
        <time>2013-10-27T06:54:52Z</time>
      </trkpt>
      <trkpt lat="41.384978" lon="1.981195">
        <ele>93.017</ele>
        <time>2013-10-27T06:54:55Z</time>
      </trkpt>
      <trkpt lat="41.384960" lon="1.981127">
        <ele>93.029</ele>
        <time>2013-10-27T06:54:57Z</time>
      </trkpt>
      <trkpt lat="41.384950" lon="1.981077">
        <ele>93.080</ele>
        <time>2013-10-27T06:54:59Z</time>
      </trkpt>
      <trkpt lat="41.384938" lon="1.981047">
        <ele>93.096</ele>
        <time>2013-10-27T06:55:01Z</time>
      </trkpt>
      <trkpt lat="41.384923" lon="1.980995">
        <ele>93.070</ele>
        <time>2013-10-27T06:55:05Z</time>
      </trkpt>
      <trkpt lat="41.384922" lon="1.980992">
        <ele>93.088</ele>
        <time>2013-10-27T06:55:06Z</time>
      </trkpt>
      <trkpt lat="41.384893" lon="1.980942">
        <ele>93.024</ele>
        <time>2013-10-27T06:58:35Z</time>
      </trkpt>
      <trkpt lat="41.384887" lon="1.980913">
        <ele>93.026</ele>
        <time>2013-10-27T06:58:36Z</time>
      </trkpt>
      <trkpt lat="41.384885" lon="1.980885">
        <ele>93.008</ele>
        <time>2013-10-27T06:58:37Z</time>
      </trkpt>
      <trkpt lat="41.384883" lon="1.980815">
        <ele>93.049</ele>
        <time>2013-10-27T06:58:39Z</time>
      </trkpt>
      <trkpt lat="41.384895" lon="1.980707">
        <ele>93.042</ele>
        <time>2013-10-27T06:58:41Z</time>
      </trkpt>
      <trkpt lat="41.384962" lon="1.980563">
        <ele>93.084</ele>
        <time>2013-10-27T06:58:45Z</time>
      </trkpt>
      <trkpt lat="41.385018" lon="1.980492">
        <ele>93.040</ele>
        <time>2013-10-27T06:58:48Z</time>
      </trkpt>
      <trkpt lat="41.385053" lon="1.980455">
        <ele>93.092</ele>
        <time>2013-10-27T06:58:50Z</time>
      </trkpt>
      <trkpt lat="41.385083" lon="1.980422">
        <ele>93.043</ele>
        <time>2013-10-27T06:58:52Z</time>
      </trkpt>
      <trkpt lat="41.385115" lon="1.980398">
        <ele>93.059</ele>
        <time>2013-10-27T06:58:54Z</time>
      </trkpt>
      <trkpt lat="41.385150" lon="1.980365">
        <ele>93.023</ele>
        <time>2013-10-27T06:58:56Z</time>
      </trkpt>
      <trkpt lat="41.385210" lon="1.980305">
        <ele>93.667</ele>
        <time>2013-10-27T06:58:59Z</time>
      </trkpt>
      <trkpt lat="41.385227" lon="1.980283">
        <ele>94.081</ele>
        <time>2013-10-27T06:59:00Z</time>
      </trkpt>
      <trkpt lat="41.385247" lon="1.980265">
        <ele>94.419</ele>
        <time>2013-10-27T06:59:01Z</time>
      </trkpt>
      <trkpt lat="41.385263" lon="1.980247">
        <ele>94.808</ele>
        <time>2013-10-27T06:59:02Z</time>
      </trkpt>
      <trkpt lat="41.385277" lon="1.980228">
        <ele>95.417</ele>
        <time>2013-10-27T06:59:03Z</time>
      </trkpt>
      <trkpt lat="41.385318" lon="1.980172">
        <ele>95.480</ele>
        <time>2013-10-27T06:59:06Z</time>
      </trkpt>
      <trkpt lat="41.385355" lon="1.980130">
        <ele>95.872</ele>
        <time>2013-10-27T06:59:08Z</time>
      </trkpt>
      <trkpt lat="41.385372" lon="1.980108">
        <ele>96.268</ele>
        <time>2013-10-27T06:59:09Z</time>
      </trkpt>
      <trkpt lat="41.385387" lon="1.980087">
        <ele>96.610</ele>
        <time>2013-10-27T06:59:10Z</time>
      </trkpt>
      <trkpt lat="41.385398" lon="1.980070">
        <ele>97.291</ele>
        <time>2013-10-27T06:59:11Z</time>
      </trkpt>
      <trkpt lat="41.385408" lon="1.980047">
        <ele>97.637</ele>
        <time>2013-10-27T06:59:12Z</time>
      </trkpt>
      <trkpt lat="41.385417" lon="1.980027">
        <ele>97.661</ele>
        <time>2013-10-27T06:59:13Z</time>
      </trkpt>
      <trkpt lat="41.385442" lon="1.979958">
        <ele>97.617</ele>
        <time>2013-10-27T06:59:16Z</time>
      </trkpt>
      <trkpt lat="41.385448" lon="1.979933">
        <ele>97.687</ele>
        <time>2013-10-27T06:59:17Z</time>
      </trkpt>
      <trkpt lat="41.385452" lon="1.979890">
        <ele>98.015</ele>
        <time>2013-10-27T06:59:19Z</time>
      </trkpt>
      <trkpt lat="41.385448" lon="1.979872">
        <ele>98.408</ele>
        <time>2013-10-27T06:59:20Z</time>
      </trkpt>
      <trkpt lat="41.385443" lon="1.979853">
        <ele>98.872</ele>
        <time>2013-10-27T06:59:21Z</time>
      </trkpt>
      <trkpt lat="41.385433" lon="1.979843">
        <ele>99.295</ele>
        <time>2013-10-27T06:59:22Z</time>
      </trkpt>
      <trkpt lat="41.385420" lon="1.979835">
        <ele>99.677</ele>
        <time>2013-10-27T06:59:23Z</time>
      </trkpt>
      <trkpt lat="41.385395" lon="1.979818">
        <ele>99.673</ele>
        <time>2013-10-27T06:59:25Z</time>
      </trkpt>
      <trkpt lat="41.385348" lon="1.979808">
        <ele>99.685</ele>
        <time>2013-10-27T06:59:28Z</time>
      </trkpt>
      <trkpt lat="41.385315" lon="1.979802">
        <ele>100.216</ele>
        <time>2013-10-27T06:59:30Z</time>
      </trkpt>
      <trkpt lat="41.385300" lon="1.979800">
        <ele>100.672</ele>
        <time>2013-10-27T06:59:31Z</time>
      </trkpt>
      <trkpt lat="41.385285" lon="1.979798">
        <ele>101.016</ele>
        <time>2013-10-27T06:59:32Z</time>
      </trkpt>
      <trkpt lat="41.385267" lon="1.979798">
        <ele>101.635</ele>
        <time>2013-10-27T06:59:33Z</time>
      </trkpt>
      <trkpt lat="41.385250" lon="1.979803">
        <ele>102.086</ele>
        <time>2013-10-27T06:59:34Z</time>
      </trkpt>
      <trkpt lat="41.385202" lon="1.979803">
        <ele>102.014</ele>
        <time>2013-10-27T06:59:37Z</time>
      </trkpt>
      <trkpt lat="41.385188" lon="1.979803">
        <ele>102.408</ele>
        <time>2013-10-27T06:59:38Z</time>
      </trkpt>
      <trkpt lat="41.385170" lon="1.979807">
        <ele>102.874</ele>
        <time>2013-10-27T06:59:39Z</time>
      </trkpt>
      <trkpt lat="41.385153" lon="1.979817">
        <ele>103.267</ele>
        <time>2013-10-27T06:59:40Z</time>
      </trkpt>
      <trkpt lat="41.385137" lon="1.979823">
        <ele>104.079</ele>
        <time>2013-10-27T06:59:41Z</time>
      </trkpt>
      <trkpt lat="41.385105" lon="1.979845">
        <ele>104.095</ele>
        <time>2013-10-27T06:59:43Z</time>
      </trkpt>
      <trkpt lat="41.385058" lon="1.979877">
        <ele>104.467</ele>
        <time>2013-10-27T06:59:46Z</time>
      </trkpt>
      <trkpt lat="41.385040" lon="1.979890">
        <ele>104.878</ele>
        <time>2013-10-27T06:59:47Z</time>
      </trkpt>
      <trkpt lat="41.385027" lon="1.979893">
        <ele>105.234</ele>
        <time>2013-10-27T06:59:48Z</time>
      </trkpt>
      <trkpt lat="41.385013" lon="1.979902">
        <ele>105.638</ele>
        <time>2013-10-27T06:59:49Z</time>
      </trkpt>
      <trkpt lat="41.385002" lon="1.979915">
        <ele>106.074</ele>
        <time>2013-10-27T06:59:50Z</time>
      </trkpt>
      <trkpt lat="41.384932" lon="1.979993">
        <ele>106.456</ele>
        <time>2013-10-27T06:59:55Z</time>
      </trkpt>
      <trkpt lat="41.384915" lon="1.980010">
        <ele>106.821</ele>
        <time>2013-10-27T06:59:56Z</time>
      </trkpt>
      <trkpt lat="41.384900" lon="1.980025">
        <ele>107.208</ele>
        <time>2013-10-27T06:59:57Z</time>
      </trkpt>
      <trkpt lat="41.384888" lon="1.980035">
        <ele>107.668</ele>
        <time>2013-10-27T06:59:58Z</time>
      </trkpt>
      <trkpt lat="41.384872" lon="1.980042">
        <ele>108.051</ele>
        <time>2013-10-27T06:59:59Z</time>
      </trkpt>
      <trkpt lat="41.384847" lon="1.980063">
        <ele>108.093</ele>
        <time>2013-10-27T07:00:01Z</time>
      </trkpt>
      <trkpt lat="41.384792" lon="1.980110">
        <ele>108.419</ele>
        <time>2013-10-27T07:00:05Z</time>
      </trkpt>
      <trkpt lat="41.384775" lon="1.980122">
        <ele>109.051</ele>
        <time>2013-10-27T07:00:06Z</time>
      </trkpt>
      <trkpt lat="41.384760" lon="1.980133">
        <ele>109.482</ele>
        <time>2013-10-27T07:00:07Z</time>
      </trkpt>
      <trkpt lat="41.384745" lon="1.980145">
        <ele>109.868</ele>
        <time>2013-10-27T07:00:08Z</time>
      </trkpt>
      <trkpt lat="41.384730" lon="1.980148">
        <ele>110.262</ele>
        <time>2013-10-27T07:00:09Z</time>
      </trkpt>
      <trkpt lat="41.384658" lon="1.980182">
        <ele>110.287</ele>
        <time>2013-10-27T07:00:13Z</time>
      </trkpt>
      <trkpt lat="41.384602" lon="1.980230">
        <ele>110.642</ele>
        <time>2013-10-27T07:00:17Z</time>
      </trkpt>
      <trkpt lat="41.384587" lon="1.980240">
        <ele>111.026</ele>
        <time>2013-10-27T07:00:18Z</time>
      </trkpt>
      <trkpt lat="41.384570" lon="1.980250">
        <ele>111.408</ele>
        <time>2013-10-27T07:00:19Z</time>
      </trkpt>
      <trkpt lat="41.384560" lon="1.980262">
        <ele>112.039</ele>
        <time>2013-10-27T07:00:20Z</time>
      </trkpt>
      <trkpt lat="41.384548" lon="1.980273">
        <ele>112.432</ele>
        <time>2013-10-27T07:00:21Z</time>
      </trkpt>
      <trkpt lat="41.384500" lon="1.980320">
        <ele>112.484</ele>
        <time>2013-10-27T07:00:25Z</time>
      </trkpt>
      <trkpt lat="41.384463" lon="1.980360">
        <ele>112.810</ele>
        <time>2013-10-27T07:00:28Z</time>
      </trkpt>
      <trkpt lat="41.384452" lon="1.980373">
        <ele>113.292</ele>
        <time>2013-10-27T07:00:29Z</time>
      </trkpt>
      <trkpt lat="41.384438" lon="1.980383">
        <ele>114.053</ele>
        <time>2013-10-27T07:00:30Z</time>
      </trkpt>
      <trkpt lat="41.384425" lon="1.980397">
        <ele>114.439</ele>
        <time>2013-10-27T07:00:31Z</time>
      </trkpt>
      <trkpt lat="41.384367" lon="1.980453">
        <ele>114.863</ele>
        <time>2013-10-27T07:00:36Z</time>
      </trkpt>
      <trkpt lat="41.384352" lon="1.980468">
        <ele>115.214</ele>
        <time>2013-10-27T07:00:37Z</time>
      </trkpt>
      <trkpt lat="41.384338" lon="1.980483">
        <ele>115.654</ele>
        <time>2013-10-27T07:00:38Z</time>
      </trkpt>
      <trkpt lat="41.384328" lon="1.980495">
        <ele>116.009</ele>
        <time>2013-10-27T07:00:39Z</time>
      </trkpt>
      <trkpt lat="41.384317" lon="1.980507">
        <ele>116.408</ele>
        <time>2013-10-27T07:00:40Z</time>
      </trkpt>
      <trkpt lat="41.384298" lon="1.980557">
        <ele>116.432</ele>
        <time>2013-10-27T07:00:43Z</time>
      </trkpt>
      <trkpt lat="41.384280" lon="1.980592">
        <ele>117.025</ele>
        <time>2013-10-27T07:00:45Z</time>
      </trkpt>
      <trkpt lat="41.384270" lon="1.980607">
        <ele>117.487</ele>
        <time>2013-10-27T07:00:46Z</time>
      </trkpt>
      <trkpt lat="41.384260" lon="1.980617">
        <ele>117.823</ele>
        <time>2013-10-27T07:00:47Z</time>
      </trkpt>
      <trkpt lat="41.384253" lon="1.980635">
        <ele>118.225</ele>
        <time>2013-10-27T07:00:48Z</time>
      </trkpt>
      <trkpt lat="41.384243" lon="1.980650">
        <ele>118.646</ele>
        <time>2013-10-27T07:00:49Z</time>
      </trkpt>
      <trkpt lat="41.384235" lon="1.980662">
        <ele>118.662</ele>
        <time>2013-10-27T07:00:50Z</time>
      </trkpt>
      <trkpt lat="41.384198" lon="1.980693">
        <ele>119.056</ele>
        <time>2013-10-27T07:00:54Z</time>
      </trkpt>
      <trkpt lat="41.384180" lon="1.980700">
        <ele>119.899</ele>
        <time>2013-10-27T07:00:55Z</time>
      </trkpt>
      <trkpt lat="41.384167" lon="1.980705">
        <ele>120.207</ele>
        <time>2013-10-27T07:00:56Z</time>
      </trkpt>
      <trkpt lat="41.384152" lon="1.980718">
        <ele>120.627</ele>
        <time>2013-10-27T07:00:57Z</time>
      </trkpt>
      <trkpt lat="41.384097" lon="1.980787">
        <ele>121.008</ele>
        <time>2013-10-27T07:01:01Z</time>
      </trkpt>
      <trkpt lat="41.384090" lon="1.980802">
        <ele>121.610</ele>
        <time>2013-10-27T07:01:02Z</time>
      </trkpt>
      <trkpt lat="41.384082" lon="1.980818">
        <ele>122.043</ele>
        <time>2013-10-27T07:01:03Z</time>
      </trkpt>
      <trkpt lat="41.384073" lon="1.980830">
        <ele>122.445</ele>
        <time>2013-10-27T07:01:04Z</time>
      </trkpt>
      <trkpt lat="41.384068" lon="1.980843">
        <ele>122.861</ele>
        <time>2013-10-27T07:01:05Z</time>
      </trkpt>
      <trkpt lat="41.384043" lon="1.980865">
        <ele>122.883</ele>
        <time>2013-10-27T07:01:07Z</time>
      </trkpt>
      <trkpt lat="41.383997" lon="1.980870">
        <ele>122.894</ele>
        <time>2013-10-27T07:01:11Z</time>
      </trkpt>
      <trkpt lat="41.383990" lon="1.980857">
        <ele>122.840</ele>
        <time>2013-10-27T07:01:12Z</time>
      </trkpt>
      <trkpt lat="41.383968" lon="1.980837">
        <ele>122.874</ele>
        <time>2013-10-27T07:01:14Z</time>
      </trkpt>
      <trkpt lat="41.383957" lon="1.980823">
        <ele>123.241</ele>
        <time>2013-10-27T07:01:15Z</time>
      </trkpt>
      <trkpt lat="41.383947" lon="1.980812">
        <ele>123.681</ele>
        <time>2013-10-27T07:01:16Z</time>
      </trkpt>
      <trkpt lat="41.383942" lon="1.980795">
        <ele>124.009</ele>
        <time>2013-10-27T07:01:17Z</time>
      </trkpt>
      <trkpt lat="41.383940" lon="1.980775">
        <ele>124.408</ele>
        <time>2013-10-27T07:01:18Z</time>
      </trkpt>
      <trkpt lat="41.383942" lon="1.980755">
        <ele>124.855</ele>
        <time>2013-10-27T07:01:19Z</time>
      </trkpt>
      <trkpt lat="41.383933" lon="1.980670">
        <ele>125.458</ele>
        <time>2013-10-27T07:01:24Z</time>
      </trkpt>
      <trkpt lat="41.383933" lon="1.980650">
        <ele>125.870</ele>
        <time>2013-10-27T07:01:25Z</time>
      </trkpt>
      <trkpt lat="41.383937" lon="1.980630">
        <ele>126.216</ele>
        <time>2013-10-27T07:01:26Z</time>
      </trkpt>
      <trkpt lat="41.383940" lon="1.980613">
        <ele>126.618</ele>
        <time>2013-10-27T07:01:27Z</time>
      </trkpt>
      <trkpt lat="41.383943" lon="1.980597">
        <ele>127.039</ele>
        <time>2013-10-27T07:01:28Z</time>
      </trkpt>
      <trkpt lat="41.383942" lon="1.980545">
        <ele>127.095</ele>
        <time>2013-10-27T07:01:31Z</time>
      </trkpt>
      <trkpt lat="41.383953" lon="1.980473">
        <ele>127.639</ele>
        <time>2013-10-27T07:01:35Z</time>
      </trkpt>
      <trkpt lat="41.383957" lon="1.980453">
        <ele>128.036</ele>
        <time>2013-10-27T07:01:36Z</time>
      </trkpt>
      <trkpt lat="41.383960" lon="1.980433">
        <ele>128.417</ele>
        <time>2013-10-27T07:01:37Z</time>
      </trkpt>
      <trkpt lat="41.383965" lon="1.980415">
        <ele>128.818</ele>
        <time>2013-10-27T07:01:38Z</time>
      </trkpt>
      <trkpt lat="41.383968" lon="1.980397">
        <ele>129.208</ele>
        <time>2013-10-27T07:01:39Z</time>
      </trkpt>
      <trkpt lat="41.383972" lon="1.980377">
        <ele>129.274</ele>
        <time>2013-10-27T07:01:40Z</time>
      </trkpt>
      <trkpt lat="41.383993" lon="1.980288">
        <ele>129.617</ele>
        <time>2013-10-27T07:01:45Z</time>
      </trkpt>
      <trkpt lat="41.383995" lon="1.980270">
        <ele>130.219</ele>
        <time>2013-10-27T07:01:46Z</time>
      </trkpt>
      <trkpt lat="41.384000" lon="1.980253">
        <ele>130.625</ele>
        <time>2013-10-27T07:01:47Z</time>
      </trkpt>
      <trkpt lat="41.384005" lon="1.980238">
        <ele>131.017</ele>
        <time>2013-10-27T07:01:48Z</time>
      </trkpt>
      <trkpt lat="41.384010" lon="1.980220">
        <ele>131.418</ele>
        <time>2013-10-27T07:01:49Z</time>
      </trkpt>
      <trkpt lat="41.384020" lon="1.980115">
        <ele>131.454</ele>
        <time>2013-10-27T07:01:54Z</time>
      </trkpt>
      <trkpt lat="41.384028" lon="1.980078">
        <ele>131.848</ele>
        <time>2013-10-27T07:01:56Z</time>
      </trkpt>
      <trkpt lat="41.384033" lon="1.980060">
        <ele>132.252</ele>
        <time>2013-10-27T07:01:57Z</time>
      </trkpt>
      <trkpt lat="41.384037" lon="1.980038">
        <ele>132.653</ele>
        <time>2013-10-27T07:01:58Z</time>
      </trkpt>
      <trkpt lat="41.384045" lon="1.980025">
        <ele>133.008</ele>
        <time>2013-10-27T07:01:59Z</time>
      </trkpt>
      <trkpt lat="41.384050" lon="1.980008">
        <ele>133.408</ele>
        <time>2013-10-27T07:02:00Z</time>
      </trkpt>
      <trkpt lat="41.384055" lon="1.979992">
        <ele>133.456</ele>
        <time>2013-10-27T07:02:01Z</time>
      </trkpt>
      <trkpt lat="41.384097" lon="1.979865">
        <ele>133.449</ele>
        <time>2013-10-27T07:02:07Z</time>
      </trkpt>
      <trkpt lat="41.384105" lon="1.979845">
        <ele>134.031</ele>
        <time>2013-10-27T07:02:08Z</time>
      </trkpt>
      <trkpt lat="41.384115" lon="1.979823">
        <ele>134.887</ele>
        <time>2013-10-27T07:02:09Z</time>
      </trkpt>
      <trkpt lat="41.384127" lon="1.979803">
        <ele>135.239</ele>
        <time>2013-10-27T07:02:10Z</time>
      </trkpt>
      <trkpt lat="41.384135" lon="1.979785">
        <ele>135.820</ele>
        <time>2013-10-27T07:02:11Z</time>
      </trkpt>
      <trkpt lat="41.384198" lon="1.979697">
        <ele>135.876</ele>
        <time>2013-10-27T07:02:15Z</time>
      </trkpt>
      <trkpt lat="41.384225" lon="1.979655">
        <ele>136.250</ele>
        <time>2013-10-27T07:02:17Z</time>
      </trkpt>
      <trkpt lat="41.384238" lon="1.979633">
        <ele>136.634</ele>
        <time>2013-10-27T07:02:18Z</time>
      </trkpt>
      <trkpt lat="41.384252" lon="1.979617">
        <ele>137.055</ele>
        <time>2013-10-27T07:02:19Z</time>
      </trkpt>
      <trkpt lat="41.384265" lon="1.979597">
        <ele>137.410</ele>
        <time>2013-10-27T07:02:20Z</time>
      </trkpt>
      <trkpt lat="41.384280" lon="1.979578">
        <ele>137.808</ele>
        <time>2013-10-27T07:02:21Z</time>
      </trkpt>
      <trkpt lat="41.384352" lon="1.979448">
        <ele>137.824</ele>
        <time>2013-10-27T07:02:27Z</time>
      </trkpt>
      <trkpt lat="41.384362" lon="1.979428">
        <ele>138.217</ele>
        <time>2013-10-27T07:02:28Z</time>
      </trkpt>
      <trkpt lat="41.384373" lon="1.979410">
        <ele>138.629</ele>
        <time>2013-10-27T07:02:29Z</time>
      </trkpt>
      <trkpt lat="41.384385" lon="1.979390">
        <ele>139.075</ele>
        <time>2013-10-27T07:02:30Z</time>
      </trkpt>
      <trkpt lat="41.384398" lon="1.979367">
        <ele>139.417</ele>
        <time>2013-10-27T07:02:31Z</time>
      </trkpt>
      <trkpt lat="41.384408" lon="1.979348">
        <ele>140.088</ele>
        <time>2013-10-27T07:02:32Z</time>
      </trkpt>
      <trkpt lat="41.384448" lon="1.979282">
        <ele>140.074</ele>
        <time>2013-10-27T07:02:35Z</time>
      </trkpt>
      <trkpt lat="41.384505" lon="1.979202">
        <ele>140.498</ele>
        <time>2013-10-27T07:02:39Z</time>
      </trkpt>
      <trkpt lat="41.384518" lon="1.979180">
        <ele>140.819</ele>
        <time>2013-10-27T07:02:40Z</time>
      </trkpt>
      <trkpt lat="41.384533" lon="1.979162">
        <ele>141.209</ele>
        <time>2013-10-27T07:02:41Z</time>
      </trkpt>
      <trkpt lat="41.384552" lon="1.979147">
        <ele>141.619</ele>
        <time>2013-10-27T07:02:42Z</time>
      </trkpt>
      <trkpt lat="41.384572" lon="1.979130">
        <ele>142.008</ele>
        <time>2013-10-27T07:02:43Z</time>
      </trkpt>
      <trkpt lat="41.384740" lon="1.979020">
        <ele>142.022</ele>
        <time>2013-10-27T07:02:50Z</time>
      </trkpt>
      <trkpt lat="41.384803" lon="1.978970">
        <ele>142.465</ele>
        <time>2013-10-27T07:02:53Z</time>
      </trkpt>
      <trkpt lat="41.384827" lon="1.978952">
        <ele>142.847</ele>
        <time>2013-10-27T07:02:54Z</time>
      </trkpt>
      <trkpt lat="41.384850" lon="1.978935">
        <ele>143.283</ele>
        <time>2013-10-27T07:02:55Z</time>
      </trkpt>
      <trkpt lat="41.384875" lon="1.978918">
        <ele>143.645</ele>
        <time>2013-10-27T07:02:56Z</time>
      </trkpt>
      <trkpt lat="41.384898" lon="1.978905">
        <ele>144.096</ele>
        <time>2013-10-27T07:02:57Z</time>
      </trkpt>
      <trkpt lat="41.385032" lon="1.978817">
        <ele>144.012</ele>
        <time>2013-10-27T07:03:03Z</time>
      </trkpt>
      <trkpt lat="41.385070" lon="1.978765">
        <ele>144.476</ele>
        <time>2013-10-27T07:03:05Z</time>
      </trkpt>
      <trkpt lat="41.385087" lon="1.978742">
        <ele>144.886</ele>
        <time>2013-10-27T07:03:06Z</time>
      </trkpt>
      <trkpt lat="41.385107" lon="1.978723">
        <ele>145.260</ele>
        <time>2013-10-27T07:03:07Z</time>
      </trkpt>
      <trkpt lat="41.385125" lon="1.978705">
        <ele>145.626</ele>
        <time>2013-10-27T07:03:08Z</time>
      </trkpt>
      <trkpt lat="41.385147" lon="1.978687">
        <ele>146.008</ele>
        <time>2013-10-27T07:03:09Z</time>
      </trkpt>
      <trkpt lat="41.385292" lon="1.978568">
        <ele>146.049</ele>
        <time>2013-10-27T07:03:15Z</time>
      </trkpt>
      <trkpt lat="41.385315" lon="1.978545">
        <ele>146.432</ele>
        <time>2013-10-27T07:03:16Z</time>
      </trkpt>
      <trkpt lat="41.385335" lon="1.978517">
        <ele>147.024</ele>
        <time>2013-10-27T07:03:17Z</time>
      </trkpt>
      <trkpt lat="41.385355" lon="1.978490">
        <ele>147.490</ele>
        <time>2013-10-27T07:03:18Z</time>
      </trkpt>
      <trkpt lat="41.385370" lon="1.978462">
        <ele>147.862</ele>
        <time>2013-10-27T07:03:19Z</time>
      </trkpt>
      <trkpt lat="41.385388" lon="1.978428">
        <ele>148.243</ele>
        <time>2013-10-27T07:03:20Z</time>
      </trkpt>
      <trkpt lat="41.385417" lon="1.978362">
        <ele>148.219</ele>
        <time>2013-10-27T07:03:22Z</time>
      </trkpt>
      <trkpt lat="41.385428" lon="1.978262">
        <ele>148.683</ele>
        <time>2013-10-27T07:03:25Z</time>
      </trkpt>
      <trkpt lat="41.385427" lon="1.978228">
        <ele>149.055</ele>
        <time>2013-10-27T07:03:26Z</time>
      </trkpt>
      <trkpt lat="41.385422" lon="1.978195">
        <ele>149.607</ele>
        <time>2013-10-27T07:03:27Z</time>
      </trkpt>
      <trkpt lat="41.385415" lon="1.978160">
        <ele>150.017</ele>
        <time>2013-10-27T07:03:28Z</time>
      </trkpt>
      <trkpt lat="41.385413" lon="1.978127">
        <ele>150.408</ele>
        <time>2013-10-27T07:03:29Z</time>
      </trkpt>
      <trkpt lat="41.385380" lon="1.978012">
        <ele>150.466</ele>
        <time>2013-10-27T07:03:33Z</time>
      </trkpt>
      <trkpt lat="41.385300" lon="1.977927">
        <ele>151.089</ele>
        <time>2013-10-27T07:03:37Z</time>
      </trkpt>
      <trkpt lat="41.385277" lon="1.977913">
        <ele>151.451</ele>
        <time>2013-10-27T07:03:38Z</time>
      </trkpt>
      <trkpt lat="41.385262" lon="1.977905">
        <ele>151.867</ele>
        <time>2013-10-27T07:03:39Z</time>
      </trkpt>
      <trkpt lat="41.385240" lon="1.977897">
        <ele>152.249</ele>
        <time>2013-10-27T07:03:40Z</time>
      </trkpt>
      <trkpt lat="41.385218" lon="1.977890">
        <ele>152.870</ele>
        <time>2013-10-27T07:03:41Z</time>
      </trkpt>
      <trkpt lat="41.385183" lon="1.977875">
        <ele>152.826</ele>
        <time>2013-10-27T07:03:43Z</time>
      </trkpt>
      <trkpt lat="41.385035" lon="1.977832">
        <ele>152.870</ele>
        <time>2013-10-27T07:03:51Z</time>
      </trkpt>
      <trkpt lat="41.385013" lon="1.977825">
        <ele>153.226</ele>
        <time>2013-10-27T07:03:52Z</time>
      </trkpt>
      <trkpt lat="41.384993" lon="1.977817">
        <ele>153.647</ele>
        <time>2013-10-27T07:03:53Z</time>
      </trkpt>
      <trkpt lat="41.384977" lon="1.977803">
        <ele>154.011</ele>
        <time>2013-10-27T07:03:54Z</time>
      </trkpt>
      <trkpt lat="41.384962" lon="1.977793">
        <ele>154.408</ele>
        <time>2013-10-27T07:03:55Z</time>
      </trkpt>
      <trkpt lat="41.384945" lon="1.977785">
        <ele>154.863</ele>
        <time>2013-10-27T07:03:56Z</time>
      </trkpt>
      <trkpt lat="41.384913" lon="1.977777">
        <ele>154.886</ele>
        <time>2013-10-27T07:03:58Z</time>
      </trkpt>
      <trkpt lat="41.384810" lon="1.977700">
        <ele>154.888</ele>
        <time>2013-10-27T07:04:05Z</time>
      </trkpt>
      <trkpt lat="41.384735" lon="1.977590">
        <ele>154.864</ele>
        <time>2013-10-27T07:04:10Z</time>
      </trkpt>
      <trkpt lat="41.384723" lon="1.977567">
        <ele>154.876</ele>
        <time>2013-10-27T07:04:11Z</time>
      </trkpt>
      <trkpt lat="41.384663" lon="1.977483">
        <ele>154.827</ele>
        <time>2013-10-27T07:04:15Z</time>
      </trkpt>
      <trkpt lat="41.384615" lon="1.977410">
        <ele>155.453</ele>
        <time>2013-10-27T07:04:18Z</time>
      </trkpt>
      <trkpt lat="41.384595" lon="1.977387">
        <ele>155.867</ele>
        <time>2013-10-27T07:04:19Z</time>
      </trkpt>
      <trkpt lat="41.384582" lon="1.977358">
        <ele>156.273</ele>
        <time>2013-10-27T07:04:20Z</time>
      </trkpt>
      <trkpt lat="41.384568" lon="1.977337">
        <ele>156.685</ele>
        <time>2013-10-27T07:04:21Z</time>
      </trkpt>
      <trkpt lat="41.384555" lon="1.977312">
        <ele>157.013</ele>
        <time>2013-10-27T07:04:22Z</time>
      </trkpt>
      <trkpt lat="41.384527" lon="1.977270">
        <ele>157.008</ele>
        <time>2013-10-27T07:04:24Z</time>
      </trkpt>
      <trkpt lat="41.384453" lon="1.977075">
        <ele>157.088</ele>
        <time>2013-10-27T07:04:32Z</time>
      </trkpt>
      <trkpt lat="41.384417" lon="1.977018">
        <ele>157.451</ele>
        <time>2013-10-27T07:04:35Z</time>
      </trkpt>
      <trkpt lat="41.384405" lon="1.977000">
        <ele>157.893</ele>
        <time>2013-10-27T07:04:36Z</time>
      </trkpt>
      <trkpt lat="41.384393" lon="1.976980">
        <ele>158.639</ele>
        <time>2013-10-27T07:04:37Z</time>
      </trkpt>
      <trkpt lat="41.384380" lon="1.976958">
        <ele>159.081</ele>
        <time>2013-10-27T07:04:38Z</time>
      </trkpt>
      <trkpt lat="41.384335" lon="1.976915">
        <ele>159.082</ele>
        <time>2013-10-27T07:04:41Z</time>
      </trkpt>
      <trkpt lat="41.384278" lon="1.976903">
        <ele>159.058</ele>
        <time>2013-10-27T07:04:44Z</time>
      </trkpt>
      <trkpt lat="41.384222" lon="1.976917">
        <ele>159.052</ele>
        <time>2013-10-27T07:04:47Z</time>
      </trkpt>
      <trkpt lat="41.384187" lon="1.976937">
        <ele>159.482</ele>
        <time>2013-10-27T07:04:49Z</time>
      </trkpt>
      <trkpt lat="41.384168" lon="1.976948">
        <ele>159.843</ele>
        <time>2013-10-27T07:04:50Z</time>
      </trkpt>
      <trkpt lat="41.384153" lon="1.976958">
        <ele>160.217</ele>
        <time>2013-10-27T07:04:51Z</time>
      </trkpt>
      <trkpt lat="41.384138" lon="1.976967">
        <ele>160.608</ele>
        <time>2013-10-27T07:04:52Z</time>
      </trkpt>
      <trkpt lat="41.384122" lon="1.976982">
        <ele>161.029</ele>
        <time>2013-10-27T07:04:53Z</time>
      </trkpt>
      <trkpt lat="41.384027" lon="1.977073">
        <ele>161.072</ele>
        <time>2013-10-27T07:04:59Z</time>
      </trkpt>
      <trkpt lat="41.383990" lon="1.977122">
        <ele>162.064</ele>
        <time>2013-10-27T07:05:02Z</time>
      </trkpt>
      <trkpt lat="41.383977" lon="1.977140">
        <ele>162.430</ele>
        <time>2013-10-27T07:05:03Z</time>
      </trkpt>
      <trkpt lat="41.383967" lon="1.977165">
        <ele>162.892</ele>
        <time>2013-10-27T07:05:04Z</time>
      </trkpt>
      <trkpt lat="41.383960" lon="1.977188">
        <ele>163.293</ele>
        <time>2013-10-27T07:05:05Z</time>
      </trkpt>
      <trkpt lat="41.383937" lon="1.977265">
        <ele>163.249</ele>
        <time>2013-10-27T07:05:08Z</time>
      </trkpt>
      <trkpt lat="41.383917" lon="1.977328">
        <ele>163.653</ele>
        <time>2013-10-27T07:05:11Z</time>
      </trkpt>
      <trkpt lat="41.383915" lon="1.977348">
        <ele>164.095</ele>
        <time>2013-10-27T07:05:12Z</time>
      </trkpt>
      <trkpt lat="41.383912" lon="1.977370">
        <ele>164.449</ele>
        <time>2013-10-27T07:05:13Z</time>
      </trkpt>
      <trkpt lat="41.383908" lon="1.977393">
        <ele>164.823</ele>
        <time>2013-10-27T07:05:14Z</time>
      </trkpt>
      <trkpt lat="41.383910" lon="1.977415">
        <ele>165.208</ele>
        <time>2013-10-27T07:05:15Z</time>
      </trkpt>
      <trkpt lat="41.383905" lon="1.977458">
        <ele>165.280</ele>
        <time>2013-10-27T07:05:17Z</time>
      </trkpt>
      <trkpt lat="41.383897" lon="1.977533">
        <ele>165.653</ele>
        <time>2013-10-27T07:05:20Z</time>
      </trkpt>
      <trkpt lat="41.383895" lon="1.977555">
        <ele>166.235</ele>
        <time>2013-10-27T07:05:21Z</time>
      </trkpt>
      <trkpt lat="41.383890" lon="1.977580">
        <ele>166.661</ele>
        <time>2013-10-27T07:05:22Z</time>
      </trkpt>
      <trkpt lat="41.383880" lon="1.977605">
        <ele>167.073</ele>
        <time>2013-10-27T07:05:23Z</time>
      </trkpt>
      <trkpt lat="41.383872" lon="1.977630">
        <ele>167.454</ele>
        <time>2013-10-27T07:05:24Z</time>
      </trkpt>
      <trkpt lat="41.383848" lon="1.977773">
        <ele>167.420</ele>
        <time>2013-10-27T07:05:30Z</time>
      </trkpt>
      <trkpt lat="41.383850" lon="1.977797">
        <ele>167.874</ele>
        <time>2013-10-27T07:05:31Z</time>
      </trkpt>
      <trkpt lat="41.383848" lon="1.977818">
        <ele>168.434</ele>
        <time>2013-10-27T07:05:32Z</time>
      </trkpt>
      <trkpt lat="41.383843" lon="1.977843">
        <ele>168.855</ele>
        <time>2013-10-27T07:05:33Z</time>
      </trkpt>
      <trkpt lat="41.383837" lon="1.977865">
        <ele>169.210</ele>
        <time>2013-10-27T07:05:34Z</time>
      </trkpt>
      <trkpt lat="41.383828" lon="1.977888">
        <ele>169.608</ele>
        <time>2013-10-27T07:05:35Z</time>
      </trkpt>
      <trkpt lat="41.383820" lon="1.977913">
        <ele>169.614</ele>
        <time>2013-10-27T07:05:36Z</time>
      </trkpt>
      <trkpt lat="41.383780" lon="1.978065">
        <ele>169.627</ele>
        <time>2013-10-27T07:05:42Z</time>
      </trkpt>
      <trkpt lat="41.383708" lon="1.978193">
        <ele>169.699</ele>
        <time>2013-10-27T07:05:48Z</time>
      </trkpt>
      <trkpt lat="41.383682" lon="1.978207">
        <ele>169.615</ele>
        <time>2013-10-27T07:05:50Z</time>
      </trkpt>
      <trkpt lat="41.383677" lon="1.978180">
        <ele>169.647</ele>
        <time>2013-10-27T07:05:52Z</time>
      </trkpt>
      <trkpt lat="41.383692" lon="1.978162">
        <ele>169.688</ele>
        <time>2013-10-27T07:05:54Z</time>
      </trkpt>
      <trkpt lat="41.383715" lon="1.978175">
        <ele>169.664</ele>
        <time>2013-10-27T07:05:56Z</time>
      </trkpt>
      <trkpt lat="41.383745" lon="1.978188">
        <ele>169.688</ele>
        <time>2013-10-27T07:05:58Z</time>
      </trkpt>
      <trkpt lat="41.383780" lon="1.978142">
        <ele>169.655</ele>
        <time>2013-10-27T07:06:01Z</time>
      </trkpt>
      <trkpt lat="41.383787" lon="1.978123">
        <ele>169.607</ele>
        <time>2013-10-27T07:06:02Z</time>
      </trkpt>
      <trkpt lat="41.383787" lon="1.978098">
        <ele>169.617</ele>
        <time>2013-10-27T07:06:05Z</time>
      </trkpt>
      <trkpt lat="41.383783" lon="1.978085">
        <ele>169.608</ele>
        <time>2013-10-27T07:06:06Z</time>
      </trkpt>
      <trkpt lat="41.383798" lon="1.977952">
        <ele>169.666</ele>
        <time>2013-10-27T07:06:12Z</time>
      </trkpt>
      <trkpt lat="41.383810" lon="1.977842">
        <ele>169.629</ele>
        <time>2013-10-27T07:06:17Z</time>
      </trkpt>
      <trkpt lat="41.383797" lon="1.977872">
        <ele>169.681</ele>
        <time>2013-10-27T07:07:49Z</time>
      </trkpt>
      <trkpt lat="41.383793" lon="1.977942">
        <ele>169.647</ele>
        <time>2013-10-27T07:07:53Z</time>
      </trkpt>
      <trkpt lat="41.383777" lon="1.978007">
        <ele>169.669</ele>
        <time>2013-10-27T07:07:55Z</time>
      </trkpt>
      <trkpt lat="41.383730" lon="1.978113">
        <ele>169.680</ele>
        <time>2013-10-27T07:07:58Z</time>
      </trkpt>
      <trkpt lat="41.383715" lon="1.978148">
        <ele>169.666</ele>
        <time>2013-10-27T07:07:59Z</time>
      </trkpt>
      <trkpt lat="41.383572" lon="1.978245">
        <ele>169.630</ele>
        <time>2013-10-27T07:08:03Z</time>
      </trkpt>
      <trkpt lat="41.383457" lon="1.978260">
        <ele>169.696</ele>
        <time>2013-10-27T07:08:06Z</time>
      </trkpt>
      <trkpt lat="41.383377" lon="1.978248">
        <ele>169.631</ele>
        <time>2013-10-27T07:08:08Z</time>
      </trkpt>
      <trkpt lat="41.383228" lon="1.978112">
        <ele>169.624</ele>
        <time>2013-10-27T07:08:12Z</time>
      </trkpt>
      <trkpt lat="41.383193" lon="1.978058">
        <ele>169.608</ele>
        <time>2013-10-27T07:08:13Z</time>
      </trkpt>
      <trkpt lat="41.383163" lon="1.978003">
        <ele>169.610</ele>
        <time>2013-10-27T07:08:14Z</time>
      </trkpt>
      <trkpt lat="41.383043" lon="1.977855">
        <ele>169.693</ele>
        <time>2013-10-27T07:08:17Z</time>
      </trkpt>
      <trkpt lat="41.382955" lon="1.977780">
        <ele>169.695</ele>
        <time>2013-10-27T07:08:19Z</time>
      </trkpt>
      <trkpt lat="41.382872" lon="1.977712">
        <ele>169.681</ele>
        <time>2013-10-27T07:08:21Z</time>
      </trkpt>
      <trkpt lat="41.382792" lon="1.977655">
        <ele>169.693</ele>
        <time>2013-10-27T07:08:23Z</time>
      </trkpt>
      <trkpt lat="41.382718" lon="1.977605">
        <ele>169.654</ele>
        <time>2013-10-27T07:08:25Z</time>
      </trkpt>
      <trkpt lat="41.382680" lon="1.977578">
        <ele>169.630</ele>
        <time>2013-10-27T07:08:26Z</time>
      </trkpt>
      <trkpt lat="41.382608" lon="1.977557">
        <ele>169.674</ele>
        <time>2013-10-27T07:08:28Z</time>
      </trkpt>
      <trkpt lat="41.382577" lon="1.977555">
        <ele>169.619</ele>
        <time>2013-10-27T07:08:29Z</time>
      </trkpt>
      <trkpt lat="41.382358" lon="1.977593">
        <ele>169.609</ele>
        <time>2013-10-27T07:08:36Z</time>
      </trkpt>
      <trkpt lat="41.382238" lon="1.977622">
        <ele>169.619</ele>
        <time>2013-10-27T07:08:40Z</time>
      </trkpt>
      <trkpt lat="41.382183" lon="1.977632">
        <ele>169.608</ele>
        <time>2013-10-27T07:08:42Z</time>
      </trkpt>
      <trkpt lat="41.382123" lon="1.977645">
        <ele>169.642</ele>
        <time>2013-10-27T07:08:44Z</time>
      </trkpt>
      <trkpt lat="41.382033" lon="1.977650">
        <ele>169.675</ele>
        <time>2013-10-27T07:08:47Z</time>
      </trkpt>
      <trkpt lat="41.381973" lon="1.977658">
        <ele>169.647</ele>
        <time>2013-10-27T07:08:49Z</time>
      </trkpt>
      <trkpt lat="41.381922" lon="1.977680">
        <ele>169.663</ele>
        <time>2013-10-27T07:08:51Z</time>
      </trkpt>
      <trkpt lat="41.381843" lon="1.977720">
        <ele>169.685</ele>
        <time>2013-10-27T07:08:54Z</time>
      </trkpt>
      <trkpt lat="41.381795" lon="1.977740">
        <ele>169.626</ele>
        <time>2013-10-27T07:08:56Z</time>
      </trkpt>
      <trkpt lat="41.381745" lon="1.977770">
        <ele>169.662</ele>
        <time>2013-10-27T07:08:58Z</time>
      </trkpt>
      <trkpt lat="41.381703" lon="1.977797">
        <ele>170.036</ele>
        <time>2013-10-27T07:09:00Z</time>
      </trkpt>
      <trkpt lat="41.381688" lon="1.977812">
        <ele>170.434</ele>
        <time>2013-10-27T07:09:01Z</time>
      </trkpt>
      <trkpt lat="41.381672" lon="1.977828">
        <ele>170.855</ele>
        <time>2013-10-27T07:09:02Z</time>
      </trkpt>
      <trkpt lat="41.381653" lon="1.977848">
        <ele>171.410</ele>
        <time>2013-10-27T07:09:03Z</time>
      </trkpt>
      <trkpt lat="41.381635" lon="1.977870">
        <ele>171.808</ele>
        <time>2013-10-27T07:09:04Z</time>
      </trkpt>
      <trkpt lat="41.381587" lon="1.977920">
        <ele>171.824</ele>
        <time>2013-10-27T07:09:07Z</time>
      </trkpt>
      <trkpt lat="41.381578" lon="1.977940">
        <ele>171.857</ele>
        <time>2013-10-27T07:09:08Z</time>
      </trkpt>
      <trkpt lat="41.381570" lon="1.977993">
        <ele>172.289</ele>
        <time>2013-10-27T07:09:10Z</time>
      </trkpt>
      <trkpt lat="41.381557" lon="1.978020">
        <ele>172.635</ele>
        <time>2013-10-27T07:09:11Z</time>
      </trkpt>
      <trkpt lat="41.381543" lon="1.978040">
        <ele>173.037</ele>
        <time>2013-10-27T07:09:12Z</time>
      </trkpt>
      <trkpt lat="41.381530" lon="1.978062">
        <ele>173.498</ele>
        <time>2013-10-27T07:09:13Z</time>
      </trkpt>
      <trkpt lat="41.381517" lon="1.978083">
        <ele>173.824</ele>
        <time>2013-10-27T07:09:14Z</time>
      </trkpt>
      <trkpt lat="41.381447" lon="1.978163">
        <ele>173.848</ele>
        <time>2013-10-27T07:09:19Z</time>
      </trkpt>
      <trkpt lat="41.381352" lon="1.978283">
        <ele>174.224</ele>
        <time>2013-10-27T07:09:25Z</time>
      </trkpt>
      <trkpt lat="41.381337" lon="1.978305">
        <ele>174.604</ele>
        <time>2013-10-27T07:09:26Z</time>
      </trkpt>
      <trkpt lat="41.381325" lon="1.978317">
        <ele>175.014</ele>
        <time>2013-10-27T07:09:27Z</time>
      </trkpt>
      <trkpt lat="41.381310" lon="1.978330">
        <ele>175.408</ele>
        <time>2013-10-27T07:09:28Z</time>
      </trkpt>
      <trkpt lat="41.381293" lon="1.978340">
        <ele>175.863</ele>
        <time>2013-10-27T07:09:29Z</time>
      </trkpt>
      <trkpt lat="41.381258" lon="1.978370">
        <ele>175.886</ele>
        <time>2013-10-27T07:09:32Z</time>
      </trkpt>
      <trkpt lat="41.381183" lon="1.978460">
        <ele>175.858</ele>
        <time>2013-10-27T07:09:37Z</time>
      </trkpt>
      <trkpt lat="41.381155" lon="1.978500">
        <ele>176.254</ele>
        <time>2013-10-27T07:09:39Z</time>
      </trkpt>
      <trkpt lat="41.381138" lon="1.978520">
        <ele>176.676</ele>
        <time>2013-10-27T07:09:40Z</time>
      </trkpt>
      <trkpt lat="41.381122" lon="1.978535">
        <ele>177.057</ele>
        <time>2013-10-27T07:09:41Z</time>
      </trkpt>
      <trkpt lat="41.381103" lon="1.978555">
        <ele>177.693</ele>
        <time>2013-10-27T07:09:42Z</time>
      </trkpt>
      <trkpt lat="41.381087" lon="1.978568">
        <ele>178.037</ele>
        <time>2013-10-27T07:09:43Z</time>
      </trkpt>
      <trkpt lat="41.381035" lon="1.978617">
        <ele>178.037</ele>
        <time>2013-10-27T07:09:47Z</time>
      </trkpt>
      <trkpt lat="41.381017" lon="1.978653">
        <ele>178.049</ele>
        <time>2013-10-27T07:09:49Z</time>
      </trkpt>
      <trkpt lat="41.380985" lon="1.978730">
        <ele>178.013</ele>
        <time>2013-10-27T07:09:52Z</time>
      </trkpt>
      <trkpt lat="41.380972" lon="1.978823">
        <ele>178.008</ele>
        <time>2013-10-27T07:09:56Z</time>
      </trkpt>
      <trkpt lat="41.380972" lon="1.978847">
        <ele>178.474</ele>
        <time>2013-10-27T07:09:57Z</time>
      </trkpt>
      <trkpt lat="41.380973" lon="1.978875">
        <ele>179.217</ele>
        <time>2013-10-27T07:09:58Z</time>
      </trkpt>
      <trkpt lat="41.380973" lon="1.978905">
        <ele>179.649</ele>
        <time>2013-10-27T07:09:59Z</time>
      </trkpt>
      <trkpt lat="41.380972" lon="1.978930">
        <ele>180.095</ele>
        <time>2013-10-27T07:10:00Z</time>
      </trkpt>
      <trkpt lat="41.380958" lon="1.979045">
        <ele>180.087</ele>
        <time>2013-10-27T07:10:04Z</time>
      </trkpt>
      <trkpt lat="41.380945" lon="1.979088">
        <ele>180.448</ele>
        <time>2013-10-27T07:10:06Z</time>
      </trkpt>
      <trkpt lat="41.380937" lon="1.979107">
        <ele>180.894</ele>
        <time>2013-10-27T07:10:07Z</time>
      </trkpt>
      <trkpt lat="41.380928" lon="1.979127">
        <ele>181.288</ele>
        <time>2013-10-27T07:10:08Z</time>
      </trkpt>
      <trkpt lat="41.380920" lon="1.979147">
        <ele>181.693</ele>
        <time>2013-10-27T07:10:09Z</time>
      </trkpt>
      <trkpt lat="41.380902" lon="1.979163">
        <ele>182.065</ele>
        <time>2013-10-27T07:10:10Z</time>
      </trkpt>
      <trkpt lat="41.380793" lon="1.979245">
        <ele>182.021</ele>
        <time>2013-10-27T07:10:17Z</time>
      </trkpt>
      <trkpt lat="41.380743" lon="1.979293">
        <ele>182.408</ele>
        <time>2013-10-27T07:10:20Z</time>
      </trkpt>
      <trkpt lat="41.380725" lon="1.979305">
        <ele>182.860</ele>
        <time>2013-10-27T07:10:21Z</time>
      </trkpt>
      <trkpt lat="41.380707" lon="1.979315">
        <ele>183.663</ele>
        <time>2013-10-27T07:10:22Z</time>
      </trkpt>
      <trkpt lat="41.380682" lon="1.979325">
        <ele>184.095</ele>
        <time>2013-10-27T07:10:23Z</time>
      </trkpt>
      <trkpt lat="41.380570" lon="1.979427">
        <ele>184.081</ele>
        <time>2013-10-27T07:10:29Z</time>
      </trkpt>
      <trkpt lat="41.380478" lon="1.979570">
        <ele>184.483</ele>
        <time>2013-10-27T07:10:35Z</time>
      </trkpt>
      <trkpt lat="41.380465" lon="1.979598">
        <ele>185.044</ele>
        <time>2013-10-27T07:10:36Z</time>
      </trkpt>
      <trkpt lat="41.380453" lon="1.979622">
        <ele>185.450</ele>
        <time>2013-10-27T07:10:37Z</time>
      </trkpt>
      <trkpt lat="41.380442" lon="1.979645">
        <ele>185.864</ele>
        <time>2013-10-27T07:10:38Z</time>
      </trkpt>
      <trkpt lat="41.380430" lon="1.979672">
        <ele>186.274</ele>
        <time>2013-10-27T07:10:39Z</time>
      </trkpt>
      <trkpt lat="41.380383" lon="1.979730">
        <ele>186.256</ele>
        <time>2013-10-27T07:10:42Z</time>
      </trkpt>
      <trkpt lat="41.380365" lon="1.979735">
        <ele>186.221</ele>
        <time>2013-10-27T07:10:43Z</time>
      </trkpt>
      <trkpt lat="41.380307" lon="1.979722">
        <ele>186.208</ele>
        <time>2013-10-27T07:10:46Z</time>
      </trkpt>
      <trkpt lat="41.380240" lon="1.979642">
        <ele>186.238</ele>
        <time>2013-10-27T07:10:51Z</time>
      </trkpt>
      <trkpt lat="41.380220" lon="1.979577">
        <ele>186.221</ele>
        <time>2013-10-27T07:10:56Z</time>
      </trkpt>
      <trkpt lat="41.380205" lon="1.979540">
        <ele>186.293</ele>
        <time>2013-10-27T07:10:58Z</time>
      </trkpt>
      <trkpt lat="41.380170" lon="1.979447">
        <ele>186.259</ele>
        <time>2013-10-27T07:11:01Z</time>
      </trkpt>
      <trkpt lat="41.380155" lon="1.979372">
        <ele>186.291</ele>
        <time>2013-10-27T07:11:03Z</time>
      </trkpt>
      <trkpt lat="41.380138" lon="1.979293">
        <ele>186.282</ele>
        <time>2013-10-27T07:11:05Z</time>
      </trkpt>
      <trkpt lat="41.380063" lon="1.979050">
        <ele>186.288</ele>
        <time>2013-10-27T07:11:11Z</time>
      </trkpt>
      <trkpt lat="41.380045" lon="1.979010">
        <ele>186.282</ele>
        <time>2013-10-27T07:11:12Z</time>
      </trkpt>
      <trkpt lat="41.380007" lon="1.978925">
        <ele>186.273</ele>
        <time>2013-10-27T07:11:14Z</time>
      </trkpt>
      <trkpt lat="41.379930" lon="1.978755">
        <ele>186.285</ele>
        <time>2013-10-27T07:11:18Z</time>
      </trkpt>
      <trkpt lat="41.379810" lon="1.978568">
        <ele>186.213</ele>
        <time>2013-10-27T07:11:23Z</time>
      </trkpt>
      <trkpt lat="41.379787" lon="1.978530">
        <ele>186.608</ele>
        <time>2013-10-27T07:11:24Z</time>
      </trkpt>
      <trkpt lat="41.379763" lon="1.978488">
        <ele>187.038</ele>
        <time>2013-10-27T07:11:25Z</time>
      </trkpt>
      <trkpt lat="41.379738" lon="1.978452">
        <ele>187.451</ele>
        <time>2013-10-27T07:11:26Z</time>
      </trkpt>
      <trkpt lat="41.379715" lon="1.978410">
        <ele>187.873</ele>
        <time>2013-10-27T07:11:27Z</time>
      </trkpt>
      <trkpt lat="41.379695" lon="1.978368">
        <ele>188.229</ele>
        <time>2013-10-27T07:11:28Z</time>
      </trkpt>
      <trkpt lat="41.379668" lon="1.978297">
        <ele>188.651</ele>
        <time>2013-10-27T07:11:30Z</time>
      </trkpt>
      <trkpt lat="41.379658" lon="1.978268">
        <ele>189.072</ele>
        <time>2013-10-27T07:11:31Z</time>
      </trkpt>
      <trkpt lat="41.379650" lon="1.978245">
        <ele>189.418</ele>
        <time>2013-10-27T07:11:32Z</time>
      </trkpt>
      <trkpt lat="41.379642" lon="1.978227">
        <ele>190.032</ele>
        <time>2013-10-27T07:11:33Z</time>
      </trkpt>
      <trkpt lat="41.379633" lon="1.978215">
        <ele>190.411</ele>
        <time>2013-10-27T07:11:34Z</time>
      </trkpt>
      <trkpt lat="41.379623" lon="1.978218">
        <ele>190.421</ele>
        <time>2013-10-27T07:11:35Z</time>
      </trkpt>
      <trkpt lat="41.379593" lon="1.978240">
        <ele>190.403</ele>
        <time>2013-10-27T07:11:39Z</time>
      </trkpt>
      <trkpt lat="41.379577" lon="1.978260">
        <ele>190.408</ele>
        <time>2013-10-27T07:11:40Z</time>
      </trkpt>
      <trkpt lat="41.379480" lon="1.978343">
        <ele>190.452</ele>
        <time>2013-10-27T07:11:43Z</time>
      </trkpt>
      <trkpt lat="41.379445" lon="1.978370">
        <ele>190.425</ele>
        <time>2013-10-27T07:11:44Z</time>
      </trkpt>
      <trkpt lat="41.379378" lon="1.978370">
        <ele>190.447</ele>
        <time>2013-10-27T07:11:45Z</time>
      </trkpt>
      <trkpt lat="41.379270" lon="1.978357">
        <ele>190.473</ele>
        <time>2013-10-27T07:11:47Z</time>
      </trkpt>
      <trkpt lat="41.379215" lon="1.978352">
        <ele>190.485</ele>
        <time>2013-10-27T07:11:48Z</time>
      </trkpt>
      <trkpt lat="41.379027" lon="1.978345">
        <ele>190.476</ele>
        <time>2013-10-27T07:11:51Z</time>
      </trkpt>
      <trkpt lat="41.378955" lon="1.978347">
        <ele>189.832</ele>
        <time>2013-10-27T07:11:52Z</time>
      </trkpt>
      <trkpt lat="41.378878" lon="1.978362">
        <ele>189.216</ele>
        <time>2013-10-27T07:11:53Z</time>
      </trkpt>
      <trkpt lat="41.378807" lon="1.978375">
        <ele>188.635</ele>
        <time>2013-10-27T07:11:54Z</time>
      </trkpt>
      <trkpt lat="41.378735" lon="1.978382">
        <ele>188.086</ele>
        <time>2013-10-27T07:11:55Z</time>
      </trkpt>
      <trkpt lat="41.378667" lon="1.978390">
        <ele>187.414</ele>
        <time>2013-10-27T07:11:56Z</time>
      </trkpt>
      <trkpt lat="41.378610" lon="1.978402">
        <ele>186.608</ele>
        <time>2013-10-27T07:11:57Z</time>
      </trkpt>
      <trkpt lat="41.378552" lon="1.978400">
        <ele>185.834</ele>
        <time>2013-10-27T07:11:58Z</time>
      </trkpt>
      <trkpt lat="41.378502" lon="1.978387">
        <ele>185.097</ele>
        <time>2013-10-27T07:11:59Z</time>
      </trkpt>
      <trkpt lat="41.378455" lon="1.978362">
        <ele>184.259</ele>
        <time>2013-10-27T07:12:00Z</time>
      </trkpt>
      <trkpt lat="41.378412" lon="1.978338">
        <ele>182.695</ele>
        <time>2013-10-27T07:12:01Z</time>
      </trkpt>
      <trkpt lat="41.378368" lon="1.978307">
        <ele>182.237</ele>
        <time>2013-10-27T07:12:02Z</time>
      </trkpt>
      <trkpt lat="41.378343" lon="1.978288">
        <ele>181.878</ele>
        <time>2013-10-27T07:12:03Z</time>
      </trkpt>
      <trkpt lat="41.378333" lon="1.978282">
        <ele>181.444</ele>
        <time>2013-10-27T07:12:04Z</time>
      </trkpt>
      <trkpt lat="41.378322" lon="1.978277">
        <ele>181.038</ele>
        <time>2013-10-27T07:12:05Z</time>
      </trkpt>
      <trkpt lat="41.378310" lon="1.978272">
        <ele>180.621</ele>
        <time>2013-10-27T07:12:06Z</time>
      </trkpt>
      <trkpt lat="41.378312" lon="1.978273">
        <ele>180.641</ele>
        <time>2013-10-27T07:12:07Z</time>
      </trkpt>
      <trkpt lat="41.378303" lon="1.978238">
        <ele>180.605</ele>
        <time>2013-10-27T07:12:13Z</time>
      </trkpt>
      <trkpt lat="41.378287" lon="1.978218">
        <ele>180.608</ele>
        <time>2013-10-27T07:12:14Z</time>
      </trkpt>
      <trkpt lat="41.378177" lon="1.978043">
        <ele>180.613</ele>
        <time>2013-10-27T07:12:18Z</time>
      </trkpt>
      <trkpt lat="41.377995" lon="1.977732">
        <ele>180.676</ele>
        <time>2013-10-27T07:12:24Z</time>
      </trkpt>
      <trkpt lat="41.377932" lon="1.977588">
        <ele>180.638</ele>
        <time>2013-10-27T07:12:29Z</time>
      </trkpt>
      <trkpt lat="41.377932" lon="1.977587">
        <ele>180.674</ele>
        <time>2013-10-27T07:12:30Z</time>
      </trkpt>
      <trkpt lat="41.377922" lon="1.977558">
        <ele>180.686</ele>
        <time>2013-10-27T07:12:33Z</time>
      </trkpt>
      <trkpt lat="41.377897" lon="1.977455">
        <ele>180.627</ele>
        <time>2013-10-27T07:12:35Z</time>
      </trkpt>
      <trkpt lat="41.377827" lon="1.977145">
        <ele>180.633</ele>
        <time>2013-10-27T07:12:39Z</time>
      </trkpt>
      <trkpt lat="41.377738" lon="1.976845">
        <ele>180.617</ele>
        <time>2013-10-27T07:12:43Z</time>
      </trkpt>
      <trkpt lat="41.377708" lon="1.976780">
        <ele>180.634</ele>
        <time>2013-10-27T07:12:44Z</time>
      </trkpt>
      <trkpt lat="41.377600" lon="1.976655">
        <ele>180.655</ele>
        <time>2013-10-27T07:12:47Z</time>
      </trkpt>
      <trkpt lat="41.377567" lon="1.976623">
        <ele>180.610</ele>
        <time>2013-10-27T07:12:48Z</time>
      </trkpt>
      <trkpt lat="41.377460" lon="1.976527">
        <ele>180.608</ele>
        <time>2013-10-27T07:12:51Z</time>
      </trkpt>
      <trkpt lat="41.377398" lon="1.976453">
        <ele>180.644</ele>
        <time>2013-10-27T07:12:53Z</time>
      </trkpt>
      <trkpt lat="41.377365" lon="1.976423">
        <ele>180.027</ele>
        <time>2013-10-27T07:12:54Z</time>
      </trkpt>
      <trkpt lat="41.377335" lon="1.976388">
        <ele>179.639</ele>
        <time>2013-10-27T07:12:55Z</time>
      </trkpt>
      <trkpt lat="41.377303" lon="1.976355">
        <ele>179.225</ele>
        <time>2013-10-27T07:12:56Z</time>
      </trkpt>
      <trkpt lat="41.377267" lon="1.976308">
        <ele>178.857</ele>
        <time>2013-10-27T07:12:57Z</time>
      </trkpt>
      <trkpt lat="41.377235" lon="1.976270">
        <ele>178.218</ele>
        <time>2013-10-27T07:12:58Z</time>
      </trkpt>
      <trkpt lat="41.377208" lon="1.976220">
        <ele>177.684</ele>
        <time>2013-10-27T07:12:59Z</time>
      </trkpt>
      <trkpt lat="41.377180" lon="1.976155">
        <ele>177.048</ele>
        <time>2013-10-27T07:13:00Z</time>
      </trkpt>
      <trkpt lat="41.377148" lon="1.976092">
        <ele>176.469</ele>
        <time>2013-10-27T07:13:01Z</time>
      </trkpt>
      <trkpt lat="41.377115" lon="1.976035">
        <ele>175.804</ele>
        <time>2013-10-27T07:13:02Z</time>
      </trkpt>
      <trkpt lat="41.377080" lon="1.975980">
        <ele>175.224</ele>
        <time>2013-10-27T07:13:03Z</time>
      </trkpt>
      <trkpt lat="41.377045" lon="1.975937">
        <ele>174.608</ele>
        <time>2013-10-27T07:13:04Z</time>
      </trkpt>
      <trkpt lat="41.377015" lon="1.975905">
        <ele>174.087</ele>
        <time>2013-10-27T07:13:05Z</time>
      </trkpt>
      <trkpt lat="41.376983" lon="1.975882">
        <ele>173.250</ele>
        <time>2013-10-27T07:13:06Z</time>
      </trkpt>
      <trkpt lat="41.376947" lon="1.975850">
        <ele>172.692</ele>
        <time>2013-10-27T07:13:07Z</time>
      </trkpt>
      <trkpt lat="41.376903" lon="1.975805">
        <ele>172.098</ele>
        <time>2013-10-27T07:13:08Z</time>
      </trkpt>
      <trkpt lat="41.376852" lon="1.975765">
        <ele>171.230</ele>
        <time>2013-10-27T07:13:09Z</time>
      </trkpt>
      <trkpt lat="41.376807" lon="1.975725">
        <ele>170.821</ele>
        <time>2013-10-27T07:13:10Z</time>
      </trkpt>
      <trkpt lat="41.376768" lon="1.975680">
        <ele>170.227</ele>
        <time>2013-10-27T07:13:11Z</time>
      </trkpt>
      <trkpt lat="41.376727" lon="1.975612">
        <ele>169.681</ele>
        <time>2013-10-27T07:13:12Z</time>
      </trkpt>
      <trkpt lat="41.376688" lon="1.975545">
        <ele>169.055</ele>
        <time>2013-10-27T07:13:13Z</time>
      </trkpt>
      <trkpt lat="41.376660" lon="1.975468">
        <ele>168.607</ele>
        <time>2013-10-27T07:13:14Z</time>
      </trkpt>
      <trkpt lat="41.376648" lon="1.975382">
        <ele>167.417</ele>
        <time>2013-10-27T07:13:15Z</time>
      </trkpt>
      <trkpt lat="41.376640" lon="1.975295">
        <ele>167.008</ele>
        <time>2013-10-27T07:13:16Z</time>
      </trkpt>
      <trkpt lat="41.376633" lon="1.975210">
        <ele>166.436</ele>
        <time>2013-10-27T07:13:17Z</time>
      </trkpt>
      <trkpt lat="41.376622" lon="1.975123">
        <ele>165.839</ele>
        <time>2013-10-27T07:13:18Z</time>
      </trkpt>
      <trkpt lat="41.376542" lon="1.974812">
        <ele>165.831</ele>
        <time>2013-10-27T07:13:22Z</time>
      </trkpt>
      <trkpt lat="41.376383" lon="1.974783">
        <ele>165.847</ele>
        <time>2013-10-27T07:13:25Z</time>
      </trkpt>
      <trkpt lat="41.376322" lon="1.974783">
        <ele>165.819</ele>
        <time>2013-10-27T07:13:26Z</time>
      </trkpt>
      <trkpt lat="41.376265" lon="1.974777">
        <ele>165.810</ele>
        <time>2013-10-27T07:13:27Z</time>
      </trkpt>
      <trkpt lat="41.376215" lon="1.974772">
        <ele>165.866</ele>
        <time>2013-10-27T07:13:28Z</time>
      </trkpt>
      <trkpt lat="41.376177" lon="1.974762">
        <ele>165.850</ele>
        <time>2013-10-27T07:13:29Z</time>
      </trkpt>
      <trkpt lat="41.376140" lon="1.974763">
        <ele>165.883</ele>
        <time>2013-10-27T07:13:30Z</time>
      </trkpt>
      <trkpt lat="41.376103" lon="1.974763">
        <ele>165.825</ele>
        <time>2013-10-27T07:13:31Z</time>
      </trkpt>
      <trkpt lat="41.376075" lon="1.974765">
        <ele>165.817</ele>
        <time>2013-10-27T07:13:32Z</time>
      </trkpt>
      <trkpt lat="41.376013" lon="1.974768">
        <ele>165.808</ele>
        <time>2013-10-27T07:13:34Z</time>
      </trkpt>
      <trkpt lat="41.375992" lon="1.974763">
        <ele>166.439</ele>
        <time>2013-10-27T07:13:35Z</time>
      </trkpt>
      <trkpt lat="41.375975" lon="1.974762">
        <ele>166.882</ele>
        <time>2013-10-27T07:13:36Z</time>
      </trkpt>
      <trkpt lat="41.375957" lon="1.974757">
        <ele>167.474</ele>
        <time>2013-10-27T07:13:37Z</time>
      </trkpt>
      <trkpt lat="41.375938" lon="1.974743">
        <ele>167.810</ele>
        <time>2013-10-27T07:13:38Z</time>
      </trkpt>
      <trkpt lat="41.375925" lon="1.974737">
        <ele>168.432</ele>
        <time>2013-10-27T07:13:39Z</time>
      </trkpt>
      <trkpt lat="41.375892" lon="1.974720">
        <ele>168.853</ele>
        <time>2013-10-27T07:13:41Z</time>
      </trkpt>
      <trkpt lat="41.375878" lon="1.974708">
        <ele>169.269</ele>
        <time>2013-10-27T07:13:42Z</time>
      </trkpt>
      <trkpt lat="41.375867" lon="1.974692">
        <ele>169.693</ele>
        <time>2013-10-27T07:13:43Z</time>
      </trkpt>
      <trkpt lat="41.375855" lon="1.974675">
        <ele>170.224</ele>
        <time>2013-10-27T07:13:44Z</time>
      </trkpt>
      <trkpt lat="41.375855" lon="1.974658">
        <ele>170.604</ele>
        <time>2013-10-27T07:13:45Z</time>
      </trkpt>
      <trkpt lat="41.375852" lon="1.974638">
        <ele>170.614</ele>
        <time>2013-10-27T07:13:46Z</time>
      </trkpt>
      <trkpt lat="41.375848" lon="1.974617">
        <ele>171.008</ele>
        <time>2013-10-27T07:13:47Z</time>
      </trkpt>
      <trkpt lat="41.375847" lon="1.974590">
        <ele>171.463</ele>
        <time>2013-10-27T07:13:48Z</time>
      </trkpt>
      <trkpt lat="41.375837" lon="1.974567">
        <ele>171.886</ele>
        <time>2013-10-27T07:13:49Z</time>
      </trkpt>
      <trkpt lat="41.375832" lon="1.974537">
        <ele>172.218</ele>
        <time>2013-10-27T07:13:50Z</time>
      </trkpt>
      <trkpt lat="41.375823" lon="1.974510">
        <ele>172.654</ele>
        <time>2013-10-27T07:13:51Z</time>
      </trkpt>
      <trkpt lat="41.375813" lon="1.974457">
        <ele>172.616</ele>
        <time>2013-10-27T07:13:53Z</time>
      </trkpt>
      <trkpt lat="41.375813" lon="1.974410">
        <ele>172.667</ele>
        <time>2013-10-27T07:13:57Z</time>
      </trkpt>
      <trkpt lat="41.375817" lon="1.974360">
        <ele>172.613</ele>
        <time>2013-10-27T07:14:10Z</time>
      </trkpt>
      <trkpt lat="41.375838" lon="1.974192">
        <ele>172.687</ele>
        <time>2013-10-27T07:14:14Z</time>
      </trkpt>
      <trkpt lat="41.375845" lon="1.974152">
        <ele>172.645</ele>
        <time>2013-10-27T07:14:15Z</time>
      </trkpt>
      <trkpt lat="41.375873" lon="1.973935">
        <ele>172.647</ele>
        <time>2013-10-27T07:14:20Z</time>
      </trkpt>
      <trkpt lat="41.375880" lon="1.973838">
        <ele>172.611</ele>
        <time>2013-10-27T07:14:22Z</time>
      </trkpt>
      <trkpt lat="41.375882" lon="1.973792">
        <ele>172.608</ele>
        <time>2013-10-27T07:14:23Z</time>
      </trkpt>
      <trkpt lat="41.375878" lon="1.973688">
        <ele>172.685</ele>
        <time>2013-10-27T07:14:25Z</time>
      </trkpt>
      <trkpt lat="41.375853" lon="1.973592">
        <ele>172.688</ele>
        <time>2013-10-27T07:14:27Z</time>
      </trkpt>
      <trkpt lat="41.375823" lon="1.973557">
        <ele>172.610</ele>
        <time>2013-10-27T07:14:28Z</time>
      </trkpt>
      <trkpt lat="41.375780" lon="1.973493">
        <ele>172.676</ele>
        <time>2013-10-27T07:14:30Z</time>
      </trkpt>
      <trkpt lat="41.375697" lon="1.973372">
        <ele>172.688</ele>
        <time>2013-10-27T07:14:33Z</time>
      </trkpt>
      <trkpt lat="41.375677" lon="1.973315">
        <ele>172.659</ele>
        <time>2013-10-27T07:14:34Z</time>
      </trkpt>
      <trkpt lat="41.375657" lon="1.973250">
        <ele>172.215</ele>
        <time>2013-10-27T07:14:35Z</time>
      </trkpt>
      <trkpt lat="41.375637" lon="1.973180">
        <ele>171.859</ele>
        <time>2013-10-27T07:14:36Z</time>
      </trkpt>
      <trkpt lat="41.375613" lon="1.973113">
        <ele>171.276</ele>
        <time>2013-10-27T07:14:37Z</time>
      </trkpt>
      <trkpt lat="41.375582" lon="1.973050">
        <ele>170.890</ele>
        <time>2013-10-27T07:14:38Z</time>
      </trkpt>
      <trkpt lat="41.375540" lon="1.972993">
        <ele>170.419</ele>
        <time>2013-10-27T07:14:39Z</time>
      </trkpt>
      <trkpt lat="41.375448" lon="1.972935">
        <ele>170.408</ele>
        <time>2013-10-27T07:14:41Z</time>
      </trkpt>
      <trkpt lat="41.375405" lon="1.972948">
        <ele>170.498</ele>
        <time>2013-10-27T07:14:42Z</time>
      </trkpt>
      <trkpt lat="41.375250" lon="1.973062">
        <ele>170.421</ele>
        <time>2013-10-27T07:14:46Z</time>
      </trkpt>
      <trkpt lat="41.375218" lon="1.973092">
        <ele>170.453</ele>
        <time>2013-10-27T07:14:47Z</time>
      </trkpt>
      <trkpt lat="41.375133" lon="1.973172">
        <ele>170.469</ele>
        <time>2013-10-27T07:14:50Z</time>
      </trkpt>
      <trkpt lat="41.375062" lon="1.973222">
        <ele>170.491</ele>
        <time>2013-10-27T07:14:52Z</time>
      </trkpt>
      <trkpt lat="41.374918" lon="1.973280">
        <ele>170.442</ele>
        <time>2013-10-27T07:14:56Z</time>
      </trkpt>
      <trkpt lat="41.374873" lon="1.973228">
        <ele>170.458</ele>
        <time>2013-10-27T07:14:58Z</time>
      </trkpt>
      <trkpt lat="41.374862" lon="1.973180">
        <ele>170.492</ele>
        <time>2013-10-27T07:14:59Z</time>
      </trkpt>
      <trkpt lat="41.374852" lon="1.972968">
        <ele>170.423</ele>
        <time>2013-10-27T07:15:03Z</time>
      </trkpt>
      <trkpt lat="41.374857" lon="1.972908">
        <ele>170.483</ele>
        <time>2013-10-27T07:15:04Z</time>
      </trkpt>
      <trkpt lat="41.374852" lon="1.972850">
        <ele>170.411</ele>
        <time>2013-10-27T07:15:05Z</time>
      </trkpt>
      <trkpt lat="41.374850" lon="1.972792">
        <ele>170.008</ele>
        <time>2013-10-27T07:15:06Z</time>
      </trkpt>
      <trkpt lat="41.374853" lon="1.972727">
        <ele>169.613</ele>
        <time>2013-10-27T07:15:07Z</time>
      </trkpt>
      <trkpt lat="41.374857" lon="1.972667">
        <ele>169.066</ele>
        <time>2013-10-27T07:15:08Z</time>
      </trkpt>
      <trkpt lat="41.374862" lon="1.972608">
        <ele>168.678</ele>
        <time>2013-10-27T07:15:09Z</time>
      </trkpt>
      <trkpt lat="41.374867" lon="1.972550">
        <ele>168.274</ele>
        <time>2013-10-27T07:15:10Z</time>
      </trkpt>
      <trkpt lat="41.374900" lon="1.972287">
        <ele>168.236</ele>
        <time>2013-10-27T07:15:15Z</time>
      </trkpt>
      <trkpt lat="41.374893" lon="1.971940">
        <ele>168.237</ele>
        <time>2013-10-27T07:15:22Z</time>
      </trkpt>
      <trkpt lat="41.374845" lon="1.971832">
        <ele>168.263</ele>
        <time>2013-10-27T07:15:25Z</time>
      </trkpt>
      <trkpt lat="41.374808" lon="1.971757">
        <ele>168.267</ele>
        <time>2013-10-27T07:15:27Z</time>
      </trkpt>
      <trkpt lat="41.374785" lon="1.971727">
        <ele>168.258</ele>
        <time>2013-10-27T07:15:28Z</time>
      </trkpt>
      <trkpt lat="41.374742" lon="1.971672">
        <ele>168.652</ele>
        <time>2013-10-27T07:15:30Z</time>
      </trkpt>
      <trkpt lat="41.374727" lon="1.971640">
        <ele>169.017</ele>
        <time>2013-10-27T07:15:31Z</time>
      </trkpt>
      <trkpt lat="41.374717" lon="1.971602">
        <ele>169.608</ele>
        <time>2013-10-27T07:15:32Z</time>
      </trkpt>
      <trkpt lat="41.374712" lon="1.971565">
        <ele>170.016</ele>
        <time>2013-10-27T07:15:33Z</time>
      </trkpt>
      <trkpt lat="41.374712" lon="1.971530">
        <ele>170.419</ele>
        <time>2013-10-27T07:15:34Z</time>
      </trkpt>
      <trkpt lat="41.374715" lon="1.971465">
        <ele>170.431</ele>
        <time>2013-10-27T07:15:36Z</time>
      </trkpt>
      <trkpt lat="41.374743" lon="1.971397">
        <ele>170.487</ele>
        <time>2013-10-27T07:15:38Z</time>
      </trkpt>
      <trkpt lat="41.374760" lon="1.971368">
        <ele>170.469</ele>
        <time>2013-10-27T07:15:39Z</time>
      </trkpt>
      <trkpt lat="41.374792" lon="1.971297">
        <ele>170.840</ele>
        <time>2013-10-27T07:15:41Z</time>
      </trkpt>
      <trkpt lat="41.374807" lon="1.971255">
        <ele>171.216</ele>
        <time>2013-10-27T07:15:42Z</time>
      </trkpt>
      <trkpt lat="41.374818" lon="1.971217">
        <ele>171.630</ele>
        <time>2013-10-27T07:15:43Z</time>
      </trkpt>
      <trkpt lat="41.374828" lon="1.971173">
        <ele>172.488</ele>
        <time>2013-10-27T07:15:44Z</time>
      </trkpt>
      <trkpt lat="41.374833" lon="1.971132">
        <ele>172.424</ele>
        <time>2013-10-27T07:15:45Z</time>
      </trkpt>
      <trkpt lat="41.374832" lon="1.970943">
        <ele>172.426</ele>
        <time>2013-10-27T07:15:49Z</time>
      </trkpt>
      <trkpt lat="41.374832" lon="1.970885">
        <ele>172.408</ele>
        <time>2013-10-27T07:15:50Z</time>
      </trkpt>
      <trkpt lat="41.374865" lon="1.970657">
        <ele>172.419</ele>
        <time>2013-10-27T07:15:55Z</time>
      </trkpt>
      <trkpt lat="41.374893" lon="1.970522">
        <ele>172.462</ele>
        <time>2013-10-27T07:16:00Z</time>
      </trkpt>
      <trkpt lat="41.374880" lon="1.970400">
        <ele>173.044</ele>
        <time>2013-10-27T07:16:03Z</time>
      </trkpt>
      <trkpt lat="41.374878" lon="1.970360">
        <ele>173.420</ele>
        <time>2013-10-27T07:16:04Z</time>
      </trkpt>
      <trkpt lat="41.374877" lon="1.970318">
        <ele>173.832</ele>
        <time>2013-10-27T07:16:05Z</time>
      </trkpt>
      <trkpt lat="41.374872" lon="1.970287">
        <ele>174.453</ele>
        <time>2013-10-27T07:16:06Z</time>
      </trkpt>
      <trkpt lat="41.374863" lon="1.970255">
        <ele>174.819</ele>
        <time>2013-10-27T07:16:07Z</time>
      </trkpt>
      <trkpt lat="41.374858" lon="1.970237">
        <ele>175.293</ele>
        <time>2013-10-27T07:16:08Z</time>
      </trkpt>
      <trkpt lat="41.374857" lon="1.970213">
        <ele>175.648</ele>
        <time>2013-10-27T07:16:09Z</time>
      </trkpt>
      <trkpt lat="41.374843" lon="1.970188">
        <ele>176.061</ele>
        <time>2013-10-27T07:16:10Z</time>
      </trkpt>
      <trkpt lat="41.374832" lon="1.970165">
        <ele>176.417</ele>
        <time>2013-10-27T07:16:11Z</time>
      </trkpt>
      <trkpt lat="41.374830" lon="1.970130">
        <ele>177.008</ele>
        <time>2013-10-27T07:16:12Z</time>
      </trkpt>
      <trkpt lat="41.374818" lon="1.969917">
        <ele>177.095</ele>
        <time>2013-10-27T07:16:17Z</time>
      </trkpt>
      <trkpt lat="41.374815" lon="1.969707">
        <ele>177.038</ele>
        <time>2013-10-27T07:16:24Z</time>
      </trkpt>
      <trkpt lat="41.374837" lon="1.969535">
        <ele>177.430</ele>
        <time>2013-10-27T07:16:30Z</time>
      </trkpt>
      <trkpt lat="41.374835" lon="1.969518">
        <ele>177.876</ele>
        <time>2013-10-27T07:16:31Z</time>
      </trkpt>
      <trkpt lat="41.374847" lon="1.969488">
        <ele>178.288</ele>
        <time>2013-10-27T07:16:32Z</time>
      </trkpt>
      <trkpt lat="41.374857" lon="1.969458">
        <ele>179.279</ele>
        <time>2013-10-27T07:16:33Z</time>
      </trkpt>
      <trkpt lat="41.374862" lon="1.969432">
        <ele>179.815</ele>
        <time>2013-10-27T07:16:34Z</time>
      </trkpt>
      <trkpt lat="41.374867" lon="1.969408">
        <ele>180.479</ele>
        <time>2013-10-27T07:16:35Z</time>
      </trkpt>
      <trkpt lat="41.374875" lon="1.969388">
        <ele>180.849</ele>
        <time>2013-10-27T07:16:36Z</time>
      </trkpt>
      <trkpt lat="41.374882" lon="1.969365">
        <ele>181.402</ele>
        <time>2013-10-27T07:16:37Z</time>
      </trkpt>
      <trkpt lat="41.374890" lon="1.969343">
        <ele>181.822</ele>
        <time>2013-10-27T07:16:38Z</time>
      </trkpt>
      <trkpt lat="41.374897" lon="1.969318">
        <ele>182.208</ele>
        <time>2013-10-27T07:16:39Z</time>
      </trkpt>
      <trkpt lat="41.374903" lon="1.969293">
        <ele>182.645</ele>
        <time>2013-10-27T07:16:40Z</time>
      </trkpt>
      <trkpt lat="41.374908" lon="1.969273">
        <ele>183.068</ele>
        <time>2013-10-27T07:16:41Z</time>
      </trkpt>
      <trkpt lat="41.374910" lon="1.969255">
        <ele>183.410</ele>
        <time>2013-10-27T07:16:42Z</time>
      </trkpt>
      <trkpt lat="41.374917" lon="1.969235">
        <ele>183.816</ele>
        <time>2013-10-27T07:16:43Z</time>
      </trkpt>
      <trkpt lat="41.374920" lon="1.969212">
        <ele>184.498</ele>
        <time>2013-10-27T07:16:44Z</time>
      </trkpt>
      <trkpt lat="41.374925" lon="1.969193">
        <ele>184.889</ele>
        <time>2013-10-27T07:16:45Z</time>
      </trkpt>
      <trkpt lat="41.374932" lon="1.969173">
        <ele>185.255</ele>
        <time>2013-10-27T07:16:46Z</time>
      </trkpt>
      <trkpt lat="41.374938" lon="1.969153">
        <ele>185.679</ele>
        <time>2013-10-27T07:16:47Z</time>
      </trkpt>
      <trkpt lat="41.374955" lon="1.969133">
        <ele>186.053</ele>
        <time>2013-10-27T07:16:49Z</time>
      </trkpt>
      <trkpt lat="41.374957" lon="1.969125">
        <ele>186.404</ele>
        <time>2013-10-27T07:16:50Z</time>
      </trkpt>
      <trkpt lat="41.374958" lon="1.969115">
        <ele>186.814</ele>
        <time>2013-10-27T07:16:51Z</time>
      </trkpt>
      <trkpt lat="41.375050" lon="1.969030">
        <ele>187.608</ele>
        <time>2013-10-27T07:17:14Z</time>
      </trkpt>
      <trkpt lat="41.375085" lon="1.968997">
        <ele>187.696</ele>
        <time>2013-10-27T07:17:17Z</time>
      </trkpt>
      <trkpt lat="41.375107" lon="1.968937">
        <ele>187.619</ele>
        <time>2013-10-27T07:17:21Z</time>
      </trkpt>
      <trkpt lat="41.375118" lon="1.968913">
        <ele>187.681</ele>
        <time>2013-10-27T07:17:24Z</time>
      </trkpt>
      <trkpt lat="41.375123" lon="1.968902">
        <ele>187.667</ele>
        <time>2013-10-27T07:17:25Z</time>
      </trkpt>
      <trkpt lat="41.375137" lon="1.968820">
        <ele>187.639</ele>
        <time>2013-10-27T07:17:31Z</time>
      </trkpt>
      <trkpt lat="41.375132" lon="1.968793">
        <ele>187.670</ele>
        <time>2013-10-27T07:17:32Z</time>
      </trkpt>
      <trkpt lat="41.375125" lon="1.968757">
        <ele>187.656</ele>
        <time>2013-10-27T07:17:33Z</time>
      </trkpt>
      <trkpt lat="41.375120" lon="1.968722">
        <ele>187.640</ele>
        <time>2013-10-27T07:17:34Z</time>
      </trkpt>
      <trkpt lat="41.375122" lon="1.968698">
        <ele>187.052</ele>
        <time>2013-10-27T07:17:35Z</time>
      </trkpt>
      <trkpt lat="41.375117" lon="1.968660">
        <ele>186.653</ele>
        <time>2013-10-27T07:17:36Z</time>
      </trkpt>
      <trkpt lat="41.375097" lon="1.968613">
        <ele>186.008</ele>
        <time>2013-10-27T07:17:37Z</time>
      </trkpt>
      <trkpt lat="41.375062" lon="1.968568">
        <ele>185.408</ele>
        <time>2013-10-27T07:17:38Z</time>
      </trkpt>
      <trkpt lat="41.375020" lon="1.968533">
        <ele>184.676</ele>
        <time>2013-10-27T07:17:39Z</time>
      </trkpt>
      <trkpt lat="41.374972" lon="1.968473">
        <ele>183.829</ele>
        <time>2013-10-27T07:17:40Z</time>
      </trkpt>
      <trkpt lat="41.374928" lon="1.968407">
        <ele>183.241</ele>
        <time>2013-10-27T07:17:41Z</time>
      </trkpt>
      <trkpt lat="41.374887" lon="1.968345">
        <ele>182.427</ele>
        <time>2013-10-27T07:17:42Z</time>
      </trkpt>
      <trkpt lat="41.374840" lon="1.968287">
        <ele>181.869</ele>
        <time>2013-10-27T07:17:43Z</time>
      </trkpt>
      <trkpt lat="41.374778" lon="1.968252">
        <ele>181.230</ele>
        <time>2013-10-27T07:17:44Z</time>
      </trkpt>
      <trkpt lat="41.374712" lon="1.968233">
        <ele>180.426</ele>
        <time>2013-10-27T07:17:45Z</time>
      </trkpt>
      <trkpt lat="41.374645" lon="1.968230">
        <ele>179.620</ele>
        <time>2013-10-27T07:17:46Z</time>
      </trkpt>
      <trkpt lat="41.374585" lon="1.968233">
        <ele>178.232</ele>
        <time>2013-10-27T07:17:47Z</time>
      </trkpt>
      <trkpt lat="41.374530" lon="1.968247">
        <ele>177.692</ele>
        <time>2013-10-27T07:17:48Z</time>
      </trkpt>
      <trkpt lat="41.374482" lon="1.968268">
        <ele>177.611</ele>
        <time>2013-10-27T07:17:49Z</time>
      </trkpt>
      <trkpt lat="41.374442" lon="1.968283">
        <ele>177.608</ele>
        <time>2013-10-27T07:17:50Z</time>
      </trkpt>
      <trkpt lat="41.374408" lon="1.968277">
        <ele>177.644</ele>
        <time>2013-10-27T07:17:51Z</time>
      </trkpt>
      <trkpt lat="41.374380" lon="1.968268">
        <ele>177.627</ele>
        <time>2013-10-27T07:17:52Z</time>
      </trkpt>
      <trkpt lat="41.374303" lon="1.968208">
        <ele>177.679</ele>
        <time>2013-10-27T07:17:55Z</time>
      </trkpt>
      <trkpt lat="41.374290" lon="1.968197">
        <ele>177.625</ele>
        <time>2013-10-27T07:17:56Z</time>
      </trkpt>
      <trkpt lat="41.374275" lon="1.968162">
        <ele>177.647</ele>
        <time>2013-10-27T07:17:58Z</time>
      </trkpt>
      <trkpt lat="41.374275" lon="1.968127">
        <ele>177.628</ele>
        <time>2013-10-27T07:17:59Z</time>
      </trkpt>
      <trkpt lat="41.374267" lon="1.968068">
        <ele>177.684</ele>
        <time>2013-10-27T07:18:01Z</time>
      </trkpt>
      <trkpt lat="41.374250" lon="1.967975">
        <ele>177.658</ele>
        <time>2013-10-27T07:18:04Z</time>
      </trkpt>
      <trkpt lat="41.374233" lon="1.967915">
        <ele>177.667</ele>
        <time>2013-10-27T07:18:06Z</time>
      </trkpt>
      <trkpt lat="41.374225" lon="1.967880">
        <ele>178.081</ele>
        <time>2013-10-27T07:18:07Z</time>
      </trkpt>
      <trkpt lat="41.374217" lon="1.967850">
        <ele>178.419</ele>
        <time>2013-10-27T07:18:08Z</time>
      </trkpt>
      <trkpt lat="41.374208" lon="1.967825">
        <ele>178.808</ele>
        <time>2013-10-27T07:18:09Z</time>
      </trkpt>
      <trkpt lat="41.374203" lon="1.967802">
        <ele>179.687</ele>
        <time>2013-10-27T07:18:10Z</time>
      </trkpt>
      <trkpt lat="41.374182" lon="1.967735">
        <ele>179.690</ele>
        <time>2013-10-27T07:18:12Z</time>
      </trkpt>
      <trkpt lat="41.374163" lon="1.967685">
        <ele>180.032</ele>
        <time>2013-10-27T07:18:14Z</time>
      </trkpt>
      <trkpt lat="41.374153" lon="1.967648">
        <ele>180.698</ele>
        <time>2013-10-27T07:18:15Z</time>
      </trkpt>
      <trkpt lat="41.374137" lon="1.967620">
        <ele>181.030</ele>
        <time>2013-10-27T07:18:16Z</time>
      </trkpt>
      <trkpt lat="41.374122" lon="1.967588">
        <ele>181.491</ele>
        <time>2013-10-27T07:18:17Z</time>
      </trkpt>
      <trkpt lat="41.374113" lon="1.967562">
        <ele>181.817</ele>
        <time>2013-10-27T07:18:18Z</time>
      </trkpt>
      <trkpt lat="41.374108" lon="1.967530">
        <ele>181.851</ele>
        <time>2013-10-27T07:18:19Z</time>
      </trkpt>
      <trkpt lat="41.374087" lon="1.967470">
        <ele>181.846</ele>
        <time>2013-10-27T07:18:21Z</time>
      </trkpt>
      <trkpt lat="41.374038" lon="1.967290">
        <ele>181.888</ele>
        <time>2013-10-27T07:18:27Z</time>
      </trkpt>
      <trkpt lat="41.373980" lon="1.967137">
        <ele>181.816</ele>
        <time>2013-10-27T07:18:32Z</time>
      </trkpt>
      <trkpt lat="41.373940" lon="1.967083">
        <ele>181.808</ele>
        <time>2013-10-27T07:18:34Z</time>
      </trkpt>
      <trkpt lat="41.373847" lon="1.966982">
        <ele>181.815</ele>
        <time>2013-10-27T07:18:38Z</time>
      </trkpt>
      <trkpt lat="41.373800" lon="1.966955">
        <ele>181.868</ele>
        <time>2013-10-27T07:18:40Z</time>
      </trkpt>
      <trkpt lat="41.373773" lon="1.966947">
        <ele>181.850</ele>
        <time>2013-10-27T07:18:41Z</time>
      </trkpt>
      <trkpt lat="41.373727" lon="1.966948">
        <ele>181.846</ele>
        <time>2013-10-27T07:18:43Z</time>
      </trkpt>
      <trkpt lat="41.373693" lon="1.966948">
        <ele>181.858</ele>
        <time>2013-10-27T07:18:44Z</time>
      </trkpt>
      <trkpt lat="41.373658" lon="1.966947">
        <ele>181.879</ele>
        <time>2013-10-27T07:18:45Z</time>
      </trkpt>
      <trkpt lat="41.373618" lon="1.966955">
        <ele>181.875</ele>
        <time>2013-10-27T07:18:46Z</time>
      </trkpt>
      <trkpt lat="41.373547" lon="1.966978">
        <ele>181.899</ele>
        <time>2013-10-27T07:18:48Z</time>
      </trkpt>
      <trkpt lat="41.373503" lon="1.967000">
        <ele>181.821</ele>
        <time>2013-10-27T07:18:49Z</time>
      </trkpt>
      <trkpt lat="41.373458" lon="1.967017">
        <ele>181.841</ele>
        <time>2013-10-27T07:18:50Z</time>
      </trkpt>
      <trkpt lat="41.373380" lon="1.967030">
        <ele>181.805</ele>
        <time>2013-10-27T07:18:52Z</time>
      </trkpt>
      <trkpt lat="41.373315" lon="1.967035">
        <ele>181.808</ele>
        <time>2013-10-27T07:18:54Z</time>
      </trkpt>
      <trkpt lat="41.373288" lon="1.967027">
        <ele>181.893</ele>
        <time>2013-10-27T07:18:55Z</time>
      </trkpt>
      <trkpt lat="41.373260" lon="1.967008">
        <ele>181.846</ele>
        <time>2013-10-27T07:18:56Z</time>
      </trkpt>
      <trkpt lat="41.373233" lon="1.966987">
        <ele>181.848</ele>
        <time>2013-10-27T07:18:57Z</time>
      </trkpt>
      <trkpt lat="41.373135" lon="1.966933">
        <ele>181.864</ele>
        <time>2013-10-27T07:19:01Z</time>
      </trkpt>
      <trkpt lat="41.372997" lon="1.966877">
        <ele>181.446</ele>
        <time>2013-10-27T07:19:05Z</time>
      </trkpt>
      <trkpt lat="41.372962" lon="1.966867">
        <ele>180.867</ele>
        <time>2013-10-27T07:19:06Z</time>
      </trkpt>
      <trkpt lat="41.372925" lon="1.966855">
        <ele>180.453</ele>
        <time>2013-10-27T07:19:07Z</time>
      </trkpt>
      <trkpt lat="41.372888" lon="1.966837">
        <ele>180.097</ele>
        <time>2013-10-27T07:19:08Z</time>
      </trkpt>
      <trkpt lat="41.372853" lon="1.966825">
        <ele>179.681</ele>
        <time>2013-10-27T07:19:09Z</time>
      </trkpt>
      <trkpt lat="41.372790" lon="1.966795">
        <ele>179.261</ele>
        <time>2013-10-27T07:19:11Z</time>
      </trkpt>
      <trkpt lat="41.372750" lon="1.966780">
        <ele>178.617</ele>
        <time>2013-10-27T07:19:12Z</time>
      </trkpt>
      <trkpt lat="41.372712" lon="1.966763">
        <ele>178.208</ele>
        <time>2013-10-27T07:19:13Z</time>
      </trkpt>
      <trkpt lat="41.372678" lon="1.966752">
        <ele>177.869</ele>
        <time>2013-10-27T07:19:14Z</time>
      </trkpt>
      <trkpt lat="41.372640" lon="1.966742">
        <ele>177.482</ele>
        <time>2013-10-27T07:19:15Z</time>
      </trkpt>
      <trkpt lat="41.372605" lon="1.966733">
        <ele>176.894</ele>
        <time>2013-10-27T07:19:16Z</time>
      </trkpt>
      <trkpt lat="41.372567" lon="1.966725">
        <ele>176.420</ele>
        <time>2013-10-27T07:19:17Z</time>
      </trkpt>
      <trkpt lat="41.372528" lon="1.966712">
        <ele>175.682</ele>
        <time>2013-10-27T07:19:18Z</time>
      </trkpt>
      <trkpt lat="41.372488" lon="1.966702">
        <ele>175.043</ele>
        <time>2013-10-27T07:19:19Z</time>
      </trkpt>
      <trkpt lat="41.372448" lon="1.966683">
        <ele>174.449</ele>
        <time>2013-10-27T07:19:20Z</time>
      </trkpt>
      <trkpt lat="41.372408" lon="1.966673">
        <ele>173.613</ele>
        <time>2013-10-27T07:19:21Z</time>
      </trkpt>
      <trkpt lat="41.372378" lon="1.966663">
        <ele>172.895</ele>
        <time>2013-10-27T07:19:22Z</time>
      </trkpt>
      <trkpt lat="41.372347" lon="1.966657">
        <ele>172.049</ele>
        <time>2013-10-27T07:19:23Z</time>
      </trkpt>
      <trkpt lat="41.372323" lon="1.966640">
        <ele>170.423</ele>
        <time>2013-10-27T07:19:24Z</time>
      </trkpt>
      <trkpt lat="41.372317" lon="1.966620">
        <ele>170.008</ele>
        <time>2013-10-27T07:19:25Z</time>
      </trkpt>
      <trkpt lat="41.372305" lon="1.966605">
        <ele>169.650</ele>
        <time>2013-10-27T07:19:26Z</time>
      </trkpt>
      <trkpt lat="41.372307" lon="1.966613">
        <ele>169.283</ele>
        <time>2013-10-27T07:19:27Z</time>
      </trkpt>
      <trkpt lat="41.372257" lon="1.966510">
        <ele>168.225</ele>
        <time>2013-10-27T07:21:07Z</time>
      </trkpt>
      <trkpt lat="41.372237" lon="1.966465">
        <ele>168.241</ele>
        <time>2013-10-27T07:21:08Z</time>
      </trkpt>
      <trkpt lat="41.372187" lon="1.966358">
        <ele>168.283</ele>
        <time>2013-10-27T07:21:10Z</time>
      </trkpt>
      <trkpt lat="41.372167" lon="1.966303">
        <ele>168.244</ele>
        <time>2013-10-27T07:21:11Z</time>
      </trkpt>
      <trkpt lat="41.372152" lon="1.966250">
        <ele>167.890</ele>
        <time>2013-10-27T07:21:12Z</time>
      </trkpt>
      <trkpt lat="41.372150" lon="1.966205">
        <ele>167.464</ele>
        <time>2013-10-27T07:21:13Z</time>
      </trkpt>
      <trkpt lat="41.372148" lon="1.966162">
        <ele>167.056</ele>
        <time>2013-10-27T07:21:14Z</time>
      </trkpt>
      <trkpt lat="41.372157" lon="1.966130">
        <ele>166.659</ele>
        <time>2013-10-27T07:21:15Z</time>
      </trkpt>
      <trkpt lat="41.372167" lon="1.966103">
        <ele>166.014</ele>
        <time>2013-10-27T07:21:16Z</time>
      </trkpt>
      <trkpt lat="41.372225" lon="1.965938">
        <ele>166.008</ele>
        <time>2013-10-27T07:21:23Z</time>
      </trkpt>
      <trkpt lat="41.372255" lon="1.965863">
        <ele>166.046</ele>
        <time>2013-10-27T07:21:26Z</time>
      </trkpt>
      <trkpt lat="41.372280" lon="1.965798">
        <ele>166.029</ele>
        <time>2013-10-27T07:21:29Z</time>
      </trkpt>
      <trkpt lat="41.372293" lon="1.965768">
        <ele>166.481</ele>
        <time>2013-10-27T07:21:31Z</time>
      </trkpt>
      <trkpt lat="41.372295" lon="1.965752">
        <ele>167.067</ele>
        <time>2013-10-27T07:21:32Z</time>
      </trkpt>
      <trkpt lat="41.372297" lon="1.965740">
        <ele>167.459</ele>
        <time>2013-10-27T07:21:33Z</time>
      </trkpt>
      <trkpt lat="41.372302" lon="1.965727">
        <ele>167.850</ele>
        <time>2013-10-27T07:21:34Z</time>
      </trkpt>
      <trkpt lat="41.372300" lon="1.965722">
        <ele>168.216</ele>
        <time>2013-10-27T07:21:35Z</time>
      </trkpt>
      <trkpt lat="41.372310" lon="1.965672">
        <ele>168.250</ele>
        <time>2013-10-27T07:21:38Z</time>
      </trkpt>
      <trkpt lat="41.372307" lon="1.965655">
        <ele>168.287</ele>
        <time>2013-10-27T07:21:41Z</time>
      </trkpt>
      <trkpt lat="41.372315" lon="1.965573">
        <ele>168.242</ele>
        <time>2013-10-27T07:21:57Z</time>
      </trkpt>
      <trkpt lat="41.372308" lon="1.965562">
        <ele>168.226</ele>
        <time>2013-10-27T07:21:58Z</time>
      </trkpt>
      <trkpt lat="41.372295" lon="1.965550">
        <ele>168.208</ele>
        <time>2013-10-27T07:21:59Z</time>
      </trkpt>
      <trkpt lat="41.372257" lon="1.965520">
        <ele>168.299</ele>
        <time>2013-10-27T07:22:01Z</time>
      </trkpt>
      <trkpt lat="41.372230" lon="1.965515">
        <ele>168.232</ele>
        <time>2013-10-27T07:22:02Z</time>
      </trkpt>
      <trkpt lat="41.372092" lon="1.965485">
        <ele>168.264</ele>
        <time>2013-10-27T07:22:07Z</time>
      </trkpt>
      <trkpt lat="41.372037" lon="1.965470">
        <ele>168.250</ele>
        <time>2013-10-27T07:22:09Z</time>
      </trkpt>
      <trkpt lat="41.371822" lon="1.965445">
        <ele>168.262</ele>
        <time>2013-10-27T07:22:16Z</time>
      </trkpt>
      <trkpt lat="41.371792" lon="1.965458">
        <ele>168.253</ele>
        <time>2013-10-27T07:22:17Z</time>
      </trkpt>
      <trkpt lat="41.371597" lon="1.965435">
        <ele>168.269</ele>
        <time>2013-10-27T07:22:23Z</time>
      </trkpt>
      <trkpt lat="41.371465" lon="1.965322">
        <ele>168.213</ele>
        <time>2013-10-27T07:22:28Z</time>
      </trkpt>
      <trkpt lat="41.371437" lon="1.965308">
        <ele>168.617</ele>
        <time>2013-10-27T07:22:29Z</time>
      </trkpt>
      <trkpt lat="41.371407" lon="1.965295">
        <ele>169.087</ele>
        <time>2013-10-27T07:22:30Z</time>
      </trkpt>
      <trkpt lat="41.371377" lon="1.965285">
        <ele>169.415</ele>
        <time>2013-10-27T07:22:31Z</time>
      </trkpt>
      <trkpt lat="41.371343" lon="1.965280">
        <ele>169.808</ele>
        <time>2013-10-27T07:22:32Z</time>
      </trkpt>
      <trkpt lat="41.371310" lon="1.965277">
        <ele>170.282</ele>
        <time>2013-10-27T07:22:33Z</time>
      </trkpt>
      <trkpt lat="41.371275" lon="1.965278">
        <ele>170.245</ele>
        <time>2013-10-27T07:22:34Z</time>
      </trkpt>
      <trkpt lat="41.371072" lon="1.965338">
        <ele>170.237</ele>
        <time>2013-10-27T07:22:40Z</time>
      </trkpt>
      <trkpt lat="41.370912" lon="1.965363">
        <ele>170.263</ele>
        <time>2013-10-27T07:22:44Z</time>
      </trkpt>
      <trkpt lat="41.370837" lon="1.965337">
        <ele>170.235</ele>
        <time>2013-10-27T07:22:46Z</time>
      </trkpt>
      <trkpt lat="41.370767" lon="1.965227">
        <ele>170.246</ele>
        <time>2013-10-27T07:22:49Z</time>
      </trkpt>
      <trkpt lat="41.370747" lon="1.965180">
        <ele>170.272</ele>
        <time>2013-10-27T07:22:50Z</time>
      </trkpt>
      <trkpt lat="41.370723" lon="1.964985">
        <ele>170.226</ele>
        <time>2013-10-27T07:22:54Z</time>
      </trkpt>
      <trkpt lat="41.370718" lon="1.964908">
        <ele>170.646</ele>
        <time>2013-10-27T07:22:56Z</time>
      </trkpt>
      <trkpt lat="41.370713" lon="1.964870">
        <ele>171.088</ele>
        <time>2013-10-27T07:22:57Z</time>
      </trkpt>
      <trkpt lat="41.370702" lon="1.964840">
        <ele>171.416</ele>
        <time>2013-10-27T07:22:58Z</time>
      </trkpt>
      <trkpt lat="41.370688" lon="1.964813">
        <ele>171.808</ele>
        <time>2013-10-27T07:22:59Z</time>
      </trkpt>
      <trkpt lat="41.370670" lon="1.964795">
        <ele>172.285</ele>
        <time>2013-10-27T07:23:00Z</time>
      </trkpt>
      <trkpt lat="41.370620" lon="1.964775">
        <ele>172.278</ele>
        <time>2013-10-27T07:23:03Z</time>
      </trkpt>
      <trkpt lat="41.370593" lon="1.964762">
        <ele>172.210</ele>
        <time>2013-10-27T07:23:05Z</time>
      </trkpt>
      <trkpt lat="41.370560" lon="1.964752">
        <ele>172.656</ele>
        <time>2013-10-27T07:23:07Z</time>
      </trkpt>
      <trkpt lat="41.370550" lon="1.964748">
        <ele>173.218</ele>
        <time>2013-10-27T07:23:08Z</time>
      </trkpt>
      <trkpt lat="41.370538" lon="1.964745">
        <ele>173.689</ele>
        <time>2013-10-27T07:23:09Z</time>
      </trkpt>
      <trkpt lat="41.370520" lon="1.964735">
        <ele>174.265</ele>
        <time>2013-10-27T07:23:10Z</time>
      </trkpt>
      <trkpt lat="41.370508" lon="1.964727">
        <ele>174.679</ele>
        <time>2013-10-27T07:23:11Z</time>
      </trkpt>
      <trkpt lat="41.370462" lon="1.964708">
        <ele>174.655</ele>
        <time>2013-10-27T07:23:14Z</time>
      </trkpt>
      <trkpt lat="41.370442" lon="1.964712">
        <ele>175.007</ele>
        <time>2013-10-27T07:23:15Z</time>
      </trkpt>
      <trkpt lat="41.370420" lon="1.964708">
        <ele>175.417</ele>
        <time>2013-10-27T07:23:16Z</time>
      </trkpt>
      <trkpt lat="41.370397" lon="1.964698">
        <ele>175.808</ele>
        <time>2013-10-27T07:23:17Z</time>
      </trkpt>
      <trkpt lat="41.370375" lon="1.964690">
        <ele>176.266</ele>
        <time>2013-10-27T07:23:18Z</time>
      </trkpt>
      <trkpt lat="41.370357" lon="1.964677">
        <ele>176.659</ele>
        <time>2013-10-27T07:23:19Z</time>
      </trkpt>
      <trkpt lat="41.370282" lon="1.964633">
        <ele>176.681</ele>
        <time>2013-10-27T07:23:23Z</time>
      </trkpt>
      <trkpt lat="41.370262" lon="1.964612">
        <ele>176.697</ele>
        <time>2013-10-27T07:23:24Z</time>
      </trkpt>
      <trkpt lat="41.370228" lon="1.964570">
        <ele>177.089</ele>
        <time>2013-10-27T07:23:26Z</time>
      </trkpt>
      <trkpt lat="41.370215" lon="1.964548">
        <ele>177.420</ele>
        <time>2013-10-27T07:23:27Z</time>
      </trkpt>
      <trkpt lat="41.370203" lon="1.964525">
        <ele>177.836</ele>
        <time>2013-10-27T07:23:28Z</time>
      </trkpt>
      <trkpt lat="41.370192" lon="1.964507">
        <ele>178.230</ele>
        <time>2013-10-27T07:23:29Z</time>
      </trkpt>
      <trkpt lat="41.370170" lon="1.964473">
        <ele>178.684</ele>
        <time>2013-10-27T07:23:30Z</time>
      </trkpt>
      <trkpt lat="41.370127" lon="1.964380">
        <ele>178.607</ele>
        <time>2013-10-27T07:23:34Z</time>
      </trkpt>
      <trkpt lat="41.370068" lon="1.964253">
        <ele>178.617</ele>
        <time>2013-10-27T07:23:38Z</time>
      </trkpt>
      <trkpt lat="41.369962" lon="1.964052">
        <ele>178.608</ele>
        <time>2013-10-27T07:23:45Z</time>
      </trkpt>
      <trkpt lat="41.369770" lon="1.963870">
        <ele>178.699</ele>
        <time>2013-10-27T07:23:52Z</time>
      </trkpt>
      <trkpt lat="41.369707" lon="1.963792">
        <ele>178.672</ele>
        <time>2013-10-27T07:23:54Z</time>
      </trkpt>
      <trkpt lat="41.369633" lon="1.963685">
        <ele>178.674</ele>
        <time>2013-10-27T07:23:56Z</time>
      </trkpt>
      <trkpt lat="41.369498" lon="1.963473">
        <ele>178.680</ele>
        <time>2013-10-27T07:23:59Z</time>
      </trkpt>
      <trkpt lat="41.369447" lon="1.963378">
        <ele>178.672</ele>
        <time>2013-10-27T07:24:00Z</time>
      </trkpt>
      <trkpt lat="41.369397" lon="1.963297">
        <ele>178.283</ele>
        <time>2013-10-27T07:24:01Z</time>
      </trkpt>
      <trkpt lat="41.369360" lon="1.963237">
        <ele>177.879</ele>
        <time>2013-10-27T07:24:02Z</time>
      </trkpt>
      <trkpt lat="41.369315" lon="1.963157">
        <ele>177.293</ele>
        <time>2013-10-27T07:24:03Z</time>
      </trkpt>
      <trkpt lat="41.369280" lon="1.963060">
        <ele>176.836</ele>
        <time>2013-10-27T07:24:04Z</time>
      </trkpt>
      <trkpt lat="41.369247" lon="1.962957">
        <ele>176.417</ele>
        <time>2013-10-27T07:24:05Z</time>
      </trkpt>
      <trkpt lat="41.369232" lon="1.962853">
        <ele>176.418</ele>
        <time>2013-10-27T07:24:06Z</time>
      </trkpt>
      <trkpt lat="41.369203" lon="1.962567">
        <ele>176.408</ele>
        <time>2013-10-27T07:24:09Z</time>
      </trkpt>
      <trkpt lat="41.369205" lon="1.962478">
        <ele>176.424</ele>
        <time>2013-10-27T07:24:10Z</time>
      </trkpt>
      <trkpt lat="41.369193" lon="1.962350">
        <ele>176.457</ele>
        <time>2013-10-27T07:24:12Z</time>
      </trkpt>
      <trkpt lat="41.369170" lon="1.962307">
        <ele>176.419</ele>
        <time>2013-10-27T07:24:13Z</time>
      </trkpt>
      <trkpt lat="41.369075" lon="1.962197">
        <ele>176.495</ele>
        <time>2013-10-27T07:24:16Z</time>
      </trkpt>
      <trkpt lat="41.369038" lon="1.962163">
        <ele>176.467</ele>
        <time>2013-10-27T07:24:17Z</time>
      </trkpt>
      <trkpt lat="41.369002" lon="1.962137">
        <ele>176.428</ele>
        <time>2013-10-27T07:24:18Z</time>
      </trkpt>
      <trkpt lat="41.368963" lon="1.962117">
        <ele>176.434</ele>
        <time>2013-10-27T07:24:19Z</time>
      </trkpt>
      <trkpt lat="41.368913" lon="1.962098">
        <ele>176.498</ele>
        <time>2013-10-27T07:24:20Z</time>
      </trkpt>
      <trkpt lat="41.368797" lon="1.962070">
        <ele>176.068</ele>
        <time>2013-10-27T07:24:22Z</time>
      </trkpt>
      <trkpt lat="41.368743" lon="1.962052">
        <ele>175.642</ele>
        <time>2013-10-27T07:24:23Z</time>
      </trkpt>
      <trkpt lat="41.368688" lon="1.962027">
        <ele>175.026</ele>
        <time>2013-10-27T07:24:24Z</time>
      </trkpt>
      <trkpt lat="41.368638" lon="1.961997">
        <ele>174.608</ele>
        <time>2013-10-27T07:24:25Z</time>
      </trkpt>
      <trkpt lat="41.368602" lon="1.961968">
        <ele>174.227</ele>
        <time>2013-10-27T07:24:26Z</time>
      </trkpt>
      <trkpt lat="41.368607" lon="1.961965">
        <ele>174.290</ele>
        <time>2013-10-27T07:24:27Z</time>
      </trkpt>
      <trkpt lat="41.368617" lon="1.961968">
        <ele>174.282</ele>
        <time>2013-10-27T07:24:28Z</time>
      </trkpt>
      <trkpt lat="41.368635" lon="1.961925">
        <ele>174.268</ele>
        <time>2013-10-27T07:25:08Z</time>
      </trkpt>
      <trkpt lat="41.368655" lon="1.961903">
        <ele>174.230</ele>
        <time>2013-10-27T07:25:09Z</time>
      </trkpt>
      <trkpt lat="41.368677" lon="1.961883">
        <ele>173.861</ele>
        <time>2013-10-27T07:25:10Z</time>
      </trkpt>
      <trkpt lat="41.368697" lon="1.961852">
        <ele>173.487</ele>
        <time>2013-10-27T07:25:11Z</time>
      </trkpt>
      <trkpt lat="41.368707" lon="1.961808">
        <ele>172.811</ele>
        <time>2013-10-27T07:25:12Z</time>
      </trkpt>
      <trkpt lat="41.368710" lon="1.961770">
        <ele>172.482</ele>
        <time>2013-10-27T07:25:13Z</time>
      </trkpt>
      <trkpt lat="41.368700" lon="1.961717">
        <ele>172.043</ele>
        <time>2013-10-27T07:25:14Z</time>
      </trkpt>
      <trkpt lat="41.368680" lon="1.961518">
        <ele>171.617</ele>
        <time>2013-10-27T07:25:17Z</time>
      </trkpt>
      <trkpt lat="41.368678" lon="1.961450">
        <ele>171.208</ele>
        <time>2013-10-27T07:25:18Z</time>
      </trkpt>
      <trkpt lat="41.368677" lon="1.961368">
        <ele>170.889</ele>
        <time>2013-10-27T07:25:19Z</time>
      </trkpt>
      <trkpt lat="41.368672" lon="1.961282">
        <ele>170.462</ele>
        <time>2013-10-27T07:25:20Z</time>
      </trkpt>
      <trkpt lat="41.368667" lon="1.961205">
        <ele>170.044</ele>
        <time>2013-10-27T07:25:21Z</time>
      </trkpt>
      <trkpt lat="41.368662" lon="1.961122">
        <ele>169.470</ele>
        <time>2013-10-27T07:25:22Z</time>
      </trkpt>
      <trkpt lat="41.368668" lon="1.961057">
        <ele>169.042</ele>
        <time>2013-10-27T07:25:23Z</time>
      </trkpt>
      <trkpt lat="41.368687" lon="1.961008">
        <ele>168.473</ele>
        <time>2013-10-27T07:25:24Z</time>
      </trkpt>
      <trkpt lat="41.368722" lon="1.960973">
        <ele>168.059</ele>
        <time>2013-10-27T07:25:25Z</time>
      </trkpt>
      <trkpt lat="41.368767" lon="1.960963">
        <ele>167.453</ele>
        <time>2013-10-27T07:25:26Z</time>
      </trkpt>
      <trkpt lat="41.368813" lon="1.960975">
        <ele>166.878</ele>
        <time>2013-10-27T07:25:27Z</time>
      </trkpt>
      <trkpt lat="41.368860" lon="1.960997">
        <ele>166.233</ele>
        <time>2013-10-27T07:25:28Z</time>
      </trkpt>
      <trkpt lat="41.368897" lon="1.961015">
        <ele>165.826</ele>
        <time>2013-10-27T07:25:29Z</time>
      </trkpt>
      <trkpt lat="41.368942" lon="1.961010">
        <ele>165.208</ele>
        <time>2013-10-27T07:25:30Z</time>
      </trkpt>
      <trkpt lat="41.368977" lon="1.960995">
        <ele>165.288</ele>
        <time>2013-10-27T07:25:31Z</time>
      </trkpt>
      <trkpt lat="41.369008" lon="1.960980">
        <ele>165.251</ele>
        <time>2013-10-27T07:25:32Z</time>
      </trkpt>
      <trkpt lat="41.369040" lon="1.960960">
        <ele>164.433</ele>
        <time>2013-10-27T07:25:33Z</time>
      </trkpt>
      <trkpt lat="41.369075" lon="1.960928">
        <ele>163.899</ele>
        <time>2013-10-27T07:25:34Z</time>
      </trkpt>
      <trkpt lat="41.369110" lon="1.960885">
        <ele>163.471</ele>
        <time>2013-10-27T07:25:35Z</time>
      </trkpt>
      <trkpt lat="41.369142" lon="1.960842">
        <ele>163.032</ele>
        <time>2013-10-27T07:25:36Z</time>
      </trkpt>
      <trkpt lat="41.369172" lon="1.960795">
        <ele>163.088</ele>
        <time>2013-10-27T07:25:37Z</time>
      </trkpt>
      <trkpt lat="41.369203" lon="1.960748">
        <ele>162.682</ele>
        <time>2013-10-27T07:25:38Z</time>
      </trkpt>
      <trkpt lat="41.369235" lon="1.960703">
        <ele>162.268</ele>
        <time>2013-10-27T07:25:39Z</time>
      </trkpt>
      <trkpt lat="41.369270" lon="1.960665">
        <ele>161.842</ele>
        <time>2013-10-27T07:25:40Z</time>
      </trkpt>
      <trkpt lat="41.369310" lon="1.960632">
        <ele>161.226</ele>
        <time>2013-10-27T07:25:41Z</time>
      </trkpt>
      <trkpt lat="41.369353" lon="1.960600">
        <ele>160.808</ele>
        <time>2013-10-27T07:25:42Z</time>
      </trkpt>
      <trkpt lat="41.369397" lon="1.960597">
        <ele>160.887</ele>
        <time>2013-10-27T07:25:43Z</time>
      </trkpt>
      <trkpt lat="41.369440" lon="1.960595">
        <ele>160.440</ele>
        <time>2013-10-27T07:25:44Z</time>
      </trkpt>
      <trkpt lat="41.369475" lon="1.960592">
        <ele>160.042</ele>
        <time>2013-10-27T07:25:45Z</time>
      </trkpt>
      <trkpt lat="41.369510" lon="1.960575">
        <ele>159.648</ele>
        <time>2013-10-27T07:25:46Z</time>
      </trkpt>
      <trkpt lat="41.369535" lon="1.960548">
        <ele>159.240</ele>
        <time>2013-10-27T07:25:47Z</time>
      </trkpt>
      <trkpt lat="41.369555" lon="1.960517">
        <ele>158.851</ele>
        <time>2013-10-27T07:25:48Z</time>
      </trkpt>
      <trkpt lat="41.369573" lon="1.960482">
        <ele>158.837</ele>
        <time>2013-10-27T07:25:49Z</time>
      </trkpt>
      <trkpt lat="41.369578" lon="1.960435">
        <ele>158.821</ele>
        <time>2013-10-27T07:25:50Z</time>
      </trkpt>
      <trkpt lat="41.369577" lon="1.960373">
        <ele>158.488</ele>
        <time>2013-10-27T07:25:51Z</time>
      </trkpt>
      <trkpt lat="41.369580" lon="1.960312">
        <ele>158.024</ele>
        <time>2013-10-27T07:25:52Z</time>
      </trkpt>
      <trkpt lat="41.369588" lon="1.960252">
        <ele>157.626</ele>
        <time>2013-10-27T07:25:53Z</time>
      </trkpt>
      <trkpt lat="41.369603" lon="1.960190">
        <ele>157.208</ele>
        <time>2013-10-27T07:25:54Z</time>
      </trkpt>
      <trkpt lat="41.369620" lon="1.960135">
        <ele>156.869</ele>
        <time>2013-10-27T07:25:55Z</time>
      </trkpt>
      <trkpt lat="41.369630" lon="1.960077">
        <ele>156.862</ele>
        <time>2013-10-27T07:25:56Z</time>
      </trkpt>
      <trkpt lat="41.369632" lon="1.960020">
        <ele>156.864</ele>
        <time>2013-10-27T07:25:57Z</time>
      </trkpt>
      <trkpt lat="41.369620" lon="1.959963">
        <ele>156.820</ele>
        <time>2013-10-27T07:25:58Z</time>
      </trkpt>
      <trkpt lat="41.369605" lon="1.959913">
        <ele>156.892</ele>
        <time>2013-10-27T07:25:59Z</time>
      </trkpt>
      <trkpt lat="41.369568" lon="1.959813">
        <ele>156.453</ele>
        <time>2013-10-27T07:26:01Z</time>
      </trkpt>
      <trkpt lat="41.369527" lon="1.959717">
        <ele>155.479</ele>
        <time>2013-10-27T07:26:02Z</time>
      </trkpt>
      <trkpt lat="41.369510" lon="1.959673">
        <ele>155.023</ele>
        <time>2013-10-27T07:26:04Z</time>
      </trkpt>
      <trkpt lat="41.369498" lon="1.959628">
        <ele>154.678</ele>
        <time>2013-10-27T07:26:05Z</time>
      </trkpt>
      <trkpt lat="41.369490" lon="1.959583">
        <ele>154.633</ele>
        <time>2013-10-27T07:26:06Z</time>
      </trkpt>
      <trkpt lat="41.369483" lon="1.959537">
        <ele>154.626</ele>
        <time>2013-10-27T07:26:07Z</time>
      </trkpt>
      <trkpt lat="41.369528" lon="1.959428">
        <ele>154.608</ele>
        <time>2013-10-27T07:26:11Z</time>
      </trkpt>
      <trkpt lat="41.369698" lon="1.959435">
        <ele>154.688</ele>
        <time>2013-10-27T07:26:16Z</time>
      </trkpt>
      <trkpt lat="41.369917" lon="1.959518">
        <ele>154.681</ele>
        <time>2013-10-27T07:26:23Z</time>
      </trkpt>
      <trkpt lat="41.370113" lon="1.959507">
        <ele>154.623</ele>
        <time>2013-10-27T07:26:28Z</time>
      </trkpt>
      <trkpt lat="41.370257" lon="1.959483">
        <ele>154.639</ele>
        <time>2013-10-27T07:26:33Z</time>
      </trkpt>
      <trkpt lat="41.370407" lon="1.959592">
        <ele>154.611</ele>
        <time>2013-10-27T07:26:38Z</time>
      </trkpt>
      <trkpt lat="41.370562" lon="1.959602">
        <ele>154.692</ele>
        <time>2013-10-27T07:26:43Z</time>
      </trkpt>
      <trkpt lat="41.370612" lon="1.959617">
        <ele>154.648</ele>
        <time>2013-10-27T07:26:45Z</time>
      </trkpt>
      <trkpt lat="41.370675" lon="1.959637">
        <ele>154.682</ele>
        <time>2013-10-27T07:26:47Z</time>
      </trkpt>
      <trkpt lat="41.370767" lon="1.959698">
        <ele>154.643</ele>
        <time>2013-10-27T07:26:50Z</time>
      </trkpt>
      <trkpt lat="41.370927" lon="1.959783">
        <ele>154.664</ele>
        <time>2013-10-27T07:26:55Z</time>
      </trkpt>
      <trkpt lat="41.370967" lon="1.959765">
        <ele>154.610</ele>
        <time>2013-10-27T07:26:56Z</time>
      </trkpt>
      <trkpt lat="41.371065" lon="1.959695">
        <ele>154.608</ele>
        <time>2013-10-27T07:26:58Z</time>
      </trkpt>
      <trkpt lat="41.371232" lon="1.959613">
        <ele>154.275</ele>
        <time>2013-10-27T07:27:01Z</time>
      </trkpt>
      <trkpt lat="41.371288" lon="1.959588">
        <ele>153.888</ele>
        <time>2013-10-27T07:27:02Z</time>
      </trkpt>
      <trkpt lat="41.371340" lon="1.959555">
        <ele>153.440</ele>
        <time>2013-10-27T07:27:03Z</time>
      </trkpt>
      <trkpt lat="41.371392" lon="1.959512">
        <ele>153.056</ele>
        <time>2013-10-27T07:27:04Z</time>
      </trkpt>
      <trkpt lat="41.371447" lon="1.959463">
        <ele>152.628</ele>
        <time>2013-10-27T07:27:05Z</time>
      </trkpt>
      <trkpt lat="41.371508" lon="1.959415">
        <ele>152.269</ele>
        <time>2013-10-27T07:27:06Z</time>
      </trkpt>
      <trkpt lat="41.371578" lon="1.959390">
        <ele>151.645</ele>
        <time>2013-10-27T07:27:07Z</time>
      </trkpt>
      <trkpt lat="41.371658" lon="1.959388">
        <ele>151.219</ele>
        <time>2013-10-27T07:27:08Z</time>
      </trkpt>
      <trkpt lat="41.371732" lon="1.959402">
        <ele>150.663</ele>
        <time>2013-10-27T07:27:09Z</time>
      </trkpt>
      <trkpt lat="41.371798" lon="1.959418">
        <ele>150.044</ele>
        <time>2013-10-27T07:27:10Z</time>
      </trkpt>
      <trkpt lat="41.371867" lon="1.959447">
        <ele>149.218</ele>
        <time>2013-10-27T07:27:11Z</time>
      </trkpt>
      <trkpt lat="41.371933" lon="1.959492">
        <ele>148.408</ele>
        <time>2013-10-27T07:27:12Z</time>
      </trkpt>
      <trkpt lat="41.371995" lon="1.959557">
        <ele>147.097</ele>
        <time>2013-10-27T07:27:13Z</time>
      </trkpt>
      <trkpt lat="41.372052" lon="1.959637">
        <ele>146.280</ele>
        <time>2013-10-27T07:27:14Z</time>
      </trkpt>
      <trkpt lat="41.372103" lon="1.959728">
        <ele>145.472</ele>
        <time>2013-10-27T07:27:15Z</time>
      </trkpt>
      <trkpt lat="41.372152" lon="1.959830">
        <ele>145.038</ele>
        <time>2013-10-27T07:27:16Z</time>
      </trkpt>
      <trkpt lat="41.372195" lon="1.959943">
        <ele>144.440</ele>
        <time>2013-10-27T07:27:17Z</time>
      </trkpt>
      <trkpt lat="41.372235" lon="1.960060">
        <ele>144.011</ele>
        <time>2013-10-27T07:27:18Z</time>
      </trkpt>
      <trkpt lat="41.372272" lon="1.960172">
        <ele>143.447</ele>
        <time>2013-10-27T07:27:19Z</time>
      </trkpt>
      <trkpt lat="41.372312" lon="1.960268">
        <ele>142.871</ele>
        <time>2013-10-27T07:27:20Z</time>
      </trkpt>
      <trkpt lat="41.372355" lon="1.960347">
        <ele>142.232</ele>
        <time>2013-10-27T07:27:21Z</time>
      </trkpt>
      <trkpt lat="41.372407" lon="1.960393">
        <ele>141.692</ele>
        <time>2013-10-27T07:27:22Z</time>
      </trkpt>
      <trkpt lat="41.372455" lon="1.960408">
        <ele>141.011</ele>
        <time>2013-10-27T07:27:23Z</time>
      </trkpt>
      <trkpt lat="41.372513" lon="1.960407">
        <ele>140.208</ele>
        <time>2013-10-27T07:27:24Z</time>
      </trkpt>
      <trkpt lat="41.372577" lon="1.960393">
        <ele>139.644</ele>
        <time>2013-10-27T07:27:25Z</time>
      </trkpt>
      <trkpt lat="41.372638" lon="1.960375">
        <ele>138.837</ele>
        <time>2013-10-27T07:27:26Z</time>
      </trkpt>
      <trkpt lat="41.372700" lon="1.960337">
        <ele>138.249</ele>
        <time>2013-10-27T07:27:27Z</time>
      </trkpt>
      <trkpt lat="41.372755" lon="1.960278">
        <ele>137.875</ele>
        <time>2013-10-27T07:27:28Z</time>
      </trkpt>
      <trkpt lat="41.372807" lon="1.960203">
        <ele>137.267</ele>
        <time>2013-10-27T07:27:29Z</time>
      </trkpt>
      <trkpt lat="41.372847" lon="1.960137">
        <ele>136.858</ele>
        <time>2013-10-27T07:27:30Z</time>
      </trkpt>
      <trkpt lat="41.372873" lon="1.960085">
        <ele>136.024</ele>
        <time>2013-10-27T07:27:31Z</time>
      </trkpt>
      <trkpt lat="41.372888" lon="1.960043">
        <ele>135.468</ele>
        <time>2013-10-27T07:27:32Z</time>
      </trkpt>
      <trkpt lat="41.372892" lon="1.960007">
        <ele>134.899</ele>
        <time>2013-10-27T07:27:33Z</time>
      </trkpt>
      <trkpt lat="41.372888" lon="1.959980">
        <ele>134.007</ele>
        <time>2013-10-27T07:27:34Z</time>
      </trkpt>
      <trkpt lat="41.372883" lon="1.959958">
        <ele>133.427</ele>
        <time>2013-10-27T07:27:35Z</time>
      </trkpt>
      <trkpt lat="41.372882" lon="1.959947">
        <ele>133.408</ele>
        <time>2013-10-27T07:27:36Z</time>
      </trkpt>
      <trkpt lat="41.372888" lon="1.959922">
        <ele>133.490</ele>
        <time>2013-10-27T07:27:39Z</time>
      </trkpt>
      <trkpt lat="41.372877" lon="1.959893">
        <ele>133.423</ele>
        <time>2013-10-27T07:27:55Z</time>
      </trkpt>
      <trkpt lat="41.372862" lon="1.959857">
        <ele>133.465</ele>
        <time>2013-10-27T07:27:56Z</time>
      </trkpt>
      <trkpt lat="41.372852" lon="1.959815">
        <ele>133.451</ele>
        <time>2013-10-27T07:27:57Z</time>
      </trkpt>
      <trkpt lat="41.372830" lon="1.959722">
        <ele>133.433</ele>
        <time>2013-10-27T07:27:59Z</time>
      </trkpt>
      <trkpt lat="41.372815" lon="1.959572">
        <ele>133.494</ele>
        <time>2013-10-27T07:28:02Z</time>
      </trkpt>
      <trkpt lat="41.372807" lon="1.959403">
        <ele>133.480</ele>
        <time>2013-10-27T07:28:05Z</time>
      </trkpt>
      <trkpt lat="41.372847" lon="1.959312">
        <ele>133.454</ele>
        <time>2013-10-27T07:28:07Z</time>
      </trkpt>
      <trkpt lat="41.372957" lon="1.959260">
        <ele>133.493</ele>
        <time>2013-10-27T07:28:10Z</time>
      </trkpt>
      <trkpt lat="41.372993" lon="1.959258">
        <ele>133.465</ele>
        <time>2013-10-27T07:28:11Z</time>
      </trkpt>
      <trkpt lat="41.373078" lon="1.959250">
        <ele>133.421</ele>
        <time>2013-10-27T07:28:13Z</time>
      </trkpt>
      <trkpt lat="41.373125" lon="1.959242">
        <ele>133.408</ele>
        <time>2013-10-27T07:28:14Z</time>
      </trkpt>
      <trkpt lat="41.373170" lon="1.959227">
        <ele>133.420</ele>
        <time>2013-10-27T07:28:15Z</time>
      </trkpt>
      <trkpt lat="41.373217" lon="1.959208">
        <ele>133.423</ele>
        <time>2013-10-27T07:28:16Z</time>
      </trkpt>
      <trkpt lat="41.373260" lon="1.959185">
        <ele>133.465</ele>
        <time>2013-10-27T07:28:17Z</time>
      </trkpt>
      <trkpt lat="41.373333" lon="1.959123">
        <ele>133.471</ele>
        <time>2013-10-27T07:28:19Z</time>
      </trkpt>
      <trkpt lat="41.373365" lon="1.959097">
        <ele>133.413</ele>
        <time>2013-10-27T07:28:20Z</time>
      </trkpt>
      <trkpt lat="41.373428" lon="1.959053">
        <ele>133.484</ele>
        <time>2013-10-27T07:28:22Z</time>
      </trkpt>
      <trkpt lat="41.373575" lon="1.958990">
        <ele>133.450</ele>
        <time>2013-10-27T07:28:26Z</time>
      </trkpt>
      <trkpt lat="41.373663" lon="1.958890">
        <ele>133.454</ele>
        <time>2013-10-27T07:28:30Z</time>
      </trkpt>
      <trkpt lat="41.373705" lon="1.958735">
        <ele>133.087</ele>
        <time>2013-10-27T07:28:34Z</time>
      </trkpt>
      <trkpt lat="41.373710" lon="1.958685">
        <ele>132.642</ele>
        <time>2013-10-27T07:28:35Z</time>
      </trkpt>
      <trkpt lat="41.373715" lon="1.958635">
        <ele>132.226</ele>
        <time>2013-10-27T07:28:36Z</time>
      </trkpt>
      <trkpt lat="41.373715" lon="1.958592">
        <ele>131.808</ele>
        <time>2013-10-27T07:28:37Z</time>
      </trkpt>
      <trkpt lat="41.373715" lon="1.958558">
        <ele>131.429</ele>
        <time>2013-10-27T07:28:38Z</time>
      </trkpt>
      <trkpt lat="41.373703" lon="1.958493">
        <ele>131.462</ele>
        <time>2013-10-27T07:28:40Z</time>
      </trkpt>
      <trkpt lat="41.373687" lon="1.958460">
        <ele>131.444</ele>
        <time>2013-10-27T07:28:41Z</time>
      </trkpt>
      <trkpt lat="41.373600" lon="1.958380">
        <ele>131.430</ele>
        <time>2013-10-27T07:28:44Z</time>
      </trkpt>
      <trkpt lat="41.373515" lon="1.958268">
        <ele>131.442</ele>
        <time>2013-10-27T07:28:47Z</time>
      </trkpt>
      <trkpt lat="41.373507" lon="1.958218">
        <ele>131.483</ele>
        <time>2013-10-27T07:28:48Z</time>
      </trkpt>
      <trkpt lat="41.373525" lon="1.958010">
        <ele>131.449</ele>
        <time>2013-10-27T07:28:52Z</time>
      </trkpt>
      <trkpt lat="41.373483" lon="1.957885">
        <ele>131.463</ele>
        <time>2013-10-27T07:28:55Z</time>
      </trkpt>
      <trkpt lat="41.373473" lon="1.957845">
        <ele>131.418</ele>
        <time>2013-10-27T07:28:56Z</time>
      </trkpt>
      <trkpt lat="41.373462" lon="1.957648">
        <ele>131.498</ele>
        <time>2013-10-27T07:29:01Z</time>
      </trkpt>
      <trkpt lat="41.373498" lon="1.957440">
        <ele>131.417</ele>
        <time>2013-10-27T07:29:06Z</time>
      </trkpt>
      <trkpt lat="41.373498" lon="1.957402">
        <ele>131.408</ele>
        <time>2013-10-27T07:29:07Z</time>
      </trkpt>
      <trkpt lat="41.373478" lon="1.957283">
        <ele>131.452</ele>
        <time>2013-10-27T07:29:10Z</time>
      </trkpt>
      <trkpt lat="41.373437" lon="1.957207">
        <ele>131.475</ele>
        <time>2013-10-27T07:29:12Z</time>
      </trkpt>
      <trkpt lat="41.373408" lon="1.957082">
        <ele>131.477</ele>
        <time>2013-10-27T07:29:15Z</time>
      </trkpt>
      <trkpt lat="41.373415" lon="1.957037">
        <ele>131.443</ele>
        <time>2013-10-27T07:29:16Z</time>
      </trkpt>
      <trkpt lat="41.373442" lon="1.956923">
        <ele>131.485</ele>
        <time>2013-10-27T07:29:19Z</time>
      </trkpt>
      <trkpt lat="41.373462" lon="1.956895">
        <ele>131.426</ele>
        <time>2013-10-27T07:29:20Z</time>
      </trkpt>
      <trkpt lat="41.373535" lon="1.956793">
        <ele>131.462</ele>
        <time>2013-10-27T07:29:24Z</time>
      </trkpt>
      <trkpt lat="41.373553" lon="1.956762">
        <ele>131.416</ele>
        <time>2013-10-27T07:29:25Z</time>
      </trkpt>
      <trkpt lat="41.373613" lon="1.956660">
        <ele>131.471</ele>
        <time>2013-10-27T07:29:29Z</time>
      </trkpt>
      <trkpt lat="41.373673" lon="1.956510">
        <ele>131.441</ele>
        <time>2013-10-27T07:29:34Z</time>
      </trkpt>
      <trkpt lat="41.373758" lon="1.956325">
        <ele>131.415</ele>
        <time>2013-10-27T07:29:41Z</time>
      </trkpt>
      <trkpt lat="41.373765" lon="1.956298">
        <ele>131.808</ele>
        <time>2013-10-27T07:29:42Z</time>
      </trkpt>
      <trkpt lat="41.373775" lon="1.956268">
        <ele>132.218</ele>
        <time>2013-10-27T07:29:43Z</time>
      </trkpt>
      <trkpt lat="41.373787" lon="1.956242">
        <ele>133.021</ele>
        <time>2013-10-27T07:29:44Z</time>
      </trkpt>
      <trkpt lat="41.373797" lon="1.956223">
        <ele>133.493</ele>
        <time>2013-10-27T07:29:45Z</time>
      </trkpt>
      <trkpt lat="41.373805" lon="1.956203">
        <ele>133.439</ele>
        <time>2013-10-27T07:29:46Z</time>
      </trkpt>
      <trkpt lat="41.373798" lon="1.956113">
        <ele>133.481</ele>
        <time>2013-10-27T07:29:50Z</time>
      </trkpt>
      <trkpt lat="41.373792" lon="1.956090">
        <ele>133.462</ele>
        <time>2013-10-27T07:29:51Z</time>
      </trkpt>
      <trkpt lat="41.373790" lon="1.956062">
        <ele>133.438</ele>
        <time>2013-10-27T07:29:52Z</time>
      </trkpt>
      <trkpt lat="41.373777" lon="1.955955">
        <ele>133.452</ele>
        <time>2013-10-27T07:29:56Z</time>
      </trkpt>
      <trkpt lat="41.373727" lon="1.955830">
        <ele>133.491</ele>
        <time>2013-10-27T07:30:02Z</time>
      </trkpt>
      <trkpt lat="41.373710" lon="1.955793">
        <ele>133.481</ele>
        <time>2013-10-27T07:30:04Z</time>
      </trkpt>
      <trkpt lat="41.373698" lon="1.955750">
        <ele>133.819</ele>
        <time>2013-10-27T07:30:07Z</time>
      </trkpt>
      <trkpt lat="41.373693" lon="1.955732">
        <ele>134.208</ele>
        <time>2013-10-27T07:30:08Z</time>
      </trkpt>
      <trkpt lat="41.373688" lon="1.955717">
        <ele>135.080</ele>
        <time>2013-10-27T07:30:09Z</time>
      </trkpt>
      <trkpt lat="41.373685" lon="1.955702">
        <ele>135.453</ele>
        <time>2013-10-27T07:30:10Z</time>
      </trkpt>
      <trkpt lat="41.373682" lon="1.955693">
        <ele>135.495</ele>
        <time>2013-10-27T07:30:11Z</time>
      </trkpt>
      <trkpt lat="41.373650" lon="1.955552">
        <ele>135.441</ele>
        <time>2013-10-27T07:30:47Z</time>
      </trkpt>
      <trkpt lat="41.373643" lon="1.955535">
        <ele>135.413</ele>
        <time>2013-10-27T07:30:48Z</time>
      </trkpt>
      <trkpt lat="41.373632" lon="1.955515">
        <ele>135.484</ele>
        <time>2013-10-27T07:30:49Z</time>
      </trkpt>
      <trkpt lat="41.373607" lon="1.955465">
        <ele>135.420</ele>
        <time>2013-10-27T07:30:51Z</time>
      </trkpt>
      <trkpt lat="41.373552" lon="1.955320">
        <ele>135.494</ele>
        <time>2013-10-27T07:30:54Z</time>
      </trkpt>
      <trkpt lat="41.373538" lon="1.955262">
        <ele>135.412</ele>
        <time>2013-10-27T07:30:55Z</time>
      </trkpt>
      <trkpt lat="41.373505" lon="1.955145">
        <ele>135.032</ele>
        <time>2013-10-27T07:30:57Z</time>
      </trkpt>
      <trkpt lat="41.373485" lon="1.955092">
        <ele>134.205</ele>
        <time>2013-10-27T07:30:58Z</time>
      </trkpt>
      <trkpt lat="41.373460" lon="1.955040">
        <ele>133.808</ele>
        <time>2013-10-27T07:30:59Z</time>
      </trkpt>
      <trkpt lat="41.373422" lon="1.954992">
        <ele>133.412</ele>
        <time>2013-10-27T07:31:00Z</time>
      </trkpt>
      <trkpt lat="41.373307" lon="1.954852">
        <ele>133.465</ele>
        <time>2013-10-27T07:31:03Z</time>
      </trkpt>
      <trkpt lat="41.373277" lon="1.954805">
        <ele>133.427</ele>
        <time>2013-10-27T07:31:04Z</time>
      </trkpt>
      <trkpt lat="41.373178" lon="1.954687">
        <ele>133.453</ele>
        <time>2013-10-27T07:31:07Z</time>
      </trkpt>
      <trkpt lat="41.373137" lon="1.954655">
        <ele>133.485</ele>
        <time>2013-10-27T07:31:08Z</time>
      </trkpt>
      <trkpt lat="41.373092" lon="1.954625">
        <ele>133.446</ele>
        <time>2013-10-27T07:31:09Z</time>
      </trkpt>
      <trkpt lat="41.373040" lon="1.954595">
        <ele>133.072</ele>
        <time>2013-10-27T07:31:10Z</time>
      </trkpt>
      <trkpt lat="41.372988" lon="1.954562">
        <ele>132.676</ele>
        <time>2013-10-27T07:31:11Z</time>
      </trkpt>
      <trkpt lat="41.372942" lon="1.954520">
        <ele>132.073</ele>
        <time>2013-10-27T07:31:12Z</time>
      </trkpt>
      <trkpt lat="41.372908" lon="1.954470">
        <ele>131.685</ele>
        <time>2013-10-27T07:31:13Z</time>
      </trkpt>
      <trkpt lat="41.372893" lon="1.954430">
        <ele>131.213</ele>
        <time>2013-10-27T07:31:14Z</time>
      </trkpt>
      <trkpt lat="41.372892" lon="1.954403">
        <ele>131.208</ele>
        <time>2013-10-27T07:31:15Z</time>
      </trkpt>
      <trkpt lat="41.372897" lon="1.954382">
        <ele>131.248</ele>
        <time>2013-10-27T07:31:16Z</time>
      </trkpt>
      <trkpt lat="41.372900" lon="1.954363">
        <ele>131.281</ele>
        <time>2013-10-27T07:31:17Z</time>
      </trkpt>
      <trkpt lat="41.372908" lon="1.954352">
        <ele>131.293</ele>
        <time>2013-10-27T07:31:18Z</time>
      </trkpt>
      <trkpt lat="41.372918" lon="1.954343">
        <ele>131.249</ele>
        <time>2013-10-27T07:31:19Z</time>
      </trkpt>
      <trkpt lat="41.372930" lon="1.954335">
        <ele>131.211</ele>
        <time>2013-10-27T07:31:20Z</time>
      </trkpt>
      <trkpt lat="41.372940" lon="1.954327">
        <ele>131.222</ele>
        <time>2013-10-27T07:31:21Z</time>
      </trkpt>
      <trkpt lat="41.372948" lon="1.954318">
        <ele>131.238</ele>
        <time>2013-10-27T07:31:22Z</time>
      </trkpt>
      <trkpt lat="41.372955" lon="1.954308">
        <ele>131.222</ele>
        <time>2013-10-27T07:31:23Z</time>
      </trkpt>
      <trkpt lat="41.372962" lon="1.954295">
        <ele>131.234</ele>
        <time>2013-10-27T07:31:24Z</time>
      </trkpt>
      <trkpt lat="41.372980" lon="1.954228">
        <ele>131.655</ele>
        <time>2013-10-27T07:31:26Z</time>
      </trkpt>
      <trkpt lat="41.372982" lon="1.954207">
        <ele>132.210</ele>
        <time>2013-10-27T07:31:27Z</time>
      </trkpt>
      <trkpt lat="41.372983" lon="1.954192">
        <ele>132.608</ele>
        <time>2013-10-27T07:31:28Z</time>
      </trkpt>
      <trkpt lat="41.372987" lon="1.954178">
        <ele>133.094</ele>
        <time>2013-10-27T07:31:29Z</time>
      </trkpt>
      <trkpt lat="41.372990" lon="1.954168">
        <ele>133.467</ele>
        <time>2013-10-27T07:31:30Z</time>
      </trkpt>
      <trkpt lat="41.373008" lon="1.954133">
        <ele>133.449</ele>
        <time>2013-10-27T07:31:33Z</time>
      </trkpt>
      <trkpt lat="41.373015" lon="1.954112">
        <ele>133.415</ele>
        <time>2013-10-27T07:31:34Z</time>
      </trkpt>
      <trkpt lat="41.373020" lon="1.954048">
        <ele>133.827</ele>
        <time>2013-10-27T07:31:37Z</time>
      </trkpt>
      <trkpt lat="41.373020" lon="1.954023">
        <ele>134.258</ele>
        <time>2013-10-27T07:31:38Z</time>
      </trkpt>
      <trkpt lat="41.373020" lon="1.953998">
        <ele>134.634</ele>
        <time>2013-10-27T07:31:39Z</time>
      </trkpt>
      <trkpt lat="41.373018" lon="1.953978">
        <ele>135.258</ele>
        <time>2013-10-27T07:31:40Z</time>
      </trkpt>
      <trkpt lat="41.373018" lon="1.953962">
        <ele>135.669</ele>
        <time>2013-10-27T07:31:41Z</time>
      </trkpt>
      <trkpt lat="41.373013" lon="1.953912">
        <ele>135.604</ele>
        <time>2013-10-27T07:31:44Z</time>
      </trkpt>
      <trkpt lat="41.373010" lon="1.953873">
        <ele>135.624</ele>
        <time>2013-10-27T07:31:46Z</time>
      </trkpt>
      <trkpt lat="41.372993" lon="1.953790">
        <ele>136.008</ele>
        <time>2013-10-27T07:31:50Z</time>
      </trkpt>
      <trkpt lat="41.372992" lon="1.953767">
        <ele>136.447</ele>
        <time>2013-10-27T07:31:51Z</time>
      </trkpt>
      <trkpt lat="41.372995" lon="1.953742">
        <ele>136.890</ele>
        <time>2013-10-27T07:31:52Z</time>
      </trkpt>
      <trkpt lat="41.372993" lon="1.953717">
        <ele>137.262</ele>
        <time>2013-10-27T07:31:53Z</time>
      </trkpt>
      <trkpt lat="41.372995" lon="1.953693">
        <ele>137.618</ele>
        <time>2013-10-27T07:31:54Z</time>
      </trkpt>
      <trkpt lat="41.373032" lon="1.953628">
        <ele>137.610</ele>
        <time>2013-10-27T07:31:57Z</time>
      </trkpt>
      <trkpt lat="41.373055" lon="1.953628">
        <ele>137.621</ele>
        <time>2013-10-27T07:31:58Z</time>
      </trkpt>
      <trkpt lat="41.373118" lon="1.953667">
        <ele>137.697</ele>
        <time>2013-10-27T07:32:01Z</time>
      </trkpt>
      <trkpt lat="41.373158" lon="1.953707">
        <ele>137.651</ele>
        <time>2013-10-27T07:32:03Z</time>
      </trkpt>
      <trkpt lat="41.373312" lon="1.953772">
        <ele>137.256</ele>
        <time>2013-10-27T07:32:06Z</time>
      </trkpt>
      <trkpt lat="41.373368" lon="1.953772">
        <ele>136.859</ele>
        <time>2013-10-27T07:32:08Z</time>
      </trkpt>
      <trkpt lat="41.373423" lon="1.953772">
        <ele>136.414</ele>
        <time>2013-10-27T07:32:09Z</time>
      </trkpt>
      <trkpt lat="41.373477" lon="1.953777">
        <ele>136.008</ele>
        <time>2013-10-27T07:32:10Z</time>
      </trkpt>
      <trkpt lat="41.373528" lon="1.953780">
        <ele>135.046</ele>
        <time>2013-10-27T07:32:11Z</time>
      </trkpt>
      <trkpt lat="41.373577" lon="1.953790">
        <ele>134.649</ele>
        <time>2013-10-27T07:32:12Z</time>
      </trkpt>
      <trkpt lat="41.373620" lon="1.953805">
        <ele>134.251</ele>
        <time>2013-10-27T07:32:13Z</time>
      </trkpt>
      <trkpt lat="41.373658" lon="1.953817">
        <ele>133.887</ele>
        <time>2013-10-27T07:32:14Z</time>
      </trkpt>
      <trkpt lat="41.373697" lon="1.953820">
        <ele>133.299</ele>
        <time>2013-10-27T07:32:15Z</time>
      </trkpt>
      <trkpt lat="41.373735" lon="1.953817">
        <ele>132.810</ele>
        <time>2013-10-27T07:32:16Z</time>
      </trkpt>
      <trkpt lat="41.373770" lon="1.953810">
        <ele>132.416</ele>
        <time>2013-10-27T07:32:17Z</time>
      </trkpt>
      <trkpt lat="41.373802" lon="1.953805">
        <ele>132.050</ele>
        <time>2013-10-27T07:32:18Z</time>
      </trkpt>
      <trkpt lat="41.373827" lon="1.953795">
        <ele>131.654</ele>
        <time>2013-10-27T07:32:19Z</time>
      </trkpt>
      <trkpt lat="41.373850" lon="1.953790">
        <ele>131.256</ele>
        <time>2013-10-27T07:32:20Z</time>
      </trkpt>
      <trkpt lat="41.373907" lon="1.953753">
        <ele>131.211</ele>
        <time>2013-10-27T07:32:23Z</time>
      </trkpt>
      <trkpt lat="41.373933" lon="1.953705">
        <ele>131.208</ele>
        <time>2013-10-27T07:32:27Z</time>
      </trkpt>
      <trkpt lat="41.373933" lon="1.953685">
        <ele>131.256</ele>
        <time>2013-10-27T07:32:28Z</time>
      </trkpt>
      <trkpt lat="41.373932" lon="1.953670">
        <ele>131.279</ele>
        <time>2013-10-27T07:32:29Z</time>
      </trkpt>
      <trkpt lat="41.373902" lon="1.953650">
        <ele>131.211</ele>
        <time>2013-10-27T07:32:32Z</time>
      </trkpt>
      <trkpt lat="41.373888" lon="1.953642">
        <ele>131.237</ele>
        <time>2013-10-27T07:32:33Z</time>
      </trkpt>
      <trkpt lat="41.373862" lon="1.953630">
        <ele>131.259</ele>
        <time>2013-10-27T07:32:35Z</time>
      </trkpt>
      <trkpt lat="41.373833" lon="1.953618">
        <ele>131.280</ele>
        <time>2013-10-27T07:32:37Z</time>
      </trkpt>
      <trkpt lat="41.373808" lon="1.953603">
        <ele>131.226</ele>
        <time>2013-10-27T07:32:39Z</time>
      </trkpt>
      <trkpt lat="41.373775" lon="1.953577">
        <ele>131.220</ele>
        <time>2013-10-27T07:32:42Z</time>
      </trkpt>
      <trkpt lat="41.373750" lon="1.953552">
        <ele>131.699</ele>
        <time>2013-10-27T07:32:44Z</time>
      </trkpt>
      <trkpt lat="41.373735" lon="1.953542">
        <ele>132.007</ele>
        <time>2013-10-27T07:32:45Z</time>
      </trkpt>
      <trkpt lat="41.373722" lon="1.953533">
        <ele>132.427</ele>
        <time>2013-10-27T07:32:46Z</time>
      </trkpt>
      <trkpt lat="41.373707" lon="1.953527">
        <ele>132.808</ele>
        <time>2013-10-27T07:32:47Z</time>
      </trkpt>
      <trkpt lat="41.373690" lon="1.953517">
        <ele>133.250</ele>
        <time>2013-10-27T07:32:48Z</time>
      </trkpt>
      <trkpt lat="41.373668" lon="1.953497">
        <ele>133.253</ele>
        <time>2013-10-27T07:32:50Z</time>
      </trkpt>
      <trkpt lat="41.373657" lon="1.953490">
        <ele>133.295</ele>
        <time>2013-10-27T07:32:51Z</time>
      </trkpt>
      <trkpt lat="41.373638" lon="1.953478">
        <ele>133.621</ele>
        <time>2013-10-27T07:32:53Z</time>
      </trkpt>
      <trkpt lat="41.373628" lon="1.953465">
        <ele>134.223</ele>
        <time>2013-10-27T07:32:54Z</time>
      </trkpt>
      <trkpt lat="41.373620" lon="1.953452">
        <ele>134.684</ele>
        <time>2013-10-27T07:32:55Z</time>
      </trkpt>
      <trkpt lat="41.373605" lon="1.953440">
        <ele>135.020</ele>
        <time>2013-10-27T07:32:56Z</time>
      </trkpt>
      <trkpt lat="41.373592" lon="1.953433">
        <ele>135.494</ele>
        <time>2013-10-27T07:32:57Z</time>
      </trkpt>
      <trkpt lat="41.373572" lon="1.953428">
        <ele>135.431</ele>
        <time>2013-10-27T07:32:59Z</time>
      </trkpt>
      <trkpt lat="41.373560" lon="1.953423">
        <ele>135.861</ele>
        <time>2013-10-27T07:33:00Z</time>
      </trkpt>
      <trkpt lat="41.373548" lon="1.953418">
        <ele>136.207</ele>
        <time>2013-10-27T07:33:01Z</time>
      </trkpt>
      <trkpt lat="41.373535" lon="1.953412">
        <ele>136.608</ele>
        <time>2013-10-27T07:33:02Z</time>
      </trkpt>
      <trkpt lat="41.373522" lon="1.953403">
        <ele>137.024</ele>
        <time>2013-10-27T07:33:03Z</time>
      </trkpt>
      <trkpt lat="41.373510" lon="1.953398">
        <ele>137.497</ele>
        <time>2013-10-27T07:33:04Z</time>
      </trkpt>
      <trkpt lat="41.373463" lon="1.953385">
        <ele>137.499</ele>
        <time>2013-10-27T07:33:08Z</time>
      </trkpt>
      <trkpt lat="41.373450" lon="1.953377">
        <ele>137.885</ele>
        <time>2013-10-27T07:33:09Z</time>
      </trkpt>
      <trkpt lat="41.373440" lon="1.953368">
        <ele>138.297</ele>
        <time>2013-10-27T07:33:10Z</time>
      </trkpt>
      <trkpt lat="41.373428" lon="1.953357">
        <ele>138.648</ele>
        <time>2013-10-27T07:33:11Z</time>
      </trkpt>
      <trkpt lat="41.373417" lon="1.953350">
        <ele>139.284</ele>
        <time>2013-10-27T07:33:12Z</time>
      </trkpt>
      <trkpt lat="41.373407" lon="1.953343">
        <ele>139.618</ele>
        <time>2013-10-27T07:33:13Z</time>
      </trkpt>
      <trkpt lat="41.373397" lon="1.953332">
        <ele>139.611</ele>
        <time>2013-10-27T07:33:14Z</time>
      </trkpt>
      <trkpt lat="41.373378" lon="1.953268">
        <ele>140.021</ele>
        <time>2013-10-27T07:33:17Z</time>
      </trkpt>
      <trkpt lat="41.373377" lon="1.953248">
        <ele>140.403</ele>
        <time>2013-10-27T07:33:18Z</time>
      </trkpt>
      <trkpt lat="41.373373" lon="1.953232">
        <ele>140.808</ele>
        <time>2013-10-27T07:33:19Z</time>
      </trkpt>
      <trkpt lat="41.373373" lon="1.953215">
        <ele>141.262</ele>
        <time>2013-10-27T07:33:20Z</time>
      </trkpt>
      <trkpt lat="41.373378" lon="1.953202">
        <ele>141.655</ele>
        <time>2013-10-27T07:33:21Z</time>
      </trkpt>
      <trkpt lat="41.373382" lon="1.953185">
        <ele>141.657</ele>
        <time>2013-10-27T07:33:22Z</time>
      </trkpt>
      <trkpt lat="41.373392" lon="1.953157">
        <ele>141.663</ele>
        <time>2013-10-27T07:33:24Z</time>
      </trkpt>
      <trkpt lat="41.373400" lon="1.953143">
        <ele>142.035</ele>
        <time>2013-10-27T07:33:25Z</time>
      </trkpt>
      <trkpt lat="41.373408" lon="1.953130">
        <ele>142.416</ele>
        <time>2013-10-27T07:33:26Z</time>
      </trkpt>
      <trkpt lat="41.373417" lon="1.953117">
        <ele>142.822</ele>
        <time>2013-10-27T07:33:27Z</time>
      </trkpt>
      <trkpt lat="41.373423" lon="1.953103">
        <ele>143.246</ele>
        <time>2013-10-27T07:33:28Z</time>
      </trkpt>
      <trkpt lat="41.373432" lon="1.953087">
        <ele>143.668</ele>
        <time>2013-10-27T07:33:29Z</time>
      </trkpt>
      <trkpt lat="41.373448" lon="1.953060">
        <ele>143.642</ele>
        <time>2013-10-27T07:33:31Z</time>
      </trkpt>
      <trkpt lat="41.373457" lon="1.953043">
        <ele>144.026</ele>
        <time>2013-10-27T07:33:32Z</time>
      </trkpt>
      <trkpt lat="41.373463" lon="1.953023">
        <ele>144.408</ele>
        <time>2013-10-27T07:33:33Z</time>
      </trkpt>
      <trkpt lat="41.373472" lon="1.953007">
        <ele>144.877</ele>
        <time>2013-10-27T07:33:34Z</time>
      </trkpt>
      <trkpt lat="41.373480" lon="1.952992">
        <ele>145.250</ele>
        <time>2013-10-27T07:33:35Z</time>
      </trkpt>
      <trkpt lat="41.373487" lon="1.952975">
        <ele>145.662</ele>
        <time>2013-10-27T07:33:36Z</time>
      </trkpt>
      <trkpt lat="41.373490" lon="1.952960">
        <ele>145.698</ele>
        <time>2013-10-27T07:33:37Z</time>
      </trkpt>
      <trkpt lat="41.373517" lon="1.952880">
        <ele>146.260</ele>
        <time>2013-10-27T07:33:42Z</time>
      </trkpt>
      <trkpt lat="41.373523" lon="1.952865">
        <ele>146.651</ele>
        <time>2013-10-27T07:33:43Z</time>
      </trkpt>
      <trkpt lat="41.373528" lon="1.952853">
        <ele>147.067</ele>
        <time>2013-10-27T07:33:44Z</time>
      </trkpt>
      <trkpt lat="41.373538" lon="1.952837">
        <ele>147.491</ele>
        <time>2013-10-27T07:33:45Z</time>
      </trkpt>
      <trkpt lat="41.373552" lon="1.952812">
        <ele>148.083</ele>
        <time>2013-10-27T07:33:46Z</time>
      </trkpt>
      <trkpt lat="41.373605" lon="1.952717">
        <ele>148.025</ele>
        <time>2013-10-27T07:33:50Z</time>
      </trkpt>
      <trkpt lat="41.373647" lon="1.952657">
        <ele>148.417</ele>
        <time>2013-10-27T07:33:53Z</time>
      </trkpt>
      <trkpt lat="41.373662" lon="1.952643">
        <ele>148.808</ele>
        <time>2013-10-27T07:33:54Z</time>
      </trkpt>
      <trkpt lat="41.373677" lon="1.952628">
        <ele>149.289</ele>
        <time>2013-10-27T07:33:55Z</time>
      </trkpt>
      <trkpt lat="41.373697" lon="1.952613">
        <ele>149.612</ele>
        <time>2013-10-27T07:33:56Z</time>
      </trkpt>
      <trkpt lat="41.373713" lon="1.952603">
        <ele>150.284</ele>
        <time>2013-10-27T07:33:57Z</time>
      </trkpt>
      <trkpt lat="41.373723" lon="1.952588">
        <ele>150.220</ele>
        <time>2013-10-27T07:33:58Z</time>
      </trkpt>
      <trkpt lat="41.373740" lon="1.952570">
        <ele>150.272</ele>
        <time>2013-10-27T07:34:00Z</time>
      </trkpt>
      <trkpt lat="41.373772" lon="1.952550">
        <ele>150.223</ele>
        <time>2013-10-27T07:34:04Z</time>
      </trkpt>
      <trkpt lat="41.373810" lon="1.952518">
        <ele>150.299</ele>
        <time>2013-10-27T07:34:06Z</time>
      </trkpt>
      <trkpt lat="41.373875" lon="1.952502">
        <ele>150.293</ele>
        <time>2013-10-27T07:34:11Z</time>
      </trkpt>
      <trkpt lat="41.373883" lon="1.952492">
        <ele>150.246</ele>
        <time>2013-10-27T07:34:12Z</time>
      </trkpt>
      <trkpt lat="41.373893" lon="1.952477">
        <ele>150.288</ele>
        <time>2013-10-27T07:34:13Z</time>
      </trkpt>
      <trkpt lat="41.373908" lon="1.952473">
        <ele>150.616</ele>
        <time>2013-10-27T07:34:15Z</time>
      </trkpt>
      <trkpt lat="41.373918" lon="1.952470">
        <ele>151.008</ele>
        <time>2013-10-27T07:34:16Z</time>
      </trkpt>
      <trkpt lat="41.373927" lon="1.952473">
        <ele>151.425</ele>
        <time>2013-10-27T07:34:17Z</time>
      </trkpt>
      <trkpt lat="41.373940" lon="1.952477">
        <ele>151.828</ele>
        <time>2013-10-27T07:34:18Z</time>
      </trkpt>
      <trkpt lat="41.373950" lon="1.952475">
        <ele>152.290</ele>
        <time>2013-10-27T07:34:19Z</time>
      </trkpt>
      <trkpt lat="41.374035" lon="1.952448">
        <ele>152.286</ele>
        <time>2013-10-27T07:34:25Z</time>
      </trkpt>
      <trkpt lat="41.374083" lon="1.952445">
        <ele>152.648</ele>
        <time>2013-10-27T07:34:28Z</time>
      </trkpt>
      <trkpt lat="41.374100" lon="1.952443">
        <ele>153.069</ele>
        <time>2013-10-27T07:34:29Z</time>
      </trkpt>
      <trkpt lat="41.374117" lon="1.952442">
        <ele>153.455</ele>
        <time>2013-10-27T07:34:30Z</time>
      </trkpt>
      <trkpt lat="41.374133" lon="1.952442">
        <ele>153.859</ele>
        <time>2013-10-27T07:34:31Z</time>
      </trkpt>
      <trkpt lat="41.374148" lon="1.952438">
        <ele>154.246</ele>
        <time>2013-10-27T07:34:32Z</time>
      </trkpt>
      <trkpt lat="41.374163" lon="1.952437">
        <ele>154.288</ele>
        <time>2013-10-27T07:34:33Z</time>
      </trkpt>
      <trkpt lat="41.374260" lon="1.952433">
        <ele>154.216</ele>
        <time>2013-10-27T07:34:38Z</time>
      </trkpt>
      <trkpt lat="41.374278" lon="1.952438">
        <ele>154.608</ele>
        <time>2013-10-27T07:34:39Z</time>
      </trkpt>
      <trkpt lat="41.374297" lon="1.952440">
        <ele>155.285</ele>
        <time>2013-10-27T07:34:40Z</time>
      </trkpt>
      <trkpt lat="41.374315" lon="1.952440">
        <ele>155.658</ele>
        <time>2013-10-27T07:34:41Z</time>
      </trkpt>
      <trkpt lat="41.374332" lon="1.952442">
        <ele>156.010</ele>
        <time>2013-10-27T07:34:42Z</time>
      </trkpt>
      <trkpt lat="41.374347" lon="1.952443">
        <ele>156.496</ele>
        <time>2013-10-27T07:34:43Z</time>
      </trkpt>
      <trkpt lat="41.374400" lon="1.952442">
        <ele>156.438</ele>
        <time>2013-10-27T07:34:46Z</time>
      </trkpt>
      <trkpt lat="41.374432" lon="1.952433">
        <ele>156.849</ele>
        <time>2013-10-27T07:34:48Z</time>
      </trkpt>
      <trkpt lat="41.374445" lon="1.952430">
        <ele>157.235</ele>
        <time>2013-10-27T07:34:49Z</time>
      </trkpt>
      <trkpt lat="41.374457" lon="1.952418">
        <ele>157.659</ele>
        <time>2013-10-27T07:34:50Z</time>
      </trkpt>
      <trkpt lat="41.374467" lon="1.952407">
        <ele>158.017</ele>
        <time>2013-10-27T07:34:51Z</time>
      </trkpt>
      <trkpt lat="41.374477" lon="1.952397">
        <ele>158.487</ele>
        <time>2013-10-27T07:34:52Z</time>
      </trkpt>
      <trkpt lat="41.374478" lon="1.952327">
        <ele>158.415</ele>
        <time>2013-10-27T07:34:57Z</time>
      </trkpt>
      <trkpt lat="41.374388" lon="1.952280">
        <ele>158.808</ele>
        <time>2013-10-27T07:35:02Z</time>
      </trkpt>
      <trkpt lat="41.374367" lon="1.952278">
        <ele>159.852</ele>
        <time>2013-10-27T07:35:03Z</time>
      </trkpt>
      <trkpt lat="41.374348" lon="1.952273">
        <ele>160.235</ele>
        <time>2013-10-27T07:35:04Z</time>
      </trkpt>
      <trkpt lat="41.374327" lon="1.952265">
        <ele>160.677</ele>
        <time>2013-10-27T07:35:05Z</time>
      </trkpt>
      <trkpt lat="41.374248" lon="1.952218">
        <ele>160.663</ele>
        <time>2013-10-27T07:35:08Z</time>
      </trkpt>
      <trkpt lat="41.374140" lon="1.952148">
        <ele>161.075</ele>
        <time>2013-10-27T07:35:12Z</time>
      </trkpt>
      <trkpt lat="41.374113" lon="1.952133">
        <ele>161.486</ele>
        <time>2013-10-27T07:35:13Z</time>
      </trkpt>
      <trkpt lat="41.374090" lon="1.952118">
        <ele>162.042</ele>
        <time>2013-10-27T07:35:14Z</time>
      </trkpt>
      <trkpt lat="41.374060" lon="1.952102">
        <ele>162.426</ele>
        <time>2013-10-27T07:35:15Z</time>
      </trkpt>
      <trkpt lat="41.374032" lon="1.952085">
        <ele>163.091</ele>
        <time>2013-10-27T07:35:16Z</time>
      </trkpt>
      <trkpt lat="41.373975" lon="1.952060">
        <ele>163.481</ele>
        <time>2013-10-27T07:35:18Z</time>
      </trkpt>
      <trkpt lat="41.373950" lon="1.952043">
        <ele>163.819</ele>
        <time>2013-10-27T07:35:19Z</time>
      </trkpt>
      <trkpt lat="41.373925" lon="1.952025">
        <ele>164.408</ele>
        <time>2013-10-27T07:35:20Z</time>
      </trkpt>
      <trkpt lat="41.373897" lon="1.952010">
        <ele>164.860</ele>
        <time>2013-10-27T07:35:21Z</time>
      </trkpt>
      <trkpt lat="41.373867" lon="1.951997">
        <ele>165.263</ele>
        <time>2013-10-27T07:35:22Z</time>
      </trkpt>
      <trkpt lat="41.373775" lon="1.951978">
        <ele>165.835</ele>
        <time>2013-10-27T07:35:25Z</time>
      </trkpt>
      <trkpt lat="41.373740" lon="1.951978">
        <ele>166.261</ele>
        <time>2013-10-27T07:35:26Z</time>
      </trkpt>
      <trkpt lat="41.373707" lon="1.951980">
        <ele>166.693</ele>
        <time>2013-10-27T07:35:27Z</time>
      </trkpt>
      <trkpt lat="41.373675" lon="1.951985">
        <ele>167.484</ele>
        <time>2013-10-27T07:35:28Z</time>
      </trkpt>
      <trkpt lat="41.373645" lon="1.951993">
        <ele>167.840</ele>
        <time>2013-10-27T07:35:29Z</time>
      </trkpt>
      <trkpt lat="41.373613" lon="1.951998">
        <ele>168.274</ele>
        <time>2013-10-27T07:35:30Z</time>
      </trkpt>
      <trkpt lat="41.373582" lon="1.952008">
        <ele>168.838</ele>
        <time>2013-10-27T07:35:31Z</time>
      </trkpt>
      <trkpt lat="41.373558" lon="1.952008">
        <ele>169.270</ele>
        <time>2013-10-27T07:35:32Z</time>
      </trkpt>
      <trkpt lat="41.373540" lon="1.952000">
        <ele>169.617</ele>
        <time>2013-10-27T07:35:33Z</time>
      </trkpt>
      <trkpt lat="41.373518" lon="1.951997">
        <ele>170.208</ele>
        <time>2013-10-27T07:35:34Z</time>
      </trkpt>
      <trkpt lat="41.373500" lon="1.951995">
        <ele>170.674</ele>
        <time>2013-10-27T07:35:35Z</time>
      </trkpt>
      <trkpt lat="41.373485" lon="1.951993">
        <ele>171.017</ele>
        <time>2013-10-27T07:35:36Z</time>
      </trkpt>
      <trkpt lat="41.373468" lon="1.951990">
        <ele>171.489</ele>
        <time>2013-10-27T07:35:37Z</time>
      </trkpt>
      <trkpt lat="41.373453" lon="1.951987">
        <ele>171.875</ele>
        <time>2013-10-27T07:35:38Z</time>
      </trkpt>
      <trkpt lat="41.373393" lon="1.951968">
        <ele>171.817</ele>
        <time>2013-10-27T07:35:42Z</time>
      </trkpt>
      <trkpt lat="41.373313" lon="1.951915">
        <ele>172.228</ele>
        <time>2013-10-27T07:35:48Z</time>
      </trkpt>
      <trkpt lat="41.373297" lon="1.951907">
        <ele>172.664</ele>
        <time>2013-10-27T07:35:49Z</time>
      </trkpt>
      <trkpt lat="41.373278" lon="1.951900">
        <ele>173.028</ele>
        <time>2013-10-27T07:35:50Z</time>
      </trkpt>
      <trkpt lat="41.373262" lon="1.951892">
        <ele>173.415</ele>
        <time>2013-10-27T07:35:51Z</time>
      </trkpt>
      <trkpt lat="41.373248" lon="1.951882">
        <ele>173.865</ele>
        <time>2013-10-27T07:35:52Z</time>
      </trkpt>
      <trkpt lat="41.373200" lon="1.951875">
        <ele>173.811</ele>
        <time>2013-10-27T07:35:55Z</time>
      </trkpt>
      <trkpt lat="41.373145" lon="1.951883">
        <ele>174.208</ele>
        <time>2013-10-27T07:35:59Z</time>
      </trkpt>
      <trkpt lat="41.373133" lon="1.951885">
        <ele>174.692</ele>
        <time>2013-10-27T07:36:00Z</time>
      </trkpt>
      <trkpt lat="41.373120" lon="1.951887">
        <ele>175.295</ele>
        <time>2013-10-27T07:36:01Z</time>
      </trkpt>
      <trkpt lat="41.373107" lon="1.951897">
        <ele>175.697</ele>
        <time>2013-10-27T07:36:02Z</time>
      </trkpt>
      <trkpt lat="41.373092" lon="1.951908">
        <ele>176.053</ele>
        <time>2013-10-27T07:36:03Z</time>
      </trkpt>
      <trkpt lat="41.373058" lon="1.951940">
        <ele>176.065</ele>
        <time>2013-10-27T07:36:05Z</time>
      </trkpt>
      <trkpt lat="41.372978" lon="1.952015">
        <ele>176.416</ele>
        <time>2013-10-27T07:36:10Z</time>
      </trkpt>
      <trkpt lat="41.372962" lon="1.952027">
        <ele>176.872</ele>
        <time>2013-10-27T07:36:11Z</time>
      </trkpt>
      <trkpt lat="41.372950" lon="1.952038">
        <ele>177.226</ele>
        <time>2013-10-27T07:36:12Z</time>
      </trkpt>
      <trkpt lat="41.372940" lon="1.952047">
        <ele>177.669</ele>
        <time>2013-10-27T07:36:13Z</time>
      </trkpt>
      <trkpt lat="41.372930" lon="1.952055">
        <ele>178.004</ele>
        <time>2013-10-27T07:36:14Z</time>
      </trkpt>
      <trkpt lat="41.372897" lon="1.952080">
        <ele>178.024</ele>
        <time>2013-10-27T07:36:17Z</time>
      </trkpt>
      <trkpt lat="41.372870" lon="1.952095">
        <ele>178.608</ele>
        <time>2013-10-27T07:36:19Z</time>
      </trkpt>
      <trkpt lat="41.372857" lon="1.952108">
        <ele>179.237</ele>
        <time>2013-10-27T07:36:20Z</time>
      </trkpt>
      <trkpt lat="41.372842" lon="1.952123">
        <ele>179.670</ele>
        <time>2013-10-27T07:36:21Z</time>
      </trkpt>
      <trkpt lat="41.372828" lon="1.952133">
        <ele>180.272</ele>
        <time>2013-10-27T07:36:22Z</time>
      </trkpt>
      <trkpt lat="41.372817" lon="1.952145">
        <ele>180.838</ele>
        <time>2013-10-27T07:36:23Z</time>
      </trkpt>
      <trkpt lat="41.372720" lon="1.952243">
        <ele>180.890</ele>
        <time>2013-10-27T07:36:30Z</time>
      </trkpt>
      <trkpt lat="41.372707" lon="1.952257">
        <ele>181.271</ele>
        <time>2013-10-27T07:36:31Z</time>
      </trkpt>
      <trkpt lat="41.372692" lon="1.952268">
        <ele>181.617</ele>
        <time>2013-10-27T07:36:32Z</time>
      </trkpt>
      <trkpt lat="41.372675" lon="1.952275">
        <ele>182.031</ele>
        <time>2013-10-27T07:36:33Z</time>
      </trkpt>
      <trkpt lat="41.372657" lon="1.952280">
        <ele>182.458</ele>
        <time>2013-10-27T07:36:34Z</time>
      </trkpt>
      <trkpt lat="41.372642" lon="1.952283">
        <ele>182.852</ele>
        <time>2013-10-27T07:36:35Z</time>
      </trkpt>
      <trkpt lat="41.372552" lon="1.952323">
        <ele>182.817</ele>
        <time>2013-10-27T07:36:40Z</time>
      </trkpt>
      <trkpt lat="41.372513" lon="1.952340">
        <ele>183.208</ele>
        <time>2013-10-27T07:36:42Z</time>
      </trkpt>
      <trkpt lat="41.372493" lon="1.952347">
        <ele>183.856</ele>
        <time>2013-10-27T07:36:43Z</time>
      </trkpt>
      <trkpt lat="41.372475" lon="1.952352">
        <ele>184.229</ele>
        <time>2013-10-27T07:36:44Z</time>
      </trkpt>
      <trkpt lat="41.372457" lon="1.952362">
        <ele>184.611</ele>
        <time>2013-10-27T07:36:45Z</time>
      </trkpt>
      <trkpt lat="41.372437" lon="1.952373">
        <ele>185.087</ele>
        <time>2013-10-27T07:36:46Z</time>
      </trkpt>
      <trkpt lat="41.372400" lon="1.952390">
        <ele>185.079</ele>
        <time>2013-10-27T07:36:48Z</time>
      </trkpt>
      <trkpt lat="41.372272" lon="1.952430">
        <ele>185.020</ele>
        <time>2013-10-27T07:36:54Z</time>
      </trkpt>
      <trkpt lat="41.372133" lon="1.952445">
        <ele>185.456</ele>
        <time>2013-10-27T07:37:00Z</time>
      </trkpt>
      <trkpt lat="41.372110" lon="1.952453">
        <ele>185.820</ele>
        <time>2013-10-27T07:37:01Z</time>
      </trkpt>
      <trkpt lat="41.372088" lon="1.952462">
        <ele>186.291</ele>
        <time>2013-10-27T07:37:02Z</time>
      </trkpt>
      <trkpt lat="41.372067" lon="1.952470">
        <ele>186.681</ele>
        <time>2013-10-27T07:37:03Z</time>
      </trkpt>
      <trkpt lat="41.372045" lon="1.952483">
        <ele>187.219</ele>
        <time>2013-10-27T07:37:04Z</time>
      </trkpt>
      <trkpt lat="41.371993" lon="1.952542">
        <ele>187.208</ele>
        <time>2013-10-27T07:37:07Z</time>
      </trkpt>
      <trkpt lat="41.371963" lon="1.952577">
        <ele>187.650</ele>
        <time>2013-10-27T07:37:09Z</time>
      </trkpt>
      <trkpt lat="41.371950" lon="1.952593">
        <ele>188.023</ele>
        <time>2013-10-27T07:37:10Z</time>
      </trkpt>
      <trkpt lat="41.371928" lon="1.952613">
        <ele>188.425</ele>
        <time>2013-10-27T07:37:11Z</time>
      </trkpt>
      <trkpt lat="41.371910" lon="1.952635">
        <ele>188.871</ele>
        <time>2013-10-27T07:37:12Z</time>
      </trkpt>
      <trkpt lat="41.371900" lon="1.952655">
        <ele>189.223</ele>
        <time>2013-10-27T07:37:13Z</time>
      </trkpt>
      <trkpt lat="41.371883" lon="1.952667">
        <ele>189.224</ele>
        <time>2013-10-27T07:37:14Z</time>
      </trkpt>
      <trkpt lat="41.371873" lon="1.952683">
        <ele>189.620</ele>
        <time>2013-10-27T07:37:15Z</time>
      </trkpt>
      <trkpt lat="41.371858" lon="1.952700">
        <ele>190.064</ele>
        <time>2013-10-27T07:37:16Z</time>
      </trkpt>
      <trkpt lat="41.371843" lon="1.952722">
        <ele>190.625</ele>
        <time>2013-10-27T07:37:17Z</time>
      </trkpt>
      <trkpt lat="41.371828" lon="1.952750">
        <ele>191.026</ele>
        <time>2013-10-27T07:37:18Z</time>
      </trkpt>
      <trkpt lat="41.371815" lon="1.952778">
        <ele>191.408</ele>
        <time>2013-10-27T07:37:19Z</time>
      </trkpt>
      <trkpt lat="41.371795" lon="1.952808">
        <ele>191.408</ele>
        <time>2013-10-27T07:37:20Z</time>
      </trkpt>
      <trkpt lat="41.371785" lon="1.952840">
        <ele>191.413</ele>
        <time>2013-10-27T07:37:21Z</time>
      </trkpt>
      <trkpt lat="41.371753" lon="1.952893">
        <ele>191.426</ele>
        <time>2013-10-27T07:37:23Z</time>
      </trkpt>
      <trkpt lat="41.371683" lon="1.952998">
        <ele>191.418</ele>
        <time>2013-10-27T07:37:28Z</time>
      </trkpt>
      <trkpt lat="41.371635" lon="1.953095">
        <ele>191.884</ele>
        <time>2013-10-27T07:37:31Z</time>
      </trkpt>
      <trkpt lat="41.371617" lon="1.953127">
        <ele>192.276</ele>
        <time>2013-10-27T07:37:32Z</time>
      </trkpt>
      <trkpt lat="41.371605" lon="1.953158">
        <ele>192.647</ele>
        <time>2013-10-27T07:37:33Z</time>
      </trkpt>
      <trkpt lat="41.371592" lon="1.953183">
        <ele>193.093</ele>
        <time>2013-10-27T07:37:34Z</time>
      </trkpt>
      <trkpt lat="41.371578" lon="1.953208">
        <ele>193.497</ele>
        <time>2013-10-27T07:37:35Z</time>
      </trkpt>
      <trkpt lat="41.371537" lon="1.953292">
        <ele>193.491</ele>
        <time>2013-10-27T07:37:38Z</time>
      </trkpt>
      <trkpt lat="41.371528" lon="1.953337">
        <ele>193.881</ele>
        <time>2013-10-27T07:37:40Z</time>
      </trkpt>
      <trkpt lat="41.371528" lon="1.953357">
        <ele>194.219</ele>
        <time>2013-10-27T07:37:41Z</time>
      </trkpt>
      <trkpt lat="41.371537" lon="1.953378">
        <ele>194.608</ele>
        <time>2013-10-27T07:37:42Z</time>
      </trkpt>
      <trkpt lat="41.371545" lon="1.953405">
        <ele>195.210</ele>
        <time>2013-10-27T07:37:43Z</time>
      </trkpt>
      <trkpt lat="41.371558" lon="1.953437">
        <ele>195.683</ele>
        <time>2013-10-27T07:37:44Z</time>
      </trkpt>
      <trkpt lat="41.371555" lon="1.953533">
        <ele>195.645</ele>
        <time>2013-10-27T07:37:48Z</time>
      </trkpt>
      <trkpt lat="41.371613" lon="1.953560">
        <ele>196.061</ele>
        <time>2013-10-27T07:37:51Z</time>
      </trkpt>
      <trkpt lat="41.371652" lon="1.953580">
        <ele>196.413</ele>
        <time>2013-10-27T07:37:52Z</time>
      </trkpt>
      <trkpt lat="41.371690" lon="1.953603">
        <ele>196.874</ele>
        <time>2013-10-27T07:37:53Z</time>
      </trkpt>
      <trkpt lat="41.371713" lon="1.953632">
        <ele>197.420</ele>
        <time>2013-10-27T07:37:54Z</time>
      </trkpt>
      <trkpt lat="41.371728" lon="1.953658">
        <ele>197.814</ele>
        <time>2013-10-27T07:37:55Z</time>
      </trkpt>
      <trkpt lat="41.371762" lon="1.953730">
        <ele>197.861</ele>
        <time>2013-10-27T07:37:59Z</time>
      </trkpt>
      <trkpt lat="41.371767" lon="1.953748">
        <ele>198.221</ele>
        <time>2013-10-27T07:38:00Z</time>
      </trkpt>
      <trkpt lat="41.371768" lon="1.953767">
        <ele>198.613</ele>
        <time>2013-10-27T07:38:01Z</time>
      </trkpt>
      <trkpt lat="41.371765" lon="1.953780">
        <ele>199.008</ele>
        <time>2013-10-27T07:38:02Z</time>
      </trkpt>
      <trkpt lat="41.371760" lon="1.953785">
        <ele>199.497</ele>
        <time>2013-10-27T07:38:03Z</time>
      </trkpt>
      <trkpt lat="41.371752" lon="1.953783">
        <ele>199.880</ele>
        <time>2013-10-27T07:38:04Z</time>
      </trkpt>
      <trkpt lat="41.371717" lon="1.953760">
        <ele>200.462</ele>
        <time>2013-10-27T07:38:08Z</time>
      </trkpt>
      <trkpt lat="41.371702" lon="1.953758">
        <ele>200.828</ele>
        <time>2013-10-27T07:38:09Z</time>
      </trkpt>
      <trkpt lat="41.371685" lon="1.953757">
        <ele>201.240</ele>
        <time>2013-10-27T07:38:10Z</time>
      </trkpt>
      <trkpt lat="41.371668" lon="1.953753">
        <ele>201.691</ele>
        <time>2013-10-27T07:38:11Z</time>
      </trkpt>
      <trkpt lat="41.371653" lon="1.953753">
        <ele>202.077</ele>
        <time>2013-10-27T07:38:12Z</time>
      </trkpt>
      <trkpt lat="41.371625" lon="1.953757">
        <ele>202.031</ele>
        <time>2013-10-27T07:38:14Z</time>
      </trkpt>
      <trkpt lat="41.371598" lon="1.953760">
        <ele>202.497</ele>
        <time>2013-10-27T07:38:16Z</time>
      </trkpt>
      <trkpt lat="41.371585" lon="1.953757">
        <ele>203.023</ele>
        <time>2013-10-27T07:38:17Z</time>
      </trkpt>
      <trkpt lat="41.371570" lon="1.953753">
        <ele>203.425</ele>
        <time>2013-10-27T07:38:18Z</time>
      </trkpt>
      <trkpt lat="41.371550" lon="1.953752">
        <ele>203.808</ele>
        <time>2013-10-27T07:38:19Z</time>
      </trkpt>
      <trkpt lat="41.371533" lon="1.953745">
        <ele>204.240</ele>
        <time>2013-10-27T07:38:20Z</time>
      </trkpt>
      <trkpt lat="41.371497" lon="1.953733">
        <ele>204.273</ele>
        <time>2013-10-27T07:38:23Z</time>
      </trkpt>
      <trkpt lat="41.371470" lon="1.953730">
        <ele>204.675</ele>
        <time>2013-10-27T07:38:25Z</time>
      </trkpt>
      <trkpt lat="41.371455" lon="1.953728">
        <ele>205.011</ele>
        <time>2013-10-27T07:38:26Z</time>
      </trkpt>
      <trkpt lat="41.371440" lon="1.953725">
        <ele>205.493</ele>
        <time>2013-10-27T07:38:27Z</time>
      </trkpt>
      <trkpt lat="41.371427" lon="1.953723">
        <ele>205.844</ele>
        <time>2013-10-27T07:38:28Z</time>
      </trkpt>
      <trkpt lat="41.371412" lon="1.953723">
        <ele>206.230</ele>
        <time>2013-10-27T07:38:29Z</time>
      </trkpt>
      <trkpt lat="41.371400" lon="1.953723">
        <ele>206.294</ele>
        <time>2013-10-27T07:38:30Z</time>
      </trkpt>
      <trkpt lat="41.371343" lon="1.953720">
        <ele>206.612</ele>
        <time>2013-10-27T07:38:35Z</time>
      </trkpt>
      <trkpt lat="41.371338" lon="1.953718">
        <ele>207.032</ele>
        <time>2013-10-27T07:38:36Z</time>
      </trkpt>
      <trkpt lat="41.371325" lon="1.953715">
        <ele>207.405</ele>
        <time>2013-10-27T07:38:37Z</time>
      </trkpt>
      <trkpt lat="41.371312" lon="1.953712">
        <ele>207.808</ele>
        <time>2013-10-27T07:38:38Z</time>
      </trkpt>
      <trkpt lat="41.371298" lon="1.953712">
        <ele>208.282</ele>
        <time>2013-10-27T07:38:39Z</time>
      </trkpt>
      <trkpt lat="41.371258" lon="1.953727">
        <ele>208.265</ele>
        <time>2013-10-27T07:38:44Z</time>
      </trkpt>
      <trkpt lat="41.371242" lon="1.953720">
        <ele>208.637</ele>
        <time>2013-10-27T07:38:47Z</time>
      </trkpt>
      <trkpt lat="41.371237" lon="1.953715">
        <ele>209.253</ele>
        <time>2013-10-27T07:38:48Z</time>
      </trkpt>
      <trkpt lat="41.371227" lon="1.953707">
        <ele>209.665</ele>
        <time>2013-10-27T07:38:49Z</time>
      </trkpt>
      <trkpt lat="41.371222" lon="1.953703">
        <ele>210.036</ele>
        <time>2013-10-27T07:38:50Z</time>
      </trkpt>
      <trkpt lat="41.371213" lon="1.953702">
        <ele>210.452</ele>
        <time>2013-10-27T07:38:51Z</time>
      </trkpt>
      <trkpt lat="41.371155" lon="1.953678">
        <ele>210.496</ele>
        <time>2013-10-27T07:38:57Z</time>
      </trkpt>
      <trkpt lat="41.371092" lon="1.953623">
        <ele>211.071</ele>
        <time>2013-10-27T07:39:04Z</time>
      </trkpt>
      <trkpt lat="41.371087" lon="1.953620">
        <ele>211.441</ele>
        <time>2013-10-27T07:39:05Z</time>
      </trkpt>
      <trkpt lat="41.371075" lon="1.953612">
        <ele>211.815</ele>
        <time>2013-10-27T07:39:06Z</time>
      </trkpt>
      <trkpt lat="41.371070" lon="1.953607">
        <ele>212.208</ele>
        <time>2013-10-27T07:39:07Z</time>
      </trkpt>
      <trkpt lat="41.371063" lon="1.953602">
        <ele>212.628</ele>
        <time>2013-10-27T07:39:08Z</time>
      </trkpt>
      <trkpt lat="41.371042" lon="1.953595">
        <ele>212.691</ele>
        <time>2013-10-27T07:39:11Z</time>
      </trkpt>
      <trkpt lat="41.371018" lon="1.953653">
        <ele>212.633</ele>
        <time>2013-10-27T07:39:17Z</time>
      </trkpt>
      <trkpt lat="41.371023" lon="1.953705">
        <ele>212.679</ele>
        <time>2013-10-27T07:39:20Z</time>
      </trkpt>
      <trkpt lat="41.371037" lon="1.953765">
        <ele>213.011</ele>
        <time>2013-10-27T07:39:24Z</time>
      </trkpt>
      <trkpt lat="41.371037" lon="1.953770">
        <ele>213.432</ele>
        <time>2013-10-27T07:39:25Z</time>
      </trkpt>
      <trkpt lat="41.371035" lon="1.953770">
        <ele>214.018</ele>
        <time>2013-10-27T07:39:26Z</time>
      </trkpt>
      <trkpt lat="41.371072" lon="1.953778">
        <ele>214.882</ele>
        <time>2013-10-27T07:43:19Z</time>
      </trkpt>
      <trkpt lat="41.371087" lon="1.953790">
        <ele>214.895</ele>
        <time>2013-10-27T07:43:20Z</time>
      </trkpt>
      <trkpt lat="41.371125" lon="1.953847">
        <ele>215.249</ele>
        <time>2013-10-27T07:43:24Z</time>
      </trkpt>
      <trkpt lat="41.371125" lon="1.953862">
        <ele>215.623</ele>
        <time>2013-10-27T07:43:25Z</time>
      </trkpt>
      <trkpt lat="41.371125" lon="1.953878">
        <ele>216.008</ele>
        <time>2013-10-27T07:43:26Z</time>
      </trkpt>
      <trkpt lat="41.371125" lon="1.953890">
        <ele>216.490</ele>
        <time>2013-10-27T07:43:27Z</time>
      </trkpt>
      <trkpt lat="41.371123" lon="1.953905">
        <ele>216.863</ele>
        <time>2013-10-27T07:43:28Z</time>
      </trkpt>
      <trkpt lat="41.371127" lon="1.953920">
        <ele>216.835</ele>
        <time>2013-10-27T07:43:29Z</time>
      </trkpt>
      <trkpt lat="41.371130" lon="1.953938">
        <ele>217.281</ele>
        <time>2013-10-27T07:43:30Z</time>
      </trkpt>
      <trkpt lat="41.371138" lon="1.953953">
        <ele>217.663</ele>
        <time>2013-10-27T07:43:31Z</time>
      </trkpt>
      <trkpt lat="41.371147" lon="1.953970">
        <ele>218.074</ele>
        <time>2013-10-27T07:43:32Z</time>
      </trkpt>
      <trkpt lat="41.371148" lon="1.953997">
        <ele>218.610</ele>
        <time>2013-10-27T07:43:33Z</time>
      </trkpt>
      <trkpt lat="41.371145" lon="1.954022">
        <ele>219.054</ele>
        <time>2013-10-27T07:43:34Z</time>
      </trkpt>
      <trkpt lat="41.371130" lon="1.954065">
        <ele>219.038</ele>
        <time>2013-10-27T07:43:36Z</time>
      </trkpt>
      <trkpt lat="41.371125" lon="1.954085">
        <ele>219.070</ele>
        <time>2013-10-27T07:43:37Z</time>
      </trkpt>
      <trkpt lat="41.371120" lon="1.954145">
        <ele>219.017</ele>
        <time>2013-10-27T07:43:40Z</time>
      </trkpt>
      <trkpt lat="41.371120" lon="1.954205">
        <ele>219.408</ele>
        <time>2013-10-27T07:43:44Z</time>
      </trkpt>
      <trkpt lat="41.371117" lon="1.954225">
        <ele>219.844</ele>
        <time>2013-10-27T07:43:45Z</time>
      </trkpt>
      <trkpt lat="41.371115" lon="1.954245">
        <ele>220.227</ele>
        <time>2013-10-27T07:43:46Z</time>
      </trkpt>
      <trkpt lat="41.371103" lon="1.954262">
        <ele>220.699</ele>
        <time>2013-10-27T07:43:47Z</time>
      </trkpt>
      <trkpt lat="41.371092" lon="1.954273">
        <ele>221.085</ele>
        <time>2013-10-27T07:43:48Z</time>
      </trkpt>
      <trkpt lat="41.371043" lon="1.954318">
        <ele>221.057</ele>
        <time>2013-10-27T07:43:53Z</time>
      </trkpt>
      <trkpt lat="41.371025" lon="1.954352">
        <ele>221.018</ele>
        <time>2013-10-27T07:43:55Z</time>
      </trkpt>
      <trkpt lat="41.370987" lon="1.954412">
        <ele>221.034</ele>
        <time>2013-10-27T07:43:59Z</time>
      </trkpt>
      <trkpt lat="41.370955" lon="1.954483">
        <ele>221.478</ele>
        <time>2013-10-27T07:44:03Z</time>
      </trkpt>
      <trkpt lat="41.370950" lon="1.954502">
        <ele>221.813</ele>
        <time>2013-10-27T07:44:04Z</time>
      </trkpt>
      <trkpt lat="41.370948" lon="1.954523">
        <ele>222.243</ele>
        <time>2013-10-27T07:44:05Z</time>
      </trkpt>
      <trkpt lat="41.370947" lon="1.954537">
        <ele>222.607</ele>
        <time>2013-10-27T07:44:06Z</time>
      </trkpt>
      <trkpt lat="41.370947" lon="1.954550">
        <ele>223.008</ele>
        <time>2013-10-27T07:44:07Z</time>
      </trkpt>
      <trkpt lat="41.370942" lon="1.954583">
        <ele>223.052</ele>
        <time>2013-10-27T07:44:09Z</time>
      </trkpt>
      <trkpt lat="41.370947" lon="1.954683">
        <ele>223.685</ele>
        <time>2013-10-27T07:44:15Z</time>
      </trkpt>
      <trkpt lat="41.370940" lon="1.954705">
        <ele>224.087</ele>
        <time>2013-10-27T07:44:16Z</time>
      </trkpt>
      <trkpt lat="41.370937" lon="1.954723">
        <ele>224.423</ele>
        <time>2013-10-27T07:44:17Z</time>
      </trkpt>
      <trkpt lat="41.370935" lon="1.954743">
        <ele>224.845</ele>
        <time>2013-10-27T07:44:18Z</time>
      </trkpt>
      <trkpt lat="41.370938" lon="1.954760">
        <ele>225.236</ele>
        <time>2013-10-27T07:44:19Z</time>
      </trkpt>
      <trkpt lat="41.370923" lon="1.954823">
        <ele>225.282</ele>
        <time>2013-10-27T07:44:23Z</time>
      </trkpt>
      <trkpt lat="41.370923" lon="1.954828">
        <ele>225.266</ele>
        <time>2013-10-27T07:44:24Z</time>
      </trkpt>
      <trkpt lat="41.370898" lon="1.954887">
        <ele>225.248</ele>
        <time>2013-10-27T07:44:32Z</time>
      </trkpt>
      <trkpt lat="41.370890" lon="1.954902">
        <ele>225.261</ele>
        <time>2013-10-27T07:44:33Z</time>
      </trkpt>
      <trkpt lat="41.370885" lon="1.954922">
        <ele>225.617</ele>
        <time>2013-10-27T07:44:34Z</time>
      </trkpt>
      <trkpt lat="41.370877" lon="1.954937">
        <ele>226.208</ele>
        <time>2013-10-27T07:44:35Z</time>
      </trkpt>
      <trkpt lat="41.370873" lon="1.954948">
        <ele>226.675</ele>
        <time>2013-10-27T07:44:36Z</time>
      </trkpt>
      <trkpt lat="41.370863" lon="1.954960">
        <ele>227.278</ele>
        <time>2013-10-27T07:44:37Z</time>
      </trkpt>
      <trkpt lat="41.370847" lon="1.954965">
        <ele>227.640</ele>
        <time>2013-10-27T07:44:38Z</time>
      </trkpt>
      <trkpt lat="41.370833" lon="1.954965">
        <ele>227.646</ele>
        <time>2013-10-27T07:44:39Z</time>
      </trkpt>
      <trkpt lat="41.370818" lon="1.954975">
        <ele>227.668</ele>
        <time>2013-10-27T07:44:42Z</time>
      </trkpt>
      <trkpt lat="41.370707" lon="1.955090">
        <ele>229.879</ele>
        <time>2013-10-27T07:45:06Z</time>
      </trkpt>
      <trkpt lat="41.370698" lon="1.955092">
        <ele>229.845</ele>
        <time>2013-10-27T07:45:07Z</time>
      </trkpt>
      <trkpt lat="41.370593" lon="1.955137">
        <ele>232.889</ele>
        <time>2013-10-27T07:45:25Z</time>
      </trkpt>
      <trkpt lat="41.370578" lon="1.955147">
        <ele>233.243</ele>
        <time>2013-10-27T07:45:26Z</time>
      </trkpt>
      <trkpt lat="41.370568" lon="1.955157">
        <ele>233.664</ele>
        <time>2013-10-27T07:45:27Z</time>
      </trkpt>
      <trkpt lat="41.370557" lon="1.955162">
        <ele>234.210</ele>
        <time>2013-10-27T07:45:28Z</time>
      </trkpt>
      <trkpt lat="41.370525" lon="1.955183">
        <ele>234.608</ele>
        <time>2013-10-27T07:45:31Z</time>
      </trkpt>
      <trkpt lat="41.370520" lon="1.955195">
        <ele>235.045</ele>
        <time>2013-10-27T07:45:32Z</time>
      </trkpt>
      <trkpt lat="41.370518" lon="1.955197">
        <ele>235.498</ele>
        <time>2013-10-27T07:45:33Z</time>
      </trkpt>
      <trkpt lat="41.370512" lon="1.955200">
        <ele>235.870</ele>
        <time>2013-10-27T07:45:34Z</time>
      </trkpt>
      <trkpt lat="41.370500" lon="1.955207">
        <ele>236.226</ele>
        <time>2013-10-27T07:45:35Z</time>
      </trkpt>
      <trkpt lat="41.370463" lon="1.955238">
        <ele>236.858</ele>
        <time>2013-10-27T07:45:39Z</time>
      </trkpt>
      <trkpt lat="41.370447" lon="1.955253">
        <ele>237.239</ele>
        <time>2013-10-27T07:45:40Z</time>
      </trkpt>
      <trkpt lat="41.370427" lon="1.955270">
        <ele>237.635</ele>
        <time>2013-10-27T07:45:41Z</time>
      </trkpt>
      <trkpt lat="41.370407" lon="1.955280">
        <ele>238.039</ele>
        <time>2013-10-27T07:45:42Z</time>
      </trkpt>
      <trkpt lat="41.370393" lon="1.955293">
        <ele>238.627</ele>
        <time>2013-10-27T07:45:43Z</time>
      </trkpt>
      <trkpt lat="41.370350" lon="1.955338">
        <ele>239.468</ele>
        <time>2013-10-27T07:45:47Z</time>
      </trkpt>
      <trkpt lat="41.370337" lon="1.955343">
        <ele>239.814</ele>
        <time>2013-10-27T07:45:48Z</time>
      </trkpt>
      <trkpt lat="41.370323" lon="1.955358">
        <ele>240.408</ele>
        <time>2013-10-27T07:45:49Z</time>
      </trkpt>
      <trkpt lat="41.370322" lon="1.955362">
        <ele>240.843</ele>
        <time>2013-10-27T07:45:50Z</time>
      </trkpt>
      <trkpt lat="41.370315" lon="1.955383">
        <ele>240.846</ele>
        <time>2013-10-27T07:45:52Z</time>
      </trkpt>
      <trkpt lat="41.370275" lon="1.955408">
        <ele>241.298</ele>
        <time>2013-10-27T07:45:56Z</time>
      </trkpt>
      <trkpt lat="41.370257" lon="1.955417">
        <ele>241.624</ele>
        <time>2013-10-27T07:45:57Z</time>
      </trkpt>
      <trkpt lat="41.370245" lon="1.955430">
        <ele>242.046</ele>
        <time>2013-10-27T07:45:58Z</time>
      </trkpt>
      <trkpt lat="41.370235" lon="1.955433">
        <ele>242.427</ele>
        <time>2013-10-27T07:45:59Z</time>
      </trkpt>
      <trkpt lat="41.370222" lon="1.955442">
        <ele>242.883</ele>
        <time>2013-10-27T07:46:00Z</time>
      </trkpt>
      <trkpt lat="41.370208" lon="1.955467">
        <ele>242.847</ele>
        <time>2013-10-27T07:46:03Z</time>
      </trkpt>
      <trkpt lat="41.370158" lon="1.955477">
        <ele>243.259</ele>
        <time>2013-10-27T07:46:10Z</time>
      </trkpt>
      <trkpt lat="41.370148" lon="1.955483">
        <ele>243.603</ele>
        <time>2013-10-27T07:46:11Z</time>
      </trkpt>
      <trkpt lat="41.370137" lon="1.955495">
        <ele>244.423</ele>
        <time>2013-10-27T07:46:12Z</time>
      </trkpt>
      <trkpt lat="41.370128" lon="1.955510">
        <ele>244.808</ele>
        <time>2013-10-27T07:46:13Z</time>
      </trkpt>
      <trkpt lat="41.370102" lon="1.955570">
        <ele>245.246</ele>
        <time>2013-10-27T07:46:18Z</time>
      </trkpt>
      <trkpt lat="41.370102" lon="1.955582">
        <ele>245.889</ele>
        <time>2013-10-27T07:46:19Z</time>
      </trkpt>
      <trkpt lat="41.370103" lon="1.955597">
        <ele>246.291</ele>
        <time>2013-10-27T07:46:20Z</time>
      </trkpt>
      <trkpt lat="41.370102" lon="1.955615">
        <ele>246.617</ele>
        <time>2013-10-27T07:46:21Z</time>
      </trkpt>
      <trkpt lat="41.370097" lon="1.955643">
        <ele>247.029</ele>
        <time>2013-10-27T07:46:22Z</time>
      </trkpt>
      <trkpt lat="41.370068" lon="1.955775">
        <ele>247.490</ele>
        <time>2013-10-27T07:46:29Z</time>
      </trkpt>
      <trkpt lat="41.370060" lon="1.955790">
        <ele>247.836</ele>
        <time>2013-10-27T07:46:30Z</time>
      </trkpt>
      <trkpt lat="41.370052" lon="1.955807">
        <ele>248.250</ele>
        <time>2013-10-27T07:46:31Z</time>
      </trkpt>
      <trkpt lat="41.370045" lon="1.955823">
        <ele>248.632</ele>
        <time>2013-10-27T07:46:32Z</time>
      </trkpt>
      <trkpt lat="41.370038" lon="1.955830">
        <ele>249.092</ele>
        <time>2013-10-27T07:46:33Z</time>
      </trkpt>
      <trkpt lat="41.370023" lon="1.955863">
        <ele>249.011</ele>
        <time>2013-10-27T07:46:36Z</time>
      </trkpt>
      <trkpt lat="41.369857" lon="1.956068">
        <ele>255.208</ele>
        <time>2013-10-27T07:47:11Z</time>
      </trkpt>
      <trkpt lat="41.369822" lon="1.956098">
        <ele>255.214</ele>
        <time>2013-10-27T07:47:14Z</time>
      </trkpt>
      <trkpt lat="41.369807" lon="1.956115">
        <ele>255.657</ele>
        <time>2013-10-27T07:47:15Z</time>
      </trkpt>
      <trkpt lat="41.369795" lon="1.956125">
        <ele>256.099</ele>
        <time>2013-10-27T07:47:16Z</time>
      </trkpt>
      <trkpt lat="41.369782" lon="1.956138">
        <ele>256.435</ele>
        <time>2013-10-27T07:47:17Z</time>
      </trkpt>
      <trkpt lat="41.369772" lon="1.956150">
        <ele>256.817</ele>
        <time>2013-10-27T07:47:18Z</time>
      </trkpt>
      <trkpt lat="41.369765" lon="1.956162">
        <ele>257.438</ele>
        <time>2013-10-27T07:47:19Z</time>
      </trkpt>
      <trkpt lat="41.369752" lon="1.956188">
        <ele>257.474</ele>
        <time>2013-10-27T07:47:21Z</time>
      </trkpt>
      <trkpt lat="41.369748" lon="1.956195">
        <ele>257.838</ele>
        <time>2013-10-27T07:47:22Z</time>
      </trkpt>
      <trkpt lat="41.369738" lon="1.956215">
        <ele>258.251</ele>
        <time>2013-10-27T07:47:23Z</time>
      </trkpt>
      <trkpt lat="41.369730" lon="1.956232">
        <ele>258.601</ele>
        <time>2013-10-27T07:47:24Z</time>
      </trkpt>
      <trkpt lat="41.369718" lon="1.956245">
        <ele>259.011</ele>
        <time>2013-10-27T07:47:25Z</time>
      </trkpt>
      <trkpt lat="41.369707" lon="1.956262">
        <ele>259.608</ele>
        <time>2013-10-27T07:47:26Z</time>
      </trkpt>
      <trkpt lat="41.369688" lon="1.956295">
        <ele>259.646</ele>
        <time>2013-10-27T07:47:28Z</time>
      </trkpt>
      <trkpt lat="41.369685" lon="1.956312">
        <ele>260.029</ele>
        <time>2013-10-27T07:47:29Z</time>
      </trkpt>
      <trkpt lat="41.369688" lon="1.956320">
        <ele>260.491</ele>
        <time>2013-10-27T07:47:30Z</time>
      </trkpt>
      <trkpt lat="41.369685" lon="1.956327">
        <ele>260.837</ele>
        <time>2013-10-27T07:47:31Z</time>
      </trkpt>
      <trkpt lat="41.369677" lon="1.956340">
        <ele>261.219</ele>
        <time>2013-10-27T07:47:32Z</time>
      </trkpt>
      <trkpt lat="41.369667" lon="1.956348">
        <ele>261.630</ele>
        <time>2013-10-27T07:47:33Z</time>
      </trkpt>
      <trkpt lat="41.369663" lon="1.956355">
        <ele>261.666</ele>
        <time>2013-10-27T07:47:34Z</time>
      </trkpt>
      <trkpt lat="41.369647" lon="1.956400">
        <ele>261.660</ele>
        <time>2013-10-27T07:47:36Z</time>
      </trkpt>
      <trkpt lat="41.369620" lon="1.956440">
        <ele>262.076</ele>
        <time>2013-10-27T07:47:39Z</time>
      </trkpt>
      <trkpt lat="41.369605" lon="1.956467">
        <ele>262.490</ele>
        <time>2013-10-27T07:47:40Z</time>
      </trkpt>
      <trkpt lat="41.369600" lon="1.956480">
        <ele>262.819</ele>
        <time>2013-10-27T07:47:41Z</time>
      </trkpt>
      <trkpt lat="41.369595" lon="1.956497">
        <ele>263.408</ele>
        <time>2013-10-27T07:47:42Z</time>
      </trkpt>
      <trkpt lat="41.369585" lon="1.956513">
        <ele>263.838</ele>
        <time>2013-10-27T07:47:43Z</time>
      </trkpt>
      <trkpt lat="41.369565" lon="1.956532">
        <ele>263.831</ele>
        <time>2013-10-27T07:47:45Z</time>
      </trkpt>
      <trkpt lat="41.369530" lon="1.956545">
        <ele>263.873</ele>
        <time>2013-10-27T07:47:48Z</time>
      </trkpt>
      <trkpt lat="41.369510" lon="1.956565">
        <ele>264.229</ele>
        <time>2013-10-27T07:47:50Z</time>
      </trkpt>
      <trkpt lat="41.369502" lon="1.956580">
        <ele>265.011</ele>
        <time>2013-10-27T07:47:51Z</time>
      </trkpt>
      <trkpt lat="41.369492" lon="1.956592">
        <ele>265.492</ele>
        <time>2013-10-27T07:47:52Z</time>
      </trkpt>
      <trkpt lat="41.369487" lon="1.956602">
        <ele>265.898</ele>
        <time>2013-10-27T07:47:53Z</time>
      </trkpt>
      <trkpt lat="41.369488" lon="1.956600">
        <ele>265.822</ele>
        <time>2013-10-27T07:47:54Z</time>
      </trkpt>
      <trkpt lat="41.369395" lon="1.956625">
        <ele>268.035</ele>
        <time>2013-10-27T07:48:52Z</time>
      </trkpt>
      <trkpt lat="41.369380" lon="1.956625">
        <ele>268.086</ele>
        <time>2013-10-27T07:48:53Z</time>
      </trkpt>
      <trkpt lat="41.369333" lon="1.956613">
        <ele>268.014</ele>
        <time>2013-10-27T07:48:57Z</time>
      </trkpt>
      <trkpt lat="41.369310" lon="1.956593">
        <ele>268.408</ele>
        <time>2013-10-27T07:49:00Z</time>
      </trkpt>
      <trkpt lat="41.369298" lon="1.956585">
        <ele>268.864</ele>
        <time>2013-10-27T07:49:01Z</time>
      </trkpt>
      <trkpt lat="41.369297" lon="1.956583">
        <ele>269.237</ele>
        <time>2013-10-27T07:49:02Z</time>
      </trkpt>
      <trkpt lat="41.369287" lon="1.956577">
        <ele>269.629</ele>
        <time>2013-10-27T07:49:03Z</time>
      </trkpt>
      <trkpt lat="41.369280" lon="1.956572">
        <ele>270.025</ele>
        <time>2013-10-27T07:49:04Z</time>
      </trkpt>
      <trkpt lat="41.369250" lon="1.956565">
        <ele>270.067</ele>
        <time>2013-10-27T07:49:09Z</time>
      </trkpt>
      <trkpt lat="41.369243" lon="1.956565">
        <ele>270.078</ele>
        <time>2013-10-27T07:49:10Z</time>
      </trkpt>
      <trkpt lat="41.369155" lon="1.956580">
        <ele>270.034</ele>
        <time>2013-10-27T07:51:51Z</time>
      </trkpt>
      <trkpt lat="41.369140" lon="1.956575">
        <ele>270.038</ele>
        <time>2013-10-27T07:51:52Z</time>
      </trkpt>
      <trkpt lat="41.369110" lon="1.956570">
        <ele>270.088</ele>
        <time>2013-10-27T07:51:54Z</time>
      </trkpt>
      <trkpt lat="41.369077" lon="1.956572">
        <ele>270.424</ele>
        <time>2013-10-27T07:51:56Z</time>
      </trkpt>
      <trkpt lat="41.369063" lon="1.956573">
        <ele>270.826</ele>
        <time>2013-10-27T07:51:57Z</time>
      </trkpt>
      <trkpt lat="41.369043" lon="1.956575">
        <ele>271.408</ele>
        <time>2013-10-27T07:51:58Z</time>
      </trkpt>
      <trkpt lat="41.369025" lon="1.956578">
        <ele>271.849</ele>
        <time>2013-10-27T07:51:59Z</time>
      </trkpt>
      <trkpt lat="41.369005" lon="1.956577">
        <ele>272.232</ele>
        <time>2013-10-27T07:52:00Z</time>
      </trkpt>
      <trkpt lat="41.368940" lon="1.956577">
        <ele>272.214</ele>
        <time>2013-10-27T07:52:04Z</time>
      </trkpt>
      <trkpt lat="41.368892" lon="1.956578">
        <ele>272.640</ele>
        <time>2013-10-27T07:52:07Z</time>
      </trkpt>
      <trkpt lat="41.368875" lon="1.956578">
        <ele>273.252</ele>
        <time>2013-10-27T07:52:08Z</time>
      </trkpt>
      <trkpt lat="41.368862" lon="1.956583">
        <ele>273.683</ele>
        <time>2013-10-27T07:52:09Z</time>
      </trkpt>
      <trkpt lat="41.368848" lon="1.956588">
        <ele>274.079</ele>
        <time>2013-10-27T07:52:10Z</time>
      </trkpt>
      <trkpt lat="41.368837" lon="1.956597">
        <ele>274.423</ele>
        <time>2013-10-27T07:52:11Z</time>
      </trkpt>
      <trkpt lat="41.368785" lon="1.956623">
        <ele>274.429</ele>
        <time>2013-10-27T07:52:14Z</time>
      </trkpt>
      <trkpt lat="41.368768" lon="1.956628">
        <ele>274.400</ele>
        <time>2013-10-27T07:52:15Z</time>
      </trkpt>
      <trkpt lat="41.368678" lon="1.956615">
        <ele>274.420</ele>
        <time>2013-10-27T07:52:19Z</time>
      </trkpt>
      <trkpt lat="41.368652" lon="1.956618">
        <ele>274.408</ele>
        <time>2013-10-27T07:52:20Z</time>
      </trkpt>
      <trkpt lat="41.368498" lon="1.956647">
        <ele>274.423</ele>
        <time>2013-10-27T07:52:26Z</time>
      </trkpt>
      <trkpt lat="41.368323" lon="1.956697">
        <ele>274.436</ele>
        <time>2013-10-27T07:52:32Z</time>
      </trkpt>
      <trkpt lat="41.368057" lon="1.956803">
        <ele>274.478</ele>
        <time>2013-10-27T07:52:40Z</time>
      </trkpt>
      <trkpt lat="41.367932" lon="1.956903">
        <ele>274.434</ele>
        <time>2013-10-27T07:52:44Z</time>
      </trkpt>
      <trkpt lat="41.367877" lon="1.956977">
        <ele>274.466</ele>
        <time>2013-10-27T07:52:46Z</time>
      </trkpt>
      <trkpt lat="41.367807" lon="1.957073">
        <ele>274.497</ele>
        <time>2013-10-27T07:52:49Z</time>
      </trkpt>
      <trkpt lat="41.367782" lon="1.957097">
        <ele>274.063</ele>
        <time>2013-10-27T07:52:50Z</time>
      </trkpt>
      <trkpt lat="41.367750" lon="1.957103">
        <ele>273.627</ele>
        <time>2013-10-27T07:52:51Z</time>
      </trkpt>
      <trkpt lat="41.367713" lon="1.957108">
        <ele>273.288</ele>
        <time>2013-10-27T07:52:52Z</time>
      </trkpt>
      <trkpt lat="41.367678" lon="1.957108">
        <ele>272.824</ele>
        <time>2013-10-27T07:52:53Z</time>
      </trkpt>
      <trkpt lat="41.367635" lon="1.957110">
        <ele>272.226</ele>
        <time>2013-10-27T07:52:54Z</time>
      </trkpt>
      <trkpt lat="41.367588" lon="1.957105">
        <ele>271.608</ele>
        <time>2013-10-27T07:52:55Z</time>
      </trkpt>
      <trkpt lat="41.367540" lon="1.957105">
        <ele>271.069</ele>
        <time>2013-10-27T07:52:56Z</time>
      </trkpt>
      <trkpt lat="41.367495" lon="1.957122">
        <ele>270.492</ele>
        <time>2013-10-27T07:52:57Z</time>
      </trkpt>
      <trkpt lat="41.367445" lon="1.957133">
        <ele>269.874</ele>
        <time>2013-10-27T07:52:58Z</time>
      </trkpt>
      <trkpt lat="41.367392" lon="1.957142">
        <ele>269.480</ele>
        <time>2013-10-27T07:52:59Z</time>
      </trkpt>
      <trkpt lat="41.367348" lon="1.957153">
        <ele>268.832</ele>
        <time>2013-10-27T07:53:00Z</time>
      </trkpt>
      <trkpt lat="41.367307" lon="1.957168">
        <ele>268.213</ele>
        <time>2013-10-27T07:53:01Z</time>
      </trkpt>
      <trkpt lat="41.367267" lon="1.957182">
        <ele>267.679</ele>
        <time>2013-10-27T07:53:02Z</time>
      </trkpt>
      <trkpt lat="41.367230" lon="1.957195">
        <ele>267.263</ele>
        <time>2013-10-27T07:53:03Z</time>
      </trkpt>
      <trkpt lat="41.367192" lon="1.957212">
        <ele>266.629</ele>
        <time>2013-10-27T07:53:04Z</time>
      </trkpt>
      <trkpt lat="41.367157" lon="1.957223">
        <ele>266.000</ele>
        <time>2013-10-27T07:53:05Z</time>
      </trkpt>
      <trkpt lat="41.367113" lon="1.957235">
        <ele>265.420</ele>
        <time>2013-10-27T07:53:06Z</time>
      </trkpt>
      <trkpt lat="41.367020" lon="1.957210">
        <ele>265.408</ele>
        <time>2013-10-27T07:53:08Z</time>
      </trkpt>
      <trkpt lat="41.366998" lon="1.957172">
        <ele>265.033</ele>
        <time>2013-10-27T07:53:09Z</time>
      </trkpt>
      <trkpt lat="41.366985" lon="1.957137">
        <ele>264.296</ele>
        <time>2013-10-27T07:53:10Z</time>
      </trkpt>
      <trkpt lat="41.366975" lon="1.957107">
        <ele>263.868</ele>
        <time>2013-10-27T07:53:11Z</time>
      </trkpt>
      <trkpt lat="41.366963" lon="1.957095">
        <ele>263.224</ele>
        <time>2013-10-27T07:53:12Z</time>
      </trkpt>
      <trkpt lat="41.366952" lon="1.957087">
        <ele>263.256</ele>
        <time>2013-10-27T07:53:13Z</time>
      </trkpt>
      <trkpt lat="41.366893" lon="1.957013">
        <ele>262.897</ele>
        <time>2013-10-27T07:53:18Z</time>
      </trkpt>
      <trkpt lat="41.366885" lon="1.957017">
        <ele>262.443</ele>
        <time>2013-10-27T07:53:19Z</time>
      </trkpt>
      <trkpt lat="41.366883" lon="1.957017">
        <ele>262.047</ele>
        <time>2013-10-27T07:53:20Z</time>
      </trkpt>
      <trkpt lat="41.366878" lon="1.957042">
        <ele>261.691</ele>
        <time>2013-10-27T07:53:21Z</time>
      </trkpt>
      <trkpt lat="41.366885" lon="1.957058">
        <ele>261.281</ele>
        <time>2013-10-27T07:53:22Z</time>
      </trkpt>
      <trkpt lat="41.366892" lon="1.957072">
        <ele>261.219</ele>
        <time>2013-10-27T07:53:23Z</time>
      </trkpt>
      <trkpt lat="41.366923" lon="1.957108">
        <ele>261.208</ele>
        <time>2013-10-27T07:53:26Z</time>
      </trkpt>
      <trkpt lat="41.366945" lon="1.957122">
        <ele>261.250</ele>
        <time>2013-10-27T07:53:28Z</time>
      </trkpt>
      <trkpt lat="41.366972" lon="1.957117">
        <ele>261.293</ele>
        <time>2013-10-27T07:53:30Z</time>
      </trkpt>
      <trkpt lat="41.366988" lon="1.957100">
        <ele>261.275</ele>
        <time>2013-10-27T07:53:31Z</time>
      </trkpt>
      <trkpt lat="41.367030" lon="1.957030">
        <ele>261.231</ele>
        <time>2013-10-27T07:53:35Z</time>
      </trkpt>
      <trkpt lat="41.367035" lon="1.957012">
        <ele>261.233</ele>
        <time>2013-10-27T07:53:36Z</time>
      </trkpt>
      <trkpt lat="41.367060" lon="1.956910">
        <ele>261.654</ele>
        <time>2013-10-27T07:53:41Z</time>
      </trkpt>
      <trkpt lat="41.367058" lon="1.956890">
        <ele>262.270</ele>
        <time>2013-10-27T07:53:42Z</time>
      </trkpt>
      <trkpt lat="41.367065" lon="1.956867">
        <ele>262.634</ele>
        <time>2013-10-27T07:53:43Z</time>
      </trkpt>
      <trkpt lat="41.367068" lon="1.956840">
        <ele>263.044</ele>
        <time>2013-10-27T07:53:44Z</time>
      </trkpt>
      <trkpt lat="41.367065" lon="1.956817">
        <ele>263.405</ele>
        <time>2013-10-27T07:53:45Z</time>
      </trkpt>
      <trkpt lat="41.367038" lon="1.956770">
        <ele>263.415</ele>
        <time>2013-10-27T07:53:48Z</time>
      </trkpt>
      <trkpt lat="41.367028" lon="1.956752">
        <ele>263.808</ele>
        <time>2013-10-27T07:53:49Z</time>
      </trkpt>
      <trkpt lat="41.367018" lon="1.956733">
        <ele>264.295</ele>
        <time>2013-10-27T07:53:50Z</time>
      </trkpt>
      <trkpt lat="41.367007" lon="1.956708">
        <ele>264.858</ele>
        <time>2013-10-27T07:53:51Z</time>
      </trkpt>
      <trkpt lat="41.366990" lon="1.956685">
        <ele>265.250</ele>
        <time>2013-10-27T07:53:52Z</time>
      </trkpt>
      <trkpt lat="41.366982" lon="1.956673">
        <ele>265.626</ele>
        <time>2013-10-27T07:53:53Z</time>
      </trkpt>
      <trkpt lat="41.366972" lon="1.956655">
        <ele>265.648</ele>
        <time>2013-10-27T07:53:54Z</time>
      </trkpt>
      <trkpt lat="41.366942" lon="1.956613">
        <ele>265.669</ele>
        <time>2013-10-27T07:53:57Z</time>
      </trkpt>
      <trkpt lat="41.366908" lon="1.956578">
        <ele>266.495</ele>
        <time>2013-10-27T07:54:00Z</time>
      </trkpt>
      <trkpt lat="41.366897" lon="1.956567">
        <ele>266.869</ele>
        <time>2013-10-27T07:54:01Z</time>
      </trkpt>
      <trkpt lat="41.366887" lon="1.956557">
        <ele>267.218</ele>
        <time>2013-10-27T07:54:02Z</time>
      </trkpt>
      <trkpt lat="41.366877" lon="1.956545">
        <ele>267.698</ele>
        <time>2013-10-27T07:54:03Z</time>
      </trkpt>
      <trkpt lat="41.366843" lon="1.956508">
        <ele>267.617</ele>
        <time>2013-10-27T07:54:06Z</time>
      </trkpt>
      <trkpt lat="41.366802" lon="1.956458">
        <ele>267.608</ele>
        <time>2013-10-27T07:54:10Z</time>
      </trkpt>
      <trkpt lat="41.366795" lon="1.956445">
        <ele>267.642</ele>
        <time>2013-10-27T07:54:11Z</time>
      </trkpt>
      <trkpt lat="41.366782" lon="1.956435">
        <ele>267.675</ele>
        <time>2013-10-27T07:54:12Z</time>
      </trkpt>
      <trkpt lat="41.366728" lon="1.956362">
        <ele>267.637</ele>
        <time>2013-10-27T07:54:17Z</time>
      </trkpt>
      <trkpt lat="41.366717" lon="1.956345">
        <ele>268.093</ele>
        <time>2013-10-27T07:54:18Z</time>
      </trkpt>
      <trkpt lat="41.366705" lon="1.956332">
        <ele>268.685</ele>
        <time>2013-10-27T07:54:19Z</time>
      </trkpt>
      <trkpt lat="41.366693" lon="1.956320">
        <ele>269.026</ele>
        <time>2013-10-27T07:54:20Z</time>
      </trkpt>
      <trkpt lat="41.366683" lon="1.956307">
        <ele>269.492</ele>
        <time>2013-10-27T07:54:21Z</time>
      </trkpt>
      <trkpt lat="41.366672" lon="1.956295">
        <ele>269.896</ele>
        <time>2013-10-27T07:54:22Z</time>
      </trkpt>
      <trkpt lat="41.366643" lon="1.956277">
        <ele>269.826</ele>
        <time>2013-10-27T07:54:24Z</time>
      </trkpt>
      <trkpt lat="41.366557" lon="1.956210">
        <ele>269.847</ele>
        <time>2013-10-27T07:54:30Z</time>
      </trkpt>
      <trkpt lat="41.366542" lon="1.956205">
        <ele>270.211</ele>
        <time>2013-10-27T07:54:31Z</time>
      </trkpt>
      <trkpt lat="41.366530" lon="1.956192">
        <ele>270.608</ele>
        <time>2013-10-27T07:54:32Z</time>
      </trkpt>
      <trkpt lat="41.366517" lon="1.956177">
        <ele>271.093</ele>
        <time>2013-10-27T07:54:33Z</time>
      </trkpt>
      <trkpt lat="41.366503" lon="1.956160">
        <ele>271.446</ele>
        <time>2013-10-27T07:54:34Z</time>
      </trkpt>
      <trkpt lat="41.366488" lon="1.956150">
        <ele>271.838</ele>
        <time>2013-10-27T07:54:35Z</time>
      </trkpt>
      <trkpt lat="41.366477" lon="1.956135">
        <ele>271.884</ele>
        <time>2013-10-27T07:54:36Z</time>
      </trkpt>
      <trkpt lat="41.366435" lon="1.956102">
        <ele>272.276</ele>
        <time>2013-10-27T07:54:39Z</time>
      </trkpt>
      <trkpt lat="41.366420" lon="1.956092">
        <ele>272.897</ele>
        <time>2013-10-27T07:54:40Z</time>
      </trkpt>
      <trkpt lat="41.366408" lon="1.956073">
        <ele>273.273</ele>
        <time>2013-10-27T07:54:41Z</time>
      </trkpt>
      <trkpt lat="41.366395" lon="1.956060">
        <ele>273.697</ele>
        <time>2013-10-27T07:54:42Z</time>
      </trkpt>
      <trkpt lat="41.366383" lon="1.956045">
        <ele>274.237</ele>
        <time>2013-10-27T07:54:43Z</time>
      </trkpt>
      <trkpt lat="41.366357" lon="1.956000">
        <ele>274.649</ele>
        <time>2013-10-27T07:54:46Z</time>
      </trkpt>
      <trkpt lat="41.366353" lon="1.955980">
        <ele>275.013</ele>
        <time>2013-10-27T07:54:47Z</time>
      </trkpt>
      <trkpt lat="41.366355" lon="1.955957">
        <ele>275.808</ele>
        <time>2013-10-27T07:54:48Z</time>
      </trkpt>
      <trkpt lat="41.366348" lon="1.955940">
        <ele>276.254</ele>
        <time>2013-10-27T07:54:49Z</time>
      </trkpt>
      <trkpt lat="41.366332" lon="1.955893">
        <ele>276.277</ele>
        <time>2013-10-27T07:54:52Z</time>
      </trkpt>
      <trkpt lat="41.366327" lon="1.955880">
        <ele>276.229</ele>
        <time>2013-10-27T07:54:53Z</time>
      </trkpt>
      <trkpt lat="41.366325" lon="1.955858">
        <ele>276.235</ele>
        <time>2013-10-27T07:54:54Z</time>
      </trkpt>
      <trkpt lat="41.366302" lon="1.955762">
        <ele>276.637</ele>
        <time>2013-10-27T07:54:59Z</time>
      </trkpt>
      <trkpt lat="41.366300" lon="1.955743">
        <ele>277.058</ele>
        <time>2013-10-27T07:55:00Z</time>
      </trkpt>
      <trkpt lat="41.366305" lon="1.955723">
        <ele>277.424</ele>
        <time>2013-10-27T07:55:01Z</time>
      </trkpt>
      <trkpt lat="41.366308" lon="1.955707">
        <ele>277.848</ele>
        <time>2013-10-27T07:55:02Z</time>
      </trkpt>
      <trkpt lat="41.366312" lon="1.955692">
        <ele>278.289</ele>
        <time>2013-10-27T07:55:03Z</time>
      </trkpt>
      <trkpt lat="41.366307" lon="1.955643">
        <ele>278.206</ele>
        <time>2013-10-27T07:55:06Z</time>
      </trkpt>
      <trkpt lat="41.366265" lon="1.955528">
        <ele>278.226</ele>
        <time>2013-10-27T07:55:12Z</time>
      </trkpt>
      <trkpt lat="41.366247" lon="1.955507">
        <ele>278.608</ele>
        <time>2013-10-27T07:55:14Z</time>
      </trkpt>
      <trkpt lat="41.366233" lon="1.955500">
        <ele>279.019</ele>
        <time>2013-10-27T07:55:15Z</time>
      </trkpt>
      <trkpt lat="41.366218" lon="1.955490">
        <ele>279.632</ele>
        <time>2013-10-27T07:55:16Z</time>
      </trkpt>
      <trkpt lat="41.366205" lon="1.955480">
        <ele>280.014</ele>
        <time>2013-10-27T07:55:17Z</time>
      </trkpt>
      <trkpt lat="41.366197" lon="1.955468">
        <ele>280.490</ele>
        <time>2013-10-27T07:55:18Z</time>
      </trkpt>
      <trkpt lat="41.366173" lon="1.955437">
        <ele>280.462</ele>
        <time>2013-10-27T07:55:20Z</time>
      </trkpt>
      <trkpt lat="41.366150" lon="1.955372">
        <ele>280.443</ele>
        <time>2013-10-27T07:55:23Z</time>
      </trkpt>
      <trkpt lat="41.366135" lon="1.955332">
        <ele>280.889</ele>
        <time>2013-10-27T07:55:25Z</time>
      </trkpt>
      <trkpt lat="41.366125" lon="1.955317">
        <ele>281.213</ele>
        <time>2013-10-27T07:55:26Z</time>
      </trkpt>
      <trkpt lat="41.366125" lon="1.955297">
        <ele>281.676</ele>
        <time>2013-10-27T07:55:27Z</time>
      </trkpt>
      <trkpt lat="41.366128" lon="1.955273">
        <ele>282.090</ele>
        <time>2013-10-27T07:55:28Z</time>
      </trkpt>
      <trkpt lat="41.366133" lon="1.955255">
        <ele>282.419</ele>
        <time>2013-10-27T07:55:29Z</time>
      </trkpt>
      <trkpt lat="41.366137" lon="1.955220">
        <ele>282.408</ele>
        <time>2013-10-27T07:55:31Z</time>
      </trkpt>
      <trkpt lat="41.366147" lon="1.955152">
        <ele>282.478</ele>
        <time>2013-10-27T07:55:35Z</time>
      </trkpt>
      <trkpt lat="41.366150" lon="1.955117">
        <ele>283.411</ele>
        <time>2013-10-27T07:55:37Z</time>
      </trkpt>
      <trkpt lat="41.366155" lon="1.955108">
        <ele>283.893</ele>
        <time>2013-10-27T07:55:38Z</time>
      </trkpt>
      <trkpt lat="41.366150" lon="1.955083">
        <ele>284.239</ele>
        <time>2013-10-27T07:55:39Z</time>
      </trkpt>
      <trkpt lat="41.366150" lon="1.955065">
        <ele>284.641</ele>
        <time>2013-10-27T07:55:40Z</time>
      </trkpt>
      <trkpt lat="41.366148" lon="1.955047">
        <ele>284.632</ele>
        <time>2013-10-27T07:55:41Z</time>
      </trkpt>
      <trkpt lat="41.366147" lon="1.954922">
        <ele>284.658</ele>
        <time>2013-10-27T07:55:48Z</time>
      </trkpt>
      <trkpt lat="41.366122" lon="1.954837">
        <ele>285.082</ele>
        <time>2013-10-27T07:55:52Z</time>
      </trkpt>
      <trkpt lat="41.366117" lon="1.954817">
        <ele>285.447</ele>
        <time>2013-10-27T07:55:53Z</time>
      </trkpt>
      <trkpt lat="41.366112" lon="1.954798">
        <ele>286.029</ele>
        <time>2013-10-27T07:55:54Z</time>
      </trkpt>
      <trkpt lat="41.366100" lon="1.954783">
        <ele>286.421</ele>
        <time>2013-10-27T07:55:55Z</time>
      </trkpt>
      <trkpt lat="41.366093" lon="1.954760">
        <ele>286.808</ele>
        <time>2013-10-27T07:55:56Z</time>
      </trkpt>
      <trkpt lat="41.366075" lon="1.954712">
        <ele>286.875</ele>
        <time>2013-10-27T07:55:59Z</time>
      </trkpt>
      <trkpt lat="41.366070" lon="1.954670">
        <ele>286.898</ele>
        <time>2013-10-27T07:56:01Z</time>
      </trkpt>
      <trkpt lat="41.366067" lon="1.954652">
        <ele>287.230</ele>
        <time>2013-10-27T07:56:02Z</time>
      </trkpt>
      <trkpt lat="41.366053" lon="1.954635">
        <ele>287.696</ele>
        <time>2013-10-27T07:56:03Z</time>
      </trkpt>
      <trkpt lat="41.366048" lon="1.954613">
        <ele>288.048</ele>
        <time>2013-10-27T07:56:04Z</time>
      </trkpt>
      <trkpt lat="41.366042" lon="1.954597">
        <ele>288.429</ele>
        <time>2013-10-27T07:56:05Z</time>
      </trkpt>
      <trkpt lat="41.366032" lon="1.954582">
        <ele>289.095</ele>
        <time>2013-10-27T07:56:06Z</time>
      </trkpt>
      <trkpt lat="41.366022" lon="1.954565">
        <ele>289.059</ele>
        <time>2013-10-27T07:56:07Z</time>
      </trkpt>
      <trkpt lat="41.365998" lon="1.954495">
        <ele>289.096</ele>
        <time>2013-10-27T07:56:11Z</time>
      </trkpt>
      <trkpt lat="41.365987" lon="1.954487">
        <ele>289.031</ele>
        <time>2013-10-27T07:56:12Z</time>
      </trkpt>
      <trkpt lat="41.365977" lon="1.954467">
        <ele>289.424</ele>
        <time>2013-10-27T07:56:13Z</time>
      </trkpt>
      <trkpt lat="41.365968" lon="1.954452">
        <ele>289.808</ele>
        <time>2013-10-27T07:56:14Z</time>
      </trkpt>
      <trkpt lat="41.365962" lon="1.954432">
        <ele>290.210</ele>
        <time>2013-10-27T07:56:15Z</time>
      </trkpt>
      <trkpt lat="41.365950" lon="1.954413">
        <ele>290.693</ele>
        <time>2013-10-27T07:56:16Z</time>
      </trkpt>
      <trkpt lat="41.365947" lon="1.954395">
        <ele>291.025</ele>
        <time>2013-10-27T07:56:17Z</time>
      </trkpt>
      <trkpt lat="41.365923" lon="1.954287">
        <ele>291.081</ele>
        <time>2013-10-27T07:56:22Z</time>
      </trkpt>
      <trkpt lat="41.365903" lon="1.954185">
        <ele>291.423</ele>
        <time>2013-10-27T07:56:27Z</time>
      </trkpt>
      <trkpt lat="41.365900" lon="1.954163">
        <ele>291.844</ele>
        <time>2013-10-27T07:56:28Z</time>
      </trkpt>
      <trkpt lat="41.365898" lon="1.954147">
        <ele>292.220</ele>
        <time>2013-10-27T07:56:29Z</time>
      </trkpt>
      <trkpt lat="41.365888" lon="1.954128">
        <ele>292.644</ele>
        <time>2013-10-27T07:56:30Z</time>
      </trkpt>
      <trkpt lat="41.365885" lon="1.954107">
        <ele>293.011</ele>
        <time>2013-10-27T07:56:31Z</time>
      </trkpt>
      <trkpt lat="41.365872" lon="1.954045">
        <ele>293.021</ele>
        <time>2013-10-27T07:56:34Z</time>
      </trkpt>
      <trkpt lat="41.365852" lon="1.953958">
        <ele>293.403</ele>
        <time>2013-10-27T07:56:38Z</time>
      </trkpt>
      <trkpt lat="41.365847" lon="1.953935">
        <ele>294.008</ele>
        <time>2013-10-27T07:56:39Z</time>
      </trkpt>
      <trkpt lat="41.365843" lon="1.953912">
        <ele>294.462</ele>
        <time>2013-10-27T07:56:40Z</time>
      </trkpt>
      <trkpt lat="41.365842" lon="1.953883">
        <ele>294.865</ele>
        <time>2013-10-27T07:56:41Z</time>
      </trkpt>
      <trkpt lat="41.365838" lon="1.953857">
        <ele>295.267</ele>
        <time>2013-10-27T07:56:42Z</time>
      </trkpt>
      <trkpt lat="41.365818" lon="1.953717">
        <ele>295.243</ele>
        <time>2013-10-27T07:56:47Z</time>
      </trkpt>
      <trkpt lat="41.365763" lon="1.953480">
        <ele>295.245</ele>
        <time>2013-10-27T07:56:54Z</time>
      </trkpt>
      <trkpt lat="41.365625" lon="1.953240">
        <ele>295.216</ele>
        <time>2013-10-27T07:57:00Z</time>
      </trkpt>
      <trkpt lat="41.365473" lon="1.953100">
        <ele>295.242</ele>
        <time>2013-10-27T07:57:05Z</time>
      </trkpt>
      <trkpt lat="41.365438" lon="1.953073">
        <ele>295.266</ele>
        <time>2013-10-27T07:57:06Z</time>
      </trkpt>
      <trkpt lat="41.365370" lon="1.953035">
        <ele>295.281</ele>
        <time>2013-10-27T07:57:08Z</time>
      </trkpt>
      <trkpt lat="41.365262" lon="1.952963">
        <ele>295.261</ele>
        <time>2013-10-27T07:57:11Z</time>
      </trkpt>
      <trkpt lat="41.365178" lon="1.952908">
        <ele>295.217</ele>
        <time>2013-10-27T07:57:13Z</time>
      </trkpt>
      <trkpt lat="41.365085" lon="1.952853">
        <ele>295.208</ele>
        <time>2013-10-27T07:57:15Z</time>
      </trkpt>
      <trkpt lat="41.364975" lon="1.952798">
        <ele>295.299</ele>
        <time>2013-10-27T07:57:17Z</time>
      </trkpt>
      <trkpt lat="41.364847" lon="1.952738">
        <ele>294.652</ele>
        <time>2013-10-27T07:57:19Z</time>
      </trkpt>
      <trkpt lat="41.364778" lon="1.952707">
        <ele>294.264</ele>
        <time>2013-10-27T07:57:20Z</time>
      </trkpt>
      <trkpt lat="41.364708" lon="1.952682">
        <ele>293.640</ele>
        <time>2013-10-27T07:57:21Z</time>
      </trkpt>
      <trkpt lat="41.364643" lon="1.952650">
        <ele>293.242</ele>
        <time>2013-10-27T07:57:22Z</time>
      </trkpt>
      <trkpt lat="41.364577" lon="1.952617">
        <ele>292.633</ele>
        <time>2013-10-27T07:57:23Z</time>
      </trkpt>
      <trkpt lat="41.364378" lon="1.952525">
        <ele>292.299</ele>
        <time>2013-10-27T07:57:26Z</time>
      </trkpt>
      <trkpt lat="41.364307" lon="1.952490">
        <ele>291.893</ele>
        <time>2013-10-27T07:57:27Z</time>
      </trkpt>
      <trkpt lat="41.364233" lon="1.952450">
        <ele>291.417</ele>
        <time>2013-10-27T07:57:28Z</time>
      </trkpt>
      <trkpt lat="41.364143" lon="1.952412">
        <ele>290.887</ele>
        <time>2013-10-27T07:57:29Z</time>
      </trkpt>
      <trkpt lat="41.364052" lon="1.952377">
        <ele>290.215</ele>
        <time>2013-10-27T07:57:30Z</time>
      </trkpt>
      <trkpt lat="41.363965" lon="1.952342">
        <ele>289.408</ele>
        <time>2013-10-27T07:57:31Z</time>
      </trkpt>
      <trkpt lat="41.363875" lon="1.952310">
        <ele>288.672</ele>
        <time>2013-10-27T07:57:32Z</time>
      </trkpt>
      <trkpt lat="41.363783" lon="1.952285">
        <ele>287.825</ele>
        <time>2013-10-27T07:57:33Z</time>
      </trkpt>
      <trkpt lat="41.363697" lon="1.952260">
        <ele>287.077</ele>
        <time>2013-10-27T07:57:34Z</time>
      </trkpt>
      <trkpt lat="41.363610" lon="1.952235">
        <ele>286.253</ele>
        <time>2013-10-27T07:57:35Z</time>
      </trkpt>
      <trkpt lat="41.363352" lon="1.952172">
        <ele>286.225</ele>
        <time>2013-10-27T07:57:38Z</time>
      </trkpt>
      <trkpt lat="41.363163" lon="1.952108">
        <ele>285.836</ele>
        <time>2013-10-27T07:57:40Z</time>
      </trkpt>
      <trkpt lat="41.363065" lon="1.952077">
        <ele>285.092</ele>
        <time>2013-10-27T07:57:41Z</time>
      </trkpt>
      <trkpt lat="41.362970" lon="1.952047">
        <ele>284.436</ele>
        <time>2013-10-27T07:57:42Z</time>
      </trkpt>
      <trkpt lat="41.362877" lon="1.952025">
        <ele>284.018</ele>
        <time>2013-10-27T07:57:43Z</time>
      </trkpt>
      <trkpt lat="41.362785" lon="1.952018">
        <ele>284.098</ele>
        <time>2013-10-27T07:57:44Z</time>
      </trkpt>
      <trkpt lat="41.362702" lon="1.952010">
        <ele>284.017</ele>
        <time>2013-10-27T07:57:45Z</time>
      </trkpt>
      <trkpt lat="41.362567" lon="1.951967">
        <ele>283.608</ele>
        <time>2013-10-27T07:57:47Z</time>
      </trkpt>
      <trkpt lat="41.362498" lon="1.951938">
        <ele>283.212</ele>
        <time>2013-10-27T07:57:48Z</time>
      </trkpt>
      <trkpt lat="41.362452" lon="1.951893">
        <ele>282.675</ele>
        <time>2013-10-27T07:57:49Z</time>
      </trkpt>
      <trkpt lat="41.362405" lon="1.951822">
        <ele>282.257</ele>
        <time>2013-10-27T07:57:50Z</time>
      </trkpt>
      <trkpt lat="41.362358" lon="1.951753">
        <ele>281.823</ele>
        <time>2013-10-27T07:57:51Z</time>
      </trkpt>
      <trkpt lat="41.362188" lon="1.951567">
        <ele>281.895</ele>
        <time>2013-10-27T07:57:54Z</time>
      </trkpt>
      <trkpt lat="41.362037" lon="1.951492">
        <ele>281.446</ele>
        <time>2013-10-27T07:57:56Z</time>
      </trkpt>
      <trkpt lat="41.361962" lon="1.951460">
        <ele>281.022</ele>
        <time>2013-10-27T07:57:57Z</time>
      </trkpt>
      <trkpt lat="41.361890" lon="1.951427">
        <ele>280.686</ele>
        <time>2013-10-27T07:57:58Z</time>
      </trkpt>
      <trkpt lat="41.361822" lon="1.951393">
        <ele>280.093</ele>
        <time>2013-10-27T07:57:59Z</time>
      </trkpt>
      <trkpt lat="41.361775" lon="1.951343">
        <ele>279.665</ele>
        <time>2013-10-27T07:58:00Z</time>
      </trkpt>
      <trkpt lat="41.361742" lon="1.951300">
        <ele>279.621</ele>
        <time>2013-10-27T07:58:01Z</time>
      </trkpt>
      <trkpt lat="41.361698" lon="1.951242">
        <ele>279.608</ele>
        <time>2013-10-27T07:58:03Z</time>
      </trkpt>
      <trkpt lat="41.361695" lon="1.951218">
        <ele>279.660</ele>
        <time>2013-10-27T07:58:04Z</time>
      </trkpt>
      <trkpt lat="41.361692" lon="1.951190">
        <ele>279.613</ele>
        <time>2013-10-27T07:58:05Z</time>
      </trkpt>
      <trkpt lat="41.361687" lon="1.951148">
        <ele>279.635</ele>
        <time>2013-10-27T07:58:07Z</time>
      </trkpt>
      <trkpt lat="41.361687" lon="1.951118">
        <ele>280.091</ele>
        <time>2013-10-27T07:58:09Z</time>
      </trkpt>
      <trkpt lat="41.361688" lon="1.951103">
        <ele>280.453</ele>
        <time>2013-10-27T07:58:10Z</time>
      </trkpt>
      <trkpt lat="41.361680" lon="1.951082">
        <ele>281.074</ele>
        <time>2013-10-27T07:58:11Z</time>
      </trkpt>
      <trkpt lat="41.361675" lon="1.951055">
        <ele>281.410</ele>
        <time>2013-10-27T07:58:12Z</time>
      </trkpt>
      <trkpt lat="41.361672" lon="1.951033">
        <ele>281.874</ele>
        <time>2013-10-27T07:58:13Z</time>
      </trkpt>
      <trkpt lat="41.361667" lon="1.950993">
        <ele>281.887</ele>
        <time>2013-10-27T07:58:15Z</time>
      </trkpt>
      <trkpt lat="41.361655" lon="1.950978">
        <ele>281.842</ele>
        <time>2013-10-27T07:58:16Z</time>
      </trkpt>
      <trkpt lat="41.361645" lon="1.950910">
        <ele>282.226</ele>
        <time>2013-10-27T07:58:19Z</time>
      </trkpt>
      <trkpt lat="41.361643" lon="1.950885">
        <ele>282.608</ele>
        <time>2013-10-27T07:58:20Z</time>
      </trkpt>
      <trkpt lat="41.361637" lon="1.950868">
        <ele>283.239</ele>
        <time>2013-10-27T07:58:21Z</time>
      </trkpt>
      <trkpt lat="41.361628" lon="1.950850">
        <ele>283.652</ele>
        <time>2013-10-27T07:58:22Z</time>
      </trkpt>
      <trkpt lat="41.361618" lon="1.950837">
        <ele>284.074</ele>
        <time>2013-10-27T07:58:23Z</time>
      </trkpt>
      <trkpt lat="41.361597" lon="1.950787">
        <ele>284.040</ele>
        <time>2013-10-27T07:58:26Z</time>
      </trkpt>
      <trkpt lat="41.361587" lon="1.950745">
        <ele>284.692</ele>
        <time>2013-10-27T07:58:28Z</time>
      </trkpt>
      <trkpt lat="41.361587" lon="1.950723">
        <ele>285.033</ele>
        <time>2013-10-27T07:58:29Z</time>
      </trkpt>
      <trkpt lat="41.361583" lon="1.950707">
        <ele>285.879</ele>
        <time>2013-10-27T07:58:30Z</time>
      </trkpt>
      <trkpt lat="41.361583" lon="1.950685">
        <ele>286.243</ele>
        <time>2013-10-27T07:58:31Z</time>
      </trkpt>
      <trkpt lat="41.361580" lon="1.950648">
        <ele>286.239</ele>
        <time>2013-10-27T07:58:33Z</time>
      </trkpt>
      <trkpt lat="41.361583" lon="1.950638">
        <ele>286.601</ele>
        <time>2013-10-27T07:58:34Z</time>
      </trkpt>
      <trkpt lat="41.361582" lon="1.950625">
        <ele>287.021</ele>
        <time>2013-10-27T07:58:35Z</time>
      </trkpt>
      <trkpt lat="41.361585" lon="1.950610">
        <ele>287.408</ele>
        <time>2013-10-27T07:58:36Z</time>
      </trkpt>
      <trkpt lat="41.361592" lon="1.950590">
        <ele>287.874</ele>
        <time>2013-10-27T07:58:37Z</time>
      </trkpt>
      <trkpt lat="41.361597" lon="1.950572">
        <ele>288.437</ele>
        <time>2013-10-27T07:58:38Z</time>
      </trkpt>
      <trkpt lat="41.361593" lon="1.950558">
        <ele>288.859</ele>
        <time>2013-10-27T07:58:39Z</time>
      </trkpt>
      <trkpt lat="41.361592" lon="1.950547">
        <ele>289.295</ele>
        <time>2013-10-27T07:58:40Z</time>
      </trkpt>
      <trkpt lat="41.361590" lon="1.950533">
        <ele>289.647</ele>
        <time>2013-10-27T07:58:41Z</time>
      </trkpt>
      <trkpt lat="41.361585" lon="1.950523">
        <ele>290.018</ele>
        <time>2013-10-27T07:58:42Z</time>
      </trkpt>
      <trkpt lat="41.361580" lon="1.950508">
        <ele>290.464</ele>
        <time>2013-10-27T07:58:43Z</time>
      </trkpt>
      <trkpt lat="41.361575" lon="1.950475">
        <ele>290.838</ele>
        <time>2013-10-27T07:58:45Z</time>
      </trkpt>
      <trkpt lat="41.361575" lon="1.950460">
        <ele>291.438</ele>
        <time>2013-10-27T07:58:46Z</time>
      </trkpt>
      <trkpt lat="41.361580" lon="1.950448">
        <ele>291.870</ele>
        <time>2013-10-27T07:58:47Z</time>
      </trkpt>
      <trkpt lat="41.361580" lon="1.950433">
        <ele>292.217</ele>
        <time>2013-10-27T07:58:48Z</time>
      </trkpt>
      <trkpt lat="41.361583" lon="1.950420">
        <ele>292.808</ele>
        <time>2013-10-27T07:58:49Z</time>
      </trkpt>
      <trkpt lat="41.361590" lon="1.950395">
        <ele>293.264</ele>
        <time>2013-10-27T07:58:52Z</time>
      </trkpt>
      <trkpt lat="41.361597" lon="1.950377">
        <ele>293.677</ele>
        <time>2013-10-27T07:58:53Z</time>
      </trkpt>
      <trkpt lat="41.361605" lon="1.950368">
        <ele>294.079</ele>
        <time>2013-10-27T07:58:54Z</time>
      </trkpt>
      <trkpt lat="41.361610" lon="1.950358">
        <ele>294.855</ele>
        <time>2013-10-27T07:58:55Z</time>
      </trkpt>
      <trkpt lat="41.361645" lon="1.950295">
        <ele>295.287</ele>
        <time>2013-10-27T07:59:00Z</time>
      </trkpt>
      <trkpt lat="41.361652" lon="1.950292">
        <ele>295.688</ele>
        <time>2013-10-27T07:59:01Z</time>
      </trkpt>
      <trkpt lat="41.361652" lon="1.950292">
        <ele>296.094</ele>
        <time>2013-10-27T07:59:02Z</time>
      </trkpt>
      <trkpt lat="41.361663" lon="1.950280">
        <ele>296.658</ele>
        <time>2013-10-27T07:59:03Z</time>
      </trkpt>
      <trkpt lat="41.361670" lon="1.950267">
        <ele>297.019</ele>
        <time>2013-10-27T07:59:04Z</time>
      </trkpt>
      <trkpt lat="41.361695" lon="1.950232">
        <ele>297.009</ele>
        <time>2013-10-27T07:59:07Z</time>
      </trkpt>
      <trkpt lat="41.361760" lon="1.950172">
        <ele>297.019</ele>
        <time>2013-10-27T07:59:12Z</time>
      </trkpt>
      <trkpt lat="41.361767" lon="1.950160">
        <ele>297.408</ele>
        <time>2013-10-27T07:59:13Z</time>
      </trkpt>
      <trkpt lat="41.361780" lon="1.950150">
        <ele>297.872</ele>
        <time>2013-10-27T07:59:14Z</time>
      </trkpt>
      <trkpt lat="41.361792" lon="1.950140">
        <ele>298.255</ele>
        <time>2013-10-27T07:59:15Z</time>
      </trkpt>
      <trkpt lat="41.361805" lon="1.950132">
        <ele>298.667</ele>
        <time>2013-10-27T07:59:16Z</time>
      </trkpt>
      <trkpt lat="41.361813" lon="1.950117">
        <ele>299.083</ele>
        <time>2013-10-27T07:59:17Z</time>
      </trkpt>
      <trkpt lat="41.361882" lon="1.950035">
        <ele>299.075</ele>
        <time>2013-10-27T07:59:23Z</time>
      </trkpt>
      <trkpt lat="41.362002" lon="1.949882">
        <ele>299.096</ele>
        <time>2013-10-27T07:59:33Z</time>
      </trkpt>
      <trkpt lat="41.362010" lon="1.949865">
        <ele>299.482</ele>
        <time>2013-10-27T07:59:34Z</time>
      </trkpt>
      <trkpt lat="41.362018" lon="1.949845">
        <ele>299.836</ele>
        <time>2013-10-27T07:59:35Z</time>
      </trkpt>
      <trkpt lat="41.362025" lon="1.949823">
        <ele>300.291</ele>
        <time>2013-10-27T07:59:36Z</time>
      </trkpt>
      <trkpt lat="41.362032" lon="1.949800">
        <ele>300.681</ele>
        <time>2013-10-27T07:59:37Z</time>
      </trkpt>
      <trkpt lat="41.362038" lon="1.949783">
        <ele>301.019</ele>
        <time>2013-10-27T07:59:38Z</time>
      </trkpt>
      <trkpt lat="41.362053" lon="1.949715">
        <ele>301.008</ele>
        <time>2013-10-27T07:59:41Z</time>
      </trkpt>
      <trkpt lat="41.362047" lon="1.949652">
        <ele>301.480</ele>
        <time>2013-10-27T07:59:44Z</time>
      </trkpt>
      <trkpt lat="41.362050" lon="1.949637">
        <ele>302.483</ele>
        <time>2013-10-27T07:59:45Z</time>
      </trkpt>
      <trkpt lat="41.362050" lon="1.949623">
        <ele>302.845</ele>
        <time>2013-10-27T07:59:46Z</time>
      </trkpt>
      <trkpt lat="41.362052" lon="1.949608">
        <ele>303.261</ele>
        <time>2013-10-27T07:59:47Z</time>
      </trkpt>
      <trkpt lat="41.362053" lon="1.949592">
        <ele>303.213</ele>
        <time>2013-10-27T07:59:48Z</time>
      </trkpt>
      <trkpt lat="41.362047" lon="1.949528">
        <ele>303.684</ele>
        <time>2013-10-27T07:59:51Z</time>
      </trkpt>
      <trkpt lat="41.362043" lon="1.949518">
        <ele>304.080</ele>
        <time>2013-10-27T07:59:52Z</time>
      </trkpt>
      <trkpt lat="41.362038" lon="1.949495">
        <ele>304.454</ele>
        <time>2013-10-27T07:59:53Z</time>
      </trkpt>
      <trkpt lat="41.362035" lon="1.949473">
        <ele>304.892</ele>
        <time>2013-10-27T07:59:54Z</time>
      </trkpt>
      <trkpt lat="41.362032" lon="1.949448">
        <ele>305.273</ele>
        <time>2013-10-27T07:59:55Z</time>
      </trkpt>
      <trkpt lat="41.362023" lon="1.949340">
        <ele>305.620</ele>
        <time>2013-10-27T08:00:00Z</time>
      </trkpt>
      <trkpt lat="41.362023" lon="1.949315">
        <ele>306.008</ele>
        <time>2013-10-27T08:00:01Z</time>
      </trkpt>
      <trkpt lat="41.362027" lon="1.949292">
        <ele>306.410</ele>
        <time>2013-10-27T08:00:02Z</time>
      </trkpt>
      <trkpt lat="41.362027" lon="1.949270">
        <ele>307.043</ele>
        <time>2013-10-27T08:00:03Z</time>
      </trkpt>
      <trkpt lat="41.362027" lon="1.949250">
        <ele>307.485</ele>
        <time>2013-10-27T08:00:04Z</time>
      </trkpt>
      <trkpt lat="41.362030" lon="1.949163">
        <ele>307.421</ele>
        <time>2013-10-27T08:00:08Z</time>
      </trkpt>
      <trkpt lat="41.362067" lon="1.948962">
        <ele>307.493</ele>
        <time>2013-10-27T08:00:16Z</time>
      </trkpt>
      <trkpt lat="41.362072" lon="1.948913">
        <ele>307.874</ele>
        <time>2013-10-27T08:00:19Z</time>
      </trkpt>
      <trkpt lat="41.362077" lon="1.948895">
        <ele>308.240</ele>
        <time>2013-10-27T08:00:20Z</time>
      </trkpt>
      <trkpt lat="41.362085" lon="1.948870">
        <ele>308.664</ele>
        <time>2013-10-27T08:00:21Z</time>
      </trkpt>
      <trkpt lat="41.362095" lon="1.948847">
        <ele>309.267</ele>
        <time>2013-10-27T08:00:22Z</time>
      </trkpt>
      <trkpt lat="41.362102" lon="1.948823">
        <ele>309.681</ele>
        <time>2013-10-27T08:00:23Z</time>
      </trkpt>
      <trkpt lat="41.362135" lon="1.948703">
        <ele>309.619</ele>
        <time>2013-10-27T08:00:28Z</time>
      </trkpt>
      <trkpt lat="41.362157" lon="1.948630">
        <ele>309.608</ele>
        <time>2013-10-27T08:00:31Z</time>
      </trkpt>
      <trkpt lat="41.362180" lon="1.948522">
        <ele>309.657</ele>
        <time>2013-10-27T08:00:36Z</time>
      </trkpt>
      <trkpt lat="41.362192" lon="1.948473">
        <ele>309.630</ele>
        <time>2013-10-27T08:00:39Z</time>
      </trkpt>
      <trkpt lat="41.362207" lon="1.948420">
        <ele>309.672</ele>
        <time>2013-10-27T08:00:42Z</time>
      </trkpt>
      <trkpt lat="41.362220" lon="1.948382">
        <ele>309.618</ele>
        <time>2013-10-27T08:00:44Z</time>
      </trkpt>
      <trkpt lat="41.362208" lon="1.948348">
        <ele>309.690</ele>
        <time>2013-10-27T08:00:46Z</time>
      </trkpt>
      <trkpt lat="41.362203" lon="1.948350">
        <ele>309.651</ele>
        <time>2013-10-27T08:00:48Z</time>
      </trkpt>
      <trkpt lat="41.362190" lon="1.948360">
        <ele>309.617</ele>
        <time>2013-10-27T08:03:44Z</time>
      </trkpt>
      <trkpt lat="41.362177" lon="1.948358">
        <ele>309.641</ele>
        <time>2013-10-27T08:03:45Z</time>
      </trkpt>
      <trkpt lat="41.362157" lon="1.948358">
        <ele>309.696</ele>
        <time>2013-10-27T08:03:46Z</time>
      </trkpt>
      <trkpt lat="41.362098" lon="1.948380">
        <ele>309.631</ele>
        <time>2013-10-27T08:03:48Z</time>
      </trkpt>
      <trkpt lat="41.362053" lon="1.948390">
        <ele>309.624</ele>
        <time>2013-10-27T08:03:49Z</time>
      </trkpt>
      <trkpt lat="41.362015" lon="1.948400">
        <ele>309.608</ele>
        <time>2013-10-27T08:03:50Z</time>
      </trkpt>
      <trkpt lat="41.361923" lon="1.948422">
        <ele>309.650</ele>
        <time>2013-10-27T08:03:52Z</time>
      </trkpt>
      <trkpt lat="41.361817" lon="1.948433">
        <ele>309.663</ele>
        <time>2013-10-27T08:03:54Z</time>
      </trkpt>
      <trkpt lat="41.361560" lon="1.948335">
        <ele>309.675</ele>
        <time>2013-10-27T08:03:58Z</time>
      </trkpt>
      <trkpt lat="41.361377" lon="1.948205">
        <ele>309.031</ele>
        <time>2013-10-27T08:04:01Z</time>
      </trkpt>
      <trkpt lat="41.361315" lon="1.948163">
        <ele>308.623</ele>
        <time>2013-10-27T08:04:02Z</time>
      </trkpt>
      <trkpt lat="41.361263" lon="1.948132">
        <ele>308.234</ele>
        <time>2013-10-27T08:04:03Z</time>
      </trkpt>
      <trkpt lat="41.361200" lon="1.948095">
        <ele>307.660</ele>
        <time>2013-10-27T08:04:04Z</time>
      </trkpt>
      <trkpt lat="41.361147" lon="1.948067">
        <ele>307.274</ele>
        <time>2013-10-27T08:04:05Z</time>
      </trkpt>
      <trkpt lat="41.361097" lon="1.948040">
        <ele>306.648</ele>
        <time>2013-10-27T08:04:06Z</time>
      </trkpt>
      <trkpt lat="41.361042" lon="1.948018">
        <ele>306.061</ele>
        <time>2013-10-27T08:04:07Z</time>
      </trkpt>
      <trkpt lat="41.360987" lon="1.948000">
        <ele>305.417</ele>
        <time>2013-10-27T08:04:08Z</time>
      </trkpt>
      <trkpt lat="41.360942" lon="1.947983">
        <ele>305.008</ele>
        <time>2013-10-27T08:04:09Z</time>
      </trkpt>
      <trkpt lat="41.360892" lon="1.947968">
        <ele>304.295</ele>
        <time>2013-10-27T08:04:10Z</time>
      </trkpt>
      <trkpt lat="41.360837" lon="1.947957">
        <ele>303.618</ele>
        <time>2013-10-27T08:04:11Z</time>
      </trkpt>
      <trkpt lat="41.360773" lon="1.947970">
        <ele>303.010</ele>
        <time>2013-10-27T08:04:12Z</time>
      </trkpt>
      <trkpt lat="41.360717" lon="1.947982">
        <ele>302.496</ele>
        <time>2013-10-27T08:04:13Z</time>
      </trkpt>
      <trkpt lat="41.360660" lon="1.947998">
        <ele>301.038</ele>
        <time>2013-10-27T08:04:14Z</time>
      </trkpt>
      <trkpt lat="41.360605" lon="1.948013">
        <ele>300.479</ele>
        <time>2013-10-27T08:04:15Z</time>
      </trkpt>
      <trkpt lat="41.360545" lon="1.948027">
        <ele>299.895</ele>
        <time>2013-10-27T08:04:16Z</time>
      </trkpt>
      <trkpt lat="41.360492" lon="1.948033">
        <ele>299.059</ele>
        <time>2013-10-27T08:04:17Z</time>
      </trkpt>
      <trkpt lat="41.360428" lon="1.948027">
        <ele>298.439</ele>
        <time>2013-10-27T08:04:18Z</time>
      </trkpt>
      <trkpt lat="41.360358" lon="1.948018">
        <ele>297.601</ele>
        <time>2013-10-27T08:04:19Z</time>
      </trkpt>
      <trkpt lat="41.360265" lon="1.947985">
        <ele>297.021</ele>
        <time>2013-10-27T08:04:20Z</time>
      </trkpt>
      <trkpt lat="41.360182" lon="1.947960">
        <ele>296.208</ele>
        <time>2013-10-27T08:04:21Z</time>
      </trkpt>
      <trkpt lat="41.360098" lon="1.947937">
        <ele>295.614</ele>
        <time>2013-10-27T08:04:22Z</time>
      </trkpt>
      <trkpt lat="41.360012" lon="1.947910">
        <ele>295.227</ele>
        <time>2013-10-27T08:04:23Z</time>
      </trkpt>
      <trkpt lat="41.359927" lon="1.947875">
        <ele>294.629</ele>
        <time>2013-10-27T08:04:24Z</time>
      </trkpt>
      <trkpt lat="41.359850" lon="1.947838">
        <ele>293.865</ele>
        <time>2013-10-27T08:04:25Z</time>
      </trkpt>
      <trkpt lat="41.359768" lon="1.947790">
        <ele>293.257</ele>
        <time>2013-10-27T08:04:26Z</time>
      </trkpt>
      <trkpt lat="41.359687" lon="1.947733">
        <ele>292.668</ele>
        <time>2013-10-27T08:04:27Z</time>
      </trkpt>
      <trkpt lat="41.359632" lon="1.947688">
        <ele>292.044</ele>
        <time>2013-10-27T08:04:28Z</time>
      </trkpt>
      <trkpt lat="41.359577" lon="1.947642">
        <ele>291.498</ele>
        <time>2013-10-27T08:04:29Z</time>
      </trkpt>
      <trkpt lat="41.359530" lon="1.947587">
        <ele>291.448</ele>
        <time>2013-10-27T08:04:30Z</time>
      </trkpt>
      <trkpt lat="41.359418" lon="1.947483">
        <ele>290.861</ele>
        <time>2013-10-27T08:04:32Z</time>
      </trkpt>
      <trkpt lat="41.359360" lon="1.947432">
        <ele>290.417</ele>
        <time>2013-10-27T08:04:33Z</time>
      </trkpt>
      <trkpt lat="41.359300" lon="1.947377">
        <ele>290.008</ele>
        <time>2013-10-27T08:04:34Z</time>
      </trkpt>
      <trkpt lat="41.359238" lon="1.947313">
        <ele>289.615</ele>
        <time>2013-10-27T08:04:35Z</time>
      </trkpt>
      <trkpt lat="41.359177" lon="1.947242">
        <ele>289.268</ele>
        <time>2013-10-27T08:04:36Z</time>
      </trkpt>
      <trkpt lat="41.359120" lon="1.947162">
        <ele>288.620</ele>
        <time>2013-10-27T08:04:37Z</time>
      </trkpt>
      <trkpt lat="41.359063" lon="1.947087">
        <ele>288.286</ele>
        <time>2013-10-27T08:04:38Z</time>
      </trkpt>
      <trkpt lat="41.359002" lon="1.947025">
        <ele>287.038</ele>
        <time>2013-10-27T08:04:39Z</time>
      </trkpt>
      <trkpt lat="41.358942" lon="1.946980">
        <ele>286.419</ele>
        <time>2013-10-27T08:04:40Z</time>
      </trkpt>
      <trkpt lat="41.358890" lon="1.946947">
        <ele>286.455</ele>
        <time>2013-10-27T08:04:41Z</time>
      </trkpt>
      <trkpt lat="41.358818" lon="1.946932">
        <ele>286.419</ele>
        <time>2013-10-27T08:04:42Z</time>
      </trkpt>
      <trkpt lat="41.358687" lon="1.946910">
        <ele>286.418</ele>
        <time>2013-10-27T08:04:44Z</time>
      </trkpt>
      <trkpt lat="41.358347" lon="1.946863">
        <ele>286.498</ele>
        <time>2013-10-27T08:04:50Z</time>
      </trkpt>
      <trkpt lat="41.358252" lon="1.946837">
        <ele>286.417</ele>
        <time>2013-10-27T08:04:53Z</time>
      </trkpt>
      <trkpt lat="41.358228" lon="1.946828">
        <ele>286.408</ele>
        <time>2013-10-27T08:04:54Z</time>
      </trkpt>
      <trkpt lat="41.358205" lon="1.946822">
        <ele>286.832</ele>
        <time>2013-10-27T08:04:55Z</time>
      </trkpt>
      <trkpt lat="41.358182" lon="1.946817">
        <ele>287.265</ele>
        <time>2013-10-27T08:04:56Z</time>
      </trkpt>
      <trkpt lat="41.358160" lon="1.946817">
        <ele>287.697</ele>
        <time>2013-10-27T08:04:57Z</time>
      </trkpt>
      <trkpt lat="41.358142" lon="1.946813">
        <ele>288.093</ele>
        <time>2013-10-27T08:04:58Z</time>
      </trkpt>
      <trkpt lat="41.358122" lon="1.946808">
        <ele>288.415</ele>
        <time>2013-10-27T08:04:59Z</time>
      </trkpt>
      <trkpt lat="41.358083" lon="1.946795">
        <ele>288.496</ele>
        <time>2013-10-27T08:05:01Z</time>
      </trkpt>
      <trkpt lat="41.358013" lon="1.946785">
        <ele>289.482</ele>
        <time>2013-10-27T08:05:05Z</time>
      </trkpt>
      <trkpt lat="41.357995" lon="1.946780">
        <ele>289.816</ele>
        <time>2013-10-27T08:05:06Z</time>
      </trkpt>
      <trkpt lat="41.357975" lon="1.946772">
        <ele>290.214</ele>
        <time>2013-10-27T08:05:07Z</time>
      </trkpt>
      <trkpt lat="41.357953" lon="1.946763">
        <ele>290.654</ele>
        <time>2013-10-27T08:05:08Z</time>
      </trkpt>
      <trkpt lat="41.357893" lon="1.946740">
        <ele>291.009</ele>
        <time>2013-10-27T08:05:11Z</time>
      </trkpt>
      <trkpt lat="41.357873" lon="1.946728">
        <ele>291.408</ele>
        <time>2013-10-27T08:05:12Z</time>
      </trkpt>
      <trkpt lat="41.357853" lon="1.946718">
        <ele>291.852</ele>
        <time>2013-10-27T08:05:13Z</time>
      </trkpt>
      <trkpt lat="41.357835" lon="1.946708">
        <ele>292.245</ele>
        <time>2013-10-27T08:05:14Z</time>
      </trkpt>
      <trkpt lat="41.357815" lon="1.946697">
        <ele>292.657</ele>
        <time>2013-10-27T08:05:15Z</time>
      </trkpt>
      <trkpt lat="41.357782" lon="1.946668">
        <ele>292.673</ele>
        <time>2013-10-27T08:05:17Z</time>
      </trkpt>
      <trkpt lat="41.357748" lon="1.946643">
        <ele>292.615</ele>
        <time>2013-10-27T08:05:19Z</time>
      </trkpt>
      <trkpt lat="41.357732" lon="1.946632">
        <ele>293.296</ele>
        <time>2013-10-27T08:05:20Z</time>
      </trkpt>
      <trkpt lat="41.357713" lon="1.946620">
        <ele>293.662</ele>
        <time>2013-10-27T08:05:21Z</time>
      </trkpt>
      <trkpt lat="41.357698" lon="1.946610">
        <ele>294.086</ele>
        <time>2013-10-27T08:05:22Z</time>
      </trkpt>
      <trkpt lat="41.357682" lon="1.946598">
        <ele>294.431</ele>
        <time>2013-10-27T08:05:23Z</time>
      </trkpt>
      <trkpt lat="41.357663" lon="1.946588">
        <ele>295.061</ele>
        <time>2013-10-27T08:05:24Z</time>
      </trkpt>
      <trkpt lat="41.357587" lon="1.946572">
        <ele>295.007</ele>
        <time>2013-10-27T08:05:28Z</time>
      </trkpt>
      <trkpt lat="41.357460" lon="1.946510">
        <ele>295.008</ele>
        <time>2013-10-27T08:05:33Z</time>
      </trkpt>
      <trkpt lat="41.357405" lon="1.946433">
        <ele>295.044</ele>
        <time>2013-10-27T08:05:35Z</time>
      </trkpt>
      <trkpt lat="41.357342" lon="1.946353">
        <ele>295.097</ele>
        <time>2013-10-27T08:05:37Z</time>
      </trkpt>
      <trkpt lat="41.357153" lon="1.946243">
        <ele>295.039</ele>
        <time>2013-10-27T08:05:42Z</time>
      </trkpt>
      <trkpt lat="41.356973" lon="1.946173">
        <ele>295.075</ele>
        <time>2013-10-27T08:05:48Z</time>
      </trkpt>
      <trkpt lat="41.356763" lon="1.946137">
        <ele>295.477</ele>
        <time>2013-10-27T08:05:55Z</time>
      </trkpt>
      <trkpt lat="41.356733" lon="1.946132">
        <ele>295.838</ele>
        <time>2013-10-27T08:05:56Z</time>
      </trkpt>
      <trkpt lat="41.356705" lon="1.946130">
        <ele>296.214</ele>
        <time>2013-10-27T08:05:57Z</time>
      </trkpt>
      <trkpt lat="41.356677" lon="1.946133">
        <ele>296.648</ele>
        <time>2013-10-27T08:05:58Z</time>
      </trkpt>
      <trkpt lat="41.356648" lon="1.946135">
        <ele>297.046</ele>
        <time>2013-10-27T08:05:59Z</time>
      </trkpt>
      <trkpt lat="41.356595" lon="1.946137">
        <ele>297.088</ele>
        <time>2013-10-27T08:06:01Z</time>
      </trkpt>
      <trkpt lat="41.356517" lon="1.946117">
        <ele>297.416</ele>
        <time>2013-10-27T08:06:04Z</time>
      </trkpt>
      <trkpt lat="41.356490" lon="1.946108">
        <ele>298.008</ele>
        <time>2013-10-27T08:06:05Z</time>
      </trkpt>
      <trkpt lat="41.356470" lon="1.946095">
        <ele>298.445</ele>
        <time>2013-10-27T08:06:06Z</time>
      </trkpt>
      <trkpt lat="41.356453" lon="1.946083">
        <ele>299.098</ele>
        <time>2013-10-27T08:06:07Z</time>
      </trkpt>
      <trkpt lat="41.356433" lon="1.946072">
        <ele>299.420</ele>
        <time>2013-10-27T08:06:08Z</time>
      </trkpt>
      <trkpt lat="41.356350" lon="1.946022">
        <ele>299.426</ele>
        <time>2013-10-27T08:06:12Z</time>
      </trkpt>
      <trkpt lat="41.356165" lon="1.945935">
        <ele>299.448</ele>
        <time>2013-10-27T08:06:19Z</time>
      </trkpt>
      <trkpt lat="41.356010" lon="1.945875">
        <ele>299.479</ele>
        <time>2013-10-27T08:06:25Z</time>
      </trkpt>
      <trkpt lat="41.355822" lon="1.945783">
        <ele>299.415</ele>
        <time>2013-10-27T08:06:32Z</time>
      </trkpt>
      <trkpt lat="41.355792" lon="1.945770">
        <ele>299.469</ele>
        <time>2013-10-27T08:06:34Z</time>
      </trkpt>
      <trkpt lat="41.355788" lon="1.945768">
        <ele>299.417</ele>
        <time>2013-10-27T08:06:35Z</time>
      </trkpt>
      <trkpt lat="41.355787" lon="1.945768">
        <ele>299.487</ele>
        <time>2013-10-27T08:07:03Z</time>
      </trkpt>
      <trkpt lat="41.355770" lon="1.945765">
        <ele>299.415</ele>
        <time>2013-10-27T08:07:04Z</time>
      </trkpt>
      <trkpt lat="41.355743" lon="1.945755">
        <ele>299.408</ele>
        <time>2013-10-27T08:07:05Z</time>
      </trkpt>
      <trkpt lat="41.355667" lon="1.945720">
        <ele>299.442</ele>
        <time>2013-10-27T08:07:07Z</time>
      </trkpt>
      <trkpt lat="41.355457" lon="1.945618">
        <ele>299.445</ele>
        <time>2013-10-27T08:07:11Z</time>
      </trkpt>
      <trkpt lat="41.355400" lon="1.945603">
        <ele>299.437</ele>
        <time>2013-10-27T08:07:12Z</time>
      </trkpt>
      <trkpt lat="41.355152" lon="1.945530">
        <ele>299.463</ele>
        <time>2013-10-27T08:07:17Z</time>
      </trkpt>
      <trkpt lat="41.355105" lon="1.945517">
        <ele>299.415</ele>
        <time>2013-10-27T08:07:18Z</time>
      </trkpt>
      <trkpt lat="41.355015" lon="1.945488">
        <ele>299.426</ele>
        <time>2013-10-27T08:07:20Z</time>
      </trkpt>
      <trkpt lat="41.354985" lon="1.945480">
        <ele>300.022</ele>
        <time>2013-10-27T08:07:21Z</time>
      </trkpt>
      <trkpt lat="41.354963" lon="1.945472">
        <ele>300.426</ele>
        <time>2013-10-27T08:07:22Z</time>
      </trkpt>
      <trkpt lat="41.354940" lon="1.945465">
        <ele>300.898</ele>
        <time>2013-10-27T08:07:23Z</time>
      </trkpt>
      <trkpt lat="41.354915" lon="1.945458">
        <ele>301.215</ele>
        <time>2013-10-27T08:07:24Z</time>
      </trkpt>
      <trkpt lat="41.354887" lon="1.945450">
        <ele>301.826</ele>
        <time>2013-10-27T08:07:25Z</time>
      </trkpt>
      <trkpt lat="41.354838" lon="1.945440">
        <ele>301.808</ele>
        <time>2013-10-27T08:07:27Z</time>
      </trkpt>
      <trkpt lat="41.354790" lon="1.945423">
        <ele>301.840</ele>
        <time>2013-10-27T08:07:29Z</time>
      </trkpt>
      <trkpt lat="41.354738" lon="1.945377">
        <ele>301.883</ele>
        <time>2013-10-27T08:07:31Z</time>
      </trkpt>
      <trkpt lat="41.354678" lon="1.945345">
        <ele>301.255</ele>
        <time>2013-10-27T08:07:34Z</time>
      </trkpt>
      <trkpt lat="41.354653" lon="1.945347">
        <ele>300.481</ele>
        <time>2013-10-27T08:07:35Z</time>
      </trkpt>
      <trkpt lat="41.354618" lon="1.945352">
        <ele>300.073</ele>
        <time>2013-10-27T08:07:36Z</time>
      </trkpt>
      <trkpt lat="41.354575" lon="1.945375">
        <ele>299.654</ele>
        <time>2013-10-27T08:07:37Z</time>
      </trkpt>
      <trkpt lat="41.354520" lon="1.945423">
        <ele>299.650</ele>
        <time>2013-10-27T08:07:38Z</time>
      </trkpt>
      <trkpt lat="41.354460" lon="1.945475">
        <ele>299.234</ele>
        <time>2013-10-27T08:07:39Z</time>
      </trkpt>
      <trkpt lat="41.354402" lon="1.945523">
        <ele>298.658</ele>
        <time>2013-10-27T08:07:40Z</time>
      </trkpt>
      <trkpt lat="41.354345" lon="1.945560">
        <ele>298.252</ele>
        <time>2013-10-27T08:07:41Z</time>
      </trkpt>
      <trkpt lat="41.354290" lon="1.945590">
        <ele>297.617</ele>
        <time>2013-10-27T08:07:42Z</time>
      </trkpt>
      <trkpt lat="41.354240" lon="1.945618">
        <ele>297.208</ele>
        <time>2013-10-27T08:07:43Z</time>
      </trkpt>
      <trkpt lat="41.354115" lon="1.945683">
        <ele>297.296</ele>
        <time>2013-10-27T08:07:46Z</time>
      </trkpt>
      <trkpt lat="41.354080" lon="1.945702">
        <ele>297.249</ele>
        <time>2013-10-27T08:07:47Z</time>
      </trkpt>
      <trkpt lat="41.354002" lon="1.945775">
        <ele>297.611</ele>
        <time>2013-10-27T08:07:50Z</time>
      </trkpt>
      <trkpt lat="41.353983" lon="1.945803">
        <ele>298.217</ele>
        <time>2013-10-27T08:07:51Z</time>
      </trkpt>
      <trkpt lat="41.353968" lon="1.945837">
        <ele>298.649</ele>
        <time>2013-10-27T08:07:52Z</time>
      </trkpt>
      <trkpt lat="41.353955" lon="1.945872">
        <ele>299.280</ele>
        <time>2013-10-27T08:07:53Z</time>
      </trkpt>
      <trkpt lat="41.353942" lon="1.945913">
        <ele>299.636</ele>
        <time>2013-10-27T08:07:54Z</time>
      </trkpt>
      <trkpt lat="41.353927" lon="1.945955">
        <ele>299.630</ele>
        <time>2013-10-27T08:07:55Z</time>
      </trkpt>
      <trkpt lat="41.353917" lon="1.945988">
        <ele>300.017</ele>
        <time>2013-10-27T08:07:56Z</time>
      </trkpt>
      <trkpt lat="41.353908" lon="1.946015">
        <ele>300.487</ele>
        <time>2013-10-27T08:07:57Z</time>
      </trkpt>
      <trkpt lat="41.353905" lon="1.946017">
        <ele>300.815</ele>
        <time>2013-10-27T08:07:58Z</time>
      </trkpt>
      <trkpt lat="41.353897" lon="1.946033">
        <ele>301.208</ele>
        <time>2013-10-27T08:07:59Z</time>
      </trkpt>
      <trkpt lat="41.353893" lon="1.946097">
        <ele>301.872</ele>
        <time>2013-10-27T08:08:22Z</time>
      </trkpt>
      <trkpt lat="41.353885" lon="1.946113">
        <ele>301.845</ele>
        <time>2013-10-27T08:08:23Z</time>
      </trkpt>
      <trkpt lat="41.353880" lon="1.946132">
        <ele>301.887</ele>
        <time>2013-10-27T08:08:24Z</time>
      </trkpt>
      <trkpt lat="41.353875" lon="1.946150">
        <ele>302.213</ele>
        <time>2013-10-27T08:08:25Z</time>
      </trkpt>
      <trkpt lat="41.353870" lon="1.946175">
        <ele>302.635</ele>
        <time>2013-10-27T08:08:26Z</time>
      </trkpt>
      <trkpt lat="41.353865" lon="1.946202">
        <ele>303.086</ele>
        <time>2013-10-27T08:08:27Z</time>
      </trkpt>
      <trkpt lat="41.353862" lon="1.946233">
        <ele>303.492</ele>
        <time>2013-10-27T08:08:28Z</time>
      </trkpt>
      <trkpt lat="41.353858" lon="1.946263">
        <ele>303.846</ele>
        <time>2013-10-27T08:08:29Z</time>
      </trkpt>
      <trkpt lat="41.353855" lon="1.946293">
        <ele>303.873</ele>
        <time>2013-10-27T08:08:30Z</time>
      </trkpt>
      <trkpt lat="41.353840" lon="1.946383">
        <ele>304.285</ele>
        <time>2013-10-27T08:08:33Z</time>
      </trkpt>
      <trkpt lat="41.353835" lon="1.946412">
        <ele>304.613</ele>
        <time>2013-10-27T08:08:34Z</time>
      </trkpt>
      <trkpt lat="41.353827" lon="1.946442">
        <ele>305.008</ele>
        <time>2013-10-27T08:08:35Z</time>
      </trkpt>
      <trkpt lat="41.353820" lon="1.946475">
        <ele>305.418</ele>
        <time>2013-10-27T08:08:36Z</time>
      </trkpt>
      <trkpt lat="41.353808" lon="1.946507">
        <ele>305.831</ele>
        <time>2013-10-27T08:08:37Z</time>
      </trkpt>
      <trkpt lat="41.353773" lon="1.946578">
        <ele>306.483</ele>
        <time>2013-10-27T08:08:40Z</time>
      </trkpt>
      <trkpt lat="41.353762" lon="1.946600">
        <ele>306.879</ele>
        <time>2013-10-27T08:08:41Z</time>
      </trkpt>
      <trkpt lat="41.353752" lon="1.946622">
        <ele>307.291</ele>
        <time>2013-10-27T08:08:42Z</time>
      </trkpt>
      <trkpt lat="41.353742" lon="1.946645">
        <ele>307.672</ele>
        <time>2013-10-27T08:08:43Z</time>
      </trkpt>
      <trkpt lat="41.353730" lon="1.946667">
        <ele>308.098</ele>
        <time>2013-10-27T08:08:44Z</time>
      </trkpt>
      <trkpt lat="41.353702" lon="1.946713">
        <ele>308.432</ele>
        <time>2013-10-27T08:08:46Z</time>
      </trkpt>
      <trkpt lat="41.353690" lon="1.946737">
        <ele>308.821</ele>
        <time>2013-10-27T08:08:47Z</time>
      </trkpt>
      <trkpt lat="41.353678" lon="1.946762">
        <ele>309.241</ele>
        <time>2013-10-27T08:08:48Z</time>
      </trkpt>
      <trkpt lat="41.353667" lon="1.946788">
        <ele>310.205</ele>
        <time>2013-10-27T08:08:49Z</time>
      </trkpt>
      <trkpt lat="41.353615" lon="1.946910">
        <ele>310.208</ele>
        <time>2013-10-27T08:08:53Z</time>
      </trkpt>
      <trkpt lat="41.353582" lon="1.946992">
        <ele>310.243</ele>
        <time>2013-10-27T08:08:55Z</time>
      </trkpt>
      <trkpt lat="41.353463" lon="1.947130">
        <ele>310.286</ele>
        <time>2013-10-27T08:08:59Z</time>
      </trkpt>
      <trkpt lat="41.353272" lon="1.947372">
        <ele>310.298</ele>
        <time>2013-10-27T08:09:06Z</time>
      </trkpt>
      <trkpt lat="41.353145" lon="1.947498">
        <ele>310.254</ele>
        <time>2013-10-27T08:09:11Z</time>
      </trkpt>
      <trkpt lat="41.353057" lon="1.947563">
        <ele>311.096</ele>
        <time>2013-10-27T08:09:14Z</time>
      </trkpt>
      <trkpt lat="41.353028" lon="1.947578">
        <ele>311.427</ele>
        <time>2013-10-27T08:09:15Z</time>
      </trkpt>
      <trkpt lat="41.352998" lon="1.947590">
        <ele>311.853</ele>
        <time>2013-10-27T08:09:16Z</time>
      </trkpt>
      <trkpt lat="41.352973" lon="1.947598">
        <ele>312.237</ele>
        <time>2013-10-27T08:09:17Z</time>
      </trkpt>
      <trkpt lat="41.352887" lon="1.947660">
        <ele>312.649</ele>
        <time>2013-10-27T08:09:21Z</time>
      </trkpt>
      <trkpt lat="41.352863" lon="1.947678">
        <ele>313.002</ele>
        <time>2013-10-27T08:09:22Z</time>
      </trkpt>
      <trkpt lat="41.352840" lon="1.947697">
        <ele>313.422</ele>
        <time>2013-10-27T08:09:23Z</time>
      </trkpt>
      <trkpt lat="41.352817" lon="1.947713">
        <ele>313.808</ele>
        <time>2013-10-27T08:09:24Z</time>
      </trkpt>
      <trkpt lat="41.352793" lon="1.947727">
        <ele>314.275</ele>
        <time>2013-10-27T08:09:25Z</time>
      </trkpt>
      <trkpt lat="41.352698" lon="1.947773">
        <ele>314.258</ele>
        <time>2013-10-27T08:09:29Z</time>
      </trkpt>
      <trkpt lat="41.352572" lon="1.947903">
        <ele>314.260</ele>
        <time>2013-10-27T08:09:36Z</time>
      </trkpt>
      <trkpt lat="41.352527" lon="1.947947">
        <ele>314.626</ele>
        <time>2013-10-27T08:09:39Z</time>
      </trkpt>
      <trkpt lat="41.352508" lon="1.947963">
        <ele>315.018</ele>
        <time>2013-10-27T08:09:40Z</time>
      </trkpt>
      <trkpt lat="41.352492" lon="1.947978">
        <ele>315.669</ele>
        <time>2013-10-27T08:09:41Z</time>
      </trkpt>
      <trkpt lat="41.352480" lon="1.947992">
        <ele>316.095</ele>
        <time>2013-10-27T08:09:42Z</time>
      </trkpt>
      <trkpt lat="41.352472" lon="1.948005">
        <ele>316.439</ele>
        <time>2013-10-27T08:09:43Z</time>
      </trkpt>
      <trkpt lat="41.352452" lon="1.948043">
        <ele>316.428</ele>
        <time>2013-10-27T08:09:45Z</time>
      </trkpt>
      <trkpt lat="41.352407" lon="1.948105">
        <ele>316.889</ele>
        <time>2013-10-27T08:09:49Z</time>
      </trkpt>
      <trkpt lat="41.352393" lon="1.948115">
        <ele>317.217</ele>
        <time>2013-10-27T08:09:50Z</time>
      </trkpt>
      <trkpt lat="41.352383" lon="1.948123">
        <ele>317.808</ele>
        <time>2013-10-27T08:09:51Z</time>
      </trkpt>
      <trkpt lat="41.352377" lon="1.948128">
        <ele>318.223</ele>
        <time>2013-10-27T08:09:52Z</time>
      </trkpt>
      <trkpt lat="41.352368" lon="1.948132">
        <ele>318.626</ele>
        <time>2013-10-27T08:09:53Z</time>
      </trkpt>
      <trkpt lat="41.352347" lon="1.948140">
        <ele>318.658</ele>
        <time>2013-10-27T08:09:55Z</time>
      </trkpt>
      <trkpt lat="41.352320" lon="1.948150">
        <ele>319.084</ele>
        <time>2013-10-27T08:09:57Z</time>
      </trkpt>
      <trkpt lat="41.352302" lon="1.948152">
        <ele>319.436</ele>
        <time>2013-10-27T08:09:58Z</time>
      </trkpt>
      <trkpt lat="41.352283" lon="1.948150">
        <ele>319.827</ele>
        <time>2013-10-27T08:09:59Z</time>
      </trkpt>
      <trkpt lat="41.352267" lon="1.948150">
        <ele>320.413</ele>
        <time>2013-10-27T08:10:00Z</time>
      </trkpt>
      <trkpt lat="41.352250" lon="1.948150">
        <ele>320.847</ele>
        <time>2013-10-27T08:10:01Z</time>
      </trkpt>
      <trkpt lat="41.352232" lon="1.948147">
        <ele>321.261</ele>
        <time>2013-10-27T08:10:02Z</time>
      </trkpt>
      <trkpt lat="41.352215" lon="1.948140">
        <ele>322.021</ele>
        <time>2013-10-27T08:10:03Z</time>
      </trkpt>
      <trkpt lat="41.352200" lon="1.948137">
        <ele>322.413</ele>
        <time>2013-10-27T08:10:04Z</time>
      </trkpt>
      <trkpt lat="41.352187" lon="1.948133">
        <ele>322.808</ele>
        <time>2013-10-27T08:10:05Z</time>
      </trkpt>
      <trkpt lat="41.352175" lon="1.948130">
        <ele>322.827</ele>
        <time>2013-10-27T08:10:06Z</time>
      </trkpt>
      <trkpt lat="41.352150" lon="1.948123">
        <ele>323.280</ele>
        <time>2013-10-27T08:10:08Z</time>
      </trkpt>
      <trkpt lat="41.352137" lon="1.948125">
        <ele>323.652</ele>
        <time>2013-10-27T08:10:09Z</time>
      </trkpt>
      <trkpt lat="41.352122" lon="1.948127">
        <ele>324.078</ele>
        <time>2013-10-27T08:10:10Z</time>
      </trkpt>
      <trkpt lat="41.352105" lon="1.948128">
        <ele>324.630</ele>
        <time>2013-10-27T08:10:11Z</time>
      </trkpt>
      <trkpt lat="41.352088" lon="1.948130">
        <ele>325.061</ele>
        <time>2013-10-27T08:10:12Z</time>
      </trkpt>
      <trkpt lat="41.352033" lon="1.948150">
        <ele>325.017</ele>
        <time>2013-10-27T08:10:17Z</time>
      </trkpt>
      <trkpt lat="41.351998" lon="1.948152">
        <ele>325.431</ele>
        <time>2013-10-27T08:10:21Z</time>
      </trkpt>
      <trkpt lat="41.351987" lon="1.948155">
        <ele>325.863</ele>
        <time>2013-10-27T08:10:22Z</time>
      </trkpt>
      <trkpt lat="41.351975" lon="1.948157">
        <ele>326.244</ele>
        <time>2013-10-27T08:10:23Z</time>
      </trkpt>
      <trkpt lat="41.351962" lon="1.948160">
        <ele>326.618</ele>
        <time>2013-10-27T08:10:24Z</time>
      </trkpt>
      <trkpt lat="41.351947" lon="1.948162">
        <ele>327.008</ele>
        <time>2013-10-27T08:10:25Z</time>
      </trkpt>
      <trkpt lat="41.351918" lon="1.948168">
        <ele>327.447</ele>
        <time>2013-10-27T08:10:28Z</time>
      </trkpt>
      <trkpt lat="41.351907" lon="1.948175">
        <ele>327.810</ele>
        <time>2013-10-27T08:10:29Z</time>
      </trkpt>
      <trkpt lat="41.351893" lon="1.948178">
        <ele>328.432</ele>
        <time>2013-10-27T08:10:30Z</time>
      </trkpt>
      <trkpt lat="41.351882" lon="1.948183">
        <ele>328.868</ele>
        <time>2013-10-27T08:10:31Z</time>
      </trkpt>
      <trkpt lat="41.351867" lon="1.948188">
        <ele>329.280</ele>
        <time>2013-10-27T08:10:32Z</time>
      </trkpt>
      <trkpt lat="41.351848" lon="1.948210">
        <ele>329.271</ele>
        <time>2013-10-27T08:10:35Z</time>
      </trkpt>
      <trkpt lat="41.351877" lon="1.948220">
        <ele>329.247</ele>
        <time>2013-10-27T08:11:17Z</time>
      </trkpt>
      <trkpt lat="41.351890" lon="1.948200">
        <ele>329.241</ele>
        <time>2013-10-27T08:11:18Z</time>
      </trkpt>
      <trkpt lat="41.351935" lon="1.948140">
        <ele>329.237</ele>
        <time>2013-10-27T08:11:21Z</time>
      </trkpt>
      <trkpt lat="41.351962" lon="1.948100">
        <ele>329.249</ele>
        <time>2013-10-27T08:11:23Z</time>
      </trkpt>
      <trkpt lat="41.351987" lon="1.948065">
        <ele>329.213</ele>
        <time>2013-10-27T08:11:25Z</time>
      </trkpt>
      <trkpt lat="41.352012" lon="1.948025">
        <ele>329.208</ele>
        <time>2013-10-27T08:11:28Z</time>
      </trkpt>
      <trkpt lat="41.352088" lon="1.947920">
        <ele>329.244</ele>
        <time>2013-10-27T08:11:35Z</time>
      </trkpt>
      <trkpt lat="41.352203" lon="1.947812">
        <ele>329.647</ele>
        <time>2013-10-27T08:11:41Z</time>
      </trkpt>
      <trkpt lat="41.352225" lon="1.947788">
        <ele>330.049</ele>
        <time>2013-10-27T08:11:42Z</time>
      </trkpt>
      <trkpt lat="41.352248" lon="1.947762">
        <ele>330.865</ele>
        <time>2013-10-27T08:11:43Z</time>
      </trkpt>
      <trkpt lat="41.352270" lon="1.947740">
        <ele>331.247</ele>
        <time>2013-10-27T08:11:44Z</time>
      </trkpt>
      <trkpt lat="41.352350" lon="1.947633">
        <ele>331.248</ele>
        <time>2013-10-27T08:11:49Z</time>
      </trkpt>
      <trkpt lat="41.352443" lon="1.947495">
        <ele>331.224</ele>
        <time>2013-10-27T08:11:54Z</time>
      </trkpt>
      <trkpt lat="41.352458" lon="1.947468">
        <ele>331.688</ele>
        <time>2013-10-27T08:11:55Z</time>
      </trkpt>
      <trkpt lat="41.352473" lon="1.947443">
        <ele>332.046</ele>
        <time>2013-10-27T08:11:56Z</time>
      </trkpt>
      <trkpt lat="41.352488" lon="1.947413">
        <ele>332.688</ele>
        <time>2013-10-27T08:11:57Z</time>
      </trkpt>
      <trkpt lat="41.352505" lon="1.947385">
        <ele>333.016</ele>
        <time>2013-10-27T08:11:58Z</time>
      </trkpt>
      <trkpt lat="41.352522" lon="1.947357">
        <ele>333.408</ele>
        <time>2013-10-27T08:11:59Z</time>
      </trkpt>
      <trkpt lat="41.352577" lon="1.947277">
        <ele>333.455</ele>
        <time>2013-10-27T08:12:02Z</time>
      </trkpt>
      <trkpt lat="41.352638" lon="1.947168">
        <ele>333.428</ele>
        <time>2013-10-27T08:12:06Z</time>
      </trkpt>
      <trkpt lat="41.352682" lon="1.947088">
        <ele>333.470</ele>
        <time>2013-10-27T08:12:09Z</time>
      </trkpt>
      <trkpt lat="41.352703" lon="1.946965">
        <ele>333.466</ele>
        <time>2013-10-27T08:12:12Z</time>
      </trkpt>
      <trkpt lat="41.352702" lon="1.946888">
        <ele>333.468</ele>
        <time>2013-10-27T08:12:13Z</time>
      </trkpt>
      <trkpt lat="41.352627" lon="1.946677">
        <ele>333.469</ele>
        <time>2013-10-27T08:12:16Z</time>
      </trkpt>
      <trkpt lat="41.352588" lon="1.946623">
        <ele>333.435</ele>
        <time>2013-10-27T08:12:17Z</time>
      </trkpt>
      <trkpt lat="41.352503" lon="1.946558">
        <ele>333.449</ele>
        <time>2013-10-27T08:12:19Z</time>
      </trkpt>
      <trkpt lat="41.352405" lon="1.946493">
        <ele>333.419</ele>
        <time>2013-10-27T08:12:22Z</time>
      </trkpt>
      <trkpt lat="41.352378" lon="1.946478">
        <ele>333.409</ele>
        <time>2013-10-27T08:12:23Z</time>
      </trkpt>
      <trkpt lat="41.352257" lon="1.946387">
        <ele>333.419</ele>
        <time>2013-10-27T08:12:28Z</time>
      </trkpt>
      <trkpt lat="41.352112" lon="1.946265">
        <ele>333.408</ele>
        <time>2013-10-27T08:12:34Z</time>
      </trkpt>
      <trkpt lat="41.352045" lon="1.946207">
        <ele>333.442</ele>
        <time>2013-10-27T08:12:37Z</time>
      </trkpt>
      <trkpt lat="41.352017" lon="1.946178">
        <ele>333.885</ele>
        <time>2013-10-27T08:12:39Z</time>
      </trkpt>
      <trkpt lat="41.352000" lon="1.946165">
        <ele>334.237</ele>
        <time>2013-10-27T08:12:40Z</time>
      </trkpt>
      <trkpt lat="41.351980" lon="1.946152">
        <ele>334.673</ele>
        <time>2013-10-27T08:12:41Z</time>
      </trkpt>
      <trkpt lat="41.351960" lon="1.946140">
        <ele>335.015</ele>
        <time>2013-10-27T08:12:42Z</time>
      </trkpt>
      <trkpt lat="41.351938" lon="1.946128">
        <ele>335.426</ele>
        <time>2013-10-27T08:12:43Z</time>
      </trkpt>
      <trkpt lat="41.351837" lon="1.946087">
        <ele>335.452</ele>
        <time>2013-10-27T08:12:47Z</time>
      </trkpt>
      <trkpt lat="41.351720" lon="1.946028">
        <ele>335.476</ele>
        <time>2013-10-27T08:12:54Z</time>
      </trkpt>
      <trkpt lat="41.351658" lon="1.946000">
        <ele>335.876</ele>
        <time>2013-10-27T08:12:58Z</time>
      </trkpt>
      <trkpt lat="41.351642" lon="1.945992">
        <ele>336.290</ele>
        <time>2013-10-27T08:12:59Z</time>
      </trkpt>
      <trkpt lat="41.351628" lon="1.945987">
        <ele>336.619</ele>
        <time>2013-10-27T08:13:00Z</time>
      </trkpt>
      <trkpt lat="41.351613" lon="1.945980">
        <ele>337.008</ele>
        <time>2013-10-27T08:13:01Z</time>
      </trkpt>
      <trkpt lat="41.351595" lon="1.945973">
        <ele>337.418</ele>
        <time>2013-10-27T08:13:02Z</time>
      </trkpt>
      <trkpt lat="41.351488" lon="1.945968">
        <ele>337.491</ele>
        <time>2013-10-27T08:13:07Z</time>
      </trkpt>
      <trkpt lat="41.351453" lon="1.945970">
        <ele>337.843</ele>
        <time>2013-10-27T08:13:09Z</time>
      </trkpt>
      <trkpt lat="41.351437" lon="1.945970">
        <ele>338.269</ele>
        <time>2013-10-27T08:13:10Z</time>
      </trkpt>
      <trkpt lat="41.351418" lon="1.945972">
        <ele>338.671</ele>
        <time>2013-10-27T08:13:11Z</time>
      </trkpt>
      <trkpt lat="41.351402" lon="1.945972">
        <ele>339.062</ele>
        <time>2013-10-27T08:13:12Z</time>
      </trkpt>
      <trkpt lat="41.351387" lon="1.945970">
        <ele>339.498</ele>
        <time>2013-10-27T08:13:13Z</time>
      </trkpt>
      <trkpt lat="41.351332" lon="1.945972">
        <ele>339.472</ele>
        <time>2013-10-27T08:13:16Z</time>
      </trkpt>
      <trkpt lat="41.351298" lon="1.945968">
        <ele>339.881</ele>
        <time>2013-10-27T08:13:18Z</time>
      </trkpt>
      <trkpt lat="41.351283" lon="1.945965">
        <ele>340.261</ele>
        <time>2013-10-27T08:13:19Z</time>
      </trkpt>
      <trkpt lat="41.351270" lon="1.945960">
        <ele>340.817</ele>
        <time>2013-10-27T08:13:20Z</time>
      </trkpt>
      <trkpt lat="41.351258" lon="1.945953">
        <ele>341.208</ele>
        <time>2013-10-27T08:13:21Z</time>
      </trkpt>
      <trkpt lat="41.351247" lon="1.945947">
        <ele>341.659</ele>
        <time>2013-10-27T08:13:22Z</time>
      </trkpt>
      <trkpt lat="41.351217" lon="1.945933">
        <ele>341.692</ele>
        <time>2013-10-27T08:13:24Z</time>
      </trkpt>
      <trkpt lat="41.351183" lon="1.945917">
        <ele>342.044</ele>
        <time>2013-10-27T08:13:26Z</time>
      </trkpt>
      <trkpt lat="41.351168" lon="1.945913">
        <ele>342.440</ele>
        <time>2013-10-27T08:13:27Z</time>
      </trkpt>
      <trkpt lat="41.351153" lon="1.945908">
        <ele>342.832</ele>
        <time>2013-10-27T08:13:28Z</time>
      </trkpt>
      <trkpt lat="41.351133" lon="1.945905">
        <ele>343.283</ele>
        <time>2013-10-27T08:13:29Z</time>
      </trkpt>
      <trkpt lat="41.351115" lon="1.945905">
        <ele>343.619</ele>
        <time>2013-10-27T08:13:30Z</time>
      </trkpt>
      <trkpt lat="41.351098" lon="1.945898">
        <ele>343.633</ele>
        <time>2013-10-27T08:13:31Z</time>
      </trkpt>
      <trkpt lat="41.351013" lon="1.945860">
        <ele>343.683</ele>
        <time>2013-10-27T08:13:36Z</time>
      </trkpt>
      <trkpt lat="41.350935" lon="1.945845">
        <ele>344.025</ele>
        <time>2013-10-27T08:13:40Z</time>
      </trkpt>
      <trkpt lat="41.350912" lon="1.945837">
        <ele>344.417</ele>
        <time>2013-10-27T08:13:41Z</time>
      </trkpt>
      <trkpt lat="41.350888" lon="1.945830">
        <ele>344.808</ele>
        <time>2013-10-27T08:13:42Z</time>
      </trkpt>
      <trkpt lat="41.350865" lon="1.945822">
        <ele>345.439</ele>
        <time>2013-10-27T08:13:43Z</time>
      </trkpt>
      <trkpt lat="41.350843" lon="1.945805">
        <ele>345.882</ele>
        <time>2013-10-27T08:13:44Z</time>
      </trkpt>
      <trkpt lat="41.350807" lon="1.945775">
        <ele>346.874</ele>
        <time>2013-10-27T08:13:46Z</time>
      </trkpt>
      <trkpt lat="41.350792" lon="1.945758">
        <ele>347.280</ele>
        <time>2013-10-27T08:13:47Z</time>
      </trkpt>
      <trkpt lat="41.350782" lon="1.945735">
        <ele>347.652</ele>
        <time>2013-10-27T08:13:48Z</time>
      </trkpt>
      <trkpt lat="41.350773" lon="1.945710">
        <ele>348.263</ele>
        <time>2013-10-27T08:13:49Z</time>
      </trkpt>
      <trkpt lat="41.350763" lon="1.945638">
        <ele>348.279</ele>
        <time>2013-10-27T08:13:52Z</time>
      </trkpt>
      <trkpt lat="41.350757" lon="1.945557">
        <ele>348.233</ele>
        <time>2013-10-27T08:13:55Z</time>
      </trkpt>
      <trkpt lat="41.350762" lon="1.945527">
        <ele>348.251</ele>
        <time>2013-10-27T08:13:56Z</time>
      </trkpt>
      <trkpt lat="41.350780" lon="1.945448">
        <ele>348.201</ele>
        <time>2013-10-27T08:13:59Z</time>
      </trkpt>
      <trkpt lat="41.350797" lon="1.945290">
        <ele>348.211</ele>
        <time>2013-10-27T08:14:05Z</time>
      </trkpt>
      <trkpt lat="41.350785" lon="1.945187">
        <ele>348.208</ele>
        <time>2013-10-27T08:14:09Z</time>
      </trkpt>
      <trkpt lat="41.350787" lon="1.945162">
        <ele>348.296</ele>
        <time>2013-10-27T08:14:10Z</time>
      </trkpt>
      <trkpt lat="41.350785" lon="1.945137">
        <ele>349.099</ele>
        <time>2013-10-27T08:14:11Z</time>
      </trkpt>
      <trkpt lat="41.350783" lon="1.945113">
        <ele>349.451</ele>
        <time>2013-10-27T08:14:12Z</time>
      </trkpt>
      <trkpt lat="41.350777" lon="1.945092">
        <ele>350.047</ele>
        <time>2013-10-27T08:14:13Z</time>
      </trkpt>
      <trkpt lat="41.350770" lon="1.945067">
        <ele>350.449</ele>
        <time>2013-10-27T08:14:14Z</time>
      </trkpt>
      <trkpt lat="41.350743" lon="1.944958">
        <ele>350.420</ele>
        <time>2013-10-27T08:14:19Z</time>
      </trkpt>
      <trkpt lat="41.350727" lon="1.944910">
        <ele>350.476</ele>
        <time>2013-10-27T08:14:21Z</time>
      </trkpt>
      <trkpt lat="41.350718" lon="1.944888">
        <ele>350.890</ele>
        <time>2013-10-27T08:14:22Z</time>
      </trkpt>
      <trkpt lat="41.350710" lon="1.944865">
        <ele>351.296</ele>
        <time>2013-10-27T08:14:23Z</time>
      </trkpt>
      <trkpt lat="41.350700" lon="1.944842">
        <ele>351.631</ele>
        <time>2013-10-27T08:14:24Z</time>
      </trkpt>
      <trkpt lat="41.350687" lon="1.944820">
        <ele>352.024</ele>
        <time>2013-10-27T08:14:25Z</time>
      </trkpt>
      <trkpt lat="41.350672" lon="1.944800">
        <ele>352.608</ele>
        <time>2013-10-27T08:14:26Z</time>
      </trkpt>
      <trkpt lat="41.350643" lon="1.944763">
        <ele>352.650</ele>
        <time>2013-10-27T08:14:28Z</time>
      </trkpt>
      <trkpt lat="41.350628" lon="1.944743">
        <ele>353.063</ele>
        <time>2013-10-27T08:14:29Z</time>
      </trkpt>
      <trkpt lat="41.350615" lon="1.944723">
        <ele>353.435</ele>
        <time>2013-10-27T08:14:30Z</time>
      </trkpt>
      <trkpt lat="41.350598" lon="1.944705">
        <ele>353.851</ele>
        <time>2013-10-27T08:14:31Z</time>
      </trkpt>
      <trkpt lat="41.350582" lon="1.944688">
        <ele>354.263</ele>
        <time>2013-10-27T08:14:32Z</time>
      </trkpt>
      <trkpt lat="41.350567" lon="1.944673">
        <ele>354.694</ele>
        <time>2013-10-27T08:14:33Z</time>
      </trkpt>
      <trkpt lat="41.350537" lon="1.944643">
        <ele>354.610</ele>
        <time>2013-10-27T08:14:35Z</time>
      </trkpt>
      <trkpt lat="41.350437" lon="1.944547">
        <ele>354.634</ele>
        <time>2013-10-27T08:14:41Z</time>
      </trkpt>
      <trkpt lat="41.350388" lon="1.944503">
        <ele>355.263</ele>
        <time>2013-10-27T08:14:44Z</time>
      </trkpt>
      <trkpt lat="41.350372" lon="1.944487">
        <ele>355.644</ele>
        <time>2013-10-27T08:14:45Z</time>
      </trkpt>
      <trkpt lat="41.350360" lon="1.944470">
        <ele>356.018</ele>
        <time>2013-10-27T08:14:46Z</time>
      </trkpt>
      <trkpt lat="41.350348" lon="1.944455">
        <ele>356.408</ele>
        <time>2013-10-27T08:14:47Z</time>
      </trkpt>
      <trkpt lat="41.350338" lon="1.944440">
        <ele>356.877</ele>
        <time>2013-10-27T08:14:48Z</time>
      </trkpt>
      <trkpt lat="41.350320" lon="1.944330">
        <ele>356.860</ele>
        <time>2013-10-27T08:14:55Z</time>
      </trkpt>
      <trkpt lat="41.350357" lon="1.944147">
        <ele>356.882</ele>
        <time>2013-10-27T08:14:59Z</time>
      </trkpt>
      <trkpt lat="41.350410" lon="1.943893">
        <ele>356.868</ele>
        <time>2013-10-27T08:15:03Z</time>
      </trkpt>
      <trkpt lat="41.350420" lon="1.943835">
        <ele>356.860</ele>
        <time>2013-10-27T08:15:04Z</time>
      </trkpt>
      <trkpt lat="41.350435" lon="1.943715">
        <ele>356.851</ele>
        <time>2013-10-27T08:15:06Z</time>
      </trkpt>
      <trkpt lat="41.350445" lon="1.943617">
        <ele>356.847</ele>
        <time>2013-10-27T08:15:08Z</time>
      </trkpt>
      <trkpt lat="41.350488" lon="1.943455">
        <ele>356.881</ele>
        <time>2013-10-27T08:15:13Z</time>
      </trkpt>
      <trkpt lat="41.350492" lon="1.943420">
        <ele>357.244</ele>
        <time>2013-10-27T08:15:14Z</time>
      </trkpt>
      <trkpt lat="41.350490" lon="1.943387">
        <ele>357.605</ele>
        <time>2013-10-27T08:15:15Z</time>
      </trkpt>
      <trkpt lat="41.350485" lon="1.943350">
        <ele>358.015</ele>
        <time>2013-10-27T08:15:16Z</time>
      </trkpt>
      <trkpt lat="41.350480" lon="1.943318">
        <ele>358.408</ele>
        <time>2013-10-27T08:15:17Z</time>
      </trkpt>
      <trkpt lat="41.350470" lon="1.943287">
        <ele>358.865</ele>
        <time>2013-10-27T08:15:18Z</time>
      </trkpt>
      <trkpt lat="41.350460" lon="1.943258">
        <ele>358.878</ele>
        <time>2013-10-27T08:15:19Z</time>
      </trkpt>
      <trkpt lat="41.350438" lon="1.943112">
        <ele>359.220</ele>
        <time>2013-10-27T08:15:24Z</time>
      </trkpt>
      <trkpt lat="41.350430" lon="1.943073">
        <ele>360.236</ele>
        <time>2013-10-27T08:15:25Z</time>
      </trkpt>
      <trkpt lat="41.350420" lon="1.943040">
        <ele>360.658</ele>
        <time>2013-10-27T08:15:26Z</time>
      </trkpt>
      <trkpt lat="41.350412" lon="1.943007">
        <ele>361.049</ele>
        <time>2013-10-27T08:15:27Z</time>
      </trkpt>
      <trkpt lat="41.350392" lon="1.942913">
        <ele>361.425</ele>
        <time>2013-10-27T08:15:30Z</time>
      </trkpt>
      <trkpt lat="41.350387" lon="1.942885">
        <ele>361.829</ele>
        <time>2013-10-27T08:15:31Z</time>
      </trkpt>
      <trkpt lat="41.350382" lon="1.942857">
        <ele>362.288</ele>
        <time>2013-10-27T08:15:32Z</time>
      </trkpt>
      <trkpt lat="41.350378" lon="1.942827">
        <ele>362.624</ele>
        <time>2013-10-27T08:15:33Z</time>
      </trkpt>
      <trkpt lat="41.350378" lon="1.942795">
        <ele>363.026</ele>
        <time>2013-10-27T08:15:34Z</time>
      </trkpt>
      <trkpt lat="41.350373" lon="1.942662">
        <ele>363.008</ele>
        <time>2013-10-27T08:15:38Z</time>
      </trkpt>
      <trkpt lat="41.350380" lon="1.942453">
        <ele>363.459</ele>
        <time>2013-10-27T08:15:44Z</time>
      </trkpt>
      <trkpt lat="41.350387" lon="1.942420">
        <ele>363.862</ele>
        <time>2013-10-27T08:15:45Z</time>
      </trkpt>
      <trkpt lat="41.350397" lon="1.942387">
        <ele>364.284</ele>
        <time>2013-10-27T08:15:46Z</time>
      </trkpt>
      <trkpt lat="41.350410" lon="1.942360">
        <ele>364.660</ele>
        <time>2013-10-27T08:15:47Z</time>
      </trkpt>
      <trkpt lat="41.350427" lon="1.942335">
        <ele>365.242</ele>
        <time>2013-10-27T08:15:48Z</time>
      </trkpt>
      <trkpt lat="41.350468" lon="1.942300">
        <ele>365.253</ele>
        <time>2013-10-27T08:15:50Z</time>
      </trkpt>
      <trkpt lat="41.350588" lon="1.942297">
        <ele>365.299</ele>
        <time>2013-10-27T08:15:55Z</time>
      </trkpt>
      <trkpt lat="41.350627" lon="1.942283">
        <ele>365.653</ele>
        <time>2013-10-27T08:15:57Z</time>
      </trkpt>
      <trkpt lat="41.350648" lon="1.942267">
        <ele>366.037</ele>
        <time>2013-10-27T08:15:58Z</time>
      </trkpt>
      <trkpt lat="41.350670" lon="1.942250">
        <ele>366.449</ele>
        <time>2013-10-27T08:15:59Z</time>
      </trkpt>
      <trkpt lat="41.350697" lon="1.942233">
        <ele>366.813</ele>
        <time>2013-10-27T08:16:00Z</time>
      </trkpt>
      <trkpt lat="41.350725" lon="1.942228">
        <ele>367.208</ele>
        <time>2013-10-27T08:16:01Z</time>
      </trkpt>
      <trkpt lat="41.350810" lon="1.942190">
        <ele>367.624</ele>
        <time>2013-10-27T08:16:05Z</time>
      </trkpt>
      <trkpt lat="41.350830" lon="1.942172">
        <ele>368.057</ele>
        <time>2013-10-27T08:16:06Z</time>
      </trkpt>
      <trkpt lat="41.350848" lon="1.942153">
        <ele>368.469</ele>
        <time>2013-10-27T08:16:07Z</time>
      </trkpt>
      <trkpt lat="41.350863" lon="1.942133">
        <ele>368.885</ele>
        <time>2013-10-27T08:16:08Z</time>
      </trkpt>
      <trkpt lat="41.350875" lon="1.942112">
        <ele>369.227</ele>
        <time>2013-10-27T08:16:09Z</time>
      </trkpt>
      <trkpt lat="41.350897" lon="1.942045">
        <ele>369.278</ele>
        <time>2013-10-27T08:16:12Z</time>
      </trkpt>
      <trkpt lat="41.350858" lon="1.941983">
        <ele>369.234</ele>
        <time>2013-10-27T08:16:16Z</time>
      </trkpt>
      <trkpt lat="41.350825" lon="1.941982">
        <ele>369.618</ele>
        <time>2013-10-27T08:16:18Z</time>
      </trkpt>
      <trkpt lat="41.350810" lon="1.941985">
        <ele>370.055</ele>
        <time>2013-10-27T08:16:19Z</time>
      </trkpt>
      <trkpt lat="41.350795" lon="1.941988">
        <ele>370.607</ele>
        <time>2013-10-27T08:16:20Z</time>
      </trkpt>
      <trkpt lat="41.350783" lon="1.941995">
        <ele>371.017</ele>
        <time>2013-10-27T08:16:21Z</time>
      </trkpt>
      <trkpt lat="41.350768" lon="1.942005">
        <ele>371.408</ele>
        <time>2013-10-27T08:16:22Z</time>
      </trkpt>
      <trkpt lat="41.350730" lon="1.942035">
        <ele>371.476</ele>
        <time>2013-10-27T08:16:27Z</time>
      </trkpt>
      <trkpt lat="41.350703" lon="1.942042">
        <ele>371.439</ele>
        <time>2013-10-27T08:19:38Z</time>
      </trkpt>
      <trkpt lat="41.350685" lon="1.942047">
        <ele>371.491</ele>
        <time>2013-10-27T08:19:39Z</time>
      </trkpt>
      <trkpt lat="41.350628" lon="1.942065">
        <ele>371.447</ele>
        <time>2013-10-27T08:19:41Z</time>
      </trkpt>
      <trkpt lat="41.350555" lon="1.942082">
        <ele>371.489</ele>
        <time>2013-10-27T08:19:43Z</time>
      </trkpt>
      <trkpt lat="41.350380" lon="1.942115">
        <ele>371.490</ele>
        <time>2013-10-27T08:19:47Z</time>
      </trkpt>
      <trkpt lat="41.350298" lon="1.942162">
        <ele>371.416</ele>
        <time>2013-10-27T08:19:49Z</time>
      </trkpt>
      <trkpt lat="41.350240" lon="1.942207">
        <ele>371.440</ele>
        <time>2013-10-27T08:19:51Z</time>
      </trkpt>
      <trkpt lat="41.350200" lon="1.942250">
        <ele>371.493</ele>
        <time>2013-10-27T08:19:53Z</time>
      </trkpt>
      <trkpt lat="41.350123" lon="1.942392">
        <ele>371.465</ele>
        <time>2013-10-27T08:20:00Z</time>
      </trkpt>
      <trkpt lat="41.350118" lon="1.942442">
        <ele>371.421</ele>
        <time>2013-10-27T08:20:02Z</time>
      </trkpt>
      <trkpt lat="41.350118" lon="1.942473">
        <ele>371.408</ele>
        <time>2013-10-27T08:20:04Z</time>
      </trkpt>
      <trkpt lat="41.350117" lon="1.942485">
        <ele>371.430</ele>
        <time>2013-10-27T08:20:05Z</time>
      </trkpt>
      <trkpt lat="41.350118" lon="1.942495">
        <ele>371.443</ele>
        <time>2013-10-27T08:20:06Z</time>
      </trkpt>
      <trkpt lat="41.350103" lon="1.942487">
        <ele>371.465</ele>
        <time>2013-10-27T08:20:17Z</time>
      </trkpt>
      <trkpt lat="41.350063" lon="1.942447">
        <ele>371.491</ele>
        <time>2013-10-27T08:20:19Z</time>
      </trkpt>
      <trkpt lat="41.349997" lon="1.942345">
        <ele>371.053</ele>
        <time>2013-10-27T08:20:22Z</time>
      </trkpt>
      <trkpt lat="41.349973" lon="1.942297">
        <ele>370.684</ele>
        <time>2013-10-27T08:20:23Z</time>
      </trkpt>
      <trkpt lat="41.349947" lon="1.942247">
        <ele>370.230</ele>
        <time>2013-10-27T08:20:24Z</time>
      </trkpt>
      <trkpt lat="41.349917" lon="1.942190">
        <ele>369.834</ele>
        <time>2013-10-27T08:20:25Z</time>
      </trkpt>
      <trkpt lat="41.349893" lon="1.942127">
        <ele>369.474</ele>
        <time>2013-10-27T08:20:26Z</time>
      </trkpt>
      <trkpt lat="41.349870" lon="1.942057">
        <ele>369.056</ele>
        <time>2013-10-27T08:20:27Z</time>
      </trkpt>
      <trkpt lat="41.349850" lon="1.941985">
        <ele>368.421</ele>
        <time>2013-10-27T08:20:28Z</time>
      </trkpt>
      <trkpt lat="41.349828" lon="1.941922">
        <ele>368.008</ele>
        <time>2013-10-27T08:20:29Z</time>
      </trkpt>
      <trkpt lat="41.349795" lon="1.941860">
        <ele>367.688</ele>
        <time>2013-10-27T08:20:30Z</time>
      </trkpt>
      <trkpt lat="41.349752" lon="1.941810">
        <ele>367.241</ele>
        <time>2013-10-27T08:20:31Z</time>
      </trkpt>
      <trkpt lat="41.349702" lon="1.941775">
        <ele>366.683</ele>
        <time>2013-10-27T08:20:32Z</time>
      </trkpt>
      <trkpt lat="41.349643" lon="1.941757">
        <ele>366.299</ele>
        <time>2013-10-27T08:20:33Z</time>
      </trkpt>
      <trkpt lat="41.349582" lon="1.941748">
        <ele>365.881</ele>
        <time>2013-10-27T08:20:34Z</time>
      </trkpt>
      <trkpt lat="41.349528" lon="1.941762">
        <ele>365.292</ele>
        <time>2013-10-27T08:20:35Z</time>
      </trkpt>
      <trkpt lat="41.349473" lon="1.941788">
        <ele>364.868</ele>
        <time>2013-10-27T08:20:36Z</time>
      </trkpt>
      <trkpt lat="41.349420" lon="1.941815">
        <ele>364.492</ele>
        <time>2013-10-27T08:20:37Z</time>
      </trkpt>
      <trkpt lat="41.349372" lon="1.941830">
        <ele>363.851</ele>
        <time>2013-10-27T08:20:38Z</time>
      </trkpt>
      <trkpt lat="41.349330" lon="1.941835">
        <ele>363.401</ele>
        <time>2013-10-27T08:20:39Z</time>
      </trkpt>
      <trkpt lat="41.349285" lon="1.941833">
        <ele>362.811</ele>
        <time>2013-10-27T08:20:40Z</time>
      </trkpt>
      <trkpt lat="41.349242" lon="1.941803">
        <ele>362.008</ele>
        <time>2013-10-27T08:20:41Z</time>
      </trkpt>
      <trkpt lat="41.349207" lon="1.941748">
        <ele>361.296</ele>
        <time>2013-10-27T08:20:42Z</time>
      </trkpt>
      <trkpt lat="41.349183" lon="1.941675">
        <ele>360.699</ele>
        <time>2013-10-27T08:20:43Z</time>
      </trkpt>
      <trkpt lat="41.349167" lon="1.941590">
        <ele>359.861</ele>
        <time>2013-10-27T08:20:44Z</time>
      </trkpt>
      <trkpt lat="41.349163" lon="1.941492">
        <ele>359.277</ele>
        <time>2013-10-27T08:20:45Z</time>
      </trkpt>
      <trkpt lat="41.349170" lon="1.941397">
        <ele>358.839</ele>
        <time>2013-10-27T08:20:46Z</time>
      </trkpt>
      <trkpt lat="41.349172" lon="1.941298">
        <ele>357.890</ele>
        <time>2013-10-27T08:20:47Z</time>
      </trkpt>
      <trkpt lat="41.349167" lon="1.941198">
        <ele>357.266</ele>
        <time>2013-10-27T08:20:48Z</time>
      </trkpt>
      <trkpt lat="41.349153" lon="1.941097">
        <ele>356.670</ele>
        <time>2013-10-27T08:20:49Z</time>
      </trkpt>
      <trkpt lat="41.349125" lon="1.940995">
        <ele>356.032</ele>
        <time>2013-10-27T08:20:50Z</time>
      </trkpt>
      <trkpt lat="41.349082" lon="1.940895">
        <ele>355.692</ele>
        <time>2013-10-27T08:20:51Z</time>
      </trkpt>
      <trkpt lat="41.349028" lon="1.940805">
        <ele>354.811</ele>
        <time>2013-10-27T08:20:52Z</time>
      </trkpt>
      <trkpt lat="41.348955" lon="1.940722">
        <ele>354.208</ele>
        <time>2013-10-27T08:20:53Z</time>
      </trkpt>
      <trkpt lat="41.348882" lon="1.940660">
        <ele>353.634</ele>
        <time>2013-10-27T08:20:54Z</time>
      </trkpt>
      <trkpt lat="41.348815" lon="1.940610">
        <ele>353.057</ele>
        <time>2013-10-27T08:20:55Z</time>
      </trkpt>
      <trkpt lat="41.348770" lon="1.940562">
        <ele>352.469</ele>
        <time>2013-10-27T08:20:56Z</time>
      </trkpt>
      <trkpt lat="41.348733" lon="1.940502">
        <ele>351.825</ele>
        <time>2013-10-27T08:20:57Z</time>
      </trkpt>
      <trkpt lat="41.348697" lon="1.940425">
        <ele>351.247</ele>
        <time>2013-10-27T08:20:58Z</time>
      </trkpt>
      <trkpt lat="41.348655" lon="1.940343">
        <ele>350.458</ele>
        <time>2013-10-27T08:20:59Z</time>
      </trkpt>
      <trkpt lat="41.348612" lon="1.940258">
        <ele>349.864</ele>
        <time>2013-10-27T08:21:00Z</time>
      </trkpt>
      <trkpt lat="41.348557" lon="1.940177">
        <ele>349.848</ele>
        <time>2013-10-27T08:21:01Z</time>
      </trkpt>
      <trkpt lat="41.348498" lon="1.940108">
        <ele>349.484</ele>
        <time>2013-10-27T08:21:02Z</time>
      </trkpt>
      <trkpt lat="41.348430" lon="1.940047">
        <ele>349.007</ele>
        <time>2013-10-27T08:21:03Z</time>
      </trkpt>
      <trkpt lat="41.348355" lon="1.939997">
        <ele>348.617</ele>
        <time>2013-10-27T08:21:04Z</time>
      </trkpt>
      <trkpt lat="41.348278" lon="1.939955">
        <ele>348.008</ele>
        <time>2013-10-27T08:21:05Z</time>
      </trkpt>
      <trkpt lat="41.348213" lon="1.939917">
        <ele>347.429</ele>
        <time>2013-10-27T08:21:06Z</time>
      </trkpt>
      <trkpt lat="41.348173" lon="1.939875">
        <ele>346.812</ele>
        <time>2013-10-27T08:21:07Z</time>
      </trkpt>
      <trkpt lat="41.348163" lon="1.939828">
        <ele>346.014</ele>
        <time>2013-10-27T08:21:08Z</time>
      </trkpt>
      <trkpt lat="41.348185" lon="1.939783">
        <ele>345.460</ele>
        <time>2013-10-27T08:21:09Z</time>
      </trkpt>
      <trkpt lat="41.348213" lon="1.939728">
        <ele>344.892</ele>
        <time>2013-10-27T08:21:10Z</time>
      </trkpt>
      <trkpt lat="41.348245" lon="1.939685">
        <ele>344.063</ele>
        <time>2013-10-27T08:21:11Z</time>
      </trkpt>
      <trkpt lat="41.348272" lon="1.939652">
        <ele>342.889</ele>
        <time>2013-10-27T08:21:12Z</time>
      </trkpt>
      <trkpt lat="41.348317" lon="1.939632">
        <ele>342.273</ele>
        <time>2013-10-27T08:21:13Z</time>
      </trkpt>
      <trkpt lat="41.348365" lon="1.939587">
        <ele>341.677</ele>
        <time>2013-10-27T08:21:14Z</time>
      </trkpt>
      <trkpt lat="41.348390" lon="1.939528">
        <ele>341.261</ele>
        <time>2013-10-27T08:21:15Z</time>
      </trkpt>
      <trkpt lat="41.348383" lon="1.939477">
        <ele>340.627</ele>
        <time>2013-10-27T08:21:16Z</time>
      </trkpt>
      <trkpt lat="41.348362" lon="1.939450">
        <ele>340.608</ele>
        <time>2013-10-27T08:21:17Z</time>
      </trkpt>
      <trkpt lat="41.348205" lon="1.939378">
        <ele>340.618</ele>
        <time>2013-10-27T08:21:20Z</time>
      </trkpt>
      <trkpt lat="41.348083" lon="1.939278">
        <ele>340.061</ele>
        <time>2013-10-27T08:21:22Z</time>
      </trkpt>
      <trkpt lat="41.348033" lon="1.939205">
        <ele>339.633</ele>
        <time>2013-10-27T08:21:23Z</time>
      </trkpt>
      <trkpt lat="41.347992" lon="1.939132">
        <ele>339.059</ele>
        <time>2013-10-27T08:21:24Z</time>
      </trkpt>
      <trkpt lat="41.347952" lon="1.939058">
        <ele>338.461</ele>
        <time>2013-10-27T08:21:25Z</time>
      </trkpt>
      <trkpt lat="41.347925" lon="1.938992">
        <ele>337.882</ele>
        <time>2013-10-27T08:21:26Z</time>
      </trkpt>
      <trkpt lat="41.347920" lon="1.938935">
        <ele>336.868</ele>
        <time>2013-10-27T08:21:27Z</time>
      </trkpt>
      <trkpt lat="41.347933" lon="1.938885">
        <ele>336.022</ele>
        <time>2013-10-27T08:21:28Z</time>
      </trkpt>
      <trkpt lat="41.347953" lon="1.938828">
        <ele>335.295</ele>
        <time>2013-10-27T08:21:29Z</time>
      </trkpt>
      <trkpt lat="41.347980" lon="1.938772">
        <ele>334.249</ele>
        <time>2013-10-27T08:21:30Z</time>
      </trkpt>
      <trkpt lat="41.348018" lon="1.938722">
        <ele>333.423</ele>
        <time>2013-10-27T08:21:31Z</time>
      </trkpt>
      <trkpt lat="41.348097" lon="1.938613">
        <ele>332.808</ele>
        <time>2013-10-27T08:21:33Z</time>
      </trkpt>
      <trkpt lat="41.348125" lon="1.938550">
        <ele>332.420</ele>
        <time>2013-10-27T08:21:34Z</time>
      </trkpt>
      <trkpt lat="41.348150" lon="1.938478">
        <ele>332.013</ele>
        <time>2013-10-27T08:21:35Z</time>
      </trkpt>
      <trkpt lat="41.348180" lon="1.938395">
        <ele>331.025</ele>
        <time>2013-10-27T08:21:36Z</time>
      </trkpt>
      <trkpt lat="41.348203" lon="1.938302">
        <ele>331.061</ele>
        <time>2013-10-27T08:21:37Z</time>
      </trkpt>
      <trkpt lat="41.348222" lon="1.938197">
        <ele>331.073</ele>
        <time>2013-10-27T08:21:38Z</time>
      </trkpt>
      <trkpt lat="41.348208" lon="1.938107">
        <ele>330.684</ele>
        <time>2013-10-27T08:21:39Z</time>
      </trkpt>
      <trkpt lat="41.348197" lon="1.938022">
        <ele>330.060</ele>
        <time>2013-10-27T08:21:40Z</time>
      </trkpt>
      <trkpt lat="41.348180" lon="1.937960">
        <ele>329.644</ele>
        <time>2013-10-27T08:21:41Z</time>
      </trkpt>
      <trkpt lat="41.348162" lon="1.937902">
        <ele>328.889</ele>
        <time>2013-10-27T08:21:42Z</time>
      </trkpt>
      <trkpt lat="41.348135" lon="1.937848">
        <ele>328.006</ele>
        <time>2013-10-27T08:21:43Z</time>
      </trkpt>
      <trkpt lat="41.348105" lon="1.937792">
        <ele>327.226</ele>
        <time>2013-10-27T08:21:44Z</time>
      </trkpt>
      <trkpt lat="41.348077" lon="1.937733">
        <ele>326.408</ele>
        <time>2013-10-27T08:21:45Z</time>
      </trkpt>
      <trkpt lat="41.348052" lon="1.937668">
        <ele>325.699</ele>
        <time>2013-10-27T08:21:46Z</time>
      </trkpt>
      <trkpt lat="41.348033" lon="1.937602">
        <ele>324.652</ele>
        <time>2013-10-27T08:21:47Z</time>
      </trkpt>
      <trkpt lat="41.348032" lon="1.937523">
        <ele>323.844</ele>
        <time>2013-10-27T08:21:48Z</time>
      </trkpt>
      <trkpt lat="41.348033" lon="1.937437">
        <ele>323.280</ele>
        <time>2013-10-27T08:21:49Z</time>
      </trkpt>
      <trkpt lat="41.348038" lon="1.937345">
        <ele>322.662</ele>
        <time>2013-10-27T08:21:50Z</time>
      </trkpt>
      <trkpt lat="41.348043" lon="1.937248">
        <ele>321.633</ele>
        <time>2013-10-27T08:21:51Z</time>
      </trkpt>
      <trkpt lat="41.348030" lon="1.937150">
        <ele>320.829</ele>
        <time>2013-10-27T08:21:52Z</time>
      </trkpt>
      <trkpt lat="41.348000" lon="1.937060">
        <ele>320.073</ele>
        <time>2013-10-27T08:21:53Z</time>
      </trkpt>
      <trkpt lat="41.347960" lon="1.936993">
        <ele>319.285</ele>
        <time>2013-10-27T08:21:54Z</time>
      </trkpt>
      <trkpt lat="41.347917" lon="1.936928">
        <ele>318.289</ele>
        <time>2013-10-27T08:21:55Z</time>
      </trkpt>
      <trkpt lat="41.347852" lon="1.936808">
        <ele>318.217</ele>
        <time>2013-10-27T08:21:57Z</time>
      </trkpt>
      <trkpt lat="41.347840" lon="1.936740">
        <ele>317.808</ele>
        <time>2013-10-27T08:21:58Z</time>
      </trkpt>
      <trkpt lat="41.347838" lon="1.936665">
        <ele>317.289</ele>
        <time>2013-10-27T08:21:59Z</time>
      </trkpt>
      <trkpt lat="41.347845" lon="1.936580">
        <ele>316.872</ele>
        <time>2013-10-27T08:22:00Z</time>
      </trkpt>
      <trkpt lat="41.347850" lon="1.936475">
        <ele>315.844</ele>
        <time>2013-10-27T08:22:01Z</time>
      </trkpt>
      <trkpt lat="41.347857" lon="1.936370">
        <ele>315.260</ele>
        <time>2013-10-27T08:22:02Z</time>
      </trkpt>
      <trkpt lat="41.347845" lon="1.936260">
        <ele>314.892</ele>
        <time>2013-10-27T08:22:03Z</time>
      </trkpt>
      <trkpt lat="41.347835" lon="1.936153">
        <ele>314.263</ele>
        <time>2013-10-27T08:22:04Z</time>
      </trkpt>
      <trkpt lat="41.347825" lon="1.936052">
        <ele>313.689</ele>
        <time>2013-10-27T08:22:05Z</time>
      </trkpt>
      <trkpt lat="41.347828" lon="1.935960">
        <ele>313.273</ele>
        <time>2013-10-27T08:22:06Z</time>
      </trkpt>
      <trkpt lat="41.347842" lon="1.935868">
        <ele>312.644</ele>
        <time>2013-10-27T08:22:07Z</time>
      </trkpt>
      <trkpt lat="41.347862" lon="1.935772">
        <ele>312.005</ele>
        <time>2013-10-27T08:22:08Z</time>
      </trkpt>
      <trkpt lat="41.347893" lon="1.935680">
        <ele>311.415</ele>
        <time>2013-10-27T08:22:09Z</time>
      </trkpt>
      <trkpt lat="41.347933" lon="1.935595">
        <ele>310.808</ele>
        <time>2013-10-27T08:22:10Z</time>
      </trkpt>
      <trkpt lat="41.347965" lon="1.935513">
        <ele>310.875</ele>
        <time>2013-10-27T08:22:11Z</time>
      </trkpt>
      <trkpt lat="41.348000" lon="1.935445">
        <ele>310.818</ele>
        <time>2013-10-27T08:22:12Z</time>
      </trkpt>
      <trkpt lat="41.348055" lon="1.935330">
        <ele>310.840</ele>
        <time>2013-10-27T08:22:14Z</time>
      </trkpt>
      <trkpt lat="41.348072" lon="1.935285">
        <ele>310.826</ele>
        <time>2013-10-27T08:22:15Z</time>
      </trkpt>
      <trkpt lat="41.348090" lon="1.935238">
        <ele>310.888</ele>
        <time>2013-10-27T08:22:16Z</time>
      </trkpt>
      <trkpt lat="41.348105" lon="1.935193">
        <ele>311.279</ele>
        <time>2013-10-27T08:22:17Z</time>
      </trkpt>
      <trkpt lat="41.348118" lon="1.935152">
        <ele>311.855</ele>
        <time>2013-10-27T08:22:18Z</time>
      </trkpt>
      <trkpt lat="41.348132" lon="1.935107">
        <ele>312.289</ele>
        <time>2013-10-27T08:22:19Z</time>
      </trkpt>
      <trkpt lat="41.348148" lon="1.935070">
        <ele>312.667</ele>
        <time>2013-10-27T08:22:20Z</time>
      </trkpt>
      <trkpt lat="41.348162" lon="1.935037">
        <ele>313.081</ele>
        <time>2013-10-27T08:22:21Z</time>
      </trkpt>
      <trkpt lat="41.348172" lon="1.934993">
        <ele>313.019</ele>
        <time>2013-10-27T08:22:23Z</time>
      </trkpt>
      <trkpt lat="41.348183" lon="1.934903">
        <ele>313.608</ele>
        <time>2013-10-27T08:22:25Z</time>
      </trkpt>
      <trkpt lat="41.348183" lon="1.934857">
        <ele>314.087</ele>
        <time>2013-10-27T08:22:26Z</time>
      </trkpt>
      <trkpt lat="41.348177" lon="1.934818">
        <ele>314.860</ele>
        <time>2013-10-27T08:22:27Z</time>
      </trkpt>
      <trkpt lat="41.348163" lon="1.934777">
        <ele>315.222</ele>
        <time>2013-10-27T08:22:28Z</time>
      </trkpt>
      <trkpt lat="41.348135" lon="1.934698">
        <ele>315.218</ele>
        <time>2013-10-27T08:22:30Z</time>
      </trkpt>
      <trkpt lat="41.348055" lon="1.934593">
        <ele>315.280</ele>
        <time>2013-10-27T08:22:33Z</time>
      </trkpt>
      <trkpt lat="41.348022" lon="1.934558">
        <ele>315.231</ele>
        <time>2013-10-27T08:22:34Z</time>
      </trkpt>
      <trkpt lat="41.347917" lon="1.934367">
        <ele>315.277</ele>
        <time>2013-10-27T08:22:39Z</time>
      </trkpt>
      <trkpt lat="41.347882" lon="1.934205">
        <ele>315.691</ele>
        <time>2013-10-27T08:22:43Z</time>
      </trkpt>
      <trkpt lat="41.347873" lon="1.934168">
        <ele>316.052</ele>
        <time>2013-10-27T08:22:44Z</time>
      </trkpt>
      <trkpt lat="41.347872" lon="1.934128">
        <ele>316.653</ele>
        <time>2013-10-27T08:22:45Z</time>
      </trkpt>
      <trkpt lat="41.347873" lon="1.934088">
        <ele>317.008</ele>
        <time>2013-10-27T08:22:46Z</time>
      </trkpt>
      <trkpt lat="41.347875" lon="1.934047">
        <ele>317.408</ele>
        <time>2013-10-27T08:22:47Z</time>
      </trkpt>
      <trkpt lat="41.347877" lon="1.933855">
        <ele>317.436</ele>
        <time>2013-10-27T08:22:52Z</time>
      </trkpt>
      <trkpt lat="41.347828" lon="1.933732">
        <ele>317.899</ele>
        <time>2013-10-27T08:22:56Z</time>
      </trkpt>
      <trkpt lat="41.347812" lon="1.933712">
        <ele>318.241</ele>
        <time>2013-10-27T08:22:57Z</time>
      </trkpt>
      <trkpt lat="41.347793" lon="1.933697">
        <ele>318.687</ele>
        <time>2013-10-27T08:22:58Z</time>
      </trkpt>
      <trkpt lat="41.347763" lon="1.933683">
        <ele>319.059</ele>
        <time>2013-10-27T08:22:59Z</time>
      </trkpt>
      <trkpt lat="41.347740" lon="1.933680">
        <ele>319.680</ele>
        <time>2013-10-27T08:23:00Z</time>
      </trkpt>
      <trkpt lat="41.347712" lon="1.933693">
        <ele>319.636</ele>
        <time>2013-10-27T08:23:01Z</time>
      </trkpt>
      <trkpt lat="41.347560" lon="1.933785">
        <ele>319.660</ele>
        <time>2013-10-27T08:23:06Z</time>
      </trkpt>
      <trkpt lat="41.347342" lon="1.933942">
        <ele>319.624</ele>
        <time>2013-10-27T08:23:14Z</time>
      </trkpt>
      <trkpt lat="41.347322" lon="1.933957">
        <ele>320.404</ele>
        <time>2013-10-27T08:23:15Z</time>
      </trkpt>
      <trkpt lat="41.347293" lon="1.933985">
        <ele>321.014</ele>
        <time>2013-10-27T08:23:16Z</time>
      </trkpt>
      <trkpt lat="41.347273" lon="1.934000">
        <ele>321.408</ele>
        <time>2013-10-27T08:23:17Z</time>
      </trkpt>
      <trkpt lat="41.347253" lon="1.934012">
        <ele>321.893</ele>
        <time>2013-10-27T08:23:18Z</time>
      </trkpt>
      <trkpt lat="41.347175" lon="1.934063">
        <ele>321.816</ele>
        <time>2013-10-27T08:23:22Z</time>
      </trkpt>
      <trkpt lat="41.347152" lon="1.934073">
        <ele>322.478</ele>
        <time>2013-10-27T08:23:23Z</time>
      </trkpt>
      <trkpt lat="41.347127" lon="1.934085">
        <ele>322.854</ele>
        <time>2013-10-27T08:23:24Z</time>
      </trkpt>
      <trkpt lat="41.347100" lon="1.934097">
        <ele>323.296</ele>
        <time>2013-10-27T08:23:25Z</time>
      </trkpt>
      <trkpt lat="41.347075" lon="1.934105">
        <ele>323.647</ele>
        <time>2013-10-27T08:23:26Z</time>
      </trkpt>
      <trkpt lat="41.347050" lon="1.934117">
        <ele>324.033</ele>
        <time>2013-10-27T08:23:27Z</time>
      </trkpt>
      <trkpt lat="41.346977" lon="1.934137">
        <ele>324.067</ele>
        <time>2013-10-27T08:23:30Z</time>
      </trkpt>
      <trkpt lat="41.346823" lon="1.934132">
        <ele>324.013</ele>
        <time>2013-10-27T08:23:37Z</time>
      </trkpt>
      <trkpt lat="41.346802" lon="1.934135">
        <ele>324.443</ele>
        <time>2013-10-27T08:23:38Z</time>
      </trkpt>
      <trkpt lat="41.346778" lon="1.934138">
        <ele>324.807</ele>
        <time>2013-10-27T08:23:39Z</time>
      </trkpt>
      <trkpt lat="41.346752" lon="1.934148">
        <ele>325.608</ele>
        <time>2013-10-27T08:23:40Z</time>
      </trkpt>
      <trkpt lat="41.346727" lon="1.934163">
        <ele>326.042</ele>
        <time>2013-10-27T08:23:41Z</time>
      </trkpt>
      <trkpt lat="41.346680" lon="1.934198">
        <ele>326.085</ele>
        <time>2013-10-27T08:23:43Z</time>
      </trkpt>
      <trkpt lat="41.346522" lon="1.934297">
        <ele>326.637</ele>
        <time>2013-10-27T08:23:49Z</time>
      </trkpt>
      <trkpt lat="41.346497" lon="1.934312">
        <ele>327.013</ele>
        <time>2013-10-27T08:23:50Z</time>
      </trkpt>
      <trkpt lat="41.346473" lon="1.934330">
        <ele>327.675</ele>
        <time>2013-10-27T08:23:51Z</time>
      </trkpt>
      <trkpt lat="41.346447" lon="1.934350">
        <ele>328.026</ele>
        <time>2013-10-27T08:23:52Z</time>
      </trkpt>
      <trkpt lat="41.346425" lon="1.934377">
        <ele>328.442</ele>
        <time>2013-10-27T08:23:53Z</time>
      </trkpt>
      <trkpt lat="41.346360" lon="1.934443">
        <ele>328.446</ele>
        <time>2013-10-27T08:23:56Z</time>
      </trkpt>
      <trkpt lat="41.346252" lon="1.934608">
        <ele>328.476</ele>
        <time>2013-10-27T08:24:02Z</time>
      </trkpt>
      <trkpt lat="41.346240" lon="1.934647">
        <ele>328.490</ele>
        <time>2013-10-27T08:24:03Z</time>
      </trkpt>
      <trkpt lat="41.346192" lon="1.934838">
        <ele>328.419</ele>
        <time>2013-10-27T08:24:08Z</time>
      </trkpt>
      <trkpt lat="41.346182" lon="1.934875">
        <ele>328.408</ele>
        <time>2013-10-27T08:24:09Z</time>
      </trkpt>
      <trkpt lat="41.346155" lon="1.934972">
        <ele>328.448</ele>
        <time>2013-10-27T08:24:12Z</time>
      </trkpt>
      <trkpt lat="41.346128" lon="1.935052">
        <ele>328.451</ele>
        <time>2013-10-27T08:24:14Z</time>
      </trkpt>
      <trkpt lat="41.346062" lon="1.935180">
        <ele>329.023</ele>
        <time>2013-10-27T08:24:17Z</time>
      </trkpt>
      <trkpt lat="41.346037" lon="1.935232">
        <ele>329.439</ele>
        <time>2013-10-27T08:24:18Z</time>
      </trkpt>
      <trkpt lat="41.346012" lon="1.935268">
        <ele>329.881</ele>
        <time>2013-10-27T08:24:19Z</time>
      </trkpt>
      <trkpt lat="41.345993" lon="1.935297">
        <ele>330.282</ele>
        <time>2013-10-27T08:24:20Z</time>
      </trkpt>
      <trkpt lat="41.345975" lon="1.935325">
        <ele>330.668</ele>
        <time>2013-10-27T08:24:21Z</time>
      </trkpt>
      <trkpt lat="41.345930" lon="1.935432">
        <ele>330.672</ele>
        <time>2013-10-27T08:24:24Z</time>
      </trkpt>
      <trkpt lat="41.345868" lon="1.935525">
        <ele>331.286</ele>
        <time>2013-10-27T08:24:27Z</time>
      </trkpt>
      <trkpt lat="41.345847" lon="1.935558">
        <ele>331.660</ele>
        <time>2013-10-27T08:24:28Z</time>
      </trkpt>
      <trkpt lat="41.345828" lon="1.935593">
        <ele>332.626</ele>
        <time>2013-10-27T08:24:29Z</time>
      </trkpt>
      <trkpt lat="41.345810" lon="1.935625">
        <ele>333.008</ele>
        <time>2013-10-27T08:24:30Z</time>
      </trkpt>
      <trkpt lat="41.345745" lon="1.935735">
        <ele>333.049</ele>
        <time>2013-10-27T08:24:34Z</time>
      </trkpt>
      <trkpt lat="41.345592" lon="1.935848">
        <ele>333.012</ele>
        <time>2013-10-27T08:24:40Z</time>
      </trkpt>
      <trkpt lat="41.345482" lon="1.935802">
        <ele>333.014</ele>
        <time>2013-10-27T08:24:44Z</time>
      </trkpt>
      <trkpt lat="41.345413" lon="1.935717">
        <ele>333.060</ele>
        <time>2013-10-27T08:24:48Z</time>
      </trkpt>
      <trkpt lat="41.345382" lon="1.935668">
        <ele>333.032</ele>
        <time>2013-10-27T08:24:50Z</time>
      </trkpt>
      <trkpt lat="41.345343" lon="1.935623">
        <ele>333.073</ele>
        <time>2013-10-27T08:24:52Z</time>
      </trkpt>
      <trkpt lat="41.345318" lon="1.935585">
        <ele>333.029</ele>
        <time>2013-10-27T08:24:54Z</time>
      </trkpt>
      <trkpt lat="41.345293" lon="1.935533">
        <ele>333.063</ele>
        <time>2013-10-27T08:24:56Z</time>
      </trkpt>
      <trkpt lat="41.345265" lon="1.935483">
        <ele>333.081</ele>
        <time>2013-10-27T08:24:58Z</time>
      </trkpt>
      <trkpt lat="41.345235" lon="1.935435">
        <ele>333.061</ele>
        <time>2013-10-27T08:25:00Z</time>
      </trkpt>
      <trkpt lat="41.345208" lon="1.935372">
        <ele>333.017</ele>
        <time>2013-10-27T08:25:02Z</time>
      </trkpt>
      <trkpt lat="41.345182" lon="1.935308">
        <ele>333.008</ele>
        <time>2013-10-27T08:25:04Z</time>
      </trkpt>
      <trkpt lat="41.345115" lon="1.935090">
        <ele>333.049</ele>
        <time>2013-10-27T08:25:11Z</time>
      </trkpt>
      <trkpt lat="41.345110" lon="1.935058">
        <ele>333.472</ele>
        <time>2013-10-27T08:25:12Z</time>
      </trkpt>
      <trkpt lat="41.345100" lon="1.935027">
        <ele>333.814</ele>
        <time>2013-10-27T08:25:13Z</time>
      </trkpt>
      <trkpt lat="41.345098" lon="1.934995">
        <ele>334.290</ele>
        <time>2013-10-27T08:25:14Z</time>
      </trkpt>
      <trkpt lat="41.345092" lon="1.934967">
        <ele>334.612</ele>
        <time>2013-10-27T08:25:15Z</time>
      </trkpt>
      <trkpt lat="41.345088" lon="1.934935">
        <ele>335.013</ele>
        <time>2013-10-27T08:25:16Z</time>
      </trkpt>
      <trkpt lat="41.345090" lon="1.934905">
        <ele>335.089</ele>
        <time>2013-10-27T08:25:17Z</time>
      </trkpt>
      <trkpt lat="41.345073" lon="1.934815">
        <ele>335.033</ele>
        <time>2013-10-27T08:25:20Z</time>
      </trkpt>
      <trkpt lat="41.345050" lon="1.934717">
        <ele>335.485</ele>
        <time>2013-10-27T08:25:23Z</time>
      </trkpt>
      <trkpt lat="41.345043" lon="1.934680">
        <ele>335.889</ele>
        <time>2013-10-27T08:25:24Z</time>
      </trkpt>
      <trkpt lat="41.345035" lon="1.934645">
        <ele>336.417</ele>
        <time>2013-10-27T08:25:25Z</time>
      </trkpt>
      <trkpt lat="41.345028" lon="1.934612">
        <ele>336.808</ele>
        <time>2013-10-27T08:25:26Z</time>
      </trkpt>
      <trkpt lat="41.345023" lon="1.934580">
        <ele>337.239</ele>
        <time>2013-10-27T08:25:27Z</time>
      </trkpt>
      <trkpt lat="41.345008" lon="1.934520">
        <ele>337.252</ele>
        <time>2013-10-27T08:25:29Z</time>
      </trkpt>
      <trkpt lat="41.344970" lon="1.934448">
        <ele>337.624</ele>
        <time>2013-10-27T08:25:32Z</time>
      </trkpt>
      <trkpt lat="41.344955" lon="1.934422">
        <ele>338.050</ele>
        <time>2013-10-27T08:25:33Z</time>
      </trkpt>
      <trkpt lat="41.344935" lon="1.934395">
        <ele>338.642</ele>
        <time>2013-10-27T08:25:34Z</time>
      </trkpt>
      <trkpt lat="41.344912" lon="1.934370">
        <ele>339.093</ele>
        <time>2013-10-27T08:25:35Z</time>
      </trkpt>
      <trkpt lat="41.344885" lon="1.934337">
        <ele>339.419</ele>
        <time>2013-10-27T08:25:36Z</time>
      </trkpt>
      <trkpt lat="41.344815" lon="1.934278">
        <ele>339.413</ele>
        <time>2013-10-27T08:25:38Z</time>
      </trkpt>
      <trkpt lat="41.344773" lon="1.934248">
        <ele>339.415</ele>
        <time>2013-10-27T08:25:39Z</time>
      </trkpt>
      <trkpt lat="41.344555" lon="1.934203">
        <ele>339.465</ele>
        <time>2013-10-27T08:25:43Z</time>
      </trkpt>
      <trkpt lat="41.344502" lon="1.934208">
        <ele>339.411</ele>
        <time>2013-10-27T08:25:44Z</time>
      </trkpt>
      <trkpt lat="41.344273" lon="1.934222">
        <ele>339.008</ele>
        <time>2013-10-27T08:25:48Z</time>
      </trkpt>
      <trkpt lat="41.344225" lon="1.934228">
        <ele>338.672</ele>
        <time>2013-10-27T08:25:49Z</time>
      </trkpt>
      <trkpt lat="41.344182" lon="1.934227">
        <ele>338.225</ele>
        <time>2013-10-27T08:25:50Z</time>
      </trkpt>
      <trkpt lat="41.344137" lon="1.934218">
        <ele>337.687</ele>
        <time>2013-10-27T08:25:51Z</time>
      </trkpt>
      <trkpt lat="41.344092" lon="1.934207">
        <ele>337.273</ele>
        <time>2013-10-27T08:25:52Z</time>
      </trkpt>
      <trkpt lat="41.344052" lon="1.934197">
        <ele>337.275</ele>
        <time>2013-10-27T08:25:53Z</time>
      </trkpt>
      <trkpt lat="41.344012" lon="1.934178">
        <ele>337.216</ele>
        <time>2013-10-27T08:25:54Z</time>
      </trkpt>
      <trkpt lat="41.343972" lon="1.934152">
        <ele>337.622</ele>
        <time>2013-10-27T08:25:55Z</time>
      </trkpt>
      <trkpt lat="41.343938" lon="1.934125">
        <ele>338.046</ele>
        <time>2013-10-27T08:25:56Z</time>
      </trkpt>
      <trkpt lat="41.343903" lon="1.934103">
        <ele>338.682</ele>
        <time>2013-10-27T08:25:57Z</time>
      </trkpt>
      <trkpt lat="41.343870" lon="1.934082">
        <ele>339.043</ele>
        <time>2013-10-27T08:25:58Z</time>
      </trkpt>
      <trkpt lat="41.343840" lon="1.934062">
        <ele>339.417</ele>
        <time>2013-10-27T08:25:59Z</time>
      </trkpt>
      <trkpt lat="41.343575" lon="1.933848">
        <ele>339.408</ele>
        <time>2013-10-27T08:26:08Z</time>
      </trkpt>
      <trkpt lat="41.343548" lon="1.933807">
        <ele>339.459</ele>
        <time>2013-10-27T08:26:09Z</time>
      </trkpt>
      <trkpt lat="41.343497" lon="1.933662">
        <ele>339.472</ele>
        <time>2013-10-27T08:26:12Z</time>
      </trkpt>
      <trkpt lat="41.343490" lon="1.933550">
        <ele>339.474</ele>
        <time>2013-10-27T08:26:14Z</time>
      </trkpt>
      <trkpt lat="41.343475" lon="1.933453">
        <ele>339.470</ele>
        <time>2013-10-27T08:26:16Z</time>
      </trkpt>
      <trkpt lat="41.343462" lon="1.933410">
        <ele>339.492</ele>
        <time>2013-10-27T08:26:17Z</time>
      </trkpt>
      <trkpt lat="41.343365" lon="1.933255">
        <ele>339.413</ele>
        <time>2013-10-27T08:26:21Z</time>
      </trkpt>
      <trkpt lat="41.343327" lon="1.933227">
        <ele>339.469</ele>
        <time>2013-10-27T08:26:22Z</time>
      </trkpt>
      <trkpt lat="41.343208" lon="1.933167">
        <ele>339.433</ele>
        <time>2013-10-27T08:26:25Z</time>
      </trkpt>
      <trkpt lat="41.343145" lon="1.933107">
        <ele>339.455</ele>
        <time>2013-10-27T08:26:27Z</time>
      </trkpt>
      <trkpt lat="41.343067" lon="1.932933">
        <ele>339.407</ele>
        <time>2013-10-27T08:26:31Z</time>
      </trkpt>
      <trkpt lat="41.343038" lon="1.932755">
        <ele>339.417</ele>
        <time>2013-10-27T08:26:35Z</time>
      </trkpt>
      <trkpt lat="41.343032" lon="1.932707">
        <ele>339.408</ele>
        <time>2013-10-27T08:26:36Z</time>
      </trkpt>
      <trkpt lat="41.343023" lon="1.932547">
        <ele>339.476</ele>
        <time>2013-10-27T08:26:40Z</time>
      </trkpt>
      <trkpt lat="41.343007" lon="1.932480">
        <ele>339.489</ele>
        <time>2013-10-27T08:26:42Z</time>
      </trkpt>
      <trkpt lat="41.343002" lon="1.932250">
        <ele>339.421</ele>
        <time>2013-10-27T08:26:48Z</time>
      </trkpt>
      <trkpt lat="41.343065" lon="1.932080">
        <ele>339.457</ele>
        <time>2013-10-27T08:26:51Z</time>
      </trkpt>
      <trkpt lat="41.343118" lon="1.931965">
        <ele>339.419</ele>
        <time>2013-10-27T08:26:53Z</time>
      </trkpt>
      <trkpt lat="41.343200" lon="1.931790">
        <ele>339.480</ele>
        <time>2013-10-27T08:26:56Z</time>
      </trkpt>
      <trkpt lat="41.343222" lon="1.931662">
        <ele>339.416</ele>
        <time>2013-10-27T08:26:58Z</time>
      </trkpt>
      <trkpt lat="41.343220" lon="1.931527">
        <ele>339.490</ele>
        <time>2013-10-27T08:27:00Z</time>
      </trkpt>
      <trkpt lat="41.343187" lon="1.931387">
        <ele>339.412</ele>
        <time>2013-10-27T08:27:03Z</time>
      </trkpt>
      <trkpt lat="41.343142" lon="1.931353">
        <ele>339.432</ele>
        <time>2013-10-27T08:27:05Z</time>
      </trkpt>
      <trkpt lat="41.343060" lon="1.931363">
        <ele>339.405</ele>
        <time>2013-10-27T08:27:07Z</time>
      </trkpt>
      <trkpt lat="41.342973" lon="1.931372">
        <ele>339.408</ele>
        <time>2013-10-27T08:27:09Z</time>
      </trkpt>
      <trkpt lat="41.342920" lon="1.931370">
        <ele>339.432</ele>
        <time>2013-10-27T08:27:10Z</time>
      </trkpt>
      <trkpt lat="41.342798" lon="1.931375">
        <ele>339.455</ele>
        <time>2013-10-27T08:27:12Z</time>
      </trkpt>
      <trkpt lat="41.342433" lon="1.931415">
        <ele>339.427</ele>
        <time>2013-10-27T08:27:18Z</time>
      </trkpt>
      <trkpt lat="41.342222" lon="1.931475">
        <ele>339.463</ele>
        <time>2013-10-27T08:27:22Z</time>
      </trkpt>
      <trkpt lat="41.342107" lon="1.931545">
        <ele>339.445</ele>
        <time>2013-10-27T08:27:24Z</time>
      </trkpt>
      <trkpt lat="41.342055" lon="1.931590">
        <ele>339.056</ele>
        <time>2013-10-27T08:27:25Z</time>
      </trkpt>
      <trkpt lat="41.342013" lon="1.931642">
        <ele>338.632</ele>
        <time>2013-10-27T08:27:26Z</time>
      </trkpt>
      <trkpt lat="41.341985" lon="1.931700">
        <ele>338.216</ele>
        <time>2013-10-27T08:27:27Z</time>
      </trkpt>
      <trkpt lat="41.341962" lon="1.931762">
        <ele>337.686</ele>
        <time>2013-10-27T08:27:28Z</time>
      </trkpt>
      <trkpt lat="41.341947" lon="1.931820">
        <ele>337.260</ele>
        <time>2013-10-27T08:27:29Z</time>
      </trkpt>
      <trkpt lat="41.341935" lon="1.931940">
        <ele>337.226</ele>
        <time>2013-10-27T08:27:31Z</time>
      </trkpt>
      <trkpt lat="41.341935" lon="1.932017">
        <ele>337.208</ele>
        <time>2013-10-27T08:27:32Z</time>
      </trkpt>
      <trkpt lat="41.341928" lon="1.932173">
        <ele>336.829</ele>
        <time>2013-10-27T08:27:34Z</time>
      </trkpt>
      <trkpt lat="41.341923" lon="1.932265">
        <ele>336.492</ele>
        <time>2013-10-27T08:27:35Z</time>
      </trkpt>
      <trkpt lat="41.341917" lon="1.932345">
        <ele>336.054</ele>
        <time>2013-10-27T08:27:36Z</time>
      </trkpt>
      <trkpt lat="41.341902" lon="1.932408">
        <ele>335.670</ele>
        <time>2013-10-27T08:27:37Z</time>
      </trkpt>
      <trkpt lat="41.341875" lon="1.932467">
        <ele>335.232</ele>
        <time>2013-10-27T08:27:38Z</time>
      </trkpt>
      <trkpt lat="41.341792" lon="1.932555">
        <ele>335.223</ele>
        <time>2013-10-27T08:27:40Z</time>
      </trkpt>
      <trkpt lat="41.341683" lon="1.932608">
        <ele>334.819</ele>
        <time>2013-10-27T08:27:42Z</time>
      </trkpt>
      <trkpt lat="41.341623" lon="1.932637">
        <ele>334.413</ele>
        <time>2013-10-27T08:27:43Z</time>
      </trkpt>
      <trkpt lat="41.341560" lon="1.932668">
        <ele>334.017</ele>
        <time>2013-10-27T08:27:44Z</time>
      </trkpt>
      <trkpt lat="41.341492" lon="1.932703">
        <ele>333.287</ele>
        <time>2013-10-27T08:27:45Z</time>
      </trkpt>
      <trkpt lat="41.341323" lon="1.932795">
        <ele>332.615</ele>
        <time>2013-10-27T08:27:47Z</time>
      </trkpt>
      <trkpt lat="41.341237" lon="1.932835">
        <ele>332.208</ele>
        <time>2013-10-27T08:27:48Z</time>
      </trkpt>
      <trkpt lat="41.341157" lon="1.932875">
        <ele>331.852</ele>
        <time>2013-10-27T08:27:49Z</time>
      </trkpt>
      <trkpt lat="41.341075" lon="1.932913">
        <ele>331.455</ele>
        <time>2013-10-27T08:27:50Z</time>
      </trkpt>
      <trkpt lat="41.340995" lon="1.932953">
        <ele>331.047</ele>
        <time>2013-10-27T08:27:51Z</time>
      </trkpt>
      <trkpt lat="41.340915" lon="1.932997">
        <ele>330.673</ele>
        <time>2013-10-27T08:27:52Z</time>
      </trkpt>
      <trkpt lat="41.340838" lon="1.933040">
        <ele>330.275</ele>
        <time>2013-10-27T08:27:53Z</time>
      </trkpt>
      <trkpt lat="41.340760" lon="1.933080">
        <ele>329.836</ele>
        <time>2013-10-27T08:27:54Z</time>
      </trkpt>
      <trkpt lat="41.340683" lon="1.933122">
        <ele>329.492</ele>
        <time>2013-10-27T08:27:55Z</time>
      </trkpt>
      <trkpt lat="41.340602" lon="1.933163">
        <ele>329.016</ele>
        <time>2013-10-27T08:27:56Z</time>
      </trkpt>
      <trkpt lat="41.340453" lon="1.933237">
        <ele>328.444</ele>
        <time>2013-10-27T08:27:58Z</time>
      </trkpt>
      <trkpt lat="41.340380" lon="1.933268">
        <ele>328.005</ele>
        <time>2013-10-27T08:27:59Z</time>
      </trkpt>
      <trkpt lat="41.340305" lon="1.933295">
        <ele>327.415</ele>
        <time>2013-10-27T08:28:00Z</time>
      </trkpt>
      <trkpt lat="41.340235" lon="1.933320">
        <ele>327.008</ele>
        <time>2013-10-27T08:28:01Z</time>
      </trkpt>
      <trkpt lat="41.340160" lon="1.933340">
        <ele>326.455</ele>
        <time>2013-10-27T08:28:02Z</time>
      </trkpt>
      <trkpt lat="41.340008" lon="1.933392">
        <ele>326.498</ele>
        <time>2013-10-27T08:28:04Z</time>
      </trkpt>
      <trkpt lat="41.339947" lon="1.933422">
        <ele>326.050</ele>
        <time>2013-10-27T08:28:05Z</time>
      </trkpt>
      <trkpt lat="41.339903" lon="1.933447">
        <ele>325.626</ele>
        <time>2013-10-27T08:28:06Z</time>
      </trkpt>
      <trkpt lat="41.339875" lon="1.933463">
        <ele>325.278</ele>
        <time>2013-10-27T08:28:07Z</time>
      </trkpt>
      <trkpt lat="41.339855" lon="1.933480">
        <ele>324.619</ele>
        <time>2013-10-27T08:28:08Z</time>
      </trkpt>
      <trkpt lat="41.339843" lon="1.933492">
        <ele>324.045</ele>
        <time>2013-10-27T08:28:09Z</time>
      </trkpt>
      <trkpt lat="41.339835" lon="1.933497">
        <ele>322.829</ele>
        <time>2013-10-27T08:28:10Z</time>
      </trkpt>
      <trkpt lat="41.339835" lon="1.933497">
        <ele>322.217</ele>
        <time>2013-10-27T08:28:11Z</time>
      </trkpt>
      <trkpt lat="41.339832" lon="1.933498">
        <ele>322.287</ele>
        <time>2013-10-27T08:28:12Z</time>
      </trkpt>
      <trkpt lat="41.339813" lon="1.933527">
        <ele>322.215</ele>
        <time>2013-10-27T08:30:15Z</time>
      </trkpt>
      <trkpt lat="41.339753" lon="1.933568">
        <ele>322.208</ele>
        <time>2013-10-27T08:30:18Z</time>
      </trkpt>
      <trkpt lat="41.339642" lon="1.933655">
        <ele>322.212</ele>
        <time>2013-10-27T08:30:24Z</time>
      </trkpt>
      <trkpt lat="41.339592" lon="1.933687">
        <ele>322.235</ele>
        <time>2013-10-27T08:30:26Z</time>
      </trkpt>
      <trkpt lat="41.339535" lon="1.933727">
        <ele>322.257</ele>
        <time>2013-10-27T08:30:28Z</time>
      </trkpt>
      <trkpt lat="41.339435" lon="1.933783">
        <ele>322.273</ele>
        <time>2013-10-27T08:30:31Z</time>
      </trkpt>
      <trkpt lat="41.339218" lon="1.933917">
        <ele>322.215</ele>
        <time>2013-10-27T08:30:36Z</time>
      </trkpt>
      <trkpt lat="41.339170" lon="1.933955">
        <ele>321.826</ele>
        <time>2013-10-27T08:30:37Z</time>
      </trkpt>
      <trkpt lat="41.339115" lon="1.933995">
        <ele>321.082</ele>
        <time>2013-10-27T08:30:38Z</time>
      </trkpt>
      <trkpt lat="41.339058" lon="1.934035">
        <ele>320.676</ele>
        <time>2013-10-27T08:30:39Z</time>
      </trkpt>
      <trkpt lat="41.339002" lon="1.934075">
        <ele>320.296</ele>
        <time>2013-10-27T08:30:40Z</time>
      </trkpt>
      <trkpt lat="41.338942" lon="1.934112">
        <ele>320.231</ele>
        <time>2013-10-27T08:30:41Z</time>
      </trkpt>
      <trkpt lat="41.338568" lon="1.934362">
        <ele>320.224</ele>
        <time>2013-10-27T08:30:47Z</time>
      </trkpt>
      <trkpt lat="41.338428" lon="1.934445">
        <ele>319.608</ele>
        <time>2013-10-27T08:30:49Z</time>
      </trkpt>
      <trkpt lat="41.338365" lon="1.934467">
        <ele>319.060</ele>
        <time>2013-10-27T08:30:50Z</time>
      </trkpt>
      <trkpt lat="41.338302" lon="1.934468">
        <ele>318.653</ele>
        <time>2013-10-27T08:30:51Z</time>
      </trkpt>
      <trkpt lat="41.338240" lon="1.934443">
        <ele>318.075</ele>
        <time>2013-10-27T08:30:52Z</time>
      </trkpt>
      <trkpt lat="41.338180" lon="1.934398">
        <ele>317.241</ele>
        <time>2013-10-27T08:30:53Z</time>
      </trkpt>
      <trkpt lat="41.338125" lon="1.934340">
        <ele>316.653</ele>
        <time>2013-10-27T08:30:54Z</time>
      </trkpt>
      <trkpt lat="41.338077" lon="1.934263">
        <ele>316.054</ele>
        <time>2013-10-27T08:30:55Z</time>
      </trkpt>
      <trkpt lat="41.338028" lon="1.934187">
        <ele>315.490</ele>
        <time>2013-10-27T08:30:56Z</time>
      </trkpt>
      <trkpt lat="41.337932" lon="1.934055">
        <ele>315.484</ele>
        <time>2013-10-27T08:30:58Z</time>
      </trkpt>
      <trkpt lat="41.337872" lon="1.933993">
        <ele>315.088</ele>
        <time>2013-10-27T08:30:59Z</time>
      </trkpt>
      <trkpt lat="41.337800" lon="1.933948">
        <ele>314.424</ele>
        <time>2013-10-27T08:31:00Z</time>
      </trkpt>
      <trkpt lat="41.337732" lon="1.933905">
        <ele>314.026</ele>
        <time>2013-10-27T08:31:01Z</time>
      </trkpt>
      <trkpt lat="41.337648" lon="1.933878">
        <ele>313.408</ele>
        <time>2013-10-27T08:31:02Z</time>
      </trkpt>
      <trkpt lat="41.337565" lon="1.933860">
        <ele>312.049</ele>
        <time>2013-10-27T08:31:03Z</time>
      </trkpt>
      <trkpt lat="41.337480" lon="1.933867">
        <ele>311.252</ele>
        <time>2013-10-27T08:31:04Z</time>
      </trkpt>
      <trkpt lat="41.337400" lon="1.933875">
        <ele>310.644</ele>
        <time>2013-10-27T08:31:05Z</time>
      </trkpt>
      <trkpt lat="41.337322" lon="1.933883">
        <ele>310.630</ele>
        <time>2013-10-27T08:31:06Z</time>
      </trkpt>
      <trkpt lat="41.336950" lon="1.933908">
        <ele>310.672</ele>
        <time>2013-10-27T08:31:11Z</time>
      </trkpt>
      <trkpt lat="41.336887" lon="1.933882">
        <ele>310.673</ele>
        <time>2013-10-27T08:31:12Z</time>
      </trkpt>
      <trkpt lat="41.336807" lon="1.933767">
        <ele>310.639</ele>
        <time>2013-10-27T08:31:14Z</time>
      </trkpt>
      <trkpt lat="41.336780" lon="1.933545">
        <ele>310.693</ele>
        <time>2013-10-27T08:31:17Z</time>
      </trkpt>
      <trkpt lat="41.336720" lon="1.933310">
        <ele>310.677</ele>
        <time>2013-10-27T08:31:20Z</time>
      </trkpt>
      <trkpt lat="41.336677" lon="1.933155">
        <ele>310.661</ele>
        <time>2013-10-27T08:31:22Z</time>
      </trkpt>
      <trkpt lat="41.336657" lon="1.932938">
        <ele>310.627</ele>
        <time>2013-10-27T08:31:25Z</time>
      </trkpt>
      <trkpt lat="41.336653" lon="1.932863">
        <ele>310.608</ele>
        <time>2013-10-27T08:31:26Z</time>
      </trkpt>
      <trkpt lat="41.336652" lon="1.932703">
        <ele>310.648</ele>
        <time>2013-10-27T08:31:28Z</time>
      </trkpt>
      <trkpt lat="41.336660" lon="1.932528">
        <ele>310.661</ele>
        <time>2013-10-27T08:31:30Z</time>
      </trkpt>
      <trkpt lat="41.336668" lon="1.932440">
        <ele>310.643</ele>
        <time>2013-10-27T08:31:31Z</time>
      </trkpt>
      <trkpt lat="41.336690" lon="1.932160">
        <ele>310.289</ele>
        <time>2013-10-27T08:31:34Z</time>
      </trkpt>
      <trkpt lat="41.336697" lon="1.932065">
        <ele>309.831</ele>
        <time>2013-10-27T08:31:35Z</time>
      </trkpt>
      <trkpt lat="41.336698" lon="1.931967">
        <ele>309.422</ele>
        <time>2013-10-27T08:31:36Z</time>
      </trkpt>
      <trkpt lat="41.336690" lon="1.931873">
        <ele>308.868</ele>
        <time>2013-10-27T08:31:37Z</time>
      </trkpt>
      <trkpt lat="41.336682" lon="1.931782">
        <ele>308.492</ele>
        <time>2013-10-27T08:31:38Z</time>
      </trkpt>
      <trkpt lat="41.336660" lon="1.931525">
        <ele>308.483</ele>
        <time>2013-10-27T08:31:41Z</time>
      </trkpt>
      <trkpt lat="41.336655" lon="1.931442">
        <ele>308.425</ele>
        <time>2013-10-27T08:31:42Z</time>
      </trkpt>
      <trkpt lat="41.336648" lon="1.931350">
        <ele>308.017</ele>
        <time>2013-10-27T08:31:43Z</time>
      </trkpt>
      <trkpt lat="41.336635" lon="1.931265">
        <ele>307.608</ele>
        <time>2013-10-27T08:31:44Z</time>
      </trkpt>
      <trkpt lat="41.336618" lon="1.931183">
        <ele>307.289</ele>
        <time>2013-10-27T08:31:45Z</time>
      </trkpt>
      <trkpt lat="41.336598" lon="1.931112">
        <ele>306.852</ele>
        <time>2013-10-27T08:31:46Z</time>
      </trkpt>
      <trkpt lat="41.336583" lon="1.931045">
        <ele>306.244</ele>
        <time>2013-10-27T08:31:47Z</time>
      </trkpt>
      <trkpt lat="41.336572" lon="1.930977">
        <ele>306.230</ele>
        <time>2013-10-27T08:31:48Z</time>
      </trkpt>
      <trkpt lat="41.336512" lon="1.930582">
        <ele>306.272</ele>
        <time>2013-10-27T08:31:54Z</time>
      </trkpt>
      <trkpt lat="41.336477" lon="1.930447">
        <ele>306.293</ele>
        <time>2013-10-27T08:31:56Z</time>
      </trkpt>
      <trkpt lat="41.336405" lon="1.930227">
        <ele>306.249</ele>
        <time>2013-10-27T08:32:00Z</time>
      </trkpt>
      <trkpt lat="41.336345" lon="1.930052">
        <ele>306.293</ele>
        <time>2013-10-27T08:32:03Z</time>
      </trkpt>
      <trkpt lat="41.336280" lon="1.929885">
        <ele>306.286</ele>
        <time>2013-10-27T08:32:06Z</time>
      </trkpt>
      <trkpt lat="41.336235" lon="1.929768">
        <ele>306.260</ele>
        <time>2013-10-27T08:32:08Z</time>
      </trkpt>
      <trkpt lat="41.336070" lon="1.929392">
        <ele>306.226</ele>
        <time>2013-10-27T08:32:15Z</time>
      </trkpt>
      <trkpt lat="41.336048" lon="1.929340">
        <ele>306.208</ele>
        <time>2013-10-27T08:32:16Z</time>
      </trkpt>
      <trkpt lat="41.335952" lon="1.929128">
        <ele>306.229</ele>
        <time>2013-10-27T08:32:20Z</time>
      </trkpt>
      <trkpt lat="41.335887" lon="1.928965">
        <ele>306.252</ele>
        <time>2013-10-27T08:32:23Z</time>
      </trkpt>
      <trkpt lat="41.335805" lon="1.928747">
        <ele>306.214</ele>
        <time>2013-10-27T08:32:27Z</time>
      </trkpt>
      <trkpt lat="41.335782" lon="1.928702">
        <ele>306.260</ele>
        <time>2013-10-27T08:32:28Z</time>
      </trkpt>
      <trkpt lat="41.335753" lon="1.928653">
        <ele>306.282</ele>
        <time>2013-10-27T08:32:30Z</time>
      </trkpt>
      <trkpt lat="41.335753" lon="1.928520">
        <ele>306.263</ele>
        <time>2013-10-27T08:32:34Z</time>
      </trkpt>
      <trkpt lat="41.335692" lon="1.928478">
        <ele>306.229</ele>
        <time>2013-10-27T08:32:37Z</time>
      </trkpt>
      <trkpt lat="41.335622" lon="1.928500">
        <ele>306.273</ele>
        <time>2013-10-27T08:32:40Z</time>
      </trkpt>
      <trkpt lat="41.335592" lon="1.928502">
        <ele>306.216</ele>
        <time>2013-10-27T08:32:41Z</time>
      </trkpt>
      <trkpt lat="41.335527" lon="1.928498">
        <ele>306.276</ele>
        <time>2013-10-27T08:32:43Z</time>
      </trkpt>
      <trkpt lat="41.335392" lon="1.928455">
        <ele>306.213</ele>
        <time>2013-10-27T08:32:47Z</time>
      </trkpt>
      <trkpt lat="41.335200" lon="1.928407">
        <ele>306.208</ele>
        <time>2013-10-27T08:32:53Z</time>
      </trkpt>
      <trkpt lat="41.334957" lon="1.928437">
        <ele>306.272</ele>
        <time>2013-10-27T08:32:59Z</time>
      </trkpt>
      <trkpt lat="41.334720" lon="1.928598">
        <ele>306.225</ele>
        <time>2013-10-27T08:33:05Z</time>
      </trkpt>
      <trkpt lat="41.334610" lon="1.928685">
        <ele>306.647</ele>
        <time>2013-10-27T08:33:08Z</time>
      </trkpt>
      <trkpt lat="41.334575" lon="1.928717">
        <ele>307.213</ele>
        <time>2013-10-27T08:33:09Z</time>
      </trkpt>
      <trkpt lat="41.334540" lon="1.928750">
        <ele>307.685</ele>
        <time>2013-10-27T08:33:10Z</time>
      </trkpt>
      <trkpt lat="41.334507" lon="1.928787">
        <ele>308.056</ele>
        <time>2013-10-27T08:33:11Z</time>
      </trkpt>
      <trkpt lat="41.334473" lon="1.928822">
        <ele>308.472</ele>
        <time>2013-10-27T08:33:12Z</time>
      </trkpt>
      <trkpt lat="41.334400" lon="1.928892">
        <ele>308.426</ele>
        <time>2013-10-27T08:33:14Z</time>
      </trkpt>
      <trkpt lat="41.334327" lon="1.928963">
        <ele>308.478</ele>
        <time>2013-10-27T08:33:16Z</time>
      </trkpt>
      <trkpt lat="41.334173" lon="1.929125">
        <ele>308.433</ele>
        <time>2013-10-27T08:33:20Z</time>
      </trkpt>
      <trkpt lat="41.334133" lon="1.929167">
        <ele>308.426</ele>
        <time>2013-10-27T08:33:21Z</time>
      </trkpt>
      <trkpt lat="41.334057" lon="1.929238">
        <ele>308.408</ele>
        <time>2013-10-27T08:33:23Z</time>
      </trkpt>
      <trkpt lat="41.333918" lon="1.929355">
        <ele>308.478</ele>
        <time>2013-10-27T08:33:26Z</time>
      </trkpt>
      <trkpt lat="41.333788" lon="1.929443">
        <ele>308.481</ele>
        <time>2013-10-27T08:33:29Z</time>
      </trkpt>
      <trkpt lat="41.333658" lon="1.929390">
        <ele>308.483</ele>
        <time>2013-10-27T08:33:31Z</time>
      </trkpt>
      <trkpt lat="41.333557" lon="1.929327">
        <ele>308.499</ele>
        <time>2013-10-27T08:33:33Z</time>
      </trkpt>
      <trkpt lat="41.333505" lon="1.929295">
        <ele>308.421</ele>
        <time>2013-10-27T08:33:34Z</time>
      </trkpt>
      <trkpt lat="41.333398" lon="1.929238">
        <ele>308.052</ele>
        <time>2013-10-27T08:33:36Z</time>
      </trkpt>
      <trkpt lat="41.333353" lon="1.929208">
        <ele>307.418</ele>
        <time>2013-10-27T08:33:37Z</time>
      </trkpt>
      <trkpt lat="41.333307" lon="1.929173">
        <ele>307.082</ele>
        <time>2013-10-27T08:33:38Z</time>
      </trkpt>
      <trkpt lat="41.333262" lon="1.929143">
        <ele>306.663</ele>
        <time>2013-10-27T08:33:39Z</time>
      </trkpt>
      <trkpt lat="41.333210" lon="1.929112">
        <ele>306.244</ele>
        <time>2013-10-27T08:33:40Z</time>
      </trkpt>
      <trkpt lat="41.333163" lon="1.929082">
        <ele>306.218</ele>
        <time>2013-10-27T08:33:41Z</time>
      </trkpt>
      <trkpt lat="41.333117" lon="1.929050">
        <ele>306.208</ele>
        <time>2013-10-27T08:33:42Z</time>
      </trkpt>
      <trkpt lat="41.333027" lon="1.928985">
        <ele>306.237</ele>
        <time>2013-10-27T08:33:44Z</time>
      </trkpt>
      <trkpt lat="41.332938" lon="1.928922">
        <ele>306.260</ele>
        <time>2013-10-27T08:33:46Z</time>
      </trkpt>
      <trkpt lat="41.332837" lon="1.928848">
        <ele>306.282</ele>
        <time>2013-10-27T08:33:49Z</time>
      </trkpt>
      <trkpt lat="41.332818" lon="1.928813">
        <ele>305.858</ele>
        <time>2013-10-27T08:33:50Z</time>
      </trkpt>
      <trkpt lat="41.332798" lon="1.928798">
        <ele>305.210</ele>
        <time>2013-10-27T08:33:51Z</time>
      </trkpt>
      <trkpt lat="41.332783" lon="1.928785">
        <ele>304.871</ele>
        <time>2013-10-27T08:33:52Z</time>
      </trkpt>
      <trkpt lat="41.332785" lon="1.928788">
        <ele>304.437</ele>
        <time>2013-10-27T08:33:53Z</time>
      </trkpt>
      <trkpt lat="41.332782" lon="1.928787">
        <ele>303.841</ele>
        <time>2013-10-27T08:33:54Z</time>
      </trkpt>
      <trkpt lat="41.332730" lon="1.928752">
        <ele>303.892</ele>
        <time>2013-10-27T08:34:18Z</time>
      </trkpt>
      <trkpt lat="41.332683" lon="1.928727">
        <ele>303.873</ele>
        <time>2013-10-27T08:34:20Z</time>
      </trkpt>
      <trkpt lat="41.332585" lon="1.928693">
        <ele>303.820</ele>
        <time>2013-10-27T08:34:23Z</time>
      </trkpt>
      <trkpt lat="41.332510" lon="1.928653">
        <ele>303.808</ele>
        <time>2013-10-27T08:34:25Z</time>
      </trkpt>
      <trkpt lat="41.332423" lon="1.928620">
        <ele>303.860</ele>
        <time>2013-10-27T08:34:27Z</time>
      </trkpt>
      <trkpt lat="41.332380" lon="1.928607">
        <ele>303.813</ele>
        <time>2013-10-27T08:34:28Z</time>
      </trkpt>
      <trkpt lat="41.332335" lon="1.928593">
        <ele>303.815</ele>
        <time>2013-10-27T08:34:29Z</time>
      </trkpt>
      <trkpt lat="41.332283" lon="1.928580">
        <ele>303.851</ele>
        <time>2013-10-27T08:34:30Z</time>
      </trkpt>
      <trkpt lat="41.332095" lon="1.928552">
        <ele>303.413</ele>
        <time>2013-10-27T08:34:33Z</time>
      </trkpt>
      <trkpt lat="41.332023" lon="1.928550">
        <ele>303.014</ele>
        <time>2013-10-27T08:34:34Z</time>
      </trkpt>
      <trkpt lat="41.331947" lon="1.928542">
        <ele>302.680</ele>
        <time>2013-10-27T08:34:35Z</time>
      </trkpt>
      <trkpt lat="41.331867" lon="1.928532">
        <ele>302.284</ele>
        <time>2013-10-27T08:34:36Z</time>
      </trkpt>
      <trkpt lat="41.331787" lon="1.928527">
        <ele>301.849</ele>
        <time>2013-10-27T08:34:37Z</time>
      </trkpt>
      <trkpt lat="41.331707" lon="1.928518">
        <ele>301.202</ele>
        <time>2013-10-27T08:34:38Z</time>
      </trkpt>
      <trkpt lat="41.331627" lon="1.928510">
        <ele>300.822</ele>
        <time>2013-10-27T08:34:39Z</time>
      </trkpt>
      <trkpt lat="41.331550" lon="1.928497">
        <ele>300.208</ele>
        <time>2013-10-27T08:34:40Z</time>
      </trkpt>
      <trkpt lat="41.331472" lon="1.928477">
        <ele>299.695</ele>
        <time>2013-10-27T08:34:41Z</time>
      </trkpt>
      <trkpt lat="41.331373" lon="1.928438">
        <ele>299.268</ele>
        <time>2013-10-27T08:34:42Z</time>
      </trkpt>
      <trkpt lat="41.331232" lon="1.928387">
        <ele>299.220</ele>
        <time>2013-10-27T08:34:44Z</time>
      </trkpt>
      <trkpt lat="41.331095" lon="1.928342">
        <ele>299.286</ele>
        <time>2013-10-27T08:34:46Z</time>
      </trkpt>
      <trkpt lat="41.330887" lon="1.928270">
        <ele>299.238</ele>
        <time>2013-10-27T08:34:49Z</time>
      </trkpt>
      <trkpt lat="41.330820" lon="1.928247">
        <ele>299.259</ele>
        <time>2013-10-27T08:34:50Z</time>
      </trkpt>
      <trkpt lat="41.330745" lon="1.928225">
        <ele>299.215</ele>
        <time>2013-10-27T08:34:51Z</time>
      </trkpt>
      <trkpt lat="41.330555" lon="1.928172">
        <ele>299.299</ele>
        <time>2013-10-27T08:34:54Z</time>
      </trkpt>
      <trkpt lat="41.330492" lon="1.928155">
        <ele>298.897</ele>
        <time>2013-10-27T08:34:55Z</time>
      </trkpt>
      <trkpt lat="41.330427" lon="1.928135">
        <ele>298.223</ele>
        <time>2013-10-27T08:34:56Z</time>
      </trkpt>
      <trkpt lat="41.330365" lon="1.928112">
        <ele>297.825</ele>
        <time>2013-10-27T08:34:57Z</time>
      </trkpt>
      <trkpt lat="41.330307" lon="1.928087">
        <ele>297.408</ele>
        <time>2013-10-27T08:34:58Z</time>
      </trkpt>
      <trkpt lat="41.330252" lon="1.928067">
        <ele>297.010</ele>
        <time>2013-10-27T08:34:59Z</time>
      </trkpt>
      <trkpt lat="41.330047" lon="1.927995">
        <ele>296.663</ele>
        <time>2013-10-27T08:35:03Z</time>
      </trkpt>
      <trkpt lat="41.329997" lon="1.927977">
        <ele>296.285</ele>
        <time>2013-10-27T08:35:04Z</time>
      </trkpt>
      <trkpt lat="41.329945" lon="1.927958">
        <ele>295.691</ele>
        <time>2013-10-27T08:35:05Z</time>
      </trkpt>
      <trkpt lat="41.329893" lon="1.927940">
        <ele>295.233</ele>
        <time>2013-10-27T08:35:06Z</time>
      </trkpt>
      <trkpt lat="41.329847" lon="1.927920">
        <ele>294.894</ele>
        <time>2013-10-27T08:35:07Z</time>
      </trkpt>
      <trkpt lat="41.329757" lon="1.927885">
        <ele>294.870</ele>
        <time>2013-10-27T08:35:09Z</time>
      </trkpt>
      <trkpt lat="41.329657" lon="1.927817">
        <ele>294.444</ele>
        <time>2013-10-27T08:35:12Z</time>
      </trkpt>
      <trkpt lat="41.329643" lon="1.927777">
        <ele>294.058</ele>
        <time>2013-10-27T08:35:13Z</time>
      </trkpt>
      <trkpt lat="41.329648" lon="1.927732">
        <ele>293.652</ele>
        <time>2013-10-27T08:35:14Z</time>
      </trkpt>
      <trkpt lat="41.329657" lon="1.927692">
        <ele>293.217</ele>
        <time>2013-10-27T08:35:15Z</time>
      </trkpt>
      <trkpt lat="41.329658" lon="1.927655">
        <ele>292.608</ele>
        <time>2013-10-27T08:35:16Z</time>
      </trkpt>
      <trkpt lat="41.329658" lon="1.927608">
        <ele>292.656</ele>
        <time>2013-10-27T08:35:18Z</time>
      </trkpt>
      <trkpt lat="41.329700" lon="1.927397">
        <ele>292.649</ele>
        <time>2013-10-27T08:35:22Z</time>
      </trkpt>
      <trkpt lat="41.329732" lon="1.927293">
        <ele>292.661</ele>
        <time>2013-10-27T08:35:24Z</time>
      </trkpt>
      <trkpt lat="41.329712" lon="1.927150">
        <ele>292.647</ele>
        <time>2013-10-27T08:35:27Z</time>
      </trkpt>
      <trkpt lat="41.329683" lon="1.927123">
        <ele>292.649</ele>
        <time>2013-10-27T08:35:28Z</time>
      </trkpt>
      <trkpt lat="41.329623" lon="1.927095">
        <ele>292.690</ele>
        <time>2013-10-27T08:35:30Z</time>
      </trkpt>
      <trkpt lat="41.329518" lon="1.927048">
        <ele>292.616</ele>
        <time>2013-10-27T08:35:34Z</time>
      </trkpt>
      <trkpt lat="41.329492" lon="1.927033">
        <ele>292.650</ele>
        <time>2013-10-27T08:35:35Z</time>
      </trkpt>
      <trkpt lat="41.329435" lon="1.927008">
        <ele>292.696</ele>
        <time>2013-10-27T08:35:37Z</time>
      </trkpt>
      <trkpt lat="41.329353" lon="1.926972">
        <ele>292.631</ele>
        <time>2013-10-27T08:35:40Z</time>
      </trkpt>
      <trkpt lat="41.329267" lon="1.926928">
        <ele>292.624</ele>
        <time>2013-10-27T08:35:43Z</time>
      </trkpt>
      <trkpt lat="41.329203" lon="1.926907">
        <ele>292.608</ele>
        <time>2013-10-27T08:35:45Z</time>
      </trkpt>
      <trkpt lat="41.329003" lon="1.926843">
        <ele>292.680</ele>
        <time>2013-10-27T08:35:51Z</time>
      </trkpt>
      <trkpt lat="41.328818" lon="1.926772">
        <ele>292.683</ele>
        <time>2013-10-27T08:35:57Z</time>
      </trkpt>
      <trkpt lat="41.328780" lon="1.926750">
        <ele>292.235</ele>
        <time>2013-10-27T08:35:58Z</time>
      </trkpt>
      <trkpt lat="41.328737" lon="1.926727">
        <ele>291.841</ele>
        <time>2013-10-27T08:35:59Z</time>
      </trkpt>
      <trkpt lat="41.328693" lon="1.926710">
        <ele>291.453</ele>
        <time>2013-10-27T08:36:00Z</time>
      </trkpt>
      <trkpt lat="41.328648" lon="1.926690">
        <ele>291.054</ele>
        <time>2013-10-27T08:36:01Z</time>
      </trkpt>
      <trkpt lat="41.328598" lon="1.926668">
        <ele>290.680</ele>
        <time>2013-10-27T08:36:02Z</time>
      </trkpt>
      <trkpt lat="41.328552" lon="1.926637">
        <ele>290.654</ele>
        <time>2013-10-27T08:36:03Z</time>
      </trkpt>
      <trkpt lat="41.328448" lon="1.926492">
        <ele>290.655</ele>
        <time>2013-10-27T08:36:06Z</time>
      </trkpt>
      <trkpt lat="41.328337" lon="1.926388">
        <ele>290.607</ele>
        <time>2013-10-27T08:36:09Z</time>
      </trkpt>
      <trkpt lat="41.328293" lon="1.926383">
        <ele>290.617</ele>
        <time>2013-10-27T08:36:10Z</time>
      </trkpt>
      <trkpt lat="41.328138" lon="1.926435">
        <ele>290.608</ele>
        <time>2013-10-27T08:36:14Z</time>
      </trkpt>
      <trkpt lat="41.328097" lon="1.926443">
        <ele>290.636</ele>
        <time>2013-10-27T08:36:15Z</time>
      </trkpt>
      <trkpt lat="41.327922" lon="1.926397">
        <ele>290.649</ele>
        <time>2013-10-27T08:36:19Z</time>
      </trkpt>
      <trkpt lat="41.327820" lon="1.926360">
        <ele>290.611</ele>
        <time>2013-10-27T08:36:21Z</time>
      </trkpt>
      <trkpt lat="41.327540" lon="1.926255">
        <ele>290.667</ele>
        <time>2013-10-27T08:36:27Z</time>
      </trkpt>
      <trkpt lat="41.327455" lon="1.926225">
        <ele>290.619</ele>
        <time>2013-10-27T08:36:29Z</time>
      </trkpt>
      <trkpt lat="41.327382" lon="1.926198">
        <ele>290.680</ele>
        <time>2013-10-27T08:36:31Z</time>
      </trkpt>
      <trkpt lat="41.327352" lon="1.926187">
        <ele>290.646</ele>
        <time>2013-10-27T08:36:32Z</time>
      </trkpt>
      <trkpt lat="41.327162" lon="1.926105">
        <ele>290.620</ele>
        <time>2013-10-27T08:36:38Z</time>
      </trkpt>
      <trkpt lat="41.327130" lon="1.926093">
        <ele>290.627</ele>
        <time>2013-10-27T08:36:39Z</time>
      </trkpt>
      <trkpt lat="41.327045" lon="1.926062">
        <ele>290.668</ele>
        <time>2013-10-27T08:36:42Z</time>
      </trkpt>
      <trkpt lat="41.326993" lon="1.926042">
        <ele>290.614</ele>
        <time>2013-10-27T08:36:44Z</time>
      </trkpt>
      <trkpt lat="41.326972" lon="1.926030">
        <ele>290.608</ele>
        <time>2013-10-27T08:36:45Z</time>
      </trkpt>
      <trkpt lat="41.326923" lon="1.926015">
        <ele>290.653</ele>
        <time>2013-10-27T08:36:47Z</time>
      </trkpt>
      <trkpt lat="41.326872" lon="1.925995">
        <ele>291.086</ele>
        <time>2013-10-27T08:36:49Z</time>
      </trkpt>
      <trkpt lat="41.326850" lon="1.925988">
        <ele>291.498</ele>
        <time>2013-10-27T08:36:50Z</time>
      </trkpt>
      <trkpt lat="41.326828" lon="1.925987">
        <ele>291.884</ele>
        <time>2013-10-27T08:36:51Z</time>
      </trkpt>
      <trkpt lat="41.326805" lon="1.925975">
        <ele>292.216</ele>
        <time>2013-10-27T08:36:52Z</time>
      </trkpt>
      <trkpt lat="41.326785" lon="1.925968">
        <ele>292.687</ele>
        <time>2013-10-27T08:36:53Z</time>
      </trkpt>
      <trkpt lat="41.326710" lon="1.925933">
        <ele>292.663</ele>
        <time>2013-10-27T08:36:56Z</time>
      </trkpt>
      <trkpt lat="41.326665" lon="1.925915">
        <ele>293.267</ele>
        <time>2013-10-27T08:36:58Z</time>
      </trkpt>
      <trkpt lat="41.326642" lon="1.925907">
        <ele>293.682</ele>
        <time>2013-10-27T08:36:59Z</time>
      </trkpt>
      <trkpt lat="41.326618" lon="1.925897">
        <ele>294.043</ele>
        <time>2013-10-27T08:37:00Z</time>
      </trkpt>
      <trkpt lat="41.326595" lon="1.925890">
        <ele>294.417</ele>
        <time>2013-10-27T08:37:01Z</time>
      </trkpt>
      <trkpt lat="41.326570" lon="1.925880">
        <ele>294.808</ele>
        <time>2013-10-27T08:37:02Z</time>
      </trkpt>
      <trkpt lat="41.326552" lon="1.925873">
        <ele>294.819</ele>
        <time>2013-10-27T08:37:03Z</time>
      </trkpt>
      <trkpt lat="41.326482" lon="1.925843">
        <ele>294.882</ele>
        <time>2013-10-27T08:37:06Z</time>
      </trkpt>
      <trkpt lat="41.326432" lon="1.925827">
        <ele>295.214</ele>
        <time>2013-10-27T08:37:08Z</time>
      </trkpt>
      <trkpt lat="41.326407" lon="1.925825">
        <ele>295.620</ele>
        <time>2013-10-27T08:37:09Z</time>
      </trkpt>
      <trkpt lat="41.326375" lon="1.925817">
        <ele>296.072</ele>
        <time>2013-10-27T08:37:10Z</time>
      </trkpt>
      <trkpt lat="41.326350" lon="1.925812">
        <ele>296.813</ele>
        <time>2013-10-27T08:37:11Z</time>
      </trkpt>
      <trkpt lat="41.326278" lon="1.925785">
        <ele>296.869</ele>
        <time>2013-10-27T08:37:14Z</time>
      </trkpt>
      <trkpt lat="41.326240" lon="1.925760">
        <ele>297.213</ele>
        <time>2013-10-27T08:37:16Z</time>
      </trkpt>
      <trkpt lat="41.326220" lon="1.925753">
        <ele>297.681</ele>
        <time>2013-10-27T08:37:17Z</time>
      </trkpt>
      <trkpt lat="41.326198" lon="1.925740">
        <ele>298.261</ele>
        <time>2013-10-27T08:37:18Z</time>
      </trkpt>
      <trkpt lat="41.326178" lon="1.925728">
        <ele>298.617</ele>
        <time>2013-10-27T08:37:19Z</time>
      </trkpt>
      <trkpt lat="41.326157" lon="1.925723">
        <ele>299.008</ele>
        <time>2013-10-27T08:37:20Z</time>
      </trkpt>
      <trkpt lat="41.326103" lon="1.925712">
        <ele>299.049</ele>
        <time>2013-10-27T08:37:22Z</time>
      </trkpt>
      <trkpt lat="41.325887" lon="1.925622">
        <ele>299.032</ele>
        <time>2013-10-27T08:37:28Z</time>
      </trkpt>
      <trkpt lat="41.325565" lon="1.925492">
        <ele>299.014</ele>
        <time>2013-10-27T08:37:34Z</time>
      </trkpt>
      <trkpt lat="41.325363" lon="1.925422">
        <ele>298.410</ele>
        <time>2013-10-27T08:37:37Z</time>
      </trkpt>
      <trkpt lat="41.325290" lon="1.925395">
        <ele>298.072</ele>
        <time>2013-10-27T08:37:38Z</time>
      </trkpt>
      <trkpt lat="41.325213" lon="1.925367">
        <ele>297.663</ele>
        <time>2013-10-27T08:37:39Z</time>
      </trkpt>
      <trkpt lat="41.325132" lon="1.925340">
        <ele>297.279</ele>
        <time>2013-10-27T08:37:40Z</time>
      </trkpt>
      <trkpt lat="41.325048" lon="1.925310">
        <ele>296.683</ele>
        <time>2013-10-27T08:37:41Z</time>
      </trkpt>
      <trkpt lat="41.324958" lon="1.925282">
        <ele>295.887</ele>
        <time>2013-10-27T08:37:42Z</time>
      </trkpt>
      <trkpt lat="41.324872" lon="1.925253">
        <ele>295.242</ele>
        <time>2013-10-27T08:37:43Z</time>
      </trkpt>
      <trkpt lat="41.324788" lon="1.925222">
        <ele>294.626</ele>
        <time>2013-10-27T08:37:44Z</time>
      </trkpt>
      <trkpt lat="41.324707" lon="1.925188">
        <ele>294.008</ele>
        <time>2013-10-27T08:37:45Z</time>
      </trkpt>
      <trkpt lat="41.324545" lon="1.925123">
        <ele>294.069</ele>
        <time>2013-10-27T08:37:47Z</time>
      </trkpt>
      <trkpt lat="41.324465" lon="1.925095">
        <ele>293.612</ele>
        <time>2013-10-27T08:37:48Z</time>
      </trkpt>
      <trkpt lat="41.324388" lon="1.925067">
        <ele>293.254</ele>
        <time>2013-10-27T08:37:49Z</time>
      </trkpt>
      <trkpt lat="41.324313" lon="1.925037">
        <ele>292.830</ele>
        <time>2013-10-27T08:37:50Z</time>
      </trkpt>
      <trkpt lat="41.324238" lon="1.925012">
        <ele>292.422</ele>
        <time>2013-10-27T08:37:51Z</time>
      </trkpt>
      <trkpt lat="41.324172" lon="1.924987">
        <ele>292.043</ele>
        <time>2013-10-27T08:37:52Z</time>
      </trkpt>
      <trkpt lat="41.324113" lon="1.924972">
        <ele>292.089</ele>
        <time>2013-10-27T08:37:53Z</time>
      </trkpt>
      <trkpt lat="41.324052" lon="1.924953">
        <ele>292.063</ele>
        <time>2013-10-27T08:37:54Z</time>
      </trkpt>
      <trkpt lat="41.323642" lon="1.924790">
        <ele>292.057</ele>
        <time>2013-10-27T08:38:01Z</time>
      </trkpt>
      <trkpt lat="41.323537" lon="1.924715">
        <ele>292.000</ele>
        <time>2013-10-27T08:38:03Z</time>
      </trkpt>
      <trkpt lat="41.323453" lon="1.924602">
        <ele>292.020</ele>
        <time>2013-10-27T08:38:05Z</time>
      </trkpt>
      <trkpt lat="41.323390" lon="1.924475">
        <ele>292.008</ele>
        <time>2013-10-27T08:38:07Z</time>
      </trkpt>
      <trkpt lat="41.323363" lon="1.924342">
        <ele>292.096</ele>
        <time>2013-10-27T08:38:09Z</time>
      </trkpt>
      <trkpt lat="41.323365" lon="1.924197">
        <ele>292.019</ele>
        <time>2013-10-27T08:38:11Z</time>
      </trkpt>
      <trkpt lat="41.323368" lon="1.924143">
        <ele>292.041</ele>
        <time>2013-10-27T08:38:12Z</time>
      </trkpt>
      <trkpt lat="41.323370" lon="1.924095">
        <ele>292.087</ele>
        <time>2013-10-27T08:38:13Z</time>
      </trkpt>
      <trkpt lat="41.323387" lon="1.923968">
        <ele>292.089</ele>
        <time>2013-10-27T08:38:16Z</time>
      </trkpt>
      <trkpt lat="41.323395" lon="1.923840">
        <ele>292.880</ele>
        <time>2013-10-27T08:38:19Z</time>
      </trkpt>
      <trkpt lat="41.323397" lon="1.923797">
        <ele>293.226</ele>
        <time>2013-10-27T08:38:20Z</time>
      </trkpt>
      <trkpt lat="41.323398" lon="1.923753">
        <ele>293.660</ele>
        <time>2013-10-27T08:38:21Z</time>
      </trkpt>
      <trkpt lat="41.323400" lon="1.923713">
        <ele>294.028</ele>
        <time>2013-10-27T08:38:22Z</time>
      </trkpt>
      <trkpt lat="41.323393" lon="1.923553">
        <ele>294.089</ele>
        <time>2013-10-27T08:38:26Z</time>
      </trkpt>
      <trkpt lat="41.323382" lon="1.923435">
        <ele>294.417</ele>
        <time>2013-10-27T08:38:29Z</time>
      </trkpt>
      <trkpt lat="41.323380" lon="1.923393">
        <ele>295.008</ele>
        <time>2013-10-27T08:38:30Z</time>
      </trkpt>
      <trkpt lat="41.323378" lon="1.923355">
        <ele>295.413</ele>
        <time>2013-10-27T08:38:31Z</time>
      </trkpt>
      <trkpt lat="41.323378" lon="1.923315">
        <ele>295.846</ele>
        <time>2013-10-27T08:38:32Z</time>
      </trkpt>
      <trkpt lat="41.323377" lon="1.923277">
        <ele>296.288</ele>
        <time>2013-10-27T08:38:33Z</time>
      </trkpt>
      <trkpt lat="41.323373" lon="1.923240">
        <ele>296.264</ele>
        <time>2013-10-27T08:38:34Z</time>
      </trkpt>
      <trkpt lat="41.323320" lon="1.922950">
        <ele>296.636</ele>
        <time>2013-10-27T08:38:42Z</time>
      </trkpt>
      <trkpt lat="41.323307" lon="1.922922">
        <ele>297.017</ele>
        <time>2013-10-27T08:38:43Z</time>
      </trkpt>
      <trkpt lat="41.323295" lon="1.922892">
        <ele>297.883</ele>
        <time>2013-10-27T08:38:44Z</time>
      </trkpt>
      <trkpt lat="41.323283" lon="1.922860">
        <ele>298.237</ele>
        <time>2013-10-27T08:38:45Z</time>
      </trkpt>
      <trkpt lat="41.323222" lon="1.922737">
        <ele>298.292</ele>
        <time>2013-10-27T08:38:49Z</time>
      </trkpt>
      <trkpt lat="41.323185" lon="1.922675">
        <ele>298.673</ele>
        <time>2013-10-27T08:38:51Z</time>
      </trkpt>
      <trkpt lat="41.323165" lon="1.922645">
        <ele>299.020</ele>
        <time>2013-10-27T08:38:52Z</time>
      </trkpt>
      <trkpt lat="41.323145" lon="1.922618">
        <ele>299.408</ele>
        <time>2013-10-27T08:38:53Z</time>
      </trkpt>
      <trkpt lat="41.323127" lon="1.922590">
        <ele>299.830</ele>
        <time>2013-10-27T08:38:54Z</time>
      </trkpt>
      <trkpt lat="41.323105" lon="1.922560">
        <ele>300.273</ele>
        <time>2013-10-27T08:38:55Z</time>
      </trkpt>
      <trkpt lat="41.323062" lon="1.922502">
        <ele>300.285</ele>
        <time>2013-10-27T08:38:57Z</time>
      </trkpt>
      <trkpt lat="41.322977" lon="1.922348">
        <ele>300.631</ele>
        <time>2013-10-27T08:39:02Z</time>
      </trkpt>
      <trkpt lat="41.322958" lon="1.922318">
        <ele>301.233</ele>
        <time>2013-10-27T08:39:03Z</time>
      </trkpt>
      <trkpt lat="41.322938" lon="1.922285">
        <ele>301.674</ele>
        <time>2013-10-27T08:39:04Z</time>
      </trkpt>
      <trkpt lat="41.322915" lon="1.922255">
        <ele>302.030</ele>
        <time>2013-10-27T08:39:05Z</time>
      </trkpt>
      <trkpt lat="41.322892" lon="1.922227">
        <ele>302.424</ele>
        <time>2013-10-27T08:39:06Z</time>
      </trkpt>
      <trkpt lat="41.322825" lon="1.922103">
        <ele>302.835</ele>
        <time>2013-10-27T08:39:10Z</time>
      </trkpt>
      <trkpt lat="41.322810" lon="1.922068">
        <ele>303.286</ele>
        <time>2013-10-27T08:39:11Z</time>
      </trkpt>
      <trkpt lat="41.322795" lon="1.922040">
        <ele>303.614</ele>
        <time>2013-10-27T08:39:12Z</time>
      </trkpt>
      <trkpt lat="41.322775" lon="1.922017">
        <ele>304.008</ele>
        <time>2013-10-27T08:39:13Z</time>
      </trkpt>
      <trkpt lat="41.322755" lon="1.921990">
        <ele>304.694</ele>
        <time>2013-10-27T08:39:14Z</time>
      </trkpt>
      <trkpt lat="41.322718" lon="1.921942">
        <ele>304.617</ele>
        <time>2013-10-27T08:39:16Z</time>
      </trkpt>
      <trkpt lat="41.322572" lon="1.921840">
        <ele>304.689</ele>
        <time>2013-10-27T08:39:23Z</time>
      </trkpt>
      <trkpt lat="41.322438" lon="1.921787">
        <ele>305.095</ele>
        <time>2013-10-27T08:39:29Z</time>
      </trkpt>
      <trkpt lat="41.322413" lon="1.921778">
        <ele>305.417</ele>
        <time>2013-10-27T08:39:30Z</time>
      </trkpt>
      <trkpt lat="41.322387" lon="1.921773">
        <ele>305.828</ele>
        <time>2013-10-27T08:39:31Z</time>
      </trkpt>
      <trkpt lat="41.322362" lon="1.921762">
        <ele>306.274</ele>
        <time>2013-10-27T08:39:32Z</time>
      </trkpt>
      <trkpt lat="41.322338" lon="1.921755">
        <ele>306.688</ele>
        <time>2013-10-27T08:39:33Z</time>
      </trkpt>
      <trkpt lat="41.322248" lon="1.921717">
        <ele>306.625</ele>
        <time>2013-10-27T08:39:37Z</time>
      </trkpt>
      <trkpt lat="41.322153" lon="1.921680">
        <ele>306.626</ele>
        <time>2013-10-27T08:39:43Z</time>
      </trkpt>
      <trkpt lat="41.322115" lon="1.921670">
        <ele>307.008</ele>
        <time>2013-10-27T08:39:46Z</time>
      </trkpt>
      <trkpt lat="41.322103" lon="1.921668">
        <ele>307.408</ele>
        <time>2013-10-27T08:39:47Z</time>
      </trkpt>
      <trkpt lat="41.322092" lon="1.921667">
        <ele>307.823</ele>
        <time>2013-10-27T08:39:48Z</time>
      </trkpt>
      <trkpt lat="41.322080" lon="1.921670">
        <ele>308.256</ele>
        <time>2013-10-27T08:39:49Z</time>
      </trkpt>
      <trkpt lat="41.322068" lon="1.921673">
        <ele>308.668</ele>
        <time>2013-10-27T08:39:50Z</time>
      </trkpt>
      <trkpt lat="41.322035" lon="1.921668">
        <ele>308.634</ele>
        <time>2013-10-27T08:39:54Z</time>
      </trkpt>
      <trkpt lat="41.322005" lon="1.921663">
        <ele>308.626</ele>
        <time>2013-10-27T08:39:57Z</time>
      </trkpt>
      <trkpt lat="41.321972" lon="1.921668">
        <ele>308.637</ele>
        <time>2013-10-27T08:40:00Z</time>
      </trkpt>
      <trkpt lat="41.321925" lon="1.921658">
        <ele>308.693</ele>
        <time>2013-10-27T08:40:04Z</time>
      </trkpt>
      <trkpt lat="41.321898" lon="1.921658">
        <ele>308.657</ele>
        <time>2013-10-27T08:40:06Z</time>
      </trkpt>
      <trkpt lat="41.321887" lon="1.921672">
        <ele>308.663</ele>
        <time>2013-10-27T08:40:08Z</time>
      </trkpt>
      <trkpt lat="41.321877" lon="1.921675">
        <ele>308.644</ele>
        <time>2013-10-27T08:40:09Z</time>
      </trkpt>
      <trkpt lat="41.321867" lon="1.921677">
        <ele>308.618</ele>
        <time>2013-10-27T08:40:10Z</time>
      </trkpt>
      <trkpt lat="41.321830" lon="1.921670">
        <ele>308.608</ele>
        <time>2013-10-27T08:40:13Z</time>
      </trkpt>
      <trkpt lat="41.321812" lon="1.921663">
        <ele>308.687</ele>
        <time>2013-10-27T08:40:15Z</time>
      </trkpt>
      <trkpt lat="41.321773" lon="1.921667">
        <ele>308.640</ele>
        <time>2013-10-27T08:40:18Z</time>
      </trkpt>
      <trkpt lat="41.321740" lon="1.921673">
        <ele>308.642</ele>
        <time>2013-10-27T08:40:21Z</time>
      </trkpt>
      <trkpt lat="41.321723" lon="1.921670">
        <ele>309.068</ele>
        <time>2013-10-27T08:40:23Z</time>
      </trkpt>
      <trkpt lat="41.321713" lon="1.921668">
        <ele>309.410</ele>
        <time>2013-10-27T08:40:24Z</time>
      </trkpt>
      <trkpt lat="41.321703" lon="1.921665">
        <ele>309.821</ele>
        <time>2013-10-27T08:40:25Z</time>
      </trkpt>
      <trkpt lat="41.321688" lon="1.921665">
        <ele>310.227</ele>
        <time>2013-10-27T08:40:26Z</time>
      </trkpt>
      <trkpt lat="41.321670" lon="1.921665">
        <ele>310.621</ele>
        <time>2013-10-27T08:40:27Z</time>
      </trkpt>
      <trkpt lat="41.321633" lon="1.921665">
        <ele>310.649</ele>
        <time>2013-10-27T08:40:29Z</time>
      </trkpt>
      <trkpt lat="41.321562" lon="1.921657">
        <ele>310.602</ele>
        <time>2013-10-27T08:40:33Z</time>
      </trkpt>
      <trkpt lat="41.321507" lon="1.921658">
        <ele>310.622</ele>
        <time>2013-10-27T08:40:36Z</time>
      </trkpt>
      <trkpt lat="41.321398" lon="1.921662">
        <ele>311.008</ele>
        <time>2013-10-27T08:40:41Z</time>
      </trkpt>
      <trkpt lat="41.321377" lon="1.921660">
        <ele>311.635</ele>
        <time>2013-10-27T08:40:42Z</time>
      </trkpt>
      <trkpt lat="41.321357" lon="1.921662">
        <ele>312.078</ele>
        <time>2013-10-27T08:40:43Z</time>
      </trkpt>
      <trkpt lat="41.321338" lon="1.921665">
        <ele>312.450</ele>
        <time>2013-10-27T08:40:44Z</time>
      </trkpt>
      <trkpt lat="41.321328" lon="1.921665">
        <ele>312.896</ele>
        <time>2013-10-27T08:40:45Z</time>
      </trkpt>
      <trkpt lat="41.321300" lon="1.921670">
        <ele>312.838</ele>
        <time>2013-10-27T08:40:47Z</time>
      </trkpt>
      <trkpt lat="41.321177" lon="1.921663">
        <ele>312.879</ele>
        <time>2013-10-27T08:40:53Z</time>
      </trkpt>
      <trkpt lat="41.321095" lon="1.921662">
        <ele>313.295</ele>
        <time>2013-10-27T08:40:57Z</time>
      </trkpt>
      <trkpt lat="41.321077" lon="1.921663">
        <ele>313.659</ele>
        <time>2013-10-27T08:40:58Z</time>
      </trkpt>
      <trkpt lat="41.321057" lon="1.921665">
        <ele>314.077</ele>
        <time>2013-10-27T08:40:59Z</time>
      </trkpt>
      <trkpt lat="41.321038" lon="1.921667">
        <ele>314.461</ele>
        <time>2013-10-27T08:41:00Z</time>
      </trkpt>
      <trkpt lat="41.321022" lon="1.921667">
        <ele>315.027</ele>
        <time>2013-10-27T08:41:01Z</time>
      </trkpt>
      <trkpt lat="41.320973" lon="1.921673">
        <ele>315.008</ele>
        <time>2013-10-27T08:41:04Z</time>
      </trkpt>
      <trkpt lat="41.320900" lon="1.921670">
        <ele>315.018</ele>
        <time>2013-10-27T08:41:08Z</time>
      </trkpt>
      <trkpt lat="41.320875" lon="1.921668">
        <ele>315.011</ele>
        <time>2013-10-27T08:41:09Z</time>
      </trkpt>
      <trkpt lat="41.320852" lon="1.921668">
        <ele>315.413</ele>
        <time>2013-10-27T08:41:10Z</time>
      </trkpt>
      <trkpt lat="41.320833" lon="1.921672">
        <ele>315.849</ele>
        <time>2013-10-27T08:41:11Z</time>
      </trkpt>
      <trkpt lat="41.320817" lon="1.921673">
        <ele>316.631</ele>
        <time>2013-10-27T08:41:12Z</time>
      </trkpt>
      <trkpt lat="41.320800" lon="1.921677">
        <ele>317.042</ele>
        <time>2013-10-27T08:41:13Z</time>
      </trkpt>
      <trkpt lat="41.320747" lon="1.921685">
        <ele>317.018</ele>
        <time>2013-10-27T08:41:16Z</time>
      </trkpt>
      <trkpt lat="41.320608" lon="1.921700">
        <ele>317.482</ele>
        <time>2013-10-27T08:41:22Z</time>
      </trkpt>
      <trkpt lat="41.320588" lon="1.921700">
        <ele>317.826</ele>
        <time>2013-10-27T08:41:23Z</time>
      </trkpt>
      <trkpt lat="41.320570" lon="1.921700">
        <ele>318.247</ele>
        <time>2013-10-27T08:41:24Z</time>
      </trkpt>
      <trkpt lat="41.320550" lon="1.921702">
        <ele>318.611</ele>
        <time>2013-10-27T08:41:25Z</time>
      </trkpt>
      <trkpt lat="41.320537" lon="1.921703">
        <ele>319.008</ele>
        <time>2013-10-27T08:41:26Z</time>
      </trkpt>
      <trkpt lat="41.320467" lon="1.921713">
        <ele>319.063</ele>
        <time>2013-10-27T08:41:30Z</time>
      </trkpt>
      <trkpt lat="41.320355" lon="1.921710">
        <ele>319.816</ele>
        <time>2013-10-27T08:41:37Z</time>
      </trkpt>
      <trkpt lat="41.320333" lon="1.921718">
        <ele>320.478</ele>
        <time>2013-10-27T08:41:38Z</time>
      </trkpt>
      <trkpt lat="41.320312" lon="1.921732">
        <ele>320.894</ele>
        <time>2013-10-27T08:41:39Z</time>
      </trkpt>
      <trkpt lat="41.320292" lon="1.921748">
        <ele>321.236</ele>
        <time>2013-10-27T08:41:40Z</time>
      </trkpt>
      <trkpt lat="41.320250" lon="1.921788">
        <ele>321.217</ele>
        <time>2013-10-27T08:41:42Z</time>
      </trkpt>
      <trkpt lat="41.320148" lon="1.921907">
        <ele>321.293</ele>
        <time>2013-10-27T08:41:47Z</time>
      </trkpt>
      <trkpt lat="41.320112" lon="1.921955">
        <ele>321.617</ele>
        <time>2013-10-27T08:41:49Z</time>
      </trkpt>
      <trkpt lat="41.320093" lon="1.921975">
        <ele>322.025</ele>
        <time>2013-10-27T08:41:50Z</time>
      </trkpt>
      <trkpt lat="41.320073" lon="1.921997">
        <ele>322.426</ele>
        <time>2013-10-27T08:41:51Z</time>
      </trkpt>
      <trkpt lat="41.320055" lon="1.922017">
        <ele>322.808</ele>
        <time>2013-10-27T08:41:52Z</time>
      </trkpt>
      <trkpt lat="41.320037" lon="1.922038">
        <ele>323.408</ele>
        <time>2013-10-27T08:41:53Z</time>
      </trkpt>
      <trkpt lat="41.319968" lon="1.922103">
        <ele>323.483</ele>
        <time>2013-10-27T08:41:56Z</time>
      </trkpt>
      <trkpt lat="41.319943" lon="1.922123">
        <ele>323.426</ele>
        <time>2013-10-27T08:41:57Z</time>
      </trkpt>
      <trkpt lat="41.319867" lon="1.922168">
        <ele>323.458</ele>
        <time>2013-10-27T08:42:00Z</time>
      </trkpt>
      <trkpt lat="41.319787" lon="1.922200">
        <ele>323.454</ele>
        <time>2013-10-27T08:42:03Z</time>
      </trkpt>
      <trkpt lat="41.319665" lon="1.922237">
        <ele>323.866</ele>
        <time>2013-10-27T08:42:07Z</time>
      </trkpt>
      <trkpt lat="41.319638" lon="1.922250">
        <ele>324.287</ele>
        <time>2013-10-27T08:42:08Z</time>
      </trkpt>
      <trkpt lat="41.319612" lon="1.922267">
        <ele>324.623</ele>
        <time>2013-10-27T08:42:09Z</time>
      </trkpt>
      <trkpt lat="41.319588" lon="1.922277">
        <ele>325.067</ele>
        <time>2013-10-27T08:42:10Z</time>
      </trkpt>
      <trkpt lat="41.319562" lon="1.922288">
        <ele>325.421</ele>
        <time>2013-10-27T08:42:11Z</time>
      </trkpt>
      <trkpt lat="41.319535" lon="1.922293">
        <ele>325.441</ele>
        <time>2013-10-27T08:42:12Z</time>
      </trkpt>
      <trkpt lat="41.319452" lon="1.922307">
        <ele>325.405</ele>
        <time>2013-10-27T08:42:17Z</time>
      </trkpt>
      <trkpt lat="41.319365" lon="1.922330">
        <ele>325.808</ele>
        <time>2013-10-27T08:42:22Z</time>
      </trkpt>
      <trkpt lat="41.319343" lon="1.922337">
        <ele>326.253</ele>
        <time>2013-10-27T08:42:23Z</time>
      </trkpt>
      <trkpt lat="41.319325" lon="1.922338">
        <ele>326.656</ele>
        <time>2013-10-27T08:42:24Z</time>
      </trkpt>
      <trkpt lat="41.319307" lon="1.922345">
        <ele>327.018</ele>
        <time>2013-10-27T08:42:25Z</time>
      </trkpt>
      <trkpt lat="41.319290" lon="1.922352">
        <ele>327.434</ele>
        <time>2013-10-27T08:42:26Z</time>
      </trkpt>
      <trkpt lat="41.319187" lon="1.922372">
        <ele>327.476</ele>
        <time>2013-10-27T08:42:33Z</time>
      </trkpt>
      <trkpt lat="41.319155" lon="1.922377">
        <ele>327.857</ele>
        <time>2013-10-27T08:42:35Z</time>
      </trkpt>
      <trkpt lat="41.319140" lon="1.922380">
        <ele>328.243</ele>
        <time>2013-10-27T08:42:36Z</time>
      </trkpt>
      <trkpt lat="41.319123" lon="1.922380">
        <ele>328.627</ele>
        <time>2013-10-27T08:42:37Z</time>
      </trkpt>
      <trkpt lat="41.319105" lon="1.922383">
        <ele>329.059</ele>
        <time>2013-10-27T08:42:38Z</time>
      </trkpt>
      <trkpt lat="41.319087" lon="1.922390">
        <ele>329.403</ele>
        <time>2013-10-27T08:42:39Z</time>
      </trkpt>
      <trkpt lat="41.319072" lon="1.922397">
        <ele>329.423</ele>
        <time>2013-10-27T08:42:40Z</time>
      </trkpt>
      <trkpt lat="41.318942" lon="1.922423">
        <ele>330.008</ele>
        <time>2013-10-27T08:42:48Z</time>
      </trkpt>
      <trkpt lat="41.318925" lon="1.922423">
        <ele>330.496</ele>
        <time>2013-10-27T08:42:49Z</time>
      </trkpt>
      <trkpt lat="41.318908" lon="1.922427">
        <ele>330.899</ele>
        <time>2013-10-27T08:42:50Z</time>
      </trkpt>
      <trkpt lat="41.318893" lon="1.922430">
        <ele>331.621</ele>
        <time>2013-10-27T08:42:51Z</time>
      </trkpt>
      <trkpt lat="41.318805" lon="1.922450">
        <ele>331.697</ele>
        <time>2013-10-27T08:42:57Z</time>
      </trkpt>
      <trkpt lat="41.318758" lon="1.922463">
        <ele>332.059</ele>
        <time>2013-10-27T08:43:00Z</time>
      </trkpt>
      <trkpt lat="41.318745" lon="1.922473">
        <ele>332.460</ele>
        <time>2013-10-27T08:43:01Z</time>
      </trkpt>
      <trkpt lat="41.318732" lon="1.922480">
        <ele>333.096</ele>
        <time>2013-10-27T08:43:02Z</time>
      </trkpt>
      <trkpt lat="41.318713" lon="1.922482">
        <ele>333.450</ele>
        <time>2013-10-27T08:43:03Z</time>
      </trkpt>
      <trkpt lat="41.318698" lon="1.922483">
        <ele>333.888</ele>
        <time>2013-10-27T08:43:04Z</time>
      </trkpt>
      <trkpt lat="41.318683" lon="1.922483">
        <ele>333.824</ele>
        <time>2013-10-27T08:43:05Z</time>
      </trkpt>
      <trkpt lat="41.318635" lon="1.922493">
        <ele>333.826</ele>
        <time>2013-10-27T08:43:08Z</time>
      </trkpt>
      <trkpt lat="41.318620" lon="1.922502">
        <ele>334.208</ele>
        <time>2013-10-27T08:43:09Z</time>
      </trkpt>
      <trkpt lat="41.318605" lon="1.922508">
        <ele>334.699</ele>
        <time>2013-10-27T08:43:10Z</time>
      </trkpt>
      <trkpt lat="41.318592" lon="1.922513">
        <ele>335.222</ele>
        <time>2013-10-27T08:43:11Z</time>
      </trkpt>
      <trkpt lat="41.318577" lon="1.922520">
        <ele>336.024</ele>
        <time>2013-10-27T08:43:12Z</time>
      </trkpt>
      <trkpt lat="41.318485" lon="1.922547">
        <ele>336.430</ele>
        <time>2013-10-27T08:43:18Z</time>
      </trkpt>
      <trkpt lat="41.318470" lon="1.922555">
        <ele>337.042</ele>
        <time>2013-10-27T08:43:19Z</time>
      </trkpt>
      <trkpt lat="41.318455" lon="1.922563">
        <ele>337.443</ele>
        <time>2013-10-27T08:43:20Z</time>
      </trkpt>
      <trkpt lat="41.318440" lon="1.922570">
        <ele>337.839</ele>
        <time>2013-10-27T08:43:21Z</time>
      </trkpt>
      <trkpt lat="41.318430" lon="1.922578">
        <ele>338.423</ele>
        <time>2013-10-27T08:43:22Z</time>
      </trkpt>
      <trkpt lat="41.318390" lon="1.922627">
        <ele>338.451</ele>
        <time>2013-10-27T08:43:26Z</time>
      </trkpt>
      <trkpt lat="41.318352" lon="1.922658">
        <ele>338.801</ele>
        <time>2013-10-27T08:43:29Z</time>
      </trkpt>
      <trkpt lat="41.318338" lon="1.922668">
        <ele>339.211</ele>
        <time>2013-10-27T08:43:30Z</time>
      </trkpt>
      <trkpt lat="41.318323" lon="1.922680">
        <ele>339.608</ele>
        <time>2013-10-27T08:43:31Z</time>
      </trkpt>
      <trkpt lat="41.318310" lon="1.922690">
        <ele>340.056</ele>
        <time>2013-10-27T08:43:32Z</time>
      </trkpt>
      <trkpt lat="41.318300" lon="1.922700">
        <ele>340.679</ele>
        <time>2013-10-27T08:43:33Z</time>
      </trkpt>
      <trkpt lat="41.318205" lon="1.922783">
        <ele>340.681</ele>
        <time>2013-10-27T08:43:40Z</time>
      </trkpt>
      <trkpt lat="41.318150" lon="1.922832">
        <ele>341.017</ele>
        <time>2013-10-27T08:43:44Z</time>
      </trkpt>
      <trkpt lat="41.318138" lon="1.922840">
        <ele>341.459</ele>
        <time>2013-10-27T08:43:45Z</time>
      </trkpt>
      <trkpt lat="41.318127" lon="1.922848">
        <ele>341.810</ele>
        <time>2013-10-27T08:43:46Z</time>
      </trkpt>
      <trkpt lat="41.318117" lon="1.922855">
        <ele>342.286</ele>
        <time>2013-10-27T08:43:47Z</time>
      </trkpt>
      <trkpt lat="41.318105" lon="1.922863">
        <ele>342.690</ele>
        <time>2013-10-27T08:43:48Z</time>
      </trkpt>
      <trkpt lat="41.318078" lon="1.922877">
        <ele>342.698</ele>
        <time>2013-10-27T08:43:50Z</time>
      </trkpt>
      <trkpt lat="41.318052" lon="1.922912">
        <ele>343.015</ele>
        <time>2013-10-27T08:43:53Z</time>
      </trkpt>
      <trkpt lat="41.318042" lon="1.922922">
        <ele>343.426</ele>
        <time>2013-10-27T08:43:54Z</time>
      </trkpt>
      <trkpt lat="41.318030" lon="1.922932">
        <ele>343.808</ele>
        <time>2013-10-27T08:43:55Z</time>
      </trkpt>
      <trkpt lat="41.318018" lon="1.922943">
        <ele>344.480</ele>
        <time>2013-10-27T08:43:56Z</time>
      </trkpt>
      <trkpt lat="41.318005" lon="1.922953">
        <ele>344.833</ele>
        <time>2013-10-27T08:43:57Z</time>
      </trkpt>
      <trkpt lat="41.317997" lon="1.922963">
        <ele>344.855</ele>
        <time>2013-10-27T08:43:58Z</time>
      </trkpt>
      <trkpt lat="41.317965" lon="1.922993">
        <ele>344.861</ele>
        <time>2013-10-27T08:44:01Z</time>
      </trkpt>
      <trkpt lat="41.317895" lon="1.923077">
        <ele>344.873</ele>
        <time>2013-10-27T08:44:08Z</time>
      </trkpt>
      <trkpt lat="41.317867" lon="1.923090">
        <ele>344.894</ele>
        <time>2013-10-27T08:44:10Z</time>
      </trkpt>
      <trkpt lat="41.317840" lon="1.923113">
        <ele>345.290</ele>
        <time>2013-10-27T08:44:12Z</time>
      </trkpt>
      <trkpt lat="41.317827" lon="1.923132">
        <ele>345.684</ele>
        <time>2013-10-27T08:44:13Z</time>
      </trkpt>
      <trkpt lat="41.317812" lon="1.923150">
        <ele>346.074</ele>
        <time>2013-10-27T08:44:14Z</time>
      </trkpt>
      <trkpt lat="41.317790" lon="1.923160">
        <ele>346.456</ele>
        <time>2013-10-27T08:44:15Z</time>
      </trkpt>
      <trkpt lat="41.317767" lon="1.923162">
        <ele>346.821</ele>
        <time>2013-10-27T08:44:16Z</time>
      </trkpt>
      <trkpt lat="41.317728" lon="1.923158">
        <ele>346.808</ele>
        <time>2013-10-27T08:44:18Z</time>
      </trkpt>
      <trkpt lat="41.317647" lon="1.923133">
        <ele>346.888</ele>
        <time>2013-10-27T08:44:23Z</time>
      </trkpt>
      <trkpt lat="41.317582" lon="1.923103">
        <ele>347.461</ele>
        <time>2013-10-27T08:44:27Z</time>
      </trkpt>
      <trkpt lat="41.317580" lon="1.923092">
        <ele>347.833</ele>
        <time>2013-10-27T08:44:28Z</time>
      </trkpt>
      <trkpt lat="41.317573" lon="1.923080">
        <ele>348.229</ele>
        <time>2013-10-27T08:44:29Z</time>
      </trkpt>
      <trkpt lat="41.317567" lon="1.923073">
        <ele>349.031</ele>
        <time>2013-10-27T08:44:30Z</time>
      </trkpt>
      <trkpt lat="41.317557" lon="1.923067">
        <ele>349.052</ele>
        <time>2013-10-27T08:44:31Z</time>
      </trkpt>
      <trkpt lat="41.317502" lon="1.923050">
        <ele>349.058</ele>
        <time>2013-10-27T08:44:34Z</time>
      </trkpt>
      <trkpt lat="41.317482" lon="1.923042">
        <ele>349.432</ele>
        <time>2013-10-27T08:44:35Z</time>
      </trkpt>
      <trkpt lat="41.317462" lon="1.923040">
        <ele>349.866</ele>
        <time>2013-10-27T08:44:36Z</time>
      </trkpt>
      <trkpt lat="41.317443" lon="1.923037">
        <ele>350.429</ele>
        <time>2013-10-27T08:44:37Z</time>
      </trkpt>
      <trkpt lat="41.317425" lon="1.923037">
        <ele>350.821</ele>
        <time>2013-10-27T08:44:38Z</time>
      </trkpt>
      <trkpt lat="41.317405" lon="1.923038">
        <ele>351.208</ele>
        <time>2013-10-27T08:44:39Z</time>
      </trkpt>
      <trkpt lat="41.317308" lon="1.923053">
        <ele>351.237</ele>
        <time>2013-10-27T08:44:44Z</time>
      </trkpt>
      <trkpt lat="41.317288" lon="1.923058">
        <ele>351.210</ele>
        <time>2013-10-27T08:44:45Z</time>
      </trkpt>
      <trkpt lat="41.317265" lon="1.923068">
        <ele>351.662</ele>
        <time>2013-10-27T08:44:47Z</time>
      </trkpt>
      <trkpt lat="41.317258" lon="1.923072">
        <ele>352.068</ele>
        <time>2013-10-27T08:44:48Z</time>
      </trkpt>
      <trkpt lat="41.317242" lon="1.923075">
        <ele>352.420</ele>
        <time>2013-10-27T08:44:49Z</time>
      </trkpt>
      <trkpt lat="41.317225" lon="1.923075">
        <ele>352.821</ele>
        <time>2013-10-27T08:44:50Z</time>
      </trkpt>
      <trkpt lat="41.317200" lon="1.923077">
        <ele>353.277</ele>
        <time>2013-10-27T08:44:51Z</time>
      </trkpt>
      <trkpt lat="41.317105" lon="1.923098">
        <ele>353.681</ele>
        <time>2013-10-27T08:44:55Z</time>
      </trkpt>
      <trkpt lat="41.317087" lon="1.923103">
        <ele>354.041</ele>
        <time>2013-10-27T08:44:56Z</time>
      </trkpt>
      <trkpt lat="41.317073" lon="1.923108">
        <ele>354.481</ele>
        <time>2013-10-27T08:44:57Z</time>
      </trkpt>
      <trkpt lat="41.317067" lon="1.923113">
        <ele>355.009</ele>
        <time>2013-10-27T08:44:58Z</time>
      </trkpt>
      <trkpt lat="41.317055" lon="1.923117">
        <ele>355.408</ele>
        <time>2013-10-27T08:45:00Z</time>
      </trkpt>
      <trkpt lat="41.317042" lon="1.923122">
        <ele>355.445</ele>
        <time>2013-10-27T08:45:00Z</time>
      </trkpt>
      <trkpt lat="41.316902" lon="1.923173">
        <ele>355.478</ele>
        <time>2013-10-27T08:45:08Z</time>
      </trkpt>
      <trkpt lat="41.316767" lon="1.923225">
        <ele>355.450</ele>
        <time>2013-10-27T08:45:17Z</time>
      </trkpt>
      <trkpt lat="41.316732" lon="1.923243">
        <ele>356.286</ele>
        <time>2013-10-27T08:45:20Z</time>
      </trkpt>
      <trkpt lat="41.316713" lon="1.923250">
        <ele>356.648</ele>
        <time>2013-10-27T08:45:21Z</time>
      </trkpt>
      <trkpt lat="41.316700" lon="1.923262">
        <ele>357.019</ele>
        <time>2013-10-27T08:45:22Z</time>
      </trkpt>
      <trkpt lat="41.316683" lon="1.923272">
        <ele>357.425</ele>
        <time>2013-10-27T08:45:23Z</time>
      </trkpt>
      <trkpt lat="41.316562" lon="1.923307">
        <ele>357.499</ele>
        <time>2013-10-27T08:45:28Z</time>
      </trkpt>
      <trkpt lat="41.316538" lon="1.923317">
        <ele>357.464</ele>
        <time>2013-10-27T08:45:29Z</time>
      </trkpt>
      <trkpt lat="41.316345" lon="1.923318">
        <ele>357.406</ele>
        <time>2013-10-27T08:45:36Z</time>
      </trkpt>
      <trkpt lat="41.316295" lon="1.923300">
        <ele>357.816</ele>
        <time>2013-10-27T08:45:38Z</time>
      </trkpt>
      <trkpt lat="41.316277" lon="1.923288">
        <ele>358.208</ele>
        <time>2013-10-27T08:45:39Z</time>
      </trkpt>
      <trkpt lat="41.316260" lon="1.923278">
        <ele>358.677</ele>
        <time>2013-10-27T08:45:40Z</time>
      </trkpt>
      <trkpt lat="41.316252" lon="1.923272">
        <ele>359.090</ele>
        <time>2013-10-27T08:45:41Z</time>
      </trkpt>
      <trkpt lat="41.316242" lon="1.923263">
        <ele>359.452</ele>
        <time>2013-10-27T08:45:42Z</time>
      </trkpt>
      <trkpt lat="41.316227" lon="1.923253">
        <ele>359.448</ele>
        <time>2013-10-27T08:45:43Z</time>
      </trkpt>
      <trkpt lat="41.316183" lon="1.923223">
        <ele>359.440</ele>
        <time>2013-10-27T08:45:46Z</time>
      </trkpt>
      <trkpt lat="41.316163" lon="1.923127">
        <ele>359.851</ele>
        <time>2013-10-27T08:45:52Z</time>
      </trkpt>
      <trkpt lat="41.316155" lon="1.923108">
        <ele>360.487</ele>
        <time>2013-10-27T08:45:53Z</time>
      </trkpt>
      <trkpt lat="41.316147" lon="1.923093">
        <ele>360.821</ele>
        <time>2013-10-27T08:45:54Z</time>
      </trkpt>
      <trkpt lat="41.316135" lon="1.923080">
        <ele>361.282</ele>
        <time>2013-10-27T08:45:55Z</time>
      </trkpt>
      <trkpt lat="41.316125" lon="1.923063">
        <ele>361.643</ele>
        <time>2013-10-27T08:45:56Z</time>
      </trkpt>
      <trkpt lat="41.316107" lon="1.923025">
        <ele>361.617</ele>
        <time>2013-10-27T08:46:00Z</time>
      </trkpt>
      <trkpt lat="41.316077" lon="1.922967">
        <ele>362.008</ele>
        <time>2013-10-27T08:46:03Z</time>
      </trkpt>
      <trkpt lat="41.316068" lon="1.922948">
        <ele>362.849</ele>
        <time>2013-10-27T08:46:04Z</time>
      </trkpt>
      <trkpt lat="41.316060" lon="1.922932">
        <ele>363.262</ele>
        <time>2013-10-27T08:46:05Z</time>
      </trkpt>
      <trkpt lat="41.316052" lon="1.922913">
        <ele>363.624</ele>
        <time>2013-10-27T08:46:06Z</time>
      </trkpt>
      <trkpt lat="41.316033" lon="1.922882">
        <ele>363.690</ele>
        <time>2013-10-27T08:46:08Z</time>
      </trkpt>
      <trkpt lat="41.316018" lon="1.922865">
        <ele>363.612</ele>
        <time>2013-10-27T08:46:10Z</time>
      </trkpt>
      <trkpt lat="41.315993" lon="1.922825">
        <ele>364.063</ele>
        <time>2013-10-27T08:46:13Z</time>
      </trkpt>
      <trkpt lat="41.315985" lon="1.922812">
        <ele>364.429</ele>
        <time>2013-10-27T08:46:14Z</time>
      </trkpt>
      <trkpt lat="41.315978" lon="1.922803">
        <ele>365.093</ele>
        <time>2013-10-27T08:46:15Z</time>
      </trkpt>
      <trkpt lat="41.315973" lon="1.922793">
        <ele>365.412</ele>
        <time>2013-10-27T08:46:16Z</time>
      </trkpt>
      <trkpt lat="41.315965" lon="1.922783">
        <ele>365.832</ele>
        <time>2013-10-27T08:46:17Z</time>
      </trkpt>
      <trkpt lat="41.315963" lon="1.922768">
        <ele>365.805</ele>
        <time>2013-10-27T08:46:18Z</time>
      </trkpt>
      <trkpt lat="41.315943" lon="1.922713">
        <ele>365.808</ele>
        <time>2013-10-27T08:46:22Z</time>
      </trkpt>
      <trkpt lat="41.315915" lon="1.922642">
        <ele>366.272</ele>
        <time>2013-10-27T08:46:26Z</time>
      </trkpt>
      <trkpt lat="41.315910" lon="1.922617">
        <ele>366.645</ele>
        <time>2013-10-27T08:46:27Z</time>
      </trkpt>
      <trkpt lat="41.315905" lon="1.922593">
        <ele>367.017</ele>
        <time>2013-10-27T08:46:28Z</time>
      </trkpt>
      <trkpt lat="41.315898" lon="1.922568">
        <ele>367.823</ele>
        <time>2013-10-27T08:46:29Z</time>
      </trkpt>
      <trkpt lat="41.315897" lon="1.922445">
        <ele>368.235</ele>
        <time>2013-10-27T08:46:35Z</time>
      </trkpt>
      <trkpt lat="41.315897" lon="1.922422">
        <ele>368.676</ele>
        <time>2013-10-27T08:46:36Z</time>
      </trkpt>
      <trkpt lat="41.315902" lon="1.922402">
        <ele>369.042</ele>
        <time>2013-10-27T08:46:37Z</time>
      </trkpt>
      <trkpt lat="41.315905" lon="1.922380">
        <ele>369.416</ele>
        <time>2013-10-27T08:46:38Z</time>
      </trkpt>
      <trkpt lat="41.315907" lon="1.922362">
        <ele>369.849</ele>
        <time>2013-10-27T08:46:39Z</time>
      </trkpt>
      <trkpt lat="41.315913" lon="1.922328">
        <ele>369.802</ele>
        <time>2013-10-27T08:46:41Z</time>
      </trkpt>
      <trkpt lat="41.315940" lon="1.922245">
        <ele>370.422</ele>
        <time>2013-10-27T08:46:45Z</time>
      </trkpt>
      <trkpt lat="41.315952" lon="1.922227">
        <ele>370.808</ele>
        <time>2013-10-27T08:46:46Z</time>
      </trkpt>
      <trkpt lat="41.315962" lon="1.922212">
        <ele>371.235</ele>
        <time>2013-10-27T08:46:47Z</time>
      </trkpt>
      <trkpt lat="41.315973" lon="1.922197">
        <ele>371.658</ele>
        <time>2013-10-27T08:46:48Z</time>
      </trkpt>
      <trkpt lat="41.315985" lon="1.922182">
        <ele>372.090</ele>
        <time>2013-10-27T08:46:49Z</time>
      </trkpt>
      <trkpt lat="41.316032" lon="1.922065">
        <ele>372.026</ele>
        <time>2013-10-27T08:46:55Z</time>
      </trkpt>
      <trkpt lat="41.316038" lon="1.922025">
        <ele>372.688</ele>
        <time>2013-10-27T08:46:57Z</time>
      </trkpt>
      <trkpt lat="41.316042" lon="1.922007">
        <ele>373.079</ele>
        <time>2013-10-27T08:46:58Z</time>
      </trkpt>
      <trkpt lat="41.316042" lon="1.921990">
        <ele>373.485</ele>
        <time>2013-10-27T08:47:00Z</time>
      </trkpt>
      <trkpt lat="41.316043" lon="1.921977">
        <ele>373.819</ele>
        <time>2013-10-27T08:47:00Z</time>
      </trkpt>
      <trkpt lat="41.316038" lon="1.921960">
        <ele>374.277</ele>
        <time>2013-10-27T08:47:01Z</time>
      </trkpt>
      <trkpt lat="41.316038" lon="1.921942">
        <ele>374.261</ele>
        <time>2013-10-27T08:47:02Z</time>
      </trkpt>
      <trkpt lat="41.316063" lon="1.921865">
        <ele>374.627</ele>
        <time>2013-10-27T08:47:06Z</time>
      </trkpt>
      <trkpt lat="41.316068" lon="1.921847">
        <ele>375.008</ele>
        <time>2013-10-27T08:47:07Z</time>
      </trkpt>
      <trkpt lat="41.316072" lon="1.921828">
        <ele>375.428</ele>
        <time>2013-10-27T08:47:08Z</time>
      </trkpt>
      <trkpt lat="41.316075" lon="1.921807">
        <ele>375.811</ele>
        <time>2013-10-27T08:47:09Z</time>
      </trkpt>
      <trkpt lat="41.316078" lon="1.921788">
        <ele>376.253</ele>
        <time>2013-10-27T08:47:10Z</time>
      </trkpt>
      <trkpt lat="41.316097" lon="1.921693">
        <ele>376.229</ele>
        <time>2013-10-27T08:47:15Z</time>
      </trkpt>
      <trkpt lat="41.316098" lon="1.921678">
        <ele>376.261</ele>
        <time>2013-10-27T08:47:16Z</time>
      </trkpt>
      <trkpt lat="41.316113" lon="1.921580">
        <ele>376.642</ele>
        <time>2013-10-27T08:47:22Z</time>
      </trkpt>
      <trkpt lat="41.316110" lon="1.921563">
        <ele>377.058</ele>
        <time>2013-10-27T08:47:23Z</time>
      </trkpt>
      <trkpt lat="41.316107" lon="1.921538">
        <ele>377.452</ele>
        <time>2013-10-27T08:47:24Z</time>
      </trkpt>
      <trkpt lat="41.316112" lon="1.921517">
        <ele>377.856</ele>
        <time>2013-10-27T08:47:25Z</time>
      </trkpt>
      <trkpt lat="41.316117" lon="1.921498">
        <ele>378.259</ele>
        <time>2013-10-27T08:47:26Z</time>
      </trkpt>
      <trkpt lat="41.316113" lon="1.921455">
        <ele>378.214</ele>
        <time>2013-10-27T08:47:28Z</time>
      </trkpt>
      <trkpt lat="41.316123" lon="1.921387">
        <ele>378.208</ele>
        <time>2013-10-27T08:47:31Z</time>
      </trkpt>
      <trkpt lat="41.316128" lon="1.921330">
        <ele>378.286</ele>
        <time>2013-10-27T08:47:34Z</time>
      </trkpt>
      <trkpt lat="41.316125" lon="1.921283">
        <ele>378.289</ele>
        <time>2013-10-27T08:47:37Z</time>
      </trkpt>
      <trkpt lat="41.316135" lon="1.921232">
        <ele>378.261</ele>
        <time>2013-10-27T08:47:40Z</time>
      </trkpt>
      <trkpt lat="41.316138" lon="1.921215">
        <ele>378.267</ele>
        <time>2013-10-27T08:47:41Z</time>
      </trkpt>
      <trkpt lat="41.316140" lon="1.921185">
        <ele>378.239</ele>
        <time>2013-10-27T08:47:43Z</time>
      </trkpt>
      <trkpt lat="41.316152" lon="1.921158">
        <ele>378.250</ele>
        <time>2013-10-27T08:47:45Z</time>
      </trkpt>
      <trkpt lat="41.316153" lon="1.921128">
        <ele>378.246</ele>
        <time>2013-10-27T08:47:47Z</time>
      </trkpt>
      <trkpt lat="41.316152" lon="1.921112">
        <ele>378.260</ele>
        <time>2013-10-27T08:47:48Z</time>
      </trkpt>
      <trkpt lat="41.316153" lon="1.921092">
        <ele>378.233</ele>
        <time>2013-10-27T08:47:49Z</time>
      </trkpt>
      <trkpt lat="41.316168" lon="1.921002">
        <ele>378.223</ele>
        <time>2013-10-27T08:47:53Z</time>
      </trkpt>
      <trkpt lat="41.316177" lon="1.920948">
        <ele>378.215</ele>
        <time>2013-10-27T08:47:55Z</time>
      </trkpt>
      <trkpt lat="41.316187" lon="1.920922">
        <ele>378.208</ele>
        <time>2013-10-27T08:47:56Z</time>
      </trkpt>
      <trkpt lat="41.316202" lon="1.920855">
        <ele>378.264</ele>
        <time>2013-10-27T08:47:58Z</time>
      </trkpt>
      <trkpt lat="41.316220" lon="1.920770">
        <ele>378.247</ele>
        <time>2013-10-27T08:48:00Z</time>
      </trkpt>
      <trkpt lat="41.316235" lon="1.920725">
        <ele>378.239</ele>
        <time>2013-10-27T08:48:01Z</time>
      </trkpt>
      <trkpt lat="41.316283" lon="1.920635">
        <ele>378.215</ele>
        <time>2013-10-27T08:48:03Z</time>
      </trkpt>
      <trkpt lat="41.316358" lon="1.920530">
        <ele>378.287</ele>
        <time>2013-10-27T08:48:05Z</time>
      </trkpt>
      <trkpt lat="41.316460" lon="1.920412">
        <ele>378.268</ele>
        <time>2013-10-27T08:48:07Z</time>
      </trkpt>
      <trkpt lat="41.316518" lon="1.920347">
        <ele>378.234</ele>
        <time>2013-10-27T08:48:08Z</time>
      </trkpt>
      <trkpt lat="41.316573" lon="1.920273">
        <ele>378.228</ele>
        <time>2013-10-27T08:48:09Z</time>
      </trkpt>
      <trkpt lat="41.316630" lon="1.920200">
        <ele>377.865</ele>
        <time>2013-10-27T08:48:10Z</time>
      </trkpt>
      <trkpt lat="41.316693" lon="1.920123">
        <ele>377.268</ele>
        <time>2013-10-27T08:48:11Z</time>
      </trkpt>
      <trkpt lat="41.316753" lon="1.920043">
        <ele>376.814</ele>
        <time>2013-10-27T08:48:12Z</time>
      </trkpt>
      <trkpt lat="41.316813" lon="1.919960">
        <ele>376.208</ele>
        <time>2013-10-27T08:48:13Z</time>
      </trkpt>
      <trkpt lat="41.316877" lon="1.919867">
        <ele>375.827</ele>
        <time>2013-10-27T08:48:14Z</time>
      </trkpt>
      <trkpt lat="41.316943" lon="1.919777">
        <ele>375.440</ele>
        <time>2013-10-27T08:48:15Z</time>
      </trkpt>
      <trkpt lat="41.317008" lon="1.919683">
        <ele>374.832</ele>
        <time>2013-10-27T08:48:16Z</time>
      </trkpt>
      <trkpt lat="41.317078" lon="1.919588">
        <ele>374.418</ele>
        <time>2013-10-27T08:48:17Z</time>
      </trkpt>
      <trkpt lat="41.317155" lon="1.919495">
        <ele>373.880</ele>
        <time>2013-10-27T08:48:18Z</time>
      </trkpt>
      <trkpt lat="41.317232" lon="1.919402">
        <ele>373.241</ele>
        <time>2013-10-27T08:48:19Z</time>
      </trkpt>
      <trkpt lat="41.317313" lon="1.919320">
        <ele>372.417</ele>
        <time>2013-10-27T08:48:20Z</time>
      </trkpt>
      <trkpt lat="41.317398" lon="1.919233">
        <ele>371.871</ele>
        <time>2013-10-27T08:48:21Z</time>
      </trkpt>
      <trkpt lat="41.317490" lon="1.919145">
        <ele>371.058</ele>
        <time>2013-10-27T08:48:22Z</time>
      </trkpt>
      <trkpt lat="41.317575" lon="1.919057">
        <ele>370.452</ele>
        <time>2013-10-27T08:48:23Z</time>
      </trkpt>
      <trkpt lat="41.317650" lon="1.918953">
        <ele>369.617</ele>
        <time>2013-10-27T08:48:24Z</time>
      </trkpt>
      <trkpt lat="41.317717" lon="1.918838">
        <ele>367.608</ele>
        <time>2013-10-27T08:48:25Z</time>
      </trkpt>
      <trkpt lat="41.317762" lon="1.918705">
        <ele>366.856</ele>
        <time>2013-10-27T08:48:26Z</time>
      </trkpt>
      <trkpt lat="41.317788" lon="1.918567">
        <ele>365.849</ele>
        <time>2013-10-27T08:48:27Z</time>
      </trkpt>
      <trkpt lat="41.317812" lon="1.918427">
        <ele>365.071</ele>
        <time>2013-10-27T08:48:28Z</time>
      </trkpt>
      <trkpt lat="41.317825" lon="1.918288">
        <ele>364.277</ele>
        <time>2013-10-27T08:48:29Z</time>
      </trkpt>
      <trkpt lat="41.317838" lon="1.918137">
        <ele>363.439</ele>
        <time>2013-10-27T08:48:30Z</time>
      </trkpt>
      <trkpt lat="41.317855" lon="1.917987">
        <ele>362.620</ele>
        <time>2013-10-27T08:48:31Z</time>
      </trkpt>
      <trkpt lat="41.317868" lon="1.917833">
        <ele>362.066</ele>
        <time>2013-10-27T08:48:32Z</time>
      </trkpt>
      <trkpt lat="41.317878" lon="1.917673">
        <ele>361.250</ele>
        <time>2013-10-27T08:48:33Z</time>
      </trkpt>
      <trkpt lat="41.317895" lon="1.917512">
        <ele>360.618</ele>
        <time>2013-10-27T08:48:34Z</time>
      </trkpt>
      <trkpt lat="41.317908" lon="1.917347">
        <ele>360.098</ele>
        <time>2013-10-27T08:48:35Z</time>
      </trkpt>
      <trkpt lat="41.317923" lon="1.917175">
        <ele>359.417</ele>
        <time>2013-10-27T08:48:36Z</time>
      </trkpt>
      <trkpt lat="41.317935" lon="1.917010">
        <ele>358.608</ele>
        <time>2013-10-27T08:48:37Z</time>
      </trkpt>
      <trkpt lat="41.317947" lon="1.916842">
        <ele>357.872</ele>
        <time>2013-10-27T08:48:38Z</time>
      </trkpt>
      <trkpt lat="41.317955" lon="1.916665">
        <ele>356.675</ele>
        <time>2013-10-27T08:48:39Z</time>
      </trkpt>
      <trkpt lat="41.317955" lon="1.916488">
        <ele>355.227</ele>
        <time>2013-10-27T08:48:40Z</time>
      </trkpt>
      <trkpt lat="41.317957" lon="1.916312">
        <ele>353.843</ele>
        <time>2013-10-27T08:48:41Z</time>
      </trkpt>
      <trkpt lat="41.317963" lon="1.916135">
        <ele>352.655</ele>
        <time>2013-10-27T08:48:42Z</time>
      </trkpt>
      <trkpt lat="41.317967" lon="1.915957">
        <ele>351.426</ele>
        <time>2013-10-27T08:48:43Z</time>
      </trkpt>
      <trkpt lat="41.317975" lon="1.915780">
        <ele>350.022</ele>
        <time>2013-10-27T08:48:44Z</time>
      </trkpt>
      <trkpt lat="41.317980" lon="1.915593">
        <ele>348.436</ele>
        <time>2013-10-27T08:48:45Z</time>
      </trkpt>
      <trkpt lat="41.317998" lon="1.915415">
        <ele>346.849</ele>
        <time>2013-10-27T08:48:46Z</time>
      </trkpt>
      <trkpt lat="41.318005" lon="1.915232">
        <ele>345.202</ele>
        <time>2013-10-27T08:48:47Z</time>
      </trkpt>
      <trkpt lat="41.318018" lon="1.915012">
        <ele>342.222</ele>
        <time>2013-10-27T08:48:48Z</time>
      </trkpt>
      <trkpt lat="41.318028" lon="1.914840">
        <ele>341.008</ele>
        <time>2013-10-27T08:48:49Z</time>
      </trkpt>
      <trkpt lat="41.318038" lon="1.914667">
        <ele>339.835</ele>
        <time>2013-10-27T08:48:50Z</time>
      </trkpt>
      <trkpt lat="41.318048" lon="1.914488">
        <ele>338.658</ele>
        <time>2013-10-27T08:48:51Z</time>
      </trkpt>
      <trkpt lat="41.318055" lon="1.914322">
        <ele>337.290</ele>
        <time>2013-10-27T08:48:52Z</time>
      </trkpt>
      <trkpt lat="41.318065" lon="1.914160">
        <ele>336.036</ele>
        <time>2013-10-27T08:48:53Z</time>
      </trkpt>
      <trkpt lat="41.318072" lon="1.914000">
        <ele>335.218</ele>
        <time>2013-10-27T08:48:54Z</time>
      </trkpt>
      <trkpt lat="41.318075" lon="1.913840">
        <ele>334.289</ele>
        <time>2013-10-27T08:48:55Z</time>
      </trkpt>
      <trkpt lat="41.318077" lon="1.913678">
        <ele>333.435</ele>
        <time>2013-10-27T08:48:56Z</time>
      </trkpt>
      <trkpt lat="41.318075" lon="1.913522">
        <ele>332.439</ele>
        <time>2013-10-27T08:48:57Z</time>
      </trkpt>
      <trkpt lat="41.318070" lon="1.913365">
        <ele>331.693</ele>
        <time>2013-10-27T08:48:58Z</time>
      </trkpt>
      <trkpt lat="41.318060" lon="1.913208">
        <ele>331.065</ele>
        <time>2013-10-27T08:49:00Z</time>
      </trkpt>
      <trkpt lat="41.318043" lon="1.913055">
        <ele>330.221</ele>
        <time>2013-10-27T08:49:00Z</time>
      </trkpt>
      <trkpt lat="41.318025" lon="1.912902">
        <ele>329.608</ele>
        <time>2013-10-27T08:49:01Z</time>
      </trkpt>
      <trkpt lat="41.318012" lon="1.912748">
        <ele>328.830</ele>
        <time>2013-10-27T08:49:02Z</time>
      </trkpt>
      <trkpt lat="41.317997" lon="1.912600">
        <ele>328.083</ele>
        <time>2013-10-27T08:49:03Z</time>
      </trkpt>
      <trkpt lat="41.317980" lon="1.912457">
        <ele>327.495</ele>
        <time>2013-10-27T08:49:04Z</time>
      </trkpt>
      <trkpt lat="41.317965" lon="1.912315">
        <ele>326.621</ele>
        <time>2013-10-27T08:49:05Z</time>
      </trkpt>
      <trkpt lat="41.317945" lon="1.912188">
        <ele>325.893</ele>
        <time>2013-10-27T08:49:06Z</time>
      </trkpt>
      <trkpt lat="41.317917" lon="1.912073">
        <ele>324.494</ele>
        <time>2013-10-27T08:49:07Z</time>
      </trkpt>
      <trkpt lat="41.317878" lon="1.911972">
        <ele>324.490</ele>
        <time>2013-10-27T08:49:08Z</time>
      </trkpt>
      <trkpt lat="41.317740" lon="1.911770">
        <ele>324.494</ele>
        <time>2013-10-27T08:49:11Z</time>
      </trkpt>
      <trkpt lat="41.317695" lon="1.911728">
        <ele>324.439</ele>
        <time>2013-10-27T08:49:12Z</time>
      </trkpt>
      <trkpt lat="41.317645" lon="1.911695">
        <ele>324.401</ele>
        <time>2013-10-27T08:49:13Z</time>
      </trkpt>
      <trkpt lat="41.317600" lon="1.911672">
        <ele>324.421</ele>
        <time>2013-10-27T08:49:14Z</time>
      </trkpt>
      <trkpt lat="41.317558" lon="1.911655">
        <ele>324.408</ele>
        <time>2013-10-27T08:49:15Z</time>
      </trkpt>
      <trkpt lat="41.317430" lon="1.911607">
        <ele>324.424</ele>
        <time>2013-10-27T08:49:19Z</time>
      </trkpt>
      <trkpt lat="41.317402" lon="1.911598">
        <ele>324.437</ele>
        <time>2013-10-27T08:49:20Z</time>
      </trkpt>
      <trkpt lat="41.317293" lon="1.911550">
        <ele>324.439</ele>
        <time>2013-10-27T08:49:24Z</time>
      </trkpt>
      <trkpt lat="41.317242" lon="1.911520">
        <ele>324.465</ele>
        <time>2013-10-27T08:49:26Z</time>
      </trkpt>
      <trkpt lat="41.317187" lon="1.911487">
        <ele>324.417</ele>
        <time>2013-10-27T08:49:28Z</time>
      </trkpt>
      <trkpt lat="41.317138" lon="1.911455">
        <ele>324.828</ele>
        <time>2013-10-27T08:49:30Z</time>
      </trkpt>
      <trkpt lat="41.317115" lon="1.911442">
        <ele>325.224</ele>
        <time>2013-10-27T08:49:31Z</time>
      </trkpt>
      <trkpt lat="41.317092" lon="1.911425">
        <ele>326.258</ele>
        <time>2013-10-27T08:49:32Z</time>
      </trkpt>
      <trkpt lat="41.317068" lon="1.911407">
        <ele>326.859</ele>
        <time>2013-10-27T08:49:33Z</time>
      </trkpt>
      <trkpt lat="41.317020" lon="1.911373">
        <ele>326.803</ele>
        <time>2013-10-27T08:49:35Z</time>
      </trkpt>
      <trkpt lat="41.316995" lon="1.911353">
        <ele>327.223</ele>
        <time>2013-10-27T08:49:36Z</time>
      </trkpt>
      <trkpt lat="41.316973" lon="1.911337">
        <ele>327.608</ele>
        <time>2013-10-27T08:49:37Z</time>
      </trkpt>
      <trkpt lat="41.316950" lon="1.911318">
        <ele>328.036</ele>
        <time>2013-10-27T08:49:38Z</time>
      </trkpt>
      <trkpt lat="41.316927" lon="1.911300">
        <ele>328.479</ele>
        <time>2013-10-27T08:49:39Z</time>
      </trkpt>
      <trkpt lat="41.316907" lon="1.911285">
        <ele>328.811</ele>
        <time>2013-10-27T08:49:40Z</time>
      </trkpt>
      <trkpt lat="41.316863" lon="1.911252">
        <ele>328.887</ele>
        <time>2013-10-27T08:49:42Z</time>
      </trkpt>
      <trkpt lat="41.316822" lon="1.911218">
        <ele>329.299</ele>
        <time>2013-10-27T08:49:44Z</time>
      </trkpt>
      <trkpt lat="41.316807" lon="1.911200">
        <ele>329.670</ele>
        <time>2013-10-27T08:49:45Z</time>
      </trkpt>
      <trkpt lat="41.316792" lon="1.911180">
        <ele>330.026</ele>
        <time>2013-10-27T08:49:46Z</time>
      </trkpt>
      <trkpt lat="41.316777" lon="1.911162">
        <ele>330.470</ele>
        <time>2013-10-27T08:49:47Z</time>
      </trkpt>
      <trkpt lat="41.316762" lon="1.911142">
        <ele>330.843</ele>
        <time>2013-10-27T08:49:48Z</time>
      </trkpt>
      <trkpt lat="41.316705" lon="1.911068">
        <ele>330.864</ele>
        <time>2013-10-27T08:49:52Z</time>
      </trkpt>
      <trkpt lat="41.316692" lon="1.911047">
        <ele>330.810</ele>
        <time>2013-10-27T08:49:53Z</time>
      </trkpt>
      <trkpt lat="41.316590" lon="1.910883">
        <ele>330.808</ele>
        <time>2013-10-27T08:50:00Z</time>
      </trkpt>
      <trkpt lat="41.316527" lon="1.910688">
        <ele>330.895</ele>
        <time>2013-10-27T08:50:04Z</time>
      </trkpt>
      <trkpt lat="41.316520" lon="1.910642">
        <ele>330.828</ele>
        <time>2013-10-27T08:50:05Z</time>
      </trkpt>
      <trkpt lat="41.316503" lon="1.910427">
        <ele>330.890</ele>
        <time>2013-10-27T08:50:10Z</time>
      </trkpt>
      <trkpt lat="41.316497" lon="1.910390">
        <ele>330.866</ele>
        <time>2013-10-27T08:50:11Z</time>
      </trkpt>
      <trkpt lat="41.316502" lon="1.910230">
        <ele>331.438</ele>
        <time>2013-10-27T08:50:15Z</time>
      </trkpt>
      <trkpt lat="41.316510" lon="1.910183">
        <ele>331.849</ele>
        <time>2013-10-27T08:50:16Z</time>
      </trkpt>
      <trkpt lat="41.316523" lon="1.910142">
        <ele>332.225</ele>
        <time>2013-10-27T08:50:17Z</time>
      </trkpt>
      <trkpt lat="41.316535" lon="1.910102">
        <ele>332.689</ele>
        <time>2013-10-27T08:50:18Z</time>
      </trkpt>
      <trkpt lat="41.316550" lon="1.910062">
        <ele>333.011</ele>
        <time>2013-10-27T08:50:19Z</time>
      </trkpt>
      <trkpt lat="41.316573" lon="1.909977">
        <ele>333.821</ele>
        <time>2013-10-27T08:50:21Z</time>
      </trkpt>
      <trkpt lat="41.316587" lon="1.909937">
        <ele>334.403</ele>
        <time>2013-10-27T08:50:22Z</time>
      </trkpt>
      <trkpt lat="41.316600" lon="1.909898">
        <ele>334.808</ele>
        <time>2013-10-27T08:50:23Z</time>
      </trkpt>
      <trkpt lat="41.316615" lon="1.909860">
        <ele>335.212</ele>
        <time>2013-10-27T08:50:24Z</time>
      </trkpt>
      <trkpt lat="41.316625" lon="1.909823">
        <ele>335.225</ele>
        <time>2013-10-27T08:50:25Z</time>
      </trkpt>
      <trkpt lat="41.316660" lon="1.909710">
        <ele>335.697</ele>
        <time>2013-10-27T08:50:28Z</time>
      </trkpt>
      <trkpt lat="41.316672" lon="1.909673">
        <ele>336.233</ele>
        <time>2013-10-27T08:50:29Z</time>
      </trkpt>
      <trkpt lat="41.316678" lon="1.909640">
        <ele>336.675</ele>
        <time>2013-10-27T08:50:30Z</time>
      </trkpt>
      <trkpt lat="41.316685" lon="1.909605">
        <ele>337.036</ele>
        <time>2013-10-27T08:50:31Z</time>
      </trkpt>
      <trkpt lat="41.316693" lon="1.909570">
        <ele>337.442</ele>
        <time>2013-10-27T08:50:32Z</time>
      </trkpt>
      <trkpt lat="41.316760" lon="1.909352">
        <ele>337.866</ele>
        <time>2013-10-27T08:50:38Z</time>
      </trkpt>
      <trkpt lat="41.316772" lon="1.909315">
        <ele>338.253</ele>
        <time>2013-10-27T08:50:39Z</time>
      </trkpt>
      <trkpt lat="41.316780" lon="1.909278">
        <ele>338.604</ele>
        <time>2013-10-27T08:50:40Z</time>
      </trkpt>
      <trkpt lat="41.316788" lon="1.909245">
        <ele>339.214</ele>
        <time>2013-10-27T08:50:41Z</time>
      </trkpt>
      <trkpt lat="41.316798" lon="1.909212">
        <ele>339.608</ele>
        <time>2013-10-27T08:50:42Z</time>
      </trkpt>
      <trkpt lat="41.316822" lon="1.909115">
        <ele>339.686</ele>
        <time>2013-10-27T08:50:45Z</time>
      </trkpt>
      <trkpt lat="41.316832" lon="1.909023">
        <ele>340.019</ele>
        <time>2013-10-27T08:50:48Z</time>
      </trkpt>
      <trkpt lat="41.316838" lon="1.908993">
        <ele>340.481</ele>
        <time>2013-10-27T08:50:49Z</time>
      </trkpt>
      <trkpt lat="41.316842" lon="1.908963">
        <ele>340.877</ele>
        <time>2013-10-27T08:50:50Z</time>
      </trkpt>
      <trkpt lat="41.316843" lon="1.908930">
        <ele>341.499</ele>
        <time>2013-10-27T08:50:51Z</time>
      </trkpt>
      <trkpt lat="41.316845" lon="1.908900">
        <ele>341.880</ele>
        <time>2013-10-27T08:50:52Z</time>
      </trkpt>
      <trkpt lat="41.316868" lon="1.908722">
        <ele>341.826</ele>
        <time>2013-10-27T08:51:00Z</time>
      </trkpt>
      <trkpt lat="41.316872" lon="1.908702">
        <ele>341.810</ele>
        <time>2013-10-27T08:51:00Z</time>
      </trkpt>
      <trkpt lat="41.316857" lon="1.908670">
        <ele>341.845</ele>
        <time>2013-10-27T08:51:03Z</time>
      </trkpt>
      <trkpt lat="41.316853" lon="1.908668">
        <ele>341.847</ele>
        <time>2013-10-27T08:51:04Z</time>
      </trkpt>
      <trkpt lat="41.316832" lon="1.908628">
        <ele>341.811</ele>
        <time>2013-10-27T08:53:29Z</time>
      </trkpt>
      <trkpt lat="41.316827" lon="1.908608">
        <ele>341.808</ele>
        <time>2013-10-27T08:53:30Z</time>
      </trkpt>
      <trkpt lat="41.316823" lon="1.908588">
        <ele>341.865</ele>
        <time>2013-10-27T08:53:31Z</time>
      </trkpt>
      <trkpt lat="41.316837" lon="1.908545">
        <ele>341.838</ele>
        <time>2013-10-27T08:53:34Z</time>
      </trkpt>
      <trkpt lat="41.316832" lon="1.908522">
        <ele>341.860</ele>
        <time>2013-10-27T08:53:51Z</time>
      </trkpt>
      <trkpt lat="41.316832" lon="1.908503">
        <ele>341.886</ele>
        <time>2013-10-27T08:53:52Z</time>
      </trkpt>
      <trkpt lat="41.316830" lon="1.908475">
        <ele>341.828</ele>
        <time>2013-10-27T08:53:53Z</time>
      </trkpt>
      <trkpt lat="41.316828" lon="1.908438">
        <ele>341.819</ele>
        <time>2013-10-27T08:53:54Z</time>
      </trkpt>
      <trkpt lat="41.316822" lon="1.908342">
        <ele>341.825</ele>
        <time>2013-10-27T08:53:56Z</time>
      </trkpt>
      <trkpt lat="41.316765" lon="1.907952">
        <ele>341.819</ele>
        <time>2013-10-27T08:54:02Z</time>
      </trkpt>
      <trkpt lat="41.316723" lon="1.907565">
        <ele>341.853</ele>
        <time>2013-10-27T08:54:06Z</time>
      </trkpt>
      <trkpt lat="41.316712" lon="1.907328">
        <ele>341.404</ele>
        <time>2013-10-27T08:54:08Z</time>
      </trkpt>
      <trkpt lat="41.316705" lon="1.907195">
        <ele>341.014</ele>
        <time>2013-10-27T08:54:09Z</time>
      </trkpt>
      <trkpt lat="41.316702" lon="1.907060">
        <ele>340.608</ele>
        <time>2013-10-27T08:54:10Z</time>
      </trkpt>
      <trkpt lat="41.316697" lon="1.906918">
        <ele>339.856</ele>
        <time>2013-10-27T08:54:11Z</time>
      </trkpt>
      <trkpt lat="41.316693" lon="1.906768">
        <ele>339.259</ele>
        <time>2013-10-27T08:54:12Z</time>
      </trkpt>
      <trkpt lat="41.316690" lon="1.906623">
        <ele>338.641</ele>
        <time>2013-10-27T08:54:13Z</time>
      </trkpt>
      <trkpt lat="41.316680" lon="1.906478">
        <ele>338.027</ele>
        <time>2013-10-27T08:54:14Z</time>
      </trkpt>
      <trkpt lat="41.316657" lon="1.906335">
        <ele>337.449</ele>
        <time>2013-10-27T08:54:15Z</time>
      </trkpt>
      <trkpt lat="41.316622" lon="1.906200">
        <ele>336.880</ele>
        <time>2013-10-27T08:54:16Z</time>
      </trkpt>
      <trkpt lat="41.316582" lon="1.906075">
        <ele>335.866</ele>
        <time>2013-10-27T08:54:17Z</time>
      </trkpt>
      <trkpt lat="41.316540" lon="1.905958">
        <ele>334.840</ele>
        <time>2013-10-27T08:54:18Z</time>
      </trkpt>
      <trkpt lat="41.316515" lon="1.905843">
        <ele>333.899</ele>
        <time>2013-10-27T08:54:19Z</time>
      </trkpt>
      <trkpt lat="41.316500" lon="1.905732">
        <ele>332.807</ele>
        <time>2013-10-27T08:54:20Z</time>
      </trkpt>
      <trkpt lat="41.316483" lon="1.905617">
        <ele>331.827</ele>
        <time>2013-10-27T08:54:21Z</time>
      </trkpt>
      <trkpt lat="41.316453" lon="1.905278">
        <ele>331.808</ele>
        <time>2013-10-27T08:54:24Z</time>
      </trkpt>
      <trkpt lat="41.316445" lon="1.905158">
        <ele>331.480</ele>
        <time>2013-10-27T08:54:25Z</time>
      </trkpt>
      <trkpt lat="41.316432" lon="1.904987">
        <ele>330.293</ele>
        <time>2013-10-27T08:54:26Z</time>
      </trkpt>
      <trkpt lat="41.316407" lon="1.904845">
        <ele>329.015</ele>
        <time>2013-10-27T08:54:27Z</time>
      </trkpt>
      <trkpt lat="41.316360" lon="1.904697">
        <ele>327.831</ele>
        <time>2013-10-27T08:54:28Z</time>
      </trkpt>
      <trkpt lat="41.316295" lon="1.904575">
        <ele>326.483</ele>
        <time>2013-10-27T08:54:29Z</time>
      </trkpt>
      <trkpt lat="41.316227" lon="1.904473">
        <ele>325.294</ele>
        <time>2013-10-27T08:54:30Z</time>
      </trkpt>
      <trkpt lat="41.316172" lon="1.904383">
        <ele>323.870</ele>
        <time>2013-10-27T08:54:31Z</time>
      </trkpt>
      <trkpt lat="41.316127" lon="1.904300">
        <ele>322.634</ele>
        <time>2013-10-27T08:54:32Z</time>
      </trkpt>
      <trkpt lat="41.316093" lon="1.904218">
        <ele>322.619</ele>
        <time>2013-10-27T08:54:33Z</time>
      </trkpt>
      <trkpt lat="41.316030" lon="1.903943">
        <ele>322.609</ele>
        <time>2013-10-27T08:54:36Z</time>
      </trkpt>
      <trkpt lat="41.316020" lon="1.903842">
        <ele>322.619</ele>
        <time>2013-10-27T08:54:37Z</time>
      </trkpt>
      <trkpt lat="41.316005" lon="1.903733">
        <ele>322.608</ele>
        <time>2013-10-27T08:54:38Z</time>
      </trkpt>
      <trkpt lat="41.315977" lon="1.903387">
        <ele>322.692</ele>
        <time>2013-10-27T08:54:41Z</time>
      </trkpt>
      <trkpt lat="41.315942" lon="1.903155">
        <ele>322.615</ele>
        <time>2013-10-27T08:54:43Z</time>
      </trkpt>
      <trkpt lat="41.315905" lon="1.902913">
        <ele>322.647</ele>
        <time>2013-10-27T08:54:45Z</time>
      </trkpt>
      <trkpt lat="41.315888" lon="1.902795">
        <ele>322.213</ele>
        <time>2013-10-27T08:54:46Z</time>
      </trkpt>
      <trkpt lat="41.315872" lon="1.902673">
        <ele>321.615</ele>
        <time>2013-10-27T08:54:47Z</time>
      </trkpt>
      <trkpt lat="41.315852" lon="1.902553">
        <ele>321.216</ele>
        <time>2013-10-27T08:54:48Z</time>
      </trkpt>
      <trkpt lat="41.315830" lon="1.902435">
        <ele>320.872</ele>
        <time>2013-10-27T08:54:49Z</time>
      </trkpt>
      <trkpt lat="41.315808" lon="1.902320">
        <ele>320.246</ele>
        <time>2013-10-27T08:54:50Z</time>
      </trkpt>
      <trkpt lat="41.315787" lon="1.902200">
        <ele>319.894</ele>
        <time>2013-10-27T08:54:51Z</time>
      </trkpt>
      <trkpt lat="41.315768" lon="1.902085">
        <ele>319.257</ele>
        <time>2013-10-27T08:54:52Z</time>
      </trkpt>
      <trkpt lat="41.315738" lon="1.901973">
        <ele>318.822</ele>
        <time>2013-10-27T08:54:53Z</time>
      </trkpt>
      <trkpt lat="41.315693" lon="1.901865">
        <ele>318.208</ele>
        <time>2013-10-27T08:54:54Z</time>
      </trkpt>
      <trkpt lat="41.315575" lon="1.901663">
        <ele>318.230</ele>
        <time>2013-10-27T08:54:56Z</time>
      </trkpt>
      <trkpt lat="41.315417" lon="1.901503">
        <ele>317.633</ele>
        <time>2013-10-27T08:54:58Z</time>
      </trkpt>
      <trkpt lat="41.315328" lon="1.901438">
        <ele>317.095</ele>
        <time>2013-10-27T08:55:00Z</time>
      </trkpt>
      <trkpt lat="41.315243" lon="1.901375">
        <ele>316.671</ele>
        <time>2013-10-27T08:55:00Z</time>
      </trkpt>
      <trkpt lat="41.315162" lon="1.901317">
        <ele>315.883</ele>
        <time>2013-10-27T08:55:01Z</time>
      </trkpt>
      <trkpt lat="41.315080" lon="1.901265">
        <ele>315.274</ele>
        <time>2013-10-27T08:55:02Z</time>
      </trkpt>
      <trkpt lat="41.314995" lon="1.901223">
        <ele>314.670</ele>
        <time>2013-10-27T08:55:03Z</time>
      </trkpt>
      <trkpt lat="41.314912" lon="1.901193">
        <ele>314.014</ele>
        <time>2013-10-27T08:55:04Z</time>
      </trkpt>
      <trkpt lat="41.314825" lon="1.901173">
        <ele>313.458</ele>
        <time>2013-10-27T08:55:05Z</time>
      </trkpt>
      <trkpt lat="41.314732" lon="1.901153">
        <ele>312.652</ele>
        <time>2013-10-27T08:55:06Z</time>
      </trkpt>
      <trkpt lat="41.314638" lon="1.901152">
        <ele>312.017</ele>
        <time>2013-10-27T08:55:07Z</time>
      </trkpt>
      <trkpt lat="41.314543" lon="1.901145">
        <ele>311.408</ele>
        <time>2013-10-27T08:55:08Z</time>
      </trkpt>
      <trkpt lat="41.314438" lon="1.901138">
        <ele>310.846</ele>
        <time>2013-10-27T08:55:09Z</time>
      </trkpt>
      <trkpt lat="41.314333" lon="1.901127">
        <ele>309.819</ele>
        <time>2013-10-27T08:55:10Z</time>
      </trkpt>
      <trkpt lat="41.314227" lon="1.901117">
        <ele>309.231</ele>
        <time>2013-10-27T08:55:11Z</time>
      </trkpt>
      <trkpt lat="41.314117" lon="1.901113">
        <ele>308.687</ele>
        <time>2013-10-27T08:55:12Z</time>
      </trkpt>
      <trkpt lat="41.314003" lon="1.901102">
        <ele>308.099</ele>
        <time>2013-10-27T08:55:13Z</time>
      </trkpt>
      <trkpt lat="41.313880" lon="1.901092">
        <ele>307.480</ele>
        <time>2013-10-27T08:55:14Z</time>
      </trkpt>
      <trkpt lat="41.313763" lon="1.901082">
        <ele>306.866</ele>
        <time>2013-10-27T08:55:15Z</time>
      </trkpt>
      <trkpt lat="41.313652" lon="1.901075">
        <ele>306.290</ele>
        <time>2013-10-27T08:55:16Z</time>
      </trkpt>
      <trkpt lat="41.313543" lon="1.901068">
        <ele>305.686</ele>
        <time>2013-10-27T08:55:17Z</time>
      </trkpt>
      <trkpt lat="41.313433" lon="1.901062">
        <ele>305.060</ele>
        <time>2013-10-27T08:55:18Z</time>
      </trkpt>
      <trkpt lat="41.313330" lon="1.901052">
        <ele>304.426</ele>
        <time>2013-10-27T08:55:19Z</time>
      </trkpt>
      <trkpt lat="41.313228" lon="1.901020">
        <ele>303.808</ele>
        <time>2013-10-27T08:55:20Z</time>
      </trkpt>
      <trkpt lat="41.313118" lon="1.900992">
        <ele>303.079</ele>
        <time>2013-10-27T08:55:21Z</time>
      </trkpt>
      <trkpt lat="41.313018" lon="1.900982">
        <ele>303.052</ele>
        <time>2013-10-27T08:55:22Z</time>
      </trkpt>
      <trkpt lat="41.312828" lon="1.900973">
        <ele>302.644</ele>
        <time>2013-10-27T08:55:24Z</time>
      </trkpt>
      <trkpt lat="41.312735" lon="1.900975">
        <ele>302.240</ele>
        <time>2013-10-27T08:55:25Z</time>
      </trkpt>
      <trkpt lat="41.312647" lon="1.900962">
        <ele>301.842</ele>
        <time>2013-10-27T08:55:26Z</time>
      </trkpt>
      <trkpt lat="41.312560" lon="1.900930">
        <ele>301.423</ele>
        <time>2013-10-27T08:55:27Z</time>
      </trkpt>
      <trkpt lat="41.312478" lon="1.900885">
        <ele>300.889</ele>
        <time>2013-10-27T08:55:28Z</time>
      </trkpt>
      <trkpt lat="41.312252" lon="1.900668">
        <ele>300.873</ele>
        <time>2013-10-27T08:55:31Z</time>
      </trkpt>
      <trkpt lat="41.312058" lon="1.900397">
        <ele>300.866</ele>
        <time>2013-10-27T08:55:34Z</time>
      </trkpt>
      <trkpt lat="41.312015" lon="1.900275">
        <ele>300.429</ele>
        <time>2013-10-27T08:55:35Z</time>
      </trkpt>
      <trkpt lat="41.311983" lon="1.900150">
        <ele>300.021</ele>
        <time>2013-10-27T08:55:36Z</time>
      </trkpt>
      <trkpt lat="41.311948" lon="1.900022">
        <ele>299.608</ele>
        <time>2013-10-27T08:55:37Z</time>
      </trkpt>
      <trkpt lat="41.311923" lon="1.899887">
        <ele>299.297</ele>
        <time>2013-10-27T08:55:38Z</time>
      </trkpt>
      <trkpt lat="41.311908" lon="1.899757">
        <ele>298.830</ele>
        <time>2013-10-27T08:55:39Z</time>
      </trkpt>
      <trkpt lat="41.311903" lon="1.899625">
        <ele>298.452</ele>
        <time>2013-10-27T08:55:40Z</time>
      </trkpt>
      <trkpt lat="41.311903" lon="1.899497">
        <ele>298.088</ele>
        <time>2013-10-27T08:55:41Z</time>
      </trkpt>
      <trkpt lat="41.311907" lon="1.899368">
        <ele>297.630</ele>
        <time>2013-10-27T08:55:42Z</time>
      </trkpt>
      <trkpt lat="41.311915" lon="1.899240">
        <ele>297.021</ele>
        <time>2013-10-27T08:55:43Z</time>
      </trkpt>
      <trkpt lat="41.311928" lon="1.899107">
        <ele>296.627</ele>
        <time>2013-10-27T08:55:44Z</time>
      </trkpt>
      <trkpt lat="41.311945" lon="1.898980">
        <ele>296.081</ele>
        <time>2013-10-27T08:55:45Z</time>
      </trkpt>
      <trkpt lat="41.311965" lon="1.898858">
        <ele>295.495</ele>
        <time>2013-10-27T08:55:46Z</time>
      </trkpt>
      <trkpt lat="41.311982" lon="1.898735">
        <ele>294.849</ele>
        <time>2013-10-27T08:55:47Z</time>
      </trkpt>
      <trkpt lat="41.312000" lon="1.898612">
        <ele>294.223</ele>
        <time>2013-10-27T08:55:48Z</time>
      </trkpt>
      <trkpt lat="41.312010" lon="1.898487">
        <ele>293.808</ele>
        <time>2013-10-27T08:55:49Z</time>
      </trkpt>
      <trkpt lat="41.312008" lon="1.898353">
        <ele>293.430</ele>
        <time>2013-10-27T08:55:50Z</time>
      </trkpt>
      <trkpt lat="41.311992" lon="1.898217">
        <ele>292.863</ele>
        <time>2013-10-27T08:55:51Z</time>
      </trkpt>
      <trkpt lat="41.311960" lon="1.898073">
        <ele>292.275</ele>
        <time>2013-10-27T08:55:52Z</time>
      </trkpt>
      <trkpt lat="41.311922" lon="1.897932">
        <ele>291.681</ele>
        <time>2013-10-27T08:55:53Z</time>
      </trkpt>
      <trkpt lat="41.311877" lon="1.897800">
        <ele>290.883</ele>
        <time>2013-10-27T08:55:54Z</time>
      </trkpt>
      <trkpt lat="41.311837" lon="1.897672">
        <ele>290.214</ele>
        <time>2013-10-27T08:55:55Z</time>
      </trkpt>
      <trkpt lat="41.311792" lon="1.897560">
        <ele>289.660</ele>
        <time>2013-10-27T08:55:56Z</time>
      </trkpt>
      <trkpt lat="41.311662" lon="1.897187">
        <ele>289.624</ele>
        <time>2013-10-27T08:56:00Z</time>
      </trkpt>
      <trkpt lat="41.311583" lon="1.896953">
        <ele>289.657</ele>
        <time>2013-10-27T08:56:01Z</time>
      </trkpt>
      <trkpt lat="41.311473" lon="1.896738">
        <ele>289.600</ele>
        <time>2013-10-27T08:56:03Z</time>
      </trkpt>
      <trkpt lat="41.311412" lon="1.896640">
        <ele>289.020</ele>
        <time>2013-10-27T08:56:04Z</time>
      </trkpt>
      <trkpt lat="41.311357" lon="1.896540">
        <ele>288.608</ele>
        <time>2013-10-27T08:56:05Z</time>
      </trkpt>
      <trkpt lat="41.311292" lon="1.896452">
        <ele>288.266</ele>
        <time>2013-10-27T08:56:06Z</time>
      </trkpt>
      <trkpt lat="41.311230" lon="1.896365">
        <ele>287.639</ele>
        <time>2013-10-27T08:56:07Z</time>
      </trkpt>
      <trkpt lat="41.311173" lon="1.896282">
        <ele>287.211</ele>
        <time>2013-10-27T08:56:08Z</time>
      </trkpt>
      <trkpt lat="41.311120" lon="1.896198">
        <ele>286.647</ele>
        <time>2013-10-27T08:56:09Z</time>
      </trkpt>
      <trkpt lat="41.311062" lon="1.896133">
        <ele>286.079</ele>
        <time>2013-10-27T08:56:10Z</time>
      </trkpt>
      <trkpt lat="41.311007" lon="1.896075">
        <ele>285.410</ele>
        <time>2013-10-27T08:56:11Z</time>
      </trkpt>
      <trkpt lat="41.310955" lon="1.896022">
        <ele>284.846</ele>
        <time>2013-10-27T08:56:12Z</time>
      </trkpt>
      <trkpt lat="41.310860" lon="1.895930">
        <ele>284.870</ele>
        <time>2013-10-27T08:56:14Z</time>
      </trkpt>
      <trkpt lat="41.310705" lon="1.895785">
        <ele>284.847</ele>
        <time>2013-10-27T08:56:17Z</time>
      </trkpt>
      <trkpt lat="41.310585" lon="1.895680">
        <ele>284.829</ele>
        <time>2013-10-27T08:56:19Z</time>
      </trkpt>
      <trkpt lat="41.310368" lon="1.895490">
        <ele>284.421</ele>
        <time>2013-10-27T08:56:22Z</time>
      </trkpt>
      <trkpt lat="41.310282" lon="1.895417">
        <ele>284.008</ele>
        <time>2013-10-27T08:56:23Z</time>
      </trkpt>
      <trkpt lat="41.310192" lon="1.895322">
        <ele>283.225</ele>
        <time>2013-10-27T08:56:24Z</time>
      </trkpt>
      <trkpt lat="41.310102" lon="1.895222">
        <ele>282.648</ele>
        <time>2013-10-27T08:56:25Z</time>
      </trkpt>
      <trkpt lat="41.310017" lon="1.895125">
        <ele>281.820</ele>
        <time>2013-10-27T08:56:26Z</time>
      </trkpt>
      <trkpt lat="41.309932" lon="1.895035">
        <ele>281.066</ele>
        <time>2013-10-27T08:56:27Z</time>
      </trkpt>
      <trkpt lat="41.309833" lon="1.894955">
        <ele>280.238</ele>
        <time>2013-10-27T08:56:28Z</time>
      </trkpt>
      <trkpt lat="41.309667" lon="1.894805">
        <ele>280.269</ele>
        <time>2013-10-27T08:56:30Z</time>
      </trkpt>
      <trkpt lat="41.309380" lon="1.894557">
        <ele>280.215</ele>
        <time>2013-10-27T08:56:34Z</time>
      </trkpt>
      <trkpt lat="41.309318" lon="1.894503">
        <ele>279.849</ele>
        <time>2013-10-27T08:56:35Z</time>
      </trkpt>
      <trkpt lat="41.309267" lon="1.894463">
        <ele>279.461</ele>
        <time>2013-10-27T08:56:36Z</time>
      </trkpt>
      <trkpt lat="41.309212" lon="1.894430">
        <ele>279.021</ele>
        <time>2013-10-27T08:56:37Z</time>
      </trkpt>
      <trkpt lat="41.309167" lon="1.894398">
        <ele>278.613</ele>
        <time>2013-10-27T08:56:38Z</time>
      </trkpt>
      <trkpt lat="41.309125" lon="1.894360">
        <ele>278.208</ele>
        <time>2013-10-27T08:56:39Z</time>
      </trkpt>
      <trkpt lat="41.308858" lon="1.894140">
        <ele>278.277</ele>
        <time>2013-10-27T08:56:44Z</time>
      </trkpt>
      <trkpt lat="41.308658" lon="1.894017">
        <ele>277.640</ele>
        <time>2013-10-27T08:56:47Z</time>
      </trkpt>
      <trkpt lat="41.308598" lon="1.894000">
        <ele>277.092</ele>
        <time>2013-10-27T08:56:48Z</time>
      </trkpt>
      <trkpt lat="41.308528" lon="1.893985">
        <ele>276.438</ele>
        <time>2013-10-27T08:56:49Z</time>
      </trkpt>
      <trkpt lat="41.308462" lon="1.893975">
        <ele>275.890</ele>
        <time>2013-10-27T08:56:50Z</time>
      </trkpt>
      <trkpt lat="41.308402" lon="1.893963">
        <ele>275.291</ele>
        <time>2013-10-27T08:56:51Z</time>
      </trkpt>
      <trkpt lat="41.308350" lon="1.893945">
        <ele>275.267</ele>
        <time>2013-10-27T08:56:52Z</time>
      </trkpt>
      <trkpt lat="41.308262" lon="1.893905">
        <ele>275.261</ele>
        <time>2013-10-27T08:56:54Z</time>
      </trkpt>
      <trkpt lat="41.308105" lon="1.893830">
        <ele>275.229</ele>
        <time>2013-10-27T08:57:00Z</time>
      </trkpt>
      <trkpt lat="41.308102" lon="1.893828">
        <ele>275.200</ele>
        <time>2013-10-27T08:57:01Z</time>
      </trkpt>
      <trkpt lat="41.308080" lon="1.893825">
        <ele>275.220</ele>
        <time>2013-10-27T08:57:23Z</time>
      </trkpt>
      <trkpt lat="41.308058" lon="1.893817">
        <ele>275.208</ele>
        <time>2013-10-27T08:57:24Z</time>
      </trkpt>
      <trkpt lat="41.307970" lon="1.893780">
        <ele>275.263</ele>
        <time>2013-10-27T08:57:26Z</time>
      </trkpt>
      <trkpt lat="41.307913" lon="1.893748">
        <ele>275.246</ele>
        <time>2013-10-27T08:57:27Z</time>
      </trkpt>
      <trkpt lat="41.307767" lon="1.893673">
        <ele>275.288</ele>
        <time>2013-10-27T08:57:29Z</time>
      </trkpt>
      <trkpt lat="41.307605" lon="1.893568">
        <ele>274.894</ele>
        <time>2013-10-27T08:57:31Z</time>
      </trkpt>
      <trkpt lat="41.307528" lon="1.893510">
        <ele>274.036</ele>
        <time>2013-10-27T08:57:32Z</time>
      </trkpt>
      <trkpt lat="41.307445" lon="1.893473">
        <ele>273.687</ele>
        <time>2013-10-27T08:57:33Z</time>
      </trkpt>
      <trkpt lat="41.307362" lon="1.893447">
        <ele>273.233</ele>
        <time>2013-10-27T08:57:34Z</time>
      </trkpt>
      <trkpt lat="41.307273" lon="1.893422">
        <ele>273.227</ele>
        <time>2013-10-27T08:57:35Z</time>
      </trkpt>
      <trkpt lat="41.306943" lon="1.893313">
        <ele>273.268</ele>
        <time>2013-10-27T08:57:39Z</time>
      </trkpt>
      <trkpt lat="41.306777" lon="1.893248">
        <ele>273.242</ele>
        <time>2013-10-27T08:57:41Z</time>
      </trkpt>
      <trkpt lat="41.306543" lon="1.893170">
        <ele>273.226</ele>
        <time>2013-10-27T08:57:44Z</time>
      </trkpt>
      <trkpt lat="41.306407" lon="1.893140">
        <ele>273.208</ele>
        <time>2013-10-27T08:57:46Z</time>
      </trkpt>
      <trkpt lat="41.306288" lon="1.893102">
        <ele>273.227</ele>
        <time>2013-10-27T08:57:48Z</time>
      </trkpt>
      <trkpt lat="41.306190" lon="1.893080">
        <ele>273.270</ele>
        <time>2013-10-27T08:57:50Z</time>
      </trkpt>
      <trkpt lat="41.306145" lon="1.893077">
        <ele>273.292</ele>
        <time>2013-10-27T08:57:51Z</time>
      </trkpt>
      <trkpt lat="41.306063" lon="1.893058">
        <ele>273.298</ele>
        <time>2013-10-27T08:57:53Z</time>
      </trkpt>
      <trkpt lat="41.305985" lon="1.893023">
        <ele>273.210</ele>
        <time>2013-10-27T08:57:55Z</time>
      </trkpt>
      <trkpt lat="41.305935" lon="1.893003">
        <ele>273.221</ele>
        <time>2013-10-27T08:57:56Z</time>
      </trkpt>
      <trkpt lat="41.305822" lon="1.892933">
        <ele>273.247</ele>
        <time>2013-10-27T08:57:58Z</time>
      </trkpt>
      <trkpt lat="41.305673" lon="1.892850">
        <ele>273.241</ele>
        <time>2013-10-27T08:58:00Z</time>
      </trkpt>
      <trkpt lat="41.305312" lon="1.892690">
        <ele>273.297</ele>
        <time>2013-10-27T08:58:04Z</time>
      </trkpt>
      <trkpt lat="41.305228" lon="1.892653">
        <ele>272.823</ele>
        <time>2013-10-27T08:58:05Z</time>
      </trkpt>
      <trkpt lat="41.305150" lon="1.892598">
        <ele>272.425</ele>
        <time>2013-10-27T08:58:06Z</time>
      </trkpt>
      <trkpt lat="41.305070" lon="1.892533">
        <ele>272.008</ele>
        <time>2013-10-27T08:58:07Z</time>
      </trkpt>
      <trkpt lat="41.305003" lon="1.892450">
        <ele>271.490</ele>
        <time>2013-10-27T08:58:08Z</time>
      </trkpt>
      <trkpt lat="41.304940" lon="1.892365">
        <ele>271.023</ele>
        <time>2013-10-27T08:58:09Z</time>
      </trkpt>
      <trkpt lat="41.304873" lon="1.892287">
        <ele>271.095</ele>
        <time>2013-10-27T08:58:10Z</time>
      </trkpt>
      <trkpt lat="41.304803" lon="1.892208">
        <ele>270.661</ele>
        <time>2013-10-27T08:58:11Z</time>
      </trkpt>
      <trkpt lat="41.304735" lon="1.892125">
        <ele>270.213</ele>
        <time>2013-10-27T08:58:12Z</time>
      </trkpt>
      <trkpt lat="41.304667" lon="1.892040">
        <ele>269.844</ele>
        <time>2013-10-27T08:58:13Z</time>
      </trkpt>
      <trkpt lat="41.304602" lon="1.891943">
        <ele>269.240</ele>
        <time>2013-10-27T08:58:14Z</time>
      </trkpt>
      <trkpt lat="41.304542" lon="1.891847">
        <ele>268.864</ele>
        <time>2013-10-27T08:58:15Z</time>
      </trkpt>
      <trkpt lat="41.304488" lon="1.891743">
        <ele>268.845</ele>
        <time>2013-10-27T08:58:16Z</time>
      </trkpt>
      <trkpt lat="41.304437" lon="1.891635">
        <ele>268.847</ele>
        <time>2013-10-27T08:58:17Z</time>
      </trkpt>
      <trkpt lat="41.304337" lon="1.891403">
        <ele>268.211</ele>
        <time>2013-10-27T08:58:19Z</time>
      </trkpt>
      <trkpt lat="41.304282" lon="1.891275">
        <ele>267.408</ele>
        <time>2013-10-27T08:58:20Z</time>
      </trkpt>
      <trkpt lat="41.304228" lon="1.891142">
        <ele>265.685</ele>
        <time>2013-10-27T08:58:21Z</time>
      </trkpt>
      <trkpt lat="41.304180" lon="1.891003">
        <ele>264.698</ele>
        <time>2013-10-27T08:58:22Z</time>
      </trkpt>
      <trkpt lat="41.304143" lon="1.890873">
        <ele>263.610</ele>
        <time>2013-10-27T08:58:23Z</time>
      </trkpt>
      <trkpt lat="41.304115" lon="1.890747">
        <ele>262.696</ele>
        <time>2013-10-27T08:58:24Z</time>
      </trkpt>
      <trkpt lat="41.304092" lon="1.890620">
        <ele>261.618</ele>
        <time>2013-10-27T08:58:25Z</time>
      </trkpt>
      <trkpt lat="41.304072" lon="1.890500">
        <ele>260.889</ele>
        <time>2013-10-27T08:58:26Z</time>
      </trkpt>
      <trkpt lat="41.304058" lon="1.890383">
        <ele>260.035</ele>
        <time>2013-10-27T08:58:27Z</time>
      </trkpt>
      <trkpt lat="41.304050" lon="1.890263">
        <ele>259.299</ele>
        <time>2013-10-27T08:58:28Z</time>
      </trkpt>
      <trkpt lat="41.304040" lon="1.890140">
        <ele>258.644</ele>
        <time>2013-10-27T08:58:29Z</time>
      </trkpt>
      <trkpt lat="41.304010" lon="1.890040">
        <ele>257.805</ele>
        <time>2013-10-27T08:58:30Z</time>
      </trkpt>
      <trkpt lat="41.303967" lon="1.889943">
        <ele>257.215</ele>
        <time>2013-10-27T08:58:31Z</time>
      </trkpt>
      <trkpt lat="41.303912" lon="1.889863">
        <ele>256.408</ele>
        <time>2013-10-27T08:58:32Z</time>
      </trkpt>
      <trkpt lat="41.303855" lon="1.889795">
        <ele>255.825</ele>
        <time>2013-10-27T08:58:33Z</time>
      </trkpt>
      <trkpt lat="41.303797" lon="1.889743">
        <ele>255.828</ele>
        <time>2013-10-27T08:58:34Z</time>
      </trkpt>
      <trkpt lat="41.303600" lon="1.889608">
        <ele>255.810</ele>
        <time>2013-10-27T08:58:37Z</time>
      </trkpt>
      <trkpt lat="41.303467" lon="1.889560">
        <ele>255.846</ele>
        <time>2013-10-27T08:58:39Z</time>
      </trkpt>
      <trkpt lat="41.303330" lon="1.889535">
        <ele>255.838</ele>
        <time>2013-10-27T08:58:41Z</time>
      </trkpt>
      <trkpt lat="41.303263" lon="1.889520">
        <ele>255.819</ele>
        <time>2013-10-27T08:58:42Z</time>
      </trkpt>
      <trkpt lat="41.303198" lon="1.889495">
        <ele>256.255</ele>
        <time>2013-10-27T08:58:43Z</time>
      </trkpt>
      <trkpt lat="41.303135" lon="1.889453">
        <ele>256.699</ele>
        <time>2013-10-27T08:58:44Z</time>
      </trkpt>
      <trkpt lat="41.303077" lon="1.889397">
        <ele>257.088</ele>
        <time>2013-10-27T08:58:45Z</time>
      </trkpt>
      <trkpt lat="41.303025" lon="1.889327">
        <ele>257.824</ele>
        <time>2013-10-27T08:58:46Z</time>
      </trkpt>
      <trkpt lat="41.302928" lon="1.889032">
        <ele>257.426</ele>
        <time>2013-10-27T08:58:49Z</time>
      </trkpt>
      <trkpt lat="41.302917" lon="1.888913">
        <ele>257.008</ele>
        <time>2013-10-27T08:58:50Z</time>
      </trkpt>
      <trkpt lat="41.302922" lon="1.888790">
        <ele>256.639</ele>
        <time>2013-10-27T08:58:51Z</time>
      </trkpt>
      <trkpt lat="41.302935" lon="1.888658">
        <ele>256.282</ele>
        <time>2013-10-27T08:58:52Z</time>
      </trkpt>
      <trkpt lat="41.302955" lon="1.888537">
        <ele>255.684</ele>
        <time>2013-10-27T08:58:53Z</time>
      </trkpt>
      <trkpt lat="41.302990" lon="1.888422">
        <ele>255.020</ele>
        <time>2013-10-27T08:58:54Z</time>
      </trkpt>
      <trkpt lat="41.303023" lon="1.888308">
        <ele>254.442</ele>
        <time>2013-10-27T08:58:55Z</time>
      </trkpt>
      <trkpt lat="41.303057" lon="1.888195">
        <ele>253.853</ele>
        <time>2013-10-27T08:58:56Z</time>
      </trkpt>
      <trkpt lat="41.303095" lon="1.888085">
        <ele>253.219</ele>
        <time>2013-10-27T08:58:57Z</time>
      </trkpt>
      <trkpt lat="41.303127" lon="1.887970">
        <ele>252.663</ele>
        <time>2013-10-27T08:58:58Z</time>
      </trkpt>
      <trkpt lat="41.303157" lon="1.887843">
        <ele>251.858</ele>
        <time>2013-10-27T08:59:00Z</time>
      </trkpt>
      <trkpt lat="41.303180" lon="1.887725">
        <ele>251.252</ele>
        <time>2013-10-27T08:59:00Z</time>
      </trkpt>
      <trkpt lat="41.303210" lon="1.887612">
        <ele>250.817</ele>
        <time>2013-10-27T08:59:01Z</time>
      </trkpt>
      <trkpt lat="41.303240" lon="1.887510">
        <ele>250.208</ele>
        <time>2013-10-27T08:59:02Z</time>
      </trkpt>
      <trkpt lat="41.303275" lon="1.887413">
        <ele>249.616</ele>
        <time>2013-10-27T08:59:03Z</time>
      </trkpt>
      <trkpt lat="41.303320" lon="1.887323">
        <ele>249.259</ele>
        <time>2013-10-27T08:59:04Z</time>
      </trkpt>
      <trkpt lat="41.303383" lon="1.887237">
        <ele>248.681</ele>
        <time>2013-10-27T08:59:05Z</time>
      </trkpt>
      <trkpt lat="41.303438" lon="1.887157">
        <ele>248.017</ele>
        <time>2013-10-27T08:59:06Z</time>
      </trkpt>
      <trkpt lat="41.303503" lon="1.887080">
        <ele>247.249</ele>
        <time>2013-10-27T08:59:07Z</time>
      </trkpt>
      <trkpt lat="41.303572" lon="1.887007">
        <ele>246.660</ele>
        <time>2013-10-27T08:59:08Z</time>
      </trkpt>
      <trkpt lat="41.303643" lon="1.886928">
        <ele>246.236</ele>
        <time>2013-10-27T08:59:09Z</time>
      </trkpt>
      <trkpt lat="41.303715" lon="1.886842">
        <ele>245.030</ele>
        <time>2013-10-27T08:59:10Z</time>
      </trkpt>
      <trkpt lat="41.303792" lon="1.886752">
        <ele>244.697</ele>
        <time>2013-10-27T08:59:11Z</time>
      </trkpt>
      <trkpt lat="41.303872" lon="1.886660">
        <ele>244.023</ele>
        <time>2013-10-27T08:59:12Z</time>
      </trkpt>
      <trkpt lat="41.303948" lon="1.886572">
        <ele>243.425</ele>
        <time>2013-10-27T08:59:13Z</time>
      </trkpt>
      <trkpt lat="41.304025" lon="1.886482">
        <ele>242.808</ele>
        <time>2013-10-27T08:59:14Z</time>
      </trkpt>
      <trkpt lat="41.304100" lon="1.886390">
        <ele>242.210</ele>
        <time>2013-10-27T08:59:15Z</time>
      </trkpt>
      <trkpt lat="41.304182" lon="1.886303">
        <ele>241.653</ele>
        <time>2013-10-27T08:59:16Z</time>
      </trkpt>
      <trkpt lat="41.304263" lon="1.886220">
        <ele>241.095</ele>
        <time>2013-10-27T08:59:17Z</time>
      </trkpt>
      <trkpt lat="41.304335" lon="1.886128">
        <ele>240.641</ele>
        <time>2013-10-27T08:59:18Z</time>
      </trkpt>
      <trkpt lat="41.304408" lon="1.886032">
        <ele>240.053</ele>
        <time>2013-10-27T08:59:19Z</time>
      </trkpt>
      <trkpt lat="41.304468" lon="1.885935">
        <ele>239.424</ele>
        <time>2013-10-27T08:59:20Z</time>
      </trkpt>
      <trkpt lat="41.304522" lon="1.885843">
        <ele>239.490</ele>
        <time>2013-10-27T08:59:21Z</time>
      </trkpt>
      <trkpt lat="41.304567" lon="1.885742">
        <ele>239.424</ele>
        <time>2013-10-27T08:59:22Z</time>
      </trkpt>
      <trkpt lat="41.304588" lon="1.885545">
        <ele>239.462</ele>
        <time>2013-10-27T08:59:24Z</time>
      </trkpt>
      <trkpt lat="41.304560" lon="1.885355">
        <ele>239.483</ele>
        <time>2013-10-27T08:59:26Z</time>
      </trkpt>
      <trkpt lat="41.304558" lon="1.885162">
        <ele>239.411</ele>
        <time>2013-10-27T08:59:28Z</time>
      </trkpt>
      <trkpt lat="41.304622" lon="1.884868">
        <ele>239.408</ele>
        <time>2013-10-27T08:59:31Z</time>
      </trkpt>
      <trkpt lat="41.304652" lon="1.884762">
        <ele>238.897</ele>
        <time>2013-10-27T08:59:32Z</time>
      </trkpt>
      <trkpt lat="41.304690" lon="1.884652">
        <ele>238.450</ele>
        <time>2013-10-27T08:59:33Z</time>
      </trkpt>
      <trkpt lat="41.304733" lon="1.884533">
        <ele>236.862</ele>
        <time>2013-10-27T08:59:34Z</time>
      </trkpt>
      <trkpt lat="41.304785" lon="1.884395">
        <ele>236.078</ele>
        <time>2013-10-27T08:59:35Z</time>
      </trkpt>
      <trkpt lat="41.304845" lon="1.884265">
        <ele>235.080</ele>
        <time>2013-10-27T08:59:36Z</time>
      </trkpt>
      <trkpt lat="41.304902" lon="1.884122">
        <ele>234.021</ele>
        <time>2013-10-27T08:59:37Z</time>
      </trkpt>
      <trkpt lat="41.304967" lon="1.883987">
        <ele>233.047</ele>
        <time>2013-10-27T08:59:38Z</time>
      </trkpt>
      <trkpt lat="41.305035" lon="1.883868">
        <ele>232.081</ele>
        <time>2013-10-27T08:59:39Z</time>
      </trkpt>
      <trkpt lat="41.305083" lon="1.883762">
        <ele>231.098</ele>
        <time>2013-10-27T08:59:40Z</time>
      </trkpt>
      <trkpt lat="41.305117" lon="1.883660">
        <ele>230.015</ele>
        <time>2013-10-27T08:59:41Z</time>
      </trkpt>
      <trkpt lat="41.305137" lon="1.883557">
        <ele>229.026</ele>
        <time>2013-10-27T08:59:42Z</time>
      </trkpt>
      <trkpt lat="41.305140" lon="1.883472">
        <ele>229.008</ele>
        <time>2013-10-27T08:59:43Z</time>
      </trkpt>
      <trkpt lat="41.305150" lon="1.883232">
        <ele>229.070</ele>
        <time>2013-10-27T08:59:47Z</time>
      </trkpt>
      <trkpt lat="41.305125" lon="1.882970">
        <ele>229.063</ele>
        <time>2013-10-27T08:59:52Z</time>
      </trkpt>
      <trkpt lat="41.305115" lon="1.882848">
        <ele>229.055</ele>
        <time>2013-10-27T08:59:54Z</time>
      </trkpt>
      <trkpt lat="41.305087" lon="1.882580">
        <ele>229.021</ele>
        <time>2013-10-27T08:59:58Z</time>
      </trkpt>
      <trkpt lat="41.305063" lon="1.882453">
        <ele>229.033</ele>
        <time>2013-10-27T09:00:00Z</time>
      </trkpt>
      <trkpt lat="41.305013" lon="1.882265">
        <ele>229.044</ele>
        <time>2013-10-27T09:00:03Z</time>
      </trkpt>
      <trkpt lat="41.304955" lon="1.882070">
        <ele>229.040</ele>
        <time>2013-10-27T09:00:06Z</time>
      </trkpt>
      <trkpt lat="41.304927" lon="1.882002">
        <ele>228.634</ele>
        <time>2013-10-27T09:00:07Z</time>
      </trkpt>
      <trkpt lat="41.304895" lon="1.881928">
        <ele>228.243</ele>
        <time>2013-10-27T09:00:08Z</time>
      </trkpt>
      <trkpt lat="41.304858" lon="1.881857">
        <ele>227.864</ele>
        <time>2013-10-27T09:00:09Z</time>
      </trkpt>
      <trkpt lat="41.304818" lon="1.881782">
        <ele>227.410</ele>
        <time>2013-10-27T09:00:10Z</time>
      </trkpt>
      <trkpt lat="41.304782" lon="1.881700">
        <ele>227.008</ele>
        <time>2013-10-27T09:00:11Z</time>
      </trkpt>
      <trkpt lat="41.304657" lon="1.881455">
        <ele>227.095</ele>
        <time>2013-10-27T09:00:14Z</time>
      </trkpt>
      <trkpt lat="41.304558" lon="1.881308">
        <ele>227.048</ele>
        <time>2013-10-27T09:00:16Z</time>
      </trkpt>
      <trkpt lat="41.304433" lon="1.881087">
        <ele>227.030</ele>
        <time>2013-10-27T09:00:19Z</time>
      </trkpt>
      <trkpt lat="41.304390" lon="1.881008">
        <ele>227.066</ele>
        <time>2013-10-27T09:00:20Z</time>
      </trkpt>
      <trkpt lat="41.304325" lon="1.880880">
        <ele>227.068</ele>
        <time>2013-10-27T09:00:22Z</time>
      </trkpt>
      <trkpt lat="41.304280" lon="1.880767">
        <ele>227.089</ele>
        <time>2013-10-27T09:00:24Z</time>
      </trkpt>
      <trkpt lat="41.304242" lon="1.880657">
        <ele>227.075</ele>
        <time>2013-10-27T09:00:26Z</time>
      </trkpt>
      <trkpt lat="41.304223" lon="1.880600">
        <ele>227.069</ele>
        <time>2013-10-27T09:00:27Z</time>
      </trkpt>
      <trkpt lat="41.304195" lon="1.880508">
        <ele>227.063</ele>
        <time>2013-10-27T09:00:29Z</time>
      </trkpt>
      <trkpt lat="41.304185" lon="1.880465">
        <ele>227.044</ele>
        <time>2013-10-27T09:00:30Z</time>
      </trkpt>
      <trkpt lat="41.304173" lon="1.880375">
        <ele>227.418</ele>
        <time>2013-10-27T09:00:32Z</time>
      </trkpt>
      <trkpt lat="41.304165" lon="1.880332">
        <ele>227.808</ele>
        <time>2013-10-27T09:00:33Z</time>
      </trkpt>
      <trkpt lat="41.304157" lon="1.880287">
        <ele>228.227</ele>
        <time>2013-10-27T09:00:34Z</time>
      </trkpt>
      <trkpt lat="41.304140" lon="1.880237">
        <ele>228.690</ele>
        <time>2013-10-27T09:00:35Z</time>
      </trkpt>
      <trkpt lat="41.304117" lon="1.880190">
        <ele>229.032</ele>
        <time>2013-10-27T09:00:36Z</time>
      </trkpt>
      <trkpt lat="41.303968" lon="1.880075">
        <ele>229.038</ele>
        <time>2013-10-27T09:00:39Z</time>
      </trkpt>
      <trkpt lat="41.303902" lon="1.880057">
        <ele>229.020</ele>
        <time>2013-10-27T09:00:40Z</time>
      </trkpt>
      <trkpt lat="41.303588" lon="1.879970">
        <ele>228.431</ele>
        <time>2013-10-27T09:00:45Z</time>
      </trkpt>
      <trkpt lat="41.303532" lon="1.879943">
        <ele>228.057</ele>
        <time>2013-10-27T09:00:46Z</time>
      </trkpt>
      <trkpt lat="41.303478" lon="1.879915">
        <ele>227.491</ele>
        <time>2013-10-27T09:00:47Z</time>
      </trkpt>
      <trkpt lat="41.303425" lon="1.879882">
        <ele>226.415</ele>
        <time>2013-10-27T09:00:48Z</time>
      </trkpt>
      <trkpt lat="41.303277" lon="1.879773">
        <ele>226.465</ele>
        <time>2013-10-27T09:00:51Z</time>
      </trkpt>
      <trkpt lat="41.303183" lon="1.879682">
        <ele>226.411</ele>
        <time>2013-10-27T09:00:53Z</time>
      </trkpt>
      <trkpt lat="41.303138" lon="1.879625">
        <ele>226.008</ele>
        <time>2013-10-27T09:00:54Z</time>
      </trkpt>
      <trkpt lat="41.303093" lon="1.879568">
        <ele>225.412</ele>
        <time>2013-10-27T09:00:55Z</time>
      </trkpt>
      <trkpt lat="41.303050" lon="1.879500">
        <ele>225.035</ele>
        <time>2013-10-27T09:00:56Z</time>
      </trkpt>
      <trkpt lat="41.302998" lon="1.879423">
        <ele>224.247</ele>
        <time>2013-10-27T09:00:57Z</time>
      </trkpt>
      <trkpt lat="41.302937" lon="1.879333">
        <ele>223.673</ele>
        <time>2013-10-27T09:00:58Z</time>
      </trkpt>
      <trkpt lat="41.302875" lon="1.879245">
        <ele>222.895</ele>
        <time>2013-10-27T09:01:00Z</time>
      </trkpt>
      <trkpt lat="41.302817" lon="1.879152">
        <ele>222.246</ele>
        <time>2013-10-27T09:01:00Z</time>
      </trkpt>
      <trkpt lat="41.302757" lon="1.879062">
        <ele>221.292</ele>
        <time>2013-10-27T09:01:01Z</time>
      </trkpt>
      <trkpt lat="41.302693" lon="1.878980">
        <ele>220.496</ele>
        <time>2013-10-27T09:01:02Z</time>
      </trkpt>
      <trkpt lat="41.302633" lon="1.878898">
        <ele>219.666</ele>
        <time>2013-10-27T09:01:03Z</time>
      </trkpt>
      <trkpt lat="41.302563" lon="1.878810">
        <ele>218.829</ele>
        <time>2013-10-27T09:01:04Z</time>
      </trkpt>
      <trkpt lat="41.302505" lon="1.878740">
        <ele>218.021</ele>
        <time>2013-10-27T09:01:05Z</time>
      </trkpt>
      <trkpt lat="41.302443" lon="1.878668">
        <ele>218.008</ele>
        <time>2013-10-27T09:01:06Z</time>
      </trkpt>
      <trkpt lat="41.302317" lon="1.878510">
        <ele>217.487</ele>
        <time>2013-10-27T09:01:08Z</time>
      </trkpt>
      <trkpt lat="41.302258" lon="1.878428">
        <ele>216.830</ele>
        <time>2013-10-27T09:01:09Z</time>
      </trkpt>
      <trkpt lat="41.302210" lon="1.878348">
        <ele>216.082</ele>
        <time>2013-10-27T09:01:10Z</time>
      </trkpt>
      <trkpt lat="41.302163" lon="1.878275">
        <ele>215.298</ele>
        <time>2013-10-27T09:01:11Z</time>
      </trkpt>
      <trkpt lat="41.302120" lon="1.878210">
        <ele>214.490</ele>
        <time>2013-10-27T09:01:12Z</time>
      </trkpt>
      <trkpt lat="41.302077" lon="1.878142">
        <ele>212.891</ele>
        <time>2013-10-27T09:01:13Z</time>
      </trkpt>
      <trkpt lat="41.302005" lon="1.878023">
        <ele>212.227</ele>
        <time>2013-10-27T09:01:15Z</time>
      </trkpt>
      <trkpt lat="41.301973" lon="1.877973">
        <ele>211.891</ele>
        <time>2013-10-27T09:01:16Z</time>
      </trkpt>
      <trkpt lat="41.301953" lon="1.877925">
        <ele>211.296</ele>
        <time>2013-10-27T09:01:17Z</time>
      </trkpt>
      <trkpt lat="41.301935" lon="1.877880">
        <ele>210.831</ele>
        <time>2013-10-27T09:01:18Z</time>
      </trkpt>
      <trkpt lat="41.301913" lon="1.877820">
        <ele>210.224</ele>
        <time>2013-10-27T09:01:19Z</time>
      </trkpt>
      <trkpt lat="41.301897" lon="1.877775">
        <ele>210.208</ele>
        <time>2013-10-27T09:01:20Z</time>
      </trkpt>
      <trkpt lat="41.301890" lon="1.877720">
        <ele>210.220</ele>
        <time>2013-10-27T09:01:21Z</time>
      </trkpt>
      <trkpt lat="41.301872" lon="1.877612">
        <ele>210.293</ele>
        <time>2013-10-27T09:01:23Z</time>
      </trkpt>
      <trkpt lat="41.301830" lon="1.877365">
        <ele>210.275</ele>
        <time>2013-10-27T09:01:27Z</time>
      </trkpt>
      <trkpt lat="41.301808" lon="1.877313">
        <ele>210.241</ele>
        <time>2013-10-27T09:01:28Z</time>
      </trkpt>
      <trkpt lat="41.301773" lon="1.877265">
        <ele>210.233</ele>
        <time>2013-10-27T09:01:29Z</time>
      </trkpt>
      <trkpt lat="41.301657" lon="1.877128">
        <ele>210.284</ele>
        <time>2013-10-27T09:01:32Z</time>
      </trkpt>
      <trkpt lat="41.301605" lon="1.877085">
        <ele>209.630</ele>
        <time>2013-10-27T09:01:33Z</time>
      </trkpt>
      <trkpt lat="41.301560" lon="1.877042">
        <ele>209.054</ele>
        <time>2013-10-27T09:01:34Z</time>
      </trkpt>
      <trkpt lat="41.301503" lon="1.876992">
        <ele>207.252</ele>
        <time>2013-10-27T09:01:35Z</time>
      </trkpt>
      <trkpt lat="41.301410" lon="1.876907">
        <ele>205.853</ele>
        <time>2013-10-27T09:01:37Z</time>
      </trkpt>
      <trkpt lat="41.301340" lon="1.876845">
        <ele>203.208</ele>
        <time>2013-10-27T09:01:38Z</time>
      </trkpt>
      <trkpt lat="41.301202" lon="1.876775">
        <ele>202.008</ele>
        <time>2013-10-27T09:01:39Z</time>
      </trkpt>
      <trkpt lat="41.301130" lon="1.876717">
        <ele>200.686</ele>
        <time>2013-10-27T09:01:40Z</time>
      </trkpt>
      <trkpt lat="41.301070" lon="1.876687">
        <ele>199.469</ele>
        <time>2013-10-27T09:01:41Z</time>
      </trkpt>
      <trkpt lat="41.301037" lon="1.876683">
        <ele>198.241</ele>
        <time>2013-10-27T09:01:42Z</time>
      </trkpt>
      <trkpt lat="41.301017" lon="1.876682">
        <ele>196.827</ele>
        <time>2013-10-27T09:01:43Z</time>
      </trkpt>
      <trkpt lat="41.300998" lon="1.876685">
        <ele>196.229</ele>
        <time>2013-10-27T09:01:44Z</time>
      </trkpt>
      <trkpt lat="41.300988" lon="1.876690">
        <ele>195.610</ele>
        <time>2013-10-27T09:01:45Z</time>
      </trkpt>
      <trkpt lat="41.300983" lon="1.876707">
        <ele>194.896</ele>
        <time>2013-10-27T09:01:46Z</time>
      </trkpt>
      <trkpt lat="41.300998" lon="1.876713">
        <ele>194.230</ele>
        <time>2013-10-27T09:01:47Z</time>
      </trkpt>
      <trkpt lat="41.301015" lon="1.876725">
        <ele>193.686</ele>
        <time>2013-10-27T09:01:48Z</time>
      </trkpt>
      <trkpt lat="41.301080" lon="1.876792">
        <ele>193.660</ele>
        <time>2013-10-27T09:01:52Z</time>
      </trkpt>
      <trkpt lat="41.301088" lon="1.876807">
        <ele>193.626</ele>
        <time>2013-10-27T09:01:53Z</time>
      </trkpt>
      <trkpt lat="41.301090" lon="1.876803">
        <ele>193.608</ele>
        <time>2013-10-27T09:01:55Z</time>
      </trkpt>
      <trkpt lat="41.301080" lon="1.876767">
        <ele>193.679</ele>
        <time>2013-10-27T09:02:03Z</time>
      </trkpt>
      <trkpt lat="41.301065" lon="1.876758">
        <ele>193.642</ele>
        <time>2013-10-27T09:02:04Z</time>
      </trkpt>
      <trkpt lat="41.300982" lon="1.876678">
        <ele>193.684</ele>
        <time>2013-10-27T09:02:07Z</time>
      </trkpt>
      <trkpt lat="41.300822" lon="1.876522">
        <ele>193.630</ele>
        <time>2013-10-27T09:02:11Z</time>
      </trkpt>
      <trkpt lat="41.300720" lon="1.876433">
        <ele>193.692</ele>
        <time>2013-10-27T09:02:13Z</time>
      </trkpt>
      <trkpt lat="41.300335" lon="1.876150">
        <ele>193.643</ele>
        <time>2013-10-27T09:02:20Z</time>
      </trkpt>
      <trkpt lat="41.300100" lon="1.876025">
        <ele>193.649</ele>
        <time>2013-10-27T09:02:24Z</time>
      </trkpt>
      <trkpt lat="41.300023" lon="1.875975">
        <ele>193.643</ele>
        <time>2013-10-27T09:02:26Z</time>
      </trkpt>
      <trkpt lat="41.299953" lon="1.875872">
        <ele>193.672</ele>
        <time>2013-10-27T09:02:29Z</time>
      </trkpt>
      <trkpt lat="41.299928" lon="1.875825">
        <ele>193.613</ele>
        <time>2013-10-27T09:02:30Z</time>
      </trkpt>
      <trkpt lat="41.299868" lon="1.875703">
        <ele>193.614</ele>
        <time>2013-10-27T09:02:32Z</time>
      </trkpt>
      <trkpt lat="41.299812" lon="1.875548">
        <ele>193.608</ele>
        <time>2013-10-27T09:02:34Z</time>
      </trkpt>
      <trkpt lat="41.299733" lon="1.875227">
        <ele>193.618</ele>
        <time>2013-10-27T09:02:37Z</time>
      </trkpt>
      <trkpt lat="41.299707" lon="1.875118">
        <ele>193.621</ele>
        <time>2013-10-27T09:02:38Z</time>
      </trkpt>
      <trkpt lat="41.299657" lon="1.874887">
        <ele>193.063</ele>
        <time>2013-10-27T09:02:40Z</time>
      </trkpt>
      <trkpt lat="41.299633" lon="1.874782">
        <ele>192.649</ele>
        <time>2013-10-27T09:02:41Z</time>
      </trkpt>
      <trkpt lat="41.299593" lon="1.874655">
        <ele>192.251</ele>
        <time>2013-10-27T09:02:42Z</time>
      </trkpt>
      <trkpt lat="41.299548" lon="1.874550">
        <ele>191.882</ele>
        <time>2013-10-27T09:02:43Z</time>
      </trkpt>
      <trkpt lat="41.299492" lon="1.874455">
        <ele>191.438</ele>
        <time>2013-10-27T09:02:44Z</time>
      </trkpt>
      <trkpt lat="41.299347" lon="1.874312">
        <ele>191.442</ele>
        <time>2013-10-27T09:02:46Z</time>
      </trkpt>
      <trkpt lat="41.299180" lon="1.874242">
        <ele>191.415</ele>
        <time>2013-10-27T09:02:48Z</time>
      </trkpt>
      <trkpt lat="41.299075" lon="1.874242">
        <ele>191.465</ele>
        <time>2013-10-27T09:02:49Z</time>
      </trkpt>
      <trkpt lat="41.298975" lon="1.874243">
        <ele>190.811</ele>
        <time>2013-10-27T09:02:50Z</time>
      </trkpt>
      <trkpt lat="41.298873" lon="1.874245">
        <ele>189.208</ele>
        <time>2013-10-27T09:02:51Z</time>
      </trkpt>
      <trkpt lat="41.298775" lon="1.874233">
        <ele>188.462</ele>
        <time>2013-10-27T09:02:52Z</time>
      </trkpt>
      <trkpt lat="41.298682" lon="1.874197">
        <ele>187.455</ele>
        <time>2013-10-27T09:02:53Z</time>
      </trkpt>
      <trkpt lat="41.298595" lon="1.874138">
        <ele>186.447</ele>
        <time>2013-10-27T09:02:54Z</time>
      </trkpt>
      <trkpt lat="41.298512" lon="1.874067">
        <ele>185.683</ele>
        <time>2013-10-27T09:02:55Z</time>
      </trkpt>
      <trkpt lat="41.298428" lon="1.873987">
        <ele>184.815</ele>
        <time>2013-10-27T09:02:56Z</time>
      </trkpt>
      <trkpt lat="41.298342" lon="1.873897">
        <ele>184.036</ele>
        <time>2013-10-27T09:02:57Z</time>
      </trkpt>
      <trkpt lat="41.298245" lon="1.873790">
        <ele>183.072</ele>
        <time>2013-10-27T09:02:58Z</time>
      </trkpt>
      <trkpt lat="41.298152" lon="1.873685">
        <ele>182.246</ele>
        <time>2013-10-27T09:03:00Z</time>
      </trkpt>
      <trkpt lat="41.298090" lon="1.873598">
        <ele>181.474</ele>
        <time>2013-10-27T09:03:01Z</time>
      </trkpt>
      <trkpt lat="41.298027" lon="1.873487">
        <ele>180.456</ele>
        <time>2013-10-27T09:03:02Z</time>
      </trkpt>
      <trkpt lat="41.297962" lon="1.873385">
        <ele>179.621</ele>
        <time>2013-10-27T09:03:03Z</time>
      </trkpt>
      <trkpt lat="41.297892" lon="1.873295">
        <ele>179.208</ele>
        <time>2013-10-27T09:03:04Z</time>
      </trkpt>
      <trkpt lat="41.297820" lon="1.873205">
        <ele>178.838</ele>
        <time>2013-10-27T09:03:05Z</time>
      </trkpt>
      <trkpt lat="41.297748" lon="1.873117">
        <ele>178.441</ele>
        <time>2013-10-27T09:03:06Z</time>
      </trkpt>
      <trkpt lat="41.297665" lon="1.873018">
        <ele>177.843</ele>
        <time>2013-10-27T09:03:07Z</time>
      </trkpt>
      <trkpt lat="41.297588" lon="1.872923">
        <ele>177.429</ele>
        <time>2013-10-27T09:03:08Z</time>
      </trkpt>
      <trkpt lat="41.297433" lon="1.872745">
        <ele>177.041</ele>
        <time>2013-10-27T09:03:10Z</time>
      </trkpt>
      <trkpt lat="41.297358" lon="1.872672">
        <ele>176.612</ele>
        <time>2013-10-27T09:03:11Z</time>
      </trkpt>
      <trkpt lat="41.297283" lon="1.872598">
        <ele>175.618</ele>
        <time>2013-10-27T09:03:12Z</time>
      </trkpt>
      <trkpt lat="41.297225" lon="1.872530">
        <ele>175.062</ele>
        <time>2013-10-27T09:03:13Z</time>
      </trkpt>
      <trkpt lat="41.297177" lon="1.872457">
        <ele>175.064</ele>
        <time>2013-10-27T09:03:14Z</time>
      </trkpt>
      <trkpt lat="41.297095" lon="1.872305">
        <ele>175.006</ele>
        <time>2013-10-27T09:03:16Z</time>
      </trkpt>
      <trkpt lat="41.296948" lon="1.871977">
        <ele>175.016</ele>
        <time>2013-10-27T09:03:20Z</time>
      </trkpt>
      <trkpt lat="41.296828" lon="1.871570">
        <ele>174.608</ele>
        <time>2013-10-27T09:03:24Z</time>
      </trkpt>
      <trkpt lat="41.296807" lon="1.871455">
        <ele>174.277</ele>
        <time>2013-10-27T09:03:25Z</time>
      </trkpt>
      <trkpt lat="41.296787" lon="1.871337">
        <ele>173.890</ele>
        <time>2013-10-27T09:03:26Z</time>
      </trkpt>
      <trkpt lat="41.296767" lon="1.871213">
        <ele>173.472</ele>
        <time>2013-10-27T09:03:27Z</time>
      </trkpt>
      <trkpt lat="41.296750" lon="1.871077">
        <ele>172.868</ele>
        <time>2013-10-27T09:03:28Z</time>
      </trkpt>
      <trkpt lat="41.296738" lon="1.870950">
        <ele>172.480</ele>
        <time>2013-10-27T09:03:29Z</time>
      </trkpt>
      <trkpt lat="41.296727" lon="1.870828">
        <ele>171.471</ele>
        <time>2013-10-27T09:03:30Z</time>
      </trkpt>
      <trkpt lat="41.296712" lon="1.870713">
        <ele>170.677</ele>
        <time>2013-10-27T09:03:31Z</time>
      </trkpt>
      <trkpt lat="41.296695" lon="1.870598">
        <ele>169.811</ele>
        <time>2013-10-27T09:03:32Z</time>
      </trkpt>
      <trkpt lat="41.296690" lon="1.870488">
        <ele>168.898</ele>
        <time>2013-10-27T09:03:33Z</time>
      </trkpt>
      <trkpt lat="41.296687" lon="1.870392">
        <ele>167.815</ele>
        <time>2013-10-27T09:03:34Z</time>
      </trkpt>
      <trkpt lat="41.296678" lon="1.870318">
        <ele>166.826</ele>
        <time>2013-10-27T09:03:35Z</time>
      </trkpt>
      <trkpt lat="41.296662" lon="1.870262">
        <ele>165.808</ele>
        <time>2013-10-27T09:03:36Z</time>
      </trkpt>
      <trkpt lat="41.296640" lon="1.870222">
        <ele>164.820</ele>
        <time>2013-10-27T09:03:37Z</time>
      </trkpt>
      <trkpt lat="41.296622" lon="1.870188">
        <ele>164.853</ele>
        <time>2013-10-27T09:03:38Z</time>
      </trkpt>
      <trkpt lat="41.296505" lon="1.870125">
        <ele>164.835</ele>
        <time>2013-10-27T09:03:42Z</time>
      </trkpt>
      <trkpt lat="41.296295" lon="1.870107">
        <ele>164.821</ele>
        <time>2013-10-27T09:03:48Z</time>
      </trkpt>
      <trkpt lat="41.296232" lon="1.870107">
        <ele>165.263</ele>
        <time>2013-10-27T09:03:50Z</time>
      </trkpt>
      <trkpt lat="41.296200" lon="1.870100">
        <ele>165.644</ele>
        <time>2013-10-27T09:03:51Z</time>
      </trkpt>
      <trkpt lat="41.296173" lon="1.870085">
        <ele>166.270</ele>
        <time>2013-10-27T09:03:52Z</time>
      </trkpt>
      <trkpt lat="41.296148" lon="1.870065">
        <ele>166.634</ele>
        <time>2013-10-27T09:03:53Z</time>
      </trkpt>
      <trkpt lat="41.296128" lon="1.870045">
        <ele>167.089</ele>
        <time>2013-10-27T09:03:54Z</time>
      </trkpt>
      <trkpt lat="41.296080" lon="1.870018">
        <ele>167.406</ele>
        <time>2013-10-27T09:03:56Z</time>
      </trkpt>
      <trkpt lat="41.296055" lon="1.870008">
        <ele>167.826</ele>
        <time>2013-10-27T09:03:57Z</time>
      </trkpt>
      <trkpt lat="41.296030" lon="1.869987">
        <ele>168.208</ele>
        <time>2013-10-27T09:03:58Z</time>
      </trkpt>
      <trkpt lat="41.296008" lon="1.869967">
        <ele>168.819</ele>
        <time>2013-10-27T09:04:00Z</time>
      </trkpt>
      <trkpt lat="41.295982" lon="1.869947">
        <ele>169.252</ele>
        <time>2013-10-27T09:04:00Z</time>
      </trkpt>
      <trkpt lat="41.295923" lon="1.869908">
        <ele>169.654</ele>
        <time>2013-10-27T09:04:02Z</time>
      </trkpt>
      <trkpt lat="41.295898" lon="1.869893">
        <ele>170.010</ele>
        <time>2013-10-27T09:04:03Z</time>
      </trkpt>
      <trkpt lat="41.295872" lon="1.869877">
        <ele>170.622</ele>
        <time>2013-10-27T09:04:04Z</time>
      </trkpt>
      <trkpt lat="41.295845" lon="1.869860">
        <ele>171.013</ele>
        <time>2013-10-27T09:04:05Z</time>
      </trkpt>
      <trkpt lat="41.295817" lon="1.869840">
        <ele>171.439</ele>
        <time>2013-10-27T09:04:06Z</time>
      </trkpt>
      <trkpt lat="41.295752" lon="1.869772">
        <ele>171.493</ele>
        <time>2013-10-27T09:04:09Z</time>
      </trkpt>
      <trkpt lat="41.295712" lon="1.869727">
        <ele>171.474</ele>
        <time>2013-10-27T09:04:11Z</time>
      </trkpt>
      <trkpt lat="41.295692" lon="1.869703">
        <ele>171.856</ele>
        <time>2013-10-27T09:04:12Z</time>
      </trkpt>
      <trkpt lat="41.295670" lon="1.869677">
        <ele>172.221</ele>
        <time>2013-10-27T09:04:13Z</time>
      </trkpt>
      <trkpt lat="41.295652" lon="1.869650">
        <ele>172.608</ele>
        <time>2013-10-27T09:04:14Z</time>
      </trkpt>
      <trkpt lat="41.295632" lon="1.869623">
        <ele>173.098</ele>
        <time>2013-10-27T09:04:15Z</time>
      </trkpt>
      <trkpt lat="41.295610" lon="1.869597">
        <ele>173.641</ele>
        <time>2013-10-27T09:04:16Z</time>
      </trkpt>
      <trkpt lat="41.295572" lon="1.869552">
        <ele>173.673</ele>
        <time>2013-10-27T09:04:18Z</time>
      </trkpt>
      <trkpt lat="41.295430" lon="1.869387">
        <ele>173.659</ele>
        <time>2013-10-27T09:04:24Z</time>
      </trkpt>
      <trkpt lat="41.295203" lon="1.869132">
        <ele>173.651</ele>
        <time>2013-10-27T09:04:30Z</time>
      </trkpt>
      <trkpt lat="41.294997" lon="1.868808">
        <ele>173.062</ele>
        <time>2013-10-27T09:04:35Z</time>
      </trkpt>
      <trkpt lat="41.294965" lon="1.868718">
        <ele>172.678</ele>
        <time>2013-10-27T09:04:36Z</time>
      </trkpt>
      <trkpt lat="41.294947" lon="1.868637">
        <ele>172.222</ele>
        <time>2013-10-27T09:04:37Z</time>
      </trkpt>
      <trkpt lat="41.294932" lon="1.868565">
        <ele>171.813</ele>
        <time>2013-10-27T09:04:38Z</time>
      </trkpt>
      <trkpt lat="41.294913" lon="1.868505">
        <ele>171.443</ele>
        <time>2013-10-27T09:04:39Z</time>
      </trkpt>
      <trkpt lat="41.294872" lon="1.868348">
        <ele>171.407</ele>
        <time>2013-10-27T09:04:43Z</time>
      </trkpt>
      <trkpt lat="41.294853" lon="1.868285">
        <ele>171.408</ele>
        <time>2013-10-27T09:04:45Z</time>
      </trkpt>
      <trkpt lat="41.294837" lon="1.868220">
        <ele>171.482</ele>
        <time>2013-10-27T09:04:47Z</time>
      </trkpt>
      <trkpt lat="41.294820" lon="1.868153">
        <ele>171.455</ele>
        <time>2013-10-27T09:04:49Z</time>
      </trkpt>
      <trkpt lat="41.294807" lon="1.868080">
        <ele>171.477</ele>
        <time>2013-10-27T09:04:51Z</time>
      </trkpt>
      <trkpt lat="41.294800" lon="1.868010">
        <ele>171.493</ele>
        <time>2013-10-27T09:04:53Z</time>
      </trkpt>
      <trkpt lat="41.294792" lon="1.867822">
        <ele>171.425</ele>
        <time>2013-10-27T09:05:00Z</time>
      </trkpt>
      <trkpt lat="41.294788" lon="1.867773">
        <ele>171.836</ele>
        <time>2013-10-27T09:05:01Z</time>
      </trkpt>
      <trkpt lat="41.294787" lon="1.867752">
        <ele>172.252</ele>
        <time>2013-10-27T09:05:02Z</time>
      </trkpt>
      <trkpt lat="41.294788" lon="1.867730">
        <ele>172.656</ele>
        <time>2013-10-27T09:05:03Z</time>
      </trkpt>
      <trkpt lat="41.294790" lon="1.867707">
        <ele>173.052</ele>
        <time>2013-10-27T09:05:04Z</time>
      </trkpt>
      <trkpt lat="41.294793" lon="1.867680">
        <ele>173.453</ele>
        <time>2013-10-27T09:05:05Z</time>
      </trkpt>
      <trkpt lat="41.294800" lon="1.867550">
        <ele>173.808</ele>
        <time>2013-10-27T09:05:10Z</time>
      </trkpt>
      <trkpt lat="41.294803" lon="1.867523">
        <ele>174.208</ele>
        <time>2013-10-27T09:05:11Z</time>
      </trkpt>
      <trkpt lat="41.294812" lon="1.867497">
        <ele>174.646</ele>
        <time>2013-10-27T09:05:12Z</time>
      </trkpt>
      <trkpt lat="41.294810" lon="1.867470">
        <ele>175.079</ele>
        <time>2013-10-27T09:05:13Z</time>
      </trkpt>
      <trkpt lat="41.294810" lon="1.867443">
        <ele>175.671</ele>
        <time>2013-10-27T09:05:14Z</time>
      </trkpt>
      <trkpt lat="41.294815" lon="1.867375">
        <ele>176.067</ele>
        <time>2013-10-27T09:05:17Z</time>
      </trkpt>
      <trkpt lat="41.294812" lon="1.867357">
        <ele>176.479</ele>
        <time>2013-10-27T09:05:18Z</time>
      </trkpt>
      <trkpt lat="41.294812" lon="1.867337">
        <ele>176.820</ele>
        <time>2013-10-27T09:05:19Z</time>
      </trkpt>
      <trkpt lat="41.294808" lon="1.867315">
        <ele>177.276</ele>
        <time>2013-10-27T09:05:20Z</time>
      </trkpt>
      <trkpt lat="41.294808" lon="1.867295">
        <ele>177.610</ele>
        <time>2013-10-27T09:05:21Z</time>
      </trkpt>
      <trkpt lat="41.294803" lon="1.867230">
        <ele>178.099</ele>
        <time>2013-10-27T09:05:24Z</time>
      </trkpt>
      <trkpt lat="41.294805" lon="1.867210">
        <ele>178.407</ele>
        <time>2013-10-27T09:05:25Z</time>
      </trkpt>
      <trkpt lat="41.294805" lon="1.867190">
        <ele>179.027</ele>
        <time>2013-10-27T09:05:26Z</time>
      </trkpt>
      <trkpt lat="41.294808" lon="1.867168">
        <ele>179.408</ele>
        <time>2013-10-27T09:05:27Z</time>
      </trkpt>
      <trkpt lat="41.294807" lon="1.867143">
        <ele>179.890</ele>
        <time>2013-10-27T09:05:28Z</time>
      </trkpt>
      <trkpt lat="41.294803" lon="1.867060">
        <ele>180.233</ele>
        <time>2013-10-27T09:05:31Z</time>
      </trkpt>
      <trkpt lat="41.294800" lon="1.867032">
        <ele>180.665</ele>
        <time>2013-10-27T09:05:32Z</time>
      </trkpt>
      <trkpt lat="41.294793" lon="1.867007">
        <ele>181.051</ele>
        <time>2013-10-27T09:05:33Z</time>
      </trkpt>
      <trkpt lat="41.294792" lon="1.866987">
        <ele>181.673</ele>
        <time>2013-10-27T09:05:34Z</time>
      </trkpt>
      <trkpt lat="41.294787" lon="1.866965">
        <ele>182.064</ele>
        <time>2013-10-27T09:05:35Z</time>
      </trkpt>
      <trkpt lat="41.294778" lon="1.866923">
        <ele>182.070</ele>
        <time>2013-10-27T09:05:37Z</time>
      </trkpt>
      <trkpt lat="41.294762" lon="1.866817">
        <ele>182.484</ele>
        <time>2013-10-27T09:05:41Z</time>
      </trkpt>
      <trkpt lat="41.294758" lon="1.866793">
        <ele>182.896</ele>
        <time>2013-10-27T09:05:42Z</time>
      </trkpt>
      <trkpt lat="41.294763" lon="1.866768">
        <ele>183.231</ele>
        <time>2013-10-27T09:05:43Z</time>
      </trkpt>
      <trkpt lat="41.294762" lon="1.866735">
        <ele>183.624</ele>
        <time>2013-10-27T09:05:44Z</time>
      </trkpt>
      <trkpt lat="41.294755" lon="1.866702">
        <ele>184.008</ele>
        <time>2013-10-27T09:05:45Z</time>
      </trkpt>
      <trkpt lat="41.294750" lon="1.866667">
        <ele>184.020</ele>
        <time>2013-10-27T09:05:46Z</time>
      </trkpt>
      <trkpt lat="41.294727" lon="1.866608">
        <ele>184.413</ele>
        <time>2013-10-27T09:05:48Z</time>
      </trkpt>
      <trkpt lat="41.294715" lon="1.866585">
        <ele>184.875</ele>
        <time>2013-10-27T09:05:49Z</time>
      </trkpt>
      <trkpt lat="41.294702" lon="1.866558">
        <ele>185.261</ele>
        <time>2013-10-27T09:05:50Z</time>
      </trkpt>
      <trkpt lat="41.294688" lon="1.866532">
        <ele>185.613</ele>
        <time>2013-10-27T09:05:51Z</time>
      </trkpt>
      <trkpt lat="41.294678" lon="1.866508">
        <ele>186.094</ele>
        <time>2013-10-27T09:05:52Z</time>
      </trkpt>
      <trkpt lat="41.294598" lon="1.866370">
        <ele>186.010</ele>
        <time>2013-10-27T09:05:58Z</time>
      </trkpt>
      <trkpt lat="41.294503" lon="1.866252">
        <ele>186.064</ele>
        <time>2013-10-27T09:06:04Z</time>
      </trkpt>
      <trkpt lat="41.294327" lon="1.866162">
        <ele>186.015</ele>
        <time>2013-10-27T09:06:11Z</time>
      </trkpt>
      <trkpt lat="41.294208" lon="1.866102">
        <ele>186.065</ele>
        <time>2013-10-27T09:06:14Z</time>
      </trkpt>
      <trkpt lat="41.294127" lon="1.866047">
        <ele>186.011</ele>
        <time>2013-10-27T09:06:16Z</time>
      </trkpt>
      <trkpt lat="41.293925" lon="1.865855">
        <ele>186.008</ele>
        <time>2013-10-27T09:06:21Z</time>
      </trkpt>
      <trkpt lat="41.293888" lon="1.865795">
        <ele>186.082</ele>
        <time>2013-10-27T09:06:22Z</time>
      </trkpt>
      <trkpt lat="41.293842" lon="1.865673">
        <ele>186.095</ele>
        <time>2013-10-27T09:06:24Z</time>
      </trkpt>
      <trkpt lat="41.293813" lon="1.865547">
        <ele>186.077</ele>
        <time>2013-10-27T09:06:26Z</time>
      </trkpt>
      <trkpt lat="41.293830" lon="1.865342">
        <ele>186.013</ele>
        <time>2013-10-27T09:06:30Z</time>
      </trkpt>
      <trkpt lat="41.293842" lon="1.865295">
        <ele>186.035</ele>
        <time>2013-10-27T09:06:31Z</time>
      </trkpt>
      <trkpt lat="41.293882" lon="1.865158">
        <ele>186.426</ele>
        <time>2013-10-27T09:06:34Z</time>
      </trkpt>
      <trkpt lat="41.293898" lon="1.865113">
        <ele>186.812</ele>
        <time>2013-10-27T09:06:35Z</time>
      </trkpt>
      <trkpt lat="41.293917" lon="1.865065">
        <ele>187.486</ele>
        <time>2013-10-27T09:06:36Z</time>
      </trkpt>
      <trkpt lat="41.293935" lon="1.865017">
        <ele>187.845</ele>
        <time>2013-10-27T09:06:37Z</time>
      </trkpt>
      <trkpt lat="41.293950" lon="1.864970">
        <ele>188.247</ele>
        <time>2013-10-27T09:06:38Z</time>
      </trkpt>
      <trkpt lat="41.294053" lon="1.864580">
        <ele>188.611</ele>
        <time>2013-10-27T09:06:46Z</time>
      </trkpt>
      <trkpt lat="41.294068" lon="1.864532">
        <ele>189.008</ele>
        <time>2013-10-27T09:06:47Z</time>
      </trkpt>
      <trkpt lat="41.294083" lon="1.864485">
        <ele>189.495</ele>
        <time>2013-10-27T09:06:48Z</time>
      </trkpt>
      <trkpt lat="41.294098" lon="1.864438">
        <ele>190.238</ele>
        <time>2013-10-27T09:06:49Z</time>
      </trkpt>
      <trkpt lat="41.294155" lon="1.864180">
        <ele>190.240</ele>
        <time>2013-10-27T09:06:55Z</time>
      </trkpt>
      <trkpt lat="41.294193" lon="1.864050">
        <ele>190.226</ele>
        <time>2013-10-27T09:07:00Z</time>
      </trkpt>
      <trkpt lat="41.294215" lon="1.863972">
        <ele>190.258</ele>
        <time>2013-10-27T09:07:03Z</time>
      </trkpt>
      <trkpt lat="41.294233" lon="1.863897">
        <ele>190.219</ele>
        <time>2013-10-27T09:07:06Z</time>
      </trkpt>
      <trkpt lat="41.294257" lon="1.863825">
        <ele>190.245</ele>
        <time>2013-10-27T09:07:09Z</time>
      </trkpt>
      <trkpt lat="41.294287" lon="1.863728">
        <ele>190.299</ele>
        <time>2013-10-27T09:07:13Z</time>
      </trkpt>
      <trkpt lat="41.294312" lon="1.863673">
        <ele>190.213</ele>
        <time>2013-10-27T09:07:15Z</time>
      </trkpt>
      <trkpt lat="41.294338" lon="1.863618">
        <ele>190.643</ele>
        <time>2013-10-27T09:07:17Z</time>
      </trkpt>
      <trkpt lat="41.294350" lon="1.863592">
        <ele>191.007</ele>
        <time>2013-10-27T09:07:18Z</time>
      </trkpt>
      <trkpt lat="41.294367" lon="1.863568">
        <ele>191.608</ele>
        <time>2013-10-27T09:07:19Z</time>
      </trkpt>
      <trkpt lat="41.294382" lon="1.863542">
        <ele>192.092</ele>
        <time>2013-10-27T09:07:20Z</time>
      </trkpt>
      <trkpt lat="41.294398" lon="1.863510">
        <ele>192.465</ele>
        <time>2013-10-27T09:07:21Z</time>
      </trkpt>
      <trkpt lat="41.294417" lon="1.863482">
        <ele>192.427</ele>
        <time>2013-10-27T09:07:22Z</time>
      </trkpt>
      <trkpt lat="41.294528" lon="1.863315">
        <ele>192.493</ele>
        <time>2013-10-27T09:07:28Z</time>
      </trkpt>
      <trkpt lat="41.294568" lon="1.863255">
        <ele>192.835</ele>
        <time>2013-10-27T09:07:30Z</time>
      </trkpt>
      <trkpt lat="41.294590" lon="1.863227">
        <ele>193.276</ele>
        <time>2013-10-27T09:07:31Z</time>
      </trkpt>
      <trkpt lat="41.294610" lon="1.863200">
        <ele>193.622</ele>
        <time>2013-10-27T09:07:32Z</time>
      </trkpt>
      <trkpt lat="41.294632" lon="1.863170">
        <ele>194.066</ele>
        <time>2013-10-27T09:07:33Z</time>
      </trkpt>
      <trkpt lat="41.294652" lon="1.863140">
        <ele>194.443</ele>
        <time>2013-10-27T09:07:34Z</time>
      </trkpt>
      <trkpt lat="41.294672" lon="1.863107">
        <ele>194.464</ele>
        <time>2013-10-27T09:07:35Z</time>
      </trkpt>
      <trkpt lat="41.294793" lon="1.862935">
        <ele>194.410</ele>
        <time>2013-10-27T09:07:41Z</time>
      </trkpt>
      <trkpt lat="41.294945" lon="1.862723">
        <ele>194.408</ele>
        <time>2013-10-27T09:07:48Z</time>
      </trkpt>
      <trkpt lat="41.295018" lon="1.862633">
        <ele>194.415</ele>
        <time>2013-10-27T09:07:51Z</time>
      </trkpt>
      <trkpt lat="41.295117" lon="1.862470">
        <ele>194.498</ele>
        <time>2013-10-27T09:07:55Z</time>
      </trkpt>
      <trkpt lat="41.295192" lon="1.862337">
        <ele>194.460</ele>
        <time>2013-10-27T09:07:58Z</time>
      </trkpt>
      <trkpt lat="41.295268" lon="1.862190">
        <ele>194.476</ele>
        <time>2013-10-27T09:08:01Z</time>
      </trkpt>
      <trkpt lat="41.295332" lon="1.862035">
        <ele>194.428</ele>
        <time>2013-10-27T09:08:04Z</time>
      </trkpt>
      <trkpt lat="41.295378" lon="1.861942">
        <ele>194.439</ele>
        <time>2013-10-27T09:08:06Z</time>
      </trkpt>
      <trkpt lat="41.295440" lon="1.861807">
        <ele>194.465</ele>
        <time>2013-10-27T09:08:09Z</time>
      </trkpt>
      <trkpt lat="41.295462" lon="1.861763">
        <ele>194.499</ele>
        <time>2013-10-27T09:08:10Z</time>
      </trkpt>
      <trkpt lat="41.295513" lon="1.861628">
        <ele>194.446</ele>
        <time>2013-10-27T09:08:13Z</time>
      </trkpt>
      <trkpt lat="41.295530" lon="1.861583">
        <ele>194.488</ele>
        <time>2013-10-27T09:08:14Z</time>
      </trkpt>
      <trkpt lat="41.295562" lon="1.861507">
        <ele>194.416</ele>
        <time>2013-10-27T09:08:16Z</time>
      </trkpt>
      <trkpt lat="41.295573" lon="1.861462">
        <ele>194.408</ele>
        <time>2013-10-27T09:08:17Z</time>
      </trkpt>
      <trkpt lat="41.295603" lon="1.861373">
        <ele>194.445</ele>
        <time>2013-10-27T09:08:19Z</time>
      </trkpt>
      <trkpt lat="41.295660" lon="1.861242">
        <ele>194.488</ele>
        <time>2013-10-27T09:08:22Z</time>
      </trkpt>
      <trkpt lat="41.295675" lon="1.861198">
        <ele>194.410</ele>
        <time>2013-10-27T09:08:23Z</time>
      </trkpt>
      <trkpt lat="41.295758" lon="1.861048">
        <ele>194.446</ele>
        <time>2013-10-27T09:08:27Z</time>
      </trkpt>
      <trkpt lat="41.295835" lon="1.860925">
        <ele>194.048</ele>
        <time>2013-10-27T09:08:30Z</time>
      </trkpt>
      <trkpt lat="41.295868" lon="1.860880">
        <ele>193.659</ele>
        <time>2013-10-27T09:08:31Z</time>
      </trkpt>
      <trkpt lat="41.295902" lon="1.860828">
        <ele>193.285</ele>
        <time>2013-10-27T09:08:32Z</time>
      </trkpt>
      <trkpt lat="41.295938" lon="1.860778">
        <ele>192.849</ele>
        <time>2013-10-27T09:08:33Z</time>
      </trkpt>
      <trkpt lat="41.295978" lon="1.860727">
        <ele>192.479</ele>
        <time>2013-10-27T09:08:34Z</time>
      </trkpt>
      <trkpt lat="41.296022" lon="1.860672">
        <ele>192.405</ele>
        <time>2013-10-27T09:08:35Z</time>
      </trkpt>
      <trkpt lat="41.296127" lon="1.860537">
        <ele>191.825</ele>
        <time>2013-10-27T09:08:37Z</time>
      </trkpt>
      <trkpt lat="41.296178" lon="1.860460">
        <ele>191.208</ele>
        <time>2013-10-27T09:08:38Z</time>
      </trkpt>
      <trkpt lat="41.296223" lon="1.860380">
        <ele>190.458</ele>
        <time>2013-10-27T09:08:39Z</time>
      </trkpt>
      <trkpt lat="41.296263" lon="1.860295">
        <ele>189.691</ele>
        <time>2013-10-27T09:08:40Z</time>
      </trkpt>
      <trkpt lat="41.296290" lon="1.860215">
        <ele>188.613</ele>
        <time>2013-10-27T09:08:41Z</time>
      </trkpt>
      <trkpt lat="41.296303" lon="1.860137">
        <ele>187.839</ele>
        <time>2013-10-27T09:08:42Z</time>
      </trkpt>
      <trkpt lat="41.296290" lon="1.860067">
        <ele>186.821</ele>
        <time>2013-10-27T09:08:43Z</time>
      </trkpt>
      <trkpt lat="41.296255" lon="1.860017">
        <ele>186.262</ele>
        <time>2013-10-27T09:08:44Z</time>
      </trkpt>
      <trkpt lat="41.296207" lon="1.859997">
        <ele>185.668</ele>
        <time>2013-10-27T09:08:45Z</time>
      </trkpt>
      <trkpt lat="41.296157" lon="1.860002">
        <ele>185.032</ele>
        <time>2013-10-27T09:08:46Z</time>
      </trkpt>
      <trkpt lat="41.296112" lon="1.860035">
        <ele>184.476</ele>
        <time>2013-10-27T09:08:47Z</time>
      </trkpt>
      <trkpt lat="41.296068" lon="1.860070">
        <ele>183.890</ele>
        <time>2013-10-27T09:08:48Z</time>
      </trkpt>
      <trkpt lat="41.296020" lon="1.860095">
        <ele>183.819</ele>
        <time>2013-10-27T09:08:49Z</time>
      </trkpt>
      <trkpt lat="41.295972" lon="1.860123">
        <ele>183.808</ele>
        <time>2013-10-27T09:08:50Z</time>
      </trkpt>
      <trkpt lat="41.295758" lon="1.860220">
        <ele>183.888</ele>
        <time>2013-10-27T09:08:54Z</time>
      </trkpt>
      <trkpt lat="41.295652" lon="1.860247">
        <ele>183.441</ele>
        <time>2013-10-27T09:08:56Z</time>
      </trkpt>
      <trkpt lat="41.295598" lon="1.860260">
        <ele>183.053</ele>
        <time>2013-10-27T09:08:57Z</time>
      </trkpt>
      <trkpt lat="41.295542" lon="1.860267">
        <ele>182.679</ele>
        <time>2013-10-27T09:08:58Z</time>
      </trkpt>
      <trkpt lat="41.295485" lon="1.860263">
        <ele>182.081</ele>
        <time>2013-10-27T09:09:00Z</time>
      </trkpt>
      <trkpt lat="41.295430" lon="1.860262">
        <ele>181.622</ele>
        <time>2013-10-27T09:09:00Z</time>
      </trkpt>
      <trkpt lat="41.295318" lon="1.860253">
        <ele>181.688</ele>
        <time>2013-10-27T09:09:02Z</time>
      </trkpt>
      <trkpt lat="41.295145" lon="1.860230">
        <ele>181.272</ele>
        <time>2013-10-27T09:09:05Z</time>
      </trkpt>
      <trkpt lat="41.295080" lon="1.860217">
        <ele>180.871</ele>
        <time>2013-10-27T09:09:06Z</time>
      </trkpt>
      <trkpt lat="41.295022" lon="1.860197">
        <ele>180.441</ele>
        <time>2013-10-27T09:09:07Z</time>
      </trkpt>
      <trkpt lat="41.294965" lon="1.860172">
        <ele>180.015</ele>
        <time>2013-10-27T09:09:08Z</time>
      </trkpt>
      <trkpt lat="41.294912" lon="1.860158">
        <ele>179.608</ele>
        <time>2013-10-27T09:09:09Z</time>
      </trkpt>
      <trkpt lat="41.294805" lon="1.860148">
        <ele>179.698</ele>
        <time>2013-10-27T09:09:11Z</time>
      </trkpt>
      <trkpt lat="41.294748" lon="1.860163">
        <ele>179.681</ele>
        <time>2013-10-27T09:09:12Z</time>
      </trkpt>
      <trkpt lat="41.294688" lon="1.860190">
        <ele>179.673</ele>
        <time>2013-10-27T09:09:13Z</time>
      </trkpt>
      <trkpt lat="41.294577" lon="1.860273">
        <ele>179.079</ele>
        <time>2013-10-27T09:09:15Z</time>
      </trkpt>
      <trkpt lat="41.294518" lon="1.860322">
        <ele>178.611</ele>
        <time>2013-10-27T09:09:16Z</time>
      </trkpt>
      <trkpt lat="41.294458" lon="1.860378">
        <ele>177.812</ele>
        <time>2013-10-27T09:09:17Z</time>
      </trkpt>
      <trkpt lat="41.294398" lon="1.860445">
        <ele>177.498</ele>
        <time>2013-10-27T09:09:18Z</time>
      </trkpt>
      <trkpt lat="41.294337" lon="1.860522">
        <ele>176.842</ele>
        <time>2013-10-27T09:09:19Z</time>
      </trkpt>
      <trkpt lat="41.294280" lon="1.860613">
        <ele>176.468</ele>
        <time>2013-10-27T09:09:20Z</time>
      </trkpt>
      <trkpt lat="41.294225" lon="1.860720">
        <ele>176.042</ele>
        <time>2013-10-27T09:09:21Z</time>
      </trkpt>
      <trkpt lat="41.294158" lon="1.860818">
        <ele>175.426</ele>
        <time>2013-10-27T09:09:22Z</time>
      </trkpt>
      <trkpt lat="41.294075" lon="1.860912">
        <ele>175.008</ele>
        <time>2013-10-27T09:09:23Z</time>
      </trkpt>
      <trkpt lat="41.293987" lon="1.861017">
        <ele>174.427</ele>
        <time>2013-10-27T09:09:24Z</time>
      </trkpt>
      <trkpt lat="41.293900" lon="1.861135">
        <ele>174.020</ele>
        <time>2013-10-27T09:09:25Z</time>
      </trkpt>
      <trkpt lat="41.293810" lon="1.861253">
        <ele>173.042</ele>
        <time>2013-10-27T09:09:26Z</time>
      </trkpt>
      <trkpt lat="41.293715" lon="1.861375">
        <ele>172.058</ele>
        <time>2013-10-27T09:09:27Z</time>
      </trkpt>
      <trkpt lat="41.293613" lon="1.861497">
        <ele>170.860</ele>
        <time>2013-10-27T09:09:28Z</time>
      </trkpt>
      <trkpt lat="41.293513" lon="1.861597">
        <ele>169.211</ele>
        <time>2013-10-27T09:09:29Z</time>
      </trkpt>
      <trkpt lat="41.293415" lon="1.861677">
        <ele>167.697</ele>
        <time>2013-10-27T09:09:30Z</time>
      </trkpt>
      <trkpt lat="41.293317" lon="1.861727">
        <ele>165.891</ele>
        <time>2013-10-27T09:09:31Z</time>
      </trkpt>
      <trkpt lat="41.293228" lon="1.861722">
        <ele>163.884</ele>
        <time>2013-10-27T09:09:32Z</time>
      </trkpt>
      <trkpt lat="41.293157" lon="1.861677">
        <ele>162.007</ele>
        <time>2013-10-27T09:09:33Z</time>
      </trkpt>
      <trkpt lat="41.293100" lon="1.861585">
        <ele>160.217</ele>
        <time>2013-10-27T09:09:34Z</time>
      </trkpt>
      <trkpt lat="41.293083" lon="1.861492">
        <ele>158.608</ele>
        <time>2013-10-27T09:09:35Z</time>
      </trkpt>
      <trkpt lat="41.293092" lon="1.861408">
        <ele>156.849</ele>
        <time>2013-10-27T09:09:36Z</time>
      </trkpt>
      <trkpt lat="41.293113" lon="1.861335">
        <ele>155.222</ele>
        <time>2013-10-27T09:09:37Z</time>
      </trkpt>
      <trkpt lat="41.293127" lon="1.861273">
        <ele>153.644</ele>
        <time>2013-10-27T09:09:38Z</time>
      </trkpt>
      <trkpt lat="41.293148" lon="1.861170">
        <ele>153.630</ele>
        <time>2013-10-27T09:09:40Z</time>
      </trkpt>
      <trkpt lat="41.293158" lon="1.861128">
        <ele>153.622</ele>
        <time>2013-10-27T09:09:41Z</time>
      </trkpt>
      <trkpt lat="41.293183" lon="1.860962">
        <ele>153.673</ele>
        <time>2013-10-27T09:09:45Z</time>
      </trkpt>
      <trkpt lat="41.293197" lon="1.860833">
        <ele>153.689</ele>
        <time>2013-10-27T09:09:48Z</time>
      </trkpt>
      <trkpt lat="41.293198" lon="1.860790">
        <ele>154.053</ele>
        <time>2013-10-27T09:09:49Z</time>
      </trkpt>
      <trkpt lat="41.293203" lon="1.860745">
        <ele>154.444</ele>
        <time>2013-10-27T09:09:50Z</time>
      </trkpt>
      <trkpt lat="41.293210" lon="1.860700">
        <ele>154.805</ele>
        <time>2013-10-27T09:09:51Z</time>
      </trkpt>
      <trkpt lat="41.293215" lon="1.860660">
        <ele>155.215</ele>
        <time>2013-10-27T09:09:52Z</time>
      </trkpt>
      <trkpt lat="41.293217" lon="1.860620">
        <ele>155.608</ele>
        <time>2013-10-27T09:09:53Z</time>
      </trkpt>
      <trkpt lat="41.293230" lon="1.860533">
        <ele>155.695</ele>
        <time>2013-10-27T09:09:55Z</time>
      </trkpt>
      <trkpt lat="41.293238" lon="1.860452">
        <ele>155.668</ele>
        <time>2013-10-27T09:09:57Z</time>
      </trkpt>
      <trkpt lat="41.293243" lon="1.860368">
        <ele>156.020</ele>
        <time>2013-10-27T09:10:00Z</time>
      </trkpt>
      <trkpt lat="41.293245" lon="1.860330">
        <ele>156.426</ele>
        <time>2013-10-27T09:10:00Z</time>
      </trkpt>
      <trkpt lat="41.293248" lon="1.860293">
        <ele>156.878</ele>
        <time>2013-10-27T09:10:01Z</time>
      </trkpt>
      <trkpt lat="41.293252" lon="1.860253">
        <ele>157.269</ele>
        <time>2013-10-27T09:10:02Z</time>
      </trkpt>
      <trkpt lat="41.293255" lon="1.860217">
        <ele>157.885</ele>
        <time>2013-10-27T09:10:03Z</time>
      </trkpt>
      <trkpt lat="41.293272" lon="1.860103">
        <ele>157.879</ele>
        <time>2013-10-27T09:10:06Z</time>
      </trkpt>
      <trkpt lat="41.293275" lon="1.859993">
        <ele>157.869</ele>
        <time>2013-10-27T09:10:09Z</time>
      </trkpt>
      <trkpt lat="41.293275" lon="1.859923">
        <ele>157.804</ele>
        <time>2013-10-27T09:10:11Z</time>
      </trkpt>
      <trkpt lat="41.293275" lon="1.859853">
        <ele>158.224</ele>
        <time>2013-10-27T09:10:13Z</time>
      </trkpt>
      <trkpt lat="41.293273" lon="1.859817">
        <ele>158.608</ele>
        <time>2013-10-27T09:10:14Z</time>
      </trkpt>
      <trkpt lat="41.293278" lon="1.859780">
        <ele>159.097</ele>
        <time>2013-10-27T09:10:15Z</time>
      </trkpt>
      <trkpt lat="41.293278" lon="1.859743">
        <ele>159.430</ele>
        <time>2013-10-27T09:10:16Z</time>
      </trkpt>
      <trkpt lat="41.293273" lon="1.859708">
        <ele>159.882</ele>
        <time>2013-10-27T09:10:17Z</time>
      </trkpt>
      <trkpt lat="41.293277" lon="1.859538">
        <ele>159.818</ele>
        <time>2013-10-27T09:10:22Z</time>
      </trkpt>
      <trkpt lat="41.293267" lon="1.859447">
        <ele>160.240</ele>
        <time>2013-10-27T09:10:25Z</time>
      </trkpt>
      <trkpt lat="41.293258" lon="1.859418">
        <ele>160.671</ele>
        <time>2013-10-27T09:10:26Z</time>
      </trkpt>
      <trkpt lat="41.293260" lon="1.859390">
        <ele>161.047</ele>
        <time>2013-10-27T09:10:27Z</time>
      </trkpt>
      <trkpt lat="41.293253" lon="1.859368">
        <ele>161.491</ele>
        <time>2013-10-27T09:10:28Z</time>
      </trkpt>
      <trkpt lat="41.293247" lon="1.859335">
        <ele>162.086</ele>
        <time>2013-10-27T09:10:29Z</time>
      </trkpt>
      <trkpt lat="41.293210" lon="1.859238">
        <ele>162.060</ele>
        <time>2013-10-27T09:10:34Z</time>
      </trkpt>
      <trkpt lat="41.293183" lon="1.859182">
        <ele>162.426</ele>
        <time>2013-10-27T09:10:37Z</time>
      </trkpt>
      <trkpt lat="41.293175" lon="1.859167">
        <ele>162.808</ele>
        <time>2013-10-27T09:10:38Z</time>
      </trkpt>
      <trkpt lat="41.293158" lon="1.859155">
        <ele>163.219</ele>
        <time>2013-10-27T09:10:39Z</time>
      </trkpt>
      <trkpt lat="41.293150" lon="1.859135">
        <ele>163.652</ele>
        <time>2013-10-27T09:10:40Z</time>
      </trkpt>
      <trkpt lat="41.293137" lon="1.859122">
        <ele>164.044</ele>
        <time>2013-10-27T09:10:41Z</time>
      </trkpt>
      <trkpt lat="41.293125" lon="1.859090">
        <ele>164.050</ele>
        <time>2013-10-27T09:10:43Z</time>
      </trkpt>
      <trkpt lat="41.293110" lon="1.859065">
        <ele>164.012</ele>
        <time>2013-10-27T09:10:45Z</time>
      </trkpt>
      <trkpt lat="41.293090" lon="1.859043">
        <ele>164.043</ele>
        <time>2013-10-27T09:10:47Z</time>
      </trkpt>
      <trkpt lat="41.293077" lon="1.859040">
        <ele>164.429</ele>
        <time>2013-10-27T09:10:48Z</time>
      </trkpt>
      <trkpt lat="41.293065" lon="1.859037">
        <ele>164.883</ele>
        <time>2013-10-27T09:10:49Z</time>
      </trkpt>
      <trkpt lat="41.293053" lon="1.859035">
        <ele>165.221</ele>
        <time>2013-10-27T09:10:50Z</time>
      </trkpt>
      <trkpt lat="41.293042" lon="1.859033">
        <ele>165.841</ele>
        <time>2013-10-27T09:10:51Z</time>
      </trkpt>
      <trkpt lat="41.293030" lon="1.859028">
        <ele>166.205</ele>
        <time>2013-10-27T09:10:52Z</time>
      </trkpt>
      <trkpt lat="41.292993" lon="1.859030">
        <ele>166.208</ele>
        <time>2013-10-27T09:10:55Z</time>
      </trkpt>
      <trkpt lat="41.292970" lon="1.859037">
        <ele>166.283</ele>
        <time>2013-10-27T09:10:57Z</time>
      </trkpt>
      <trkpt lat="41.292928" lon="1.859038">
        <ele>166.266</ele>
        <time>2013-10-27T09:11:00Z</time>
      </trkpt>
      <trkpt lat="41.292910" lon="1.859037">
        <ele>166.258</ele>
        <time>2013-10-27T09:11:03Z</time>
      </trkpt>
      <trkpt lat="41.292910" lon="1.859035">
        <ele>166.214</ele>
        <time>2013-10-27T09:11:04Z</time>
      </trkpt>
      <trkpt lat="41.292927" lon="1.859063">
        <ele>166.696</ele>
        <time>2013-10-27T09:11:07Z</time>
      </trkpt>
      <trkpt lat="41.292953" lon="1.859077">
        <ele>167.067</ele>
        <time>2013-10-27T09:11:08Z</time>
      </trkpt>
      <trkpt lat="41.292983" lon="1.859088">
        <ele>167.473</ele>
        <time>2013-10-27T09:11:09Z</time>
      </trkpt>
      <trkpt lat="41.293023" lon="1.859103">
        <ele>167.857</ele>
        <time>2013-10-27T09:11:10Z</time>
      </trkpt>
      <trkpt lat="41.293058" lon="1.859112">
        <ele>168.267</ele>
        <time>2013-10-27T09:11:11Z</time>
      </trkpt>
      <trkpt lat="41.293085" lon="1.859080">
        <ele>168.281</ele>
        <time>2013-10-27T09:11:12Z</time>
      </trkpt>
      <trkpt lat="41.293092" lon="1.859057">
        <ele>167.819</ele>
        <time>2013-10-27T09:11:13Z</time>
      </trkpt>
      <trkpt lat="41.293093" lon="1.859038">
        <ele>167.208</ele>
        <time>2013-10-27T09:11:14Z</time>
      </trkpt>
      <trkpt lat="41.293083" lon="1.859028">
        <ele>166.867</ele>
        <time>2013-10-27T09:11:15Z</time>
      </trkpt>
      <trkpt lat="41.293080" lon="1.859030">
        <ele>166.490</ele>
        <time>2013-10-27T09:11:16Z</time>
      </trkpt>
      <trkpt lat="41.293077" lon="1.859027">
        <ele>166.012</ele>
        <time>2013-10-27T09:11:17Z</time>
      </trkpt>
      <trkpt lat="41.293072" lon="1.859013">
        <ele>166.018</ele>
        <time>2013-10-27T09:11:18Z</time>
      </trkpt>
      <trkpt lat="41.293050" lon="1.859012">
        <ele>166.090</ele>
        <time>2013-10-27T09:11:19Z</time>
      </trkpt>
      <trkpt lat="41.293008" lon="1.859047">
        <ele>166.041</ele>
        <time>2013-10-27T09:11:22Z</time>
      </trkpt>
      <trkpt lat="41.292968" lon="1.859058">
        <ele>166.027</ele>
        <time>2013-10-27T09:11:25Z</time>
      </trkpt>
      <trkpt lat="41.292932" lon="1.859057">
        <ele>166.041</ele>
        <time>2013-10-27T09:11:28Z</time>
      </trkpt>
      <trkpt lat="41.292878" lon="1.859048">
        <ele>166.495</ele>
        <time>2013-10-27T09:11:32Z</time>
      </trkpt>
      <trkpt lat="41.292863" lon="1.859048">
        <ele>166.849</ele>
        <time>2013-10-27T09:11:33Z</time>
      </trkpt>
      <trkpt lat="41.292848" lon="1.859052">
        <ele>167.223</ele>
        <time>2013-10-27T09:11:34Z</time>
      </trkpt>
      <trkpt lat="41.292835" lon="1.859055">
        <ele>167.608</ele>
        <time>2013-10-27T09:11:35Z</time>
      </trkpt>
      <trkpt lat="41.292820" lon="1.859057">
        <ele>168.030</ele>
        <time>2013-10-27T09:11:36Z</time>
      </trkpt>
      <trkpt lat="41.292797" lon="1.859055">
        <ele>168.033</ele>
        <time>2013-10-27T09:11:38Z</time>
      </trkpt>
      <trkpt lat="41.292757" lon="1.859062">
        <ele>168.675</ele>
        <time>2013-10-27T09:11:41Z</time>
      </trkpt>
      <trkpt lat="41.292742" lon="1.859062">
        <ele>169.061</ele>
        <time>2013-10-27T09:11:42Z</time>
      </trkpt>
      <trkpt lat="41.292727" lon="1.859062">
        <ele>169.413</ele>
        <time>2013-10-27T09:11:43Z</time>
      </trkpt>
      <trkpt lat="41.292713" lon="1.859062">
        <ele>169.874</ele>
        <time>2013-10-27T09:11:44Z</time>
      </trkpt>
      <trkpt lat="41.292700" lon="1.859065">
        <ele>170.220</ele>
        <time>2013-10-27T09:11:45Z</time>
      </trkpt>
      <trkpt lat="41.292670" lon="1.859082">
        <ele>170.274</ele>
        <time>2013-10-27T09:11:48Z</time>
      </trkpt>
      <trkpt lat="41.292645" lon="1.859092">
        <ele>170.267</ele>
        <time>2013-10-27T09:11:50Z</time>
      </trkpt>
      <trkpt lat="41.292638" lon="1.859098">
        <ele>170.681</ele>
        <time>2013-10-27T09:11:51Z</time>
      </trkpt>
      <trkpt lat="41.292628" lon="1.859105">
        <ele>171.019</ele>
        <time>2013-10-27T09:11:52Z</time>
      </trkpt>
      <trkpt lat="41.292618" lon="1.859108">
        <ele>171.408</ele>
        <time>2013-10-27T09:11:53Z</time>
      </trkpt>
      <trkpt lat="41.292607" lon="1.859112">
        <ele>171.867</ele>
        <time>2013-10-27T09:11:54Z</time>
      </trkpt>
      <trkpt lat="41.292595" lon="1.859118">
        <ele>172.490</ele>
        <time>2013-10-27T09:11:55Z</time>
      </trkpt>
      <trkpt lat="41.292545" lon="1.859143">
        <ele>172.862</ele>
        <time>2013-10-27T09:12:00Z</time>
      </trkpt>
      <trkpt lat="41.292535" lon="1.859148">
        <ele>173.228</ele>
        <time>2013-10-27T09:12:01Z</time>
      </trkpt>
      <trkpt lat="41.292527" lon="1.859155">
        <ele>173.660</ele>
        <time>2013-10-27T09:12:02Z</time>
      </trkpt>
      <trkpt lat="41.292515" lon="1.859160">
        <ele>174.051</ele>
        <time>2013-10-27T09:12:03Z</time>
      </trkpt>
      <trkpt lat="41.292507" lon="1.859162">
        <ele>174.447</ele>
        <time>2013-10-27T09:12:04Z</time>
      </trkpt>
      <trkpt lat="41.292500" lon="1.859165">
        <ele>174.441</ele>
        <time>2013-10-27T09:12:05Z</time>
      </trkpt>
      <trkpt lat="41.292450" lon="1.859190">
        <ele>174.454</ele>
        <time>2013-10-27T09:12:10Z</time>
      </trkpt>
      <trkpt lat="41.292443" lon="1.859183">
        <ele>174.456</ele>
        <time>2013-10-27T09:12:12Z</time>
      </trkpt>
      <trkpt lat="41.292440" lon="1.859187">
        <ele>174.411</ele>
        <time>2013-10-27T09:12:14Z</time>
      </trkpt>
      <trkpt lat="41.292413" lon="1.859207">
        <ele>174.408</ele>
        <time>2013-10-27T09:12:16Z</time>
      </trkpt>
      <trkpt lat="41.292370" lon="1.859237">
        <ele>174.836</ele>
        <time>2013-10-27T09:12:20Z</time>
      </trkpt>
      <trkpt lat="41.292350" lon="1.859242">
        <ele>175.249</ele>
        <time>2013-10-27T09:12:21Z</time>
      </trkpt>
      <trkpt lat="41.292338" lon="1.859250">
        <ele>176.081</ele>
        <time>2013-10-27T09:12:22Z</time>
      </trkpt>
      <trkpt lat="41.292327" lon="1.859262">
        <ele>176.427</ele>
        <time>2013-10-27T09:12:23Z</time>
      </trkpt>
      <trkpt lat="41.292290" lon="1.859288">
        <ele>176.429</ele>
        <time>2013-10-27T09:12:26Z</time>
      </trkpt>
      <trkpt lat="41.292278" lon="1.859298">
        <ele>177.020</ele>
        <time>2013-10-27T09:12:27Z</time>
      </trkpt>
      <trkpt lat="41.292268" lon="1.859305">
        <ele>177.466</ele>
        <time>2013-10-27T09:12:28Z</time>
      </trkpt>
      <trkpt lat="41.292258" lon="1.859317">
        <ele>177.850</ele>
        <time>2013-10-27T09:12:29Z</time>
      </trkpt>
      <trkpt lat="41.292248" lon="1.859328">
        <ele>178.229</ele>
        <time>2013-10-27T09:12:30Z</time>
      </trkpt>
      <trkpt lat="41.292242" lon="1.859340">
        <ele>178.800</ele>
        <time>2013-10-27T09:12:31Z</time>
      </trkpt>
      <trkpt lat="41.292208" lon="1.859377">
        <ele>178.820</ele>
        <time>2013-10-27T09:12:34Z</time>
      </trkpt>
      <trkpt lat="41.292177" lon="1.859407">
        <ele>179.208</ele>
        <time>2013-10-27T09:12:37Z</time>
      </trkpt>
      <trkpt lat="41.292180" lon="1.859408">
        <ele>179.613</ele>
        <time>2013-10-27T09:12:38Z</time>
      </trkpt>
      <trkpt lat="41.292170" lon="1.859433">
        <ele>180.846</ele>
        <time>2013-10-27T09:12:41Z</time>
      </trkpt>
      <trkpt lat="41.292158" lon="1.859442">
        <ele>180.838</ele>
        <time>2013-10-27T09:12:42Z</time>
      </trkpt>
      <trkpt lat="41.292117" lon="1.859443">
        <ele>180.874</ele>
        <time>2013-10-27T09:12:45Z</time>
      </trkpt>
      <trkpt lat="41.292095" lon="1.859480">
        <ele>181.266</ele>
        <time>2013-10-27T09:12:48Z</time>
      </trkpt>
      <trkpt lat="41.292090" lon="1.859492">
        <ele>181.697</ele>
        <time>2013-10-27T09:12:49Z</time>
      </trkpt>
      <trkpt lat="41.292083" lon="1.859500">
        <ele>182.073</ele>
        <time>2013-10-27T09:12:50Z</time>
      </trkpt>
      <trkpt lat="41.292077" lon="1.859510">
        <ele>182.427</ele>
        <time>2013-10-27T09:12:51Z</time>
      </trkpt>
      <trkpt lat="41.292068" lon="1.859518">
        <ele>182.865</ele>
        <time>2013-10-27T09:12:52Z</time>
      </trkpt>
      <trkpt lat="41.292018" lon="1.859555">
        <ele>182.868</ele>
        <time>2013-10-27T09:12:57Z</time>
      </trkpt>
      <trkpt lat="41.291983" lon="1.859587">
        <ele>182.814</ele>
        <time>2013-10-27T09:13:01Z</time>
      </trkpt>
      <trkpt lat="41.291953" lon="1.859617">
        <ele>182.808</ele>
        <time>2013-10-27T09:13:04Z</time>
      </trkpt>
      <trkpt lat="41.291942" lon="1.859627">
        <ele>183.437</ele>
        <time>2013-10-27T09:13:05Z</time>
      </trkpt>
      <trkpt lat="41.291927" lon="1.859635">
        <ele>183.870</ele>
        <time>2013-10-27T09:13:06Z</time>
      </trkpt>
      <trkpt lat="41.291913" lon="1.859640">
        <ele>184.242</ele>
        <time>2013-10-27T09:13:07Z</time>
      </trkpt>
      <trkpt lat="41.291902" lon="1.859650">
        <ele>184.618</ele>
        <time>2013-10-27T09:13:08Z</time>
      </trkpt>
      <trkpt lat="41.291895" lon="1.859662">
        <ele>185.050</ele>
        <time>2013-10-27T09:13:09Z</time>
      </trkpt>
      <trkpt lat="41.291888" lon="1.859672">
        <ele>185.031</ele>
        <time>2013-10-27T09:13:10Z</time>
      </trkpt>
      <trkpt lat="41.291860" lon="1.859703">
        <ele>185.037</ele>
        <time>2013-10-27T09:13:13Z</time>
      </trkpt>
      <trkpt lat="41.291842" lon="1.859725">
        <ele>185.041</ele>
        <time>2013-10-27T09:13:15Z</time>
      </trkpt>
      <trkpt lat="41.291798" lon="1.859757">
        <ele>185.486</ele>
        <time>2013-10-27T09:13:19Z</time>
      </trkpt>
      <trkpt lat="41.291790" lon="1.859765">
        <ele>185.860</ele>
        <time>2013-10-27T09:13:20Z</time>
      </trkpt>
      <trkpt lat="41.291782" lon="1.859768">
        <ele>186.226</ele>
        <time>2013-10-27T09:13:21Z</time>
      </trkpt>
      <trkpt lat="41.291770" lon="1.859770">
        <ele>186.608</ele>
        <time>2013-10-27T09:13:22Z</time>
      </trkpt>
      <trkpt lat="41.291758" lon="1.859772">
        <ele>187.089</ele>
        <time>2013-10-27T09:13:23Z</time>
      </trkpt>
      <trkpt lat="41.291720" lon="1.859810">
        <ele>187.072</ele>
        <time>2013-10-27T09:13:28Z</time>
      </trkpt>
      <trkpt lat="41.291655" lon="1.859850">
        <ele>187.024</ele>
        <time>2013-10-27T09:13:34Z</time>
      </trkpt>
      <trkpt lat="41.291642" lon="1.859858">
        <ele>187.050</ele>
        <time>2013-10-27T09:13:35Z</time>
      </trkpt>
      <trkpt lat="41.291592" lon="1.859878">
        <ele>187.432</ele>
        <time>2013-10-27T09:13:39Z</time>
      </trkpt>
      <trkpt lat="41.291582" lon="1.859885">
        <ele>187.853</ele>
        <time>2013-10-27T09:13:40Z</time>
      </trkpt>
      <trkpt lat="41.291575" lon="1.859897">
        <ele>188.239</ele>
        <time>2013-10-27T09:13:41Z</time>
      </trkpt>
      <trkpt lat="41.291567" lon="1.859907">
        <ele>188.853</ele>
        <time>2013-10-27T09:13:42Z</time>
      </trkpt>
      <trkpt lat="41.291555" lon="1.859920">
        <ele>189.274</ele>
        <time>2013-10-27T09:13:43Z</time>
      </trkpt>
      <trkpt lat="41.291502" lon="1.859947">
        <ele>189.256</ele>
        <time>2013-10-27T09:13:48Z</time>
      </trkpt>
      <trkpt lat="41.291485" lon="1.859970">
        <ele>189.621</ele>
        <time>2013-10-27T09:13:50Z</time>
      </trkpt>
      <trkpt lat="41.291475" lon="1.859975">
        <ele>190.008</ele>
        <time>2013-10-27T09:13:51Z</time>
      </trkpt>
      <trkpt lat="41.291463" lon="1.859982">
        <ele>190.618</ele>
        <time>2013-10-27T09:13:52Z</time>
      </trkpt>
      <trkpt lat="41.291453" lon="1.859992">
        <ele>191.041</ele>
        <time>2013-10-27T09:13:53Z</time>
      </trkpt>
      <trkpt lat="41.291442" lon="1.859998">
        <ele>191.453</ele>
        <time>2013-10-27T09:13:54Z</time>
      </trkpt>
      <trkpt lat="41.291433" lon="1.860008">
        <ele>191.469</ele>
        <time>2013-10-27T09:13:55Z</time>
      </trkpt>
      <trkpt lat="41.291368" lon="1.860053">
        <ele>191.891</ele>
        <time>2013-10-27T09:14:00Z</time>
      </trkpt>
      <trkpt lat="41.291353" lon="1.860060">
        <ele>192.292</ele>
        <time>2013-10-27T09:14:01Z</time>
      </trkpt>
      <trkpt lat="41.291338" lon="1.860065">
        <ele>192.628</ele>
        <time>2013-10-27T09:14:02Z</time>
      </trkpt>
      <trkpt lat="41.291323" lon="1.860077">
        <ele>193.052</ele>
        <time>2013-10-27T09:14:03Z</time>
      </trkpt>
      <trkpt lat="41.291308" lon="1.860083">
        <ele>193.489</ele>
        <time>2013-10-27T09:14:04Z</time>
      </trkpt>
      <trkpt lat="41.291265" lon="1.860108">
        <ele>193.406</ele>
        <time>2013-10-27T09:14:07Z</time>
      </trkpt>
      <trkpt lat="41.291188" lon="1.860138">
        <ele>193.426</ele>
        <time>2013-10-27T09:14:12Z</time>
      </trkpt>
      <trkpt lat="41.291073" lon="1.860113">
        <ele>193.408</ele>
        <time>2013-10-27T09:14:18Z</time>
      </trkpt>
      <trkpt lat="41.291035" lon="1.860088">
        <ele>194.459</ele>
        <time>2013-10-27T09:14:20Z</time>
      </trkpt>
      <trkpt lat="41.291017" lon="1.860070">
        <ele>194.832</ele>
        <time>2013-10-27T09:14:21Z</time>
      </trkpt>
      <trkpt lat="41.291005" lon="1.860048">
        <ele>195.224</ele>
        <time>2013-10-27T09:14:22Z</time>
      </trkpt>
      <trkpt lat="41.290995" lon="1.860020">
        <ele>195.650</ele>
        <time>2013-10-27T09:14:23Z</time>
      </trkpt>
      <trkpt lat="41.290985" lon="1.859993">
        <ele>195.652</ele>
        <time>2013-10-27T09:14:24Z</time>
      </trkpt>
      <trkpt lat="41.290962" lon="1.859852">
        <ele>195.683</ele>
        <time>2013-10-27T09:14:30Z</time>
      </trkpt>
      <trkpt lat="41.290923" lon="1.859698">
        <ele>196.029</ele>
        <time>2013-10-27T09:14:37Z</time>
      </trkpt>
      <trkpt lat="41.290922" lon="1.859673">
        <ele>196.493</ele>
        <time>2013-10-27T09:14:38Z</time>
      </trkpt>
      <trkpt lat="41.290917" lon="1.859652">
        <ele>196.885</ele>
        <time>2013-10-27T09:14:39Z</time>
      </trkpt>
      <trkpt lat="41.290917" lon="1.859628">
        <ele>197.489</ele>
        <time>2013-10-27T09:14:40Z</time>
      </trkpt>
      <trkpt lat="41.290917" lon="1.859607">
        <ele>197.817</ele>
        <time>2013-10-27T09:14:41Z</time>
      </trkpt>
      <trkpt lat="41.290913" lon="1.859518">
        <ele>197.808</ele>
        <time>2013-10-27T09:14:45Z</time>
      </trkpt>
      <trkpt lat="41.290920" lon="1.859497">
        <ele>197.879</ele>
        <time>2013-10-27T09:14:46Z</time>
      </trkpt>
      <trkpt lat="41.290927" lon="1.859418">
        <ele>197.812</ele>
        <time>2013-10-27T09:14:49Z</time>
      </trkpt>
      <trkpt lat="41.290925" lon="1.859308">
        <ele>198.274</ele>
        <time>2013-10-27T09:14:53Z</time>
      </trkpt>
      <trkpt lat="41.290927" lon="1.859283">
        <ele>198.640</ele>
        <time>2013-10-27T09:14:54Z</time>
      </trkpt>
      <trkpt lat="41.290928" lon="1.859257">
        <ele>199.022</ele>
        <time>2013-10-27T09:14:55Z</time>
      </trkpt>
      <trkpt lat="41.290925" lon="1.859230">
        <ele>199.413</ele>
        <time>2013-10-27T09:14:56Z</time>
      </trkpt>
      <trkpt lat="41.290923" lon="1.859200">
        <ele>199.899</ele>
        <time>2013-10-27T09:14:57Z</time>
      </trkpt>
      <trkpt lat="41.290940" lon="1.859045">
        <ele>199.853</ele>
        <time>2013-10-27T09:15:02Z</time>
      </trkpt>
      <trkpt lat="41.290940" lon="1.859017">
        <ele>200.243</ele>
        <time>2013-10-27T09:15:03Z</time>
      </trkpt>
      <trkpt lat="41.290938" lon="1.858987">
        <ele>200.664</ele>
        <time>2013-10-27T09:15:04Z</time>
      </trkpt>
      <trkpt lat="41.290938" lon="1.858953">
        <ele>201.010</ele>
        <time>2013-10-27T09:15:05Z</time>
      </trkpt>
      <trkpt lat="41.290940" lon="1.858922">
        <ele>201.408</ele>
        <time>2013-10-27T09:15:06Z</time>
      </trkpt>
      <trkpt lat="41.290943" lon="1.858887">
        <ele>201.865</ele>
        <time>2013-10-27T09:15:07Z</time>
      </trkpt>
      <trkpt lat="41.290953" lon="1.858662">
        <ele>201.818</ele>
        <time>2013-10-27T09:15:14Z</time>
      </trkpt>
      <trkpt lat="41.290962" lon="1.858418">
        <ele>201.840</ele>
        <time>2013-10-27T09:15:22Z</time>
      </trkpt>
      <trkpt lat="41.290980" lon="1.858315">
        <ele>201.816</ele>
        <time>2013-10-27T09:15:26Z</time>
      </trkpt>
      <trkpt lat="41.290987" lon="1.858295">
        <ele>201.848</ele>
        <time>2013-10-27T09:15:27Z</time>
      </trkpt>
      <trkpt lat="41.291002" lon="1.858278">
        <ele>201.889</ele>
        <time>2013-10-27T09:15:28Z</time>
      </trkpt>
    </trkseg>
  </trk>
</gpx>
